<?xml version="1.0" encoding="UTF-8" standalone="no" ?>
<gpx xmlns="http://www.topografix.com/GPX/1/1" xmlns:xsi="http://www.w3.org/2001/XMLSchema-instance" xsi:schemaLocation="http://www.topografix.com/GPX/1/1 http://www.topografix.com/GPX/1/1/gpx.xsd" version="1.1" creator="VisuGPX - https://www.visugpx.com">
  <metadata>
    <name>Boucle Nuits saint Georges par Concoeur</name>
    <desc><![CDATA[Boucle Nuits saint Georges par Concoeur]]></desc>
  </metadata>
  <trk>
    <name><![CDATA[29 juin 2024 08:50:21]]></name>
    <extensions>
      <line xmlns="http://www.topografix.com/GPX/gpx_style/0/2">
        <color>0000FF</color>
        <width>4</width>
      </line>
    </extensions>
    <trkseg>
      <trkpt lat="47.14797" lon="4.93289">
        <ele>284.4</ele>
        <time>2024-06-29T06:50:23Z</time>
      </trkpt>
      <trkpt lat="47.14798" lon="4.93288">
        <ele>282.6</ele>
        <time>2024-06-29T06:50:26Z</time>
      </trkpt>
      <trkpt lat="47.14796" lon="4.93287">
        <ele>276</ele>
        <time>2024-06-29T06:50:31Z</time>
      </trkpt>
      <trkpt lat="47.14798" lon="4.93286">
        <ele>275</ele>
        <time>2024-06-29T06:50:42Z</time>
      </trkpt>
      <trkpt lat="47.14797" lon="4.93285">
        <ele>274.4</ele>
        <time>2024-06-29T06:50:46Z</time>
      </trkpt>
      <trkpt lat="47.14797" lon="4.93284">
        <ele>275.2</ele>
        <time>2024-06-29T06:50:55Z</time>
      </trkpt>
      <trkpt lat="47.14796" lon="4.93283">
        <ele>276.4</ele>
        <time>2024-06-29T06:51:10Z</time>
      </trkpt>
      <trkpt lat="47.14797" lon="4.93284">
        <ele>275.2</ele>
        <time>2024-06-29T06:51:15Z</time>
      </trkpt>
      <trkpt lat="47.14797" lon="4.93283">
        <ele>275.7</ele>
        <time>2024-06-29T06:51:52Z</time>
      </trkpt>
      <trkpt lat="47.14796" lon="4.93282">
        <ele>275.8</ele>
        <time>2024-06-29T06:52:00Z</time>
      </trkpt>
      <trkpt lat="47.14796" lon="4.9328">
        <ele>275.7</ele>
        <time>2024-06-29T06:52:04Z</time>
      </trkpt>
      <trkpt lat="47.14796" lon="4.93279">
        <ele>275</ele>
        <time>2024-06-29T06:52:07Z</time>
      </trkpt>
      <trkpt lat="47.14795" lon="4.9328">
        <ele>274.2</ele>
        <time>2024-06-29T06:52:11Z</time>
      </trkpt>
      <trkpt lat="47.14796" lon="4.93279">
        <ele>274.1</ele>
        <time>2024-06-29T06:52:23Z</time>
      </trkpt>
      <trkpt lat="47.14795" lon="4.93279">
        <ele>275.6</ele>
        <time>2024-06-29T06:52:43Z</time>
      </trkpt>
      <trkpt lat="47.14794" lon="4.93279">
        <ele>275.6</ele>
        <time>2024-06-29T06:52:45Z</time>
      </trkpt>
      <trkpt lat="47.14792" lon="4.93279">
        <ele>276.5</ele>
        <time>2024-06-29T06:52:47Z</time>
      </trkpt>
      <trkpt lat="47.14791" lon="4.93277">
        <ele>277.4</ele>
        <time>2024-06-29T06:52:49Z</time>
      </trkpt>
      <trkpt lat="47.1479" lon="4.93277">
        <ele>277.7</ele>
        <time>2024-06-29T06:52:51Z</time>
      </trkpt>
      <trkpt lat="47.14789" lon="4.93277">
        <ele>277.6</ele>
        <time>2024-06-29T06:52:56Z</time>
      </trkpt>
      <trkpt lat="47.14787" lon="4.93278">
        <ele>276.9</ele>
        <time>2024-06-29T06:52:59Z</time>
      </trkpt>
      <trkpt lat="47.14786" lon="4.93278">
        <ele>276.8</ele>
        <time>2024-06-29T06:53:27Z</time>
      </trkpt>
      <trkpt lat="47.14786" lon="4.9328">
        <ele>276.7</ele>
        <time>2024-06-29T06:53:30Z</time>
      </trkpt>
      <trkpt lat="47.14787" lon="4.9328">
        <ele>276.2</ele>
        <time>2024-06-29T06:53:37Z</time>
      </trkpt>
      <trkpt lat="47.14788" lon="4.9328">
        <ele>276.5</ele>
        <time>2024-06-29T06:53:39Z</time>
      </trkpt>
      <trkpt lat="47.1479" lon="4.93279">
        <ele>276.3</ele>
        <time>2024-06-29T06:53:41Z</time>
      </trkpt>
      <trkpt lat="47.14791" lon="4.93278">
        <ele>275.6</ele>
        <time>2024-06-29T06:53:44Z</time>
      </trkpt>
      <trkpt lat="47.14793" lon="4.93278">
        <ele>275.7</ele>
        <time>2024-06-29T06:53:46Z</time>
      </trkpt>
      <trkpt lat="47.14794" lon="4.93277">
        <ele>275.7</ele>
        <time>2024-06-29T06:53:48Z</time>
      </trkpt>
      <trkpt lat="47.14795" lon="4.93276">
        <ele>275.6</ele>
        <time>2024-06-29T06:53:49Z</time>
      </trkpt>
      <trkpt lat="47.14797" lon="4.93276">
        <ele>275.3</ele>
        <time>2024-06-29T06:53:51Z</time>
      </trkpt>
      <trkpt lat="47.14798" lon="4.93275">
        <ele>275.1</ele>
        <time>2024-06-29T06:53:53Z</time>
      </trkpt>
      <trkpt lat="47.148" lon="4.93274">
        <ele>275.2</ele>
        <time>2024-06-29T06:53:55Z</time>
      </trkpt>
      <trkpt lat="47.14801" lon="4.93273">
        <ele>275.2</ele>
        <time>2024-06-29T06:53:57Z</time>
      </trkpt>
      <trkpt lat="47.14803" lon="4.93273">
        <ele>275.6</ele>
        <time>2024-06-29T06:53:59Z</time>
      </trkpt>
      <trkpt lat="47.14804" lon="4.93271">
        <ele>275.2</ele>
        <time>2024-06-29T06:54:01Z</time>
      </trkpt>
      <trkpt lat="47.14804" lon="4.93269">
        <ele>275</ele>
        <time>2024-06-29T06:54:03Z</time>
      </trkpt>
      <trkpt lat="47.14804" lon="4.93268">
        <ele>275</ele>
        <time>2024-06-29T06:54:04Z</time>
      </trkpt>
      <trkpt lat="47.14805" lon="4.93266">
        <ele>274.9</ele>
        <time>2024-06-29T06:54:05Z</time>
      </trkpt>
      <trkpt lat="47.14805" lon="4.93265">
        <ele>274.7</ele>
        <time>2024-06-29T06:54:06Z</time>
      </trkpt>
      <trkpt lat="47.14805" lon="4.93263">
        <ele>274.8</ele>
        <time>2024-06-29T06:54:07Z</time>
      </trkpt>
      <trkpt lat="47.14805" lon="4.93261">
        <ele>274.8</ele>
        <time>2024-06-29T06:54:08Z</time>
      </trkpt>
      <trkpt lat="47.14805" lon="4.9326">
        <ele>275</ele>
        <time>2024-06-29T06:54:09Z</time>
      </trkpt>
      <trkpt lat="47.14805" lon="4.93258">
        <ele>275.3</ele>
        <time>2024-06-29T06:54:10Z</time>
      </trkpt>
      <trkpt lat="47.14805" lon="4.93256">
        <ele>275.6</ele>
        <time>2024-06-29T06:54:11Z</time>
      </trkpt>
      <trkpt lat="47.14805" lon="4.93255">
        <ele>275.6</ele>
        <time>2024-06-29T06:54:12Z</time>
      </trkpt>
      <trkpt lat="47.14805" lon="4.93253">
        <ele>276</ele>
        <time>2024-06-29T06:54:13Z</time>
      </trkpt>
      <trkpt lat="47.14805" lon="4.93251">
        <ele>276</ele>
        <time>2024-06-29T06:54:14Z</time>
      </trkpt>
      <trkpt lat="47.14805" lon="4.93249">
        <ele>276.4</ele>
        <time>2024-06-29T06:54:15Z</time>
      </trkpt>
      <trkpt lat="47.14805" lon="4.93248">
        <ele>276.3</ele>
        <time>2024-06-29T06:54:16Z</time>
      </trkpt>
      <trkpt lat="47.14805" lon="4.93246">
        <ele>276.5</ele>
        <time>2024-06-29T06:54:17Z</time>
      </trkpt>
      <trkpt lat="47.14804" lon="4.93245">
        <ele>276.6</ele>
        <time>2024-06-29T06:54:18Z</time>
      </trkpt>
      <trkpt lat="47.14804" lon="4.93243">
        <ele>277</ele>
        <time>2024-06-29T06:54:19Z</time>
      </trkpt>
      <trkpt lat="47.14804" lon="4.93242">
        <ele>277.3</ele>
        <time>2024-06-29T06:54:20Z</time>
      </trkpt>
      <trkpt lat="47.14804" lon="4.9324">
        <ele>277</ele>
        <time>2024-06-29T06:54:22Z</time>
      </trkpt>
      <trkpt lat="47.14804" lon="4.93242">
        <ele>276.8</ele>
        <time>2024-06-29T06:54:28Z</time>
      </trkpt>
      <trkpt lat="47.14804" lon="4.93243">
        <ele>276.8</ele>
        <time>2024-06-29T06:54:29Z</time>
      </trkpt>
      <trkpt lat="47.14804" lon="4.93245">
        <ele>276.7</ele>
        <time>2024-06-29T06:54:30Z</time>
      </trkpt>
      <trkpt lat="47.14804" lon="4.93247">
        <ele>276.7</ele>
        <time>2024-06-29T06:54:32Z</time>
      </trkpt>
      <trkpt lat="47.14804" lon="4.93249">
        <ele>276.7</ele>
        <time>2024-06-29T06:54:33Z</time>
      </trkpt>
      <trkpt lat="47.14804" lon="4.9325">
        <ele>276.8</ele>
        <time>2024-06-29T06:54:34Z</time>
      </trkpt>
      <trkpt lat="47.14804" lon="4.93252">
        <ele>276.8</ele>
        <time>2024-06-29T06:54:35Z</time>
      </trkpt>
      <trkpt lat="47.14804" lon="4.93253">
        <ele>276.6</ele>
        <time>2024-06-29T06:54:36Z</time>
      </trkpt>
      <trkpt lat="47.14804" lon="4.93255">
        <ele>276.5</ele>
        <time>2024-06-29T06:54:37Z</time>
      </trkpt>
      <trkpt lat="47.14803" lon="4.93256">
        <ele>276.2</ele>
        <time>2024-06-29T06:54:38Z</time>
      </trkpt>
      <trkpt lat="47.14803" lon="4.93258">
        <ele>276</ele>
        <time>2024-06-29T06:54:39Z</time>
      </trkpt>
      <trkpt lat="47.14803" lon="4.93259">
        <ele>276.1</ele>
        <time>2024-06-29T06:54:40Z</time>
      </trkpt>
      <trkpt lat="47.14803" lon="4.93261">
        <ele>276</ele>
        <time>2024-06-29T06:54:41Z</time>
      </trkpt>
      <trkpt lat="47.14803" lon="4.93262">
        <ele>275.9</ele>
        <time>2024-06-29T06:54:42Z</time>
      </trkpt>
      <trkpt lat="47.14802" lon="4.93263">
        <ele>276</ele>
        <time>2024-06-29T06:54:43Z</time>
      </trkpt>
      <trkpt lat="47.14802" lon="4.93264">
        <ele>276.2</ele>
        <time>2024-06-29T06:54:44Z</time>
      </trkpt>
      <trkpt lat="47.14801" lon="4.93266">
        <ele>276</ele>
        <time>2024-06-29T06:54:46Z</time>
      </trkpt>
      <trkpt lat="47.148" lon="4.93267">
        <ele>276.4</ele>
        <time>2024-06-29T06:54:47Z</time>
      </trkpt>
      <trkpt lat="47.14799" lon="4.93267">
        <ele>276.8</ele>
        <time>2024-06-29T06:54:48Z</time>
      </trkpt>
      <trkpt lat="47.14798" lon="4.93267">
        <ele>277.2</ele>
        <time>2024-06-29T06:54:49Z</time>
      </trkpt>
      <trkpt lat="47.14797" lon="4.93267">
        <ele>277.9</ele>
        <time>2024-06-29T06:54:50Z</time>
      </trkpt>
      <trkpt lat="47.14795" lon="4.93267">
        <ele>277.9</ele>
        <time>2024-06-29T06:54:51Z</time>
      </trkpt>
      <trkpt lat="47.14794" lon="4.93267">
        <ele>277.8</ele>
        <time>2024-06-29T06:54:52Z</time>
      </trkpt>
      <trkpt lat="47.14793" lon="4.93268">
        <ele>277.8</ele>
        <time>2024-06-29T06:54:53Z</time>
      </trkpt>
      <trkpt lat="47.14792" lon="4.93268">
        <ele>277.7</ele>
        <time>2024-06-29T06:54:54Z</time>
      </trkpt>
      <trkpt lat="47.14791" lon="4.93269">
        <ele>278.3</ele>
        <time>2024-06-29T06:54:55Z</time>
      </trkpt>
      <trkpt lat="47.14791" lon="4.93269">
        <ele>278.4</ele>
        <time>2024-06-29T06:54:56Z</time>
      </trkpt>
      <trkpt lat="47.1479" lon="4.9327">
        <ele>278.4</ele>
        <time>2024-06-29T06:54:57Z</time>
      </trkpt>
      <trkpt lat="47.14789" lon="4.93271">
        <ele>278.6</ele>
        <time>2024-06-29T06:54:58Z</time>
      </trkpt>
      <trkpt lat="47.14788" lon="4.93271">
        <ele>278.8</ele>
        <time>2024-06-29T06:54:59Z</time>
      </trkpt>
      <trkpt lat="47.14787" lon="4.93272">
        <ele>279</ele>
        <time>2024-06-29T06:55:00Z</time>
      </trkpt>
      <trkpt lat="47.14786" lon="4.93273">
        <ele>279</ele>
        <time>2024-06-29T06:55:01Z</time>
      </trkpt>
      <trkpt lat="47.14785" lon="4.93274">
        <ele>278.9</ele>
        <time>2024-06-29T06:55:02Z</time>
      </trkpt>
      <trkpt lat="47.14784" lon="4.93275">
        <ele>278.8</ele>
        <time>2024-06-29T06:55:03Z</time>
      </trkpt>
      <trkpt lat="47.14783" lon="4.93276">
        <ele>278.9</ele>
        <time>2024-06-29T06:55:04Z</time>
      </trkpt>
      <trkpt lat="47.14783" lon="4.93277">
        <ele>278.8</ele>
        <time>2024-06-29T06:55:05Z</time>
      </trkpt>
      <trkpt lat="47.14782" lon="4.93278">
        <ele>278.6</ele>
        <time>2024-06-29T06:55:06Z</time>
      </trkpt>
      <trkpt lat="47.14781" lon="4.93278">
        <ele>278.4</ele>
        <time>2024-06-29T06:55:07Z</time>
      </trkpt>
      <trkpt lat="47.1478" lon="4.93279">
        <ele>278.3</ele>
        <time>2024-06-29T06:55:08Z</time>
      </trkpt>
      <trkpt lat="47.1478" lon="4.9328">
        <ele>278.4</ele>
        <time>2024-06-29T06:55:09Z</time>
      </trkpt>
      <trkpt lat="47.14779" lon="4.93281">
        <ele>278.3</ele>
        <time>2024-06-29T06:55:10Z</time>
      </trkpt>
      <trkpt lat="47.14778" lon="4.93281">
        <ele>278.3</ele>
        <time>2024-06-29T06:55:11Z</time>
      </trkpt>
      <trkpt lat="47.14777" lon="4.93282">
        <ele>278.3</ele>
        <time>2024-06-29T06:55:12Z</time>
      </trkpt>
      <trkpt lat="47.14776" lon="4.93284">
        <ele>277.9</ele>
        <time>2024-06-29T06:55:14Z</time>
      </trkpt>
      <trkpt lat="47.14774" lon="4.93285">
        <ele>277.4</ele>
        <time>2024-06-29T06:55:16Z</time>
      </trkpt>
      <trkpt lat="47.14773" lon="4.93285">
        <ele>277.2</ele>
        <time>2024-06-29T06:55:17Z</time>
      </trkpt>
      <trkpt lat="47.14772" lon="4.93286">
        <ele>276.7</ele>
        <time>2024-06-29T06:55:19Z</time>
      </trkpt>
      <trkpt lat="47.14771" lon="4.93287">
        <ele>276.3</ele>
        <time>2024-06-29T06:55:20Z</time>
      </trkpt>
      <trkpt lat="47.1477" lon="4.93288">
        <ele>276.4</ele>
        <time>2024-06-29T06:55:22Z</time>
      </trkpt>
      <trkpt lat="47.14768" lon="4.9329">
        <ele>276</ele>
        <time>2024-06-29T06:55:24Z</time>
      </trkpt>
      <trkpt lat="47.14768" lon="4.93291">
        <ele>275.7</ele>
        <time>2024-06-29T06:55:25Z</time>
      </trkpt>
      <trkpt lat="47.14767" lon="4.93293">
        <ele>275.5</ele>
        <time>2024-06-29T06:55:26Z</time>
      </trkpt>
      <trkpt lat="47.14766" lon="4.93294">
        <ele>275.4</ele>
        <time>2024-06-29T06:55:27Z</time>
      </trkpt>
      <trkpt lat="47.14765" lon="4.93295">
        <ele>275.4</ele>
        <time>2024-06-29T06:55:28Z</time>
      </trkpt>
      <trkpt lat="47.14765" lon="4.93296">
        <ele>275.4</ele>
        <time>2024-06-29T06:55:29Z</time>
      </trkpt>
      <trkpt lat="47.14764" lon="4.93298">
        <ele>275.3</ele>
        <time>2024-06-29T06:55:30Z</time>
      </trkpt>
      <trkpt lat="47.14764" lon="4.93299">
        <ele>274.9</ele>
        <time>2024-06-29T06:55:31Z</time>
      </trkpt>
      <trkpt lat="47.14763" lon="4.933">
        <ele>275.1</ele>
        <time>2024-06-29T06:55:32Z</time>
      </trkpt>
      <trkpt lat="47.14762" lon="4.93302">
        <ele>275.1</ele>
        <time>2024-06-29T06:55:33Z</time>
      </trkpt>
      <trkpt lat="47.14762" lon="4.93303">
        <ele>274.6</ele>
        <time>2024-06-29T06:55:34Z</time>
      </trkpt>
      <trkpt lat="47.14762" lon="4.93305">
        <ele>274.6</ele>
        <time>2024-06-29T06:55:35Z</time>
      </trkpt>
      <trkpt lat="47.14762" lon="4.93307">
        <ele>274.7</ele>
        <time>2024-06-29T06:55:36Z</time>
      </trkpt>
      <trkpt lat="47.14762" lon="4.93309">
        <ele>274.5</ele>
        <time>2024-06-29T06:55:37Z</time>
      </trkpt>
      <trkpt lat="47.14762" lon="4.9331">
        <ele>274.8</ele>
        <time>2024-06-29T06:55:38Z</time>
      </trkpt>
      <trkpt lat="47.14762" lon="4.93312">
        <ele>275.1</ele>
        <time>2024-06-29T06:55:39Z</time>
      </trkpt>
      <trkpt lat="47.14762" lon="4.93314">
        <ele>275.4</ele>
        <time>2024-06-29T06:55:40Z</time>
      </trkpt>
      <trkpt lat="47.14762" lon="4.93315">
        <ele>275.5</ele>
        <time>2024-06-29T06:55:41Z</time>
      </trkpt>
      <trkpt lat="47.14763" lon="4.93317">
        <ele>275.3</ele>
        <time>2024-06-29T06:55:42Z</time>
      </trkpt>
      <trkpt lat="47.14763" lon="4.93318">
        <ele>275.3</ele>
        <time>2024-06-29T06:55:43Z</time>
      </trkpt>
      <trkpt lat="47.14764" lon="4.9332">
        <ele>275.2</ele>
        <time>2024-06-29T06:55:44Z</time>
      </trkpt>
      <trkpt lat="47.14765" lon="4.93321">
        <ele>274.9</ele>
        <time>2024-06-29T06:55:45Z</time>
      </trkpt>
      <trkpt lat="47.14765" lon="4.93322">
        <ele>274.6</ele>
        <time>2024-06-29T06:55:46Z</time>
      </trkpt>
      <trkpt lat="47.14766" lon="4.93324">
        <ele>274.6</ele>
        <time>2024-06-29T06:55:47Z</time>
      </trkpt>
      <trkpt lat="47.14767" lon="4.93325">
        <ele>274.6</ele>
        <time>2024-06-29T06:55:48Z</time>
      </trkpt>
      <trkpt lat="47.14768" lon="4.93326">
        <ele>274.3</ele>
        <time>2024-06-29T06:55:49Z</time>
      </trkpt>
      <trkpt lat="47.14769" lon="4.93328">
        <ele>274.1</ele>
        <time>2024-06-29T06:55:50Z</time>
      </trkpt>
      <trkpt lat="47.14769" lon="4.93329">
        <ele>274.2</ele>
        <time>2024-06-29T06:55:51Z</time>
      </trkpt>
      <trkpt lat="47.1477" lon="4.9333">
        <ele>273.8</ele>
        <time>2024-06-29T06:55:52Z</time>
      </trkpt>
      <trkpt lat="47.14771" lon="4.93331">
        <ele>273.7</ele>
        <time>2024-06-29T06:55:53Z</time>
      </trkpt>
      <trkpt lat="47.14772" lon="4.93332">
        <ele>273.7</ele>
        <time>2024-06-29T06:55:54Z</time>
      </trkpt>
      <trkpt lat="47.14773" lon="4.93333">
        <ele>273.5</ele>
        <time>2024-06-29T06:55:55Z</time>
      </trkpt>
      <trkpt lat="47.14773" lon="4.93334">
        <ele>274</ele>
        <time>2024-06-29T06:55:56Z</time>
      </trkpt>
      <trkpt lat="47.14775" lon="4.93335">
        <ele>274.2</ele>
        <time>2024-06-29T06:55:58Z</time>
      </trkpt>
      <trkpt lat="47.14776" lon="4.93336">
        <ele>274.7</ele>
        <time>2024-06-29T06:56:00Z</time>
      </trkpt>
      <trkpt lat="47.14777" lon="4.93337">
        <ele>275.2</ele>
        <time>2024-06-29T06:56:02Z</time>
      </trkpt>
      <trkpt lat="47.14779" lon="4.93338">
        <ele>275.2</ele>
        <time>2024-06-29T06:56:04Z</time>
      </trkpt>
      <trkpt lat="47.1478" lon="4.9334">
        <ele>275.6</ele>
        <time>2024-06-29T06:56:06Z</time>
      </trkpt>
      <trkpt lat="47.14781" lon="4.93341">
        <ele>276</ele>
        <time>2024-06-29T06:56:08Z</time>
      </trkpt>
      <trkpt lat="47.14783" lon="4.93342">
        <ele>276.4</ele>
        <time>2024-06-29T06:56:10Z</time>
      </trkpt>
      <trkpt lat="47.14784" lon="4.93344">
        <ele>276.8</ele>
        <time>2024-06-29T06:56:12Z</time>
      </trkpt>
      <trkpt lat="47.14785" lon="4.93345">
        <ele>276.9</ele>
        <time>2024-06-29T06:56:14Z</time>
      </trkpt>
      <trkpt lat="47.14787" lon="4.93347">
        <ele>277.2</ele>
        <time>2024-06-29T06:56:16Z</time>
      </trkpt>
      <trkpt lat="47.14788" lon="4.93347">
        <ele>277.4</ele>
        <time>2024-06-29T06:56:18Z</time>
      </trkpt>
      <trkpt lat="47.14789" lon="4.93347">
        <ele>277.7</ele>
        <time>2024-06-29T06:56:20Z</time>
      </trkpt>
      <trkpt lat="47.14791" lon="4.93347">
        <ele>277.7</ele>
        <time>2024-06-29T06:56:22Z</time>
      </trkpt>
      <trkpt lat="47.14793" lon="4.93346">
        <ele>278.1</ele>
        <time>2024-06-29T06:56:24Z</time>
      </trkpt>
      <trkpt lat="47.14794" lon="4.93345">
        <ele>277.9</ele>
        <time>2024-06-29T06:56:25Z</time>
      </trkpt>
      <trkpt lat="47.14795" lon="4.93344">
        <ele>278.2</ele>
        <time>2024-06-29T06:56:26Z</time>
      </trkpt>
      <trkpt lat="47.14795" lon="4.93343">
        <ele>278.2</ele>
        <time>2024-06-29T06:56:27Z</time>
      </trkpt>
      <trkpt lat="47.14797" lon="4.93341">
        <ele>278.2</ele>
        <time>2024-06-29T06:56:29Z</time>
      </trkpt>
      <trkpt lat="47.14798" lon="4.9334">
        <ele>278.6</ele>
        <time>2024-06-29T06:56:31Z</time>
      </trkpt>
      <trkpt lat="47.14799" lon="4.93339">
        <ele>278.5</ele>
        <time>2024-06-29T06:56:33Z</time>
      </trkpt>
      <trkpt lat="47.148" lon="4.93338">
        <ele>278.5</ele>
        <time>2024-06-29T06:56:34Z</time>
      </trkpt>
      <trkpt lat="47.148" lon="4.93337">
        <ele>278.7</ele>
        <time>2024-06-29T06:56:35Z</time>
      </trkpt>
      <trkpt lat="47.14801" lon="4.93336">
        <ele>278.6</ele>
        <time>2024-06-29T06:56:36Z</time>
      </trkpt>
      <trkpt lat="47.14802" lon="4.93335">
        <ele>278.4</ele>
        <time>2024-06-29T06:56:37Z</time>
      </trkpt>
      <trkpt lat="47.14803" lon="4.93334">
        <ele>278.3</ele>
        <time>2024-06-29T06:56:38Z</time>
      </trkpt>
      <trkpt lat="47.14804" lon="4.93333">
        <ele>278.1</ele>
        <time>2024-06-29T06:56:40Z</time>
      </trkpt>
      <trkpt lat="47.14805" lon="4.93331">
        <ele>278</ele>
        <time>2024-06-29T06:56:42Z</time>
      </trkpt>
      <trkpt lat="47.14807" lon="4.93329">
        <ele>278.3</ele>
        <time>2024-06-29T06:56:44Z</time>
      </trkpt>
      <trkpt lat="47.14808" lon="4.93328">
        <ele>278.1</ele>
        <time>2024-06-29T06:56:46Z</time>
      </trkpt>
      <trkpt lat="47.14809" lon="4.93327">
        <ele>277.9</ele>
        <time>2024-06-29T06:56:48Z</time>
      </trkpt>
      <trkpt lat="47.14811" lon="4.93325">
        <ele>278.2</ele>
        <time>2024-06-29T06:56:50Z</time>
      </trkpt>
      <trkpt lat="47.14812" lon="4.93324">
        <ele>278.6</ele>
        <time>2024-06-29T06:56:52Z</time>
      </trkpt>
      <trkpt lat="47.14814" lon="4.93323">
        <ele>278.8</ele>
        <time>2024-06-29T06:56:54Z</time>
      </trkpt>
      <trkpt lat="47.14815" lon="4.93322">
        <ele>278.7</ele>
        <time>2024-06-29T06:56:56Z</time>
      </trkpt>
      <trkpt lat="47.14817" lon="4.93322">
        <ele>278.9</ele>
        <time>2024-06-29T06:56:58Z</time>
      </trkpt>
      <trkpt lat="47.14818" lon="4.93322">
        <ele>279.3</ele>
        <time>2024-06-29T06:57:00Z</time>
      </trkpt>
      <trkpt lat="47.14819" lon="4.93322">
        <ele>279.1</ele>
        <time>2024-06-29T06:57:01Z</time>
      </trkpt>
      <trkpt lat="47.1482" lon="4.93322">
        <ele>279.2</ele>
        <time>2024-06-29T06:57:02Z</time>
      </trkpt>
      <trkpt lat="47.14821" lon="4.93321">
        <ele>279</ele>
        <time>2024-06-29T06:57:03Z</time>
      </trkpt>
      <trkpt lat="47.14822" lon="4.93321">
        <ele>279.1</ele>
        <time>2024-06-29T06:57:04Z</time>
      </trkpt>
      <trkpt lat="47.14823" lon="4.93321">
        <ele>279.2</ele>
        <time>2024-06-29T06:57:05Z</time>
      </trkpt>
      <trkpt lat="47.14824" lon="4.93321">
        <ele>279</ele>
        <time>2024-06-29T06:57:06Z</time>
      </trkpt>
      <trkpt lat="47.14826" lon="4.9332">
        <ele>279.3</ele>
        <time>2024-06-29T06:57:08Z</time>
      </trkpt>
      <trkpt lat="47.14827" lon="4.9332">
        <ele>279.5</ele>
        <time>2024-06-29T06:57:09Z</time>
      </trkpt>
      <trkpt lat="47.14828" lon="4.9332">
        <ele>279.8</ele>
        <time>2024-06-29T06:57:10Z</time>
      </trkpt>
      <trkpt lat="47.14829" lon="4.9332">
        <ele>279.8</ele>
        <time>2024-06-29T06:57:11Z</time>
      </trkpt>
      <trkpt lat="47.1483" lon="4.93321">
        <ele>279.9</ele>
        <time>2024-06-29T06:57:12Z</time>
      </trkpt>
      <trkpt lat="47.1483" lon="4.93321">
        <ele>280.4</ele>
        <time>2024-06-29T06:57:13Z</time>
      </trkpt>
      <trkpt lat="47.14831" lon="4.93321">
        <ele>280.2</ele>
        <time>2024-06-29T06:57:14Z</time>
      </trkpt>
      <trkpt lat="47.14832" lon="4.93322">
        <ele>280.6</ele>
        <time>2024-06-29T06:57:15Z</time>
      </trkpt>
      <trkpt lat="47.14833" lon="4.93322">
        <ele>280.7</ele>
        <time>2024-06-29T06:57:16Z</time>
      </trkpt>
      <trkpt lat="47.14834" lon="4.93323">
        <ele>280.6</ele>
        <time>2024-06-29T06:57:17Z</time>
      </trkpt>
      <trkpt lat="47.14834" lon="4.93324">
        <ele>280.6</ele>
        <time>2024-06-29T06:57:18Z</time>
      </trkpt>
      <trkpt lat="47.14835" lon="4.93325">
        <ele>280.5</ele>
        <time>2024-06-29T06:57:19Z</time>
      </trkpt>
      <trkpt lat="47.14836" lon="4.93326">
        <ele>280.4</ele>
        <time>2024-06-29T06:57:20Z</time>
      </trkpt>
      <trkpt lat="47.14836" lon="4.93327">
        <ele>280.6</ele>
        <time>2024-06-29T06:57:21Z</time>
      </trkpt>
      <trkpt lat="47.14837" lon="4.93329">
        <ele>280.8</ele>
        <time>2024-06-29T06:57:22Z</time>
      </trkpt>
      <trkpt lat="47.14837" lon="4.93331">
        <ele>280.9</ele>
        <time>2024-06-29T06:57:24Z</time>
      </trkpt>
      <trkpt lat="47.14837" lon="4.93334">
        <ele>281.2</ele>
        <time>2024-06-29T06:57:26Z</time>
      </trkpt>
      <trkpt lat="47.14837" lon="4.93336">
        <ele>281.5</ele>
        <time>2024-06-29T06:57:28Z</time>
      </trkpt>
      <trkpt lat="47.14837" lon="4.93338">
        <ele>281.5</ele>
        <time>2024-06-29T06:57:29Z</time>
      </trkpt>
      <trkpt lat="47.14837" lon="4.93339">
        <ele>281.7</ele>
        <time>2024-06-29T06:57:30Z</time>
      </trkpt>
      <trkpt lat="47.14837" lon="4.9334">
        <ele>281.9</ele>
        <time>2024-06-29T06:57:31Z</time>
      </trkpt>
      <trkpt lat="47.14837" lon="4.93342">
        <ele>282</ele>
        <time>2024-06-29T06:57:32Z</time>
      </trkpt>
      <trkpt lat="47.14837" lon="4.93343">
        <ele>282.2</ele>
        <time>2024-06-29T06:57:33Z</time>
      </trkpt>
      <trkpt lat="47.14837" lon="4.93345">
        <ele>282.3</ele>
        <time>2024-06-29T06:57:34Z</time>
      </trkpt>
      <trkpt lat="47.14837" lon="4.93346">
        <ele>282.4</ele>
        <time>2024-06-29T06:57:35Z</time>
      </trkpt>
      <trkpt lat="47.14837" lon="4.93348">
        <ele>282.5</ele>
        <time>2024-06-29T06:57:36Z</time>
      </trkpt>
      <trkpt lat="47.14837" lon="4.9335">
        <ele>282.7</ele>
        <time>2024-06-29T06:57:38Z</time>
      </trkpt>
      <trkpt lat="47.14837" lon="4.93352">
        <ele>282.7</ele>
        <time>2024-06-29T06:57:39Z</time>
      </trkpt>
      <trkpt lat="47.14837" lon="4.93354">
        <ele>282.8</ele>
        <time>2024-06-29T06:57:41Z</time>
      </trkpt>
      <trkpt lat="47.14838" lon="4.93356">
        <ele>283.1</ele>
        <time>2024-06-29T06:57:43Z</time>
      </trkpt>
      <trkpt lat="47.14839" lon="4.93356">
        <ele>283.2</ele>
        <time>2024-06-29T06:57:44Z</time>
      </trkpt>
      <trkpt lat="47.1484" lon="4.93356">
        <ele>283.3</ele>
        <time>2024-06-29T06:57:45Z</time>
      </trkpt>
      <trkpt lat="47.14841" lon="4.93356">
        <ele>283.1</ele>
        <time>2024-06-29T06:57:46Z</time>
      </trkpt>
      <trkpt lat="47.14842" lon="4.93355">
        <ele>283.2</ele>
        <time>2024-06-29T06:57:47Z</time>
      </trkpt>
      <trkpt lat="47.14843" lon="4.93354">
        <ele>283.4</ele>
        <time>2024-06-29T06:57:48Z</time>
      </trkpt>
      <trkpt lat="47.14844" lon="4.93354">
        <ele>283.2</ele>
        <time>2024-06-29T06:57:49Z</time>
      </trkpt>
      <trkpt lat="47.14845" lon="4.93353">
        <ele>283.3</ele>
        <time>2024-06-29T06:57:50Z</time>
      </trkpt>
      <trkpt lat="47.14846" lon="4.93351">
        <ele>283.4</ele>
        <time>2024-06-29T06:57:51Z</time>
      </trkpt>
      <trkpt lat="47.14846" lon="4.9335">
        <ele>283.3</ele>
        <time>2024-06-29T06:57:52Z</time>
      </trkpt>
      <trkpt lat="47.14847" lon="4.93349">
        <ele>283.2</ele>
        <time>2024-06-29T06:57:53Z</time>
      </trkpt>
      <trkpt lat="47.14847" lon="4.93348">
        <ele>283.3</ele>
        <time>2024-06-29T06:57:54Z</time>
      </trkpt>
      <trkpt lat="47.14848" lon="4.93347">
        <ele>283.4</ele>
        <time>2024-06-29T06:57:55Z</time>
      </trkpt>
      <trkpt lat="47.14849" lon="4.93346">
        <ele>283.4</ele>
        <time>2024-06-29T06:57:56Z</time>
      </trkpt>
      <trkpt lat="47.14849" lon="4.93345">
        <ele>283.7</ele>
        <time>2024-06-29T06:57:57Z</time>
      </trkpt>
      <trkpt lat="47.1485" lon="4.93344">
        <ele>284</ele>
        <time>2024-06-29T06:57:58Z</time>
      </trkpt>
      <trkpt lat="47.14851" lon="4.93343">
        <ele>284.2</ele>
        <time>2024-06-29T06:57:59Z</time>
      </trkpt>
      <trkpt lat="47.14852" lon="4.93341">
        <ele>284.7</ele>
        <time>2024-06-29T06:58:01Z</time>
      </trkpt>
      <trkpt lat="47.14852" lon="4.9334">
        <ele>284.8</ele>
        <time>2024-06-29T06:58:02Z</time>
      </trkpt>
      <trkpt lat="47.14853" lon="4.93339">
        <ele>285</ele>
        <time>2024-06-29T06:58:03Z</time>
      </trkpt>
      <trkpt lat="47.14854" lon="4.93336">
        <ele>285.8</ele>
        <time>2024-06-29T06:58:05Z</time>
      </trkpt>
      <trkpt lat="47.14854" lon="4.93335">
        <ele>286</ele>
        <time>2024-06-29T06:58:06Z</time>
      </trkpt>
      <trkpt lat="47.14855" lon="4.93334">
        <ele>286.4</ele>
        <time>2024-06-29T06:58:07Z</time>
      </trkpt>
      <trkpt lat="47.14856" lon="4.93333">
        <ele>286.6</ele>
        <time>2024-06-29T06:58:08Z</time>
      </trkpt>
      <trkpt lat="47.14856" lon="4.93332">
        <ele>286.4</ele>
        <time>2024-06-29T06:58:09Z</time>
      </trkpt>
      <trkpt lat="47.14857" lon="4.93331">
        <ele>286.4</ele>
        <time>2024-06-29T06:58:10Z</time>
      </trkpt>
      <trkpt lat="47.14858" lon="4.93329">
        <ele>286.6</ele>
        <time>2024-06-29T06:58:12Z</time>
      </trkpt>
      <trkpt lat="47.14859" lon="4.93327">
        <ele>287.1</ele>
        <time>2024-06-29T06:58:14Z</time>
      </trkpt>
      <trkpt lat="47.1486" lon="4.93325">
        <ele>287.3</ele>
        <time>2024-06-29T06:58:16Z</time>
      </trkpt>
      <trkpt lat="47.14861" lon="4.93324">
        <ele>287.5</ele>
        <time>2024-06-29T06:58:18Z</time>
      </trkpt>
      <trkpt lat="47.14863" lon="4.93322">
        <ele>287.9</ele>
        <time>2024-06-29T06:58:20Z</time>
      </trkpt>
      <trkpt lat="47.14864" lon="4.9332">
        <ele>287.8</ele>
        <time>2024-06-29T06:58:22Z</time>
      </trkpt>
      <trkpt lat="47.14865" lon="4.93319">
        <ele>288.2</ele>
        <time>2024-06-29T06:58:24Z</time>
      </trkpt>
      <trkpt lat="47.14866" lon="4.93317">
        <ele>288.4</ele>
        <time>2024-06-29T06:58:26Z</time>
      </trkpt>
      <trkpt lat="47.14867" lon="4.93316">
        <ele>288.3</ele>
        <time>2024-06-29T06:58:28Z</time>
      </trkpt>
      <trkpt lat="47.14868" lon="4.93314">
        <ele>288.4</ele>
        <time>2024-06-29T06:58:30Z</time>
      </trkpt>
      <trkpt lat="47.14869" lon="4.93312">
        <ele>288.5</ele>
        <time>2024-06-29T06:58:32Z</time>
      </trkpt>
      <trkpt lat="47.14869" lon="4.9331">
        <ele>288</ele>
        <time>2024-06-29T06:58:34Z</time>
      </trkpt>
      <trkpt lat="47.14869" lon="4.93309">
        <ele>288.5</ele>
        <time>2024-06-29T06:58:36Z</time>
      </trkpt>
      <trkpt lat="47.1487" lon="4.93308">
        <ele>288</ele>
        <time>2024-06-29T06:58:38Z</time>
      </trkpt>
      <trkpt lat="47.14871" lon="4.93306">
        <ele>288.2</ele>
        <time>2024-06-29T06:58:40Z</time>
      </trkpt>
      <trkpt lat="47.14871" lon="4.93304">
        <ele>288.5</ele>
        <time>2024-06-29T06:58:42Z</time>
      </trkpt>
      <trkpt lat="47.14871" lon="4.93302">
        <ele>288.3</ele>
        <time>2024-06-29T06:58:44Z</time>
      </trkpt>
      <trkpt lat="47.14871" lon="4.93301">
        <ele>288</ele>
        <time>2024-06-29T06:58:46Z</time>
      </trkpt>
      <trkpt lat="47.14871" lon="4.93299">
        <ele>288.6</ele>
        <time>2024-06-29T06:58:48Z</time>
      </trkpt>
      <trkpt lat="47.1487" lon="4.93297">
        <ele>290.1</ele>
        <time>2024-06-29T06:58:50Z</time>
      </trkpt>
      <trkpt lat="47.1487" lon="4.93296">
        <ele>290.7</ele>
        <time>2024-06-29T06:58:52Z</time>
      </trkpt>
      <trkpt lat="47.1487" lon="4.93294">
        <ele>291</ele>
        <time>2024-06-29T06:58:55Z</time>
      </trkpt>
      <trkpt lat="47.1487" lon="4.93293">
        <ele>291.9</ele>
        <time>2024-06-29T06:58:57Z</time>
      </trkpt>
      <trkpt lat="47.14869" lon="4.93291">
        <ele>292.9</ele>
        <time>2024-06-29T06:59:00Z</time>
      </trkpt>
      <trkpt lat="47.14869" lon="4.93289">
        <ele>294</ele>
        <time>2024-06-29T06:59:03Z</time>
      </trkpt>
      <trkpt lat="47.14869" lon="4.93287">
        <ele>295.4</ele>
        <time>2024-06-29T06:59:06Z</time>
      </trkpt>
      <trkpt lat="47.14869" lon="4.93286">
        <ele>295.3</ele>
        <time>2024-06-29T06:59:08Z</time>
      </trkpt>
      <trkpt lat="47.14869" lon="4.93285">
        <ele>295.8</ele>
        <time>2024-06-29T06:59:10Z</time>
      </trkpt>
      <trkpt lat="47.14869" lon="4.93283">
        <ele>296</ele>
        <time>2024-06-29T06:59:12Z</time>
      </trkpt>
      <trkpt lat="47.14869" lon="4.93282">
        <ele>296.3</ele>
        <time>2024-06-29T06:59:15Z</time>
      </trkpt>
      <trkpt lat="47.1487" lon="4.9328">
        <ele>296.5</ele>
        <time>2024-06-29T06:59:22Z</time>
      </trkpt>
      <trkpt lat="47.1487" lon="4.93278">
        <ele>296.8</ele>
        <time>2024-06-29T06:59:25Z</time>
      </trkpt>
      <trkpt lat="47.1487" lon="4.93277">
        <ele>297.1</ele>
        <time>2024-06-29T06:59:27Z</time>
      </trkpt>
      <trkpt lat="47.1487" lon="4.93275">
        <ele>297.6</ele>
        <time>2024-06-29T06:59:29Z</time>
      </trkpt>
      <trkpt lat="47.1487" lon="4.93273">
        <ele>297.9</ele>
        <time>2024-06-29T06:59:31Z</time>
      </trkpt>
      <trkpt lat="47.1487" lon="4.93271">
        <ele>298.3</ele>
        <time>2024-06-29T06:59:33Z</time>
      </trkpt>
      <trkpt lat="47.14871" lon="4.93269">
        <ele>298.6</ele>
        <time>2024-06-29T06:59:35Z</time>
      </trkpt>
      <trkpt lat="47.14871" lon="4.93267">
        <ele>298.5</ele>
        <time>2024-06-29T06:59:37Z</time>
      </trkpt>
      <trkpt lat="47.14872" lon="4.93266">
        <ele>298.1</ele>
        <time>2024-06-29T06:59:39Z</time>
      </trkpt>
      <trkpt lat="47.14873" lon="4.93265">
        <ele>298.2</ele>
        <time>2024-06-29T06:59:42Z</time>
      </trkpt>
      <trkpt lat="47.14874" lon="4.93264">
        <ele>298.4</ele>
        <time>2024-06-29T06:59:45Z</time>
      </trkpt>
      <trkpt lat="47.14874" lon="4.93263">
        <ele>298.6</ele>
        <time>2024-06-29T06:59:48Z</time>
      </trkpt>
      <trkpt lat="47.14875" lon="4.93262">
        <ele>299.5</ele>
        <time>2024-06-29T06:59:51Z</time>
      </trkpt>
      <trkpt lat="47.14876" lon="4.9326">
        <ele>299.7</ele>
        <time>2024-06-29T06:59:53Z</time>
      </trkpt>
      <trkpt lat="47.14877" lon="4.9326">
        <ele>300.4</ele>
        <time>2024-06-29T06:59:58Z</time>
      </trkpt>
      <trkpt lat="47.14877" lon="4.93259">
        <ele>301.2</ele>
        <time>2024-06-29T07:00:01Z</time>
      </trkpt>
      <trkpt lat="47.14877" lon="4.93257">
        <ele>301.6</ele>
        <time>2024-06-29T07:00:03Z</time>
      </trkpt>
      <trkpt lat="47.14878" lon="4.93255">
        <ele>301.7</ele>
        <time>2024-06-29T07:00:06Z</time>
      </trkpt>
      <trkpt lat="47.14878" lon="4.93254">
        <ele>302.3</ele>
        <time>2024-06-29T07:00:08Z</time>
      </trkpt>
      <trkpt lat="47.14879" lon="4.93252">
        <ele>303</ele>
        <time>2024-06-29T07:00:11Z</time>
      </trkpt>
      <trkpt lat="47.14879" lon="4.93251">
        <ele>303.5</ele>
        <time>2024-06-29T07:00:13Z</time>
      </trkpt>
      <trkpt lat="47.1488" lon="4.93249">
        <ele>304.7</ele>
        <time>2024-06-29T07:00:19Z</time>
      </trkpt>
      <trkpt lat="47.1488" lon="4.93247">
        <ele>305.6</ele>
        <time>2024-06-29T07:00:23Z</time>
      </trkpt>
      <trkpt lat="47.1488" lon="4.93246">
        <ele>305.9</ele>
        <time>2024-06-29T07:00:26Z</time>
      </trkpt>
      <trkpt lat="47.1488" lon="4.93244">
        <ele>306</ele>
        <time>2024-06-29T07:00:28Z</time>
      </trkpt>
      <trkpt lat="47.1488" lon="4.93243">
        <ele>306.8</ele>
        <time>2024-06-29T07:00:30Z</time>
      </trkpt>
      <trkpt lat="47.14881" lon="4.93242">
        <ele>306.7</ele>
        <time>2024-06-29T07:00:33Z</time>
      </trkpt>
      <trkpt lat="47.14882" lon="4.9324">
        <ele>307.1</ele>
        <time>2024-06-29T07:00:37Z</time>
      </trkpt>
      <trkpt lat="47.14882" lon="4.93239">
        <ele>307.2</ele>
        <time>2024-06-29T07:00:40Z</time>
      </trkpt>
      <trkpt lat="47.14882" lon="4.93237">
        <ele>307.4</ele>
        <time>2024-06-29T07:00:43Z</time>
      </trkpt>
      <trkpt lat="47.14882" lon="4.93235">
        <ele>307.3</ele>
        <time>2024-06-29T07:00:45Z</time>
      </trkpt>
      <trkpt lat="47.14883" lon="4.93234">
        <ele>307.8</ele>
        <time>2024-06-29T07:00:47Z</time>
      </trkpt>
      <trkpt lat="47.14883" lon="4.93232">
        <ele>308.1</ele>
        <time>2024-06-29T07:00:50Z</time>
      </trkpt>
      <trkpt lat="47.14884" lon="4.93231">
        <ele>308.8</ele>
        <time>2024-06-29T07:00:53Z</time>
      </trkpt>
      <trkpt lat="47.14884" lon="4.93229">
        <ele>309.1</ele>
        <time>2024-06-29T07:00:55Z</time>
      </trkpt>
      <trkpt lat="47.14884" lon="4.93227">
        <ele>309.5</ele>
        <time>2024-06-29T07:00:57Z</time>
      </trkpt>
      <trkpt lat="47.14885" lon="4.93225">
        <ele>309.8</ele>
        <time>2024-06-29T07:00:59Z</time>
      </trkpt>
      <trkpt lat="47.14885" lon="4.93224">
        <ele>310.5</ele>
        <time>2024-06-29T07:01:01Z</time>
      </trkpt>
      <trkpt lat="47.14886" lon="4.93222">
        <ele>311.4</ele>
        <time>2024-06-29T07:01:04Z</time>
      </trkpt>
      <trkpt lat="47.14886" lon="4.93221">
        <ele>311.7</ele>
        <time>2024-06-29T07:01:07Z</time>
      </trkpt>
      <trkpt lat="47.14887" lon="4.93219">
        <ele>311.9</ele>
        <time>2024-06-29T07:01:10Z</time>
      </trkpt>
      <trkpt lat="47.14887" lon="4.93217">
        <ele>312</ele>
        <time>2024-06-29T07:01:13Z</time>
      </trkpt>
      <trkpt lat="47.14888" lon="4.93217">
        <ele>312.5</ele>
        <time>2024-06-29T07:01:16Z</time>
      </trkpt>
      <trkpt lat="47.14889" lon="4.93215">
        <ele>312.8</ele>
        <time>2024-06-29T07:01:18Z</time>
      </trkpt>
      <trkpt lat="47.1489" lon="4.93214">
        <ele>312</ele>
        <time>2024-06-29T07:01:20Z</time>
      </trkpt>
      <trkpt lat="47.1489" lon="4.93213">
        <ele>312.2</ele>
        <time>2024-06-29T07:01:22Z</time>
      </trkpt>
      <trkpt lat="47.14891" lon="4.93211">
        <ele>312</ele>
        <time>2024-06-29T07:01:24Z</time>
      </trkpt>
      <trkpt lat="47.14892" lon="4.9321">
        <ele>312.1</ele>
        <time>2024-06-29T07:01:27Z</time>
      </trkpt>
      <trkpt lat="47.14893" lon="4.93209">
        <ele>312.4</ele>
        <time>2024-06-29T07:01:29Z</time>
      </trkpt>
      <trkpt lat="47.14893" lon="4.93207">
        <ele>312.5</ele>
        <time>2024-06-29T07:01:31Z</time>
      </trkpt>
      <trkpt lat="47.14894" lon="4.93207">
        <ele>313</ele>
        <time>2024-06-29T07:01:34Z</time>
      </trkpt>
      <trkpt lat="47.14895" lon="4.93205">
        <ele>313.8</ele>
        <time>2024-06-29T07:01:37Z</time>
      </trkpt>
      <trkpt lat="47.14895" lon="4.93204">
        <ele>313.4</ele>
        <time>2024-06-29T07:01:39Z</time>
      </trkpt>
      <trkpt lat="47.14896" lon="4.93203">
        <ele>313.9</ele>
        <time>2024-06-29T07:01:41Z</time>
      </trkpt>
      <trkpt lat="47.14896" lon="4.93201">
        <ele>314.2</ele>
        <time>2024-06-29T07:01:44Z</time>
      </trkpt>
      <trkpt lat="47.14896" lon="4.932">
        <ele>314.4</ele>
        <time>2024-06-29T07:01:47Z</time>
      </trkpt>
      <trkpt lat="47.14897" lon="4.93199">
        <ele>314.8</ele>
        <time>2024-06-29T07:01:49Z</time>
      </trkpt>
      <trkpt lat="47.14898" lon="4.93199">
        <ele>315.1</ele>
        <time>2024-06-29T07:01:51Z</time>
      </trkpt>
      <trkpt lat="47.149" lon="4.93199">
        <ele>315.4</ele>
        <time>2024-06-29T07:01:53Z</time>
      </trkpt>
      <trkpt lat="47.149" lon="4.93197">
        <ele>312.7</ele>
        <time>2024-06-29T07:01:57Z</time>
      </trkpt>
      <trkpt lat="47.149" lon="4.93194">
        <ele>310.9</ele>
        <time>2024-06-29T07:01:59Z</time>
      </trkpt>
      <trkpt lat="47.14901" lon="4.93193">
        <ele>313</ele>
        <time>2024-06-29T07:02:00Z</time>
      </trkpt>
      <trkpt lat="47.14902" lon="4.93192">
        <ele>312.3</ele>
        <time>2024-06-29T07:02:01Z</time>
      </trkpt>
      <trkpt lat="47.14903" lon="4.9319">
        <ele>312.2</ele>
        <time>2024-06-29T07:02:03Z</time>
      </trkpt>
      <trkpt lat="47.14904" lon="4.93189">
        <ele>310.8</ele>
        <time>2024-06-29T07:02:05Z</time>
      </trkpt>
      <trkpt lat="47.14905" lon="4.93188">
        <ele>309.1</ele>
        <time>2024-06-29T07:02:06Z</time>
      </trkpt>
      <trkpt lat="47.14906" lon="4.93187">
        <ele>307.8</ele>
        <time>2024-06-29T07:02:07Z</time>
      </trkpt>
      <trkpt lat="47.14908" lon="4.93187">
        <ele>309.3</ele>
        <time>2024-06-29T07:02:09Z</time>
      </trkpt>
      <trkpt lat="47.14909" lon="4.93186">
        <ele>309.9</ele>
        <time>2024-06-29T07:02:10Z</time>
      </trkpt>
      <trkpt lat="47.1491" lon="4.93185">
        <ele>307.1</ele>
        <time>2024-06-29T07:02:11Z</time>
      </trkpt>
      <trkpt lat="47.14911" lon="4.93184">
        <ele>306.4</ele>
        <time>2024-06-29T07:02:13Z</time>
      </trkpt>
      <trkpt lat="47.14911" lon="4.93182">
        <ele>306.8</ele>
        <time>2024-06-29T07:02:15Z</time>
      </trkpt>
      <trkpt lat="47.14912" lon="4.93181">
        <ele>304.4</ele>
        <time>2024-06-29T07:02:16Z</time>
      </trkpt>
      <trkpt lat="47.14913" lon="4.9318">
        <ele>304.8</ele>
        <time>2024-06-29T07:02:17Z</time>
      </trkpt>
      <trkpt lat="47.14914" lon="4.93179">
        <ele>307.1</ele>
        <time>2024-06-29T07:02:19Z</time>
      </trkpt>
      <trkpt lat="47.14915" lon="4.93179">
        <ele>307.7</ele>
        <time>2024-06-29T07:02:21Z</time>
      </trkpt>
      <trkpt lat="47.14916" lon="4.93179">
        <ele>308.7</ele>
        <time>2024-06-29T07:02:28Z</time>
      </trkpt>
      <trkpt lat="47.14916" lon="4.93178">
        <ele>308.3</ele>
        <time>2024-06-29T07:02:30Z</time>
      </trkpt>
      <trkpt lat="47.14917" lon="4.93178">
        <ele>309.9</ele>
        <time>2024-06-29T07:02:33Z</time>
      </trkpt>
      <trkpt lat="47.14917" lon="4.93179">
        <ele>310.4</ele>
        <time>2024-06-29T07:02:38Z</time>
      </trkpt>
      <trkpt lat="47.14918" lon="4.93179">
        <ele>310.2</ele>
        <time>2024-06-29T07:02:41Z</time>
      </trkpt>
      <trkpt lat="47.14918" lon="4.93178">
        <ele>312.2</ele>
        <time>2024-06-29T07:02:44Z</time>
      </trkpt>
      <trkpt lat="47.14919" lon="4.93177">
        <ele>313.4</ele>
        <time>2024-06-29T07:02:47Z</time>
      </trkpt>
      <trkpt lat="47.14919" lon="4.93175">
        <ele>314.3</ele>
        <time>2024-06-29T07:02:50Z</time>
      </trkpt>
      <trkpt lat="47.14919" lon="4.93174">
        <ele>315.6</ele>
        <time>2024-06-29T07:02:53Z</time>
      </trkpt>
      <trkpt lat="47.14919" lon="4.93172">
        <ele>316.6</ele>
        <time>2024-06-29T07:02:56Z</time>
      </trkpt>
      <trkpt lat="47.14919" lon="4.93171">
        <ele>317.2</ele>
        <time>2024-06-29T07:02:58Z</time>
      </trkpt>
      <trkpt lat="47.1492" lon="4.9317">
        <ele>318.1</ele>
        <time>2024-06-29T07:03:00Z</time>
      </trkpt>
      <trkpt lat="47.1492" lon="4.93168">
        <ele>319</ele>
        <time>2024-06-29T07:03:03Z</time>
      </trkpt>
      <trkpt lat="47.14921" lon="4.93167">
        <ele>319.9</ele>
        <time>2024-06-29T07:03:05Z</time>
      </trkpt>
      <trkpt lat="47.14922" lon="4.93167">
        <ele>320.1</ele>
        <time>2024-06-29T07:03:07Z</time>
      </trkpt>
      <trkpt lat="47.14923" lon="4.93166">
        <ele>319.9</ele>
        <time>2024-06-29T07:03:10Z</time>
      </trkpt>
      <trkpt lat="47.14924" lon="4.93167">
        <ele>318</ele>
        <time>2024-06-29T07:03:13Z</time>
      </trkpt>
      <trkpt lat="47.14925" lon="4.93166">
        <ele>318.2</ele>
        <time>2024-06-29T07:03:15Z</time>
      </trkpt>
      <trkpt lat="47.14925" lon="4.93165">
        <ele>318.8</ele>
        <time>2024-06-29T07:03:17Z</time>
      </trkpt>
      <trkpt lat="47.14926" lon="4.93164">
        <ele>315.8</ele>
        <time>2024-06-29T07:03:19Z</time>
      </trkpt>
      <trkpt lat="47.14927" lon="4.93162">
        <ele>314.3</ele>
        <time>2024-06-29T07:03:20Z</time>
      </trkpt>
      <trkpt lat="47.14927" lon="4.9316">
        <ele>314.6</ele>
        <time>2024-06-29T07:03:21Z</time>
      </trkpt>
      <trkpt lat="47.14927" lon="4.93159">
        <ele>315.1</ele>
        <time>2024-06-29T07:03:23Z</time>
      </trkpt>
      <trkpt lat="47.14925" lon="4.93158">
        <ele>317</ele>
        <time>2024-06-29T07:03:25Z</time>
      </trkpt>
      <trkpt lat="47.14926" lon="4.93157">
        <ele>313.7</ele>
        <time>2024-06-29T07:03:29Z</time>
      </trkpt>
      <trkpt lat="47.14927" lon="4.93157">
        <ele>315.3</ele>
        <time>2024-06-29T07:03:31Z</time>
      </trkpt>
      <trkpt lat="47.14928" lon="4.93156">
        <ele>319.8</ele>
        <time>2024-06-29T07:03:34Z</time>
      </trkpt>
      <trkpt lat="47.14927" lon="4.93155">
        <ele>323.4</ele>
        <time>2024-06-29T07:03:36Z</time>
      </trkpt>
      <trkpt lat="47.14926" lon="4.93154">
        <ele>323.6</ele>
        <time>2024-06-29T07:03:38Z</time>
      </trkpt>
      <trkpt lat="47.14925" lon="4.93155">
        <ele>323.8</ele>
        <time>2024-06-29T07:03:39Z</time>
      </trkpt>
      <trkpt lat="47.14925" lon="4.93153">
        <ele>322</ele>
        <time>2024-06-29T07:03:41Z</time>
      </trkpt>
      <trkpt lat="47.14924" lon="4.93154">
        <ele>323</ele>
        <time>2024-06-29T07:03:43Z</time>
      </trkpt>
      <trkpt lat="47.14924" lon="4.93152">
        <ele>323.4</ele>
        <time>2024-06-29T07:03:53Z</time>
      </trkpt>
      <trkpt lat="47.14923" lon="4.9315">
        <ele>322.8</ele>
        <time>2024-06-29T07:03:56Z</time>
      </trkpt>
      <trkpt lat="47.14923" lon="4.93148">
        <ele>321.1</ele>
        <time>2024-06-29T07:03:58Z</time>
      </trkpt>
      <trkpt lat="47.14924" lon="4.93146">
        <ele>319.8</ele>
        <time>2024-06-29T07:04:00Z</time>
      </trkpt>
      <trkpt lat="47.14925" lon="4.93145">
        <ele>321.6</ele>
        <time>2024-06-29T07:04:19Z</time>
      </trkpt>
      <trkpt lat="47.14924" lon="4.93144">
        <ele>323.1</ele>
        <time>2024-06-29T07:04:28Z</time>
      </trkpt>
      <trkpt lat="47.14924" lon="4.93142">
        <ele>323.7</ele>
        <time>2024-06-29T07:04:31Z</time>
      </trkpt>
      <trkpt lat="47.14925" lon="4.93141">
        <ele>323.9</ele>
        <time>2024-06-29T07:04:33Z</time>
      </trkpt>
      <trkpt lat="47.14925" lon="4.93139">
        <ele>324.4</ele>
        <time>2024-06-29T07:04:35Z</time>
      </trkpt>
      <trkpt lat="47.14925" lon="4.93138">
        <ele>325.2</ele>
        <time>2024-06-29T07:04:37Z</time>
      </trkpt>
      <trkpt lat="47.14925" lon="4.93136">
        <ele>325.3</ele>
        <time>2024-06-29T07:04:39Z</time>
      </trkpt>
      <trkpt lat="47.14925" lon="4.93134">
        <ele>325.4</ele>
        <time>2024-06-29T07:04:41Z</time>
      </trkpt>
      <trkpt lat="47.14925" lon="4.93133">
        <ele>325.7</ele>
        <time>2024-06-29T07:04:43Z</time>
      </trkpt>
      <trkpt lat="47.14925" lon="4.93131">
        <ele>326</ele>
        <time>2024-06-29T07:04:45Z</time>
      </trkpt>
      <trkpt lat="47.14926" lon="4.9313">
        <ele>326.4</ele>
        <time>2024-06-29T07:04:47Z</time>
      </trkpt>
      <trkpt lat="47.14926" lon="4.93128">
        <ele>327</ele>
        <time>2024-06-29T07:04:49Z</time>
      </trkpt>
      <trkpt lat="47.14926" lon="4.93127">
        <ele>327.1</ele>
        <time>2024-06-29T07:04:51Z</time>
      </trkpt>
      <trkpt lat="47.14927" lon="4.93125">
        <ele>327.4</ele>
        <time>2024-06-29T07:04:53Z</time>
      </trkpt>
      <trkpt lat="47.14927" lon="4.93124">
        <ele>327.4</ele>
        <time>2024-06-29T07:04:55Z</time>
      </trkpt>
      <trkpt lat="47.14927" lon="4.93122">
        <ele>328</ele>
        <time>2024-06-29T07:04:58Z</time>
      </trkpt>
      <trkpt lat="47.14927" lon="4.93121">
        <ele>327.9</ele>
        <time>2024-06-29T07:05:00Z</time>
      </trkpt>
      <trkpt lat="47.14927" lon="4.93119">
        <ele>328.4</ele>
        <time>2024-06-29T07:05:02Z</time>
      </trkpt>
      <trkpt lat="47.14927" lon="4.93117">
        <ele>328.1</ele>
        <time>2024-06-29T07:05:04Z</time>
      </trkpt>
      <trkpt lat="47.14927" lon="4.93115">
        <ele>328.5</ele>
        <time>2024-06-29T07:05:06Z</time>
      </trkpt>
      <trkpt lat="47.14928" lon="4.93114">
        <ele>328.5</ele>
        <time>2024-06-29T07:05:08Z</time>
      </trkpt>
      <trkpt lat="47.14928" lon="4.93112">
        <ele>329.2</ele>
        <time>2024-06-29T07:05:11Z</time>
      </trkpt>
      <trkpt lat="47.14929" lon="4.93111">
        <ele>330</ele>
        <time>2024-06-29T07:05:14Z</time>
      </trkpt>
      <trkpt lat="47.1493" lon="4.9311">
        <ele>330.1</ele>
        <time>2024-06-29T07:05:17Z</time>
      </trkpt>
      <trkpt lat="47.14931" lon="4.93109">
        <ele>330.2</ele>
        <time>2024-06-29T07:05:19Z</time>
      </trkpt>
      <trkpt lat="47.14931" lon="4.93108">
        <ele>330.2</ele>
        <time>2024-06-29T07:05:21Z</time>
      </trkpt>
      <trkpt lat="47.14932" lon="4.93107">
        <ele>330.5</ele>
        <time>2024-06-29T07:05:24Z</time>
      </trkpt>
      <trkpt lat="47.14933" lon="4.93106">
        <ele>331.4</ele>
        <time>2024-06-29T07:05:28Z</time>
      </trkpt>
      <trkpt lat="47.14933" lon="4.93104">
        <ele>331.7</ele>
        <time>2024-06-29T07:05:31Z</time>
      </trkpt>
      <trkpt lat="47.14934" lon="4.93103">
        <ele>331.9</ele>
        <time>2024-06-29T07:05:34Z</time>
      </trkpt>
      <trkpt lat="47.14934" lon="4.93102">
        <ele>332.4</ele>
        <time>2024-06-29T07:05:37Z</time>
      </trkpt>
      <trkpt lat="47.14934" lon="4.931">
        <ele>332.7</ele>
        <time>2024-06-29T07:05:39Z</time>
      </trkpt>
      <trkpt lat="47.14934" lon="4.93098">
        <ele>332.8</ele>
        <time>2024-06-29T07:05:44Z</time>
      </trkpt>
      <trkpt lat="47.14935" lon="4.93097">
        <ele>332.6</ele>
        <time>2024-06-29T07:05:46Z</time>
      </trkpt>
      <trkpt lat="47.14935" lon="4.93095">
        <ele>333.4</ele>
        <time>2024-06-29T07:05:49Z</time>
      </trkpt>
      <trkpt lat="47.14935" lon="4.93094">
        <ele>333.7</ele>
        <time>2024-06-29T07:05:51Z</time>
      </trkpt>
      <trkpt lat="47.14934" lon="4.93092">
        <ele>334.2</ele>
        <time>2024-06-29T07:05:54Z</time>
      </trkpt>
      <trkpt lat="47.14935" lon="4.9309">
        <ele>334</ele>
        <time>2024-06-29T07:05:56Z</time>
      </trkpt>
      <trkpt lat="47.14935" lon="4.93089">
        <ele>333.9</ele>
        <time>2024-06-29T07:05:58Z</time>
      </trkpt>
      <trkpt lat="47.14936" lon="4.93087">
        <ele>333.9</ele>
        <time>2024-06-29T07:06:00Z</time>
      </trkpt>
      <trkpt lat="47.14936" lon="4.93085">
        <ele>334.1</ele>
        <time>2024-06-29T07:06:02Z</time>
      </trkpt>
      <trkpt lat="47.14937" lon="4.93084">
        <ele>334.5</ele>
        <time>2024-06-29T07:06:04Z</time>
      </trkpt>
      <trkpt lat="47.14937" lon="4.93082">
        <ele>335</ele>
        <time>2024-06-29T07:06:07Z</time>
      </trkpt>
      <trkpt lat="47.14938" lon="4.93081">
        <ele>335.1</ele>
        <time>2024-06-29T07:06:09Z</time>
      </trkpt>
      <trkpt lat="47.14938" lon="4.93079">
        <ele>336.1</ele>
        <time>2024-06-29T07:06:12Z</time>
      </trkpt>
      <trkpt lat="47.14939" lon="4.93078">
        <ele>335.7</ele>
        <time>2024-06-29T07:06:15Z</time>
      </trkpt>
      <trkpt lat="47.14939" lon="4.93076">
        <ele>336.5</ele>
        <time>2024-06-29T07:06:18Z</time>
      </trkpt>
      <trkpt lat="47.1494" lon="4.93074">
        <ele>336.5</ele>
        <time>2024-06-29T07:06:20Z</time>
      </trkpt>
      <trkpt lat="47.1494" lon="4.93073">
        <ele>336.7</ele>
        <time>2024-06-29T07:06:22Z</time>
      </trkpt>
      <trkpt lat="47.14941" lon="4.93072">
        <ele>337.2</ele>
        <time>2024-06-29T07:06:24Z</time>
      </trkpt>
      <trkpt lat="47.14941" lon="4.9307">
        <ele>337.3</ele>
        <time>2024-06-29T07:06:26Z</time>
      </trkpt>
      <trkpt lat="47.14942" lon="4.93068">
        <ele>335</ele>
        <time>2024-06-29T07:06:28Z</time>
      </trkpt>
      <trkpt lat="47.14942" lon="4.93067">
        <ele>335.1</ele>
        <time>2024-06-29T07:06:31Z</time>
      </trkpt>
      <trkpt lat="47.14942" lon="4.93065">
        <ele>334.3</ele>
        <time>2024-06-29T07:06:33Z</time>
      </trkpt>
      <trkpt lat="47.14941" lon="4.93063">
        <ele>332.8</ele>
        <time>2024-06-29T07:06:35Z</time>
      </trkpt>
      <trkpt lat="47.14941" lon="4.93062">
        <ele>333.6</ele>
        <time>2024-06-29T07:06:37Z</time>
      </trkpt>
      <trkpt lat="47.14942" lon="4.9306">
        <ele>334.2</ele>
        <time>2024-06-29T07:06:40Z</time>
      </trkpt>
      <trkpt lat="47.14942" lon="4.93059">
        <ele>331.7</ele>
        <time>2024-06-29T07:06:42Z</time>
      </trkpt>
      <trkpt lat="47.14943" lon="4.93057">
        <ele>329.8</ele>
        <time>2024-06-29T07:06:43Z</time>
      </trkpt>
      <trkpt lat="47.14944" lon="4.93056">
        <ele>330</ele>
        <time>2024-06-29T07:06:44Z</time>
      </trkpt>
      <trkpt lat="47.14944" lon="4.93055">
        <ele>330.5</ele>
        <time>2024-06-29T07:06:46Z</time>
      </trkpt>
      <trkpt lat="47.14945" lon="4.93054">
        <ele>332</ele>
        <time>2024-06-29T07:06:48Z</time>
      </trkpt>
      <trkpt lat="47.14944" lon="4.93052">
        <ele>330.7</ele>
        <time>2024-06-29T07:06:50Z</time>
      </trkpt>
      <trkpt lat="47.14944" lon="4.9305">
        <ele>330.7</ele>
        <time>2024-06-29T07:06:52Z</time>
      </trkpt>
      <trkpt lat="47.14944" lon="4.93048">
        <ele>333.2</ele>
        <time>2024-06-29T07:06:54Z</time>
      </trkpt>
      <trkpt lat="47.14946" lon="4.93047">
        <ele>333.9</ele>
        <time>2024-06-29T07:06:56Z</time>
      </trkpt>
      <trkpt lat="47.14947" lon="4.93046">
        <ele>331.2</ele>
        <time>2024-06-29T07:06:57Z</time>
      </trkpt>
      <trkpt lat="47.14949" lon="4.93046">
        <ele>332.2</ele>
        <time>2024-06-29T07:06:59Z</time>
      </trkpt>
      <trkpt lat="47.1495" lon="4.93045">
        <ele>330.6</ele>
        <time>2024-06-29T07:07:01Z</time>
      </trkpt>
      <trkpt lat="47.14951" lon="4.93044">
        <ele>329.4</ele>
        <time>2024-06-29T07:07:03Z</time>
      </trkpt>
      <trkpt lat="47.14951" lon="4.93043">
        <ele>329.5</ele>
        <time>2024-06-29T07:07:05Z</time>
      </trkpt>
      <trkpt lat="47.14952" lon="4.93042">
        <ele>325</ele>
        <time>2024-06-29T07:07:07Z</time>
      </trkpt>
      <trkpt lat="47.14954" lon="4.93042">
        <ele>320.1</ele>
        <time>2024-06-29T07:07:09Z</time>
      </trkpt>
      <trkpt lat="47.14955" lon="4.93042">
        <ele>318.5</ele>
        <time>2024-06-29T07:07:10Z</time>
      </trkpt>
      <trkpt lat="47.14956" lon="4.93042">
        <ele>319</ele>
        <time>2024-06-29T07:07:11Z</time>
      </trkpt>
      <trkpt lat="47.14957" lon="4.93041">
        <ele>320.9</ele>
        <time>2024-06-29T07:07:13Z</time>
      </trkpt>
      <trkpt lat="47.14957" lon="4.9304">
        <ele>322.1</ele>
        <time>2024-06-29T07:07:15Z</time>
      </trkpt>
      <trkpt lat="47.14957" lon="4.93038">
        <ele>323.8</ele>
        <time>2024-06-29T07:07:17Z</time>
      </trkpt>
      <trkpt lat="47.14957" lon="4.93035">
        <ele>326.3</ele>
        <time>2024-06-29T07:07:19Z</time>
      </trkpt>
      <trkpt lat="47.14958" lon="4.93033">
        <ele>325.9</ele>
        <time>2024-06-29T07:07:21Z</time>
      </trkpt>
      <trkpt lat="47.14958" lon="4.93031">
        <ele>327.6</ele>
        <time>2024-06-29T07:07:23Z</time>
      </trkpt>
      <trkpt lat="47.14959" lon="4.93029">
        <ele>330.2</ele>
        <time>2024-06-29T07:07:26Z</time>
      </trkpt>
      <trkpt lat="47.14959" lon="4.93028">
        <ele>332.5</ele>
        <time>2024-06-29T07:07:29Z</time>
      </trkpt>
      <trkpt lat="47.14959" lon="4.93026">
        <ele>333.9</ele>
        <time>2024-06-29T07:07:31Z</time>
      </trkpt>
      <trkpt lat="47.1496" lon="4.93024">
        <ele>335</ele>
        <time>2024-06-29T07:07:34Z</time>
      </trkpt>
      <trkpt lat="47.1496" lon="4.93023">
        <ele>335.7</ele>
        <time>2024-06-29T07:07:36Z</time>
      </trkpt>
      <trkpt lat="47.1496" lon="4.93021">
        <ele>336.3</ele>
        <time>2024-06-29T07:07:38Z</time>
      </trkpt>
      <trkpt lat="47.14961" lon="4.93019">
        <ele>337.1</ele>
        <time>2024-06-29T07:07:40Z</time>
      </trkpt>
      <trkpt lat="47.14961" lon="4.93018">
        <ele>337.1</ele>
        <time>2024-06-29T07:07:42Z</time>
      </trkpt>
      <trkpt lat="47.14961" lon="4.93016">
        <ele>338.1</ele>
        <time>2024-06-29T07:07:44Z</time>
      </trkpt>
      <trkpt lat="47.14962" lon="4.93015">
        <ele>339.2</ele>
        <time>2024-06-29T07:07:47Z</time>
      </trkpt>
      <trkpt lat="47.14962" lon="4.93013">
        <ele>340.1</ele>
        <time>2024-06-29T07:07:50Z</time>
      </trkpt>
      <trkpt lat="47.14963" lon="4.93012">
        <ele>341.1</ele>
        <time>2024-06-29T07:07:53Z</time>
      </trkpt>
      <trkpt lat="47.14963" lon="4.93011">
        <ele>341.7</ele>
        <time>2024-06-29T07:07:55Z</time>
      </trkpt>
      <trkpt lat="47.14964" lon="4.93009">
        <ele>341.9</ele>
        <time>2024-06-29T07:07:57Z</time>
      </trkpt>
      <trkpt lat="47.14964" lon="4.93008">
        <ele>342.3</ele>
        <time>2024-06-29T07:07:59Z</time>
      </trkpt>
      <trkpt lat="47.14965" lon="4.93006">
        <ele>341.6</ele>
        <time>2024-06-29T07:08:01Z</time>
      </trkpt>
      <trkpt lat="47.14966" lon="4.93005">
        <ele>341.6</ele>
        <time>2024-06-29T07:08:02Z</time>
      </trkpt>
      <trkpt lat="47.14966" lon="4.93002">
        <ele>341.8</ele>
        <time>2024-06-29T07:08:04Z</time>
      </trkpt>
      <trkpt lat="47.14967" lon="4.93">
        <ele>340.8</ele>
        <time>2024-06-29T07:08:05Z</time>
      </trkpt>
      <trkpt lat="47.14967" lon="4.92999">
        <ele>340.3</ele>
        <time>2024-06-29T07:08:07Z</time>
      </trkpt>
      <trkpt lat="47.14968" lon="4.92997">
        <ele>341</ele>
        <time>2024-06-29T07:08:09Z</time>
      </trkpt>
      <trkpt lat="47.14969" lon="4.92997">
        <ele>341.6</ele>
        <time>2024-06-29T07:08:11Z</time>
      </trkpt>
      <trkpt lat="47.1497" lon="4.92996">
        <ele>342.5</ele>
        <time>2024-06-29T07:08:13Z</time>
      </trkpt>
      <trkpt lat="47.14971" lon="4.92995">
        <ele>342.9</ele>
        <time>2024-06-29T07:08:15Z</time>
      </trkpt>
      <trkpt lat="47.14972" lon="4.92994">
        <ele>344.1</ele>
        <time>2024-06-29T07:08:17Z</time>
      </trkpt>
      <trkpt lat="47.14973" lon="4.92993">
        <ele>345</ele>
        <time>2024-06-29T07:08:19Z</time>
      </trkpt>
      <trkpt lat="47.14974" lon="4.92992">
        <ele>345</ele>
        <time>2024-06-29T07:08:21Z</time>
      </trkpt>
      <trkpt lat="47.14974" lon="4.92991">
        <ele>345.7</ele>
        <time>2024-06-29T07:08:24Z</time>
      </trkpt>
      <trkpt lat="47.14975" lon="4.9299">
        <ele>346.4</ele>
        <time>2024-06-29T07:08:26Z</time>
      </trkpt>
      <trkpt lat="47.14976" lon="4.92989">
        <ele>349.1</ele>
        <time>2024-06-29T07:08:28Z</time>
      </trkpt>
      <trkpt lat="47.14977" lon="4.92987">
        <ele>350.3</ele>
        <time>2024-06-29T07:08:30Z</time>
      </trkpt>
      <trkpt lat="47.14978" lon="4.92986">
        <ele>349.7</ele>
        <time>2024-06-29T07:08:32Z</time>
      </trkpt>
      <trkpt lat="47.14979" lon="4.92985">
        <ele>350.6</ele>
        <time>2024-06-29T07:08:35Z</time>
      </trkpt>
      <trkpt lat="47.1498" lon="4.92984">
        <ele>348.3</ele>
        <time>2024-06-29T07:08:38Z</time>
      </trkpt>
      <trkpt lat="47.14981" lon="4.92983">
        <ele>349.3</ele>
        <time>2024-06-29T07:08:40Z</time>
      </trkpt>
      <trkpt lat="47.14981" lon="4.9298">
        <ele>348.9</ele>
        <time>2024-06-29T07:08:42Z</time>
      </trkpt>
      <trkpt lat="47.1498" lon="4.92979">
        <ele>349.3</ele>
        <time>2024-06-29T07:08:44Z</time>
      </trkpt>
      <trkpt lat="47.14981" lon="4.92977">
        <ele>347</ele>
        <time>2024-06-29T07:08:48Z</time>
      </trkpt>
      <trkpt lat="47.14981" lon="4.92976">
        <ele>346.3</ele>
        <time>2024-06-29T07:08:50Z</time>
      </trkpt>
      <trkpt lat="47.14982" lon="4.92974">
        <ele>347.7</ele>
        <time>2024-06-29T07:09:12Z</time>
      </trkpt>
      <trkpt lat="47.14983" lon="4.92973">
        <ele>348.5</ele>
        <time>2024-06-29T07:09:15Z</time>
      </trkpt>
      <trkpt lat="47.14984" lon="4.92973">
        <ele>349.6</ele>
        <time>2024-06-29T07:09:18Z</time>
      </trkpt>
      <trkpt lat="47.14985" lon="4.92972">
        <ele>350.2</ele>
        <time>2024-06-29T07:09:20Z</time>
      </trkpt>
      <trkpt lat="47.14986" lon="4.92972">
        <ele>350.6</ele>
        <time>2024-06-29T07:09:23Z</time>
      </trkpt>
      <trkpt lat="47.14987" lon="4.92972">
        <ele>351.4</ele>
        <time>2024-06-29T07:09:26Z</time>
      </trkpt>
      <trkpt lat="47.14988" lon="4.92971">
        <ele>351.4</ele>
        <time>2024-06-29T07:09:28Z</time>
      </trkpt>
      <trkpt lat="47.14988" lon="4.9297">
        <ele>351.9</ele>
        <time>2024-06-29T07:09:30Z</time>
      </trkpt>
      <trkpt lat="47.14989" lon="4.92969">
        <ele>352.1</ele>
        <time>2024-06-29T07:09:32Z</time>
      </trkpt>
      <trkpt lat="47.14989" lon="4.92967">
        <ele>352.5</ele>
        <time>2024-06-29T07:09:34Z</time>
      </trkpt>
      <trkpt lat="47.1499" lon="4.92966">
        <ele>352.6</ele>
        <time>2024-06-29T07:09:36Z</time>
      </trkpt>
      <trkpt lat="47.14991" lon="4.92965">
        <ele>352.3</ele>
        <time>2024-06-29T07:09:38Z</time>
      </trkpt>
      <trkpt lat="47.14992" lon="4.92963">
        <ele>353</ele>
        <time>2024-06-29T07:09:40Z</time>
      </trkpt>
      <trkpt lat="47.14993" lon="4.92962">
        <ele>351.8</ele>
        <time>2024-06-29T07:09:41Z</time>
      </trkpt>
      <trkpt lat="47.14994" lon="4.92961">
        <ele>352</ele>
        <time>2024-06-29T07:09:42Z</time>
      </trkpt>
      <trkpt lat="47.14995" lon="4.92961">
        <ele>351.3</ele>
        <time>2024-06-29T07:09:43Z</time>
      </trkpt>
      <trkpt lat="47.14996" lon="4.9296">
        <ele>351.6</ele>
        <time>2024-06-29T07:09:45Z</time>
      </trkpt>
      <trkpt lat="47.14997" lon="4.92959">
        <ele>350.2</ele>
        <time>2024-06-29T07:09:47Z</time>
      </trkpt>
      <trkpt lat="47.14997" lon="4.92957">
        <ele>350.3</ele>
        <time>2024-06-29T07:09:48Z</time>
      </trkpt>
      <trkpt lat="47.14998" lon="4.92956">
        <ele>350.5</ele>
        <time>2024-06-29T07:09:49Z</time>
      </trkpt>
      <trkpt lat="47.14998" lon="4.92954">
        <ele>350.2</ele>
        <time>2024-06-29T07:09:51Z</time>
      </trkpt>
      <trkpt lat="47.14999" lon="4.92952">
        <ele>353.1</ele>
        <time>2024-06-29T07:09:53Z</time>
      </trkpt>
      <trkpt lat="47.14999" lon="4.9295">
        <ele>351.9</ele>
        <time>2024-06-29T07:09:55Z</time>
      </trkpt>
      <trkpt lat="47.14999" lon="4.92949">
        <ele>351.6</ele>
        <time>2024-06-29T07:09:57Z</time>
      </trkpt>
      <trkpt lat="47.15" lon="4.92947">
        <ele>350</ele>
        <time>2024-06-29T07:09:59Z</time>
      </trkpt>
      <trkpt lat="47.15001" lon="4.92946">
        <ele>351</ele>
        <time>2024-06-29T07:10:01Z</time>
      </trkpt>
      <trkpt lat="47.15002" lon="4.92945">
        <ele>350.4</ele>
        <time>2024-06-29T07:10:03Z</time>
      </trkpt>
      <trkpt lat="47.15003" lon="4.92944">
        <ele>350.2</ele>
        <time>2024-06-29T07:10:05Z</time>
      </trkpt>
      <trkpt lat="47.15004" lon="4.92943">
        <ele>351.5</ele>
        <time>2024-06-29T07:10:07Z</time>
      </trkpt>
      <trkpt lat="47.15005" lon="4.92942">
        <ele>351.8</ele>
        <time>2024-06-29T07:10:09Z</time>
      </trkpt>
      <trkpt lat="47.15006" lon="4.92942">
        <ele>351.4</ele>
        <time>2024-06-29T07:10:11Z</time>
      </trkpt>
      <trkpt lat="47.15007" lon="4.92942">
        <ele>351.3</ele>
        <time>2024-06-29T07:10:13Z</time>
      </trkpt>
      <trkpt lat="47.15008" lon="4.92941">
        <ele>349</ele>
        <time>2024-06-29T07:10:15Z</time>
      </trkpt>
      <trkpt lat="47.15008" lon="4.92939">
        <ele>348.7</ele>
        <time>2024-06-29T07:10:17Z</time>
      </trkpt>
      <trkpt lat="47.15008" lon="4.92937">
        <ele>348.1</ele>
        <time>2024-06-29T07:10:19Z</time>
      </trkpt>
      <trkpt lat="47.15009" lon="4.92936">
        <ele>350.4</ele>
        <time>2024-06-29T07:10:21Z</time>
      </trkpt>
      <trkpt lat="47.15008" lon="4.92934">
        <ele>352.5</ele>
        <time>2024-06-29T07:10:24Z</time>
      </trkpt>
      <trkpt lat="47.15009" lon="4.92932">
        <ele>354</ele>
        <time>2024-06-29T07:10:26Z</time>
      </trkpt>
      <trkpt lat="47.1501" lon="4.92931">
        <ele>354.2</ele>
        <time>2024-06-29T07:10:27Z</time>
      </trkpt>
      <trkpt lat="47.1501" lon="4.9293">
        <ele>352.7</ele>
        <time>2024-06-29T07:10:28Z</time>
      </trkpt>
      <trkpt lat="47.15011" lon="4.92928">
        <ele>353.3</ele>
        <time>2024-06-29T07:10:30Z</time>
      </trkpt>
      <trkpt lat="47.15012" lon="4.92926">
        <ele>354.9</ele>
        <time>2024-06-29T07:10:34Z</time>
      </trkpt>
      <trkpt lat="47.15013" lon="4.92925">
        <ele>355.7</ele>
        <time>2024-06-29T07:10:36Z</time>
      </trkpt>
      <trkpt lat="47.15013" lon="4.92924">
        <ele>356.6</ele>
        <time>2024-06-29T07:10:38Z</time>
      </trkpt>
      <trkpt lat="47.15014" lon="4.92923">
        <ele>356.2</ele>
        <time>2024-06-29T07:10:41Z</time>
      </trkpt>
      <trkpt lat="47.15015" lon="4.92922">
        <ele>356</ele>
        <time>2024-06-29T07:10:43Z</time>
      </trkpt>
      <trkpt lat="47.15016" lon="4.92922">
        <ele>355.4</ele>
        <time>2024-06-29T07:10:45Z</time>
      </trkpt>
      <trkpt lat="47.15017" lon="4.9292">
        <ele>353</ele>
        <time>2024-06-29T07:10:47Z</time>
      </trkpt>
      <trkpt lat="47.15018" lon="4.92918">
        <ele>352.8</ele>
        <time>2024-06-29T07:10:49Z</time>
      </trkpt>
      <trkpt lat="47.15018" lon="4.92917">
        <ele>353.7</ele>
        <time>2024-06-29T07:10:51Z</time>
      </trkpt>
      <trkpt lat="47.15017" lon="4.92915">
        <ele>355.4</ele>
        <time>2024-06-29T07:10:53Z</time>
      </trkpt>
      <trkpt lat="47.15017" lon="4.92913">
        <ele>357.8</ele>
        <time>2024-06-29T07:10:57Z</time>
      </trkpt>
      <trkpt lat="47.15018" lon="4.92912">
        <ele>357.4</ele>
        <time>2024-06-29T07:10:59Z</time>
      </trkpt>
      <trkpt lat="47.15018" lon="4.9291">
        <ele>359.6</ele>
        <time>2024-06-29T07:11:01Z</time>
      </trkpt>
      <trkpt lat="47.15019" lon="4.92908">
        <ele>356.5</ele>
        <time>2024-06-29T07:11:03Z</time>
      </trkpt>
      <trkpt lat="47.15021" lon="4.92906">
        <ele>356.5</ele>
        <time>2024-06-29T07:11:05Z</time>
      </trkpt>
      <trkpt lat="47.15022" lon="4.92905">
        <ele>356.8</ele>
        <time>2024-06-29T07:11:06Z</time>
      </trkpt>
      <trkpt lat="47.15022" lon="4.92904">
        <ele>357.2</ele>
        <time>2024-06-29T07:11:07Z</time>
      </trkpt>
      <trkpt lat="47.15023" lon="4.92902">
        <ele>356.5</ele>
        <time>2024-06-29T07:11:09Z</time>
      </trkpt>
      <trkpt lat="47.15023" lon="4.929">
        <ele>358.3</ele>
        <time>2024-06-29T07:11:11Z</time>
      </trkpt>
      <trkpt lat="47.15023" lon="4.92898">
        <ele>359.1</ele>
        <time>2024-06-29T07:11:13Z</time>
      </trkpt>
      <trkpt lat="47.15024" lon="4.92897">
        <ele>359.6</ele>
        <time>2024-06-29T07:11:15Z</time>
      </trkpt>
      <trkpt lat="47.15025" lon="4.92895">
        <ele>360.7</ele>
        <time>2024-06-29T07:11:17Z</time>
      </trkpt>
      <trkpt lat="47.15026" lon="4.92894">
        <ele>360.6</ele>
        <time>2024-06-29T07:11:18Z</time>
      </trkpt>
      <trkpt lat="47.15027" lon="4.92893">
        <ele>361.1</ele>
        <time>2024-06-29T07:11:20Z</time>
      </trkpt>
      <trkpt lat="47.15027" lon="4.92891">
        <ele>360</ele>
        <time>2024-06-29T07:11:21Z</time>
      </trkpt>
      <trkpt lat="47.15026" lon="4.92889">
        <ele>358.5</ele>
        <time>2024-06-29T07:11:23Z</time>
      </trkpt>
      <trkpt lat="47.15026" lon="4.92888">
        <ele>360.4</ele>
        <time>2024-06-29T07:11:26Z</time>
      </trkpt>
      <trkpt lat="47.15026" lon="4.92886">
        <ele>362</ele>
        <time>2024-06-29T07:11:29Z</time>
      </trkpt>
      <trkpt lat="47.15026" lon="4.92884">
        <ele>362.5</ele>
        <time>2024-06-29T07:11:31Z</time>
      </trkpt>
      <trkpt lat="47.15026" lon="4.92883">
        <ele>363</ele>
        <time>2024-06-29T07:11:33Z</time>
      </trkpt>
      <trkpt lat="47.15027" lon="4.92881">
        <ele>364</ele>
        <time>2024-06-29T07:11:36Z</time>
      </trkpt>
      <trkpt lat="47.15027" lon="4.9288">
        <ele>364.6</ele>
        <time>2024-06-29T07:11:38Z</time>
      </trkpt>
      <trkpt lat="47.15027" lon="4.92878">
        <ele>364.7</ele>
        <time>2024-06-29T07:11:40Z</time>
      </trkpt>
      <trkpt lat="47.15026" lon="4.92875">
        <ele>365.1</ele>
        <time>2024-06-29T07:11:42Z</time>
      </trkpt>
      <trkpt lat="47.15026" lon="4.92873">
        <ele>365</ele>
        <time>2024-06-29T07:11:44Z</time>
      </trkpt>
      <trkpt lat="47.15025" lon="4.92871">
        <ele>365.2</ele>
        <time>2024-06-29T07:11:46Z</time>
      </trkpt>
      <trkpt lat="47.15024" lon="4.9287">
        <ele>365.2</ele>
        <time>2024-06-29T07:11:47Z</time>
      </trkpt>
      <trkpt lat="47.15024" lon="4.92868">
        <ele>365.4</ele>
        <time>2024-06-29T07:11:49Z</time>
      </trkpt>
      <trkpt lat="47.15023" lon="4.92866">
        <ele>365.3</ele>
        <time>2024-06-29T07:11:50Z</time>
      </trkpt>
      <trkpt lat="47.15022" lon="4.92865">
        <ele>365.2</ele>
        <time>2024-06-29T07:11:51Z</time>
      </trkpt>
      <trkpt lat="47.15022" lon="4.92864">
        <ele>365</ele>
        <time>2024-06-29T07:11:52Z</time>
      </trkpt>
      <trkpt lat="47.15021" lon="4.92863">
        <ele>364.9</ele>
        <time>2024-06-29T07:11:53Z</time>
      </trkpt>
      <trkpt lat="47.15021" lon="4.92862">
        <ele>364.7</ele>
        <time>2024-06-29T07:11:54Z</time>
      </trkpt>
      <trkpt lat="47.15021" lon="4.92861">
        <ele>364.6</ele>
        <time>2024-06-29T07:11:55Z</time>
      </trkpt>
      <trkpt lat="47.1502" lon="4.92859">
        <ele>364.5</ele>
        <time>2024-06-29T07:11:56Z</time>
      </trkpt>
      <trkpt lat="47.1502" lon="4.92858">
        <ele>364.2</ele>
        <time>2024-06-29T07:11:57Z</time>
      </trkpt>
      <trkpt lat="47.15019" lon="4.92857">
        <ele>362.9</ele>
        <time>2024-06-29T07:11:58Z</time>
      </trkpt>
      <trkpt lat="47.15018" lon="4.92856">
        <ele>362.4</ele>
        <time>2024-06-29T07:11:59Z</time>
      </trkpt>
      <trkpt lat="47.15017" lon="4.92854">
        <ele>362.9</ele>
        <time>2024-06-29T07:12:00Z</time>
      </trkpt>
      <trkpt lat="47.15017" lon="4.92853">
        <ele>362</ele>
        <time>2024-06-29T07:12:01Z</time>
      </trkpt>
      <trkpt lat="47.15016" lon="4.92851">
        <ele>362.6</ele>
        <time>2024-06-29T07:12:02Z</time>
      </trkpt>
      <trkpt lat="47.15015" lon="4.92849">
        <ele>363.2</ele>
        <time>2024-06-29T07:12:03Z</time>
      </trkpt>
      <trkpt lat="47.15015" lon="4.92848">
        <ele>362.5</ele>
        <time>2024-06-29T07:12:04Z</time>
      </trkpt>
      <trkpt lat="47.15014" lon="4.92847">
        <ele>362.1</ele>
        <time>2024-06-29T07:12:05Z</time>
      </trkpt>
      <trkpt lat="47.15013" lon="4.92845">
        <ele>362.3</ele>
        <time>2024-06-29T07:12:06Z</time>
      </trkpt>
      <trkpt lat="47.15013" lon="4.92844">
        <ele>362.7</ele>
        <time>2024-06-29T07:12:07Z</time>
      </trkpt>
      <trkpt lat="47.15012" lon="4.92842">
        <ele>362.3</ele>
        <time>2024-06-29T07:12:08Z</time>
      </trkpt>
      <trkpt lat="47.15012" lon="4.9284">
        <ele>362.9</ele>
        <time>2024-06-29T07:12:09Z</time>
      </trkpt>
      <trkpt lat="47.15012" lon="4.92839">
        <ele>363.4</ele>
        <time>2024-06-29T07:12:10Z</time>
      </trkpt>
      <trkpt lat="47.15012" lon="4.92838">
        <ele>363.4</ele>
        <time>2024-06-29T07:12:11Z</time>
      </trkpt>
      <trkpt lat="47.15012" lon="4.92836">
        <ele>363.9</ele>
        <time>2024-06-29T07:12:12Z</time>
      </trkpt>
      <trkpt lat="47.15011" lon="4.92834">
        <ele>364</ele>
        <time>2024-06-29T07:12:14Z</time>
      </trkpt>
      <trkpt lat="47.15011" lon="4.92833">
        <ele>364.7</ele>
        <time>2024-06-29T07:12:15Z</time>
      </trkpt>
      <trkpt lat="47.1501" lon="4.9283">
        <ele>364.6</ele>
        <time>2024-06-29T07:12:17Z</time>
      </trkpt>
      <trkpt lat="47.15009" lon="4.92828">
        <ele>364.3</ele>
        <time>2024-06-29T07:12:19Z</time>
      </trkpt>
      <trkpt lat="47.15009" lon="4.92826">
        <ele>364.7</ele>
        <time>2024-06-29T07:12:21Z</time>
      </trkpt>
      <trkpt lat="47.15008" lon="4.92824">
        <ele>364.4</ele>
        <time>2024-06-29T07:12:23Z</time>
      </trkpt>
      <trkpt lat="47.15007" lon="4.92821">
        <ele>364.4</ele>
        <time>2024-06-29T07:12:25Z</time>
      </trkpt>
      <trkpt lat="47.15007" lon="4.92819">
        <ele>363.7</ele>
        <time>2024-06-29T07:12:27Z</time>
      </trkpt>
      <trkpt lat="47.15006" lon="4.92818">
        <ele>363.8</ele>
        <time>2024-06-29T07:12:28Z</time>
      </trkpt>
      <trkpt lat="47.15006" lon="4.92817">
        <ele>363.9</ele>
        <time>2024-06-29T07:12:29Z</time>
      </trkpt>
      <trkpt lat="47.15005" lon="4.92815">
        <ele>363.9</ele>
        <time>2024-06-29T07:12:30Z</time>
      </trkpt>
      <trkpt lat="47.15005" lon="4.92814">
        <ele>364</ele>
        <time>2024-06-29T07:12:31Z</time>
      </trkpt>
      <trkpt lat="47.15005" lon="4.92813">
        <ele>364.1</ele>
        <time>2024-06-29T07:12:32Z</time>
      </trkpt>
      <trkpt lat="47.15004" lon="4.92811">
        <ele>363.8</ele>
        <time>2024-06-29T07:12:34Z</time>
      </trkpt>
      <trkpt lat="47.15004" lon="4.92809">
        <ele>363.7</ele>
        <time>2024-06-29T07:12:35Z</time>
      </trkpt>
      <trkpt lat="47.15003" lon="4.92808">
        <ele>363.6</ele>
        <time>2024-06-29T07:12:36Z</time>
      </trkpt>
      <trkpt lat="47.15003" lon="4.92807">
        <ele>363.9</ele>
        <time>2024-06-29T07:12:37Z</time>
      </trkpt>
      <trkpt lat="47.15003" lon="4.92805">
        <ele>364</ele>
        <time>2024-06-29T07:12:38Z</time>
      </trkpt>
      <trkpt lat="47.15002" lon="4.92804">
        <ele>364.3</ele>
        <time>2024-06-29T07:12:39Z</time>
      </trkpt>
      <trkpt lat="47.15002" lon="4.92803">
        <ele>364</ele>
        <time>2024-06-29T07:12:40Z</time>
      </trkpt>
      <trkpt lat="47.15002" lon="4.92802">
        <ele>364.1</ele>
        <time>2024-06-29T07:12:41Z</time>
      </trkpt>
      <trkpt lat="47.15001" lon="4.928">
        <ele>364.2</ele>
        <time>2024-06-29T07:12:42Z</time>
      </trkpt>
      <trkpt lat="47.15001" lon="4.92799">
        <ele>364.1</ele>
        <time>2024-06-29T07:12:43Z</time>
      </trkpt>
      <trkpt lat="47.15001" lon="4.92798">
        <ele>364.1</ele>
        <time>2024-06-29T07:12:44Z</time>
      </trkpt>
      <trkpt lat="47.15" lon="4.92797">
        <ele>364.2</ele>
        <time>2024-06-29T07:12:45Z</time>
      </trkpt>
      <trkpt lat="47.15" lon="4.92795">
        <ele>364.3</ele>
        <time>2024-06-29T07:12:46Z</time>
      </trkpt>
      <trkpt lat="47.15" lon="4.92794">
        <ele>363.9</ele>
        <time>2024-06-29T07:12:47Z</time>
      </trkpt>
      <trkpt lat="47.15" lon="4.92791">
        <ele>363.4</ele>
        <time>2024-06-29T07:12:49Z</time>
      </trkpt>
      <trkpt lat="47.14999" lon="4.92789">
        <ele>363</ele>
        <time>2024-06-29T07:12:51Z</time>
      </trkpt>
      <trkpt lat="47.14999" lon="4.92787">
        <ele>363.4</ele>
        <time>2024-06-29T07:12:53Z</time>
      </trkpt>
      <trkpt lat="47.14999" lon="4.92785">
        <ele>363.1</ele>
        <time>2024-06-29T07:12:55Z</time>
      </trkpt>
      <trkpt lat="47.14998" lon="4.92783">
        <ele>363.2</ele>
        <time>2024-06-29T07:12:56Z</time>
      </trkpt>
      <trkpt lat="47.14998" lon="4.92782">
        <ele>363.1</ele>
        <time>2024-06-29T07:12:57Z</time>
      </trkpt>
      <trkpt lat="47.14998" lon="4.9278">
        <ele>362.4</ele>
        <time>2024-06-29T07:12:58Z</time>
      </trkpt>
      <trkpt lat="47.14997" lon="4.92779">
        <ele>362</ele>
        <time>2024-06-29T07:12:59Z</time>
      </trkpt>
      <trkpt lat="47.14997" lon="4.92777">
        <ele>363</ele>
        <time>2024-06-29T07:13:00Z</time>
      </trkpt>
      <trkpt lat="47.14997" lon="4.92775">
        <ele>359.7</ele>
        <time>2024-06-29T07:13:02Z</time>
      </trkpt>
      <trkpt lat="47.14996" lon="4.92773">
        <ele>360</ele>
        <time>2024-06-29T07:13:04Z</time>
      </trkpt>
      <trkpt lat="47.14995" lon="4.92771">
        <ele>360.5</ele>
        <time>2024-06-29T07:13:06Z</time>
      </trkpt>
      <trkpt lat="47.14994" lon="4.92769">
        <ele>361.1</ele>
        <time>2024-06-29T07:13:08Z</time>
      </trkpt>
      <trkpt lat="47.14993" lon="4.92767">
        <ele>360.9</ele>
        <time>2024-06-29T07:13:10Z</time>
      </trkpt>
      <trkpt lat="47.14992" lon="4.92765">
        <ele>362.7</ele>
        <time>2024-06-29T07:13:12Z</time>
      </trkpt>
      <trkpt lat="47.14992" lon="4.92763">
        <ele>363.2</ele>
        <time>2024-06-29T07:13:13Z</time>
      </trkpt>
      <trkpt lat="47.14991" lon="4.92762">
        <ele>363.3</ele>
        <time>2024-06-29T07:13:14Z</time>
      </trkpt>
      <trkpt lat="47.14991" lon="4.9276">
        <ele>363</ele>
        <time>2024-06-29T07:13:15Z</time>
      </trkpt>
      <trkpt lat="47.1499" lon="4.92759">
        <ele>363.4</ele>
        <time>2024-06-29T07:13:16Z</time>
      </trkpt>
      <trkpt lat="47.1499" lon="4.92757">
        <ele>363.4</ele>
        <time>2024-06-29T07:13:17Z</time>
      </trkpt>
      <trkpt lat="47.14989" lon="4.92756">
        <ele>364.1</ele>
        <time>2024-06-29T07:13:18Z</time>
      </trkpt>
      <trkpt lat="47.14989" lon="4.92754">
        <ele>364.7</ele>
        <time>2024-06-29T07:13:19Z</time>
      </trkpt>
      <trkpt lat="47.14988" lon="4.92753">
        <ele>364.2</ele>
        <time>2024-06-29T07:13:20Z</time>
      </trkpt>
      <trkpt lat="47.14988" lon="4.92751">
        <ele>364.1</ele>
        <time>2024-06-29T07:13:21Z</time>
      </trkpt>
      <trkpt lat="47.14988" lon="4.9275">
        <ele>364.2</ele>
        <time>2024-06-29T07:13:22Z</time>
      </trkpt>
      <trkpt lat="47.14987" lon="4.92748">
        <ele>363.9</ele>
        <time>2024-06-29T07:13:23Z</time>
      </trkpt>
      <trkpt lat="47.14987" lon="4.92747">
        <ele>363.6</ele>
        <time>2024-06-29T07:13:24Z</time>
      </trkpt>
      <trkpt lat="47.14987" lon="4.92745">
        <ele>363.7</ele>
        <time>2024-06-29T07:13:25Z</time>
      </trkpt>
      <trkpt lat="47.14986" lon="4.92744">
        <ele>363.3</ele>
        <time>2024-06-29T07:13:26Z</time>
      </trkpt>
      <trkpt lat="47.14986" lon="4.92743">
        <ele>363.5</ele>
        <time>2024-06-29T07:13:27Z</time>
      </trkpt>
      <trkpt lat="47.14986" lon="4.92741">
        <ele>363.6</ele>
        <time>2024-06-29T07:13:28Z</time>
      </trkpt>
      <trkpt lat="47.14985" lon="4.9274">
        <ele>363.7</ele>
        <time>2024-06-29T07:13:29Z</time>
      </trkpt>
      <trkpt lat="47.14985" lon="4.92738">
        <ele>363.9</ele>
        <time>2024-06-29T07:13:30Z</time>
      </trkpt>
      <trkpt lat="47.14985" lon="4.92737">
        <ele>364.2</ele>
        <time>2024-06-29T07:13:31Z</time>
      </trkpt>
      <trkpt lat="47.14985" lon="4.92735">
        <ele>364.1</ele>
        <time>2024-06-29T07:13:32Z</time>
      </trkpt>
      <trkpt lat="47.14984" lon="4.92734">
        <ele>363.9</ele>
        <time>2024-06-29T07:13:33Z</time>
      </trkpt>
      <trkpt lat="47.14984" lon="4.92733">
        <ele>363.9</ele>
        <time>2024-06-29T07:13:34Z</time>
      </trkpt>
      <trkpt lat="47.14984" lon="4.92731">
        <ele>363.8</ele>
        <time>2024-06-29T07:13:35Z</time>
      </trkpt>
      <trkpt lat="47.14983" lon="4.9273">
        <ele>363.8</ele>
        <time>2024-06-29T07:13:36Z</time>
      </trkpt>
      <trkpt lat="47.14983" lon="4.92729">
        <ele>363.6</ele>
        <time>2024-06-29T07:13:37Z</time>
      </trkpt>
      <trkpt lat="47.14982" lon="4.92727">
        <ele>363.6</ele>
        <time>2024-06-29T07:13:38Z</time>
      </trkpt>
      <trkpt lat="47.14982" lon="4.92726">
        <ele>363.7</ele>
        <time>2024-06-29T07:13:39Z</time>
      </trkpt>
      <trkpt lat="47.14982" lon="4.92725">
        <ele>363.7</ele>
        <time>2024-06-29T07:13:40Z</time>
      </trkpt>
      <trkpt lat="47.14981" lon="4.92723">
        <ele>363.7</ele>
        <time>2024-06-29T07:13:41Z</time>
      </trkpt>
      <trkpt lat="47.14981" lon="4.92722">
        <ele>364.2</ele>
        <time>2024-06-29T07:13:42Z</time>
      </trkpt>
      <trkpt lat="47.1498" lon="4.92721">
        <ele>363.8</ele>
        <time>2024-06-29T07:13:43Z</time>
      </trkpt>
      <trkpt lat="47.1498" lon="4.9272">
        <ele>364.1</ele>
        <time>2024-06-29T07:13:44Z</time>
      </trkpt>
      <trkpt lat="47.14979" lon="4.92719">
        <ele>362.4</ele>
        <time>2024-06-29T07:13:46Z</time>
      </trkpt>
      <trkpt lat="47.14978" lon="4.92717">
        <ele>363.1</ele>
        <time>2024-06-29T07:13:47Z</time>
      </trkpt>
      <trkpt lat="47.14978" lon="4.92716">
        <ele>362.5</ele>
        <time>2024-06-29T07:13:48Z</time>
      </trkpt>
      <trkpt lat="47.14978" lon="4.92714">
        <ele>362.3</ele>
        <time>2024-06-29T07:13:49Z</time>
      </trkpt>
      <trkpt lat="47.14978" lon="4.92712">
        <ele>362.4</ele>
        <time>2024-06-29T07:13:50Z</time>
      </trkpt>
      <trkpt lat="47.14977" lon="4.9271">
        <ele>361.5</ele>
        <time>2024-06-29T07:13:51Z</time>
      </trkpt>
      <trkpt lat="47.14977" lon="4.92709">
        <ele>361</ele>
        <time>2024-06-29T07:13:52Z</time>
      </trkpt>
      <trkpt lat="47.14977" lon="4.92707">
        <ele>360.4</ele>
        <time>2024-06-29T07:13:53Z</time>
      </trkpt>
      <trkpt lat="47.14977" lon="4.92706">
        <ele>358.9</ele>
        <time>2024-06-29T07:13:54Z</time>
      </trkpt>
      <trkpt lat="47.14977" lon="4.92704">
        <ele>359.8</ele>
        <time>2024-06-29T07:13:55Z</time>
      </trkpt>
      <trkpt lat="47.14977" lon="4.92703">
        <ele>360.1</ele>
        <time>2024-06-29T07:13:56Z</time>
      </trkpt>
      <trkpt lat="47.14977" lon="4.92701">
        <ele>360</ele>
        <time>2024-06-29T07:13:57Z</time>
      </trkpt>
      <trkpt lat="47.14977" lon="4.92699">
        <ele>360.4</ele>
        <time>2024-06-29T07:13:58Z</time>
      </trkpt>
      <trkpt lat="47.14977" lon="4.92697">
        <ele>360</ele>
        <time>2024-06-29T07:13:59Z</time>
      </trkpt>
      <trkpt lat="47.14977" lon="4.92696">
        <ele>360</ele>
        <time>2024-06-29T07:14:00Z</time>
      </trkpt>
      <trkpt lat="47.14976" lon="4.92693">
        <ele>358.6</ele>
        <time>2024-06-29T07:14:02Z</time>
      </trkpt>
      <trkpt lat="47.14975" lon="4.92692">
        <ele>360</ele>
        <time>2024-06-29T07:14:03Z</time>
      </trkpt>
      <trkpt lat="47.14974" lon="4.9269">
        <ele>360.2</ele>
        <time>2024-06-29T07:14:05Z</time>
      </trkpt>
      <trkpt lat="47.14973" lon="4.92689">
        <ele>360.1</ele>
        <time>2024-06-29T07:14:06Z</time>
      </trkpt>
      <trkpt lat="47.14972" lon="4.92688">
        <ele>358.2</ele>
        <time>2024-06-29T07:14:07Z</time>
      </trkpt>
      <trkpt lat="47.14972" lon="4.92687">
        <ele>358.4</ele>
        <time>2024-06-29T07:14:08Z</time>
      </trkpt>
      <trkpt lat="47.14971" lon="4.92686">
        <ele>358.5</ele>
        <time>2024-06-29T07:14:09Z</time>
      </trkpt>
      <trkpt lat="47.14971" lon="4.92684">
        <ele>359.3</ele>
        <time>2024-06-29T07:14:10Z</time>
      </trkpt>
      <trkpt lat="47.1497" lon="4.92683">
        <ele>359.4</ele>
        <time>2024-06-29T07:14:11Z</time>
      </trkpt>
      <trkpt lat="47.1497" lon="4.92682">
        <ele>360</ele>
        <time>2024-06-29T07:14:12Z</time>
      </trkpt>
      <trkpt lat="47.14969" lon="4.9268">
        <ele>360.3</ele>
        <time>2024-06-29T07:14:13Z</time>
      </trkpt>
      <trkpt lat="47.14969" lon="4.92679">
        <ele>360.2</ele>
        <time>2024-06-29T07:14:14Z</time>
      </trkpt>
      <trkpt lat="47.14969" lon="4.92677">
        <ele>360.2</ele>
        <time>2024-06-29T07:14:15Z</time>
      </trkpt>
      <trkpt lat="47.14968" lon="4.92676">
        <ele>360.6</ele>
        <time>2024-06-29T07:14:16Z</time>
      </trkpt>
      <trkpt lat="47.14968" lon="4.92675">
        <ele>360.6</ele>
        <time>2024-06-29T07:14:17Z</time>
      </trkpt>
      <trkpt lat="47.14968" lon="4.92674">
        <ele>360.6</ele>
        <time>2024-06-29T07:14:18Z</time>
      </trkpt>
      <trkpt lat="47.14967" lon="4.92672">
        <ele>360.5</ele>
        <time>2024-06-29T07:14:19Z</time>
      </trkpt>
      <trkpt lat="47.14967" lon="4.9267">
        <ele>360.8</ele>
        <time>2024-06-29T07:14:21Z</time>
      </trkpt>
      <trkpt lat="47.14966" lon="4.92667">
        <ele>360.5</ele>
        <time>2024-06-29T07:14:23Z</time>
      </trkpt>
      <trkpt lat="47.14966" lon="4.92666">
        <ele>360.6</ele>
        <time>2024-06-29T07:14:24Z</time>
      </trkpt>
      <trkpt lat="47.14966" lon="4.92665">
        <ele>360.7</ele>
        <time>2024-06-29T07:14:25Z</time>
      </trkpt>
      <trkpt lat="47.14965" lon="4.92663">
        <ele>360.7</ele>
        <time>2024-06-29T07:14:26Z</time>
      </trkpt>
      <trkpt lat="47.14965" lon="4.92661">
        <ele>360.9</ele>
        <time>2024-06-29T07:14:28Z</time>
      </trkpt>
      <trkpt lat="47.14964" lon="4.92659">
        <ele>361</ele>
        <time>2024-06-29T07:14:30Z</time>
      </trkpt>
      <trkpt lat="47.14964" lon="4.92657">
        <ele>361.4</ele>
        <time>2024-06-29T07:14:31Z</time>
      </trkpt>
      <trkpt lat="47.14963" lon="4.92656">
        <ele>361.6</ele>
        <time>2024-06-29T07:14:32Z</time>
      </trkpt>
      <trkpt lat="47.14963" lon="4.92654">
        <ele>361.6</ele>
        <time>2024-06-29T07:14:33Z</time>
      </trkpt>
      <trkpt lat="47.14963" lon="4.92653">
        <ele>361.4</ele>
        <time>2024-06-29T07:14:34Z</time>
      </trkpt>
      <trkpt lat="47.14962" lon="4.92651">
        <ele>361.6</ele>
        <time>2024-06-29T07:14:35Z</time>
      </trkpt>
      <trkpt lat="47.14962" lon="4.9265">
        <ele>361.9</ele>
        <time>2024-06-29T07:14:36Z</time>
      </trkpt>
      <trkpt lat="47.14961" lon="4.92649">
        <ele>361.9</ele>
        <time>2024-06-29T07:14:37Z</time>
      </trkpt>
      <trkpt lat="47.1496" lon="4.92648">
        <ele>362</ele>
        <time>2024-06-29T07:14:38Z</time>
      </trkpt>
      <trkpt lat="47.1496" lon="4.92646">
        <ele>362.2</ele>
        <time>2024-06-29T07:14:39Z</time>
      </trkpt>
      <trkpt lat="47.14959" lon="4.92645">
        <ele>361.8</ele>
        <time>2024-06-29T07:14:40Z</time>
      </trkpt>
      <trkpt lat="47.14958" lon="4.92643">
        <ele>361.1</ele>
        <time>2024-06-29T07:14:41Z</time>
      </trkpt>
      <trkpt lat="47.14958" lon="4.92642">
        <ele>361.8</ele>
        <time>2024-06-29T07:14:42Z</time>
      </trkpt>
      <trkpt lat="47.14957" lon="4.9264">
        <ele>362.1</ele>
        <time>2024-06-29T07:14:44Z</time>
      </trkpt>
      <trkpt lat="47.14957" lon="4.92638">
        <ele>360.7</ele>
        <time>2024-06-29T07:14:46Z</time>
      </trkpt>
      <trkpt lat="47.14957" lon="4.92635">
        <ele>360.3</ele>
        <time>2024-06-29T07:14:48Z</time>
      </trkpt>
      <trkpt lat="47.14957" lon="4.92634">
        <ele>360.6</ele>
        <time>2024-06-29T07:14:49Z</time>
      </trkpt>
      <trkpt lat="47.14957" lon="4.92632">
        <ele>359.3</ele>
        <time>2024-06-29T07:14:50Z</time>
      </trkpt>
      <trkpt lat="47.14957" lon="4.9263">
        <ele>356.5</ele>
        <time>2024-06-29T07:14:51Z</time>
      </trkpt>
      <trkpt lat="47.14957" lon="4.92628">
        <ele>356.9</ele>
        <time>2024-06-29T07:14:52Z</time>
      </trkpt>
      <trkpt lat="47.14957" lon="4.92626">
        <ele>356.3</ele>
        <time>2024-06-29T07:14:53Z</time>
      </trkpt>
      <trkpt lat="47.14957" lon="4.92625">
        <ele>355.4</ele>
        <time>2024-06-29T07:14:54Z</time>
      </trkpt>
      <trkpt lat="47.14956" lon="4.92623">
        <ele>355.9</ele>
        <time>2024-06-29T07:14:55Z</time>
      </trkpt>
      <trkpt lat="47.14956" lon="4.92621">
        <ele>355.4</ele>
        <time>2024-06-29T07:14:57Z</time>
      </trkpt>
      <trkpt lat="47.14955" lon="4.9262">
        <ele>355.5</ele>
        <time>2024-06-29T07:14:58Z</time>
      </trkpt>
      <trkpt lat="47.14955" lon="4.92618">
        <ele>354.9</ele>
        <time>2024-06-29T07:14:59Z</time>
      </trkpt>
      <trkpt lat="47.14955" lon="4.92617">
        <ele>356.4</ele>
        <time>2024-06-29T07:15:00Z</time>
      </trkpt>
      <trkpt lat="47.14954" lon="4.92615">
        <ele>355.9</ele>
        <time>2024-06-29T07:15:02Z</time>
      </trkpt>
      <trkpt lat="47.14954" lon="4.92613">
        <ele>354.8</ele>
        <time>2024-06-29T07:15:03Z</time>
      </trkpt>
      <trkpt lat="47.14954" lon="4.92612">
        <ele>354.8</ele>
        <time>2024-06-29T07:15:04Z</time>
      </trkpt>
      <trkpt lat="47.14954" lon="4.9261">
        <ele>354.6</ele>
        <time>2024-06-29T07:15:05Z</time>
      </trkpt>
      <trkpt lat="47.14954" lon="4.92607">
        <ele>355.4</ele>
        <time>2024-06-29T07:15:07Z</time>
      </trkpt>
      <trkpt lat="47.14953" lon="4.92606">
        <ele>354.6</ele>
        <time>2024-06-29T07:15:08Z</time>
      </trkpt>
      <trkpt lat="47.14953" lon="4.92604">
        <ele>352.7</ele>
        <time>2024-06-29T07:15:09Z</time>
      </trkpt>
      <trkpt lat="47.14953" lon="4.92602">
        <ele>353.5</ele>
        <time>2024-06-29T07:15:10Z</time>
      </trkpt>
      <trkpt lat="47.14953" lon="4.926">
        <ele>353.5</ele>
        <time>2024-06-29T07:15:11Z</time>
      </trkpt>
      <trkpt lat="47.14953" lon="4.92599">
        <ele>354.1</ele>
        <time>2024-06-29T07:15:12Z</time>
      </trkpt>
      <trkpt lat="47.14953" lon="4.92597">
        <ele>351.3</ele>
        <time>2024-06-29T07:15:13Z</time>
      </trkpt>
      <trkpt lat="47.14953" lon="4.92596">
        <ele>351.5</ele>
        <time>2024-06-29T07:15:14Z</time>
      </trkpt>
      <trkpt lat="47.14953" lon="4.92594">
        <ele>354.2</ele>
        <time>2024-06-29T07:15:15Z</time>
      </trkpt>
      <trkpt lat="47.14952" lon="4.92591">
        <ele>352.9</ele>
        <time>2024-06-29T07:15:17Z</time>
      </trkpt>
      <trkpt lat="47.14952" lon="4.9259">
        <ele>352.6</ele>
        <time>2024-06-29T07:15:18Z</time>
      </trkpt>
      <trkpt lat="47.14951" lon="4.92589">
        <ele>353.9</ele>
        <time>2024-06-29T07:15:19Z</time>
      </trkpt>
      <trkpt lat="47.14951" lon="4.92586">
        <ele>353.9</ele>
        <time>2024-06-29T07:15:21Z</time>
      </trkpt>
      <trkpt lat="47.1495" lon="4.92585">
        <ele>354.5</ele>
        <time>2024-06-29T07:15:23Z</time>
      </trkpt>
      <trkpt lat="47.1495" lon="4.92583">
        <ele>355.3</ele>
        <time>2024-06-29T07:15:24Z</time>
      </trkpt>
      <trkpt lat="47.14949" lon="4.92582">
        <ele>355</ele>
        <time>2024-06-29T07:15:25Z</time>
      </trkpt>
      <trkpt lat="47.14949" lon="4.92581">
        <ele>355.4</ele>
        <time>2024-06-29T07:15:26Z</time>
      </trkpt>
      <trkpt lat="47.14949" lon="4.92579">
        <ele>353.7</ele>
        <time>2024-06-29T07:15:27Z</time>
      </trkpt>
      <trkpt lat="47.14949" lon="4.92578">
        <ele>352.8</ele>
        <time>2024-06-29T07:15:28Z</time>
      </trkpt>
      <trkpt lat="47.14949" lon="4.92576">
        <ele>353.9</ele>
        <time>2024-06-29T07:15:29Z</time>
      </trkpt>
      <trkpt lat="47.14949" lon="4.92575">
        <ele>352</ele>
        <time>2024-06-29T07:15:30Z</time>
      </trkpt>
      <trkpt lat="47.14949" lon="4.92573">
        <ele>351.1</ele>
        <time>2024-06-29T07:15:31Z</time>
      </trkpt>
      <trkpt lat="47.14949" lon="4.92571">
        <ele>350.5</ele>
        <time>2024-06-29T07:15:32Z</time>
      </trkpt>
      <trkpt lat="47.14949" lon="4.92569">
        <ele>352.2</ele>
        <time>2024-06-29T07:15:33Z</time>
      </trkpt>
      <trkpt lat="47.14948" lon="4.92567">
        <ele>351.5</ele>
        <time>2024-06-29T07:15:34Z</time>
      </trkpt>
      <trkpt lat="47.14948" lon="4.92566">
        <ele>351.5</ele>
        <time>2024-06-29T07:15:35Z</time>
      </trkpt>
      <trkpt lat="47.14948" lon="4.92563">
        <ele>353.2</ele>
        <time>2024-06-29T07:15:37Z</time>
      </trkpt>
      <trkpt lat="47.14948" lon="4.92561">
        <ele>353.7</ele>
        <time>2024-06-29T07:15:39Z</time>
      </trkpt>
      <trkpt lat="47.14948" lon="4.9256">
        <ele>355.7</ele>
        <time>2024-06-29T07:15:41Z</time>
      </trkpt>
      <trkpt lat="47.14949" lon="4.92558">
        <ele>355</ele>
        <time>2024-06-29T07:15:43Z</time>
      </trkpt>
      <trkpt lat="47.14949" lon="4.92555">
        <ele>354.8</ele>
        <time>2024-06-29T07:15:45Z</time>
      </trkpt>
      <trkpt lat="47.14948" lon="4.92554">
        <ele>354.4</ele>
        <time>2024-06-29T07:15:46Z</time>
      </trkpt>
      <trkpt lat="47.14947" lon="4.92551">
        <ele>353.5</ele>
        <time>2024-06-29T07:15:48Z</time>
      </trkpt>
      <trkpt lat="47.14947" lon="4.9255">
        <ele>351.6</ele>
        <time>2024-06-29T07:15:49Z</time>
      </trkpt>
      <trkpt lat="47.14946" lon="4.92548">
        <ele>351.3</ele>
        <time>2024-06-29T07:15:50Z</time>
      </trkpt>
      <trkpt lat="47.14946" lon="4.92546">
        <ele>351.4</ele>
        <time>2024-06-29T07:15:51Z</time>
      </trkpt>
      <trkpt lat="47.14946" lon="4.92544">
        <ele>351.8</ele>
        <time>2024-06-29T07:15:52Z</time>
      </trkpt>
      <trkpt lat="47.14946" lon="4.92541">
        <ele>351.1</ele>
        <time>2024-06-29T07:15:54Z</time>
      </trkpt>
      <trkpt lat="47.14947" lon="4.92539">
        <ele>350.2</ele>
        <time>2024-06-29T07:15:55Z</time>
      </trkpt>
      <trkpt lat="47.14947" lon="4.92537">
        <ele>351.7</ele>
        <time>2024-06-29T07:15:56Z</time>
      </trkpt>
      <trkpt lat="47.14947" lon="4.92535">
        <ele>353.2</ele>
        <time>2024-06-29T07:15:58Z</time>
      </trkpt>
      <trkpt lat="47.14946" lon="4.92533">
        <ele>352.4</ele>
        <time>2024-06-29T07:15:59Z</time>
      </trkpt>
      <trkpt lat="47.14946" lon="4.92532">
        <ele>352.7</ele>
        <time>2024-06-29T07:16:00Z</time>
      </trkpt>
      <trkpt lat="47.14946" lon="4.92531">
        <ele>352.8</ele>
        <time>2024-06-29T07:16:01Z</time>
      </trkpt>
      <trkpt lat="47.14945" lon="4.9253">
        <ele>353.7</ele>
        <time>2024-06-29T07:16:02Z</time>
      </trkpt>
      <trkpt lat="47.14944" lon="4.92528">
        <ele>356.6</ele>
        <time>2024-06-29T07:16:04Z</time>
      </trkpt>
      <trkpt lat="47.14943" lon="4.92526">
        <ele>358.3</ele>
        <time>2024-06-29T07:16:05Z</time>
      </trkpt>
      <trkpt lat="47.14943" lon="4.92524">
        <ele>356.9</ele>
        <time>2024-06-29T07:16:07Z</time>
      </trkpt>
      <trkpt lat="47.14943" lon="4.92523">
        <ele>357.8</ele>
        <time>2024-06-29T07:16:08Z</time>
      </trkpt>
      <trkpt lat="47.14943" lon="4.92521">
        <ele>356.9</ele>
        <time>2024-06-29T07:16:09Z</time>
      </trkpt>
      <trkpt lat="47.14943" lon="4.92519">
        <ele>357.5</ele>
        <time>2024-06-29T07:16:11Z</time>
      </trkpt>
      <trkpt lat="47.14944" lon="4.92517">
        <ele>357.6</ele>
        <time>2024-06-29T07:16:12Z</time>
      </trkpt>
      <trkpt lat="47.14944" lon="4.92516">
        <ele>356.9</ele>
        <time>2024-06-29T07:16:13Z</time>
      </trkpt>
      <trkpt lat="47.14944" lon="4.92514">
        <ele>352.6</ele>
        <time>2024-06-29T07:16:14Z</time>
      </trkpt>
      <trkpt lat="47.14944" lon="4.92513">
        <ele>352.6</ele>
        <time>2024-06-29T07:16:15Z</time>
      </trkpt>
      <trkpt lat="47.14943" lon="4.92511">
        <ele>354</ele>
        <time>2024-06-29T07:16:16Z</time>
      </trkpt>
      <trkpt lat="47.14943" lon="4.9251">
        <ele>354.7</ele>
        <time>2024-06-29T07:16:17Z</time>
      </trkpt>
      <trkpt lat="47.14943" lon="4.92508">
        <ele>354.9</ele>
        <time>2024-06-29T07:16:19Z</time>
      </trkpt>
      <trkpt lat="47.14942" lon="4.92506">
        <ele>355.1</ele>
        <time>2024-06-29T07:16:21Z</time>
      </trkpt>
      <trkpt lat="47.14941" lon="4.92504">
        <ele>354.9</ele>
        <time>2024-06-29T07:16:23Z</time>
      </trkpt>
      <trkpt lat="47.14941" lon="4.92502">
        <ele>355.7</ele>
        <time>2024-06-29T07:16:25Z</time>
      </trkpt>
      <trkpt lat="47.1494" lon="4.925">
        <ele>356.2</ele>
        <time>2024-06-29T07:16:27Z</time>
      </trkpt>
      <trkpt lat="47.14939" lon="4.92498">
        <ele>356.2</ele>
        <time>2024-06-29T07:16:29Z</time>
      </trkpt>
      <trkpt lat="47.14938" lon="4.92496">
        <ele>356.8</ele>
        <time>2024-06-29T07:16:31Z</time>
      </trkpt>
      <trkpt lat="47.14938" lon="4.92493">
        <ele>356.6</ele>
        <time>2024-06-29T07:16:33Z</time>
      </trkpt>
      <trkpt lat="47.14938" lon="4.92491">
        <ele>356.4</ele>
        <time>2024-06-29T07:16:35Z</time>
      </trkpt>
      <trkpt lat="47.14937" lon="4.92489">
        <ele>356.9</ele>
        <time>2024-06-29T07:16:37Z</time>
      </trkpt>
      <trkpt lat="47.14937" lon="4.92487">
        <ele>357</ele>
        <time>2024-06-29T07:16:38Z</time>
      </trkpt>
      <trkpt lat="47.14937" lon="4.92486">
        <ele>357.1</ele>
        <time>2024-06-29T07:16:39Z</time>
      </trkpt>
      <trkpt lat="47.14936" lon="4.92483">
        <ele>357.3</ele>
        <time>2024-06-29T07:16:41Z</time>
      </trkpt>
      <trkpt lat="47.14936" lon="4.92481">
        <ele>357.7</ele>
        <time>2024-06-29T07:16:43Z</time>
      </trkpt>
      <trkpt lat="47.14935" lon="4.92478">
        <ele>357</ele>
        <time>2024-06-29T07:16:45Z</time>
      </trkpt>
      <trkpt lat="47.14935" lon="4.92477">
        <ele>356.4</ele>
        <time>2024-06-29T07:16:46Z</time>
      </trkpt>
      <trkpt lat="47.14935" lon="4.92475">
        <ele>355.9</ele>
        <time>2024-06-29T07:16:47Z</time>
      </trkpt>
      <trkpt lat="47.14935" lon="4.92474">
        <ele>356</ele>
        <time>2024-06-29T07:16:48Z</time>
      </trkpt>
      <trkpt lat="47.14935" lon="4.92473">
        <ele>356.5</ele>
        <time>2024-06-29T07:16:49Z</time>
      </trkpt>
      <trkpt lat="47.14934" lon="4.92471">
        <ele>356.3</ele>
        <time>2024-06-29T07:16:50Z</time>
      </trkpt>
      <trkpt lat="47.14934" lon="4.92469">
        <ele>355.8</ele>
        <time>2024-06-29T07:16:52Z</time>
      </trkpt>
      <trkpt lat="47.14934" lon="4.92467">
        <ele>352.7</ele>
        <time>2024-06-29T07:16:54Z</time>
      </trkpt>
      <trkpt lat="47.14934" lon="4.92465">
        <ele>352.8</ele>
        <time>2024-06-29T07:16:56Z</time>
      </trkpt>
      <trkpt lat="47.14934" lon="4.92463">
        <ele>353.3</ele>
        <time>2024-06-29T07:16:57Z</time>
      </trkpt>
      <trkpt lat="47.14934" lon="4.92462">
        <ele>353.7</ele>
        <time>2024-06-29T07:16:58Z</time>
      </trkpt>
      <trkpt lat="47.14933" lon="4.9246">
        <ele>353.9</ele>
        <time>2024-06-29T07:16:59Z</time>
      </trkpt>
      <trkpt lat="47.14933" lon="4.92459">
        <ele>354.4</ele>
        <time>2024-06-29T07:17:00Z</time>
      </trkpt>
      <trkpt lat="47.14932" lon="4.92457">
        <ele>355.4</ele>
        <time>2024-06-29T07:17:01Z</time>
      </trkpt>
      <trkpt lat="47.14932" lon="4.92456">
        <ele>356.2</ele>
        <time>2024-06-29T07:17:02Z</time>
      </trkpt>
      <trkpt lat="47.14931" lon="4.92454">
        <ele>356.5</ele>
        <time>2024-06-29T07:17:03Z</time>
      </trkpt>
      <trkpt lat="47.14931" lon="4.92453">
        <ele>356.5</ele>
        <time>2024-06-29T07:17:04Z</time>
      </trkpt>
      <trkpt lat="47.1493" lon="4.92452">
        <ele>356.3</ele>
        <time>2024-06-29T07:17:05Z</time>
      </trkpt>
      <trkpt lat="47.1493" lon="4.9245">
        <ele>356.8</ele>
        <time>2024-06-29T07:17:06Z</time>
      </trkpt>
      <trkpt lat="47.1493" lon="4.92449">
        <ele>357</ele>
        <time>2024-06-29T07:17:07Z</time>
      </trkpt>
      <trkpt lat="47.14929" lon="4.92447">
        <ele>357</ele>
        <time>2024-06-29T07:17:08Z</time>
      </trkpt>
      <trkpt lat="47.14929" lon="4.92446">
        <ele>357.1</ele>
        <time>2024-06-29T07:17:09Z</time>
      </trkpt>
      <trkpt lat="47.14928" lon="4.92444">
        <ele>357.3</ele>
        <time>2024-06-29T07:17:10Z</time>
      </trkpt>
      <trkpt lat="47.14927" lon="4.92443">
        <ele>357.5</ele>
        <time>2024-06-29T07:17:11Z</time>
      </trkpt>
      <trkpt lat="47.14927" lon="4.92441">
        <ele>357.6</ele>
        <time>2024-06-29T07:17:12Z</time>
      </trkpt>
      <trkpt lat="47.14927" lon="4.9244">
        <ele>357.7</ele>
        <time>2024-06-29T07:17:13Z</time>
      </trkpt>
      <trkpt lat="47.14926" lon="4.92438">
        <ele>357.6</ele>
        <time>2024-06-29T07:17:14Z</time>
      </trkpt>
      <trkpt lat="47.14926" lon="4.92437">
        <ele>357.6</ele>
        <time>2024-06-29T07:17:15Z</time>
      </trkpt>
      <trkpt lat="47.14925" lon="4.92435">
        <ele>357.8</ele>
        <time>2024-06-29T07:17:16Z</time>
      </trkpt>
      <trkpt lat="47.14925" lon="4.92434">
        <ele>357.8</ele>
        <time>2024-06-29T07:17:17Z</time>
      </trkpt>
      <trkpt lat="47.14924" lon="4.92432">
        <ele>357.6</ele>
        <time>2024-06-29T07:17:18Z</time>
      </trkpt>
      <trkpt lat="47.14924" lon="4.92431">
        <ele>357.7</ele>
        <time>2024-06-29T07:17:19Z</time>
      </trkpt>
      <trkpt lat="47.14924" lon="4.92429">
        <ele>357.8</ele>
        <time>2024-06-29T07:17:20Z</time>
      </trkpt>
      <trkpt lat="47.14923" lon="4.92427">
        <ele>357.6</ele>
        <time>2024-06-29T07:17:21Z</time>
      </trkpt>
      <trkpt lat="47.14923" lon="4.92426">
        <ele>357.4</ele>
        <time>2024-06-29T07:17:22Z</time>
      </trkpt>
      <trkpt lat="47.14922" lon="4.92424">
        <ele>357.2</ele>
        <time>2024-06-29T07:17:23Z</time>
      </trkpt>
      <trkpt lat="47.14922" lon="4.92423">
        <ele>356.2</ele>
        <time>2024-06-29T07:17:24Z</time>
      </trkpt>
      <trkpt lat="47.14921" lon="4.92422">
        <ele>356.6</ele>
        <time>2024-06-29T07:17:25Z</time>
      </trkpt>
      <trkpt lat="47.1492" lon="4.92419">
        <ele>357.1</ele>
        <time>2024-06-29T07:17:27Z</time>
      </trkpt>
      <trkpt lat="47.1492" lon="4.92417">
        <ele>356.8</ele>
        <time>2024-06-29T07:17:28Z</time>
      </trkpt>
      <trkpt lat="47.1492" lon="4.92416">
        <ele>355.4</ele>
        <time>2024-06-29T07:17:29Z</time>
      </trkpt>
      <trkpt lat="47.14921" lon="4.92414">
        <ele>354.4</ele>
        <time>2024-06-29T07:17:30Z</time>
      </trkpt>
      <trkpt lat="47.14921" lon="4.92413">
        <ele>354.1</ele>
        <time>2024-06-29T07:17:31Z</time>
      </trkpt>
      <trkpt lat="47.14922" lon="4.92411">
        <ele>354.5</ele>
        <time>2024-06-29T07:17:32Z</time>
      </trkpt>
      <trkpt lat="47.14922" lon="4.9241">
        <ele>354.8</ele>
        <time>2024-06-29T07:17:33Z</time>
      </trkpt>
      <trkpt lat="47.14922" lon="4.92409">
        <ele>354.6</ele>
        <time>2024-06-29T07:17:34Z</time>
      </trkpt>
      <trkpt lat="47.14922" lon="4.92407">
        <ele>354.7</ele>
        <time>2024-06-29T07:17:35Z</time>
      </trkpt>
      <trkpt lat="47.14922" lon="4.92406">
        <ele>354.5</ele>
        <time>2024-06-29T07:17:36Z</time>
      </trkpt>
      <trkpt lat="47.14922" lon="4.92404">
        <ele>354.9</ele>
        <time>2024-06-29T07:17:37Z</time>
      </trkpt>
      <trkpt lat="47.14922" lon="4.92402">
        <ele>354.8</ele>
        <time>2024-06-29T07:17:38Z</time>
      </trkpt>
      <trkpt lat="47.14921" lon="4.92401">
        <ele>352.6</ele>
        <time>2024-06-29T07:17:39Z</time>
      </trkpt>
      <trkpt lat="47.14921" lon="4.92399">
        <ele>352.8</ele>
        <time>2024-06-29T07:17:40Z</time>
      </trkpt>
      <trkpt lat="47.14921" lon="4.92398">
        <ele>352.4</ele>
        <time>2024-06-29T07:17:41Z</time>
      </trkpt>
      <trkpt lat="47.14921" lon="4.92396">
        <ele>352.7</ele>
        <time>2024-06-29T07:17:42Z</time>
      </trkpt>
      <trkpt lat="47.14922" lon="4.92395">
        <ele>353.5</ele>
        <time>2024-06-29T07:17:43Z</time>
      </trkpt>
      <trkpt lat="47.14922" lon="4.92393">
        <ele>353.3</ele>
        <time>2024-06-29T07:17:44Z</time>
      </trkpt>
      <trkpt lat="47.14922" lon="4.92391">
        <ele>353.6</ele>
        <time>2024-06-29T07:17:46Z</time>
      </trkpt>
      <trkpt lat="47.14922" lon="4.92388">
        <ele>354.2</ele>
        <time>2024-06-29T07:17:48Z</time>
      </trkpt>
      <trkpt lat="47.14922" lon="4.92386">
        <ele>354.8</ele>
        <time>2024-06-29T07:17:50Z</time>
      </trkpt>
      <trkpt lat="47.14923" lon="4.92384">
        <ele>354.9</ele>
        <time>2024-06-29T07:17:52Z</time>
      </trkpt>
      <trkpt lat="47.14923" lon="4.92382">
        <ele>354.9</ele>
        <time>2024-06-29T07:17:53Z</time>
      </trkpt>
      <trkpt lat="47.14923" lon="4.92381">
        <ele>355.2</ele>
        <time>2024-06-29T07:17:54Z</time>
      </trkpt>
      <trkpt lat="47.14923" lon="4.92379">
        <ele>355.1</ele>
        <time>2024-06-29T07:17:55Z</time>
      </trkpt>
      <trkpt lat="47.14923" lon="4.92378">
        <ele>355.2</ele>
        <time>2024-06-29T07:17:56Z</time>
      </trkpt>
      <trkpt lat="47.14924" lon="4.92377">
        <ele>355.4</ele>
        <time>2024-06-29T07:17:57Z</time>
      </trkpt>
      <trkpt lat="47.14924" lon="4.92375">
        <ele>355.7</ele>
        <time>2024-06-29T07:17:58Z</time>
      </trkpt>
      <trkpt lat="47.14924" lon="4.92374">
        <ele>355.7</ele>
        <time>2024-06-29T07:17:59Z</time>
      </trkpt>
      <trkpt lat="47.14924" lon="4.92373">
        <ele>356.2</ele>
        <time>2024-06-29T07:18:00Z</time>
      </trkpt>
      <trkpt lat="47.14924" lon="4.92371">
        <ele>356</ele>
        <time>2024-06-29T07:18:01Z</time>
      </trkpt>
      <trkpt lat="47.14924" lon="4.9237">
        <ele>356</ele>
        <time>2024-06-29T07:18:02Z</time>
      </trkpt>
      <trkpt lat="47.14924" lon="4.92368">
        <ele>356.1</ele>
        <time>2024-06-29T07:18:03Z</time>
      </trkpt>
      <trkpt lat="47.14924" lon="4.92367">
        <ele>356.1</ele>
        <time>2024-06-29T07:18:04Z</time>
      </trkpt>
      <trkpt lat="47.14924" lon="4.92365">
        <ele>356.2</ele>
        <time>2024-06-29T07:18:06Z</time>
      </trkpt>
      <trkpt lat="47.14925" lon="4.92362">
        <ele>355.9</ele>
        <time>2024-06-29T07:18:08Z</time>
      </trkpt>
      <trkpt lat="47.14925" lon="4.9236">
        <ele>355.3</ele>
        <time>2024-06-29T07:18:10Z</time>
      </trkpt>
      <trkpt lat="47.14926" lon="4.92358">
        <ele>350.2</ele>
        <time>2024-06-29T07:18:14Z</time>
      </trkpt>
      <trkpt lat="47.14927" lon="4.92356">
        <ele>349.9</ele>
        <time>2024-06-29T07:18:16Z</time>
      </trkpt>
      <trkpt lat="47.14926" lon="4.92353">
        <ele>350.7</ele>
        <time>2024-06-29T07:18:18Z</time>
      </trkpt>
      <trkpt lat="47.14927" lon="4.92351">
        <ele>349.7</ele>
        <time>2024-06-29T07:18:20Z</time>
      </trkpt>
      <trkpt lat="47.14927" lon="4.92349">
        <ele>350.6</ele>
        <time>2024-06-29T07:18:22Z</time>
      </trkpt>
      <trkpt lat="47.14926" lon="4.92347">
        <ele>349.9</ele>
        <time>2024-06-29T07:18:24Z</time>
      </trkpt>
      <trkpt lat="47.14926" lon="4.92346">
        <ele>350</ele>
        <time>2024-06-29T07:18:26Z</time>
      </trkpt>
      <trkpt lat="47.14926" lon="4.92345">
        <ele>347.7</ele>
        <time>2024-06-29T07:18:28Z</time>
      </trkpt>
      <trkpt lat="47.14927" lon="4.92343">
        <ele>347.1</ele>
        <time>2024-06-29T07:18:31Z</time>
      </trkpt>
      <trkpt lat="47.14927" lon="4.92342">
        <ele>346.8</ele>
        <time>2024-06-29T07:18:33Z</time>
      </trkpt>
      <trkpt lat="47.14928" lon="4.92341">
        <ele>347.7</ele>
        <time>2024-06-29T07:18:34Z</time>
      </trkpt>
      <trkpt lat="47.14928" lon="4.92339">
        <ele>348.4</ele>
        <time>2024-06-29T07:18:35Z</time>
      </trkpt>
      <trkpt lat="47.14929" lon="4.92337">
        <ele>349.4</ele>
        <time>2024-06-29T07:18:37Z</time>
      </trkpt>
      <trkpt lat="47.14929" lon="4.92335">
        <ele>349.1</ele>
        <time>2024-06-29T07:18:38Z</time>
      </trkpt>
      <trkpt lat="47.14929" lon="4.92333">
        <ele>347.9</ele>
        <time>2024-06-29T07:18:40Z</time>
      </trkpt>
      <trkpt lat="47.1493" lon="4.92331">
        <ele>348.7</ele>
        <time>2024-06-29T07:18:42Z</time>
      </trkpt>
      <trkpt lat="47.1493" lon="4.9233">
        <ele>347.8</ele>
        <time>2024-06-29T07:18:43Z</time>
      </trkpt>
      <trkpt lat="47.14931" lon="4.92328">
        <ele>347</ele>
        <time>2024-06-29T07:18:44Z</time>
      </trkpt>
      <trkpt lat="47.14932" lon="4.92326">
        <ele>347.9</ele>
        <time>2024-06-29T07:18:45Z</time>
      </trkpt>
      <trkpt lat="47.14932" lon="4.92325">
        <ele>347.2</ele>
        <time>2024-06-29T07:18:46Z</time>
      </trkpt>
      <trkpt lat="47.14933" lon="4.92323">
        <ele>350.8</ele>
        <time>2024-06-29T07:18:48Z</time>
      </trkpt>
      <trkpt lat="47.14934" lon="4.92323">
        <ele>348.9</ele>
        <time>2024-06-29T07:18:49Z</time>
      </trkpt>
      <trkpt lat="47.14935" lon="4.92322">
        <ele>348.2</ele>
        <time>2024-06-29T07:18:50Z</time>
      </trkpt>
      <trkpt lat="47.14936" lon="4.92321">
        <ele>348.4</ele>
        <time>2024-06-29T07:18:51Z</time>
      </trkpt>
      <trkpt lat="47.14936" lon="4.92319">
        <ele>347.6</ele>
        <time>2024-06-29T07:18:52Z</time>
      </trkpt>
      <trkpt lat="47.14937" lon="4.92318">
        <ele>345.9</ele>
        <time>2024-06-29T07:18:53Z</time>
      </trkpt>
      <trkpt lat="47.14937" lon="4.92316">
        <ele>346.3</ele>
        <time>2024-06-29T07:18:54Z</time>
      </trkpt>
      <trkpt lat="47.14938" lon="4.92314">
        <ele>344.9</ele>
        <time>2024-06-29T07:18:56Z</time>
      </trkpt>
      <trkpt lat="47.14939" lon="4.92314">
        <ele>346.1</ele>
        <time>2024-06-29T07:18:57Z</time>
      </trkpt>
      <trkpt lat="47.14941" lon="4.92313">
        <ele>344</ele>
        <time>2024-06-29T07:18:58Z</time>
      </trkpt>
      <trkpt lat="47.14942" lon="4.92312">
        <ele>344.4</ele>
        <time>2024-06-29T07:18:59Z</time>
      </trkpt>
      <trkpt lat="47.14943" lon="4.92311">
        <ele>345</ele>
        <time>2024-06-29T07:19:00Z</time>
      </trkpt>
      <trkpt lat="47.14943" lon="4.92311">
        <ele>346.1</ele>
        <time>2024-06-29T07:19:01Z</time>
      </trkpt>
      <trkpt lat="47.14944" lon="4.92309">
        <ele>344.9</ele>
        <time>2024-06-29T07:19:02Z</time>
      </trkpt>
      <trkpt lat="47.14945" lon="4.92309">
        <ele>343.5</ele>
        <time>2024-06-29T07:19:03Z</time>
      </trkpt>
      <trkpt lat="47.14947" lon="4.92308">
        <ele>343.6</ele>
        <time>2024-06-29T07:19:04Z</time>
      </trkpt>
      <trkpt lat="47.14948" lon="4.92308">
        <ele>343.6</ele>
        <time>2024-06-29T07:19:05Z</time>
      </trkpt>
      <trkpt lat="47.14949" lon="4.92308">
        <ele>344.1</ele>
        <time>2024-06-29T07:19:06Z</time>
      </trkpt>
      <trkpt lat="47.1495" lon="4.92308">
        <ele>344</ele>
        <time>2024-06-29T07:19:07Z</time>
      </trkpt>
      <trkpt lat="47.14951" lon="4.92306">
        <ele>341.7</ele>
        <time>2024-06-29T07:19:09Z</time>
      </trkpt>
      <trkpt lat="47.14952" lon="4.92305">
        <ele>338.2</ele>
        <time>2024-06-29T07:19:10Z</time>
      </trkpt>
      <trkpt lat="47.14953" lon="4.92304">
        <ele>337.8</ele>
        <time>2024-06-29T07:19:11Z</time>
      </trkpt>
      <trkpt lat="47.14954" lon="4.92302">
        <ele>340</ele>
        <time>2024-06-29T07:19:13Z</time>
      </trkpt>
      <trkpt lat="47.14955" lon="4.92302">
        <ele>340.8</ele>
        <time>2024-06-29T07:19:15Z</time>
      </trkpt>
      <trkpt lat="47.14957" lon="4.92302">
        <ele>340.2</ele>
        <time>2024-06-29T07:19:17Z</time>
      </trkpt>
      <trkpt lat="47.14958" lon="4.92301">
        <ele>341.4</ele>
        <time>2024-06-29T07:19:18Z</time>
      </trkpt>
      <trkpt lat="47.14959" lon="4.92301">
        <ele>342</ele>
        <time>2024-06-29T07:19:19Z</time>
      </trkpt>
      <trkpt lat="47.14961" lon="4.92301">
        <ele>340.9</ele>
        <time>2024-06-29T07:19:20Z</time>
      </trkpt>
      <trkpt lat="47.14962" lon="4.92299">
        <ele>340.4</ele>
        <time>2024-06-29T07:19:21Z</time>
      </trkpt>
      <trkpt lat="47.14963" lon="4.92298">
        <ele>339.7</ele>
        <time>2024-06-29T07:19:22Z</time>
      </trkpt>
      <trkpt lat="47.14964" lon="4.92297">
        <ele>340</ele>
        <time>2024-06-29T07:19:23Z</time>
      </trkpt>
      <trkpt lat="47.14965" lon="4.92295">
        <ele>338</ele>
        <time>2024-06-29T07:19:24Z</time>
      </trkpt>
      <trkpt lat="47.14966" lon="4.92295">
        <ele>337.9</ele>
        <time>2024-06-29T07:19:25Z</time>
      </trkpt>
      <trkpt lat="47.14968" lon="4.92294">
        <ele>335.9</ele>
        <time>2024-06-29T07:19:26Z</time>
      </trkpt>
      <trkpt lat="47.14969" lon="4.92293">
        <ele>336.9</ele>
        <time>2024-06-29T07:19:27Z</time>
      </trkpt>
      <trkpt lat="47.1497" lon="4.9229">
        <ele>334.3</ele>
        <time>2024-06-29T07:19:28Z</time>
      </trkpt>
      <trkpt lat="47.14971" lon="4.92289">
        <ele>333.8</ele>
        <time>2024-06-29T07:19:29Z</time>
      </trkpt>
      <trkpt lat="47.14971" lon="4.92287">
        <ele>333.1</ele>
        <time>2024-06-29T07:19:30Z</time>
      </trkpt>
      <trkpt lat="47.14973" lon="4.92287">
        <ele>334.3</ele>
        <time>2024-06-29T07:19:32Z</time>
      </trkpt>
      <trkpt lat="47.14974" lon="4.92287">
        <ele>332</ele>
        <time>2024-06-29T07:19:34Z</time>
      </trkpt>
      <trkpt lat="47.14976" lon="4.92288">
        <ele>332.5</ele>
        <time>2024-06-29T07:19:36Z</time>
      </trkpt>
      <trkpt lat="47.14977" lon="4.92289">
        <ele>333.2</ele>
        <time>2024-06-29T07:19:37Z</time>
      </trkpt>
      <trkpt lat="47.14978" lon="4.9229">
        <ele>333.2</ele>
        <time>2024-06-29T07:19:38Z</time>
      </trkpt>
      <trkpt lat="47.14979" lon="4.92291">
        <ele>333.8</ele>
        <time>2024-06-29T07:19:39Z</time>
      </trkpt>
      <trkpt lat="47.14979" lon="4.92293">
        <ele>335.8</ele>
        <time>2024-06-29T07:19:40Z</time>
      </trkpt>
      <trkpt lat="47.1498" lon="4.92294">
        <ele>337.4</ele>
        <time>2024-06-29T07:19:41Z</time>
      </trkpt>
      <trkpt lat="47.14981" lon="4.92296">
        <ele>339.8</ele>
        <time>2024-06-29T07:19:42Z</time>
      </trkpt>
      <trkpt lat="47.14981" lon="4.92297">
        <ele>339.4</ele>
        <time>2024-06-29T07:19:43Z</time>
      </trkpt>
      <trkpt lat="47.14982" lon="4.92299">
        <ele>339.5</ele>
        <time>2024-06-29T07:19:44Z</time>
      </trkpt>
      <trkpt lat="47.14983" lon="4.923">
        <ele>340</ele>
        <time>2024-06-29T07:19:45Z</time>
      </trkpt>
      <trkpt lat="47.14983" lon="4.92301">
        <ele>342.3</ele>
        <time>2024-06-29T07:19:47Z</time>
      </trkpt>
      <trkpt lat="47.14985" lon="4.92299">
        <ele>341.7</ele>
        <time>2024-06-29T07:19:48Z</time>
      </trkpt>
      <trkpt lat="47.14987" lon="4.92295">
        <ele>342.3</ele>
        <time>2024-06-29T07:19:49Z</time>
      </trkpt>
      <trkpt lat="47.14988" lon="4.92293">
        <ele>342.6</ele>
        <time>2024-06-29T07:19:50Z</time>
      </trkpt>
      <trkpt lat="47.14989" lon="4.92293">
        <ele>344.2</ele>
        <time>2024-06-29T07:19:52Z</time>
      </trkpt>
      <trkpt lat="47.1499" lon="4.92293">
        <ele>341.2</ele>
        <time>2024-06-29T07:19:54Z</time>
      </trkpt>
      <trkpt lat="47.14991" lon="4.92295">
        <ele>340.6</ele>
        <time>2024-06-29T07:19:56Z</time>
      </trkpt>
      <trkpt lat="47.14992" lon="4.92296">
        <ele>339.5</ele>
        <time>2024-06-29T07:19:57Z</time>
      </trkpt>
      <trkpt lat="47.14992" lon="4.92298">
        <ele>340.3</ele>
        <time>2024-06-29T07:19:58Z</time>
      </trkpt>
      <trkpt lat="47.14992" lon="4.923">
        <ele>343</ele>
        <time>2024-06-29T07:19:59Z</time>
      </trkpt>
      <trkpt lat="47.14993" lon="4.92301">
        <ele>341.4</ele>
        <time>2024-06-29T07:20:00Z</time>
      </trkpt>
      <trkpt lat="47.14994" lon="4.92302">
        <ele>342.9</ele>
        <time>2024-06-29T07:20:01Z</time>
      </trkpt>
      <trkpt lat="47.14996" lon="4.92303">
        <ele>343.3</ele>
        <time>2024-06-29T07:20:03Z</time>
      </trkpt>
      <trkpt lat="47.14997" lon="4.92304">
        <ele>342.2</ele>
        <time>2024-06-29T07:20:05Z</time>
      </trkpt>
      <trkpt lat="47.14998" lon="4.92305">
        <ele>344.5</ele>
        <time>2024-06-29T07:20:07Z</time>
      </trkpt>
      <trkpt lat="47.14999" lon="4.92307">
        <ele>347.6</ele>
        <time>2024-06-29T07:20:09Z</time>
      </trkpt>
      <trkpt lat="47.15001" lon="4.92307">
        <ele>347.9</ele>
        <time>2024-06-29T07:20:11Z</time>
      </trkpt>
      <trkpt lat="47.15002" lon="4.92308">
        <ele>346.6</ele>
        <time>2024-06-29T07:20:13Z</time>
      </trkpt>
      <trkpt lat="47.15003" lon="4.92309">
        <ele>345.1</ele>
        <time>2024-06-29T07:20:15Z</time>
      </trkpt>
      <trkpt lat="47.15004" lon="4.92308">
        <ele>347</ele>
        <time>2024-06-29T07:20:19Z</time>
      </trkpt>
      <trkpt lat="47.15004" lon="4.92306">
        <ele>347.8</ele>
        <time>2024-06-29T07:20:20Z</time>
      </trkpt>
      <trkpt lat="47.15005" lon="4.92305">
        <ele>348.3</ele>
        <time>2024-06-29T07:20:21Z</time>
      </trkpt>
      <trkpt lat="47.15005" lon="4.92303">
        <ele>348.8</ele>
        <time>2024-06-29T07:20:22Z</time>
      </trkpt>
      <trkpt lat="47.15006" lon="4.92302">
        <ele>348.2</ele>
        <time>2024-06-29T07:20:23Z</time>
      </trkpt>
      <trkpt lat="47.15006" lon="4.92301">
        <ele>347.9</ele>
        <time>2024-06-29T07:20:25Z</time>
      </trkpt>
      <trkpt lat="47.15007" lon="4.92301">
        <ele>349</ele>
        <time>2024-06-29T07:20:26Z</time>
      </trkpt>
      <trkpt lat="47.15009" lon="4.92302">
        <ele>352.6</ele>
        <time>2024-06-29T07:20:28Z</time>
      </trkpt>
      <trkpt lat="47.1501" lon="4.92302">
        <ele>352.8</ele>
        <time>2024-06-29T07:20:29Z</time>
      </trkpt>
      <trkpt lat="47.1501" lon="4.92304">
        <ele>352.8</ele>
        <time>2024-06-29T07:20:30Z</time>
      </trkpt>
      <trkpt lat="47.15011" lon="4.92305">
        <ele>353.5</ele>
        <time>2024-06-29T07:20:31Z</time>
      </trkpt>
      <trkpt lat="47.15012" lon="4.92306">
        <ele>354.3</ele>
        <time>2024-06-29T07:20:33Z</time>
      </trkpt>
      <trkpt lat="47.15013" lon="4.92304">
        <ele>350.7</ele>
        <time>2024-06-29T07:20:36Z</time>
      </trkpt>
      <trkpt lat="47.15014" lon="4.92302">
        <ele>352.1</ele>
        <time>2024-06-29T07:20:37Z</time>
      </trkpt>
      <trkpt lat="47.15014" lon="4.92301">
        <ele>352.8</ele>
        <time>2024-06-29T07:20:38Z</time>
      </trkpt>
      <trkpt lat="47.15014" lon="4.92298">
        <ele>353.7</ele>
        <time>2024-06-29T07:20:40Z</time>
      </trkpt>
      <trkpt lat="47.15014" lon="4.92296">
        <ele>355</ele>
        <time>2024-06-29T07:20:41Z</time>
      </trkpt>
      <trkpt lat="47.15014" lon="4.92295">
        <ele>353.9</ele>
        <time>2024-06-29T07:20:42Z</time>
      </trkpt>
      <trkpt lat="47.15015" lon="4.92293">
        <ele>354.1</ele>
        <time>2024-06-29T07:20:44Z</time>
      </trkpt>
      <trkpt lat="47.15016" lon="4.92292">
        <ele>354.9</ele>
        <time>2024-06-29T07:20:46Z</time>
      </trkpt>
      <trkpt lat="47.15018" lon="4.92291">
        <ele>355.8</ele>
        <time>2024-06-29T07:20:48Z</time>
      </trkpt>
      <trkpt lat="47.15018" lon="4.92291">
        <ele>356.1</ele>
        <time>2024-06-29T07:20:49Z</time>
      </trkpt>
      <trkpt lat="47.1502" lon="4.9229">
        <ele>356.7</ele>
        <time>2024-06-29T07:20:50Z</time>
      </trkpt>
      <trkpt lat="47.15021" lon="4.92289">
        <ele>358.8</ele>
        <time>2024-06-29T07:20:51Z</time>
      </trkpt>
      <trkpt lat="47.15022" lon="4.92289">
        <ele>359.5</ele>
        <time>2024-06-29T07:20:52Z</time>
      </trkpt>
      <trkpt lat="47.15023" lon="4.92287">
        <ele>357.4</ele>
        <time>2024-06-29T07:20:54Z</time>
      </trkpt>
      <trkpt lat="47.15024" lon="4.92286">
        <ele>357.4</ele>
        <time>2024-06-29T07:20:55Z</time>
      </trkpt>
      <trkpt lat="47.15025" lon="4.92285">
        <ele>357.6</ele>
        <time>2024-06-29T07:20:56Z</time>
      </trkpt>
      <trkpt lat="47.15026" lon="4.92283">
        <ele>358.5</ele>
        <time>2024-06-29T07:20:58Z</time>
      </trkpt>
      <trkpt lat="47.15027" lon="4.92281">
        <ele>358</ele>
        <time>2024-06-29T07:20:59Z</time>
      </trkpt>
      <trkpt lat="47.15027" lon="4.9228">
        <ele>358.1</ele>
        <time>2024-06-29T07:21:00Z</time>
      </trkpt>
      <trkpt lat="47.15027" lon="4.92278">
        <ele>356.9</ele>
        <time>2024-06-29T07:21:01Z</time>
      </trkpt>
      <trkpt lat="47.15027" lon="4.92276">
        <ele>357.2</ele>
        <time>2024-06-29T07:21:02Z</time>
      </trkpt>
      <trkpt lat="47.15027" lon="4.92275">
        <ele>356.8</ele>
        <time>2024-06-29T07:21:04Z</time>
      </trkpt>
      <trkpt lat="47.15028" lon="4.92274">
        <ele>356.3</ele>
        <time>2024-06-29T07:21:06Z</time>
      </trkpt>
      <trkpt lat="47.15029" lon="4.92272">
        <ele>355.4</ele>
        <time>2024-06-29T07:21:08Z</time>
      </trkpt>
      <trkpt lat="47.1503" lon="4.92272">
        <ele>357.7</ele>
        <time>2024-06-29T07:21:11Z</time>
      </trkpt>
      <trkpt lat="47.15031" lon="4.92272">
        <ele>357.1</ele>
        <time>2024-06-29T07:21:14Z</time>
      </trkpt>
      <trkpt lat="47.1503" lon="4.92274">
        <ele>357.3</ele>
        <time>2024-06-29T07:21:17Z</time>
      </trkpt>
      <trkpt lat="47.1503" lon="4.92275">
        <ele>357.4</ele>
        <time>2024-06-29T07:21:22Z</time>
      </trkpt>
      <trkpt lat="47.15031" lon="4.92277">
        <ele>360.6</ele>
        <time>2024-06-29T07:21:35Z</time>
      </trkpt>
      <trkpt lat="47.1503" lon="4.92278">
        <ele>360</ele>
        <time>2024-06-29T07:21:41Z</time>
      </trkpt>
      <trkpt lat="47.1503" lon="4.92279">
        <ele>360.2</ele>
        <time>2024-06-29T07:21:45Z</time>
      </trkpt>
      <trkpt lat="47.15031" lon="4.9228">
        <ele>360.6</ele>
        <time>2024-06-29T07:21:47Z</time>
      </trkpt>
      <trkpt lat="47.15032" lon="4.92281">
        <ele>360</ele>
        <time>2024-06-29T07:21:49Z</time>
      </trkpt>
      <trkpt lat="47.15033" lon="4.92282">
        <ele>359.4</ele>
        <time>2024-06-29T07:21:51Z</time>
      </trkpt>
      <trkpt lat="47.15033" lon="4.92283">
        <ele>360.3</ele>
        <time>2024-06-29T07:21:53Z</time>
      </trkpt>
      <trkpt lat="47.15034" lon="4.92284">
        <ele>359.8</ele>
        <time>2024-06-29T07:21:55Z</time>
      </trkpt>
      <trkpt lat="47.15036" lon="4.92285">
        <ele>359.9</ele>
        <time>2024-06-29T07:21:57Z</time>
      </trkpt>
      <trkpt lat="47.15037" lon="4.92285">
        <ele>361.4</ele>
        <time>2024-06-29T07:21:59Z</time>
      </trkpt>
      <trkpt lat="47.15038" lon="4.92286">
        <ele>361.7</ele>
        <time>2024-06-29T07:22:03Z</time>
      </trkpt>
      <trkpt lat="47.15039" lon="4.92287">
        <ele>361.7</ele>
        <time>2024-06-29T07:22:05Z</time>
      </trkpt>
      <trkpt lat="47.1504" lon="4.92287">
        <ele>362.4</ele>
        <time>2024-06-29T07:22:07Z</time>
      </trkpt>
      <trkpt lat="47.15041" lon="4.92287">
        <ele>364.3</ele>
        <time>2024-06-29T07:22:09Z</time>
      </trkpt>
      <trkpt lat="47.15042" lon="4.92286">
        <ele>364.8</ele>
        <time>2024-06-29T07:22:10Z</time>
      </trkpt>
      <trkpt lat="47.15043" lon="4.92285">
        <ele>364.7</ele>
        <time>2024-06-29T07:22:11Z</time>
      </trkpt>
      <trkpt lat="47.15044" lon="4.92284">
        <ele>366.2</ele>
        <time>2024-06-29T07:22:12Z</time>
      </trkpt>
      <trkpt lat="47.15045" lon="4.92282">
        <ele>366</ele>
        <time>2024-06-29T07:22:13Z</time>
      </trkpt>
      <trkpt lat="47.15046" lon="4.9228">
        <ele>366.8</ele>
        <time>2024-06-29T07:22:14Z</time>
      </trkpt>
      <trkpt lat="47.15046" lon="4.92278">
        <ele>366.9</ele>
        <time>2024-06-29T07:22:15Z</time>
      </trkpt>
      <trkpt lat="47.15047" lon="4.92276">
        <ele>368.7</ele>
        <time>2024-06-29T07:22:17Z</time>
      </trkpt>
      <trkpt lat="47.15048" lon="4.92274">
        <ele>367.1</ele>
        <time>2024-06-29T07:22:19Z</time>
      </trkpt>
      <trkpt lat="47.15048" lon="4.92272">
        <ele>368</ele>
        <time>2024-06-29T07:22:21Z</time>
      </trkpt>
      <trkpt lat="47.15048" lon="4.92271">
        <ele>367.1</ele>
        <time>2024-06-29T07:22:23Z</time>
      </trkpt>
      <trkpt lat="47.15048" lon="4.9227">
        <ele>368.1</ele>
        <time>2024-06-29T07:22:27Z</time>
      </trkpt>
      <trkpt lat="47.15048" lon="4.92268">
        <ele>368.3</ele>
        <time>2024-06-29T07:22:29Z</time>
      </trkpt>
      <trkpt lat="47.15048" lon="4.92267">
        <ele>369.1</ele>
        <time>2024-06-29T07:22:31Z</time>
      </trkpt>
      <trkpt lat="47.15048" lon="4.92264">
        <ele>369.5</ele>
        <time>2024-06-29T07:22:34Z</time>
      </trkpt>
      <trkpt lat="47.15048" lon="4.92262">
        <ele>369.6</ele>
        <time>2024-06-29T07:22:37Z</time>
      </trkpt>
      <trkpt lat="47.15048" lon="4.9226">
        <ele>368.7</ele>
        <time>2024-06-29T07:22:39Z</time>
      </trkpt>
      <trkpt lat="47.15049" lon="4.92259">
        <ele>369.2</ele>
        <time>2024-06-29T07:22:41Z</time>
      </trkpt>
      <trkpt lat="47.1505" lon="4.92257">
        <ele>369.7</ele>
        <time>2024-06-29T07:22:43Z</time>
      </trkpt>
      <trkpt lat="47.15051" lon="4.92255">
        <ele>370.4</ele>
        <time>2024-06-29T07:22:45Z</time>
      </trkpt>
      <trkpt lat="47.15051" lon="4.92253">
        <ele>370.3</ele>
        <time>2024-06-29T07:22:47Z</time>
      </trkpt>
      <trkpt lat="47.15051" lon="4.92251">
        <ele>370.1</ele>
        <time>2024-06-29T07:22:49Z</time>
      </trkpt>
      <trkpt lat="47.15051" lon="4.92249">
        <ele>370</ele>
        <time>2024-06-29T07:22:51Z</time>
      </trkpt>
      <trkpt lat="47.15052" lon="4.92247">
        <ele>369.8</ele>
        <time>2024-06-29T07:22:53Z</time>
      </trkpt>
      <trkpt lat="47.15052" lon="4.92245">
        <ele>370.4</ele>
        <time>2024-06-29T07:22:55Z</time>
      </trkpt>
      <trkpt lat="47.15053" lon="4.92244">
        <ele>369.9</ele>
        <time>2024-06-29T07:22:56Z</time>
      </trkpt>
      <trkpt lat="47.15053" lon="4.92243">
        <ele>369.9</ele>
        <time>2024-06-29T07:22:57Z</time>
      </trkpt>
      <trkpt lat="47.15054" lon="4.92242">
        <ele>369.7</ele>
        <time>2024-06-29T07:22:58Z</time>
      </trkpt>
      <trkpt lat="47.15054" lon="4.9224">
        <ele>370.1</ele>
        <time>2024-06-29T07:22:59Z</time>
      </trkpt>
      <trkpt lat="47.15055" lon="4.92239">
        <ele>369.8</ele>
        <time>2024-06-29T07:23:00Z</time>
      </trkpt>
      <trkpt lat="47.15056" lon="4.92238">
        <ele>370.5</ele>
        <time>2024-06-29T07:23:02Z</time>
      </trkpt>
      <trkpt lat="47.15056" lon="4.92235">
        <ele>370.3</ele>
        <time>2024-06-29T07:23:04Z</time>
      </trkpt>
      <trkpt lat="47.15057" lon="4.92234">
        <ele>370</ele>
        <time>2024-06-29T07:23:05Z</time>
      </trkpt>
      <trkpt lat="47.15057" lon="4.92232">
        <ele>369</ele>
        <time>2024-06-29T07:23:07Z</time>
      </trkpt>
      <trkpt lat="47.15057" lon="4.9223">
        <ele>369.4</ele>
        <time>2024-06-29T07:23:09Z</time>
      </trkpt>
      <trkpt lat="47.15058" lon="4.92228">
        <ele>370.8</ele>
        <time>2024-06-29T07:23:11Z</time>
      </trkpt>
      <trkpt lat="47.15059" lon="4.92227">
        <ele>368.9</ele>
        <time>2024-06-29T07:23:13Z</time>
      </trkpt>
      <trkpt lat="47.1506" lon="4.92225">
        <ele>369.1</ele>
        <time>2024-06-29T07:23:15Z</time>
      </trkpt>
      <trkpt lat="47.15061" lon="4.92224">
        <ele>370.6</ele>
        <time>2024-06-29T07:23:17Z</time>
      </trkpt>
      <trkpt lat="47.15061" lon="4.92222">
        <ele>368.1</ele>
        <time>2024-06-29T07:23:18Z</time>
      </trkpt>
      <trkpt lat="47.15061" lon="4.9222">
        <ele>367.4</ele>
        <time>2024-06-29T07:23:20Z</time>
      </trkpt>
      <trkpt lat="47.15061" lon="4.92218">
        <ele>367.7</ele>
        <time>2024-06-29T07:23:21Z</time>
      </trkpt>
      <trkpt lat="47.15061" lon="4.92216">
        <ele>363.9</ele>
        <time>2024-06-29T07:23:22Z</time>
      </trkpt>
      <trkpt lat="47.15061" lon="4.92215">
        <ele>363.7</ele>
        <time>2024-06-29T07:23:23Z</time>
      </trkpt>
      <trkpt lat="47.15062" lon="4.92214">
        <ele>362.1</ele>
        <time>2024-06-29T07:23:25Z</time>
      </trkpt>
      <trkpt lat="47.15064" lon="4.92213">
        <ele>359.4</ele>
        <time>2024-06-29T07:23:27Z</time>
      </trkpt>
      <trkpt lat="47.15065" lon="4.92211">
        <ele>360.6</ele>
        <time>2024-06-29T07:23:28Z</time>
      </trkpt>
      <trkpt lat="47.15066" lon="4.9221">
        <ele>362.4</ele>
        <time>2024-06-29T07:23:30Z</time>
      </trkpt>
      <trkpt lat="47.15066" lon="4.92209">
        <ele>363.3</ele>
        <time>2024-06-29T07:23:31Z</time>
      </trkpt>
      <trkpt lat="47.15067" lon="4.92208">
        <ele>363.1</ele>
        <time>2024-06-29T07:23:32Z</time>
      </trkpt>
      <trkpt lat="47.15069" lon="4.92207">
        <ele>363.7</ele>
        <time>2024-06-29T07:23:33Z</time>
      </trkpt>
      <trkpt lat="47.15069" lon="4.92206">
        <ele>362.7</ele>
        <time>2024-06-29T07:23:34Z</time>
      </trkpt>
      <trkpt lat="47.1507" lon="4.92205">
        <ele>363.6</ele>
        <time>2024-06-29T07:23:35Z</time>
      </trkpt>
      <trkpt lat="47.15071" lon="4.92204">
        <ele>363.1</ele>
        <time>2024-06-29T07:23:36Z</time>
      </trkpt>
      <trkpt lat="47.15073" lon="4.92203">
        <ele>363.6</ele>
        <time>2024-06-29T07:23:37Z</time>
      </trkpt>
      <trkpt lat="47.15075" lon="4.92202">
        <ele>364.3</ele>
        <time>2024-06-29T07:23:38Z</time>
      </trkpt>
      <trkpt lat="47.15076" lon="4.92201">
        <ele>363.7</ele>
        <time>2024-06-29T07:23:39Z</time>
      </trkpt>
      <trkpt lat="47.15078" lon="4.922">
        <ele>363.3</ele>
        <time>2024-06-29T07:23:40Z</time>
      </trkpt>
      <trkpt lat="47.1508" lon="4.92198">
        <ele>363.2</ele>
        <time>2024-06-29T07:23:41Z</time>
      </trkpt>
      <trkpt lat="47.15081" lon="4.92197">
        <ele>363.9</ele>
        <time>2024-06-29T07:23:42Z</time>
      </trkpt>
      <trkpt lat="47.15082" lon="4.92196">
        <ele>364.6</ele>
        <time>2024-06-29T07:23:43Z</time>
      </trkpt>
      <trkpt lat="47.15082" lon="4.92194">
        <ele>364.9</ele>
        <time>2024-06-29T07:23:44Z</time>
      </trkpt>
      <trkpt lat="47.15082" lon="4.92193">
        <ele>365.2</ele>
        <time>2024-06-29T07:23:45Z</time>
      </trkpt>
      <trkpt lat="47.15083" lon="4.92192">
        <ele>365</ele>
        <time>2024-06-29T07:23:46Z</time>
      </trkpt>
      <trkpt lat="47.15082" lon="4.9219">
        <ele>362.1</ele>
        <time>2024-06-29T07:23:47Z</time>
      </trkpt>
      <trkpt lat="47.15083" lon="4.92189">
        <ele>361.9</ele>
        <time>2024-06-29T07:23:49Z</time>
      </trkpt>
      <trkpt lat="47.15084" lon="4.92189">
        <ele>362.5</ele>
        <time>2024-06-29T07:23:50Z</time>
      </trkpt>
      <trkpt lat="47.15085" lon="4.92189">
        <ele>361.8</ele>
        <time>2024-06-29T07:23:51Z</time>
      </trkpt>
      <trkpt lat="47.15086" lon="4.92189">
        <ele>360.4</ele>
        <time>2024-06-29T07:23:52Z</time>
      </trkpt>
      <trkpt lat="47.15088" lon="4.92187">
        <ele>359.4</ele>
        <time>2024-06-29T07:23:53Z</time>
      </trkpt>
      <trkpt lat="47.15089" lon="4.92186">
        <ele>359.4</ele>
        <time>2024-06-29T07:23:54Z</time>
      </trkpt>
      <trkpt lat="47.15091" lon="4.92184">
        <ele>359.1</ele>
        <time>2024-06-29T07:23:55Z</time>
      </trkpt>
      <trkpt lat="47.15091" lon="4.92182">
        <ele>359.9</ele>
        <time>2024-06-29T07:23:56Z</time>
      </trkpt>
      <trkpt lat="47.15093" lon="4.92182">
        <ele>364.3</ele>
        <time>2024-06-29T07:23:57Z</time>
      </trkpt>
      <trkpt lat="47.15094" lon="4.92181">
        <ele>365.6</ele>
        <time>2024-06-29T07:23:59Z</time>
      </trkpt>
      <trkpt lat="47.15096" lon="4.9218">
        <ele>365.5</ele>
        <time>2024-06-29T07:24:00Z</time>
      </trkpt>
      <trkpt lat="47.15096" lon="4.92179">
        <ele>368.1</ele>
        <time>2024-06-29T07:24:01Z</time>
      </trkpt>
      <trkpt lat="47.15097" lon="4.92177">
        <ele>369</ele>
        <time>2024-06-29T07:24:02Z</time>
      </trkpt>
      <trkpt lat="47.15098" lon="4.92176">
        <ele>368.6</ele>
        <time>2024-06-29T07:24:03Z</time>
      </trkpt>
      <trkpt lat="47.15099" lon="4.92176">
        <ele>369.2</ele>
        <time>2024-06-29T07:24:05Z</time>
      </trkpt>
      <trkpt lat="47.15101" lon="4.92175">
        <ele>371.1</ele>
        <time>2024-06-29T07:24:07Z</time>
      </trkpt>
      <trkpt lat="47.15102" lon="4.92176">
        <ele>370.8</ele>
        <time>2024-06-29T07:24:09Z</time>
      </trkpt>
      <trkpt lat="47.15104" lon="4.92176">
        <ele>366.7</ele>
        <time>2024-06-29T07:24:14Z</time>
      </trkpt>
      <trkpt lat="47.15105" lon="4.92177">
        <ele>364.6</ele>
        <time>2024-06-29T07:24:15Z</time>
      </trkpt>
      <trkpt lat="47.15105" lon="4.92178">
        <ele>364.7</ele>
        <time>2024-06-29T07:24:16Z</time>
      </trkpt>
      <trkpt lat="47.15107" lon="4.92178">
        <ele>364.5</ele>
        <time>2024-06-29T07:24:18Z</time>
      </trkpt>
      <trkpt lat="47.15108" lon="4.92178">
        <ele>363.7</ele>
        <time>2024-06-29T07:24:19Z</time>
      </trkpt>
      <trkpt lat="47.15108" lon="4.92176">
        <ele>363.6</ele>
        <time>2024-06-29T07:24:20Z</time>
      </trkpt>
      <trkpt lat="47.15109" lon="4.92175">
        <ele>364.8</ele>
        <time>2024-06-29T07:24:21Z</time>
      </trkpt>
      <trkpt lat="47.1511" lon="4.92175">
        <ele>367</ele>
        <time>2024-06-29T07:24:24Z</time>
      </trkpt>
      <trkpt lat="47.15111" lon="4.92175">
        <ele>368.5</ele>
        <time>2024-06-29T07:24:27Z</time>
      </trkpt>
      <trkpt lat="47.15113" lon="4.92175">
        <ele>369.3</ele>
        <time>2024-06-29T07:24:28Z</time>
      </trkpt>
      <trkpt lat="47.15114" lon="4.92176">
        <ele>369.1</ele>
        <time>2024-06-29T07:24:29Z</time>
      </trkpt>
      <trkpt lat="47.15115" lon="4.92177">
        <ele>369.5</ele>
        <time>2024-06-29T07:24:30Z</time>
      </trkpt>
      <trkpt lat="47.15116" lon="4.92178">
        <ele>369.1</ele>
        <time>2024-06-29T07:24:31Z</time>
      </trkpt>
      <trkpt lat="47.15117" lon="4.92178">
        <ele>370</ele>
        <time>2024-06-29T07:24:32Z</time>
      </trkpt>
      <trkpt lat="47.15118" lon="4.92178">
        <ele>368.6</ele>
        <time>2024-06-29T07:24:33Z</time>
      </trkpt>
      <trkpt lat="47.15119" lon="4.92178">
        <ele>368</ele>
        <time>2024-06-29T07:24:34Z</time>
      </trkpt>
      <trkpt lat="47.15121" lon="4.92179">
        <ele>367.6</ele>
        <time>2024-06-29T07:24:36Z</time>
      </trkpt>
      <trkpt lat="47.15122" lon="4.92179">
        <ele>368.6</ele>
        <time>2024-06-29T07:24:39Z</time>
      </trkpt>
      <trkpt lat="47.15123" lon="4.92179">
        <ele>369.1</ele>
        <time>2024-06-29T07:24:41Z</time>
      </trkpt>
      <trkpt lat="47.15124" lon="4.9218">
        <ele>367</ele>
        <time>2024-06-29T07:24:43Z</time>
      </trkpt>
      <trkpt lat="47.15125" lon="4.92179">
        <ele>368.8</ele>
        <time>2024-06-29T07:24:44Z</time>
      </trkpt>
      <trkpt lat="47.15126" lon="4.92178">
        <ele>368.8</ele>
        <time>2024-06-29T07:24:46Z</time>
      </trkpt>
      <trkpt lat="47.15128" lon="4.92178">
        <ele>370.2</ele>
        <time>2024-06-29T07:24:48Z</time>
      </trkpt>
      <trkpt lat="47.15129" lon="4.92178">
        <ele>369.8</ele>
        <time>2024-06-29T07:24:49Z</time>
      </trkpt>
      <trkpt lat="47.1513" lon="4.92178">
        <ele>370.1</ele>
        <time>2024-06-29T07:24:50Z</time>
      </trkpt>
      <trkpt lat="47.15131" lon="4.92179">
        <ele>370.2</ele>
        <time>2024-06-29T07:24:51Z</time>
      </trkpt>
      <trkpt lat="47.15133" lon="4.92179">
        <ele>371.2</ele>
        <time>2024-06-29T07:24:52Z</time>
      </trkpt>
      <trkpt lat="47.15134" lon="4.92179">
        <ele>371.1</ele>
        <time>2024-06-29T07:24:53Z</time>
      </trkpt>
      <trkpt lat="47.15135" lon="4.92178">
        <ele>371.2</ele>
        <time>2024-06-29T07:24:55Z</time>
      </trkpt>
      <trkpt lat="47.15136" lon="4.92177">
        <ele>371.5</ele>
        <time>2024-06-29T07:24:57Z</time>
      </trkpt>
      <trkpt lat="47.15137" lon="4.92175">
        <ele>371.3</ele>
        <time>2024-06-29T07:24:59Z</time>
      </trkpt>
      <trkpt lat="47.15138" lon="4.92174">
        <ele>370.2</ele>
        <time>2024-06-29T07:25:00Z</time>
      </trkpt>
      <trkpt lat="47.15139" lon="4.92172">
        <ele>370.4</ele>
        <time>2024-06-29T07:25:01Z</time>
      </trkpt>
      <trkpt lat="47.1514" lon="4.92171">
        <ele>370.2</ele>
        <time>2024-06-29T07:25:02Z</time>
      </trkpt>
      <trkpt lat="47.15141" lon="4.9217">
        <ele>369.2</ele>
        <time>2024-06-29T07:25:03Z</time>
      </trkpt>
      <trkpt lat="47.15142" lon="4.92169">
        <ele>368.8</ele>
        <time>2024-06-29T07:25:04Z</time>
      </trkpt>
      <trkpt lat="47.15143" lon="4.92168">
        <ele>369</ele>
        <time>2024-06-29T07:25:05Z</time>
      </trkpt>
      <trkpt lat="47.15144" lon="4.92167">
        <ele>365.8</ele>
        <time>2024-06-29T07:25:07Z</time>
      </trkpt>
      <trkpt lat="47.15145" lon="4.92167">
        <ele>364.6</ele>
        <time>2024-06-29T07:25:09Z</time>
      </trkpt>
      <trkpt lat="47.15146" lon="4.92166">
        <ele>365.4</ele>
        <time>2024-06-29T07:25:11Z</time>
      </trkpt>
      <trkpt lat="47.15147" lon="4.92164">
        <ele>366</ele>
        <time>2024-06-29T07:25:13Z</time>
      </trkpt>
      <trkpt lat="47.15148" lon="4.92164">
        <ele>366.1</ele>
        <time>2024-06-29T07:25:14Z</time>
      </trkpt>
      <trkpt lat="47.15149" lon="4.92164">
        <ele>372.6</ele>
        <time>2024-06-29T07:25:16Z</time>
      </trkpt>
      <trkpt lat="47.15151" lon="4.92165">
        <ele>372.4</ele>
        <time>2024-06-29T07:25:18Z</time>
      </trkpt>
      <trkpt lat="47.15152" lon="4.92166">
        <ele>372.5</ele>
        <time>2024-06-29T07:25:19Z</time>
      </trkpt>
      <trkpt lat="47.15153" lon="4.92166">
        <ele>372.4</ele>
        <time>2024-06-29T07:25:20Z</time>
      </trkpt>
      <trkpt lat="47.15155" lon="4.92167">
        <ele>373.4</ele>
        <time>2024-06-29T07:25:21Z</time>
      </trkpt>
      <trkpt lat="47.15156" lon="4.92167">
        <ele>373.6</ele>
        <time>2024-06-29T07:25:22Z</time>
      </trkpt>
      <trkpt lat="47.15157" lon="4.92166">
        <ele>373.2</ele>
        <time>2024-06-29T07:25:23Z</time>
      </trkpt>
      <trkpt lat="47.15158" lon="4.92166">
        <ele>373</ele>
        <time>2024-06-29T07:25:24Z</time>
      </trkpt>
      <trkpt lat="47.15159" lon="4.92165">
        <ele>372.7</ele>
        <time>2024-06-29T07:25:25Z</time>
      </trkpt>
      <trkpt lat="47.1516" lon="4.92165">
        <ele>372.4</ele>
        <time>2024-06-29T07:25:26Z</time>
      </trkpt>
      <trkpt lat="47.15161" lon="4.92165">
        <ele>371.6</ele>
        <time>2024-06-29T07:25:27Z</time>
      </trkpt>
      <trkpt lat="47.15163" lon="4.92166">
        <ele>372.8</ele>
        <time>2024-06-29T07:25:29Z</time>
      </trkpt>
      <trkpt lat="47.15164" lon="4.92165">
        <ele>373.1</ele>
        <time>2024-06-29T07:25:32Z</time>
      </trkpt>
      <trkpt lat="47.15165" lon="4.92164">
        <ele>369.7</ele>
        <time>2024-06-29T07:25:34Z</time>
      </trkpt>
      <trkpt lat="47.15166" lon="4.92164">
        <ele>369.1</ele>
        <time>2024-06-29T07:25:35Z</time>
      </trkpt>
      <trkpt lat="47.15167" lon="4.92163">
        <ele>369</ele>
        <time>2024-06-29T07:25:36Z</time>
      </trkpt>
      <trkpt lat="47.15168" lon="4.92162">
        <ele>372</ele>
        <time>2024-06-29T07:25:38Z</time>
      </trkpt>
      <trkpt lat="47.15169" lon="4.92161">
        <ele>373.3</ele>
        <time>2024-06-29T07:25:40Z</time>
      </trkpt>
      <trkpt lat="47.15171" lon="4.9216">
        <ele>375</ele>
        <time>2024-06-29T07:25:42Z</time>
      </trkpt>
      <trkpt lat="47.15172" lon="4.9216">
        <ele>374.8</ele>
        <time>2024-06-29T07:25:44Z</time>
      </trkpt>
      <trkpt lat="47.15174" lon="4.9216">
        <ele>375.6</ele>
        <time>2024-06-29T07:25:45Z</time>
      </trkpt>
      <trkpt lat="47.15175" lon="4.9216">
        <ele>376.3</ele>
        <time>2024-06-29T07:25:46Z</time>
      </trkpt>
      <trkpt lat="47.15176" lon="4.9216">
        <ele>376.9</ele>
        <time>2024-06-29T07:25:47Z</time>
      </trkpt>
      <trkpt lat="47.15177" lon="4.92159">
        <ele>376.8</ele>
        <time>2024-06-29T07:25:48Z</time>
      </trkpt>
      <trkpt lat="47.15178" lon="4.92159">
        <ele>376.6</ele>
        <time>2024-06-29T07:25:49Z</time>
      </trkpt>
      <trkpt lat="47.15179" lon="4.92159">
        <ele>376.6</ele>
        <time>2024-06-29T07:25:50Z</time>
      </trkpt>
      <trkpt lat="47.1518" lon="4.92158">
        <ele>377.4</ele>
        <time>2024-06-29T07:25:51Z</time>
      </trkpt>
      <trkpt lat="47.15181" lon="4.92158">
        <ele>378.1</ele>
        <time>2024-06-29T07:25:52Z</time>
      </trkpt>
      <trkpt lat="47.15183" lon="4.92157">
        <ele>378.9</ele>
        <time>2024-06-29T07:25:53Z</time>
      </trkpt>
      <trkpt lat="47.15184" lon="4.92156">
        <ele>379</ele>
        <time>2024-06-29T07:25:55Z</time>
      </trkpt>
      <trkpt lat="47.15185" lon="4.92155">
        <ele>379</ele>
        <time>2024-06-29T07:25:56Z</time>
      </trkpt>
      <trkpt lat="47.15186" lon="4.92155">
        <ele>380</ele>
        <time>2024-06-29T07:25:57Z</time>
      </trkpt>
      <trkpt lat="47.15188" lon="4.92154">
        <ele>381.1</ele>
        <time>2024-06-29T07:25:59Z</time>
      </trkpt>
      <trkpt lat="47.15189" lon="4.92155">
        <ele>380.4</ele>
        <time>2024-06-29T07:26:00Z</time>
      </trkpt>
      <trkpt lat="47.1519" lon="4.92156">
        <ele>379.4</ele>
        <time>2024-06-29T07:26:01Z</time>
      </trkpt>
      <trkpt lat="47.15192" lon="4.92157">
        <ele>380.2</ele>
        <time>2024-06-29T07:26:02Z</time>
      </trkpt>
      <trkpt lat="47.15193" lon="4.92158">
        <ele>381.1</ele>
        <time>2024-06-29T07:26:03Z</time>
      </trkpt>
      <trkpt lat="47.15194" lon="4.92158">
        <ele>380</ele>
        <time>2024-06-29T07:26:04Z</time>
      </trkpt>
      <trkpt lat="47.15195" lon="4.92158">
        <ele>380.9</ele>
        <time>2024-06-29T07:26:06Z</time>
      </trkpt>
      <trkpt lat="47.15196" lon="4.92158">
        <ele>381.2</ele>
        <time>2024-06-29T07:26:07Z</time>
      </trkpt>
      <trkpt lat="47.15198" lon="4.92158">
        <ele>379.6</ele>
        <time>2024-06-29T07:26:09Z</time>
      </trkpt>
      <trkpt lat="47.15199" lon="4.92158">
        <ele>378.5</ele>
        <time>2024-06-29T07:26:11Z</time>
      </trkpt>
      <trkpt lat="47.15201" lon="4.92158">
        <ele>375.5</ele>
        <time>2024-06-29T07:26:13Z</time>
      </trkpt>
      <trkpt lat="47.15202" lon="4.92157">
        <ele>375</ele>
        <time>2024-06-29T07:26:14Z</time>
      </trkpt>
      <trkpt lat="47.15203" lon="4.92157">
        <ele>375.2</ele>
        <time>2024-06-29T07:26:15Z</time>
      </trkpt>
      <trkpt lat="47.15204" lon="4.92156">
        <ele>374.2</ele>
        <time>2024-06-29T07:26:16Z</time>
      </trkpt>
      <trkpt lat="47.15206" lon="4.92155">
        <ele>374.2</ele>
        <time>2024-06-29T07:26:17Z</time>
      </trkpt>
      <trkpt lat="47.15206" lon="4.92154">
        <ele>373.4</ele>
        <time>2024-06-29T07:26:18Z</time>
      </trkpt>
      <trkpt lat="47.15208" lon="4.92153">
        <ele>373.9</ele>
        <time>2024-06-29T07:26:20Z</time>
      </trkpt>
      <trkpt lat="47.15209" lon="4.92153">
        <ele>374.1</ele>
        <time>2024-06-29T07:26:21Z</time>
      </trkpt>
      <trkpt lat="47.1521" lon="4.92153">
        <ele>374.4</ele>
        <time>2024-06-29T07:26:22Z</time>
      </trkpt>
      <trkpt lat="47.15211" lon="4.92152">
        <ele>374.9</ele>
        <time>2024-06-29T07:26:24Z</time>
      </trkpt>
      <trkpt lat="47.15212" lon="4.92152">
        <ele>377.5</ele>
        <time>2024-06-29T07:26:27Z</time>
      </trkpt>
      <trkpt lat="47.15214" lon="4.92151">
        <ele>377.3</ele>
        <time>2024-06-29T07:26:29Z</time>
      </trkpt>
      <trkpt lat="47.15216" lon="4.92151">
        <ele>376.1</ele>
        <time>2024-06-29T07:26:31Z</time>
      </trkpt>
      <trkpt lat="47.15217" lon="4.9215">
        <ele>375</ele>
        <time>2024-06-29T07:26:33Z</time>
      </trkpt>
      <trkpt lat="47.15218" lon="4.9215">
        <ele>375.1</ele>
        <time>2024-06-29T07:26:34Z</time>
      </trkpt>
      <trkpt lat="47.15219" lon="4.92149">
        <ele>375.3</ele>
        <time>2024-06-29T07:26:35Z</time>
      </trkpt>
      <trkpt lat="47.1522" lon="4.92149">
        <ele>375</ele>
        <time>2024-06-29T07:26:36Z</time>
      </trkpt>
      <trkpt lat="47.15222" lon="4.9215">
        <ele>375.6</ele>
        <time>2024-06-29T07:26:37Z</time>
      </trkpt>
      <trkpt lat="47.15223" lon="4.9215">
        <ele>375.3</ele>
        <time>2024-06-29T07:26:38Z</time>
      </trkpt>
      <trkpt lat="47.15224" lon="4.9215">
        <ele>374.2</ele>
        <time>2024-06-29T07:26:40Z</time>
      </trkpt>
      <trkpt lat="47.15226" lon="4.92149">
        <ele>374.4</ele>
        <time>2024-06-29T07:26:41Z</time>
      </trkpt>
      <trkpt lat="47.15227" lon="4.92149">
        <ele>374.3</ele>
        <time>2024-06-29T07:26:42Z</time>
      </trkpt>
      <trkpt lat="47.15228" lon="4.92148">
        <ele>374.7</ele>
        <time>2024-06-29T07:26:44Z</time>
      </trkpt>
      <trkpt lat="47.15229" lon="4.92147">
        <ele>375.1</ele>
        <time>2024-06-29T07:26:45Z</time>
      </trkpt>
      <trkpt lat="47.1523" lon="4.92146">
        <ele>374.3</ele>
        <time>2024-06-29T07:26:46Z</time>
      </trkpt>
      <trkpt lat="47.15231" lon="4.92145">
        <ele>376.5</ele>
        <time>2024-06-29T07:26:48Z</time>
      </trkpt>
      <trkpt lat="47.15233" lon="4.92145">
        <ele>377.2</ele>
        <time>2024-06-29T07:26:50Z</time>
      </trkpt>
      <trkpt lat="47.15234" lon="4.92145">
        <ele>377</ele>
        <time>2024-06-29T07:26:51Z</time>
      </trkpt>
      <trkpt lat="47.15235" lon="4.92144">
        <ele>377.5</ele>
        <time>2024-06-29T07:26:53Z</time>
      </trkpt>
      <trkpt lat="47.15236" lon="4.92143">
        <ele>378</ele>
        <time>2024-06-29T07:26:54Z</time>
      </trkpt>
      <trkpt lat="47.15237" lon="4.92143">
        <ele>379.9</ele>
        <time>2024-06-29T07:26:55Z</time>
      </trkpt>
      <trkpt lat="47.15238" lon="4.92142">
        <ele>380</ele>
        <time>2024-06-29T07:26:56Z</time>
      </trkpt>
      <trkpt lat="47.15239" lon="4.92142">
        <ele>379.7</ele>
        <time>2024-06-29T07:26:57Z</time>
      </trkpt>
      <trkpt lat="47.1524" lon="4.92141">
        <ele>380</ele>
        <time>2024-06-29T07:26:58Z</time>
      </trkpt>
      <trkpt lat="47.15241" lon="4.92139">
        <ele>381.1</ele>
        <time>2024-06-29T07:26:59Z</time>
      </trkpt>
      <trkpt lat="47.15243" lon="4.92138">
        <ele>381.7</ele>
        <time>2024-06-29T07:27:00Z</time>
      </trkpt>
      <trkpt lat="47.15243" lon="4.92137">
        <ele>382</ele>
        <time>2024-06-29T07:27:01Z</time>
      </trkpt>
      <trkpt lat="47.15245" lon="4.92135">
        <ele>381.7</ele>
        <time>2024-06-29T07:27:03Z</time>
      </trkpt>
      <trkpt lat="47.15246" lon="4.92133">
        <ele>382.6</ele>
        <time>2024-06-29T07:27:04Z</time>
      </trkpt>
      <trkpt lat="47.15247" lon="4.92132">
        <ele>381.8</ele>
        <time>2024-06-29T07:27:05Z</time>
      </trkpt>
      <trkpt lat="47.15248" lon="4.92131">
        <ele>381.7</ele>
        <time>2024-06-29T07:27:06Z</time>
      </trkpt>
      <trkpt lat="47.15249" lon="4.92131">
        <ele>382</ele>
        <time>2024-06-29T07:27:08Z</time>
      </trkpt>
      <trkpt lat="47.1525" lon="4.9213">
        <ele>382.2</ele>
        <time>2024-06-29T07:27:09Z</time>
      </trkpt>
      <trkpt lat="47.15252" lon="4.92129">
        <ele>380.3</ele>
        <time>2024-06-29T07:27:12Z</time>
      </trkpt>
      <trkpt lat="47.15253" lon="4.92129">
        <ele>379.8</ele>
        <time>2024-06-29T07:27:14Z</time>
      </trkpt>
      <trkpt lat="47.15255" lon="4.9213">
        <ele>379.7</ele>
        <time>2024-06-29T07:27:16Z</time>
      </trkpt>
      <trkpt lat="47.15256" lon="4.92129">
        <ele>379.5</ele>
        <time>2024-06-29T07:27:17Z</time>
      </trkpt>
      <trkpt lat="47.15257" lon="4.92129">
        <ele>379</ele>
        <time>2024-06-29T07:27:18Z</time>
      </trkpt>
      <trkpt lat="47.15258" lon="4.92129">
        <ele>378.5</ele>
        <time>2024-06-29T07:27:19Z</time>
      </trkpt>
      <trkpt lat="47.15259" lon="4.92129">
        <ele>378.3</ele>
        <time>2024-06-29T07:27:20Z</time>
      </trkpt>
      <trkpt lat="47.1526" lon="4.9213">
        <ele>377.1</ele>
        <time>2024-06-29T07:27:21Z</time>
      </trkpt>
      <trkpt lat="47.15261" lon="4.9213">
        <ele>375.4</ele>
        <time>2024-06-29T07:27:22Z</time>
      </trkpt>
      <trkpt lat="47.15263" lon="4.92131">
        <ele>374.8</ele>
        <time>2024-06-29T07:27:23Z</time>
      </trkpt>
      <trkpt lat="47.15264" lon="4.92132">
        <ele>375</ele>
        <time>2024-06-29T07:27:24Z</time>
      </trkpt>
      <trkpt lat="47.15265" lon="4.92133">
        <ele>374.6</ele>
        <time>2024-06-29T07:27:25Z</time>
      </trkpt>
      <trkpt lat="47.15266" lon="4.92133">
        <ele>374</ele>
        <time>2024-06-29T07:27:27Z</time>
      </trkpt>
      <trkpt lat="47.15268" lon="4.92132">
        <ele>375</ele>
        <time>2024-06-29T07:27:29Z</time>
      </trkpt>
      <trkpt lat="47.15269" lon="4.92132">
        <ele>375.9</ele>
        <time>2024-06-29T07:27:31Z</time>
      </trkpt>
      <trkpt lat="47.15271" lon="4.92132">
        <ele>375.3</ele>
        <time>2024-06-29T07:27:33Z</time>
      </trkpt>
      <trkpt lat="47.15272" lon="4.92131">
        <ele>374.6</ele>
        <time>2024-06-29T07:27:35Z</time>
      </trkpt>
      <trkpt lat="47.15273" lon="4.92131">
        <ele>374.5</ele>
        <time>2024-06-29T07:27:36Z</time>
      </trkpt>
      <trkpt lat="47.15275" lon="4.92131">
        <ele>373.9</ele>
        <time>2024-06-29T07:27:37Z</time>
      </trkpt>
      <trkpt lat="47.15276" lon="4.9213">
        <ele>373.3</ele>
        <time>2024-06-29T07:27:38Z</time>
      </trkpt>
      <trkpt lat="47.15277" lon="4.9213">
        <ele>372.7</ele>
        <time>2024-06-29T07:27:39Z</time>
      </trkpt>
      <trkpt lat="47.15278" lon="4.92129">
        <ele>371.7</ele>
        <time>2024-06-29T07:27:40Z</time>
      </trkpt>
      <trkpt lat="47.15279" lon="4.92129">
        <ele>371.7</ele>
        <time>2024-06-29T07:27:41Z</time>
      </trkpt>
      <trkpt lat="47.1528" lon="4.92128">
        <ele>371.8</ele>
        <time>2024-06-29T07:27:42Z</time>
      </trkpt>
      <trkpt lat="47.15281" lon="4.92128">
        <ele>370.6</ele>
        <time>2024-06-29T07:27:43Z</time>
      </trkpt>
      <trkpt lat="47.15282" lon="4.92127">
        <ele>371.8</ele>
        <time>2024-06-29T07:27:44Z</time>
      </trkpt>
      <trkpt lat="47.15283" lon="4.92128">
        <ele>371.9</ele>
        <time>2024-06-29T07:27:45Z</time>
      </trkpt>
      <trkpt lat="47.15284" lon="4.92128">
        <ele>372.1</ele>
        <time>2024-06-29T07:27:46Z</time>
      </trkpt>
      <trkpt lat="47.15286" lon="4.92128">
        <ele>372.2</ele>
        <time>2024-06-29T07:27:47Z</time>
      </trkpt>
      <trkpt lat="47.15287" lon="4.92127">
        <ele>372.6</ele>
        <time>2024-06-29T07:27:48Z</time>
      </trkpt>
      <trkpt lat="47.15288" lon="4.92126">
        <ele>372.1</ele>
        <time>2024-06-29T07:27:49Z</time>
      </trkpt>
      <trkpt lat="47.15289" lon="4.92125">
        <ele>371.9</ele>
        <time>2024-06-29T07:27:51Z</time>
      </trkpt>
      <trkpt lat="47.1529" lon="4.92125">
        <ele>378.6</ele>
        <time>2024-06-29T07:27:53Z</time>
      </trkpt>
      <trkpt lat="47.15291" lon="4.92125">
        <ele>377.8</ele>
        <time>2024-06-29T07:27:55Z</time>
      </trkpt>
      <trkpt lat="47.15292" lon="4.92125">
        <ele>377.9</ele>
        <time>2024-06-29T07:27:56Z</time>
      </trkpt>
      <trkpt lat="47.15293" lon="4.92125">
        <ele>377.6</ele>
        <time>2024-06-29T07:27:57Z</time>
      </trkpt>
      <trkpt lat="47.15294" lon="4.92125">
        <ele>376.3</ele>
        <time>2024-06-29T07:27:58Z</time>
      </trkpt>
      <trkpt lat="47.15295" lon="4.92126">
        <ele>375.3</ele>
        <time>2024-06-29T07:27:59Z</time>
      </trkpt>
      <trkpt lat="47.15296" lon="4.92126">
        <ele>374.9</ele>
        <time>2024-06-29T07:28:00Z</time>
      </trkpt>
      <trkpt lat="47.15298" lon="4.92125">
        <ele>374.8</ele>
        <time>2024-06-29T07:28:01Z</time>
      </trkpt>
      <trkpt lat="47.15299" lon="4.92125">
        <ele>374.3</ele>
        <time>2024-06-29T07:28:02Z</time>
      </trkpt>
      <trkpt lat="47.153" lon="4.92124">
        <ele>373.7</ele>
        <time>2024-06-29T07:28:03Z</time>
      </trkpt>
      <trkpt lat="47.15302" lon="4.92123">
        <ele>373.5</ele>
        <time>2024-06-29T07:28:04Z</time>
      </trkpt>
      <trkpt lat="47.15303" lon="4.92123">
        <ele>371.8</ele>
        <time>2024-06-29T07:28:05Z</time>
      </trkpt>
      <trkpt lat="47.15304" lon="4.92123">
        <ele>374.6</ele>
        <time>2024-06-29T07:28:06Z</time>
      </trkpt>
      <trkpt lat="47.15306" lon="4.92123">
        <ele>374</ele>
        <time>2024-06-29T07:28:08Z</time>
      </trkpt>
      <trkpt lat="47.15308" lon="4.92121">
        <ele>374</ele>
        <time>2024-06-29T07:28:10Z</time>
      </trkpt>
      <trkpt lat="47.15308" lon="4.9212">
        <ele>374.7</ele>
        <time>2024-06-29T07:28:11Z</time>
      </trkpt>
      <trkpt lat="47.1531" lon="4.92118">
        <ele>373.4</ele>
        <time>2024-06-29T07:28:13Z</time>
      </trkpt>
      <trkpt lat="47.15311" lon="4.92117">
        <ele>373.4</ele>
        <time>2024-06-29T07:28:14Z</time>
      </trkpt>
      <trkpt lat="47.15312" lon="4.92117">
        <ele>372.4</ele>
        <time>2024-06-29T07:28:15Z</time>
      </trkpt>
      <trkpt lat="47.15313" lon="4.92115">
        <ele>371.6</ele>
        <time>2024-06-29T07:28:17Z</time>
      </trkpt>
      <trkpt lat="47.15314" lon="4.92114">
        <ele>369.9</ele>
        <time>2024-06-29T07:28:19Z</time>
      </trkpt>
      <trkpt lat="47.15315" lon="4.92112">
        <ele>368.8</ele>
        <time>2024-06-29T07:28:20Z</time>
      </trkpt>
      <trkpt lat="47.15316" lon="4.9211">
        <ele>367.9</ele>
        <time>2024-06-29T07:28:21Z</time>
      </trkpt>
      <trkpt lat="47.15317" lon="4.92109">
        <ele>366.6</ele>
        <time>2024-06-29T07:28:22Z</time>
      </trkpt>
      <trkpt lat="47.15318" lon="4.92109">
        <ele>368.2</ele>
        <time>2024-06-29T07:28:23Z</time>
      </trkpt>
      <trkpt lat="47.15319" lon="4.92109">
        <ele>368.7</ele>
        <time>2024-06-29T07:28:24Z</time>
      </trkpt>
      <trkpt lat="47.1532" lon="4.92109">
        <ele>370</ele>
        <time>2024-06-29T07:28:26Z</time>
      </trkpt>
      <trkpt lat="47.15321" lon="4.92108">
        <ele>369.6</ele>
        <time>2024-06-29T07:28:28Z</time>
      </trkpt>
      <trkpt lat="47.15322" lon="4.92108">
        <ele>365.4</ele>
        <time>2024-06-29T07:28:30Z</time>
      </trkpt>
      <trkpt lat="47.15324" lon="4.92107">
        <ele>364.4</ele>
        <time>2024-06-29T07:28:32Z</time>
      </trkpt>
      <trkpt lat="47.15325" lon="4.92107">
        <ele>363.8</ele>
        <time>2024-06-29T07:28:33Z</time>
      </trkpt>
      <trkpt lat="47.15326" lon="4.92106">
        <ele>363.2</ele>
        <time>2024-06-29T07:28:34Z</time>
      </trkpt>
      <trkpt lat="47.15327" lon="4.92106">
        <ele>362.8</ele>
        <time>2024-06-29T07:28:35Z</time>
      </trkpt>
      <trkpt lat="47.15328" lon="4.92105">
        <ele>361.7</ele>
        <time>2024-06-29T07:28:36Z</time>
      </trkpt>
      <trkpt lat="47.15329" lon="4.92104">
        <ele>362.4</ele>
        <time>2024-06-29T07:28:37Z</time>
      </trkpt>
      <trkpt lat="47.1533" lon="4.92103">
        <ele>362.4</ele>
        <time>2024-06-29T07:28:38Z</time>
      </trkpt>
      <trkpt lat="47.15332" lon="4.92102">
        <ele>362</ele>
        <time>2024-06-29T07:28:39Z</time>
      </trkpt>
      <trkpt lat="47.15333" lon="4.92103">
        <ele>362.1</ele>
        <time>2024-06-29T07:28:40Z</time>
      </trkpt>
      <trkpt lat="47.15335" lon="4.92103">
        <ele>363.6</ele>
        <time>2024-06-29T07:28:41Z</time>
      </trkpt>
      <trkpt lat="47.15336" lon="4.92103">
        <ele>365.1</ele>
        <time>2024-06-29T07:28:42Z</time>
      </trkpt>
      <trkpt lat="47.15337" lon="4.92103">
        <ele>365.8</ele>
        <time>2024-06-29T07:28:43Z</time>
      </trkpt>
      <trkpt lat="47.15338" lon="4.92103">
        <ele>365.5</ele>
        <time>2024-06-29T07:28:44Z</time>
      </trkpt>
      <trkpt lat="47.15339" lon="4.92102">
        <ele>366.3</ele>
        <time>2024-06-29T07:28:45Z</time>
      </trkpt>
      <trkpt lat="47.15339" lon="4.92104">
        <ele>373.8</ele>
        <time>2024-06-29T07:28:47Z</time>
      </trkpt>
      <trkpt lat="47.1534" lon="4.92105">
        <ele>374.8</ele>
        <time>2024-06-29T07:28:48Z</time>
      </trkpt>
      <trkpt lat="47.1534" lon="4.92106">
        <ele>374.3</ele>
        <time>2024-06-29T07:28:49Z</time>
      </trkpt>
      <trkpt lat="47.15341" lon="4.92107">
        <ele>375.8</ele>
        <time>2024-06-29T07:28:51Z</time>
      </trkpt>
      <trkpt lat="47.15343" lon="4.92107">
        <ele>373.4</ele>
        <time>2024-06-29T07:28:53Z</time>
      </trkpt>
      <trkpt lat="47.15345" lon="4.92107">
        <ele>372.5</ele>
        <time>2024-06-29T07:28:54Z</time>
      </trkpt>
      <trkpt lat="47.15346" lon="4.92106">
        <ele>371.5</ele>
        <time>2024-06-29T07:28:55Z</time>
      </trkpt>
      <trkpt lat="47.15347" lon="4.92106">
        <ele>372.5</ele>
        <time>2024-06-29T07:28:56Z</time>
      </trkpt>
      <trkpt lat="47.15349" lon="4.92105">
        <ele>372.1</ele>
        <time>2024-06-29T07:28:57Z</time>
      </trkpt>
      <trkpt lat="47.1535" lon="4.92105">
        <ele>372.8</ele>
        <time>2024-06-29T07:28:58Z</time>
      </trkpt>
      <trkpt lat="47.15351" lon="4.92105">
        <ele>372.4</ele>
        <time>2024-06-29T07:28:59Z</time>
      </trkpt>
      <trkpt lat="47.15352" lon="4.92105">
        <ele>371.9</ele>
        <time>2024-06-29T07:29:00Z</time>
      </trkpt>
      <trkpt lat="47.15354" lon="4.92103">
        <ele>373.8</ele>
        <time>2024-06-29T07:29:03Z</time>
      </trkpt>
      <trkpt lat="47.15355" lon="4.92103">
        <ele>374.8</ele>
        <time>2024-06-29T07:29:04Z</time>
      </trkpt>
      <trkpt lat="47.15356" lon="4.92104">
        <ele>374.9</ele>
        <time>2024-06-29T07:29:05Z</time>
      </trkpt>
      <trkpt lat="47.15357" lon="4.92104">
        <ele>375.5</ele>
        <time>2024-06-29T07:29:06Z</time>
      </trkpt>
      <trkpt lat="47.15358" lon="4.92104">
        <ele>375.8</ele>
        <time>2024-06-29T07:29:07Z</time>
      </trkpt>
      <trkpt lat="47.15359" lon="4.92104">
        <ele>376</ele>
        <time>2024-06-29T07:29:08Z</time>
      </trkpt>
      <trkpt lat="47.1536" lon="4.92104">
        <ele>376.5</ele>
        <time>2024-06-29T07:29:09Z</time>
      </trkpt>
      <trkpt lat="47.15362" lon="4.92104">
        <ele>376.7</ele>
        <time>2024-06-29T07:29:11Z</time>
      </trkpt>
      <trkpt lat="47.15363" lon="4.92104">
        <ele>378</ele>
        <time>2024-06-29T07:29:12Z</time>
      </trkpt>
      <trkpt lat="47.15364" lon="4.92104">
        <ele>378.3</ele>
        <time>2024-06-29T07:29:14Z</time>
      </trkpt>
      <trkpt lat="47.15366" lon="4.92104">
        <ele>379.4</ele>
        <time>2024-06-29T07:29:15Z</time>
      </trkpt>
      <trkpt lat="47.15367" lon="4.92103">
        <ele>378.6</ele>
        <time>2024-06-29T07:29:16Z</time>
      </trkpt>
      <trkpt lat="47.15368" lon="4.92102">
        <ele>380.1</ele>
        <time>2024-06-29T07:29:17Z</time>
      </trkpt>
      <trkpt lat="47.15369" lon="4.92101">
        <ele>380.5</ele>
        <time>2024-06-29T07:29:18Z</time>
      </trkpt>
      <trkpt lat="47.1537" lon="4.921">
        <ele>381.4</ele>
        <time>2024-06-29T07:29:19Z</time>
      </trkpt>
      <trkpt lat="47.15371" lon="4.921">
        <ele>380.6</ele>
        <time>2024-06-29T07:29:20Z</time>
      </trkpt>
      <trkpt lat="47.15372" lon="4.92099">
        <ele>378</ele>
        <time>2024-06-29T07:29:21Z</time>
      </trkpt>
      <trkpt lat="47.15373" lon="4.92099">
        <ele>375.8</ele>
        <time>2024-06-29T07:29:23Z</time>
      </trkpt>
      <trkpt lat="47.15374" lon="4.92098">
        <ele>375.2</ele>
        <time>2024-06-29T07:29:25Z</time>
      </trkpt>
      <trkpt lat="47.15375" lon="4.92097">
        <ele>374</ele>
        <time>2024-06-29T07:29:27Z</time>
      </trkpt>
      <trkpt lat="47.15375" lon="4.92095">
        <ele>373.6</ele>
        <time>2024-06-29T07:29:29Z</time>
      </trkpt>
      <trkpt lat="47.15375" lon="4.92093">
        <ele>374.1</ele>
        <time>2024-06-29T07:29:32Z</time>
      </trkpt>
      <trkpt lat="47.15375" lon="4.92092">
        <ele>375.7</ele>
        <time>2024-06-29T07:29:35Z</time>
      </trkpt>
      <trkpt lat="47.15375" lon="4.9209">
        <ele>375.4</ele>
        <time>2024-06-29T07:29:37Z</time>
      </trkpt>
      <trkpt lat="47.15376" lon="4.92088">
        <ele>376.1</ele>
        <time>2024-06-29T07:29:39Z</time>
      </trkpt>
      <trkpt lat="47.15377" lon="4.92086">
        <ele>376.3</ele>
        <time>2024-06-29T07:29:41Z</time>
      </trkpt>
      <trkpt lat="47.15378" lon="4.92084">
        <ele>375.5</ele>
        <time>2024-06-29T07:29:43Z</time>
      </trkpt>
      <trkpt lat="47.15378" lon="4.92082">
        <ele>376.4</ele>
        <time>2024-06-29T07:29:44Z</time>
      </trkpt>
      <trkpt lat="47.15378" lon="4.9208">
        <ele>375.6</ele>
        <time>2024-06-29T07:29:45Z</time>
      </trkpt>
      <trkpt lat="47.15378" lon="4.92079">
        <ele>374.6</ele>
        <time>2024-06-29T07:29:46Z</time>
      </trkpt>
      <trkpt lat="47.15379" lon="4.92077">
        <ele>373.3</ele>
        <time>2024-06-29T07:29:48Z</time>
      </trkpt>
      <trkpt lat="47.15379" lon="4.92075">
        <ele>372.3</ele>
        <time>2024-06-29T07:29:50Z</time>
      </trkpt>
      <trkpt lat="47.15379" lon="4.92072">
        <ele>372</ele>
        <time>2024-06-29T07:29:52Z</time>
      </trkpt>
      <trkpt lat="47.1538" lon="4.92071">
        <ele>371.1</ele>
        <time>2024-06-29T07:29:53Z</time>
      </trkpt>
      <trkpt lat="47.15381" lon="4.9207">
        <ele>371.1</ele>
        <time>2024-06-29T07:29:54Z</time>
      </trkpt>
      <trkpt lat="47.15381" lon="4.92068">
        <ele>369.2</ele>
        <time>2024-06-29T07:29:56Z</time>
      </trkpt>
      <trkpt lat="47.15381" lon="4.92066">
        <ele>368.7</ele>
        <time>2024-06-29T07:29:58Z</time>
      </trkpt>
      <trkpt lat="47.15381" lon="4.92064">
        <ele>367.9</ele>
        <time>2024-06-29T07:30:00Z</time>
      </trkpt>
      <trkpt lat="47.15382" lon="4.92063">
        <ele>368</ele>
        <time>2024-06-29T07:30:02Z</time>
      </trkpt>
      <trkpt lat="47.15382" lon="4.92061">
        <ele>367.4</ele>
        <time>2024-06-29T07:30:04Z</time>
      </trkpt>
      <trkpt lat="47.15383" lon="4.92058">
        <ele>366.4</ele>
        <time>2024-06-29T07:30:06Z</time>
      </trkpt>
      <trkpt lat="47.15383" lon="4.92057">
        <ele>366.6</ele>
        <time>2024-06-29T07:30:07Z</time>
      </trkpt>
      <trkpt lat="47.15384" lon="4.92056">
        <ele>366</ele>
        <time>2024-06-29T07:30:08Z</time>
      </trkpt>
      <trkpt lat="47.15385" lon="4.92054">
        <ele>364.5</ele>
        <time>2024-06-29T07:30:10Z</time>
      </trkpt>
      <trkpt lat="47.15385" lon="4.92052">
        <ele>363.3</ele>
        <time>2024-06-29T07:30:12Z</time>
      </trkpt>
      <trkpt lat="47.15385" lon="4.9205">
        <ele>363.3</ele>
        <time>2024-06-29T07:30:14Z</time>
      </trkpt>
      <trkpt lat="47.15386" lon="4.92048">
        <ele>363.6</ele>
        <time>2024-06-29T07:30:16Z</time>
      </trkpt>
      <trkpt lat="47.15387" lon="4.92046">
        <ele>363.6</ele>
        <time>2024-06-29T07:30:18Z</time>
      </trkpt>
      <trkpt lat="47.15387" lon="4.92044">
        <ele>361.9</ele>
        <time>2024-06-29T07:30:20Z</time>
      </trkpt>
      <trkpt lat="47.15387" lon="4.92042">
        <ele>361.5</ele>
        <time>2024-06-29T07:30:21Z</time>
      </trkpt>
      <trkpt lat="47.15387" lon="4.92041">
        <ele>361.4</ele>
        <time>2024-06-29T07:30:22Z</time>
      </trkpt>
      <trkpt lat="47.15388" lon="4.9204">
        <ele>361.2</ele>
        <time>2024-06-29T07:30:24Z</time>
      </trkpt>
      <trkpt lat="47.15388" lon="4.92038">
        <ele>360.4</ele>
        <time>2024-06-29T07:30:25Z</time>
      </trkpt>
      <trkpt lat="47.15388" lon="4.92037">
        <ele>360.3</ele>
        <time>2024-06-29T07:30:26Z</time>
      </trkpt>
      <trkpt lat="47.15389" lon="4.92036">
        <ele>359.6</ele>
        <time>2024-06-29T07:30:27Z</time>
      </trkpt>
      <trkpt lat="47.1539" lon="4.92034">
        <ele>361.1</ele>
        <time>2024-06-29T07:30:29Z</time>
      </trkpt>
      <trkpt lat="47.1539" lon="4.92032">
        <ele>361.5</ele>
        <time>2024-06-29T07:30:31Z</time>
      </trkpt>
      <trkpt lat="47.1539" lon="4.9203">
        <ele>362.2</ele>
        <time>2024-06-29T07:30:33Z</time>
      </trkpt>
      <trkpt lat="47.15391" lon="4.92029">
        <ele>361.8</ele>
        <time>2024-06-29T07:30:35Z</time>
      </trkpt>
      <trkpt lat="47.15391" lon="4.92027">
        <ele>360.7</ele>
        <time>2024-06-29T07:30:37Z</time>
      </trkpt>
      <trkpt lat="47.15391" lon="4.92025">
        <ele>361.6</ele>
        <time>2024-06-29T07:30:40Z</time>
      </trkpt>
      <trkpt lat="47.15392" lon="4.92023">
        <ele>360.8</ele>
        <time>2024-06-29T07:30:42Z</time>
      </trkpt>
      <trkpt lat="47.15393" lon="4.92022">
        <ele>361.5</ele>
        <time>2024-06-29T07:30:43Z</time>
      </trkpt>
      <trkpt lat="47.15393" lon="4.92021">
        <ele>361.9</ele>
        <time>2024-06-29T07:30:44Z</time>
      </trkpt>
      <trkpt lat="47.15394" lon="4.92019">
        <ele>360.1</ele>
        <time>2024-06-29T07:30:45Z</time>
      </trkpt>
      <trkpt lat="47.15394" lon="4.92018">
        <ele>360.9</ele>
        <time>2024-06-29T07:30:46Z</time>
      </trkpt>
      <trkpt lat="47.15394" lon="4.92015">
        <ele>358.6</ele>
        <time>2024-06-29T07:30:48Z</time>
      </trkpt>
      <trkpt lat="47.15394" lon="4.92012">
        <ele>361</ele>
        <time>2024-06-29T07:30:50Z</time>
      </trkpt>
      <trkpt lat="47.15395" lon="4.92011">
        <ele>360.1</ele>
        <time>2024-06-29T07:30:52Z</time>
      </trkpt>
      <trkpt lat="47.15397" lon="4.9201">
        <ele>360</ele>
        <time>2024-06-29T07:30:54Z</time>
      </trkpt>
      <trkpt lat="47.15398" lon="4.92009">
        <ele>355.4</ele>
        <time>2024-06-29T07:30:55Z</time>
      </trkpt>
      <trkpt lat="47.15399" lon="4.9201">
        <ele>355.4</ele>
        <time>2024-06-29T07:30:57Z</time>
      </trkpt>
      <trkpt lat="47.154" lon="4.92009">
        <ele>355.4</ele>
        <time>2024-06-29T07:30:58Z</time>
      </trkpt>
      <trkpt lat="47.15402" lon="4.92009">
        <ele>353.7</ele>
        <time>2024-06-29T07:30:59Z</time>
      </trkpt>
      <trkpt lat="47.15403" lon="4.92008">
        <ele>353.5</ele>
        <time>2024-06-29T07:31:00Z</time>
      </trkpt>
      <trkpt lat="47.15404" lon="4.92008">
        <ele>353.2</ele>
        <time>2024-06-29T07:31:01Z</time>
      </trkpt>
      <trkpt lat="47.15405" lon="4.92008">
        <ele>353.1</ele>
        <time>2024-06-29T07:31:03Z</time>
      </trkpt>
      <trkpt lat="47.15406" lon="4.92007">
        <ele>352.7</ele>
        <time>2024-06-29T07:31:04Z</time>
      </trkpt>
      <trkpt lat="47.15407" lon="4.92007">
        <ele>352.9</ele>
        <time>2024-06-29T07:31:05Z</time>
      </trkpt>
      <trkpt lat="47.15409" lon="4.92006">
        <ele>352</ele>
        <time>2024-06-29T07:31:07Z</time>
      </trkpt>
      <trkpt lat="47.1541" lon="4.92005">
        <ele>352</ele>
        <time>2024-06-29T07:31:08Z</time>
      </trkpt>
      <trkpt lat="47.15411" lon="4.92005">
        <ele>352.6</ele>
        <time>2024-06-29T07:31:10Z</time>
      </trkpt>
      <trkpt lat="47.15412" lon="4.92005">
        <ele>352.7</ele>
        <time>2024-06-29T07:31:11Z</time>
      </trkpt>
      <trkpt lat="47.15413" lon="4.92006">
        <ele>353.2</ele>
        <time>2024-06-29T07:31:12Z</time>
      </trkpt>
      <trkpt lat="47.15415" lon="4.92005">
        <ele>353.8</ele>
        <time>2024-06-29T07:31:14Z</time>
      </trkpt>
      <trkpt lat="47.15416" lon="4.92005">
        <ele>354.7</ele>
        <time>2024-06-29T07:31:16Z</time>
      </trkpt>
      <trkpt lat="47.15418" lon="4.92005">
        <ele>356.1</ele>
        <time>2024-06-29T07:31:18Z</time>
      </trkpt>
      <trkpt lat="47.15419" lon="4.92005">
        <ele>356.4</ele>
        <time>2024-06-29T07:31:20Z</time>
      </trkpt>
      <trkpt lat="47.1542" lon="4.92005">
        <ele>356.6</ele>
        <time>2024-06-29T07:31:22Z</time>
      </trkpt>
      <trkpt lat="47.15422" lon="4.92004">
        <ele>355.7</ele>
        <time>2024-06-29T07:31:24Z</time>
      </trkpt>
      <trkpt lat="47.15423" lon="4.92004">
        <ele>356.3</ele>
        <time>2024-06-29T07:31:26Z</time>
      </trkpt>
      <trkpt lat="47.15424" lon="4.92003">
        <ele>355</ele>
        <time>2024-06-29T07:31:27Z</time>
      </trkpt>
      <trkpt lat="47.15425" lon="4.92002">
        <ele>354.6</ele>
        <time>2024-06-29T07:31:28Z</time>
      </trkpt>
      <trkpt lat="47.15426" lon="4.92002">
        <ele>353.5</ele>
        <time>2024-06-29T07:31:29Z</time>
      </trkpt>
      <trkpt lat="47.15427" lon="4.92001">
        <ele>353.5</ele>
        <time>2024-06-29T07:31:30Z</time>
      </trkpt>
      <trkpt lat="47.15428" lon="4.92001">
        <ele>353.3</ele>
        <time>2024-06-29T07:31:31Z</time>
      </trkpt>
      <trkpt lat="47.15429" lon="4.92">
        <ele>353.8</ele>
        <time>2024-06-29T07:31:32Z</time>
      </trkpt>
      <trkpt lat="47.1543" lon="4.92">
        <ele>354.6</ele>
        <time>2024-06-29T07:31:33Z</time>
      </trkpt>
      <trkpt lat="47.15432" lon="4.92">
        <ele>354</ele>
        <time>2024-06-29T07:31:35Z</time>
      </trkpt>
      <trkpt lat="47.15434" lon="4.92">
        <ele>353.5</ele>
        <time>2024-06-29T07:31:37Z</time>
      </trkpt>
      <trkpt lat="47.15435" lon="4.92">
        <ele>353.7</ele>
        <time>2024-06-29T07:31:38Z</time>
      </trkpt>
      <trkpt lat="47.15436" lon="4.91999">
        <ele>353.3</ele>
        <time>2024-06-29T07:31:39Z</time>
      </trkpt>
      <trkpt lat="47.15437" lon="4.91998">
        <ele>352.6</ele>
        <time>2024-06-29T07:31:41Z</time>
      </trkpt>
      <trkpt lat="47.15439" lon="4.91998">
        <ele>354.7</ele>
        <time>2024-06-29T07:31:43Z</time>
      </trkpt>
      <trkpt lat="47.1544" lon="4.91998">
        <ele>355.1</ele>
        <time>2024-06-29T07:31:45Z</time>
      </trkpt>
      <trkpt lat="47.15441" lon="4.91997">
        <ele>355.2</ele>
        <time>2024-06-29T07:31:46Z</time>
      </trkpt>
      <trkpt lat="47.15442" lon="4.91996">
        <ele>353.6</ele>
        <time>2024-06-29T07:31:47Z</time>
      </trkpt>
      <trkpt lat="47.15443" lon="4.91995">
        <ele>354.4</ele>
        <time>2024-06-29T07:31:48Z</time>
      </trkpt>
      <trkpt lat="47.15444" lon="4.91994">
        <ele>354</ele>
        <time>2024-06-29T07:31:49Z</time>
      </trkpt>
      <trkpt lat="47.15445" lon="4.91994">
        <ele>353.9</ele>
        <time>2024-06-29T07:31:50Z</time>
      </trkpt>
      <trkpt lat="47.15446" lon="4.91993">
        <ele>355.3</ele>
        <time>2024-06-29T07:31:51Z</time>
      </trkpt>
      <trkpt lat="47.15447" lon="4.91992">
        <ele>354.4</ele>
        <time>2024-06-29T07:31:52Z</time>
      </trkpt>
      <trkpt lat="47.15449" lon="4.9199">
        <ele>354.8</ele>
        <time>2024-06-29T07:31:53Z</time>
      </trkpt>
      <trkpt lat="47.15449" lon="4.91989">
        <ele>353.6</ele>
        <time>2024-06-29T07:31:54Z</time>
      </trkpt>
      <trkpt lat="47.15451" lon="4.91989">
        <ele>354.2</ele>
        <time>2024-06-29T07:31:56Z</time>
      </trkpt>
      <trkpt lat="47.15452" lon="4.9199">
        <ele>352</ele>
        <time>2024-06-29T07:31:57Z</time>
      </trkpt>
      <trkpt lat="47.15453" lon="4.9199">
        <ele>352.2</ele>
        <time>2024-06-29T07:31:58Z</time>
      </trkpt>
      <trkpt lat="47.15454" lon="4.9199">
        <ele>352.5</ele>
        <time>2024-06-29T07:32:00Z</time>
      </trkpt>
      <trkpt lat="47.15456" lon="4.91991">
        <ele>351.5</ele>
        <time>2024-06-29T07:32:02Z</time>
      </trkpt>
      <trkpt lat="47.15457" lon="4.91992">
        <ele>352</ele>
        <time>2024-06-29T07:32:04Z</time>
      </trkpt>
      <trkpt lat="47.15458" lon="4.91992">
        <ele>350.5</ele>
        <time>2024-06-29T07:32:05Z</time>
      </trkpt>
      <trkpt lat="47.1546" lon="4.91992">
        <ele>351</ele>
        <time>2024-06-29T07:32:06Z</time>
      </trkpt>
      <trkpt lat="47.1546" lon="4.91992">
        <ele>350.5</ele>
        <time>2024-06-29T07:32:07Z</time>
      </trkpt>
      <trkpt lat="47.15462" lon="4.91994">
        <ele>351</ele>
        <time>2024-06-29T07:32:09Z</time>
      </trkpt>
      <trkpt lat="47.15463" lon="4.91995">
        <ele>351.3</ele>
        <time>2024-06-29T07:32:10Z</time>
      </trkpt>
      <trkpt lat="47.15464" lon="4.91996">
        <ele>353.1</ele>
        <time>2024-06-29T07:32:11Z</time>
      </trkpt>
      <trkpt lat="47.15465" lon="4.91997">
        <ele>352</ele>
        <time>2024-06-29T07:32:13Z</time>
      </trkpt>
      <trkpt lat="47.15466" lon="4.91997">
        <ele>351.1</ele>
        <time>2024-06-29T07:32:14Z</time>
      </trkpt>
      <trkpt lat="47.15467" lon="4.91998">
        <ele>351.3</ele>
        <time>2024-06-29T07:32:15Z</time>
      </trkpt>
      <trkpt lat="47.15468" lon="4.91997">
        <ele>351</ele>
        <time>2024-06-29T07:32:16Z</time>
      </trkpt>
      <trkpt lat="47.15469" lon="4.91997">
        <ele>352.5</ele>
        <time>2024-06-29T07:32:18Z</time>
      </trkpt>
      <trkpt lat="47.1547" lon="4.91998">
        <ele>357.8</ele>
        <time>2024-06-29T07:32:21Z</time>
      </trkpt>
      <trkpt lat="47.1547" lon="4.92">
        <ele>357.4</ele>
        <time>2024-06-29T07:32:23Z</time>
      </trkpt>
      <trkpt lat="47.15472" lon="4.92002">
        <ele>357.7</ele>
        <time>2024-06-29T07:32:25Z</time>
      </trkpt>
      <trkpt lat="47.15473" lon="4.92002">
        <ele>357.7</ele>
        <time>2024-06-29T07:32:26Z</time>
      </trkpt>
      <trkpt lat="47.15474" lon="4.92002">
        <ele>357.3</ele>
        <time>2024-06-29T07:32:27Z</time>
      </trkpt>
      <trkpt lat="47.15475" lon="4.92002">
        <ele>356.8</ele>
        <time>2024-06-29T07:32:28Z</time>
      </trkpt>
      <trkpt lat="47.15477" lon="4.92003">
        <ele>356.3</ele>
        <time>2024-06-29T07:32:30Z</time>
      </trkpt>
      <trkpt lat="47.15478" lon="4.92003">
        <ele>353.9</ele>
        <time>2024-06-29T07:32:32Z</time>
      </trkpt>
      <trkpt lat="47.15479" lon="4.92003">
        <ele>354.2</ele>
        <time>2024-06-29T07:32:33Z</time>
      </trkpt>
      <trkpt lat="47.15481" lon="4.92002">
        <ele>354.7</ele>
        <time>2024-06-29T07:32:35Z</time>
      </trkpt>
      <trkpt lat="47.15482" lon="4.92003">
        <ele>354.8</ele>
        <time>2024-06-29T07:32:36Z</time>
      </trkpt>
      <trkpt lat="47.15483" lon="4.92003">
        <ele>354.4</ele>
        <time>2024-06-29T07:32:37Z</time>
      </trkpt>
      <trkpt lat="47.15484" lon="4.92003">
        <ele>353.6</ele>
        <time>2024-06-29T07:32:39Z</time>
      </trkpt>
      <trkpt lat="47.15485" lon="4.92002">
        <ele>353</ele>
        <time>2024-06-29T07:32:40Z</time>
      </trkpt>
      <trkpt lat="47.15486" lon="4.92001">
        <ele>352.5</ele>
        <time>2024-06-29T07:32:41Z</time>
      </trkpt>
      <trkpt lat="47.15487" lon="4.92">
        <ele>352.5</ele>
        <time>2024-06-29T07:32:42Z</time>
      </trkpt>
      <trkpt lat="47.15488" lon="4.91999">
        <ele>352.9</ele>
        <time>2024-06-29T07:32:44Z</time>
      </trkpt>
      <trkpt lat="47.15489" lon="4.92">
        <ele>354.5</ele>
        <time>2024-06-29T07:32:46Z</time>
      </trkpt>
      <trkpt lat="47.1549" lon="4.92001">
        <ele>354.9</ele>
        <time>2024-06-29T07:32:47Z</time>
      </trkpt>
      <trkpt lat="47.15491" lon="4.92001">
        <ele>354.3</ele>
        <time>2024-06-29T07:32:48Z</time>
      </trkpt>
      <trkpt lat="47.15492" lon="4.92002">
        <ele>354.1</ele>
        <time>2024-06-29T07:32:50Z</time>
      </trkpt>
      <trkpt lat="47.15493" lon="4.92002">
        <ele>353.9</ele>
        <time>2024-06-29T07:32:52Z</time>
      </trkpt>
      <trkpt lat="47.15495" lon="4.92003">
        <ele>354</ele>
        <time>2024-06-29T07:32:54Z</time>
      </trkpt>
      <trkpt lat="47.15495" lon="4.92004">
        <ele>353</ele>
        <time>2024-06-29T07:32:55Z</time>
      </trkpt>
      <trkpt lat="47.15497" lon="4.92004">
        <ele>352.7</ele>
        <time>2024-06-29T07:32:57Z</time>
      </trkpt>
      <trkpt lat="47.15498" lon="4.92005">
        <ele>353.1</ele>
        <time>2024-06-29T07:32:59Z</time>
      </trkpt>
      <trkpt lat="47.155" lon="4.92006">
        <ele>356.1</ele>
        <time>2024-06-29T07:33:01Z</time>
      </trkpt>
      <trkpt lat="47.15501" lon="4.92007">
        <ele>357</ele>
        <time>2024-06-29T07:33:02Z</time>
      </trkpt>
      <trkpt lat="47.15502" lon="4.92008">
        <ele>356.4</ele>
        <time>2024-06-29T07:33:03Z</time>
      </trkpt>
      <trkpt lat="47.15503" lon="4.92009">
        <ele>355.5</ele>
        <time>2024-06-29T07:33:04Z</time>
      </trkpt>
      <trkpt lat="47.15503" lon="4.9201">
        <ele>355.3</ele>
        <time>2024-06-29T07:33:05Z</time>
      </trkpt>
      <trkpt lat="47.15504" lon="4.9201">
        <ele>356.1</ele>
        <time>2024-06-29T07:33:06Z</time>
      </trkpt>
      <trkpt lat="47.15506" lon="4.92011">
        <ele>355.4</ele>
        <time>2024-06-29T07:33:08Z</time>
      </trkpt>
      <trkpt lat="47.15507" lon="4.92011">
        <ele>355.2</ele>
        <time>2024-06-29T07:33:09Z</time>
      </trkpt>
      <trkpt lat="47.15508" lon="4.92012">
        <ele>353</ele>
        <time>2024-06-29T07:33:11Z</time>
      </trkpt>
      <trkpt lat="47.15509" lon="4.92012">
        <ele>354.1</ele>
        <time>2024-06-29T07:33:14Z</time>
      </trkpt>
      <trkpt lat="47.15511" lon="4.92013">
        <ele>354.9</ele>
        <time>2024-06-29T07:33:16Z</time>
      </trkpt>
      <trkpt lat="47.15512" lon="4.92014">
        <ele>355.7</ele>
        <time>2024-06-29T07:33:17Z</time>
      </trkpt>
      <trkpt lat="47.15512" lon="4.92015">
        <ele>356.2</ele>
        <time>2024-06-29T07:33:18Z</time>
      </trkpt>
      <trkpt lat="47.15512" lon="4.92017">
        <ele>355.6</ele>
        <time>2024-06-29T07:33:21Z</time>
      </trkpt>
      <trkpt lat="47.15513" lon="4.92019">
        <ele>355.9</ele>
        <time>2024-06-29T07:33:25Z</time>
      </trkpt>
      <trkpt lat="47.15514" lon="4.9202">
        <ele>356.8</ele>
        <time>2024-06-29T07:33:27Z</time>
      </trkpt>
      <trkpt lat="47.15515" lon="4.92021">
        <ele>356.7</ele>
        <time>2024-06-29T07:33:30Z</time>
      </trkpt>
      <trkpt lat="47.15515" lon="4.92022">
        <ele>352.4</ele>
        <time>2024-06-29T07:33:33Z</time>
      </trkpt>
      <trkpt lat="47.15517" lon="4.92022">
        <ele>352.3</ele>
        <time>2024-06-29T07:33:36Z</time>
      </trkpt>
      <trkpt lat="47.15518" lon="4.92023">
        <ele>352.7</ele>
        <time>2024-06-29T07:33:37Z</time>
      </trkpt>
      <trkpt lat="47.15519" lon="4.92021">
        <ele>350.6</ele>
        <time>2024-06-29T07:33:39Z</time>
      </trkpt>
      <trkpt lat="47.1552" lon="4.92019">
        <ele>350.5</ele>
        <time>2024-06-29T07:33:41Z</time>
      </trkpt>
      <trkpt lat="47.15521" lon="4.92018">
        <ele>350</ele>
        <time>2024-06-29T07:33:43Z</time>
      </trkpt>
      <trkpt lat="47.15522" lon="4.92017">
        <ele>348.7</ele>
        <time>2024-06-29T07:33:44Z</time>
      </trkpt>
      <trkpt lat="47.15523" lon="4.92016">
        <ele>346.8</ele>
        <time>2024-06-29T07:33:45Z</time>
      </trkpt>
      <trkpt lat="47.15524" lon="4.92016">
        <ele>349</ele>
        <time>2024-06-29T07:33:47Z</time>
      </trkpt>
      <trkpt lat="47.15525" lon="4.92019">
        <ele>348</ele>
        <time>2024-06-29T07:33:49Z</time>
      </trkpt>
      <trkpt lat="47.15526" lon="4.92021">
        <ele>348.1</ele>
        <time>2024-06-29T07:33:50Z</time>
      </trkpt>
      <trkpt lat="47.15527" lon="4.92023">
        <ele>348.1</ele>
        <time>2024-06-29T07:33:51Z</time>
      </trkpt>
      <trkpt lat="47.15527" lon="4.92025">
        <ele>348.1</ele>
        <time>2024-06-29T07:33:52Z</time>
      </trkpt>
      <trkpt lat="47.15527" lon="4.92026">
        <ele>350.6</ele>
        <time>2024-06-29T07:33:53Z</time>
      </trkpt>
      <trkpt lat="47.15528" lon="4.92028">
        <ele>351.8</ele>
        <time>2024-06-29T07:33:55Z</time>
      </trkpt>
      <trkpt lat="47.15529" lon="4.9203">
        <ele>351.4</ele>
        <time>2024-06-29T07:33:57Z</time>
      </trkpt>
      <trkpt lat="47.15529" lon="4.92032">
        <ele>352</ele>
        <time>2024-06-29T07:33:59Z</time>
      </trkpt>
      <trkpt lat="47.1553" lon="4.92031">
        <ele>350.3</ele>
        <time>2024-06-29T07:34:00Z</time>
      </trkpt>
      <trkpt lat="47.15531" lon="4.92029">
        <ele>350.6</ele>
        <time>2024-06-29T07:34:01Z</time>
      </trkpt>
      <trkpt lat="47.15532" lon="4.92028">
        <ele>350.2</ele>
        <time>2024-06-29T07:34:02Z</time>
      </trkpt>
      <trkpt lat="47.15533" lon="4.92027">
        <ele>350</ele>
        <time>2024-06-29T07:34:03Z</time>
      </trkpt>
      <trkpt lat="47.15535" lon="4.92027">
        <ele>350.6</ele>
        <time>2024-06-29T07:34:04Z</time>
      </trkpt>
      <trkpt lat="47.15535" lon="4.92029">
        <ele>351.3</ele>
        <time>2024-06-29T07:34:06Z</time>
      </trkpt>
      <trkpt lat="47.15536" lon="4.92031">
        <ele>353.6</ele>
        <time>2024-06-29T07:34:08Z</time>
      </trkpt>
      <trkpt lat="47.15537" lon="4.92032">
        <ele>353.8</ele>
        <time>2024-06-29T07:34:10Z</time>
      </trkpt>
      <trkpt lat="47.15538" lon="4.92033">
        <ele>354.8</ele>
        <time>2024-06-29T07:34:11Z</time>
      </trkpt>
      <trkpt lat="47.15539" lon="4.92033">
        <ele>355</ele>
        <time>2024-06-29T07:34:12Z</time>
      </trkpt>
      <trkpt lat="47.15541" lon="4.92032">
        <ele>359.9</ele>
        <time>2024-06-29T07:34:13Z</time>
      </trkpt>
      <trkpt lat="47.15542" lon="4.92032">
        <ele>361.5</ele>
        <time>2024-06-29T07:34:14Z</time>
      </trkpt>
      <trkpt lat="47.15543" lon="4.92031">
        <ele>361</ele>
        <time>2024-06-29T07:34:15Z</time>
      </trkpt>
      <trkpt lat="47.15544" lon="4.9203">
        <ele>361.4</ele>
        <time>2024-06-29T07:34:16Z</time>
      </trkpt>
      <trkpt lat="47.15546" lon="4.9203">
        <ele>363.1</ele>
        <time>2024-06-29T07:34:18Z</time>
      </trkpt>
      <trkpt lat="47.15547" lon="4.92029">
        <ele>362</ele>
        <time>2024-06-29T07:34:19Z</time>
      </trkpt>
      <trkpt lat="47.15548" lon="4.92029">
        <ele>361.4</ele>
        <time>2024-06-29T07:34:20Z</time>
      </trkpt>
      <trkpt lat="47.15549" lon="4.92028">
        <ele>361.5</ele>
        <time>2024-06-29T07:34:21Z</time>
      </trkpt>
      <trkpt lat="47.1555" lon="4.92028">
        <ele>359.3</ele>
        <time>2024-06-29T07:34:23Z</time>
      </trkpt>
      <trkpt lat="47.15551" lon="4.92027">
        <ele>356.6</ele>
        <time>2024-06-29T07:34:25Z</time>
      </trkpt>
      <trkpt lat="47.15553" lon="4.92027">
        <ele>355.1</ele>
        <time>2024-06-29T07:34:28Z</time>
      </trkpt>
      <trkpt lat="47.15555" lon="4.92026">
        <ele>354.5</ele>
        <time>2024-06-29T07:34:31Z</time>
      </trkpt>
      <trkpt lat="47.15556" lon="4.92025">
        <ele>354</ele>
        <time>2024-06-29T07:34:33Z</time>
      </trkpt>
      <trkpt lat="47.15557" lon="4.92023">
        <ele>355.5</ele>
        <time>2024-06-29T07:34:35Z</time>
      </trkpt>
      <trkpt lat="47.15558" lon="4.92022">
        <ele>354.3</ele>
        <time>2024-06-29T07:34:38Z</time>
      </trkpt>
      <trkpt lat="47.1556" lon="4.9202">
        <ele>354.5</ele>
        <time>2024-06-29T07:34:40Z</time>
      </trkpt>
      <trkpt lat="47.15561" lon="4.92018">
        <ele>353.8</ele>
        <time>2024-06-29T07:34:42Z</time>
      </trkpt>
      <trkpt lat="47.15563" lon="4.92016">
        <ele>355.3</ele>
        <time>2024-06-29T07:34:44Z</time>
      </trkpt>
      <trkpt lat="47.15564" lon="4.92015">
        <ele>354.3</ele>
        <time>2024-06-29T07:34:46Z</time>
      </trkpt>
      <trkpt lat="47.15566" lon="4.92014">
        <ele>354.4</ele>
        <time>2024-06-29T07:34:48Z</time>
      </trkpt>
      <trkpt lat="47.15567" lon="4.92013">
        <ele>354.4</ele>
        <time>2024-06-29T07:34:49Z</time>
      </trkpt>
      <trkpt lat="47.15568" lon="4.92012">
        <ele>353.7</ele>
        <time>2024-06-29T07:34:50Z</time>
      </trkpt>
      <trkpt lat="47.15569" lon="4.92011">
        <ele>353.9</ele>
        <time>2024-06-29T07:34:51Z</time>
      </trkpt>
      <trkpt lat="47.15569" lon="4.92009">
        <ele>353.6</ele>
        <time>2024-06-29T07:34:52Z</time>
      </trkpt>
      <trkpt lat="47.1557" lon="4.92008">
        <ele>353.3</ele>
        <time>2024-06-29T07:34:53Z</time>
      </trkpt>
      <trkpt lat="47.1557" lon="4.92006">
        <ele>353.2</ele>
        <time>2024-06-29T07:34:54Z</time>
      </trkpt>
      <trkpt lat="47.15571" lon="4.92004">
        <ele>352.4</ele>
        <time>2024-06-29T07:34:55Z</time>
      </trkpt>
      <trkpt lat="47.15571" lon="4.92002">
        <ele>353.1</ele>
        <time>2024-06-29T07:34:56Z</time>
      </trkpt>
      <trkpt lat="47.15572" lon="4.91999">
        <ele>353.3</ele>
        <time>2024-06-29T07:34:57Z</time>
      </trkpt>
      <trkpt lat="47.15572" lon="4.91997">
        <ele>353.3</ele>
        <time>2024-06-29T07:34:58Z</time>
      </trkpt>
      <trkpt lat="47.15573" lon="4.91995">
        <ele>355.7</ele>
        <time>2024-06-29T07:34:59Z</time>
      </trkpt>
      <trkpt lat="47.15572" lon="4.91993">
        <ele>355.4</ele>
        <time>2024-06-29T07:35:01Z</time>
      </trkpt>
      <trkpt lat="47.15571" lon="4.91991">
        <ele>354.7</ele>
        <time>2024-06-29T07:35:02Z</time>
      </trkpt>
      <trkpt lat="47.15571" lon="4.91989">
        <ele>354.5</ele>
        <time>2024-06-29T07:35:03Z</time>
      </trkpt>
      <trkpt lat="47.1557" lon="4.91987">
        <ele>354.1</ele>
        <time>2024-06-29T07:35:04Z</time>
      </trkpt>
      <trkpt lat="47.15569" lon="4.91986">
        <ele>352.9</ele>
        <time>2024-06-29T07:35:05Z</time>
      </trkpt>
      <trkpt lat="47.15568" lon="4.91984">
        <ele>351</ele>
        <time>2024-06-29T07:35:07Z</time>
      </trkpt>
      <trkpt lat="47.15567" lon="4.91982">
        <ele>351.5</ele>
        <time>2024-06-29T07:35:09Z</time>
      </trkpt>
      <trkpt lat="47.15567" lon="4.91981">
        <ele>350.8</ele>
        <time>2024-06-29T07:35:10Z</time>
      </trkpt>
      <trkpt lat="47.15566" lon="4.9198">
        <ele>350.6</ele>
        <time>2024-06-29T07:35:11Z</time>
      </trkpt>
      <trkpt lat="47.15565" lon="4.91978">
        <ele>351.3</ele>
        <time>2024-06-29T07:35:12Z</time>
      </trkpt>
      <trkpt lat="47.15564" lon="4.91976">
        <ele>351.8</ele>
        <time>2024-06-29T07:35:14Z</time>
      </trkpt>
      <trkpt lat="47.15564" lon="4.91974">
        <ele>352.1</ele>
        <time>2024-06-29T07:35:16Z</time>
      </trkpt>
      <trkpt lat="47.15563" lon="4.91973">
        <ele>348.9</ele>
        <time>2024-06-29T07:35:17Z</time>
      </trkpt>
      <trkpt lat="47.15562" lon="4.91972">
        <ele>349.1</ele>
        <time>2024-06-29T07:35:18Z</time>
      </trkpt>
      <trkpt lat="47.15562" lon="4.9197">
        <ele>348.9</ele>
        <time>2024-06-29T07:35:19Z</time>
      </trkpt>
      <trkpt lat="47.15561" lon="4.91969">
        <ele>350.7</ele>
        <time>2024-06-29T07:35:20Z</time>
      </trkpt>
      <trkpt lat="47.15561" lon="4.91968">
        <ele>350.7</ele>
        <time>2024-06-29T07:35:21Z</time>
      </trkpt>
      <trkpt lat="47.15561" lon="4.91966">
        <ele>352.5</ele>
        <time>2024-06-29T07:35:22Z</time>
      </trkpt>
      <trkpt lat="47.15561" lon="4.91964">
        <ele>353</ele>
        <time>2024-06-29T07:35:23Z</time>
      </trkpt>
      <trkpt lat="47.15562" lon="4.91962">
        <ele>352.8</ele>
        <time>2024-06-29T07:35:24Z</time>
      </trkpt>
      <trkpt lat="47.15561" lon="4.91961">
        <ele>352.2</ele>
        <time>2024-06-29T07:35:25Z</time>
      </trkpt>
      <trkpt lat="47.15561" lon="4.91959">
        <ele>351.2</ele>
        <time>2024-06-29T07:35:26Z</time>
      </trkpt>
      <trkpt lat="47.1556" lon="4.91958">
        <ele>353.1</ele>
        <time>2024-06-29T07:35:27Z</time>
      </trkpt>
      <trkpt lat="47.1556" lon="4.91957">
        <ele>353.1</ele>
        <time>2024-06-29T07:35:28Z</time>
      </trkpt>
      <trkpt lat="47.15559" lon="4.91955">
        <ele>353.8</ele>
        <time>2024-06-29T07:35:29Z</time>
      </trkpt>
      <trkpt lat="47.15558" lon="4.91954">
        <ele>354</ele>
        <time>2024-06-29T07:35:30Z</time>
      </trkpt>
      <trkpt lat="47.15558" lon="4.91952">
        <ele>353.7</ele>
        <time>2024-06-29T07:35:31Z</time>
      </trkpt>
      <trkpt lat="47.15557" lon="4.9195">
        <ele>353.7</ele>
        <time>2024-06-29T07:35:33Z</time>
      </trkpt>
      <trkpt lat="47.15556" lon="4.91949">
        <ele>353.7</ele>
        <time>2024-06-29T07:35:34Z</time>
      </trkpt>
      <trkpt lat="47.15556" lon="4.91947">
        <ele>353.4</ele>
        <time>2024-06-29T07:35:35Z</time>
      </trkpt>
      <trkpt lat="47.15555" lon="4.91945">
        <ele>353.4</ele>
        <time>2024-06-29T07:35:36Z</time>
      </trkpt>
      <trkpt lat="47.15555" lon="4.91944">
        <ele>352.8</ele>
        <time>2024-06-29T07:35:37Z</time>
      </trkpt>
      <trkpt lat="47.15555" lon="4.91941">
        <ele>352.9</ele>
        <time>2024-06-29T07:35:39Z</time>
      </trkpt>
      <trkpt lat="47.15555" lon="4.9194">
        <ele>353.7</ele>
        <time>2024-06-29T07:35:40Z</time>
      </trkpt>
      <trkpt lat="47.15555" lon="4.91939">
        <ele>354</ele>
        <time>2024-06-29T07:35:41Z</time>
      </trkpt>
      <trkpt lat="47.15555" lon="4.91937">
        <ele>353.9</ele>
        <time>2024-06-29T07:35:42Z</time>
      </trkpt>
      <trkpt lat="47.15555" lon="4.91935">
        <ele>352.1</ele>
        <time>2024-06-29T07:35:43Z</time>
      </trkpt>
      <trkpt lat="47.15554" lon="4.91933">
        <ele>352.8</ele>
        <time>2024-06-29T07:35:45Z</time>
      </trkpt>
      <trkpt lat="47.15554" lon="4.91931">
        <ele>350.5</ele>
        <time>2024-06-29T07:35:47Z</time>
      </trkpt>
      <trkpt lat="47.15554" lon="4.91929">
        <ele>350.9</ele>
        <time>2024-06-29T07:35:49Z</time>
      </trkpt>
      <trkpt lat="47.15554" lon="4.91927">
        <ele>351.9</ele>
        <time>2024-06-29T07:35:51Z</time>
      </trkpt>
      <trkpt lat="47.15553" lon="4.91925">
        <ele>352.3</ele>
        <time>2024-06-29T07:35:53Z</time>
      </trkpt>
      <trkpt lat="47.15553" lon="4.91923">
        <ele>351.6</ele>
        <time>2024-06-29T07:35:55Z</time>
      </trkpt>
      <trkpt lat="47.15552" lon="4.91921">
        <ele>352.6</ele>
        <time>2024-06-29T07:35:57Z</time>
      </trkpt>
      <trkpt lat="47.15552" lon="4.91919">
        <ele>351.6</ele>
        <time>2024-06-29T07:35:59Z</time>
      </trkpt>
      <trkpt lat="47.15551" lon="4.91918">
        <ele>354.7</ele>
        <time>2024-06-29T07:36:01Z</time>
      </trkpt>
      <trkpt lat="47.1555" lon="4.91917">
        <ele>354.8</ele>
        <time>2024-06-29T07:36:02Z</time>
      </trkpt>
      <trkpt lat="47.15549" lon="4.91916">
        <ele>354.8</ele>
        <time>2024-06-29T07:36:03Z</time>
      </trkpt>
      <trkpt lat="47.15549" lon="4.91915">
        <ele>356</ele>
        <time>2024-06-29T07:36:04Z</time>
      </trkpt>
      <trkpt lat="47.15549" lon="4.91913">
        <ele>356.9</ele>
        <time>2024-06-29T07:36:06Z</time>
      </trkpt>
      <trkpt lat="47.15549" lon="4.91912">
        <ele>356.3</ele>
        <time>2024-06-29T07:36:07Z</time>
      </trkpt>
      <trkpt lat="47.15549" lon="4.9191">
        <ele>357.4</ele>
        <time>2024-06-29T07:36:09Z</time>
      </trkpt>
      <trkpt lat="47.1555" lon="4.91908">
        <ele>357.2</ele>
        <time>2024-06-29T07:36:11Z</time>
      </trkpt>
      <trkpt lat="47.15551" lon="4.91906">
        <ele>357.5</ele>
        <time>2024-06-29T07:36:13Z</time>
      </trkpt>
      <trkpt lat="47.15551" lon="4.91905">
        <ele>357.6</ele>
        <time>2024-06-29T07:36:14Z</time>
      </trkpt>
      <trkpt lat="47.15552" lon="4.91904">
        <ele>358.3</ele>
        <time>2024-06-29T07:36:15Z</time>
      </trkpt>
      <trkpt lat="47.15553" lon="4.91903">
        <ele>357.1</ele>
        <time>2024-06-29T07:36:17Z</time>
      </trkpt>
      <trkpt lat="47.15554" lon="4.91902">
        <ele>355.1</ele>
        <time>2024-06-29T07:36:19Z</time>
      </trkpt>
      <trkpt lat="47.15555" lon="4.919">
        <ele>354.5</ele>
        <time>2024-06-29T07:36:21Z</time>
      </trkpt>
      <trkpt lat="47.15557" lon="4.91899">
        <ele>354.6</ele>
        <time>2024-06-29T07:36:23Z</time>
      </trkpt>
      <trkpt lat="47.15557" lon="4.91898">
        <ele>353.7</ele>
        <time>2024-06-29T07:36:24Z</time>
      </trkpt>
      <trkpt lat="47.15558" lon="4.91897">
        <ele>353.8</ele>
        <time>2024-06-29T07:36:25Z</time>
      </trkpt>
      <trkpt lat="47.15559" lon="4.91895">
        <ele>352.9</ele>
        <time>2024-06-29T07:36:26Z</time>
      </trkpt>
      <trkpt lat="47.15559" lon="4.91893">
        <ele>353.4</ele>
        <time>2024-06-29T07:36:27Z</time>
      </trkpt>
      <trkpt lat="47.1556" lon="4.91891">
        <ele>351.9</ele>
        <time>2024-06-29T07:36:28Z</time>
      </trkpt>
      <trkpt lat="47.15561" lon="4.91889">
        <ele>352.6</ele>
        <time>2024-06-29T07:36:29Z</time>
      </trkpt>
      <trkpt lat="47.15561" lon="4.91888">
        <ele>352.5</ele>
        <time>2024-06-29T07:36:30Z</time>
      </trkpt>
      <trkpt lat="47.15561" lon="4.91887">
        <ele>352.8</ele>
        <time>2024-06-29T07:36:31Z</time>
      </trkpt>
      <trkpt lat="47.15562" lon="4.91886">
        <ele>352.8</ele>
        <time>2024-06-29T07:36:32Z</time>
      </trkpt>
      <trkpt lat="47.15563" lon="4.91883">
        <ele>351.3</ele>
        <time>2024-06-29T07:36:34Z</time>
      </trkpt>
      <trkpt lat="47.15564" lon="4.91881">
        <ele>351.6</ele>
        <time>2024-06-29T07:36:35Z</time>
      </trkpt>
      <trkpt lat="47.15564" lon="4.9188">
        <ele>351.7</ele>
        <time>2024-06-29T07:36:36Z</time>
      </trkpt>
      <trkpt lat="47.15565" lon="4.91878">
        <ele>351</ele>
        <time>2024-06-29T07:36:37Z</time>
      </trkpt>
      <trkpt lat="47.15565" lon="4.91876">
        <ele>351.9</ele>
        <time>2024-06-29T07:36:38Z</time>
      </trkpt>
      <trkpt lat="47.15566" lon="4.91875">
        <ele>352.6</ele>
        <time>2024-06-29T07:36:39Z</time>
      </trkpt>
      <trkpt lat="47.15567" lon="4.91874">
        <ele>353.1</ele>
        <time>2024-06-29T07:36:40Z</time>
      </trkpt>
      <trkpt lat="47.15568" lon="4.91873">
        <ele>353.4</ele>
        <time>2024-06-29T07:36:42Z</time>
      </trkpt>
      <trkpt lat="47.15569" lon="4.91872">
        <ele>352.1</ele>
        <time>2024-06-29T07:36:44Z</time>
      </trkpt>
      <trkpt lat="47.1557" lon="4.91871">
        <ele>351.6</ele>
        <time>2024-06-29T07:36:45Z</time>
      </trkpt>
      <trkpt lat="47.15571" lon="4.91869">
        <ele>351.9</ele>
        <time>2024-06-29T07:36:46Z</time>
      </trkpt>
      <trkpt lat="47.15571" lon="4.91867">
        <ele>351.8</ele>
        <time>2024-06-29T07:36:47Z</time>
      </trkpt>
      <trkpt lat="47.15572" lon="4.91866">
        <ele>351.2</ele>
        <time>2024-06-29T07:36:48Z</time>
      </trkpt>
      <trkpt lat="47.15572" lon="4.91865">
        <ele>350.8</ele>
        <time>2024-06-29T07:36:49Z</time>
      </trkpt>
      <trkpt lat="47.15573" lon="4.91863">
        <ele>349.6</ele>
        <time>2024-06-29T07:36:50Z</time>
      </trkpt>
      <trkpt lat="47.15573" lon="4.91862">
        <ele>352.9</ele>
        <time>2024-06-29T07:36:51Z</time>
      </trkpt>
      <trkpt lat="47.15574" lon="4.9186">
        <ele>352.6</ele>
        <time>2024-06-29T07:36:53Z</time>
      </trkpt>
      <trkpt lat="47.15575" lon="4.91858">
        <ele>352.3</ele>
        <time>2024-06-29T07:36:54Z</time>
      </trkpt>
      <trkpt lat="47.15576" lon="4.91857">
        <ele>351.8</ele>
        <time>2024-06-29T07:36:55Z</time>
      </trkpt>
      <trkpt lat="47.15576" lon="4.91856">
        <ele>351.3</ele>
        <time>2024-06-29T07:36:56Z</time>
      </trkpt>
      <trkpt lat="47.15577" lon="4.91855">
        <ele>351.2</ele>
        <time>2024-06-29T07:36:58Z</time>
      </trkpt>
      <trkpt lat="47.15579" lon="4.91854">
        <ele>350.9</ele>
        <time>2024-06-29T07:37:01Z</time>
      </trkpt>
      <trkpt lat="47.1558" lon="4.91853">
        <ele>351.2</ele>
        <time>2024-06-29T07:37:03Z</time>
      </trkpt>
      <trkpt lat="47.1558" lon="4.91852">
        <ele>352.9</ele>
        <time>2024-06-29T07:37:04Z</time>
      </trkpt>
      <trkpt lat="47.15582" lon="4.91851">
        <ele>352.8</ele>
        <time>2024-06-29T07:37:06Z</time>
      </trkpt>
      <trkpt lat="47.15582" lon="4.9185">
        <ele>352.7</ele>
        <time>2024-06-29T07:37:07Z</time>
      </trkpt>
      <trkpt lat="47.15583" lon="4.91848">
        <ele>352.8</ele>
        <time>2024-06-29T07:37:08Z</time>
      </trkpt>
      <trkpt lat="47.15584" lon="4.91847">
        <ele>354.6</ele>
        <time>2024-06-29T07:37:10Z</time>
      </trkpt>
      <trkpt lat="47.15584" lon="4.91846">
        <ele>352.3</ele>
        <time>2024-06-29T07:37:19Z</time>
      </trkpt>
      <trkpt lat="47.15585" lon="4.91844">
        <ele>351.5</ele>
        <time>2024-06-29T07:37:21Z</time>
      </trkpt>
      <trkpt lat="47.15586" lon="4.91842">
        <ele>350.3</ele>
        <time>2024-06-29T07:37:23Z</time>
      </trkpt>
      <trkpt lat="47.15587" lon="4.91838">
        <ele>351</ele>
        <time>2024-06-29T07:37:25Z</time>
      </trkpt>
      <trkpt lat="47.15587" lon="4.91837">
        <ele>351.4</ele>
        <time>2024-06-29T07:37:26Z</time>
      </trkpt>
      <trkpt lat="47.15588" lon="4.91836">
        <ele>351.8</ele>
        <time>2024-06-29T07:37:27Z</time>
      </trkpt>
      <trkpt lat="47.15589" lon="4.91835">
        <ele>353.4</ele>
        <time>2024-06-29T07:37:28Z</time>
      </trkpt>
      <trkpt lat="47.1559" lon="4.91833">
        <ele>352.1</ele>
        <time>2024-06-29T07:37:30Z</time>
      </trkpt>
      <trkpt lat="47.15591" lon="4.91833">
        <ele>353.6</ele>
        <time>2024-06-29T07:37:33Z</time>
      </trkpt>
      <trkpt lat="47.15593" lon="4.91832">
        <ele>354.4</ele>
        <time>2024-06-29T07:37:35Z</time>
      </trkpt>
      <trkpt lat="47.15594" lon="4.91831">
        <ele>355.7</ele>
        <time>2024-06-29T07:37:36Z</time>
      </trkpt>
      <trkpt lat="47.15595" lon="4.9183">
        <ele>355.8</ele>
        <time>2024-06-29T07:37:37Z</time>
      </trkpt>
      <trkpt lat="47.15596" lon="4.91828">
        <ele>355.2</ele>
        <time>2024-06-29T07:37:38Z</time>
      </trkpt>
      <trkpt lat="47.15597" lon="4.91827">
        <ele>353.6</ele>
        <time>2024-06-29T07:37:39Z</time>
      </trkpt>
      <trkpt lat="47.15598" lon="4.91826">
        <ele>353.3</ele>
        <time>2024-06-29T07:37:40Z</time>
      </trkpt>
      <trkpt lat="47.15599" lon="4.91825">
        <ele>352.5</ele>
        <time>2024-06-29T07:37:41Z</time>
      </trkpt>
      <trkpt lat="47.156" lon="4.91823">
        <ele>351.7</ele>
        <time>2024-06-29T07:37:42Z</time>
      </trkpt>
      <trkpt lat="47.156" lon="4.91821">
        <ele>352.2</ele>
        <time>2024-06-29T07:37:43Z</time>
      </trkpt>
      <trkpt lat="47.15601" lon="4.9182">
        <ele>352.2</ele>
        <time>2024-06-29T07:37:44Z</time>
      </trkpt>
      <trkpt lat="47.15602" lon="4.91819">
        <ele>352.7</ele>
        <time>2024-06-29T07:37:45Z</time>
      </trkpt>
      <trkpt lat="47.15603" lon="4.91817">
        <ele>350.7</ele>
        <time>2024-06-29T07:37:46Z</time>
      </trkpt>
      <trkpt lat="47.15604" lon="4.91815">
        <ele>350.9</ele>
        <time>2024-06-29T07:37:47Z</time>
      </trkpt>
      <trkpt lat="47.15605" lon="4.91813">
        <ele>348.7</ele>
        <time>2024-06-29T07:37:48Z</time>
      </trkpt>
      <trkpt lat="47.15605" lon="4.91811">
        <ele>348.4</ele>
        <time>2024-06-29T07:37:49Z</time>
      </trkpt>
      <trkpt lat="47.15606" lon="4.9181">
        <ele>348.7</ele>
        <time>2024-06-29T07:37:50Z</time>
      </trkpt>
      <trkpt lat="47.15608" lon="4.91808">
        <ele>347.7</ele>
        <time>2024-06-29T07:37:52Z</time>
      </trkpt>
      <trkpt lat="47.15608" lon="4.91807">
        <ele>346.9</ele>
        <time>2024-06-29T07:37:53Z</time>
      </trkpt>
      <trkpt lat="47.1561" lon="4.91805">
        <ele>345.6</ele>
        <time>2024-06-29T07:37:55Z</time>
      </trkpt>
      <trkpt lat="47.1561" lon="4.91804">
        <ele>345</ele>
        <time>2024-06-29T07:37:56Z</time>
      </trkpt>
      <trkpt lat="47.15611" lon="4.91802">
        <ele>344.7</ele>
        <time>2024-06-29T07:37:57Z</time>
      </trkpt>
      <trkpt lat="47.15611" lon="4.91801">
        <ele>346.2</ele>
        <time>2024-06-29T07:37:59Z</time>
      </trkpt>
      <trkpt lat="47.15613" lon="4.918">
        <ele>346.1</ele>
        <time>2024-06-29T07:38:01Z</time>
      </trkpt>
      <trkpt lat="47.15614" lon="4.91799">
        <ele>345.9</ele>
        <time>2024-06-29T07:38:04Z</time>
      </trkpt>
      <trkpt lat="47.15615" lon="4.91797">
        <ele>346.7</ele>
        <time>2024-06-29T07:38:06Z</time>
      </trkpt>
      <trkpt lat="47.15616" lon="4.91797">
        <ele>345.6</ele>
        <time>2024-06-29T07:38:07Z</time>
      </trkpt>
      <trkpt lat="47.15617" lon="4.91796">
        <ele>345.2</ele>
        <time>2024-06-29T07:38:08Z</time>
      </trkpt>
      <trkpt lat="47.15618" lon="4.91794">
        <ele>345</ele>
        <time>2024-06-29T07:38:09Z</time>
      </trkpt>
      <trkpt lat="47.15618" lon="4.91793">
        <ele>343.2</ele>
        <time>2024-06-29T07:38:10Z</time>
      </trkpt>
      <trkpt lat="47.15619" lon="4.91792">
        <ele>342.3</ele>
        <time>2024-06-29T07:38:11Z</time>
      </trkpt>
      <trkpt lat="47.1562" lon="4.91791">
        <ele>343.2</ele>
        <time>2024-06-29T07:38:13Z</time>
      </trkpt>
      <trkpt lat="47.15621" lon="4.91791">
        <ele>343.8</ele>
        <time>2024-06-29T07:38:15Z</time>
      </trkpt>
      <trkpt lat="47.15623" lon="4.91791">
        <ele>345.2</ele>
        <time>2024-06-29T07:38:17Z</time>
      </trkpt>
      <trkpt lat="47.15624" lon="4.91791">
        <ele>345.4</ele>
        <time>2024-06-29T07:38:18Z</time>
      </trkpt>
      <trkpt lat="47.15625" lon="4.91791">
        <ele>345.8</ele>
        <time>2024-06-29T07:38:19Z</time>
      </trkpt>
      <trkpt lat="47.15625" lon="4.91792">
        <ele>346.4</ele>
        <time>2024-06-29T07:38:20Z</time>
      </trkpt>
      <trkpt lat="47.15627" lon="4.91793">
        <ele>349.2</ele>
        <time>2024-06-29T07:38:22Z</time>
      </trkpt>
      <trkpt lat="47.15627" lon="4.91795">
        <ele>351</ele>
        <time>2024-06-29T07:38:24Z</time>
      </trkpt>
      <trkpt lat="47.15628" lon="4.91793">
        <ele>351.9</ele>
        <time>2024-06-29T07:38:26Z</time>
      </trkpt>
      <trkpt lat="47.15629" lon="4.91791">
        <ele>352.8</ele>
        <time>2024-06-29T07:38:28Z</time>
      </trkpt>
      <trkpt lat="47.15629" lon="4.91789">
        <ele>353.3</ele>
        <time>2024-06-29T07:38:29Z</time>
      </trkpt>
      <trkpt lat="47.15629" lon="4.91788">
        <ele>353.9</ele>
        <time>2024-06-29T07:38:30Z</time>
      </trkpt>
      <trkpt lat="47.15629" lon="4.91786">
        <ele>354.4</ele>
        <time>2024-06-29T07:38:31Z</time>
      </trkpt>
      <trkpt lat="47.15629" lon="4.91785">
        <ele>354.7</ele>
        <time>2024-06-29T07:38:32Z</time>
      </trkpt>
      <trkpt lat="47.1563" lon="4.91783">
        <ele>355.7</ele>
        <time>2024-06-29T07:38:34Z</time>
      </trkpt>
      <trkpt lat="47.1563" lon="4.91782">
        <ele>356</ele>
        <time>2024-06-29T07:38:36Z</time>
      </trkpt>
      <trkpt lat="47.15631" lon="4.9178">
        <ele>356.8</ele>
        <time>2024-06-29T07:38:38Z</time>
      </trkpt>
      <trkpt lat="47.15631" lon="4.91777">
        <ele>357.5</ele>
        <time>2024-06-29T07:38:40Z</time>
      </trkpt>
      <trkpt lat="47.15632" lon="4.91776">
        <ele>358.3</ele>
        <time>2024-06-29T07:38:42Z</time>
      </trkpt>
      <trkpt lat="47.15633" lon="4.91775">
        <ele>358.7</ele>
        <time>2024-06-29T07:38:45Z</time>
      </trkpt>
      <trkpt lat="47.15634" lon="4.91775">
        <ele>358.9</ele>
        <time>2024-06-29T07:38:53Z</time>
      </trkpt>
      <trkpt lat="47.15635" lon="4.91773">
        <ele>358.8</ele>
        <time>2024-06-29T07:38:55Z</time>
      </trkpt>
      <trkpt lat="47.15636" lon="4.91773">
        <ele>358.8</ele>
        <time>2024-06-29T07:38:57Z</time>
      </trkpt>
      <trkpt lat="47.15636" lon="4.91772">
        <ele>359</ele>
        <time>2024-06-29T07:39:09Z</time>
      </trkpt>
      <trkpt lat="47.15637" lon="4.91773">
        <ele>358.7</ele>
        <time>2024-06-29T07:39:52Z</time>
      </trkpt>
      <trkpt lat="47.15637" lon="4.91771">
        <ele>359.1</ele>
        <time>2024-06-29T07:40:02Z</time>
      </trkpt>
      <trkpt lat="47.15638" lon="4.9177">
        <ele>359.2</ele>
        <time>2024-06-29T07:40:04Z</time>
      </trkpt>
      <trkpt lat="47.15639" lon="4.91769">
        <ele>359.3</ele>
        <time>2024-06-29T07:40:06Z</time>
      </trkpt>
      <trkpt lat="47.1564" lon="4.91767">
        <ele>359</ele>
        <time>2024-06-29T07:40:08Z</time>
      </trkpt>
      <trkpt lat="47.15642" lon="4.91765">
        <ele>359.3</ele>
        <time>2024-06-29T07:40:10Z</time>
      </trkpt>
      <trkpt lat="47.15642" lon="4.91764">
        <ele>358.5</ele>
        <time>2024-06-29T07:40:11Z</time>
      </trkpt>
      <trkpt lat="47.15643" lon="4.91763">
        <ele>358.2</ele>
        <time>2024-06-29T07:40:12Z</time>
      </trkpt>
      <trkpt lat="47.15644" lon="4.91762">
        <ele>358.7</ele>
        <time>2024-06-29T07:40:13Z</time>
      </trkpt>
      <trkpt lat="47.15645" lon="4.91761">
        <ele>359.1</ele>
        <time>2024-06-29T07:40:14Z</time>
      </trkpt>
      <trkpt lat="47.15646" lon="4.9176">
        <ele>358.3</ele>
        <time>2024-06-29T07:40:15Z</time>
      </trkpt>
      <trkpt lat="47.15646" lon="4.91759">
        <ele>359</ele>
        <time>2024-06-29T07:40:16Z</time>
      </trkpt>
      <trkpt lat="47.15647" lon="4.91758">
        <ele>358.8</ele>
        <time>2024-06-29T07:40:17Z</time>
      </trkpt>
      <trkpt lat="47.15647" lon="4.91757">
        <ele>359.1</ele>
        <time>2024-06-29T07:40:18Z</time>
      </trkpt>
      <trkpt lat="47.15648" lon="4.91755">
        <ele>358.9</ele>
        <time>2024-06-29T07:40:19Z</time>
      </trkpt>
      <trkpt lat="47.15648" lon="4.91754">
        <ele>360.5</ele>
        <time>2024-06-29T07:40:20Z</time>
      </trkpt>
      <trkpt lat="47.15649" lon="4.91754">
        <ele>360.8</ele>
        <time>2024-06-29T07:40:21Z</time>
      </trkpt>
      <trkpt lat="47.1565" lon="4.91753">
        <ele>361.5</ele>
        <time>2024-06-29T07:40:22Z</time>
      </trkpt>
      <trkpt lat="47.15651" lon="4.91752">
        <ele>359.1</ele>
        <time>2024-06-29T07:40:23Z</time>
      </trkpt>
      <trkpt lat="47.15652" lon="4.91751">
        <ele>358.8</ele>
        <time>2024-06-29T07:40:24Z</time>
      </trkpt>
      <trkpt lat="47.15653" lon="4.9175">
        <ele>358.4</ele>
        <time>2024-06-29T07:40:25Z</time>
      </trkpt>
      <trkpt lat="47.15654" lon="4.91749">
        <ele>355.4</ele>
        <time>2024-06-29T07:40:26Z</time>
      </trkpt>
      <trkpt lat="47.15655" lon="4.91748">
        <ele>355.9</ele>
        <time>2024-06-29T07:40:27Z</time>
      </trkpt>
      <trkpt lat="47.15656" lon="4.91747">
        <ele>356</ele>
        <time>2024-06-29T07:40:28Z</time>
      </trkpt>
      <trkpt lat="47.15657" lon="4.91747">
        <ele>355.6</ele>
        <time>2024-06-29T07:40:29Z</time>
      </trkpt>
      <trkpt lat="47.15659" lon="4.91745">
        <ele>357.6</ele>
        <time>2024-06-29T07:40:31Z</time>
      </trkpt>
      <trkpt lat="47.15659" lon="4.91743">
        <ele>356.2</ele>
        <time>2024-06-29T07:40:33Z</time>
      </trkpt>
      <trkpt lat="47.1566" lon="4.91742">
        <ele>357.4</ele>
        <time>2024-06-29T07:40:34Z</time>
      </trkpt>
      <trkpt lat="47.15661" lon="4.91741">
        <ele>355.7</ele>
        <time>2024-06-29T07:40:35Z</time>
      </trkpt>
      <trkpt lat="47.15662" lon="4.91739">
        <ele>355.4</ele>
        <time>2024-06-29T07:40:36Z</time>
      </trkpt>
      <trkpt lat="47.15662" lon="4.91738">
        <ele>356.6</ele>
        <time>2024-06-29T07:40:37Z</time>
      </trkpt>
      <trkpt lat="47.15663" lon="4.91738">
        <ele>356.4</ele>
        <time>2024-06-29T07:40:38Z</time>
      </trkpt>
      <trkpt lat="47.15664" lon="4.91737">
        <ele>356.4</ele>
        <time>2024-06-29T07:40:39Z</time>
      </trkpt>
      <trkpt lat="47.15665" lon="4.91736">
        <ele>356.1</ele>
        <time>2024-06-29T07:40:40Z</time>
      </trkpt>
      <trkpt lat="47.15666" lon="4.91735">
        <ele>355.6</ele>
        <time>2024-06-29T07:40:41Z</time>
      </trkpt>
      <trkpt lat="47.15667" lon="4.91734">
        <ele>355.7</ele>
        <time>2024-06-29T07:40:42Z</time>
      </trkpt>
      <trkpt lat="47.15668" lon="4.91733">
        <ele>355.7</ele>
        <time>2024-06-29T07:40:43Z</time>
      </trkpt>
      <trkpt lat="47.15668" lon="4.91732">
        <ele>355.5</ele>
        <time>2024-06-29T07:40:44Z</time>
      </trkpt>
      <trkpt lat="47.1567" lon="4.91731">
        <ele>356</ele>
        <time>2024-06-29T07:40:46Z</time>
      </trkpt>
      <trkpt lat="47.1567" lon="4.91729">
        <ele>355.9</ele>
        <time>2024-06-29T07:40:47Z</time>
      </trkpt>
      <trkpt lat="47.15671" lon="4.91728">
        <ele>356</ele>
        <time>2024-06-29T07:40:48Z</time>
      </trkpt>
      <trkpt lat="47.15672" lon="4.91727">
        <ele>356</ele>
        <time>2024-06-29T07:40:49Z</time>
      </trkpt>
      <trkpt lat="47.15673" lon="4.91725">
        <ele>356.8</ele>
        <time>2024-06-29T07:40:51Z</time>
      </trkpt>
      <trkpt lat="47.15674" lon="4.91724">
        <ele>356.4</ele>
        <time>2024-06-29T07:40:53Z</time>
      </trkpt>
      <trkpt lat="47.15675" lon="4.91723">
        <ele>356.6</ele>
        <time>2024-06-29T07:40:54Z</time>
      </trkpt>
      <trkpt lat="47.15676" lon="4.91722">
        <ele>356.5</ele>
        <time>2024-06-29T07:40:55Z</time>
      </trkpt>
      <trkpt lat="47.15677" lon="4.91721">
        <ele>356.5</ele>
        <time>2024-06-29T07:40:56Z</time>
      </trkpt>
      <trkpt lat="47.15677" lon="4.91719">
        <ele>356.5</ele>
        <time>2024-06-29T07:40:57Z</time>
      </trkpt>
      <trkpt lat="47.15678" lon="4.91718">
        <ele>356.5</ele>
        <time>2024-06-29T07:40:58Z</time>
      </trkpt>
      <trkpt lat="47.15678" lon="4.91717">
        <ele>356.4</ele>
        <time>2024-06-29T07:40:59Z</time>
      </trkpt>
      <trkpt lat="47.15679" lon="4.91716">
        <ele>356.4</ele>
        <time>2024-06-29T07:41:00Z</time>
      </trkpt>
      <trkpt lat="47.1568" lon="4.91715">
        <ele>356.3</ele>
        <time>2024-06-29T07:41:01Z</time>
      </trkpt>
      <trkpt lat="47.15681" lon="4.91714">
        <ele>356.3</ele>
        <time>2024-06-29T07:41:02Z</time>
      </trkpt>
      <trkpt lat="47.15682" lon="4.91713">
        <ele>356.4</ele>
        <time>2024-06-29T07:41:03Z</time>
      </trkpt>
      <trkpt lat="47.15682" lon="4.91712">
        <ele>356.6</ele>
        <time>2024-06-29T07:41:04Z</time>
      </trkpt>
      <trkpt lat="47.15683" lon="4.9171">
        <ele>356.4</ele>
        <time>2024-06-29T07:41:05Z</time>
      </trkpt>
      <trkpt lat="47.15684" lon="4.91709">
        <ele>356.1</ele>
        <time>2024-06-29T07:41:06Z</time>
      </trkpt>
      <trkpt lat="47.15684" lon="4.91708">
        <ele>355.4</ele>
        <time>2024-06-29T07:41:07Z</time>
      </trkpt>
      <trkpt lat="47.15685" lon="4.91707">
        <ele>355.6</ele>
        <time>2024-06-29T07:41:08Z</time>
      </trkpt>
      <trkpt lat="47.15685" lon="4.91705">
        <ele>355</ele>
        <time>2024-06-29T07:41:09Z</time>
      </trkpt>
      <trkpt lat="47.15686" lon="4.91703">
        <ele>355</ele>
        <time>2024-06-29T07:41:10Z</time>
      </trkpt>
      <trkpt lat="47.15686" lon="4.91702">
        <ele>354.1</ele>
        <time>2024-06-29T07:41:12Z</time>
      </trkpt>
      <trkpt lat="47.15686" lon="4.917">
        <ele>354.2</ele>
        <time>2024-06-29T07:41:14Z</time>
      </trkpt>
      <trkpt lat="47.15687" lon="4.91699">
        <ele>353.6</ele>
        <time>2024-06-29T07:41:15Z</time>
      </trkpt>
      <trkpt lat="47.15688" lon="4.91697">
        <ele>352.8</ele>
        <time>2024-06-29T07:41:16Z</time>
      </trkpt>
      <trkpt lat="47.15689" lon="4.91696">
        <ele>351.5</ele>
        <time>2024-06-29T07:41:18Z</time>
      </trkpt>
      <trkpt lat="47.15691" lon="4.91695">
        <ele>352</ele>
        <time>2024-06-29T07:41:20Z</time>
      </trkpt>
      <trkpt lat="47.15692" lon="4.91694">
        <ele>352.8</ele>
        <time>2024-06-29T07:41:22Z</time>
      </trkpt>
      <trkpt lat="47.15693" lon="4.91693">
        <ele>353.4</ele>
        <time>2024-06-29T07:41:24Z</time>
      </trkpt>
      <trkpt lat="47.15694" lon="4.91691">
        <ele>354.1</ele>
        <time>2024-06-29T07:41:26Z</time>
      </trkpt>
      <trkpt lat="47.15694" lon="4.91689">
        <ele>354.8</ele>
        <time>2024-06-29T07:41:31Z</time>
      </trkpt>
      <trkpt lat="47.15695" lon="4.91687">
        <ele>355.3</ele>
        <time>2024-06-29T07:41:33Z</time>
      </trkpt>
      <trkpt lat="47.15696" lon="4.91686">
        <ele>355.3</ele>
        <time>2024-06-29T07:41:35Z</time>
      </trkpt>
      <trkpt lat="47.15696" lon="4.91684">
        <ele>355.1</ele>
        <time>2024-06-29T07:41:37Z</time>
      </trkpt>
      <trkpt lat="47.15697" lon="4.91683">
        <ele>355.3</ele>
        <time>2024-06-29T07:41:39Z</time>
      </trkpt>
      <trkpt lat="47.15698" lon="4.91681">
        <ele>356</ele>
        <time>2024-06-29T07:41:41Z</time>
      </trkpt>
      <trkpt lat="47.15699" lon="4.91679">
        <ele>356</ele>
        <time>2024-06-29T07:41:43Z</time>
      </trkpt>
      <trkpt lat="47.157" lon="4.91677">
        <ele>356.6</ele>
        <time>2024-06-29T07:41:45Z</time>
      </trkpt>
      <trkpt lat="47.15701" lon="4.91675">
        <ele>356.6</ele>
        <time>2024-06-29T07:41:47Z</time>
      </trkpt>
      <trkpt lat="47.15702" lon="4.91674">
        <ele>356.9</ele>
        <time>2024-06-29T07:41:48Z</time>
      </trkpt>
      <trkpt lat="47.15703" lon="4.91673">
        <ele>357.4</ele>
        <time>2024-06-29T07:41:49Z</time>
      </trkpt>
      <trkpt lat="47.15704" lon="4.91671">
        <ele>359.5</ele>
        <time>2024-06-29T07:41:51Z</time>
      </trkpt>
      <trkpt lat="47.15705" lon="4.91671">
        <ele>360</ele>
        <time>2024-06-29T07:41:52Z</time>
      </trkpt>
      <trkpt lat="47.15706" lon="4.9167">
        <ele>359.8</ele>
        <time>2024-06-29T07:41:53Z</time>
      </trkpt>
      <trkpt lat="47.15707" lon="4.91669">
        <ele>359.7</ele>
        <time>2024-06-29T07:41:54Z</time>
      </trkpt>
      <trkpt lat="47.15708" lon="4.91667">
        <ele>360.2</ele>
        <time>2024-06-29T07:41:55Z</time>
      </trkpt>
      <trkpt lat="47.15709" lon="4.91665">
        <ele>359.2</ele>
        <time>2024-06-29T07:41:57Z</time>
      </trkpt>
      <trkpt lat="47.1571" lon="4.91664">
        <ele>358.1</ele>
        <time>2024-06-29T07:41:58Z</time>
      </trkpt>
      <trkpt lat="47.1571" lon="4.91662">
        <ele>358</ele>
        <time>2024-06-29T07:41:59Z</time>
      </trkpt>
      <trkpt lat="47.15711" lon="4.91661">
        <ele>356.8</ele>
        <time>2024-06-29T07:42:00Z</time>
      </trkpt>
      <trkpt lat="47.15712" lon="4.91659">
        <ele>357.5</ele>
        <time>2024-06-29T07:42:01Z</time>
      </trkpt>
      <trkpt lat="47.15712" lon="4.91658">
        <ele>358</ele>
        <time>2024-06-29T07:42:02Z</time>
      </trkpt>
      <trkpt lat="47.15713" lon="4.91657">
        <ele>357.8</ele>
        <time>2024-06-29T07:42:03Z</time>
      </trkpt>
      <trkpt lat="47.15715" lon="4.91656">
        <ele>358.2</ele>
        <time>2024-06-29T07:42:05Z</time>
      </trkpt>
      <trkpt lat="47.15716" lon="4.91655">
        <ele>357.5</ele>
        <time>2024-06-29T07:42:06Z</time>
      </trkpt>
      <trkpt lat="47.15717" lon="4.91654">
        <ele>358.9</ele>
        <time>2024-06-29T07:42:07Z</time>
      </trkpt>
      <trkpt lat="47.15717" lon="4.91653">
        <ele>358.8</ele>
        <time>2024-06-29T07:42:08Z</time>
      </trkpt>
      <trkpt lat="47.15719" lon="4.91651">
        <ele>358.6</ele>
        <time>2024-06-29T07:42:10Z</time>
      </trkpt>
      <trkpt lat="47.1572" lon="4.91649">
        <ele>358.8</ele>
        <time>2024-06-29T07:42:12Z</time>
      </trkpt>
      <trkpt lat="47.15721" lon="4.91648">
        <ele>358.6</ele>
        <time>2024-06-29T07:42:14Z</time>
      </trkpt>
      <trkpt lat="47.15722" lon="4.91647">
        <ele>358.4</ele>
        <time>2024-06-29T07:42:16Z</time>
      </trkpt>
      <trkpt lat="47.15723" lon="4.91645">
        <ele>358.2</ele>
        <time>2024-06-29T07:42:18Z</time>
      </trkpt>
      <trkpt lat="47.15724" lon="4.91644">
        <ele>358.6</ele>
        <time>2024-06-29T07:42:20Z</time>
      </trkpt>
      <trkpt lat="47.15725" lon="4.91642">
        <ele>358.9</ele>
        <time>2024-06-29T07:42:22Z</time>
      </trkpt>
      <trkpt lat="47.15726" lon="4.9164">
        <ele>359.1</ele>
        <time>2024-06-29T07:42:24Z</time>
      </trkpt>
      <trkpt lat="47.15727" lon="4.91639">
        <ele>358.9</ele>
        <time>2024-06-29T07:42:25Z</time>
      </trkpt>
      <trkpt lat="47.15728" lon="4.91638">
        <ele>358.7</ele>
        <time>2024-06-29T07:42:27Z</time>
      </trkpt>
      <trkpt lat="47.1573" lon="4.91636">
        <ele>358.4</ele>
        <time>2024-06-29T07:42:29Z</time>
      </trkpt>
      <trkpt lat="47.15731" lon="4.91634">
        <ele>358.7</ele>
        <time>2024-06-29T07:42:31Z</time>
      </trkpt>
      <trkpt lat="47.15732" lon="4.91633">
        <ele>358.8</ele>
        <time>2024-06-29T07:42:33Z</time>
      </trkpt>
      <trkpt lat="47.15733" lon="4.91631">
        <ele>360.2</ele>
        <time>2024-06-29T07:42:35Z</time>
      </trkpt>
      <trkpt lat="47.15734" lon="4.91629">
        <ele>360.9</ele>
        <time>2024-06-29T07:42:37Z</time>
      </trkpt>
      <trkpt lat="47.15735" lon="4.91627">
        <ele>360.5</ele>
        <time>2024-06-29T07:42:39Z</time>
      </trkpt>
      <trkpt lat="47.15737" lon="4.91625">
        <ele>361.3</ele>
        <time>2024-06-29T07:42:41Z</time>
      </trkpt>
      <trkpt lat="47.15737" lon="4.91624">
        <ele>362.3</ele>
        <time>2024-06-29T07:42:42Z</time>
      </trkpt>
      <trkpt lat="47.15738" lon="4.91623">
        <ele>362.5</ele>
        <time>2024-06-29T07:42:43Z</time>
      </trkpt>
      <trkpt lat="47.15739" lon="4.91622">
        <ele>361.8</ele>
        <time>2024-06-29T07:42:44Z</time>
      </trkpt>
      <trkpt lat="47.15739" lon="4.91621">
        <ele>361.2</ele>
        <time>2024-06-29T07:42:45Z</time>
      </trkpt>
      <trkpt lat="47.1574" lon="4.9162">
        <ele>361</ele>
        <time>2024-06-29T07:42:46Z</time>
      </trkpt>
      <trkpt lat="47.15742" lon="4.91618">
        <ele>360.8</ele>
        <time>2024-06-29T07:42:48Z</time>
      </trkpt>
      <trkpt lat="47.15742" lon="4.91617">
        <ele>361</ele>
        <time>2024-06-29T07:42:49Z</time>
      </trkpt>
      <trkpt lat="47.15743" lon="4.91616">
        <ele>360.9</ele>
        <time>2024-06-29T07:42:50Z</time>
      </trkpt>
      <trkpt lat="47.15744" lon="4.91615">
        <ele>360.8</ele>
        <time>2024-06-29T07:42:51Z</time>
      </trkpt>
      <trkpt lat="47.15744" lon="4.91614">
        <ele>360.8</ele>
        <time>2024-06-29T07:42:52Z</time>
      </trkpt>
      <trkpt lat="47.15745" lon="4.91613">
        <ele>360.8</ele>
        <time>2024-06-29T07:42:53Z</time>
      </trkpt>
      <trkpt lat="47.15746" lon="4.91612">
        <ele>360.5</ele>
        <time>2024-06-29T07:42:54Z</time>
      </trkpt>
      <trkpt lat="47.15746" lon="4.91611">
        <ele>360.6</ele>
        <time>2024-06-29T07:42:55Z</time>
      </trkpt>
      <trkpt lat="47.15747" lon="4.9161">
        <ele>360.8</ele>
        <time>2024-06-29T07:42:56Z</time>
      </trkpt>
      <trkpt lat="47.15748" lon="4.91609">
        <ele>360.7</ele>
        <time>2024-06-29T07:42:57Z</time>
      </trkpt>
      <trkpt lat="47.15748" lon="4.91608">
        <ele>360.9</ele>
        <time>2024-06-29T07:42:58Z</time>
      </trkpt>
      <trkpt lat="47.15749" lon="4.91607">
        <ele>360.8</ele>
        <time>2024-06-29T07:42:59Z</time>
      </trkpt>
      <trkpt lat="47.15749" lon="4.91606">
        <ele>360.9</ele>
        <time>2024-06-29T07:43:00Z</time>
      </trkpt>
      <trkpt lat="47.1575" lon="4.91605">
        <ele>361.1</ele>
        <time>2024-06-29T07:43:01Z</time>
      </trkpt>
      <trkpt lat="47.15751" lon="4.91603">
        <ele>361.4</ele>
        <time>2024-06-29T07:43:02Z</time>
      </trkpt>
      <trkpt lat="47.15751" lon="4.91602">
        <ele>361.4</ele>
        <time>2024-06-29T07:43:03Z</time>
      </trkpt>
      <trkpt lat="47.15752" lon="4.91601">
        <ele>361.3</ele>
        <time>2024-06-29T07:43:04Z</time>
      </trkpt>
      <trkpt lat="47.15752" lon="4.916">
        <ele>361.4</ele>
        <time>2024-06-29T07:43:05Z</time>
      </trkpt>
      <trkpt lat="47.15753" lon="4.91599">
        <ele>361.6</ele>
        <time>2024-06-29T07:43:06Z</time>
      </trkpt>
      <trkpt lat="47.15754" lon="4.91598">
        <ele>361.9</ele>
        <time>2024-06-29T07:43:07Z</time>
      </trkpt>
      <trkpt lat="47.15754" lon="4.91597">
        <ele>361.9</ele>
        <time>2024-06-29T07:43:08Z</time>
      </trkpt>
      <trkpt lat="47.15755" lon="4.91596">
        <ele>361.8</ele>
        <time>2024-06-29T07:43:09Z</time>
      </trkpt>
      <trkpt lat="47.15756" lon="4.91595">
        <ele>361.7</ele>
        <time>2024-06-29T07:43:10Z</time>
      </trkpt>
      <trkpt lat="47.15756" lon="4.91594">
        <ele>361.4</ele>
        <time>2024-06-29T07:43:11Z</time>
      </trkpt>
      <trkpt lat="47.15757" lon="4.91593">
        <ele>361.3</ele>
        <time>2024-06-29T07:43:12Z</time>
      </trkpt>
      <trkpt lat="47.15757" lon="4.91592">
        <ele>361.6</ele>
        <time>2024-06-29T07:43:13Z</time>
      </trkpt>
      <trkpt lat="47.15758" lon="4.91591">
        <ele>361.7</ele>
        <time>2024-06-29T07:43:14Z</time>
      </trkpt>
      <trkpt lat="47.15759" lon="4.91589">
        <ele>361.6</ele>
        <time>2024-06-29T07:43:16Z</time>
      </trkpt>
      <trkpt lat="47.1576" lon="4.91588">
        <ele>361.7</ele>
        <time>2024-06-29T07:43:17Z</time>
      </trkpt>
      <trkpt lat="47.1576" lon="4.91587">
        <ele>361.6</ele>
        <time>2024-06-29T07:43:18Z</time>
      </trkpt>
      <trkpt lat="47.15761" lon="4.91586">
        <ele>361.8</ele>
        <time>2024-06-29T07:43:19Z</time>
      </trkpt>
      <trkpt lat="47.15762" lon="4.91585">
        <ele>361.9</ele>
        <time>2024-06-29T07:43:20Z</time>
      </trkpt>
      <trkpt lat="47.15762" lon="4.91584">
        <ele>361.9</ele>
        <time>2024-06-29T07:43:21Z</time>
      </trkpt>
      <trkpt lat="47.15763" lon="4.91583">
        <ele>362.1</ele>
        <time>2024-06-29T07:43:22Z</time>
      </trkpt>
      <trkpt lat="47.15764" lon="4.91581">
        <ele>362.3</ele>
        <time>2024-06-29T07:43:24Z</time>
      </trkpt>
      <trkpt lat="47.15765" lon="4.9158">
        <ele>362.2</ele>
        <time>2024-06-29T07:43:25Z</time>
      </trkpt>
      <trkpt lat="47.15765" lon="4.91579">
        <ele>362.3</ele>
        <time>2024-06-29T07:43:26Z</time>
      </trkpt>
      <trkpt lat="47.15766" lon="4.91578">
        <ele>362.5</ele>
        <time>2024-06-29T07:43:27Z</time>
      </trkpt>
      <trkpt lat="47.15767" lon="4.91577">
        <ele>362.3</ele>
        <time>2024-06-29T07:43:28Z</time>
      </trkpt>
      <trkpt lat="47.15767" lon="4.91576">
        <ele>362.3</ele>
        <time>2024-06-29T07:43:29Z</time>
      </trkpt>
      <trkpt lat="47.15768" lon="4.91575">
        <ele>362.6</ele>
        <time>2024-06-29T07:43:30Z</time>
      </trkpt>
      <trkpt lat="47.15769" lon="4.91574">
        <ele>362.6</ele>
        <time>2024-06-29T07:43:31Z</time>
      </trkpt>
      <trkpt lat="47.15769" lon="4.91573">
        <ele>362.7</ele>
        <time>2024-06-29T07:43:32Z</time>
      </trkpt>
      <trkpt lat="47.1577" lon="4.91572">
        <ele>362.7</ele>
        <time>2024-06-29T07:43:33Z</time>
      </trkpt>
      <trkpt lat="47.15771" lon="4.9157">
        <ele>362.8</ele>
        <time>2024-06-29T07:43:35Z</time>
      </trkpt>
      <trkpt lat="47.15773" lon="4.91569">
        <ele>362.8</ele>
        <time>2024-06-29T07:43:37Z</time>
      </trkpt>
      <trkpt lat="47.15773" lon="4.91568">
        <ele>363</ele>
        <time>2024-06-29T07:43:38Z</time>
      </trkpt>
      <trkpt lat="47.15774" lon="4.91567">
        <ele>363.2</ele>
        <time>2024-06-29T07:43:39Z</time>
      </trkpt>
      <trkpt lat="47.15775" lon="4.91566">
        <ele>363.2</ele>
        <time>2024-06-29T07:43:40Z</time>
      </trkpt>
      <trkpt lat="47.15775" lon="4.91565">
        <ele>363.3</ele>
        <time>2024-06-29T07:43:41Z</time>
      </trkpt>
      <trkpt lat="47.15776" lon="4.91564">
        <ele>363.2</ele>
        <time>2024-06-29T07:43:42Z</time>
      </trkpt>
      <trkpt lat="47.15777" lon="4.91563">
        <ele>363.4</ele>
        <time>2024-06-29T07:43:43Z</time>
      </trkpt>
      <trkpt lat="47.15777" lon="4.91562">
        <ele>363.4</ele>
        <time>2024-06-29T07:43:44Z</time>
      </trkpt>
      <trkpt lat="47.15778" lon="4.91561">
        <ele>363.3</ele>
        <time>2024-06-29T07:43:45Z</time>
      </trkpt>
      <trkpt lat="47.15779" lon="4.9156">
        <ele>363.6</ele>
        <time>2024-06-29T07:43:46Z</time>
      </trkpt>
      <trkpt lat="47.15779" lon="4.91559">
        <ele>363.7</ele>
        <time>2024-06-29T07:43:47Z</time>
      </trkpt>
      <trkpt lat="47.1578" lon="4.91558">
        <ele>363.7</ele>
        <time>2024-06-29T07:43:48Z</time>
      </trkpt>
      <trkpt lat="47.15781" lon="4.91557">
        <ele>363.5</ele>
        <time>2024-06-29T07:43:49Z</time>
      </trkpt>
      <trkpt lat="47.15782" lon="4.91555">
        <ele>363.7</ele>
        <time>2024-06-29T07:43:51Z</time>
      </trkpt>
      <trkpt lat="47.15784" lon="4.91554">
        <ele>364.1</ele>
        <time>2024-06-29T07:43:53Z</time>
      </trkpt>
      <trkpt lat="47.15784" lon="4.91553">
        <ele>364.4</ele>
        <time>2024-06-29T07:43:54Z</time>
      </trkpt>
      <trkpt lat="47.15785" lon="4.91552">
        <ele>364.4</ele>
        <time>2024-06-29T07:43:55Z</time>
      </trkpt>
      <trkpt lat="47.15786" lon="4.91551">
        <ele>364.6</ele>
        <time>2024-06-29T07:43:56Z</time>
      </trkpt>
      <trkpt lat="47.15786" lon="4.9155">
        <ele>364.7</ele>
        <time>2024-06-29T07:43:57Z</time>
      </trkpt>
      <trkpt lat="47.15787" lon="4.91548">
        <ele>364.7</ele>
        <time>2024-06-29T07:43:58Z</time>
      </trkpt>
      <trkpt lat="47.15788" lon="4.91548">
        <ele>364.5</ele>
        <time>2024-06-29T07:43:59Z</time>
      </trkpt>
      <trkpt lat="47.15788" lon="4.91547">
        <ele>364.6</ele>
        <time>2024-06-29T07:44:00Z</time>
      </trkpt>
      <trkpt lat="47.15789" lon="4.91545">
        <ele>364.7</ele>
        <time>2024-06-29T07:44:02Z</time>
      </trkpt>
      <trkpt lat="47.1579" lon="4.91544">
        <ele>364.8</ele>
        <time>2024-06-29T07:44:03Z</time>
      </trkpt>
      <trkpt lat="47.15791" lon="4.91542">
        <ele>364.8</ele>
        <time>2024-06-29T07:44:04Z</time>
      </trkpt>
      <trkpt lat="47.15791" lon="4.91541">
        <ele>364.8</ele>
        <time>2024-06-29T07:44:05Z</time>
      </trkpt>
      <trkpt lat="47.15792" lon="4.9154">
        <ele>364.9</ele>
        <time>2024-06-29T07:44:06Z</time>
      </trkpt>
      <trkpt lat="47.15793" lon="4.91539">
        <ele>365.2</ele>
        <time>2024-06-29T07:44:07Z</time>
      </trkpt>
      <trkpt lat="47.15794" lon="4.91539">
        <ele>365.4</ele>
        <time>2024-06-29T07:44:08Z</time>
      </trkpt>
      <trkpt lat="47.15794" lon="4.91538">
        <ele>365.7</ele>
        <time>2024-06-29T07:44:09Z</time>
      </trkpt>
      <trkpt lat="47.15795" lon="4.91537">
        <ele>365.4</ele>
        <time>2024-06-29T07:44:10Z</time>
      </trkpt>
      <trkpt lat="47.15796" lon="4.91535">
        <ele>365.7</ele>
        <time>2024-06-29T07:44:11Z</time>
      </trkpt>
      <trkpt lat="47.15797" lon="4.91534">
        <ele>365.2</ele>
        <time>2024-06-29T07:44:12Z</time>
      </trkpt>
      <trkpt lat="47.15798" lon="4.91534">
        <ele>365.6</ele>
        <time>2024-06-29T07:44:13Z</time>
      </trkpt>
      <trkpt lat="47.15799" lon="4.91532">
        <ele>365.3</ele>
        <time>2024-06-29T07:44:15Z</time>
      </trkpt>
      <trkpt lat="47.15799" lon="4.91531">
        <ele>366.4</ele>
        <time>2024-06-29T07:44:16Z</time>
      </trkpt>
      <trkpt lat="47.158" lon="4.9153">
        <ele>365.4</ele>
        <time>2024-06-29T07:44:17Z</time>
      </trkpt>
      <trkpt lat="47.15801" lon="4.91529">
        <ele>365.4</ele>
        <time>2024-06-29T07:44:18Z</time>
      </trkpt>
      <trkpt lat="47.15802" lon="4.91528">
        <ele>365.8</ele>
        <time>2024-06-29T07:44:19Z</time>
      </trkpt>
      <trkpt lat="47.15803" lon="4.91527">
        <ele>366</ele>
        <time>2024-06-29T07:44:20Z</time>
      </trkpt>
      <trkpt lat="47.15803" lon="4.91525">
        <ele>366.4</ele>
        <time>2024-06-29T07:44:21Z</time>
      </trkpt>
      <trkpt lat="47.15804" lon="4.91524">
        <ele>366.6</ele>
        <time>2024-06-29T07:44:22Z</time>
      </trkpt>
      <trkpt lat="47.15805" lon="4.91523">
        <ele>366.1</ele>
        <time>2024-06-29T07:44:23Z</time>
      </trkpt>
      <trkpt lat="47.15805" lon="4.91522">
        <ele>366.4</ele>
        <time>2024-06-29T07:44:24Z</time>
      </trkpt>
      <trkpt lat="47.15806" lon="4.91521">
        <ele>366.3</ele>
        <time>2024-06-29T07:44:25Z</time>
      </trkpt>
      <trkpt lat="47.15807" lon="4.91519">
        <ele>366.4</ele>
        <time>2024-06-29T07:44:26Z</time>
      </trkpt>
      <trkpt lat="47.15807" lon="4.91518">
        <ele>366.5</ele>
        <time>2024-06-29T07:44:27Z</time>
      </trkpt>
      <trkpt lat="47.15808" lon="4.91517">
        <ele>366.5</ele>
        <time>2024-06-29T07:44:28Z</time>
      </trkpt>
      <trkpt lat="47.15809" lon="4.91516">
        <ele>366.3</ele>
        <time>2024-06-29T07:44:29Z</time>
      </trkpt>
      <trkpt lat="47.1581" lon="4.91514">
        <ele>366.3</ele>
        <time>2024-06-29T07:44:30Z</time>
      </trkpt>
      <trkpt lat="47.1581" lon="4.91513">
        <ele>366.2</ele>
        <time>2024-06-29T07:44:31Z</time>
      </trkpt>
      <trkpt lat="47.15811" lon="4.91512">
        <ele>365.8</ele>
        <time>2024-06-29T07:44:32Z</time>
      </trkpt>
      <trkpt lat="47.15812" lon="4.91511">
        <ele>365.7</ele>
        <time>2024-06-29T07:44:33Z</time>
      </trkpt>
      <trkpt lat="47.15813" lon="4.91509">
        <ele>365.8</ele>
        <time>2024-06-29T07:44:34Z</time>
      </trkpt>
      <trkpt lat="47.15813" lon="4.91508">
        <ele>365.6</ele>
        <time>2024-06-29T07:44:35Z</time>
      </trkpt>
      <trkpt lat="47.15814" lon="4.91507">
        <ele>365.7</ele>
        <time>2024-06-29T07:44:36Z</time>
      </trkpt>
      <trkpt lat="47.15815" lon="4.91506">
        <ele>365.7</ele>
        <time>2024-06-29T07:44:37Z</time>
      </trkpt>
      <trkpt lat="47.15815" lon="4.91505">
        <ele>365.8</ele>
        <time>2024-06-29T07:44:38Z</time>
      </trkpt>
      <trkpt lat="47.15816" lon="4.91504">
        <ele>366.1</ele>
        <time>2024-06-29T07:44:39Z</time>
      </trkpt>
      <trkpt lat="47.15816" lon="4.91503">
        <ele>366.1</ele>
        <time>2024-06-29T07:44:40Z</time>
      </trkpt>
      <trkpt lat="47.15817" lon="4.91502">
        <ele>366.1</ele>
        <time>2024-06-29T07:44:41Z</time>
      </trkpt>
      <trkpt lat="47.15818" lon="4.91501">
        <ele>366.1</ele>
        <time>2024-06-29T07:44:42Z</time>
      </trkpt>
      <trkpt lat="47.15818" lon="4.91499">
        <ele>366.1</ele>
        <time>2024-06-29T07:44:43Z</time>
      </trkpt>
      <trkpt lat="47.15819" lon="4.91498">
        <ele>366.3</ele>
        <time>2024-06-29T07:44:44Z</time>
      </trkpt>
      <trkpt lat="47.15819" lon="4.91497">
        <ele>366.5</ele>
        <time>2024-06-29T07:44:45Z</time>
      </trkpt>
      <trkpt lat="47.1582" lon="4.91496">
        <ele>367</ele>
        <time>2024-06-29T07:44:46Z</time>
      </trkpt>
      <trkpt lat="47.1582" lon="4.91494">
        <ele>367.4</ele>
        <time>2024-06-29T07:44:47Z</time>
      </trkpt>
      <trkpt lat="47.15821" lon="4.91493">
        <ele>367.1</ele>
        <time>2024-06-29T07:44:48Z</time>
      </trkpt>
      <trkpt lat="47.15821" lon="4.91492">
        <ele>368.1</ele>
        <time>2024-06-29T07:44:49Z</time>
      </trkpt>
      <trkpt lat="47.15822" lon="4.9149">
        <ele>368</ele>
        <time>2024-06-29T07:44:50Z</time>
      </trkpt>
      <trkpt lat="47.15823" lon="4.91489">
        <ele>368</ele>
        <time>2024-06-29T07:44:51Z</time>
      </trkpt>
      <trkpt lat="47.15824" lon="4.91487">
        <ele>368.5</ele>
        <time>2024-06-29T07:44:52Z</time>
      </trkpt>
      <trkpt lat="47.15825" lon="4.91486">
        <ele>367.8</ele>
        <time>2024-06-29T07:44:53Z</time>
      </trkpt>
      <trkpt lat="47.15826" lon="4.91484">
        <ele>367.9</ele>
        <time>2024-06-29T07:44:54Z</time>
      </trkpt>
      <trkpt lat="47.15826" lon="4.91482">
        <ele>368.5</ele>
        <time>2024-06-29T07:44:55Z</time>
      </trkpt>
      <trkpt lat="47.15827" lon="4.9148">
        <ele>367.2</ele>
        <time>2024-06-29T07:44:56Z</time>
      </trkpt>
      <trkpt lat="47.15828" lon="4.91478">
        <ele>367.5</ele>
        <time>2024-06-29T07:44:57Z</time>
      </trkpt>
      <trkpt lat="47.15828" lon="4.91476">
        <ele>368</ele>
        <time>2024-06-29T07:44:58Z</time>
      </trkpt>
      <trkpt lat="47.15829" lon="4.91474">
        <ele>368.9</ele>
        <time>2024-06-29T07:44:59Z</time>
      </trkpt>
      <trkpt lat="47.15829" lon="4.91473">
        <ele>369</ele>
        <time>2024-06-29T07:45:00Z</time>
      </trkpt>
      <trkpt lat="47.15829" lon="4.91471">
        <ele>368.3</ele>
        <time>2024-06-29T07:45:01Z</time>
      </trkpt>
      <trkpt lat="47.1583" lon="4.91469">
        <ele>368</ele>
        <time>2024-06-29T07:45:02Z</time>
      </trkpt>
      <trkpt lat="47.1583" lon="4.91467">
        <ele>368.5</ele>
        <time>2024-06-29T07:45:03Z</time>
      </trkpt>
      <trkpt lat="47.15831" lon="4.91466">
        <ele>369</ele>
        <time>2024-06-29T07:45:04Z</time>
      </trkpt>
      <trkpt lat="47.15832" lon="4.91465">
        <ele>369.2</ele>
        <time>2024-06-29T07:45:05Z</time>
      </trkpt>
      <trkpt lat="47.15832" lon="4.91463">
        <ele>369.5</ele>
        <time>2024-06-29T07:45:06Z</time>
      </trkpt>
      <trkpt lat="47.15833" lon="4.91462">
        <ele>367.3</ele>
        <time>2024-06-29T07:45:07Z</time>
      </trkpt>
      <trkpt lat="47.15834" lon="4.9146">
        <ele>367.4</ele>
        <time>2024-06-29T07:45:08Z</time>
      </trkpt>
      <trkpt lat="47.15834" lon="4.91459">
        <ele>369</ele>
        <time>2024-06-29T07:45:09Z</time>
      </trkpt>
      <trkpt lat="47.15834" lon="4.91457">
        <ele>368.9</ele>
        <time>2024-06-29T07:45:10Z</time>
      </trkpt>
      <trkpt lat="47.15835" lon="4.91455">
        <ele>370.2</ele>
        <time>2024-06-29T07:45:12Z</time>
      </trkpt>
      <trkpt lat="47.15836" lon="4.91454">
        <ele>371.3</ele>
        <time>2024-06-29T07:45:13Z</time>
      </trkpt>
      <trkpt lat="47.15836" lon="4.91452">
        <ele>370.4</ele>
        <time>2024-06-29T07:45:14Z</time>
      </trkpt>
      <trkpt lat="47.15837" lon="4.91451">
        <ele>370.6</ele>
        <time>2024-06-29T07:45:16Z</time>
      </trkpt>
      <trkpt lat="47.15838" lon="4.91451">
        <ele>371</ele>
        <time>2024-06-29T07:45:18Z</time>
      </trkpt>
      <trkpt lat="47.15837" lon="4.91451">
        <ele>371.3</ele>
        <time>2024-06-29T07:45:25Z</time>
      </trkpt>
      <trkpt lat="47.15838" lon="4.9145">
        <ele>371.3</ele>
        <time>2024-06-29T07:45:29Z</time>
      </trkpt>
      <trkpt lat="47.15838" lon="4.91449">
        <ele>371.3</ele>
        <time>2024-06-29T07:45:30Z</time>
      </trkpt>
      <trkpt lat="47.15839" lon="4.91448">
        <ele>371.2</ele>
        <time>2024-06-29T07:45:31Z</time>
      </trkpt>
      <trkpt lat="47.1584" lon="4.91447">
        <ele>371.3</ele>
        <time>2024-06-29T07:45:32Z</time>
      </trkpt>
      <trkpt lat="47.1584" lon="4.91446">
        <ele>371.5</ele>
        <time>2024-06-29T07:45:33Z</time>
      </trkpt>
      <trkpt lat="47.15841" lon="4.91444">
        <ele>371.1</ele>
        <time>2024-06-29T07:45:34Z</time>
      </trkpt>
      <trkpt lat="47.15842" lon="4.91443">
        <ele>371</ele>
        <time>2024-06-29T07:45:35Z</time>
      </trkpt>
      <trkpt lat="47.15842" lon="4.91442">
        <ele>370.9</ele>
        <time>2024-06-29T07:45:36Z</time>
      </trkpt>
      <trkpt lat="47.15843" lon="4.9144">
        <ele>371.1</ele>
        <time>2024-06-29T07:45:37Z</time>
      </trkpt>
      <trkpt lat="47.15843" lon="4.91439">
        <ele>371.1</ele>
        <time>2024-06-29T07:45:38Z</time>
      </trkpt>
      <trkpt lat="47.15844" lon="4.91437">
        <ele>371.1</ele>
        <time>2024-06-29T07:45:39Z</time>
      </trkpt>
      <trkpt lat="47.15844" lon="4.91436">
        <ele>371.2</ele>
        <time>2024-06-29T07:45:40Z</time>
      </trkpt>
      <trkpt lat="47.15845" lon="4.91435">
        <ele>371.1</ele>
        <time>2024-06-29T07:45:41Z</time>
      </trkpt>
      <trkpt lat="47.15845" lon="4.91434">
        <ele>371.1</ele>
        <time>2024-06-29T07:45:42Z</time>
      </trkpt>
      <trkpt lat="47.15846" lon="4.91432">
        <ele>371.1</ele>
        <time>2024-06-29T07:45:43Z</time>
      </trkpt>
      <trkpt lat="47.15847" lon="4.91431">
        <ele>371</ele>
        <time>2024-06-29T07:45:44Z</time>
      </trkpt>
      <trkpt lat="47.15847" lon="4.91429">
        <ele>371.2</ele>
        <time>2024-06-29T07:45:45Z</time>
      </trkpt>
      <trkpt lat="47.15848" lon="4.91428">
        <ele>371.2</ele>
        <time>2024-06-29T07:45:46Z</time>
      </trkpt>
      <trkpt lat="47.15848" lon="4.91427">
        <ele>370.6</ele>
        <time>2024-06-29T07:45:47Z</time>
      </trkpt>
      <trkpt lat="47.15849" lon="4.91425">
        <ele>370.7</ele>
        <time>2024-06-29T07:45:48Z</time>
      </trkpt>
      <trkpt lat="47.15849" lon="4.91423">
        <ele>369.7</ele>
        <time>2024-06-29T07:45:49Z</time>
      </trkpt>
      <trkpt lat="47.15849" lon="4.91422">
        <ele>369.8</ele>
        <time>2024-06-29T07:45:50Z</time>
      </trkpt>
      <trkpt lat="47.1585" lon="4.9142">
        <ele>369.8</ele>
        <time>2024-06-29T07:45:51Z</time>
      </trkpt>
      <trkpt lat="47.1585" lon="4.91419">
        <ele>370.3</ele>
        <time>2024-06-29T07:45:52Z</time>
      </trkpt>
      <trkpt lat="47.15851" lon="4.91417">
        <ele>371.6</ele>
        <time>2024-06-29T07:45:53Z</time>
      </trkpt>
      <trkpt lat="47.15851" lon="4.91416">
        <ele>371.4</ele>
        <time>2024-06-29T07:45:54Z</time>
      </trkpt>
      <trkpt lat="47.15852" lon="4.91414">
        <ele>370.4</ele>
        <time>2024-06-29T07:45:55Z</time>
      </trkpt>
      <trkpt lat="47.15853" lon="4.91413">
        <ele>368.8</ele>
        <time>2024-06-29T07:45:56Z</time>
      </trkpt>
      <trkpt lat="47.15853" lon="4.91411">
        <ele>368.4</ele>
        <time>2024-06-29T07:45:57Z</time>
      </trkpt>
      <trkpt lat="47.15853" lon="4.9141">
        <ele>367.9</ele>
        <time>2024-06-29T07:45:58Z</time>
      </trkpt>
      <trkpt lat="47.15854" lon="4.91408">
        <ele>369.1</ele>
        <time>2024-06-29T07:45:59Z</time>
      </trkpt>
      <trkpt lat="47.15854" lon="4.91407">
        <ele>369.2</ele>
        <time>2024-06-29T07:46:00Z</time>
      </trkpt>
      <trkpt lat="47.15854" lon="4.91405">
        <ele>369.8</ele>
        <time>2024-06-29T07:46:01Z</time>
      </trkpt>
      <trkpt lat="47.15855" lon="4.91403">
        <ele>369.4</ele>
        <time>2024-06-29T07:46:03Z</time>
      </trkpt>
      <trkpt lat="47.15855" lon="4.91401">
        <ele>369.9</ele>
        <time>2024-06-29T07:46:04Z</time>
      </trkpt>
      <trkpt lat="47.15856" lon="4.914">
        <ele>369.6</ele>
        <time>2024-06-29T07:46:05Z</time>
      </trkpt>
      <trkpt lat="47.15857" lon="4.91398">
        <ele>369.4</ele>
        <time>2024-06-29T07:46:06Z</time>
      </trkpt>
      <trkpt lat="47.15857" lon="4.91397">
        <ele>370.1</ele>
        <time>2024-06-29T07:46:07Z</time>
      </trkpt>
      <trkpt lat="47.15858" lon="4.91396">
        <ele>369.1</ele>
        <time>2024-06-29T07:46:08Z</time>
      </trkpt>
      <trkpt lat="47.15858" lon="4.91394">
        <ele>369.3</ele>
        <time>2024-06-29T07:46:09Z</time>
      </trkpt>
      <trkpt lat="47.15859" lon="4.91393">
        <ele>369.8</ele>
        <time>2024-06-29T07:46:11Z</time>
      </trkpt>
      <trkpt lat="47.1586" lon="4.91391">
        <ele>362.5</ele>
        <time>2024-06-29T07:46:12Z</time>
      </trkpt>
      <trkpt lat="47.15861" lon="4.91389">
        <ele>362.7</ele>
        <time>2024-06-29T07:46:13Z</time>
      </trkpt>
      <trkpt lat="47.15861" lon="4.91387">
        <ele>362.4</ele>
        <time>2024-06-29T07:46:14Z</time>
      </trkpt>
      <trkpt lat="47.15862" lon="4.91386">
        <ele>362.9</ele>
        <time>2024-06-29T07:46:15Z</time>
      </trkpt>
      <trkpt lat="47.15863" lon="4.91384">
        <ele>362.7</ele>
        <time>2024-06-29T07:46:17Z</time>
      </trkpt>
      <trkpt lat="47.15863" lon="4.91382">
        <ele>364.2</ele>
        <time>2024-06-29T07:46:19Z</time>
      </trkpt>
      <trkpt lat="47.15862" lon="4.9138">
        <ele>363.9</ele>
        <time>2024-06-29T07:46:21Z</time>
      </trkpt>
      <trkpt lat="47.15862" lon="4.91378">
        <ele>365.5</ele>
        <time>2024-06-29T07:46:23Z</time>
      </trkpt>
      <trkpt lat="47.15863" lon="4.91379">
        <ele>364.9</ele>
        <time>2024-06-29T07:46:29Z</time>
      </trkpt>
      <trkpt lat="47.15865" lon="4.91379">
        <ele>365.1</ele>
        <time>2024-06-29T07:46:44Z</time>
      </trkpt>
      <trkpt lat="47.15866" lon="4.91378">
        <ele>365.2</ele>
        <time>2024-06-29T07:46:50Z</time>
      </trkpt>
      <trkpt lat="47.15865" lon="4.91379">
        <ele>365.7</ele>
        <time>2024-06-29T07:47:23Z</time>
      </trkpt>
      <trkpt lat="47.15864" lon="4.9138">
        <ele>366.8</ele>
        <time>2024-06-29T07:47:58Z</time>
      </trkpt>
      <trkpt lat="47.15863" lon="4.91381">
        <ele>367.4</ele>
        <time>2024-06-29T07:48:00Z</time>
      </trkpt>
      <trkpt lat="47.15864" lon="4.91383">
        <ele>368.2</ele>
        <time>2024-06-29T07:48:05Z</time>
      </trkpt>
      <trkpt lat="47.15865" lon="4.91384">
        <ele>368.4</ele>
        <time>2024-06-29T07:48:07Z</time>
      </trkpt>
      <trkpt lat="47.15866" lon="4.91385">
        <ele>368.2</ele>
        <time>2024-06-29T07:48:09Z</time>
      </trkpt>
      <trkpt lat="47.15867" lon="4.91387">
        <ele>369</ele>
        <time>2024-06-29T07:48:11Z</time>
      </trkpt>
      <trkpt lat="47.15868" lon="4.91388">
        <ele>369.4</ele>
        <time>2024-06-29T07:48:13Z</time>
      </trkpt>
      <trkpt lat="47.15869" lon="4.91389">
        <ele>369.8</ele>
        <time>2024-06-29T07:48:15Z</time>
      </trkpt>
      <trkpt lat="47.1587" lon="4.91391">
        <ele>369.4</ele>
        <time>2024-06-29T07:48:17Z</time>
      </trkpt>
      <trkpt lat="47.15871" lon="4.91392">
        <ele>369.4</ele>
        <time>2024-06-29T07:48:19Z</time>
      </trkpt>
      <trkpt lat="47.15872" lon="4.91394">
        <ele>369.2</ele>
        <time>2024-06-29T07:48:21Z</time>
      </trkpt>
      <trkpt lat="47.15873" lon="4.91395">
        <ele>369.3</ele>
        <time>2024-06-29T07:48:23Z</time>
      </trkpt>
      <trkpt lat="47.15874" lon="4.91397">
        <ele>369.3</ele>
        <time>2024-06-29T07:48:25Z</time>
      </trkpt>
      <trkpt lat="47.15876" lon="4.91398">
        <ele>369.7</ele>
        <time>2024-06-29T07:48:27Z</time>
      </trkpt>
      <trkpt lat="47.15877" lon="4.91399">
        <ele>369.7</ele>
        <time>2024-06-29T07:48:29Z</time>
      </trkpt>
      <trkpt lat="47.15878" lon="4.914">
        <ele>369.8</ele>
        <time>2024-06-29T07:48:31Z</time>
      </trkpt>
      <trkpt lat="47.15879" lon="4.91402">
        <ele>370</ele>
        <time>2024-06-29T07:48:33Z</time>
      </trkpt>
      <trkpt lat="47.1588" lon="4.91403">
        <ele>370.3</ele>
        <time>2024-06-29T07:48:35Z</time>
      </trkpt>
      <trkpt lat="47.15881" lon="4.91404">
        <ele>370</ele>
        <time>2024-06-29T07:48:37Z</time>
      </trkpt>
      <trkpt lat="47.15883" lon="4.91405">
        <ele>369.9</ele>
        <time>2024-06-29T07:48:39Z</time>
      </trkpt>
      <trkpt lat="47.15884" lon="4.91406">
        <ele>369.6</ele>
        <time>2024-06-29T07:48:41Z</time>
      </trkpt>
      <trkpt lat="47.15885" lon="4.91407">
        <ele>370.1</ele>
        <time>2024-06-29T07:48:43Z</time>
      </trkpt>
      <trkpt lat="47.15887" lon="4.91408">
        <ele>370.7</ele>
        <time>2024-06-29T07:48:45Z</time>
      </trkpt>
      <trkpt lat="47.15889" lon="4.91408">
        <ele>370.1</ele>
        <time>2024-06-29T07:48:46Z</time>
      </trkpt>
      <trkpt lat="47.1589" lon="4.91409">
        <ele>370.1</ele>
        <time>2024-06-29T07:48:47Z</time>
      </trkpt>
      <trkpt lat="47.15891" lon="4.9141">
        <ele>370.3</ele>
        <time>2024-06-29T07:48:49Z</time>
      </trkpt>
      <trkpt lat="47.15893" lon="4.91411">
        <ele>370.9</ele>
        <time>2024-06-29T07:48:51Z</time>
      </trkpt>
      <trkpt lat="47.15894" lon="4.91413">
        <ele>370.9</ele>
        <time>2024-06-29T07:48:53Z</time>
      </trkpt>
      <trkpt lat="47.15895" lon="4.91414">
        <ele>371.4</ele>
        <time>2024-06-29T07:48:55Z</time>
      </trkpt>
      <trkpt lat="47.15896" lon="4.91416">
        <ele>371.8</ele>
        <time>2024-06-29T07:48:57Z</time>
      </trkpt>
      <trkpt lat="47.15897" lon="4.91417">
        <ele>372.4</ele>
        <time>2024-06-29T07:48:59Z</time>
      </trkpt>
      <trkpt lat="47.15899" lon="4.91418">
        <ele>372.6</ele>
        <time>2024-06-29T07:49:01Z</time>
      </trkpt>
      <trkpt lat="47.159" lon="4.9142">
        <ele>372.9</ele>
        <time>2024-06-29T07:49:03Z</time>
      </trkpt>
      <trkpt lat="47.15901" lon="4.91421">
        <ele>373.3</ele>
        <time>2024-06-29T07:49:05Z</time>
      </trkpt>
      <trkpt lat="47.15902" lon="4.91423">
        <ele>373.5</ele>
        <time>2024-06-29T07:49:07Z</time>
      </trkpt>
      <trkpt lat="47.15904" lon="4.91424">
        <ele>373.6</ele>
        <time>2024-06-29T07:49:09Z</time>
      </trkpt>
      <trkpt lat="47.15905" lon="4.91425">
        <ele>374</ele>
        <time>2024-06-29T07:49:11Z</time>
      </trkpt>
      <trkpt lat="47.15906" lon="4.91426">
        <ele>374.3</ele>
        <time>2024-06-29T07:49:13Z</time>
      </trkpt>
      <trkpt lat="47.15907" lon="4.91427">
        <ele>373.3</ele>
        <time>2024-06-29T07:49:14Z</time>
      </trkpt>
      <trkpt lat="47.15908" lon="4.91428">
        <ele>372.7</ele>
        <time>2024-06-29T07:49:15Z</time>
      </trkpt>
      <trkpt lat="47.15909" lon="4.91429">
        <ele>372.9</ele>
        <time>2024-06-29T07:49:16Z</time>
      </trkpt>
      <trkpt lat="47.1591" lon="4.91429">
        <ele>372.5</ele>
        <time>2024-06-29T07:49:17Z</time>
      </trkpt>
      <trkpt lat="47.15911" lon="4.91429">
        <ele>371.2</ele>
        <time>2024-06-29T07:49:18Z</time>
      </trkpt>
      <trkpt lat="47.15913" lon="4.9143">
        <ele>371.3</ele>
        <time>2024-06-29T07:49:20Z</time>
      </trkpt>
      <trkpt lat="47.15915" lon="4.9143">
        <ele>371.2</ele>
        <time>2024-06-29T07:49:22Z</time>
      </trkpt>
      <trkpt lat="47.15916" lon="4.91432">
        <ele>371.1</ele>
        <time>2024-06-29T07:49:24Z</time>
      </trkpt>
      <trkpt lat="47.15917" lon="4.91434">
        <ele>371.3</ele>
        <time>2024-06-29T07:49:26Z</time>
      </trkpt>
      <trkpt lat="47.15918" lon="4.91435">
        <ele>372.3</ele>
        <time>2024-06-29T07:49:28Z</time>
      </trkpt>
      <trkpt lat="47.15919" lon="4.91437">
        <ele>372.5</ele>
        <time>2024-06-29T07:49:30Z</time>
      </trkpt>
      <trkpt lat="47.1592" lon="4.91438">
        <ele>373.2</ele>
        <time>2024-06-29T07:49:32Z</time>
      </trkpt>
      <trkpt lat="47.15921" lon="4.9144">
        <ele>373.7</ele>
        <time>2024-06-29T07:49:34Z</time>
      </trkpt>
      <trkpt lat="47.15922" lon="4.91442">
        <ele>374.1</ele>
        <time>2024-06-29T07:49:36Z</time>
      </trkpt>
      <trkpt lat="47.15923" lon="4.91444">
        <ele>374.2</ele>
        <time>2024-06-29T07:49:38Z</time>
      </trkpt>
      <trkpt lat="47.15925" lon="4.91445">
        <ele>375.1</ele>
        <time>2024-06-29T07:49:40Z</time>
      </trkpt>
      <trkpt lat="47.15925" lon="4.91446">
        <ele>374.9</ele>
        <time>2024-06-29T07:49:41Z</time>
      </trkpt>
      <trkpt lat="47.15927" lon="4.91448">
        <ele>375.4</ele>
        <time>2024-06-29T07:49:43Z</time>
      </trkpt>
      <trkpt lat="47.15928" lon="4.9145">
        <ele>375.6</ele>
        <time>2024-06-29T07:49:45Z</time>
      </trkpt>
      <trkpt lat="47.15929" lon="4.91452">
        <ele>375.8</ele>
        <time>2024-06-29T07:49:47Z</time>
      </trkpt>
      <trkpt lat="47.15929" lon="4.91454">
        <ele>374.7</ele>
        <time>2024-06-29T07:49:48Z</time>
      </trkpt>
      <trkpt lat="47.15931" lon="4.91455">
        <ele>375.3</ele>
        <time>2024-06-29T07:49:49Z</time>
      </trkpt>
      <trkpt lat="47.15932" lon="4.91455">
        <ele>374.9</ele>
        <time>2024-06-29T07:49:50Z</time>
      </trkpt>
      <trkpt lat="47.15933" lon="4.91456">
        <ele>374.9</ele>
        <time>2024-06-29T07:49:51Z</time>
      </trkpt>
      <trkpt lat="47.15934" lon="4.91456">
        <ele>375.4</ele>
        <time>2024-06-29T07:49:52Z</time>
      </trkpt>
      <trkpt lat="47.15935" lon="4.91456">
        <ele>375.5</ele>
        <time>2024-06-29T07:49:53Z</time>
      </trkpt>
      <trkpt lat="47.15936" lon="4.91456">
        <ele>375.4</ele>
        <time>2024-06-29T07:49:54Z</time>
      </trkpt>
      <trkpt lat="47.15938" lon="4.91456">
        <ele>374.5</ele>
        <time>2024-06-29T07:49:56Z</time>
      </trkpt>
      <trkpt lat="47.15939" lon="4.91457">
        <ele>373.8</ele>
        <time>2024-06-29T07:49:57Z</time>
      </trkpt>
      <trkpt lat="47.1594" lon="4.91457">
        <ele>374.7</ele>
        <time>2024-06-29T07:49:58Z</time>
      </trkpt>
      <trkpt lat="47.15941" lon="4.91457">
        <ele>375</ele>
        <time>2024-06-29T07:49:59Z</time>
      </trkpt>
      <trkpt lat="47.15942" lon="4.91458">
        <ele>375.5</ele>
        <time>2024-06-29T07:50:00Z</time>
      </trkpt>
      <trkpt lat="47.15943" lon="4.91459">
        <ele>376.4</ele>
        <time>2024-06-29T07:50:02Z</time>
      </trkpt>
      <trkpt lat="47.15944" lon="4.9146">
        <ele>376.4</ele>
        <time>2024-06-29T07:50:04Z</time>
      </trkpt>
      <trkpt lat="47.15944" lon="4.91462">
        <ele>376</ele>
        <time>2024-06-29T07:50:05Z</time>
      </trkpt>
      <trkpt lat="47.15944" lon="4.91463">
        <ele>376.2</ele>
        <time>2024-06-29T07:50:06Z</time>
      </trkpt>
      <trkpt lat="47.15944" lon="4.91465">
        <ele>375.1</ele>
        <time>2024-06-29T07:50:07Z</time>
      </trkpt>
      <trkpt lat="47.15945" lon="4.91467">
        <ele>373.7</ele>
        <time>2024-06-29T07:50:08Z</time>
      </trkpt>
      <trkpt lat="47.15946" lon="4.91469">
        <ele>373.2</ele>
        <time>2024-06-29T07:50:09Z</time>
      </trkpt>
      <trkpt lat="47.15947" lon="4.91471">
        <ele>370.2</ele>
        <time>2024-06-29T07:50:10Z</time>
      </trkpt>
      <trkpt lat="47.15949" lon="4.91472">
        <ele>370.9</ele>
        <time>2024-06-29T07:50:11Z</time>
      </trkpt>
      <trkpt lat="47.1595" lon="4.91474">
        <ele>371.5</ele>
        <time>2024-06-29T07:50:12Z</time>
      </trkpt>
      <trkpt lat="47.15952" lon="4.91477">
        <ele>369.8</ele>
        <time>2024-06-29T07:50:13Z</time>
      </trkpt>
      <trkpt lat="47.15954" lon="4.91478">
        <ele>371</ele>
        <time>2024-06-29T07:50:14Z</time>
      </trkpt>
      <trkpt lat="47.15955" lon="4.91479">
        <ele>372</ele>
        <time>2024-06-29T07:50:16Z</time>
      </trkpt>
      <trkpt lat="47.15956" lon="4.91481">
        <ele>372.2</ele>
        <time>2024-06-29T07:50:17Z</time>
      </trkpt>
      <trkpt lat="47.15956" lon="4.91482">
        <ele>374</ele>
        <time>2024-06-29T07:50:18Z</time>
      </trkpt>
      <trkpt lat="47.15956" lon="4.91484">
        <ele>370.1</ele>
        <time>2024-06-29T07:50:19Z</time>
      </trkpt>
      <trkpt lat="47.15957" lon="4.91485">
        <ele>370.1</ele>
        <time>2024-06-29T07:50:20Z</time>
      </trkpt>
      <trkpt lat="47.15958" lon="4.91486">
        <ele>373</ele>
        <time>2024-06-29T07:50:22Z</time>
      </trkpt>
      <trkpt lat="47.15958" lon="4.91487">
        <ele>373.5</ele>
        <time>2024-06-29T07:50:24Z</time>
      </trkpt>
      <trkpt lat="47.15957" lon="4.91487">
        <ele>373.7</ele>
        <time>2024-06-29T07:50:27Z</time>
      </trkpt>
      <trkpt lat="47.15957" lon="4.91489">
        <ele>376.5</ele>
        <time>2024-06-29T07:50:29Z</time>
      </trkpt>
      <trkpt lat="47.15956" lon="4.91489">
        <ele>378.1</ele>
        <time>2024-06-29T07:50:34Z</time>
      </trkpt>
      <trkpt lat="47.15956" lon="4.91491">
        <ele>378.4</ele>
        <time>2024-06-29T07:50:55Z</time>
      </trkpt>
      <trkpt lat="47.15956" lon="4.91492">
        <ele>378.4</ele>
        <time>2024-06-29T07:51:00Z</time>
      </trkpt>
      <trkpt lat="47.15957" lon="4.91493">
        <ele>378.9</ele>
        <time>2024-06-29T07:51:04Z</time>
      </trkpt>
      <trkpt lat="47.15957" lon="4.91495">
        <ele>379.2</ele>
        <time>2024-06-29T07:51:06Z</time>
      </trkpt>
      <trkpt lat="47.15958" lon="4.91496">
        <ele>379.4</ele>
        <time>2024-06-29T07:51:08Z</time>
      </trkpt>
      <trkpt lat="47.15959" lon="4.91498">
        <ele>380</ele>
        <time>2024-06-29T07:51:10Z</time>
      </trkpt>
      <trkpt lat="47.15959" lon="4.915">
        <ele>380.1</ele>
        <time>2024-06-29T07:51:12Z</time>
      </trkpt>
      <trkpt lat="47.1596" lon="4.91501">
        <ele>379.9</ele>
        <time>2024-06-29T07:51:14Z</time>
      </trkpt>
      <trkpt lat="47.15961" lon="4.91503">
        <ele>380.2</ele>
        <time>2024-06-29T07:51:17Z</time>
      </trkpt>
      <trkpt lat="47.15961" lon="4.91504">
        <ele>380.2</ele>
        <time>2024-06-29T07:51:19Z</time>
      </trkpt>
      <trkpt lat="47.15962" lon="4.91506">
        <ele>379.8</ele>
        <time>2024-06-29T07:51:21Z</time>
      </trkpt>
      <trkpt lat="47.15962" lon="4.91508">
        <ele>380.1</ele>
        <time>2024-06-29T07:51:23Z</time>
      </trkpt>
      <trkpt lat="47.15963" lon="4.91508">
        <ele>380.1</ele>
        <time>2024-06-29T07:51:25Z</time>
      </trkpt>
      <trkpt lat="47.15964" lon="4.91509">
        <ele>380.5</ele>
        <time>2024-06-29T07:51:27Z</time>
      </trkpt>
      <trkpt lat="47.15966" lon="4.9151">
        <ele>381.2</ele>
        <time>2024-06-29T07:51:29Z</time>
      </trkpt>
      <trkpt lat="47.15966" lon="4.91512">
        <ele>381.3</ele>
        <time>2024-06-29T07:51:31Z</time>
      </trkpt>
      <trkpt lat="47.15967" lon="4.91514">
        <ele>381.5</ele>
        <time>2024-06-29T07:51:33Z</time>
      </trkpt>
      <trkpt lat="47.15969" lon="4.91515">
        <ele>381.4</ele>
        <time>2024-06-29T07:51:35Z</time>
      </trkpt>
      <trkpt lat="47.1597" lon="4.91517">
        <ele>381.5</ele>
        <time>2024-06-29T07:51:37Z</time>
      </trkpt>
      <trkpt lat="47.1597" lon="4.91518">
        <ele>381.3</ele>
        <time>2024-06-29T07:51:38Z</time>
      </trkpt>
      <trkpt lat="47.15971" lon="4.9152">
        <ele>380.5</ele>
        <time>2024-06-29T07:51:40Z</time>
      </trkpt>
      <trkpt lat="47.15973" lon="4.91522">
        <ele>380.6</ele>
        <time>2024-06-29T07:51:42Z</time>
      </trkpt>
      <trkpt lat="47.15974" lon="4.91524">
        <ele>380.6</ele>
        <time>2024-06-29T07:51:44Z</time>
      </trkpt>
      <trkpt lat="47.15975" lon="4.91526">
        <ele>381</ele>
        <time>2024-06-29T07:51:46Z</time>
      </trkpt>
      <trkpt lat="47.15975" lon="4.91528">
        <ele>381.3</ele>
        <time>2024-06-29T07:51:48Z</time>
      </trkpt>
      <trkpt lat="47.15976" lon="4.9153">
        <ele>382.3</ele>
        <time>2024-06-29T07:51:50Z</time>
      </trkpt>
      <trkpt lat="47.15977" lon="4.91532">
        <ele>382.4</ele>
        <time>2024-06-29T07:51:52Z</time>
      </trkpt>
      <trkpt lat="47.15978" lon="4.91533">
        <ele>383</ele>
        <time>2024-06-29T07:51:54Z</time>
      </trkpt>
      <trkpt lat="47.15979" lon="4.91535">
        <ele>382.9</ele>
        <time>2024-06-29T07:51:56Z</time>
      </trkpt>
      <trkpt lat="47.1598" lon="4.91537">
        <ele>382.7</ele>
        <time>2024-06-29T07:51:58Z</time>
      </trkpt>
      <trkpt lat="47.15981" lon="4.91538">
        <ele>382.8</ele>
        <time>2024-06-29T07:52:00Z</time>
      </trkpt>
      <trkpt lat="47.15982" lon="4.9154">
        <ele>383</ele>
        <time>2024-06-29T07:52:02Z</time>
      </trkpt>
      <trkpt lat="47.15984" lon="4.91542">
        <ele>383.1</ele>
        <time>2024-06-29T07:52:04Z</time>
      </trkpt>
      <trkpt lat="47.15984" lon="4.91543">
        <ele>382.8</ele>
        <time>2024-06-29T07:52:05Z</time>
      </trkpt>
      <trkpt lat="47.15985" lon="4.91544">
        <ele>382.9</ele>
        <time>2024-06-29T07:52:06Z</time>
      </trkpt>
      <trkpt lat="47.15985" lon="4.91545">
        <ele>382.8</ele>
        <time>2024-06-29T07:52:07Z</time>
      </trkpt>
      <trkpt lat="47.15987" lon="4.91547">
        <ele>382.5</ele>
        <time>2024-06-29T07:52:09Z</time>
      </trkpt>
      <trkpt lat="47.15988" lon="4.91548">
        <ele>382.1</ele>
        <time>2024-06-29T07:52:10Z</time>
      </trkpt>
      <trkpt lat="47.15989" lon="4.91548">
        <ele>382.2</ele>
        <time>2024-06-29T07:52:11Z</time>
      </trkpt>
      <trkpt lat="47.1599" lon="4.91548">
        <ele>382.5</ele>
        <time>2024-06-29T07:52:12Z</time>
      </trkpt>
      <trkpt lat="47.15991" lon="4.91548">
        <ele>383.2</ele>
        <time>2024-06-29T07:52:13Z</time>
      </trkpt>
      <trkpt lat="47.15992" lon="4.91548">
        <ele>384.9</ele>
        <time>2024-06-29T07:52:14Z</time>
      </trkpt>
      <trkpt lat="47.15993" lon="4.91548">
        <ele>382.2</ele>
        <time>2024-06-29T07:52:15Z</time>
      </trkpt>
      <trkpt lat="47.15994" lon="4.91549">
        <ele>381</ele>
        <time>2024-06-29T07:52:16Z</time>
      </trkpt>
      <trkpt lat="47.15995" lon="4.9155">
        <ele>380</ele>
        <time>2024-06-29T07:52:17Z</time>
      </trkpt>
      <trkpt lat="47.15997" lon="4.9155">
        <ele>378.4</ele>
        <time>2024-06-29T07:52:18Z</time>
      </trkpt>
      <trkpt lat="47.15998" lon="4.91551">
        <ele>378</ele>
        <time>2024-06-29T07:52:19Z</time>
      </trkpt>
      <trkpt lat="47.15999" lon="4.91552">
        <ele>377</ele>
        <time>2024-06-29T07:52:21Z</time>
      </trkpt>
      <trkpt lat="47.15999" lon="4.91554">
        <ele>377</ele>
        <time>2024-06-29T07:52:22Z</time>
      </trkpt>
      <trkpt lat="47.15999" lon="4.91556">
        <ele>376.8</ele>
        <time>2024-06-29T07:52:23Z</time>
      </trkpt>
      <trkpt lat="47.15999" lon="4.91558">
        <ele>375.7</ele>
        <time>2024-06-29T07:52:24Z</time>
      </trkpt>
      <trkpt lat="47.15999" lon="4.9156">
        <ele>378.3</ele>
        <time>2024-06-29T07:52:25Z</time>
      </trkpt>
      <trkpt lat="47.16001" lon="4.91562">
        <ele>379.3</ele>
        <time>2024-06-29T07:52:27Z</time>
      </trkpt>
      <trkpt lat="47.16002" lon="4.91562">
        <ele>378</ele>
        <time>2024-06-29T07:52:28Z</time>
      </trkpt>
      <trkpt lat="47.16003" lon="4.91564">
        <ele>377.2</ele>
        <time>2024-06-29T07:52:29Z</time>
      </trkpt>
      <trkpt lat="47.16004" lon="4.91564">
        <ele>378.3</ele>
        <time>2024-06-29T07:52:30Z</time>
      </trkpt>
      <trkpt lat="47.16006" lon="4.91566">
        <ele>376.9</ele>
        <time>2024-06-29T07:52:31Z</time>
      </trkpt>
      <trkpt lat="47.16007" lon="4.91567">
        <ele>376.5</ele>
        <time>2024-06-29T07:52:32Z</time>
      </trkpt>
      <trkpt lat="47.16008" lon="4.91568">
        <ele>378.3</ele>
        <time>2024-06-29T07:52:33Z</time>
      </trkpt>
      <trkpt lat="47.1601" lon="4.91568">
        <ele>374.6</ele>
        <time>2024-06-29T07:52:34Z</time>
      </trkpt>
      <trkpt lat="47.16011" lon="4.91569">
        <ele>374.4</ele>
        <time>2024-06-29T07:52:35Z</time>
      </trkpt>
      <trkpt lat="47.16012" lon="4.9157">
        <ele>374.8</ele>
        <time>2024-06-29T07:52:36Z</time>
      </trkpt>
      <trkpt lat="47.16013" lon="4.9157">
        <ele>376.5</ele>
        <time>2024-06-29T07:52:37Z</time>
      </trkpt>
      <trkpt lat="47.16015" lon="4.9157">
        <ele>377.1</ele>
        <time>2024-06-29T07:52:38Z</time>
      </trkpt>
      <trkpt lat="47.16016" lon="4.9157">
        <ele>377.1</ele>
        <time>2024-06-29T07:52:39Z</time>
      </trkpt>
      <trkpt lat="47.16016" lon="4.91572">
        <ele>373.9</ele>
        <time>2024-06-29T07:52:43Z</time>
      </trkpt>
      <trkpt lat="47.16015" lon="4.91574">
        <ele>374.3</ele>
        <time>2024-06-29T07:52:44Z</time>
      </trkpt>
      <trkpt lat="47.16014" lon="4.91576">
        <ele>375.9</ele>
        <time>2024-06-29T07:52:46Z</time>
      </trkpt>
      <trkpt lat="47.16013" lon="4.91576">
        <ele>376</ele>
        <time>2024-06-29T07:52:49Z</time>
      </trkpt>
      <trkpt lat="47.16013" lon="4.91578">
        <ele>377.2</ele>
        <time>2024-06-29T07:52:51Z</time>
      </trkpt>
      <trkpt lat="47.16013" lon="4.91579">
        <ele>378.2</ele>
        <time>2024-06-29T07:52:52Z</time>
      </trkpt>
      <trkpt lat="47.16013" lon="4.91581">
        <ele>378.2</ele>
        <time>2024-06-29T07:52:53Z</time>
      </trkpt>
      <trkpt lat="47.16013" lon="4.91582">
        <ele>379</ele>
        <time>2024-06-29T07:52:54Z</time>
      </trkpt>
      <trkpt lat="47.16013" lon="4.91584">
        <ele>379.4</ele>
        <time>2024-06-29T07:52:55Z</time>
      </trkpt>
      <trkpt lat="47.16014" lon="4.91586">
        <ele>380.1</ele>
        <time>2024-06-29T07:52:57Z</time>
      </trkpt>
      <trkpt lat="47.16015" lon="4.91587">
        <ele>380.6</ele>
        <time>2024-06-29T07:52:58Z</time>
      </trkpt>
      <trkpt lat="47.16015" lon="4.91588">
        <ele>381.2</ele>
        <time>2024-06-29T07:52:59Z</time>
      </trkpt>
      <trkpt lat="47.16016" lon="4.9159">
        <ele>382</ele>
        <time>2024-06-29T07:53:00Z</time>
      </trkpt>
      <trkpt lat="47.16016" lon="4.91591">
        <ele>382.4</ele>
        <time>2024-06-29T07:53:01Z</time>
      </trkpt>
      <trkpt lat="47.16017" lon="4.91592">
        <ele>382.5</ele>
        <time>2024-06-29T07:53:02Z</time>
      </trkpt>
      <trkpt lat="47.16018" lon="4.91592">
        <ele>382.7</ele>
        <time>2024-06-29T07:53:03Z</time>
      </trkpt>
      <trkpt lat="47.16018" lon="4.91593">
        <ele>382.8</ele>
        <time>2024-06-29T07:53:04Z</time>
      </trkpt>
      <trkpt lat="47.1602" lon="4.91595">
        <ele>383.6</ele>
        <time>2024-06-29T07:53:06Z</time>
      </trkpt>
      <trkpt lat="47.16021" lon="4.91597">
        <ele>384.7</ele>
        <time>2024-06-29T07:53:08Z</time>
      </trkpt>
      <trkpt lat="47.16021" lon="4.91598">
        <ele>385.2</ele>
        <time>2024-06-29T07:53:09Z</time>
      </trkpt>
      <trkpt lat="47.16022" lon="4.91599">
        <ele>385.3</ele>
        <time>2024-06-29T07:53:10Z</time>
      </trkpt>
      <trkpt lat="47.16023" lon="4.916">
        <ele>385.3</ele>
        <time>2024-06-29T07:53:11Z</time>
      </trkpt>
      <trkpt lat="47.16024" lon="4.91601">
        <ele>385.7</ele>
        <time>2024-06-29T07:53:12Z</time>
      </trkpt>
      <trkpt lat="47.16024" lon="4.91602">
        <ele>385.8</ele>
        <time>2024-06-29T07:53:13Z</time>
      </trkpt>
      <trkpt lat="47.16026" lon="4.91602">
        <ele>385</ele>
        <time>2024-06-29T07:53:14Z</time>
      </trkpt>
      <trkpt lat="47.16027" lon="4.91603">
        <ele>384.9</ele>
        <time>2024-06-29T07:53:15Z</time>
      </trkpt>
      <trkpt lat="47.16028" lon="4.91604">
        <ele>385</ele>
        <time>2024-06-29T07:53:16Z</time>
      </trkpt>
      <trkpt lat="47.16029" lon="4.91605">
        <ele>383.4</ele>
        <time>2024-06-29T07:53:17Z</time>
      </trkpt>
      <trkpt lat="47.1603" lon="4.91606">
        <ele>382.3</ele>
        <time>2024-06-29T07:53:18Z</time>
      </trkpt>
      <trkpt lat="47.16031" lon="4.91607">
        <ele>383</ele>
        <time>2024-06-29T07:53:19Z</time>
      </trkpt>
      <trkpt lat="47.16032" lon="4.91608">
        <ele>381.1</ele>
        <time>2024-06-29T07:53:20Z</time>
      </trkpt>
      <trkpt lat="47.16033" lon="4.91609">
        <ele>382.8</ele>
        <time>2024-06-29T07:53:21Z</time>
      </trkpt>
      <trkpt lat="47.16035" lon="4.9161">
        <ele>382.3</ele>
        <time>2024-06-29T07:53:22Z</time>
      </trkpt>
      <trkpt lat="47.16036" lon="4.91611">
        <ele>381.2</ele>
        <time>2024-06-29T07:53:23Z</time>
      </trkpt>
      <trkpt lat="47.16036" lon="4.91611">
        <ele>381.8</ele>
        <time>2024-06-29T07:53:24Z</time>
      </trkpt>
      <trkpt lat="47.16038" lon="4.91611">
        <ele>383.6</ele>
        <time>2024-06-29T07:53:25Z</time>
      </trkpt>
      <trkpt lat="47.16039" lon="4.91612">
        <ele>379.2</ele>
        <time>2024-06-29T07:53:26Z</time>
      </trkpt>
      <trkpt lat="47.1604" lon="4.91613">
        <ele>380.8</ele>
        <time>2024-06-29T07:53:27Z</time>
      </trkpt>
      <trkpt lat="47.16041" lon="4.91613">
        <ele>380.8</ele>
        <time>2024-06-29T07:53:28Z</time>
      </trkpt>
      <trkpt lat="47.16042" lon="4.91615">
        <ele>381.1</ele>
        <time>2024-06-29T07:53:29Z</time>
      </trkpt>
      <trkpt lat="47.16042" lon="4.91616">
        <ele>382</ele>
        <time>2024-06-29T07:53:30Z</time>
      </trkpt>
      <trkpt lat="47.16044" lon="4.9162">
        <ele>378</ele>
        <time>2024-06-29T07:53:31Z</time>
      </trkpt>
      <trkpt lat="47.16047" lon="4.91622">
        <ele>379.9</ele>
        <time>2024-06-29T07:53:32Z</time>
      </trkpt>
      <trkpt lat="47.16049" lon="4.91623">
        <ele>380.2</ele>
        <time>2024-06-29T07:53:33Z</time>
      </trkpt>
      <trkpt lat="47.1605" lon="4.91623">
        <ele>377.8</ele>
        <time>2024-06-29T07:53:36Z</time>
      </trkpt>
      <trkpt lat="47.1605" lon="4.91625">
        <ele>380.6</ele>
        <time>2024-06-29T07:53:39Z</time>
      </trkpt>
      <trkpt lat="47.16051" lon="4.91625">
        <ele>379.2</ele>
        <time>2024-06-29T07:53:41Z</time>
      </trkpt>
      <trkpt lat="47.16052" lon="4.91627">
        <ele>375.4</ele>
        <time>2024-06-29T07:53:42Z</time>
      </trkpt>
      <trkpt lat="47.16053" lon="4.91629">
        <ele>376.8</ele>
        <time>2024-06-29T07:53:43Z</time>
      </trkpt>
      <trkpt lat="47.16053" lon="4.9163">
        <ele>377.6</ele>
        <time>2024-06-29T07:53:44Z</time>
      </trkpt>
      <trkpt lat="47.16055" lon="4.91631">
        <ele>374.4</ele>
        <time>2024-06-29T07:53:46Z</time>
      </trkpt>
      <trkpt lat="47.16056" lon="4.91631">
        <ele>374.2</ele>
        <time>2024-06-29T07:53:47Z</time>
      </trkpt>
      <trkpt lat="47.16057" lon="4.91631">
        <ele>375.7</ele>
        <time>2024-06-29T07:53:48Z</time>
      </trkpt>
      <trkpt lat="47.16059" lon="4.91631">
        <ele>378.9</ele>
        <time>2024-06-29T07:53:50Z</time>
      </trkpt>
      <trkpt lat="47.1606" lon="4.91631">
        <ele>379.7</ele>
        <time>2024-06-29T07:53:51Z</time>
      </trkpt>
      <trkpt lat="47.16061" lon="4.91631">
        <ele>380.1</ele>
        <time>2024-06-29T07:53:52Z</time>
      </trkpt>
      <trkpt lat="47.16062" lon="4.91632">
        <ele>381.4</ele>
        <time>2024-06-29T07:53:53Z</time>
      </trkpt>
      <trkpt lat="47.16063" lon="4.91632">
        <ele>382.3</ele>
        <time>2024-06-29T07:53:54Z</time>
      </trkpt>
      <trkpt lat="47.16064" lon="4.91633">
        <ele>383.2</ele>
        <time>2024-06-29T07:53:55Z</time>
      </trkpt>
      <trkpt lat="47.16065" lon="4.91633">
        <ele>385.2</ele>
        <time>2024-06-29T07:53:56Z</time>
      </trkpt>
      <trkpt lat="47.16067" lon="4.91634">
        <ele>385</ele>
        <time>2024-06-29T07:53:58Z</time>
      </trkpt>
      <trkpt lat="47.16068" lon="4.91634">
        <ele>385.8</ele>
        <time>2024-06-29T07:54:00Z</time>
      </trkpt>
      <trkpt lat="47.1607" lon="4.91634">
        <ele>388</ele>
        <time>2024-06-29T07:54:02Z</time>
      </trkpt>
      <trkpt lat="47.16071" lon="4.91634">
        <ele>388.6</ele>
        <time>2024-06-29T07:54:04Z</time>
      </trkpt>
      <trkpt lat="47.16072" lon="4.91635">
        <ele>388</ele>
        <time>2024-06-29T07:54:06Z</time>
      </trkpt>
      <trkpt lat="47.16073" lon="4.91636">
        <ele>388.1</ele>
        <time>2024-06-29T07:54:08Z</time>
      </trkpt>
      <trkpt lat="47.16074" lon="4.91637">
        <ele>389.1</ele>
        <time>2024-06-29T07:54:09Z</time>
      </trkpt>
      <trkpt lat="47.16075" lon="4.91638">
        <ele>390.4</ele>
        <time>2024-06-29T07:54:10Z</time>
      </trkpt>
      <trkpt lat="47.16077" lon="4.91639">
        <ele>390.9</ele>
        <time>2024-06-29T07:54:11Z</time>
      </trkpt>
      <trkpt lat="47.16078" lon="4.91639">
        <ele>390.3</ele>
        <time>2024-06-29T07:54:12Z</time>
      </trkpt>
      <trkpt lat="47.16079" lon="4.91641">
        <ele>390.2</ele>
        <time>2024-06-29T07:54:14Z</time>
      </trkpt>
      <trkpt lat="47.1608" lon="4.91642">
        <ele>389.7</ele>
        <time>2024-06-29T07:54:16Z</time>
      </trkpt>
      <trkpt lat="47.16081" lon="4.91644">
        <ele>390</ele>
        <time>2024-06-29T07:54:18Z</time>
      </trkpt>
      <trkpt lat="47.16082" lon="4.91645">
        <ele>390.3</ele>
        <time>2024-06-29T07:54:20Z</time>
      </trkpt>
      <trkpt lat="47.16083" lon="4.91646">
        <ele>390.6</ele>
        <time>2024-06-29T07:54:22Z</time>
      </trkpt>
      <trkpt lat="47.16084" lon="4.91647">
        <ele>390.6</ele>
        <time>2024-06-29T07:54:24Z</time>
      </trkpt>
      <trkpt lat="47.16086" lon="4.91648">
        <ele>390.5</ele>
        <time>2024-06-29T07:54:26Z</time>
      </trkpt>
      <trkpt lat="47.16087" lon="4.91649">
        <ele>390.7</ele>
        <time>2024-06-29T07:54:28Z</time>
      </trkpt>
      <trkpt lat="47.16089" lon="4.9165">
        <ele>390.3</ele>
        <time>2024-06-29T07:54:30Z</time>
      </trkpt>
      <trkpt lat="47.16089" lon="4.91651">
        <ele>390.7</ele>
        <time>2024-06-29T07:54:31Z</time>
      </trkpt>
      <trkpt lat="47.16091" lon="4.91651">
        <ele>390.8</ele>
        <time>2024-06-29T07:54:33Z</time>
      </trkpt>
      <trkpt lat="47.16092" lon="4.91653">
        <ele>390.6</ele>
        <time>2024-06-29T07:54:35Z</time>
      </trkpt>
      <trkpt lat="47.16093" lon="4.91654">
        <ele>390.8</ele>
        <time>2024-06-29T07:54:36Z</time>
      </trkpt>
      <trkpt lat="47.16094" lon="4.91654">
        <ele>390.7</ele>
        <time>2024-06-29T07:54:37Z</time>
      </trkpt>
      <trkpt lat="47.16095" lon="4.91655">
        <ele>390.7</ele>
        <time>2024-06-29T07:54:38Z</time>
      </trkpt>
      <trkpt lat="47.16096" lon="4.91656">
        <ele>391.2</ele>
        <time>2024-06-29T07:54:39Z</time>
      </trkpt>
      <trkpt lat="47.16097" lon="4.91657">
        <ele>391.4</ele>
        <time>2024-06-29T07:54:40Z</time>
      </trkpt>
      <trkpt lat="47.16098" lon="4.91657">
        <ele>391.8</ele>
        <time>2024-06-29T07:54:41Z</time>
      </trkpt>
      <trkpt lat="47.16099" lon="4.91658">
        <ele>392.4</ele>
        <time>2024-06-29T07:54:42Z</time>
      </trkpt>
      <trkpt lat="47.161" lon="4.91659">
        <ele>392.9</ele>
        <time>2024-06-29T07:54:43Z</time>
      </trkpt>
      <trkpt lat="47.16101" lon="4.91659">
        <ele>393.2</ele>
        <time>2024-06-29T07:54:44Z</time>
      </trkpt>
      <trkpt lat="47.16102" lon="4.9166">
        <ele>393.3</ele>
        <time>2024-06-29T07:54:45Z</time>
      </trkpt>
      <trkpt lat="47.16104" lon="4.91661">
        <ele>395.4</ele>
        <time>2024-06-29T07:54:46Z</time>
      </trkpt>
      <trkpt lat="47.16105" lon="4.91662">
        <ele>394.3</ele>
        <time>2024-06-29T07:54:47Z</time>
      </trkpt>
      <trkpt lat="47.16106" lon="4.91662">
        <ele>395.2</ele>
        <time>2024-06-29T07:54:48Z</time>
      </trkpt>
      <trkpt lat="47.16107" lon="4.91663">
        <ele>395.4</ele>
        <time>2024-06-29T07:54:49Z</time>
      </trkpt>
      <trkpt lat="47.16108" lon="4.91663">
        <ele>394.9</ele>
        <time>2024-06-29T07:54:50Z</time>
      </trkpt>
      <trkpt lat="47.16109" lon="4.91663">
        <ele>394.6</ele>
        <time>2024-06-29T07:54:51Z</time>
      </trkpt>
      <trkpt lat="47.16111" lon="4.91664">
        <ele>392.4</ele>
        <time>2024-06-29T07:54:53Z</time>
      </trkpt>
      <trkpt lat="47.16112" lon="4.91665">
        <ele>391.7</ele>
        <time>2024-06-29T07:54:54Z</time>
      </trkpt>
      <trkpt lat="47.16113" lon="4.91666">
        <ele>391.7</ele>
        <time>2024-06-29T07:54:55Z</time>
      </trkpt>
      <trkpt lat="47.16114" lon="4.91667">
        <ele>390.9</ele>
        <time>2024-06-29T07:54:56Z</time>
      </trkpt>
      <trkpt lat="47.16116" lon="4.91667">
        <ele>392</ele>
        <time>2024-06-29T07:54:57Z</time>
      </trkpt>
      <trkpt lat="47.16117" lon="4.91668">
        <ele>391.1</ele>
        <time>2024-06-29T07:54:58Z</time>
      </trkpt>
      <trkpt lat="47.16118" lon="4.91668">
        <ele>389.4</ele>
        <time>2024-06-29T07:54:59Z</time>
      </trkpt>
      <trkpt lat="47.16119" lon="4.91669">
        <ele>390.3</ele>
        <time>2024-06-29T07:55:00Z</time>
      </trkpt>
      <trkpt lat="47.1612" lon="4.91669">
        <ele>390.5</ele>
        <time>2024-06-29T07:55:01Z</time>
      </trkpt>
      <trkpt lat="47.16121" lon="4.9167">
        <ele>392.5</ele>
        <time>2024-06-29T07:55:03Z</time>
      </trkpt>
      <trkpt lat="47.16122" lon="4.9167">
        <ele>393.4</ele>
        <time>2024-06-29T07:55:04Z</time>
      </trkpt>
      <trkpt lat="47.16123" lon="4.9167">
        <ele>395.3</ele>
        <time>2024-06-29T07:55:05Z</time>
      </trkpt>
      <trkpt lat="47.16124" lon="4.91671">
        <ele>394.7</ele>
        <time>2024-06-29T07:55:06Z</time>
      </trkpt>
      <trkpt lat="47.16125" lon="4.91672">
        <ele>393.4</ele>
        <time>2024-06-29T07:55:07Z</time>
      </trkpt>
      <trkpt lat="47.16126" lon="4.91673">
        <ele>392.8</ele>
        <time>2024-06-29T07:55:08Z</time>
      </trkpt>
      <trkpt lat="47.16127" lon="4.91674">
        <ele>391.6</ele>
        <time>2024-06-29T07:55:09Z</time>
      </trkpt>
      <trkpt lat="47.16127" lon="4.91675">
        <ele>391.6</ele>
        <time>2024-06-29T07:55:10Z</time>
      </trkpt>
      <trkpt lat="47.16129" lon="4.91676">
        <ele>392.4</ele>
        <time>2024-06-29T07:55:11Z</time>
      </trkpt>
      <trkpt lat="47.1613" lon="4.91676">
        <ele>392</ele>
        <time>2024-06-29T07:55:12Z</time>
      </trkpt>
      <trkpt lat="47.16131" lon="4.91677">
        <ele>391.3</ele>
        <time>2024-06-29T07:55:13Z</time>
      </trkpt>
      <trkpt lat="47.16132" lon="4.91677">
        <ele>391.9</ele>
        <time>2024-06-29T07:55:14Z</time>
      </trkpt>
      <trkpt lat="47.16133" lon="4.91678">
        <ele>392.4</ele>
        <time>2024-06-29T07:55:15Z</time>
      </trkpt>
      <trkpt lat="47.16134" lon="4.91678">
        <ele>391.9</ele>
        <time>2024-06-29T07:55:16Z</time>
      </trkpt>
      <trkpt lat="47.16135" lon="4.91679">
        <ele>391.3</ele>
        <time>2024-06-29T07:55:17Z</time>
      </trkpt>
      <trkpt lat="47.16136" lon="4.91679">
        <ele>391.5</ele>
        <time>2024-06-29T07:55:18Z</time>
      </trkpt>
      <trkpt lat="47.16137" lon="4.9168">
        <ele>392.3</ele>
        <time>2024-06-29T07:55:19Z</time>
      </trkpt>
      <trkpt lat="47.16138" lon="4.9168">
        <ele>393</ele>
        <time>2024-06-29T07:55:20Z</time>
      </trkpt>
      <trkpt lat="47.16139" lon="4.9168">
        <ele>392.7</ele>
        <time>2024-06-29T07:55:21Z</time>
      </trkpt>
      <trkpt lat="47.1614" lon="4.91681">
        <ele>392.9</ele>
        <time>2024-06-29T07:55:22Z</time>
      </trkpt>
      <trkpt lat="47.16141" lon="4.91681">
        <ele>392.1</ele>
        <time>2024-06-29T07:55:24Z</time>
      </trkpt>
      <trkpt lat="47.16142" lon="4.9168">
        <ele>392.1</ele>
        <time>2024-06-29T07:55:26Z</time>
      </trkpt>
      <trkpt lat="47.16144" lon="4.91681">
        <ele>392</ele>
        <time>2024-06-29T07:55:28Z</time>
      </trkpt>
      <trkpt lat="47.16145" lon="4.91681">
        <ele>391.8</ele>
        <time>2024-06-29T07:55:29Z</time>
      </trkpt>
      <trkpt lat="47.16146" lon="4.91681">
        <ele>392</ele>
        <time>2024-06-29T07:55:30Z</time>
      </trkpt>
      <trkpt lat="47.16148" lon="4.9168">
        <ele>392.1</ele>
        <time>2024-06-29T07:55:31Z</time>
      </trkpt>
      <trkpt lat="47.16149" lon="4.91681">
        <ele>391.6</ele>
        <time>2024-06-29T07:55:32Z</time>
      </trkpt>
      <trkpt lat="47.1615" lon="4.91682">
        <ele>391.5</ele>
        <time>2024-06-29T07:55:33Z</time>
      </trkpt>
      <trkpt lat="47.16151" lon="4.91683">
        <ele>391.3</ele>
        <time>2024-06-29T07:55:34Z</time>
      </trkpt>
      <trkpt lat="47.16152" lon="4.91683">
        <ele>391.2</ele>
        <time>2024-06-29T07:55:35Z</time>
      </trkpt>
      <trkpt lat="47.16152" lon="4.91684">
        <ele>391.4</ele>
        <time>2024-06-29T07:55:36Z</time>
      </trkpt>
      <trkpt lat="47.16153" lon="4.91685">
        <ele>391.2</ele>
        <time>2024-06-29T07:55:37Z</time>
      </trkpt>
      <trkpt lat="47.16154" lon="4.91685">
        <ele>391.3</ele>
        <time>2024-06-29T07:55:38Z</time>
      </trkpt>
      <trkpt lat="47.16155" lon="4.91686">
        <ele>391.1</ele>
        <time>2024-06-29T07:55:39Z</time>
      </trkpt>
      <trkpt lat="47.16156" lon="4.91686">
        <ele>391.4</ele>
        <time>2024-06-29T07:55:40Z</time>
      </trkpt>
      <trkpt lat="47.16157" lon="4.91687">
        <ele>391.3</ele>
        <time>2024-06-29T07:55:41Z</time>
      </trkpt>
      <trkpt lat="47.16158" lon="4.91687">
        <ele>391.8</ele>
        <time>2024-06-29T07:55:42Z</time>
      </trkpt>
      <trkpt lat="47.16159" lon="4.91687">
        <ele>391.7</ele>
        <time>2024-06-29T07:55:43Z</time>
      </trkpt>
      <trkpt lat="47.1616" lon="4.91688">
        <ele>391.5</ele>
        <time>2024-06-29T07:55:44Z</time>
      </trkpt>
      <trkpt lat="47.16161" lon="4.91688">
        <ele>391.5</ele>
        <time>2024-06-29T07:55:45Z</time>
      </trkpt>
      <trkpt lat="47.16162" lon="4.91689">
        <ele>391.4</ele>
        <time>2024-06-29T07:55:46Z</time>
      </trkpt>
      <trkpt lat="47.16163" lon="4.91689">
        <ele>391.8</ele>
        <time>2024-06-29T07:55:47Z</time>
      </trkpt>
      <trkpt lat="47.16164" lon="4.91689">
        <ele>392.2</ele>
        <time>2024-06-29T07:55:48Z</time>
      </trkpt>
      <trkpt lat="47.16165" lon="4.9169">
        <ele>392.1</ele>
        <time>2024-06-29T07:55:49Z</time>
      </trkpt>
      <trkpt lat="47.16166" lon="4.9169">
        <ele>391.9</ele>
        <time>2024-06-29T07:55:50Z</time>
      </trkpt>
      <trkpt lat="47.16167" lon="4.9169">
        <ele>391.9</ele>
        <time>2024-06-29T07:55:51Z</time>
      </trkpt>
      <trkpt lat="47.16168" lon="4.91691">
        <ele>392</ele>
        <time>2024-06-29T07:55:52Z</time>
      </trkpt>
      <trkpt lat="47.16169" lon="4.91691">
        <ele>392.1</ele>
        <time>2024-06-29T07:55:53Z</time>
      </trkpt>
      <trkpt lat="47.16169" lon="4.91691">
        <ele>391.8</ele>
        <time>2024-06-29T07:55:54Z</time>
      </trkpt>
      <trkpt lat="47.1617" lon="4.91692">
        <ele>391.8</ele>
        <time>2024-06-29T07:55:55Z</time>
      </trkpt>
      <trkpt lat="47.16171" lon="4.91692">
        <ele>391.9</ele>
        <time>2024-06-29T07:55:56Z</time>
      </trkpt>
      <trkpt lat="47.16172" lon="4.91693">
        <ele>391.9</ele>
        <time>2024-06-29T07:55:57Z</time>
      </trkpt>
      <trkpt lat="47.16173" lon="4.91693">
        <ele>392.1</ele>
        <time>2024-06-29T07:55:58Z</time>
      </trkpt>
      <trkpt lat="47.16174" lon="4.91694">
        <ele>392.1</ele>
        <time>2024-06-29T07:55:59Z</time>
      </trkpt>
      <trkpt lat="47.16175" lon="4.91694">
        <ele>392.4</ele>
        <time>2024-06-29T07:56:00Z</time>
      </trkpt>
      <trkpt lat="47.16176" lon="4.91694">
        <ele>392.5</ele>
        <time>2024-06-29T07:56:01Z</time>
      </trkpt>
      <trkpt lat="47.16177" lon="4.91695">
        <ele>392.8</ele>
        <time>2024-06-29T07:56:02Z</time>
      </trkpt>
      <trkpt lat="47.16178" lon="4.91695">
        <ele>392.6</ele>
        <time>2024-06-29T07:56:03Z</time>
      </trkpt>
      <trkpt lat="47.16179" lon="4.91696">
        <ele>392.6</ele>
        <time>2024-06-29T07:56:04Z</time>
      </trkpt>
      <trkpt lat="47.1618" lon="4.91697">
        <ele>392.5</ele>
        <time>2024-06-29T07:56:05Z</time>
      </trkpt>
      <trkpt lat="47.16181" lon="4.91697">
        <ele>392.5</ele>
        <time>2024-06-29T07:56:06Z</time>
      </trkpt>
      <trkpt lat="47.16182" lon="4.91698">
        <ele>392.7</ele>
        <time>2024-06-29T07:56:07Z</time>
      </trkpt>
      <trkpt lat="47.16183" lon="4.91699">
        <ele>393</ele>
        <time>2024-06-29T07:56:08Z</time>
      </trkpt>
      <trkpt lat="47.16184" lon="4.917">
        <ele>393</ele>
        <time>2024-06-29T07:56:09Z</time>
      </trkpt>
      <trkpt lat="47.16185" lon="4.917">
        <ele>393.4</ele>
        <time>2024-06-29T07:56:10Z</time>
      </trkpt>
      <trkpt lat="47.16185" lon="4.91701">
        <ele>392.7</ele>
        <time>2024-06-29T07:56:11Z</time>
      </trkpt>
      <trkpt lat="47.16186" lon="4.91702">
        <ele>392.9</ele>
        <time>2024-06-29T07:56:12Z</time>
      </trkpt>
      <trkpt lat="47.16187" lon="4.91703">
        <ele>392.8</ele>
        <time>2024-06-29T07:56:13Z</time>
      </trkpt>
      <trkpt lat="47.16188" lon="4.91704">
        <ele>392.1</ele>
        <time>2024-06-29T07:56:14Z</time>
      </trkpt>
      <trkpt lat="47.16189" lon="4.91705">
        <ele>392.1</ele>
        <time>2024-06-29T07:56:15Z</time>
      </trkpt>
      <trkpt lat="47.1619" lon="4.91706">
        <ele>392.7</ele>
        <time>2024-06-29T07:56:16Z</time>
      </trkpt>
      <trkpt lat="47.16191" lon="4.91706">
        <ele>393.7</ele>
        <time>2024-06-29T07:56:17Z</time>
      </trkpt>
      <trkpt lat="47.16192" lon="4.91707">
        <ele>392.4</ele>
        <time>2024-06-29T07:56:18Z</time>
      </trkpt>
      <trkpt lat="47.16193" lon="4.91707">
        <ele>393.3</ele>
        <time>2024-06-29T07:56:19Z</time>
      </trkpt>
      <trkpt lat="47.16194" lon="4.91708">
        <ele>393.9</ele>
        <time>2024-06-29T07:56:20Z</time>
      </trkpt>
      <trkpt lat="47.16195" lon="4.91709">
        <ele>393.9</ele>
        <time>2024-06-29T07:56:21Z</time>
      </trkpt>
      <trkpt lat="47.16196" lon="4.9171">
        <ele>393.4</ele>
        <time>2024-06-29T07:56:22Z</time>
      </trkpt>
      <trkpt lat="47.16197" lon="4.91711">
        <ele>393.4</ele>
        <time>2024-06-29T07:56:23Z</time>
      </trkpt>
      <trkpt lat="47.16197" lon="4.91711">
        <ele>393.8</ele>
        <time>2024-06-29T07:56:24Z</time>
      </trkpt>
      <trkpt lat="47.16199" lon="4.91713">
        <ele>393.7</ele>
        <time>2024-06-29T07:56:26Z</time>
      </trkpt>
      <trkpt lat="47.162" lon="4.91715">
        <ele>393.2</ele>
        <time>2024-06-29T07:56:28Z</time>
      </trkpt>
      <trkpt lat="47.16201" lon="4.91716">
        <ele>393</ele>
        <time>2024-06-29T07:56:29Z</time>
      </trkpt>
      <trkpt lat="47.16202" lon="4.91716">
        <ele>392.6</ele>
        <time>2024-06-29T07:56:30Z</time>
      </trkpt>
      <trkpt lat="47.16203" lon="4.91718">
        <ele>392.6</ele>
        <time>2024-06-29T07:56:32Z</time>
      </trkpt>
      <trkpt lat="47.16204" lon="4.91719">
        <ele>392.8</ele>
        <time>2024-06-29T07:56:33Z</time>
      </trkpt>
      <trkpt lat="47.16205" lon="4.9172">
        <ele>392.5</ele>
        <time>2024-06-29T07:56:34Z</time>
      </trkpt>
      <trkpt lat="47.16205" lon="4.91721">
        <ele>392.4</ele>
        <time>2024-06-29T07:56:35Z</time>
      </trkpt>
      <trkpt lat="47.16206" lon="4.91722">
        <ele>392.4</ele>
        <time>2024-06-29T07:56:36Z</time>
      </trkpt>
      <trkpt lat="47.16207" lon="4.91722">
        <ele>392.5</ele>
        <time>2024-06-29T07:56:37Z</time>
      </trkpt>
      <trkpt lat="47.16208" lon="4.91723">
        <ele>392.8</ele>
        <time>2024-06-29T07:56:38Z</time>
      </trkpt>
      <trkpt lat="47.16208" lon="4.91724">
        <ele>393</ele>
        <time>2024-06-29T07:56:39Z</time>
      </trkpt>
      <trkpt lat="47.16209" lon="4.91725">
        <ele>393</ele>
        <time>2024-06-29T07:56:40Z</time>
      </trkpt>
      <trkpt lat="47.1621" lon="4.91726">
        <ele>392.8</ele>
        <time>2024-06-29T07:56:41Z</time>
      </trkpt>
      <trkpt lat="47.16211" lon="4.91727">
        <ele>392.7</ele>
        <time>2024-06-29T07:56:42Z</time>
      </trkpt>
      <trkpt lat="47.16211" lon="4.91728">
        <ele>392.5</ele>
        <time>2024-06-29T07:56:43Z</time>
      </trkpt>
      <trkpt lat="47.16212" lon="4.91729">
        <ele>392.4</ele>
        <time>2024-06-29T07:56:44Z</time>
      </trkpt>
      <trkpt lat="47.16213" lon="4.9173">
        <ele>392.2</ele>
        <time>2024-06-29T07:56:45Z</time>
      </trkpt>
      <trkpt lat="47.16214" lon="4.91732">
        <ele>392.3</ele>
        <time>2024-06-29T07:56:46Z</time>
      </trkpt>
      <trkpt lat="47.16215" lon="4.91733">
        <ele>392.1</ele>
        <time>2024-06-29T07:56:47Z</time>
      </trkpt>
      <trkpt lat="47.16215" lon="4.91734">
        <ele>392.2</ele>
        <time>2024-06-29T07:56:48Z</time>
      </trkpt>
      <trkpt lat="47.16216" lon="4.91735">
        <ele>392.2</ele>
        <time>2024-06-29T07:56:49Z</time>
      </trkpt>
      <trkpt lat="47.16217" lon="4.91736">
        <ele>392</ele>
        <time>2024-06-29T07:56:50Z</time>
      </trkpt>
      <trkpt lat="47.16217" lon="4.91737">
        <ele>391.7</ele>
        <time>2024-06-29T07:56:51Z</time>
      </trkpt>
      <trkpt lat="47.16218" lon="4.91738">
        <ele>392.3</ele>
        <time>2024-06-29T07:56:52Z</time>
      </trkpt>
      <trkpt lat="47.16219" lon="4.91739">
        <ele>392.3</ele>
        <time>2024-06-29T07:56:53Z</time>
      </trkpt>
      <trkpt lat="47.16219" lon="4.9174">
        <ele>391.9</ele>
        <time>2024-06-29T07:56:54Z</time>
      </trkpt>
      <trkpt lat="47.1622" lon="4.91742">
        <ele>391.8</ele>
        <time>2024-06-29T07:56:55Z</time>
      </trkpt>
      <trkpt lat="47.16221" lon="4.91743">
        <ele>391.7</ele>
        <time>2024-06-29T07:56:56Z</time>
      </trkpt>
      <trkpt lat="47.16221" lon="4.91745">
        <ele>391.3</ele>
        <time>2024-06-29T07:56:57Z</time>
      </trkpt>
      <trkpt lat="47.16222" lon="4.91746">
        <ele>391</ele>
        <time>2024-06-29T07:56:58Z</time>
      </trkpt>
      <trkpt lat="47.16222" lon="4.91748">
        <ele>390.9</ele>
        <time>2024-06-29T07:56:59Z</time>
      </trkpt>
      <trkpt lat="47.16223" lon="4.91749">
        <ele>390.7</ele>
        <time>2024-06-29T07:57:00Z</time>
      </trkpt>
      <trkpt lat="47.16223" lon="4.91751">
        <ele>390.9</ele>
        <time>2024-06-29T07:57:01Z</time>
      </trkpt>
      <trkpt lat="47.16224" lon="4.91752">
        <ele>391</ele>
        <time>2024-06-29T07:57:02Z</time>
      </trkpt>
      <trkpt lat="47.16224" lon="4.91754">
        <ele>391.3</ele>
        <time>2024-06-29T07:57:03Z</time>
      </trkpt>
      <trkpt lat="47.16225" lon="4.91755">
        <ele>391.3</ele>
        <time>2024-06-29T07:57:04Z</time>
      </trkpt>
      <trkpt lat="47.16225" lon="4.91756">
        <ele>391.2</ele>
        <time>2024-06-29T07:57:05Z</time>
      </trkpt>
      <trkpt lat="47.16226" lon="4.91758">
        <ele>391.4</ele>
        <time>2024-06-29T07:57:06Z</time>
      </trkpt>
      <trkpt lat="47.16226" lon="4.91759">
        <ele>391.3</ele>
        <time>2024-06-29T07:57:07Z</time>
      </trkpt>
      <trkpt lat="47.16227" lon="4.91761">
        <ele>391.4</ele>
        <time>2024-06-29T07:57:08Z</time>
      </trkpt>
      <trkpt lat="47.16227" lon="4.91762">
        <ele>391.4</ele>
        <time>2024-06-29T07:57:09Z</time>
      </trkpt>
      <trkpt lat="47.16228" lon="4.91764">
        <ele>392.3</ele>
        <time>2024-06-29T07:57:10Z</time>
      </trkpt>
      <trkpt lat="47.16228" lon="4.91765">
        <ele>390.8</ele>
        <time>2024-06-29T07:57:11Z</time>
      </trkpt>
      <trkpt lat="47.16229" lon="4.91766">
        <ele>390.9</ele>
        <time>2024-06-29T07:57:12Z</time>
      </trkpt>
      <trkpt lat="47.1623" lon="4.91768">
        <ele>390.9</ele>
        <time>2024-06-29T07:57:13Z</time>
      </trkpt>
      <trkpt lat="47.1623" lon="4.91769">
        <ele>391.4</ele>
        <time>2024-06-29T07:57:14Z</time>
      </trkpt>
      <trkpt lat="47.16231" lon="4.9177">
        <ele>391.1</ele>
        <time>2024-06-29T07:57:15Z</time>
      </trkpt>
      <trkpt lat="47.16232" lon="4.91772">
        <ele>391.6</ele>
        <time>2024-06-29T07:57:16Z</time>
      </trkpt>
      <trkpt lat="47.16232" lon="4.91773">
        <ele>391.4</ele>
        <time>2024-06-29T07:57:17Z</time>
      </trkpt>
      <trkpt lat="47.16233" lon="4.91774">
        <ele>392.3</ele>
        <time>2024-06-29T07:57:18Z</time>
      </trkpt>
      <trkpt lat="47.16233" lon="4.91776">
        <ele>392.4</ele>
        <time>2024-06-29T07:57:19Z</time>
      </trkpt>
      <trkpt lat="47.16233" lon="4.91777">
        <ele>392.4</ele>
        <time>2024-06-29T07:57:20Z</time>
      </trkpt>
      <trkpt lat="47.16234" lon="4.91779">
        <ele>392.2</ele>
        <time>2024-06-29T07:57:21Z</time>
      </trkpt>
      <trkpt lat="47.16234" lon="4.91781">
        <ele>393.5</ele>
        <time>2024-06-29T07:57:22Z</time>
      </trkpt>
      <trkpt lat="47.16235" lon="4.91783">
        <ele>383.8</ele>
        <time>2024-06-29T07:57:23Z</time>
      </trkpt>
      <trkpt lat="47.16236" lon="4.91785">
        <ele>385.4</ele>
        <time>2024-06-29T07:57:24Z</time>
      </trkpt>
      <trkpt lat="47.16237" lon="4.91787">
        <ele>386.4</ele>
        <time>2024-06-29T07:57:25Z</time>
      </trkpt>
      <trkpt lat="47.16238" lon="4.91789">
        <ele>386</ele>
        <time>2024-06-29T07:57:26Z</time>
      </trkpt>
      <trkpt lat="47.16239" lon="4.9179">
        <ele>387.1</ele>
        <time>2024-06-29T07:57:27Z</time>
      </trkpt>
      <trkpt lat="47.16239" lon="4.91791">
        <ele>386.1</ele>
        <time>2024-06-29T07:57:28Z</time>
      </trkpt>
      <trkpt lat="47.1624" lon="4.91792">
        <ele>385</ele>
        <time>2024-06-29T07:57:29Z</time>
      </trkpt>
      <trkpt lat="47.16241" lon="4.91793">
        <ele>384</ele>
        <time>2024-06-29T07:57:30Z</time>
      </trkpt>
      <trkpt lat="47.16242" lon="4.91794">
        <ele>383.7</ele>
        <time>2024-06-29T07:57:31Z</time>
      </trkpt>
      <trkpt lat="47.16242" lon="4.91796">
        <ele>384.2</ele>
        <time>2024-06-29T07:57:32Z</time>
      </trkpt>
      <trkpt lat="47.16242" lon="4.91797">
        <ele>384.3</ele>
        <time>2024-06-29T07:57:33Z</time>
      </trkpt>
      <trkpt lat="47.16243" lon="4.91799">
        <ele>383.1</ele>
        <time>2024-06-29T07:57:34Z</time>
      </trkpt>
      <trkpt lat="47.16243" lon="4.91801">
        <ele>385.1</ele>
        <time>2024-06-29T07:57:35Z</time>
      </trkpt>
      <trkpt lat="47.16243" lon="4.91803">
        <ele>385.5</ele>
        <time>2024-06-29T07:57:36Z</time>
      </trkpt>
      <trkpt lat="47.16243" lon="4.91805">
        <ele>385.5</ele>
        <time>2024-06-29T07:57:37Z</time>
      </trkpt>
      <trkpt lat="47.16244" lon="4.91807">
        <ele>384.2</ele>
        <time>2024-06-29T07:57:38Z</time>
      </trkpt>
      <trkpt lat="47.16245" lon="4.91809">
        <ele>381.5</ele>
        <time>2024-06-29T07:57:39Z</time>
      </trkpt>
      <trkpt lat="47.16245" lon="4.9181">
        <ele>381.8</ele>
        <time>2024-06-29T07:57:40Z</time>
      </trkpt>
      <trkpt lat="47.16245" lon="4.91812">
        <ele>381.6</ele>
        <time>2024-06-29T07:57:41Z</time>
      </trkpt>
      <trkpt lat="47.16246" lon="4.91814">
        <ele>382.1</ele>
        <time>2024-06-29T07:57:42Z</time>
      </trkpt>
      <trkpt lat="47.16246" lon="4.91815">
        <ele>383.1</ele>
        <time>2024-06-29T07:57:43Z</time>
      </trkpt>
      <trkpt lat="47.16247" lon="4.91816">
        <ele>379.8</ele>
        <time>2024-06-29T07:57:44Z</time>
      </trkpt>
      <trkpt lat="47.16248" lon="4.91817">
        <ele>379.8</ele>
        <time>2024-06-29T07:57:45Z</time>
      </trkpt>
      <trkpt lat="47.16249" lon="4.91819">
        <ele>380.3</ele>
        <time>2024-06-29T07:57:46Z</time>
      </trkpt>
      <trkpt lat="47.16249" lon="4.9182">
        <ele>379.6</ele>
        <time>2024-06-29T07:57:47Z</time>
      </trkpt>
      <trkpt lat="47.16249" lon="4.91821">
        <ele>381.5</ele>
        <time>2024-06-29T07:57:48Z</time>
      </trkpt>
      <trkpt lat="47.1625" lon="4.91823">
        <ele>380.8</ele>
        <time>2024-06-29T07:57:49Z</time>
      </trkpt>
      <trkpt lat="47.1625" lon="4.91824">
        <ele>381.4</ele>
        <time>2024-06-29T07:57:50Z</time>
      </trkpt>
      <trkpt lat="47.1625" lon="4.91826">
        <ele>381</ele>
        <time>2024-06-29T07:57:51Z</time>
      </trkpt>
      <trkpt lat="47.16251" lon="4.91827">
        <ele>380.8</ele>
        <time>2024-06-29T07:57:52Z</time>
      </trkpt>
      <trkpt lat="47.16251" lon="4.91828">
        <ele>381.2</ele>
        <time>2024-06-29T07:57:53Z</time>
      </trkpt>
      <trkpt lat="47.16251" lon="4.9183">
        <ele>381.9</ele>
        <time>2024-06-29T07:57:54Z</time>
      </trkpt>
      <trkpt lat="47.16252" lon="4.91832">
        <ele>380.2</ele>
        <time>2024-06-29T07:57:55Z</time>
      </trkpt>
      <trkpt lat="47.16253" lon="4.91833">
        <ele>380.4</ele>
        <time>2024-06-29T07:57:56Z</time>
      </trkpt>
      <trkpt lat="47.16254" lon="4.91834">
        <ele>377.3</ele>
        <time>2024-06-29T07:57:57Z</time>
      </trkpt>
      <trkpt lat="47.16255" lon="4.91836">
        <ele>375.5</ele>
        <time>2024-06-29T07:57:59Z</time>
      </trkpt>
      <trkpt lat="47.16256" lon="4.91838">
        <ele>376.7</ele>
        <time>2024-06-29T07:58:01Z</time>
      </trkpt>
      <trkpt lat="47.16256" lon="4.9184">
        <ele>375.9</ele>
        <time>2024-06-29T07:58:03Z</time>
      </trkpt>
      <trkpt lat="47.16256" lon="4.91841">
        <ele>376.6</ele>
        <time>2024-06-29T07:58:04Z</time>
      </trkpt>
      <trkpt lat="47.16256" lon="4.91843">
        <ele>374.6</ele>
        <time>2024-06-29T07:58:06Z</time>
      </trkpt>
      <trkpt lat="47.16256" lon="4.91845">
        <ele>375.8</ele>
        <time>2024-06-29T07:58:08Z</time>
      </trkpt>
      <trkpt lat="47.16256" lon="4.91846">
        <ele>375.7</ele>
        <time>2024-06-29T07:58:09Z</time>
      </trkpt>
      <trkpt lat="47.16257" lon="4.91849">
        <ele>375.2</ele>
        <time>2024-06-29T07:58:11Z</time>
      </trkpt>
      <trkpt lat="47.16257" lon="4.9185">
        <ele>376.9</ele>
        <time>2024-06-29T07:58:12Z</time>
      </trkpt>
      <trkpt lat="47.16257" lon="4.91852">
        <ele>378.9</ele>
        <time>2024-06-29T07:58:13Z</time>
      </trkpt>
      <trkpt lat="47.16257" lon="4.91854">
        <ele>381.6</ele>
        <time>2024-06-29T07:58:14Z</time>
      </trkpt>
      <trkpt lat="47.16257" lon="4.91855">
        <ele>381.4</ele>
        <time>2024-06-29T07:58:15Z</time>
      </trkpt>
      <trkpt lat="47.16257" lon="4.91857">
        <ele>382.4</ele>
        <time>2024-06-29T07:58:16Z</time>
      </trkpt>
      <trkpt lat="47.16257" lon="4.91858">
        <ele>383.1</ele>
        <time>2024-06-29T07:58:17Z</time>
      </trkpt>
      <trkpt lat="47.16258" lon="4.9186">
        <ele>383.3</ele>
        <time>2024-06-29T07:58:18Z</time>
      </trkpt>
      <trkpt lat="47.16258" lon="4.91862">
        <ele>383.4</ele>
        <time>2024-06-29T07:58:19Z</time>
      </trkpt>
      <trkpt lat="47.16258" lon="4.91863">
        <ele>384.1</ele>
        <time>2024-06-29T07:58:20Z</time>
      </trkpt>
      <trkpt lat="47.16258" lon="4.91865">
        <ele>385.6</ele>
        <time>2024-06-29T07:58:21Z</time>
      </trkpt>
      <trkpt lat="47.16258" lon="4.91866">
        <ele>386.3</ele>
        <time>2024-06-29T07:58:22Z</time>
      </trkpt>
      <trkpt lat="47.16259" lon="4.91867">
        <ele>387.3</ele>
        <time>2024-06-29T07:58:23Z</time>
      </trkpt>
      <trkpt lat="47.16259" lon="4.91869">
        <ele>387.6</ele>
        <time>2024-06-29T07:58:24Z</time>
      </trkpt>
      <trkpt lat="47.16259" lon="4.9187">
        <ele>388.7</ele>
        <time>2024-06-29T07:58:25Z</time>
      </trkpt>
      <trkpt lat="47.16259" lon="4.91872">
        <ele>389.5</ele>
        <time>2024-06-29T07:58:26Z</time>
      </trkpt>
      <trkpt lat="47.1626" lon="4.91873">
        <ele>390.1</ele>
        <time>2024-06-29T07:58:27Z</time>
      </trkpt>
      <trkpt lat="47.1626" lon="4.91874">
        <ele>389.5</ele>
        <time>2024-06-29T07:58:28Z</time>
      </trkpt>
      <trkpt lat="47.1626" lon="4.91876">
        <ele>390.2</ele>
        <time>2024-06-29T07:58:29Z</time>
      </trkpt>
      <trkpt lat="47.16261" lon="4.91877">
        <ele>389.8</ele>
        <time>2024-06-29T07:58:30Z</time>
      </trkpt>
      <trkpt lat="47.16261" lon="4.91878">
        <ele>390.4</ele>
        <time>2024-06-29T07:58:31Z</time>
      </trkpt>
      <trkpt lat="47.16261" lon="4.9188">
        <ele>390.9</ele>
        <time>2024-06-29T07:58:32Z</time>
      </trkpt>
      <trkpt lat="47.16262" lon="4.91881">
        <ele>391.1</ele>
        <time>2024-06-29T07:58:33Z</time>
      </trkpt>
      <trkpt lat="47.16263" lon="4.91883">
        <ele>391</ele>
        <time>2024-06-29T07:58:35Z</time>
      </trkpt>
      <trkpt lat="47.16264" lon="4.91884">
        <ele>391.4</ele>
        <time>2024-06-29T07:58:36Z</time>
      </trkpt>
      <trkpt lat="47.16265" lon="4.91885">
        <ele>391.5</ele>
        <time>2024-06-29T07:58:37Z</time>
      </trkpt>
      <trkpt lat="47.16266" lon="4.91888">
        <ele>390.9</ele>
        <time>2024-06-29T07:58:39Z</time>
      </trkpt>
      <trkpt lat="47.16267" lon="4.91889">
        <ele>390.9</ele>
        <time>2024-06-29T07:58:40Z</time>
      </trkpt>
      <trkpt lat="47.16269" lon="4.9189">
        <ele>389</ele>
        <time>2024-06-29T07:58:42Z</time>
      </trkpt>
      <trkpt lat="47.16269" lon="4.91891">
        <ele>389.7</ele>
        <time>2024-06-29T07:58:43Z</time>
      </trkpt>
      <trkpt lat="47.16271" lon="4.91893">
        <ele>390.8</ele>
        <time>2024-06-29T07:58:45Z</time>
      </trkpt>
      <trkpt lat="47.16272" lon="4.91894">
        <ele>390.6</ele>
        <time>2024-06-29T07:58:46Z</time>
      </trkpt>
      <trkpt lat="47.16272" lon="4.91895">
        <ele>390.4</ele>
        <time>2024-06-29T07:58:47Z</time>
      </trkpt>
      <trkpt lat="47.16274" lon="4.91895">
        <ele>386</ele>
        <time>2024-06-29T07:58:48Z</time>
      </trkpt>
      <trkpt lat="47.16275" lon="4.91895">
        <ele>386</ele>
        <time>2024-06-29T07:58:49Z</time>
      </trkpt>
      <trkpt lat="47.16277" lon="4.91895">
        <ele>385.3</ele>
        <time>2024-06-29T07:58:50Z</time>
      </trkpt>
      <trkpt lat="47.16278" lon="4.91895">
        <ele>383.6</ele>
        <time>2024-06-29T07:58:51Z</time>
      </trkpt>
      <trkpt lat="47.1628" lon="4.91895">
        <ele>384.6</ele>
        <time>2024-06-29T07:58:52Z</time>
      </trkpt>
      <trkpt lat="47.16282" lon="4.91896">
        <ele>384.9</ele>
        <time>2024-06-29T07:58:53Z</time>
      </trkpt>
      <trkpt lat="47.16284" lon="4.91896">
        <ele>385.6</ele>
        <time>2024-06-29T07:58:55Z</time>
      </trkpt>
      <trkpt lat="47.16286" lon="4.91897">
        <ele>385</ele>
        <time>2024-06-29T07:58:57Z</time>
      </trkpt>
      <trkpt lat="47.16287" lon="4.91897">
        <ele>384.7</ele>
        <time>2024-06-29T07:58:58Z</time>
      </trkpt>
      <trkpt lat="47.16288" lon="4.91897">
        <ele>384.8</ele>
        <time>2024-06-29T07:58:59Z</time>
      </trkpt>
      <trkpt lat="47.16289" lon="4.91897">
        <ele>384.9</ele>
        <time>2024-06-29T07:59:00Z</time>
      </trkpt>
      <trkpt lat="47.1629" lon="4.91897">
        <ele>385.1</ele>
        <time>2024-06-29T07:59:01Z</time>
      </trkpt>
      <trkpt lat="47.16293" lon="4.91898">
        <ele>384.6</ele>
        <time>2024-06-29T07:59:03Z</time>
      </trkpt>
      <trkpt lat="47.16294" lon="4.91898">
        <ele>384.9</ele>
        <time>2024-06-29T07:59:04Z</time>
      </trkpt>
      <trkpt lat="47.16295" lon="4.91898">
        <ele>383.5</ele>
        <time>2024-06-29T07:59:05Z</time>
      </trkpt>
      <trkpt lat="47.16296" lon="4.91898">
        <ele>383.4</ele>
        <time>2024-06-29T07:59:06Z</time>
      </trkpt>
      <trkpt lat="47.16298" lon="4.91899">
        <ele>383.7</ele>
        <time>2024-06-29T07:59:07Z</time>
      </trkpt>
      <trkpt lat="47.16299" lon="4.919">
        <ele>384.3</ele>
        <time>2024-06-29T07:59:08Z</time>
      </trkpt>
      <trkpt lat="47.163" lon="4.91901">
        <ele>384.3</ele>
        <time>2024-06-29T07:59:09Z</time>
      </trkpt>
      <trkpt lat="47.163" lon="4.91903">
        <ele>384.1</ele>
        <time>2024-06-29T07:59:10Z</time>
      </trkpt>
      <trkpt lat="47.16301" lon="4.91904">
        <ele>385.7</ele>
        <time>2024-06-29T07:59:11Z</time>
      </trkpt>
      <trkpt lat="47.16302" lon="4.91906">
        <ele>386.5</ele>
        <time>2024-06-29T07:59:13Z</time>
      </trkpt>
      <trkpt lat="47.16302" lon="4.91907">
        <ele>386.7</ele>
        <time>2024-06-29T07:59:14Z</time>
      </trkpt>
      <trkpt lat="47.16303" lon="4.9191">
        <ele>386.2</ele>
        <time>2024-06-29T07:59:15Z</time>
      </trkpt>
      <trkpt lat="47.16304" lon="4.91912">
        <ele>386.5</ele>
        <time>2024-06-29T07:59:16Z</time>
      </trkpt>
      <trkpt lat="47.16304" lon="4.91913">
        <ele>389.3</ele>
        <time>2024-06-29T07:59:17Z</time>
      </trkpt>
      <trkpt lat="47.16305" lon="4.91913">
        <ele>389</ele>
        <time>2024-06-29T07:59:18Z</time>
      </trkpt>
      <trkpt lat="47.16307" lon="4.91914">
        <ele>389.3</ele>
        <time>2024-06-29T07:59:19Z</time>
      </trkpt>
      <trkpt lat="47.16308" lon="4.91915">
        <ele>389.3</ele>
        <time>2024-06-29T07:59:20Z</time>
      </trkpt>
      <trkpt lat="47.16309" lon="4.91916">
        <ele>389.8</ele>
        <time>2024-06-29T07:59:21Z</time>
      </trkpt>
      <trkpt lat="47.1631" lon="4.91917">
        <ele>390</ele>
        <time>2024-06-29T07:59:22Z</time>
      </trkpt>
      <trkpt lat="47.16311" lon="4.91918">
        <ele>389.7</ele>
        <time>2024-06-29T07:59:23Z</time>
      </trkpt>
      <trkpt lat="47.16311" lon="4.9192">
        <ele>391.1</ele>
        <time>2024-06-29T07:59:25Z</time>
      </trkpt>
      <trkpt lat="47.16312" lon="4.91922">
        <ele>393.8</ele>
        <time>2024-06-29T07:59:32Z</time>
      </trkpt>
      <trkpt lat="47.16313" lon="4.91922">
        <ele>393.5</ele>
        <time>2024-06-29T07:59:33Z</time>
      </trkpt>
      <trkpt lat="47.16314" lon="4.91923">
        <ele>393.6</ele>
        <time>2024-06-29T07:59:34Z</time>
      </trkpt>
      <trkpt lat="47.16315" lon="4.91924">
        <ele>394.4</ele>
        <time>2024-06-29T07:59:35Z</time>
      </trkpt>
      <trkpt lat="47.16316" lon="4.91925">
        <ele>394.6</ele>
        <time>2024-06-29T07:59:37Z</time>
      </trkpt>
      <trkpt lat="47.16318" lon="4.91926">
        <ele>395.3</ele>
        <time>2024-06-29T07:59:39Z</time>
      </trkpt>
      <trkpt lat="47.16319" lon="4.91927">
        <ele>395.1</ele>
        <time>2024-06-29T07:59:40Z</time>
      </trkpt>
      <trkpt lat="47.1632" lon="4.91927">
        <ele>395.1</ele>
        <time>2024-06-29T07:59:41Z</time>
      </trkpt>
      <trkpt lat="47.16321" lon="4.91928">
        <ele>394.6</ele>
        <time>2024-06-29T07:59:42Z</time>
      </trkpt>
      <trkpt lat="47.16322" lon="4.91929">
        <ele>394.4</ele>
        <time>2024-06-29T07:59:43Z</time>
      </trkpt>
      <trkpt lat="47.16323" lon="4.9193">
        <ele>395.2</ele>
        <time>2024-06-29T07:59:44Z</time>
      </trkpt>
      <trkpt lat="47.16323" lon="4.91931">
        <ele>395.7</ele>
        <time>2024-06-29T07:59:45Z</time>
      </trkpt>
      <trkpt lat="47.16324" lon="4.91931">
        <ele>395.4</ele>
        <time>2024-06-29T07:59:46Z</time>
      </trkpt>
      <trkpt lat="47.16325" lon="4.91932">
        <ele>395.5</ele>
        <time>2024-06-29T07:59:47Z</time>
      </trkpt>
      <trkpt lat="47.16327" lon="4.91933">
        <ele>395.6</ele>
        <time>2024-06-29T07:59:49Z</time>
      </trkpt>
      <trkpt lat="47.16328" lon="4.91934">
        <ele>395.9</ele>
        <time>2024-06-29T07:59:51Z</time>
      </trkpt>
      <trkpt lat="47.1633" lon="4.91935">
        <ele>396</ele>
        <time>2024-06-29T07:59:53Z</time>
      </trkpt>
      <trkpt lat="47.16331" lon="4.91936">
        <ele>395.9</ele>
        <time>2024-06-29T07:59:55Z</time>
      </trkpt>
      <trkpt lat="47.16332" lon="4.91937">
        <ele>395.6</ele>
        <time>2024-06-29T07:59:56Z</time>
      </trkpt>
      <trkpt lat="47.16333" lon="4.91937">
        <ele>395.7</ele>
        <time>2024-06-29T07:59:57Z</time>
      </trkpt>
      <trkpt lat="47.16334" lon="4.91938">
        <ele>395.6</ele>
        <time>2024-06-29T07:59:58Z</time>
      </trkpt>
      <trkpt lat="47.16335" lon="4.91938">
        <ele>395.4</ele>
        <time>2024-06-29T07:59:59Z</time>
      </trkpt>
      <trkpt lat="47.16336" lon="4.91939">
        <ele>395.4</ele>
        <time>2024-06-29T08:00:00Z</time>
      </trkpt>
      <trkpt lat="47.16337" lon="4.91939">
        <ele>395.4</ele>
        <time>2024-06-29T08:00:01Z</time>
      </trkpt>
      <trkpt lat="47.16337" lon="4.91939">
        <ele>395.8</ele>
        <time>2024-06-29T08:00:02Z</time>
      </trkpt>
      <trkpt lat="47.16339" lon="4.9194">
        <ele>396</ele>
        <time>2024-06-29T08:00:04Z</time>
      </trkpt>
      <trkpt lat="47.1634" lon="4.9194">
        <ele>395.9</ele>
        <time>2024-06-29T08:00:05Z</time>
      </trkpt>
      <trkpt lat="47.16341" lon="4.9194">
        <ele>396</ele>
        <time>2024-06-29T08:00:06Z</time>
      </trkpt>
      <trkpt lat="47.16342" lon="4.91941">
        <ele>396.1</ele>
        <time>2024-06-29T08:00:07Z</time>
      </trkpt>
      <trkpt lat="47.16343" lon="4.91941">
        <ele>396.1</ele>
        <time>2024-06-29T08:00:08Z</time>
      </trkpt>
      <trkpt lat="47.16344" lon="4.91941">
        <ele>396.2</ele>
        <time>2024-06-29T08:00:09Z</time>
      </trkpt>
      <trkpt lat="47.16345" lon="4.91941">
        <ele>395.3</ele>
        <time>2024-06-29T08:00:10Z</time>
      </trkpt>
      <trkpt lat="47.16346" lon="4.91941">
        <ele>395.5</ele>
        <time>2024-06-29T08:00:11Z</time>
      </trkpt>
      <trkpt lat="47.16347" lon="4.91941">
        <ele>395.7</ele>
        <time>2024-06-29T08:00:12Z</time>
      </trkpt>
      <trkpt lat="47.16348" lon="4.9194">
        <ele>395.6</ele>
        <time>2024-06-29T08:00:14Z</time>
      </trkpt>
      <trkpt lat="47.16349" lon="4.91939">
        <ele>395.7</ele>
        <time>2024-06-29T08:00:15Z</time>
      </trkpt>
      <trkpt lat="47.1635" lon="4.91939">
        <ele>395.8</ele>
        <time>2024-06-29T08:00:16Z</time>
      </trkpt>
      <trkpt lat="47.16351" lon="4.91939">
        <ele>396.3</ele>
        <time>2024-06-29T08:00:17Z</time>
      </trkpt>
      <trkpt lat="47.16352" lon="4.91939">
        <ele>396.1</ele>
        <time>2024-06-29T08:00:18Z</time>
      </trkpt>
      <trkpt lat="47.16353" lon="4.91939">
        <ele>396.7</ele>
        <time>2024-06-29T08:00:19Z</time>
      </trkpt>
      <trkpt lat="47.16354" lon="4.91939">
        <ele>397</ele>
        <time>2024-06-29T08:00:20Z</time>
      </trkpt>
      <trkpt lat="47.16355" lon="4.9194">
        <ele>396.9</ele>
        <time>2024-06-29T08:00:21Z</time>
      </trkpt>
      <trkpt lat="47.16356" lon="4.9194">
        <ele>397.9</ele>
        <time>2024-06-29T08:00:22Z</time>
      </trkpt>
      <trkpt lat="47.16357" lon="4.9194">
        <ele>397.5</ele>
        <time>2024-06-29T08:00:23Z</time>
      </trkpt>
      <trkpt lat="47.16358" lon="4.9194">
        <ele>397.5</ele>
        <time>2024-06-29T08:00:24Z</time>
      </trkpt>
      <trkpt lat="47.16359" lon="4.91941">
        <ele>397.3</ele>
        <time>2024-06-29T08:00:25Z</time>
      </trkpt>
      <trkpt lat="47.1636" lon="4.91941">
        <ele>397.5</ele>
        <time>2024-06-29T08:00:26Z</time>
      </trkpt>
      <trkpt lat="47.16361" lon="4.91942">
        <ele>396.7</ele>
        <time>2024-06-29T08:00:27Z</time>
      </trkpt>
      <trkpt lat="47.16362" lon="4.91943">
        <ele>396.8</ele>
        <time>2024-06-29T08:00:28Z</time>
      </trkpt>
      <trkpt lat="47.16363" lon="4.91943">
        <ele>397.2</ele>
        <time>2024-06-29T08:00:29Z</time>
      </trkpt>
      <trkpt lat="47.16364" lon="4.91944">
        <ele>397</ele>
        <time>2024-06-29T08:00:30Z</time>
      </trkpt>
      <trkpt lat="47.16365" lon="4.91944">
        <ele>397.6</ele>
        <time>2024-06-29T08:00:31Z</time>
      </trkpt>
      <trkpt lat="47.16366" lon="4.91944">
        <ele>398.4</ele>
        <time>2024-06-29T08:00:32Z</time>
      </trkpt>
      <trkpt lat="47.16367" lon="4.91944">
        <ele>398.7</ele>
        <time>2024-06-29T08:00:33Z</time>
      </trkpt>
      <trkpt lat="47.16368" lon="4.91945">
        <ele>398.8</ele>
        <time>2024-06-29T08:00:34Z</time>
      </trkpt>
      <trkpt lat="47.16369" lon="4.91945">
        <ele>399.1</ele>
        <time>2024-06-29T08:00:35Z</time>
      </trkpt>
      <trkpt lat="47.1637" lon="4.91945">
        <ele>399.2</ele>
        <time>2024-06-29T08:00:36Z</time>
      </trkpt>
      <trkpt lat="47.16371" lon="4.91945">
        <ele>399.2</ele>
        <time>2024-06-29T08:00:37Z</time>
      </trkpt>
      <trkpt lat="47.16372" lon="4.91946">
        <ele>399.3</ele>
        <time>2024-06-29T08:00:38Z</time>
      </trkpt>
      <trkpt lat="47.16373" lon="4.91946">
        <ele>399.6</ele>
        <time>2024-06-29T08:00:39Z</time>
      </trkpt>
      <trkpt lat="47.16374" lon="4.91946">
        <ele>399.7</ele>
        <time>2024-06-29T08:00:40Z</time>
      </trkpt>
      <trkpt lat="47.16375" lon="4.91947">
        <ele>399.6</ele>
        <time>2024-06-29T08:00:41Z</time>
      </trkpt>
      <trkpt lat="47.16376" lon="4.91947">
        <ele>400</ele>
        <time>2024-06-29T08:00:42Z</time>
      </trkpt>
      <trkpt lat="47.16377" lon="4.91947">
        <ele>400.1</ele>
        <time>2024-06-29T08:00:43Z</time>
      </trkpt>
      <trkpt lat="47.16378" lon="4.91948">
        <ele>400</ele>
        <time>2024-06-29T08:00:44Z</time>
      </trkpt>
      <trkpt lat="47.16379" lon="4.91948">
        <ele>400.2</ele>
        <time>2024-06-29T08:00:45Z</time>
      </trkpt>
      <trkpt lat="47.1638" lon="4.91949">
        <ele>400.3</ele>
        <time>2024-06-29T08:00:46Z</time>
      </trkpt>
      <trkpt lat="47.16381" lon="4.91949">
        <ele>400.5</ele>
        <time>2024-06-29T08:00:47Z</time>
      </trkpt>
      <trkpt lat="47.16382" lon="4.91949">
        <ele>400.6</ele>
        <time>2024-06-29T08:00:48Z</time>
      </trkpt>
      <trkpt lat="47.16383" lon="4.91949">
        <ele>400.7</ele>
        <time>2024-06-29T08:00:49Z</time>
      </trkpt>
      <trkpt lat="47.16384" lon="4.9195">
        <ele>400.8</ele>
        <time>2024-06-29T08:00:50Z</time>
      </trkpt>
      <trkpt lat="47.16385" lon="4.9195">
        <ele>400.9</ele>
        <time>2024-06-29T08:00:51Z</time>
      </trkpt>
      <trkpt lat="47.16385" lon="4.9195">
        <ele>401.2</ele>
        <time>2024-06-29T08:00:52Z</time>
      </trkpt>
      <trkpt lat="47.16386" lon="4.91951">
        <ele>401.4</ele>
        <time>2024-06-29T08:00:53Z</time>
      </trkpt>
      <trkpt lat="47.16387" lon="4.91951">
        <ele>401.6</ele>
        <time>2024-06-29T08:00:54Z</time>
      </trkpt>
      <trkpt lat="47.16388" lon="4.91952">
        <ele>401.8</ele>
        <time>2024-06-29T08:00:55Z</time>
      </trkpt>
      <trkpt lat="47.16389" lon="4.91953">
        <ele>401.8</ele>
        <time>2024-06-29T08:00:56Z</time>
      </trkpt>
      <trkpt lat="47.1639" lon="4.91953">
        <ele>401.8</ele>
        <time>2024-06-29T08:00:57Z</time>
      </trkpt>
      <trkpt lat="47.16391" lon="4.91954">
        <ele>401.9</ele>
        <time>2024-06-29T08:00:58Z</time>
      </trkpt>
      <trkpt lat="47.16392" lon="4.91955">
        <ele>401.9</ele>
        <time>2024-06-29T08:00:59Z</time>
      </trkpt>
      <trkpt lat="47.16393" lon="4.91955">
        <ele>402.1</ele>
        <time>2024-06-29T08:01:00Z</time>
      </trkpt>
      <trkpt lat="47.16393" lon="4.91956">
        <ele>402.1</ele>
        <time>2024-06-29T08:01:01Z</time>
      </trkpt>
      <trkpt lat="47.16394" lon="4.91956">
        <ele>402.4</ele>
        <time>2024-06-29T08:01:02Z</time>
      </trkpt>
      <trkpt lat="47.16395" lon="4.91957">
        <ele>402.3</ele>
        <time>2024-06-29T08:01:03Z</time>
      </trkpt>
      <trkpt lat="47.16396" lon="4.91957">
        <ele>402.7</ele>
        <time>2024-06-29T08:01:04Z</time>
      </trkpt>
      <trkpt lat="47.16397" lon="4.91958">
        <ele>402.7</ele>
        <time>2024-06-29T08:01:05Z</time>
      </trkpt>
      <trkpt lat="47.16398" lon="4.91959">
        <ele>402.7</ele>
        <time>2024-06-29T08:01:06Z</time>
      </trkpt>
      <trkpt lat="47.16399" lon="4.91959">
        <ele>402.9</ele>
        <time>2024-06-29T08:01:07Z</time>
      </trkpt>
      <trkpt lat="47.16399" lon="4.9196">
        <ele>402.9</ele>
        <time>2024-06-29T08:01:08Z</time>
      </trkpt>
      <trkpt lat="47.16401" lon="4.91961">
        <ele>403.2</ele>
        <time>2024-06-29T08:01:10Z</time>
      </trkpt>
      <trkpt lat="47.16402" lon="4.91962">
        <ele>404.1</ele>
        <time>2024-06-29T08:01:12Z</time>
      </trkpt>
      <trkpt lat="47.16403" lon="4.91963">
        <ele>404.4</ele>
        <time>2024-06-29T08:01:13Z</time>
      </trkpt>
      <trkpt lat="47.16404" lon="4.91963">
        <ele>404.4</ele>
        <time>2024-06-29T08:01:14Z</time>
      </trkpt>
      <trkpt lat="47.16405" lon="4.91963">
        <ele>404.4</ele>
        <time>2024-06-29T08:01:15Z</time>
      </trkpt>
      <trkpt lat="47.16406" lon="4.91962">
        <ele>404.6</ele>
        <time>2024-06-29T08:01:16Z</time>
      </trkpt>
      <trkpt lat="47.16407" lon="4.91962">
        <ele>404.4</ele>
        <time>2024-06-29T08:01:17Z</time>
      </trkpt>
      <trkpt lat="47.16408" lon="4.91962">
        <ele>405</ele>
        <time>2024-06-29T08:01:18Z</time>
      </trkpt>
      <trkpt lat="47.16409" lon="4.91961">
        <ele>405.3</ele>
        <time>2024-06-29T08:01:19Z</time>
      </trkpt>
      <trkpt lat="47.1641" lon="4.91961">
        <ele>405.3</ele>
        <time>2024-06-29T08:01:20Z</time>
      </trkpt>
      <trkpt lat="47.16411" lon="4.91961">
        <ele>405.4</ele>
        <time>2024-06-29T08:01:21Z</time>
      </trkpt>
      <trkpt lat="47.16412" lon="4.9196">
        <ele>405.7</ele>
        <time>2024-06-29T08:01:22Z</time>
      </trkpt>
      <trkpt lat="47.16413" lon="4.9196">
        <ele>405.7</ele>
        <time>2024-06-29T08:01:23Z</time>
      </trkpt>
      <trkpt lat="47.16415" lon="4.91959">
        <ele>405.9</ele>
        <time>2024-06-29T08:01:25Z</time>
      </trkpt>
      <trkpt lat="47.16416" lon="4.91959">
        <ele>406</ele>
        <time>2024-06-29T08:01:26Z</time>
      </trkpt>
      <trkpt lat="47.16417" lon="4.91959">
        <ele>406.6</ele>
        <time>2024-06-29T08:01:28Z</time>
      </trkpt>
      <trkpt lat="47.16419" lon="4.91959">
        <ele>406.7</ele>
        <time>2024-06-29T08:01:30Z</time>
      </trkpt>
      <trkpt lat="47.1642" lon="4.9196">
        <ele>406.8</ele>
        <time>2024-06-29T08:01:32Z</time>
      </trkpt>
      <trkpt lat="47.16421" lon="4.9196">
        <ele>406.8</ele>
        <time>2024-06-29T08:01:33Z</time>
      </trkpt>
      <trkpt lat="47.16422" lon="4.91961">
        <ele>407.7</ele>
        <time>2024-06-29T08:01:35Z</time>
      </trkpt>
      <trkpt lat="47.16423" lon="4.91963">
        <ele>408.3</ele>
        <time>2024-06-29T08:01:37Z</time>
      </trkpt>
      <trkpt lat="47.16424" lon="4.91964">
        <ele>408.3</ele>
        <time>2024-06-29T08:01:38Z</time>
      </trkpt>
      <trkpt lat="47.16425" lon="4.91965">
        <ele>408.2</ele>
        <time>2024-06-29T08:01:39Z</time>
      </trkpt>
      <trkpt lat="47.16426" lon="4.91965">
        <ele>407.6</ele>
        <time>2024-06-29T08:01:40Z</time>
      </trkpt>
      <trkpt lat="47.16427" lon="4.91966">
        <ele>407.4</ele>
        <time>2024-06-29T08:01:41Z</time>
      </trkpt>
      <trkpt lat="47.16428" lon="4.91966">
        <ele>407.6</ele>
        <time>2024-06-29T08:01:42Z</time>
      </trkpt>
      <trkpt lat="47.16429" lon="4.91967">
        <ele>407.7</ele>
        <time>2024-06-29T08:01:43Z</time>
      </trkpt>
      <trkpt lat="47.1643" lon="4.91967">
        <ele>407.1</ele>
        <time>2024-06-29T08:01:44Z</time>
      </trkpt>
      <trkpt lat="47.1643" lon="4.91968">
        <ele>407.1</ele>
        <time>2024-06-29T08:01:45Z</time>
      </trkpt>
      <trkpt lat="47.16431" lon="4.91969">
        <ele>407</ele>
        <time>2024-06-29T08:01:46Z</time>
      </trkpt>
      <trkpt lat="47.16432" lon="4.91969">
        <ele>406.4</ele>
        <time>2024-06-29T08:01:47Z</time>
      </trkpt>
      <trkpt lat="47.16433" lon="4.91969">
        <ele>406.3</ele>
        <time>2024-06-29T08:01:48Z</time>
      </trkpt>
      <trkpt lat="47.16434" lon="4.9197">
        <ele>406.2</ele>
        <time>2024-06-29T08:01:49Z</time>
      </trkpt>
      <trkpt lat="47.16435" lon="4.9197">
        <ele>406.3</ele>
        <time>2024-06-29T08:01:50Z</time>
      </trkpt>
      <trkpt lat="47.16436" lon="4.91971">
        <ele>406.6</ele>
        <time>2024-06-29T08:01:51Z</time>
      </trkpt>
      <trkpt lat="47.16438" lon="4.91972">
        <ele>407.2</ele>
        <time>2024-06-29T08:01:52Z</time>
      </trkpt>
      <trkpt lat="47.16439" lon="4.91972">
        <ele>406.3</ele>
        <time>2024-06-29T08:01:53Z</time>
      </trkpt>
      <trkpt lat="47.1644" lon="4.9197">
        <ele>405.2</ele>
        <time>2024-06-29T08:01:55Z</time>
      </trkpt>
      <trkpt lat="47.1644" lon="4.91968">
        <ele>404.7</ele>
        <time>2024-06-29T08:01:56Z</time>
      </trkpt>
      <trkpt lat="47.1644" lon="4.91966">
        <ele>404.2</ele>
        <time>2024-06-29T08:01:58Z</time>
      </trkpt>
      <trkpt lat="47.16442" lon="4.91965">
        <ele>403.4</ele>
        <time>2024-06-29T08:02:00Z</time>
      </trkpt>
      <trkpt lat="47.16442" lon="4.91966">
        <ele>403.2</ele>
        <time>2024-06-29T08:02:01Z</time>
      </trkpt>
      <trkpt lat="47.16443" lon="4.91968">
        <ele>404</ele>
        <time>2024-06-29T08:02:02Z</time>
      </trkpt>
      <trkpt lat="47.16444" lon="4.91968">
        <ele>404.7</ele>
        <time>2024-06-29T08:02:03Z</time>
      </trkpt>
      <trkpt lat="47.16445" lon="4.91968">
        <ele>405.2</ele>
        <time>2024-06-29T08:02:04Z</time>
      </trkpt>
      <trkpt lat="47.16445" lon="4.91966">
        <ele>406.4</ele>
        <time>2024-06-29T08:02:06Z</time>
      </trkpt>
      <trkpt lat="47.16445" lon="4.91965">
        <ele>407.1</ele>
        <time>2024-06-29T08:02:07Z</time>
      </trkpt>
      <trkpt lat="47.16444" lon="4.91963">
        <ele>406.6</ele>
        <time>2024-06-29T08:02:08Z</time>
      </trkpt>
      <trkpt lat="47.16443" lon="4.91961">
        <ele>406</ele>
        <time>2024-06-29T08:02:09Z</time>
      </trkpt>
      <trkpt lat="47.16442" lon="4.9196">
        <ele>406.9</ele>
        <time>2024-06-29T08:02:10Z</time>
      </trkpt>
      <trkpt lat="47.16441" lon="4.91959">
        <ele>407.3</ele>
        <time>2024-06-29T08:02:12Z</time>
      </trkpt>
      <trkpt lat="47.16442" lon="4.91959">
        <ele>407.4</ele>
        <time>2024-06-29T08:02:14Z</time>
      </trkpt>
      <trkpt lat="47.16443" lon="4.91961">
        <ele>407.4</ele>
        <time>2024-06-29T08:02:15Z</time>
      </trkpt>
      <trkpt lat="47.16444" lon="4.91963">
        <ele>407.4</ele>
        <time>2024-06-29T08:02:17Z</time>
      </trkpt>
      <trkpt lat="47.16443" lon="4.91965">
        <ele>406.3</ele>
        <time>2024-06-29T08:02:56Z</time>
      </trkpt>
      <trkpt lat="47.16443" lon="4.91966">
        <ele>406.3</ele>
        <time>2024-06-29T08:02:57Z</time>
      </trkpt>
      <trkpt lat="47.16444" lon="4.91968">
        <ele>406.3</ele>
        <time>2024-06-29T08:02:59Z</time>
      </trkpt>
      <trkpt lat="47.16444" lon="4.91966">
        <ele>406.3</ele>
        <time>2024-06-29T08:03:45Z</time>
      </trkpt>
      <trkpt lat="47.16443" lon="4.91965">
        <ele>406.3</ele>
        <time>2024-06-29T08:03:47Z</time>
      </trkpt>
      <trkpt lat="47.16444" lon="4.91963">
        <ele>408.8</ele>
        <time>2024-06-29T08:03:50Z</time>
      </trkpt>
      <trkpt lat="47.16445" lon="4.91961">
        <ele>408.9</ele>
        <time>2024-06-29T08:03:51Z</time>
      </trkpt>
      <trkpt lat="47.16446" lon="4.91959">
        <ele>408.1</ele>
        <time>2024-06-29T08:03:52Z</time>
      </trkpt>
      <trkpt lat="47.16447" lon="4.91958">
        <ele>408.1</ele>
        <time>2024-06-29T08:03:54Z</time>
      </trkpt>
      <trkpt lat="47.16448" lon="4.9196">
        <ele>408</ele>
        <time>2024-06-29T08:04:04Z</time>
      </trkpt>
      <trkpt lat="47.16449" lon="4.91958">
        <ele>407.4</ele>
        <time>2024-06-29T08:04:07Z</time>
      </trkpt>
      <trkpt lat="47.16448" lon="4.91956">
        <ele>406.7</ele>
        <time>2024-06-29T08:04:08Z</time>
      </trkpt>
      <trkpt lat="47.16447" lon="4.91956">
        <ele>406.9</ele>
        <time>2024-06-29T08:04:09Z</time>
      </trkpt>
      <trkpt lat="47.16447" lon="4.91954">
        <ele>407</ele>
        <time>2024-06-29T08:04:11Z</time>
      </trkpt>
      <trkpt lat="47.16446" lon="4.91953">
        <ele>407</ele>
        <time>2024-06-29T08:04:20Z</time>
      </trkpt>
      <trkpt lat="47.16446" lon="4.91955">
        <ele>407.1</ele>
        <time>2024-06-29T08:04:25Z</time>
      </trkpt>
      <trkpt lat="47.16445" lon="4.91956">
        <ele>408.9</ele>
        <time>2024-06-29T08:05:21Z</time>
      </trkpt>
      <trkpt lat="47.16444" lon="4.91956">
        <ele>408.6</ele>
        <time>2024-06-29T08:05:23Z</time>
      </trkpt>
      <trkpt lat="47.16444" lon="4.91954">
        <ele>408.4</ele>
        <time>2024-06-29T08:05:25Z</time>
      </trkpt>
      <trkpt lat="47.16442" lon="4.91954">
        <ele>409</ele>
        <time>2024-06-29T08:05:32Z</time>
      </trkpt>
      <trkpt lat="47.16442" lon="4.91955">
        <ele>411.7</ele>
        <time>2024-06-29T08:05:40Z</time>
      </trkpt>
      <trkpt lat="47.16441" lon="4.91956">
        <ele>413.2</ele>
        <time>2024-06-29T08:05:44Z</time>
      </trkpt>
      <trkpt lat="47.16443" lon="4.91956">
        <ele>414.4</ele>
        <time>2024-06-29T08:06:07Z</time>
      </trkpt>
      <trkpt lat="47.16444" lon="4.91957">
        <ele>414.2</ele>
        <time>2024-06-29T08:06:08Z</time>
      </trkpt>
      <trkpt lat="47.16445" lon="4.91957">
        <ele>414.9</ele>
        <time>2024-06-29T08:06:09Z</time>
      </trkpt>
      <trkpt lat="47.16446" lon="4.91958">
        <ele>414.9</ele>
        <time>2024-06-29T08:06:11Z</time>
      </trkpt>
      <trkpt lat="47.16447" lon="4.91959">
        <ele>414.8</ele>
        <time>2024-06-29T08:06:12Z</time>
      </trkpt>
      <trkpt lat="47.16448" lon="4.9196">
        <ele>414.6</ele>
        <time>2024-06-29T08:06:15Z</time>
      </trkpt>
      <trkpt lat="47.16448" lon="4.91961">
        <ele>414.8</ele>
        <time>2024-06-29T08:06:17Z</time>
      </trkpt>
      <trkpt lat="47.16448" lon="4.91963">
        <ele>415</ele>
        <time>2024-06-29T08:06:18Z</time>
      </trkpt>
      <trkpt lat="47.16446" lon="4.91965">
        <ele>414.9</ele>
        <time>2024-06-29T08:06:19Z</time>
      </trkpt>
      <trkpt lat="47.16445" lon="4.91966">
        <ele>414.9</ele>
        <time>2024-06-29T08:06:21Z</time>
      </trkpt>
      <trkpt lat="47.16445" lon="4.91967">
        <ele>414.3</ele>
        <time>2024-06-29T08:06:37Z</time>
      </trkpt>
      <trkpt lat="47.16446" lon="4.91969">
        <ele>413.6</ele>
        <time>2024-06-29T08:06:48Z</time>
      </trkpt>
      <trkpt lat="47.16446" lon="4.91967">
        <ele>414.1</ele>
        <time>2024-06-29T08:06:58Z</time>
      </trkpt>
      <trkpt lat="47.16447" lon="4.91966">
        <ele>414.1</ele>
        <time>2024-06-29T08:06:59Z</time>
      </trkpt>
      <trkpt lat="47.16447" lon="4.91964">
        <ele>414.1</ele>
        <time>2024-06-29T08:07:02Z</time>
      </trkpt>
      <trkpt lat="47.16447" lon="4.91966">
        <ele>413.7</ele>
        <time>2024-06-29T08:07:24Z</time>
      </trkpt>
      <trkpt lat="47.16448" lon="4.91967">
        <ele>413.2</ele>
        <time>2024-06-29T08:07:28Z</time>
      </trkpt>
      <trkpt lat="47.16449" lon="4.91966">
        <ele>412.7</ele>
        <time>2024-06-29T08:07:44Z</time>
      </trkpt>
      <trkpt lat="47.16449" lon="4.91965">
        <ele>412.7</ele>
        <time>2024-06-29T08:07:47Z</time>
      </trkpt>
      <trkpt lat="47.1645" lon="4.91965">
        <ele>412.2</ele>
        <time>2024-06-29T08:07:57Z</time>
      </trkpt>
      <trkpt lat="47.16451" lon="4.91965">
        <ele>411.6</ele>
        <time>2024-06-29T08:07:59Z</time>
      </trkpt>
      <trkpt lat="47.1645" lon="4.91964">
        <ele>411.6</ele>
        <time>2024-06-29T08:08:10Z</time>
      </trkpt>
      <trkpt lat="47.16449" lon="4.91964">
        <ele>411.5</ele>
        <time>2024-06-29T08:08:12Z</time>
      </trkpt>
      <trkpt lat="47.16447" lon="4.91964">
        <ele>412.1</ele>
        <time>2024-06-29T08:08:14Z</time>
      </trkpt>
      <trkpt lat="47.16447" lon="4.91963">
        <ele>412.1</ele>
        <time>2024-06-29T08:08:17Z</time>
      </trkpt>
      <trkpt lat="47.16448" lon="4.91963">
        <ele>412.8</ele>
        <time>2024-06-29T08:08:54Z</time>
      </trkpt>
      <trkpt lat="47.16448" lon="4.91965">
        <ele>413.2</ele>
        <time>2024-06-29T08:08:59Z</time>
      </trkpt>
      <trkpt lat="47.16447" lon="4.91967">
        <ele>411.9</ele>
        <time>2024-06-29T08:09:00Z</time>
      </trkpt>
      <trkpt lat="47.16446" lon="4.91968">
        <ele>410.9</ele>
        <time>2024-06-29T08:09:01Z</time>
      </trkpt>
      <trkpt lat="47.16445" lon="4.91968">
        <ele>411.4</ele>
        <time>2024-06-29T08:09:02Z</time>
      </trkpt>
      <trkpt lat="47.16445" lon="4.91965">
        <ele>412.8</ele>
        <time>2024-06-29T08:09:03Z</time>
      </trkpt>
      <trkpt lat="47.16444" lon="4.91963">
        <ele>413</ele>
        <time>2024-06-29T08:09:04Z</time>
      </trkpt>
      <trkpt lat="47.16444" lon="4.91962">
        <ele>413.1</ele>
        <time>2024-06-29T08:09:08Z</time>
      </trkpt>
      <trkpt lat="47.16447" lon="4.91964">
        <ele>407.8</ele>
        <time>2024-06-29T08:09:12Z</time>
      </trkpt>
      <trkpt lat="47.16448" lon="4.91966">
        <ele>408.7</ele>
        <time>2024-06-29T08:09:13Z</time>
      </trkpt>
      <trkpt lat="47.16448" lon="4.91967">
        <ele>408.8</ele>
        <time>2024-06-29T08:09:15Z</time>
      </trkpt>
      <trkpt lat="47.16447" lon="4.91967">
        <ele>409.3</ele>
        <time>2024-06-29T08:09:29Z</time>
      </trkpt>
      <trkpt lat="47.16446" lon="4.91966">
        <ele>408.9</ele>
        <time>2024-06-29T08:09:34Z</time>
      </trkpt>
      <trkpt lat="47.16446" lon="4.91968">
        <ele>408</ele>
        <time>2024-06-29T08:09:36Z</time>
      </trkpt>
      <trkpt lat="47.16447" lon="4.9197">
        <ele>407.9</ele>
        <time>2024-06-29T08:09:38Z</time>
      </trkpt>
      <trkpt lat="47.16449" lon="4.9197">
        <ele>407.4</ele>
        <time>2024-06-29T08:09:40Z</time>
      </trkpt>
      <trkpt lat="47.16449" lon="4.91968">
        <ele>407.6</ele>
        <time>2024-06-29T08:09:54Z</time>
      </trkpt>
      <trkpt lat="47.16448" lon="4.91968">
        <ele>408.3</ele>
        <time>2024-06-29T08:10:01Z</time>
      </trkpt>
      <trkpt lat="47.16447" lon="4.91968">
        <ele>409.3</ele>
        <time>2024-06-29T08:10:06Z</time>
      </trkpt>
      <trkpt lat="47.16445" lon="4.91968">
        <ele>407.9</ele>
        <time>2024-06-29T08:10:08Z</time>
      </trkpt>
      <trkpt lat="47.16444" lon="4.91968">
        <ele>408</ele>
        <time>2024-06-29T08:10:11Z</time>
      </trkpt>
      <trkpt lat="47.16444" lon="4.91967">
        <ele>410.7</ele>
        <time>2024-06-29T08:10:16Z</time>
      </trkpt>
      <trkpt lat="47.16443" lon="4.91968">
        <ele>410.5</ele>
        <time>2024-06-29T08:10:27Z</time>
      </trkpt>
      <trkpt lat="47.16442" lon="4.91969">
        <ele>410.9</ele>
        <time>2024-06-29T08:10:28Z</time>
      </trkpt>
      <trkpt lat="47.16441" lon="4.9197">
        <ele>411.7</ele>
        <time>2024-06-29T08:10:29Z</time>
      </trkpt>
      <trkpt lat="47.16439" lon="4.9197">
        <ele>410.9</ele>
        <time>2024-06-29T08:10:30Z</time>
      </trkpt>
      <trkpt lat="47.16436" lon="4.91969">
        <ele>411.7</ele>
        <time>2024-06-29T08:10:31Z</time>
      </trkpt>
      <trkpt lat="47.16435" lon="4.91968">
        <ele>411.7</ele>
        <time>2024-06-29T08:10:32Z</time>
      </trkpt>
      <trkpt lat="47.16433" lon="4.91967">
        <ele>411.7</ele>
        <time>2024-06-29T08:10:34Z</time>
      </trkpt>
      <trkpt lat="47.16433" lon="4.91963">
        <ele>412.5</ele>
        <time>2024-06-29T08:10:38Z</time>
      </trkpt>
      <trkpt lat="47.16433" lon="4.91961">
        <ele>411.9</ele>
        <time>2024-06-29T08:10:39Z</time>
      </trkpt>
      <trkpt lat="47.16432" lon="4.91958">
        <ele>412.8</ele>
        <time>2024-06-29T08:10:42Z</time>
      </trkpt>
      <trkpt lat="47.16431" lon="4.91956">
        <ele>415.3</ele>
        <time>2024-06-29T08:10:43Z</time>
      </trkpt>
      <trkpt lat="47.16431" lon="4.91954">
        <ele>415.3</ele>
        <time>2024-06-29T08:10:45Z</time>
      </trkpt>
      <trkpt lat="47.16431" lon="4.91956">
        <ele>416.2</ele>
        <time>2024-06-29T08:10:56Z</time>
      </trkpt>
      <trkpt lat="47.16431" lon="4.91954">
        <ele>410.7</ele>
        <time>2024-06-29T08:10:58Z</time>
      </trkpt>
      <trkpt lat="47.16431" lon="4.91952">
        <ele>410.8</ele>
        <time>2024-06-29T08:11:00Z</time>
      </trkpt>
      <trkpt lat="47.16431" lon="4.91951">
        <ele>410.6</ele>
        <time>2024-06-29T08:11:06Z</time>
      </trkpt>
      <trkpt lat="47.16432" lon="4.9195">
        <ele>411.3</ele>
        <time>2024-06-29T08:11:12Z</time>
      </trkpt>
      <trkpt lat="47.16434" lon="4.9195">
        <ele>410.2</ele>
        <time>2024-06-29T08:11:15Z</time>
      </trkpt>
      <trkpt lat="47.16435" lon="4.91952">
        <ele>409.6</ele>
        <time>2024-06-29T08:11:19Z</time>
      </trkpt>
      <trkpt lat="47.16436" lon="4.91951">
        <ele>410.2</ele>
        <time>2024-06-29T08:11:21Z</time>
      </trkpt>
      <trkpt lat="47.16437" lon="4.91951">
        <ele>410.3</ele>
        <time>2024-06-29T08:11:23Z</time>
      </trkpt>
      <trkpt lat="47.16436" lon="4.91949">
        <ele>410.2</ele>
        <time>2024-06-29T08:11:38Z</time>
      </trkpt>
      <trkpt lat="47.16437" lon="4.91951">
        <ele>413.3</ele>
        <time>2024-06-29T08:11:43Z</time>
      </trkpt>
      <trkpt lat="47.16438" lon="4.91951">
        <ele>413.4</ele>
        <time>2024-06-29T08:11:46Z</time>
      </trkpt>
      <trkpt lat="47.16439" lon="4.91951">
        <ele>414.4</ele>
        <time>2024-06-29T08:11:50Z</time>
      </trkpt>
      <trkpt lat="47.1644" lon="4.91952">
        <ele>414.7</ele>
        <time>2024-06-29T08:12:03Z</time>
      </trkpt>
      <trkpt lat="47.16441" lon="4.91953">
        <ele>414.9</ele>
        <time>2024-06-29T08:12:08Z</time>
      </trkpt>
      <trkpt lat="47.16441" lon="4.91955">
        <ele>414.3</ele>
        <time>2024-06-29T08:12:51Z</time>
      </trkpt>
      <trkpt lat="47.1644" lon="4.91955">
        <ele>414</ele>
        <time>2024-06-29T08:13:11Z</time>
      </trkpt>
      <trkpt lat="47.1644" lon="4.91957">
        <ele>414.5</ele>
        <time>2024-06-29T08:13:13Z</time>
      </trkpt>
      <trkpt lat="47.16441" lon="4.91959">
        <ele>413.3</ele>
        <time>2024-06-29T08:13:14Z</time>
      </trkpt>
      <trkpt lat="47.16441" lon="4.9196">
        <ele>413.4</ele>
        <time>2024-06-29T08:13:16Z</time>
      </trkpt>
      <trkpt lat="47.16441" lon="4.91962">
        <ele>412.9</ele>
        <time>2024-06-29T08:13:35Z</time>
      </trkpt>
      <trkpt lat="47.16441" lon="4.91964">
        <ele>412.9</ele>
        <time>2024-06-29T08:13:37Z</time>
      </trkpt>
      <trkpt lat="47.16443" lon="4.91965">
        <ele>413.1</ele>
        <time>2024-06-29T08:13:38Z</time>
      </trkpt>
      <trkpt lat="47.16444" lon="4.91965">
        <ele>413.1</ele>
        <time>2024-06-29T08:13:40Z</time>
      </trkpt>
      <trkpt lat="47.16444" lon="4.91967">
        <ele>413.2</ele>
        <time>2024-06-29T08:15:12Z</time>
      </trkpt>
      <trkpt lat="47.16445" lon="4.91967">
        <ele>413.5</ele>
        <time>2024-06-29T08:16:15Z</time>
      </trkpt>
      <trkpt lat="47.16445" lon="4.91965">
        <ele>412.9</ele>
        <time>2024-06-29T08:16:33Z</time>
      </trkpt>
      <trkpt lat="47.16444" lon="4.91964">
        <ele>415.8</ele>
        <time>2024-06-29T08:17:09Z</time>
      </trkpt>
      <trkpt lat="47.16444" lon="4.91963">
        <ele>416</ele>
        <time>2024-06-29T08:17:15Z</time>
      </trkpt>
      <trkpt lat="47.16443" lon="4.91962">
        <ele>416.3</ele>
        <time>2024-06-29T08:17:30Z</time>
      </trkpt>
      <trkpt lat="47.16442" lon="4.91962">
        <ele>416.5</ele>
        <time>2024-06-29T08:17:39Z</time>
      </trkpt>
      <trkpt lat="47.16442" lon="4.91963">
        <ele>414.7</ele>
        <time>2024-06-29T08:18:04Z</time>
      </trkpt>
      <trkpt lat="47.16443" lon="4.91964">
        <ele>414</ele>
        <time>2024-06-29T08:18:11Z</time>
      </trkpt>
      <trkpt lat="47.16444" lon="4.91963">
        <ele>413.6</ele>
        <time>2024-06-29T08:18:15Z</time>
      </trkpt>
      <trkpt lat="47.16445" lon="4.91963">
        <ele>414.4</ele>
        <time>2024-06-29T08:18:16Z</time>
      </trkpt>
      <trkpt lat="47.16446" lon="4.91964">
        <ele>414.6</ele>
        <time>2024-06-29T08:18:17Z</time>
      </trkpt>
      <trkpt lat="47.16446" lon="4.91966">
        <ele>413.1</ele>
        <time>2024-06-29T08:18:19Z</time>
      </trkpt>
      <trkpt lat="47.16446" lon="4.91967">
        <ele>413</ele>
        <time>2024-06-29T08:18:20Z</time>
      </trkpt>
      <trkpt lat="47.16447" lon="4.91968">
        <ele>412.7</ele>
        <time>2024-06-29T08:18:23Z</time>
      </trkpt>
      <trkpt lat="47.16447" lon="4.9197">
        <ele>412.5</ele>
        <time>2024-06-29T08:18:25Z</time>
      </trkpt>
      <trkpt lat="47.16447" lon="4.91972">
        <ele>413.3</ele>
        <time>2024-06-29T08:18:26Z</time>
      </trkpt>
      <trkpt lat="47.16446" lon="4.91971">
        <ele>413.4</ele>
        <time>2024-06-29T08:18:28Z</time>
      </trkpt>
      <trkpt lat="47.16447" lon="4.9197">
        <ele>409.7</ele>
        <time>2024-06-29T08:18:32Z</time>
      </trkpt>
      <trkpt lat="47.16445" lon="4.91967">
        <ele>410.2</ele>
        <time>2024-06-29T08:18:35Z</time>
      </trkpt>
      <trkpt lat="47.16444" lon="4.91966">
        <ele>411.6</ele>
        <time>2024-06-29T08:18:36Z</time>
      </trkpt>
      <trkpt lat="47.16443" lon="4.91965">
        <ele>413.4</ele>
        <time>2024-06-29T08:18:37Z</time>
      </trkpt>
      <trkpt lat="47.16441" lon="4.91964">
        <ele>412.8</ele>
        <time>2024-06-29T08:18:39Z</time>
      </trkpt>
      <trkpt lat="47.16441" lon="4.91966">
        <ele>413.3</ele>
        <time>2024-06-29T08:18:40Z</time>
      </trkpt>
      <trkpt lat="47.1644" lon="4.91967">
        <ele>414.5</ele>
        <time>2024-06-29T08:18:41Z</time>
      </trkpt>
      <trkpt lat="47.16439" lon="4.91968">
        <ele>413.7</ele>
        <time>2024-06-29T08:18:42Z</time>
      </trkpt>
      <trkpt lat="47.1644" lon="4.91969">
        <ele>412.5</ele>
        <time>2024-06-29T08:18:44Z</time>
      </trkpt>
      <trkpt lat="47.16439" lon="4.91971">
        <ele>411.6</ele>
        <time>2024-06-29T08:18:46Z</time>
      </trkpt>
      <trkpt lat="47.16438" lon="4.91972">
        <ele>409.7</ele>
        <time>2024-06-29T08:18:47Z</time>
      </trkpt>
      <trkpt lat="47.16438" lon="4.91973">
        <ele>409.2</ele>
        <time>2024-06-29T08:18:48Z</time>
      </trkpt>
      <trkpt lat="47.16438" lon="4.91975">
        <ele>407.3</ele>
        <time>2024-06-29T08:18:50Z</time>
      </trkpt>
      <trkpt lat="47.16439" lon="4.91978">
        <ele>406.5</ele>
        <time>2024-06-29T08:18:52Z</time>
      </trkpt>
      <trkpt lat="47.16439" lon="4.91979">
        <ele>405</ele>
        <time>2024-06-29T08:18:53Z</time>
      </trkpt>
      <trkpt lat="47.16439" lon="4.91981">
        <ele>404</ele>
        <time>2024-06-29T08:18:54Z</time>
      </trkpt>
      <trkpt lat="47.1644" lon="4.91981">
        <ele>404.6</ele>
        <time>2024-06-29T08:18:56Z</time>
      </trkpt>
      <trkpt lat="47.16441" lon="4.91981">
        <ele>404.7</ele>
        <time>2024-06-29T08:18:59Z</time>
      </trkpt>
      <trkpt lat="47.1644" lon="4.91982">
        <ele>408.1</ele>
        <time>2024-06-29T08:19:04Z</time>
      </trkpt>
      <trkpt lat="47.16439" lon="4.91984">
        <ele>406.9</ele>
        <time>2024-06-29T08:19:06Z</time>
      </trkpt>
      <trkpt lat="47.16438" lon="4.91986">
        <ele>406.8</ele>
        <time>2024-06-29T08:19:07Z</time>
      </trkpt>
      <trkpt lat="47.16437" lon="4.91987">
        <ele>408</ele>
        <time>2024-06-29T08:19:09Z</time>
      </trkpt>
      <trkpt lat="47.16438" lon="4.91989">
        <ele>412.1</ele>
        <time>2024-06-29T08:19:12Z</time>
      </trkpt>
      <trkpt lat="47.16439" lon="4.9199">
        <ele>411.8</ele>
        <time>2024-06-29T08:19:16Z</time>
      </trkpt>
      <trkpt lat="47.16438" lon="4.91991">
        <ele>410.9</ele>
        <time>2024-06-29T08:19:21Z</time>
      </trkpt>
      <trkpt lat="47.16437" lon="4.91993">
        <ele>410.7</ele>
        <time>2024-06-29T08:19:23Z</time>
      </trkpt>
      <trkpt lat="47.16436" lon="4.91993">
        <ele>411</ele>
        <time>2024-06-29T08:19:25Z</time>
      </trkpt>
      <trkpt lat="47.16435" lon="4.91993">
        <ele>410.9</ele>
        <time>2024-06-29T08:19:27Z</time>
      </trkpt>
      <trkpt lat="47.16434" lon="4.91994">
        <ele>410.5</ele>
        <time>2024-06-29T08:19:30Z</time>
      </trkpt>
      <trkpt lat="47.16433" lon="4.91995">
        <ele>410.2</ele>
        <time>2024-06-29T08:19:32Z</time>
      </trkpt>
      <trkpt lat="47.16432" lon="4.91996">
        <ele>409.6</ele>
        <time>2024-06-29T08:19:34Z</time>
      </trkpt>
      <trkpt lat="47.16431" lon="4.91998">
        <ele>409.6</ele>
        <time>2024-06-29T08:19:36Z</time>
      </trkpt>
      <trkpt lat="47.1643" lon="4.91999">
        <ele>410</ele>
        <time>2024-06-29T08:19:37Z</time>
      </trkpt>
      <trkpt lat="47.16429" lon="4.92">
        <ele>409.2</ele>
        <time>2024-06-29T08:19:38Z</time>
      </trkpt>
      <trkpt lat="47.16428" lon="4.92001">
        <ele>409.7</ele>
        <time>2024-06-29T08:19:39Z</time>
      </trkpt>
      <trkpt lat="47.16428" lon="4.92002">
        <ele>409.7</ele>
        <time>2024-06-29T08:19:40Z</time>
      </trkpt>
      <trkpt lat="47.16427" lon="4.92003">
        <ele>409.7</ele>
        <time>2024-06-29T08:19:41Z</time>
      </trkpt>
      <trkpt lat="47.16427" lon="4.92004">
        <ele>409.9</ele>
        <time>2024-06-29T08:19:42Z</time>
      </trkpt>
      <trkpt lat="47.16426" lon="4.92005">
        <ele>410.2</ele>
        <time>2024-06-29T08:19:43Z</time>
      </trkpt>
      <trkpt lat="47.16425" lon="4.92006">
        <ele>410.2</ele>
        <time>2024-06-29T08:19:44Z</time>
      </trkpt>
      <trkpt lat="47.16424" lon="4.92008">
        <ele>410.1</ele>
        <time>2024-06-29T08:19:46Z</time>
      </trkpt>
      <trkpt lat="47.16424" lon="4.92011">
        <ele>408.3</ele>
        <time>2024-06-29T08:19:48Z</time>
      </trkpt>
      <trkpt lat="47.16424" lon="4.92012">
        <ele>409.3</ele>
        <time>2024-06-29T08:19:49Z</time>
      </trkpt>
      <trkpt lat="47.16424" lon="4.92014">
        <ele>410.5</ele>
        <time>2024-06-29T08:19:50Z</time>
      </trkpt>
      <trkpt lat="47.16424" lon="4.92015">
        <ele>410.9</ele>
        <time>2024-06-29T08:19:51Z</time>
      </trkpt>
      <trkpt lat="47.16424" lon="4.92017">
        <ele>409.8</ele>
        <time>2024-06-29T08:19:52Z</time>
      </trkpt>
      <trkpt lat="47.16423" lon="4.92018">
        <ele>409.7</ele>
        <time>2024-06-29T08:19:53Z</time>
      </trkpt>
      <trkpt lat="47.16422" lon="4.9202">
        <ele>410.1</ele>
        <time>2024-06-29T08:19:54Z</time>
      </trkpt>
      <trkpt lat="47.16422" lon="4.92022">
        <ele>406.6</ele>
        <time>2024-06-29T08:19:55Z</time>
      </trkpt>
      <trkpt lat="47.16421" lon="4.92023">
        <ele>405.4</ele>
        <time>2024-06-29T08:19:56Z</time>
      </trkpt>
      <trkpt lat="47.1642" lon="4.92024">
        <ele>402.3</ele>
        <time>2024-06-29T08:19:57Z</time>
      </trkpt>
      <trkpt lat="47.16419" lon="4.92026">
        <ele>400.7</ele>
        <time>2024-06-29T08:19:58Z</time>
      </trkpt>
      <trkpt lat="47.16418" lon="4.92027">
        <ele>401.3</ele>
        <time>2024-06-29T08:19:59Z</time>
      </trkpt>
      <trkpt lat="47.16417" lon="4.92029">
        <ele>399.9</ele>
        <time>2024-06-29T08:20:00Z</time>
      </trkpt>
      <trkpt lat="47.16418" lon="4.92031">
        <ele>397.6</ele>
        <time>2024-06-29T08:20:01Z</time>
      </trkpt>
      <trkpt lat="47.16419" lon="4.92032">
        <ele>396.6</ele>
        <time>2024-06-29T08:20:03Z</time>
      </trkpt>
      <trkpt lat="47.16419" lon="4.92033">
        <ele>397.2</ele>
        <time>2024-06-29T08:20:04Z</time>
      </trkpt>
      <trkpt lat="47.1642" lon="4.92036">
        <ele>398.5</ele>
        <time>2024-06-29T08:20:06Z</time>
      </trkpt>
      <trkpt lat="47.1642" lon="4.92037">
        <ele>399.9</ele>
        <time>2024-06-29T08:20:07Z</time>
      </trkpt>
      <trkpt lat="47.1642" lon="4.92039">
        <ele>401.2</ele>
        <time>2024-06-29T08:20:08Z</time>
      </trkpt>
      <trkpt lat="47.1642" lon="4.92041">
        <ele>402.9</ele>
        <time>2024-06-29T08:20:09Z</time>
      </trkpt>
      <trkpt lat="47.1642" lon="4.92043">
        <ele>403</ele>
        <time>2024-06-29T08:20:11Z</time>
      </trkpt>
      <trkpt lat="47.16421" lon="4.92045">
        <ele>402</ele>
        <time>2024-06-29T08:20:13Z</time>
      </trkpt>
      <trkpt lat="47.16421" lon="4.92047">
        <ele>401.5</ele>
        <time>2024-06-29T08:20:14Z</time>
      </trkpt>
      <trkpt lat="47.16421" lon="4.92049">
        <ele>401.1</ele>
        <time>2024-06-29T08:20:15Z</time>
      </trkpt>
      <trkpt lat="47.16421" lon="4.92051">
        <ele>401.7</ele>
        <time>2024-06-29T08:20:16Z</time>
      </trkpt>
      <trkpt lat="47.16421" lon="4.92053">
        <ele>403</ele>
        <time>2024-06-29T08:20:17Z</time>
      </trkpt>
      <trkpt lat="47.16421" lon="4.92055">
        <ele>404.3</ele>
        <time>2024-06-29T08:20:18Z</time>
      </trkpt>
      <trkpt lat="47.16421" lon="4.92057">
        <ele>403.6</ele>
        <time>2024-06-29T08:20:19Z</time>
      </trkpt>
      <trkpt lat="47.16421" lon="4.92058">
        <ele>400.2</ele>
        <time>2024-06-29T08:20:20Z</time>
      </trkpt>
      <trkpt lat="47.16421" lon="4.9206">
        <ele>400.4</ele>
        <time>2024-06-29T08:20:21Z</time>
      </trkpt>
      <trkpt lat="47.1642" lon="4.92062">
        <ele>400.6</ele>
        <time>2024-06-29T08:20:22Z</time>
      </trkpt>
      <trkpt lat="47.16419" lon="4.92063">
        <ele>401.6</ele>
        <time>2024-06-29T08:20:23Z</time>
      </trkpt>
      <trkpt lat="47.16419" lon="4.92065">
        <ele>401.9</ele>
        <time>2024-06-29T08:20:24Z</time>
      </trkpt>
      <trkpt lat="47.16418" lon="4.92067">
        <ele>402</ele>
        <time>2024-06-29T08:20:25Z</time>
      </trkpt>
      <trkpt lat="47.16417" lon="4.92069">
        <ele>401.6</ele>
        <time>2024-06-29T08:20:26Z</time>
      </trkpt>
      <trkpt lat="47.16416" lon="4.9207">
        <ele>401.4</ele>
        <time>2024-06-29T08:20:27Z</time>
      </trkpt>
      <trkpt lat="47.16416" lon="4.92072">
        <ele>401.2</ele>
        <time>2024-06-29T08:20:28Z</time>
      </trkpt>
      <trkpt lat="47.16415" lon="4.92074">
        <ele>400.9</ele>
        <time>2024-06-29T08:20:29Z</time>
      </trkpt>
      <trkpt lat="47.16414" lon="4.92076">
        <ele>401.1</ele>
        <time>2024-06-29T08:20:30Z</time>
      </trkpt>
      <trkpt lat="47.16414" lon="4.92078">
        <ele>401.3</ele>
        <time>2024-06-29T08:20:31Z</time>
      </trkpt>
      <trkpt lat="47.16414" lon="4.92079">
        <ele>401.6</ele>
        <time>2024-06-29T08:20:32Z</time>
      </trkpt>
      <trkpt lat="47.16413" lon="4.92081">
        <ele>401</ele>
        <time>2024-06-29T08:20:33Z</time>
      </trkpt>
      <trkpt lat="47.16413" lon="4.92082">
        <ele>401.3</ele>
        <time>2024-06-29T08:20:34Z</time>
      </trkpt>
      <trkpt lat="47.16412" lon="4.92084">
        <ele>401</ele>
        <time>2024-06-29T08:20:35Z</time>
      </trkpt>
      <trkpt lat="47.16411" lon="4.92086">
        <ele>400.8</ele>
        <time>2024-06-29T08:20:36Z</time>
      </trkpt>
      <trkpt lat="47.16411" lon="4.92087">
        <ele>400.8</ele>
        <time>2024-06-29T08:20:37Z</time>
      </trkpt>
      <trkpt lat="47.16411" lon="4.92089">
        <ele>400.8</ele>
        <time>2024-06-29T08:20:38Z</time>
      </trkpt>
      <trkpt lat="47.1641" lon="4.92091">
        <ele>401.3</ele>
        <time>2024-06-29T08:20:39Z</time>
      </trkpt>
      <trkpt lat="47.16409" lon="4.92093">
        <ele>401.3</ele>
        <time>2024-06-29T08:20:40Z</time>
      </trkpt>
      <trkpt lat="47.16409" lon="4.92095">
        <ele>400.5</ele>
        <time>2024-06-29T08:20:41Z</time>
      </trkpt>
      <trkpt lat="47.16408" lon="4.92097">
        <ele>399.8</ele>
        <time>2024-06-29T08:20:42Z</time>
      </trkpt>
      <trkpt lat="47.16408" lon="4.92099">
        <ele>399.8</ele>
        <time>2024-06-29T08:20:43Z</time>
      </trkpt>
      <trkpt lat="47.16408" lon="4.92101">
        <ele>399.1</ele>
        <time>2024-06-29T08:20:44Z</time>
      </trkpt>
      <trkpt lat="47.16407" lon="4.92103">
        <ele>398.5</ele>
        <time>2024-06-29T08:20:45Z</time>
      </trkpt>
      <trkpt lat="47.16407" lon="4.92105">
        <ele>398.8</ele>
        <time>2024-06-29T08:20:46Z</time>
      </trkpt>
      <trkpt lat="47.16407" lon="4.92107">
        <ele>398</ele>
        <time>2024-06-29T08:20:47Z</time>
      </trkpt>
      <trkpt lat="47.16407" lon="4.92109">
        <ele>398.6</ele>
        <time>2024-06-29T08:20:48Z</time>
      </trkpt>
      <trkpt lat="47.16407" lon="4.92111">
        <ele>398.9</ele>
        <time>2024-06-29T08:20:49Z</time>
      </trkpt>
      <trkpt lat="47.16407" lon="4.92112">
        <ele>398.5</ele>
        <time>2024-06-29T08:20:50Z</time>
      </trkpt>
      <trkpt lat="47.16406" lon="4.92114">
        <ele>398.8</ele>
        <time>2024-06-29T08:20:51Z</time>
      </trkpt>
      <trkpt lat="47.16406" lon="4.92116">
        <ele>398.4</ele>
        <time>2024-06-29T08:20:52Z</time>
      </trkpt>
      <trkpt lat="47.16405" lon="4.92117">
        <ele>398.4</ele>
        <time>2024-06-29T08:20:53Z</time>
      </trkpt>
      <trkpt lat="47.16405" lon="4.92119">
        <ele>398.8</ele>
        <time>2024-06-29T08:20:54Z</time>
      </trkpt>
      <trkpt lat="47.16404" lon="4.9212">
        <ele>399.9</ele>
        <time>2024-06-29T08:20:55Z</time>
      </trkpt>
      <trkpt lat="47.16404" lon="4.92122">
        <ele>399.8</ele>
        <time>2024-06-29T08:20:56Z</time>
      </trkpt>
      <trkpt lat="47.16404" lon="4.92123">
        <ele>401.4</ele>
        <time>2024-06-29T08:20:57Z</time>
      </trkpt>
      <trkpt lat="47.16403" lon="4.92125">
        <ele>402.5</ele>
        <time>2024-06-29T08:20:58Z</time>
      </trkpt>
      <trkpt lat="47.16403" lon="4.92126">
        <ele>402.8</ele>
        <time>2024-06-29T08:20:59Z</time>
      </trkpt>
      <trkpt lat="47.16402" lon="4.92128">
        <ele>401.2</ele>
        <time>2024-06-29T08:21:00Z</time>
      </trkpt>
      <trkpt lat="47.16402" lon="4.92129">
        <ele>401.3</ele>
        <time>2024-06-29T08:21:01Z</time>
      </trkpt>
      <trkpt lat="47.16401" lon="4.92131">
        <ele>397.4</ele>
        <time>2024-06-29T08:21:02Z</time>
      </trkpt>
      <trkpt lat="47.16399" lon="4.92133">
        <ele>395.9</ele>
        <time>2024-06-29T08:21:03Z</time>
      </trkpt>
      <trkpt lat="47.16398" lon="4.92134">
        <ele>395.4</ele>
        <time>2024-06-29T08:21:04Z</time>
      </trkpt>
      <trkpt lat="47.16398" lon="4.92136">
        <ele>395.5</ele>
        <time>2024-06-29T08:21:05Z</time>
      </trkpt>
      <trkpt lat="47.16397" lon="4.92137">
        <ele>396.5</ele>
        <time>2024-06-29T08:21:06Z</time>
      </trkpt>
      <trkpt lat="47.16397" lon="4.92138">
        <ele>396</ele>
        <time>2024-06-29T08:21:07Z</time>
      </trkpt>
      <trkpt lat="47.16396" lon="4.92141">
        <ele>393</ele>
        <time>2024-06-29T08:21:09Z</time>
      </trkpt>
      <trkpt lat="47.16395" lon="4.92142">
        <ele>393.1</ele>
        <time>2024-06-29T08:21:10Z</time>
      </trkpt>
      <trkpt lat="47.16394" lon="4.92143">
        <ele>393.9</ele>
        <time>2024-06-29T08:21:11Z</time>
      </trkpt>
      <trkpt lat="47.16394" lon="4.92144">
        <ele>393.8</ele>
        <time>2024-06-29T08:21:12Z</time>
      </trkpt>
      <trkpt lat="47.16393" lon="4.92146">
        <ele>395</ele>
        <time>2024-06-29T08:21:13Z</time>
      </trkpt>
      <trkpt lat="47.16393" lon="4.92147">
        <ele>394.5</ele>
        <time>2024-06-29T08:21:14Z</time>
      </trkpt>
      <trkpt lat="47.16392" lon="4.92149">
        <ele>394.5</ele>
        <time>2024-06-29T08:21:15Z</time>
      </trkpt>
      <trkpt lat="47.16392" lon="4.92151">
        <ele>395.1</ele>
        <time>2024-06-29T08:21:16Z</time>
      </trkpt>
      <trkpt lat="47.16392" lon="4.92152">
        <ele>395.7</ele>
        <time>2024-06-29T08:21:17Z</time>
      </trkpt>
      <trkpt lat="47.16391" lon="4.92154">
        <ele>396.1</ele>
        <time>2024-06-29T08:21:18Z</time>
      </trkpt>
      <trkpt lat="47.16391" lon="4.92156">
        <ele>396</ele>
        <time>2024-06-29T08:21:19Z</time>
      </trkpt>
      <trkpt lat="47.16391" lon="4.92157">
        <ele>396.3</ele>
        <time>2024-06-29T08:21:20Z</time>
      </trkpt>
      <trkpt lat="47.1639" lon="4.92159">
        <ele>396.7</ele>
        <time>2024-06-29T08:21:21Z</time>
      </trkpt>
      <trkpt lat="47.1639" lon="4.92161">
        <ele>396.7</ele>
        <time>2024-06-29T08:21:22Z</time>
      </trkpt>
      <trkpt lat="47.1639" lon="4.92162">
        <ele>396.7</ele>
        <time>2024-06-29T08:21:23Z</time>
      </trkpt>
      <trkpt lat="47.16389" lon="4.92164">
        <ele>397.2</ele>
        <time>2024-06-29T08:21:24Z</time>
      </trkpt>
      <trkpt lat="47.16389" lon="4.92165">
        <ele>397.2</ele>
        <time>2024-06-29T08:21:25Z</time>
      </trkpt>
      <trkpt lat="47.16389" lon="4.92167">
        <ele>397.3</ele>
        <time>2024-06-29T08:21:26Z</time>
      </trkpt>
      <trkpt lat="47.16388" lon="4.92168">
        <ele>397.3</ele>
        <time>2024-06-29T08:21:27Z</time>
      </trkpt>
      <trkpt lat="47.16388" lon="4.9217">
        <ele>397.2</ele>
        <time>2024-06-29T08:21:28Z</time>
      </trkpt>
      <trkpt lat="47.16387" lon="4.92171">
        <ele>397</ele>
        <time>2024-06-29T08:21:29Z</time>
      </trkpt>
      <trkpt lat="47.16387" lon="4.92172">
        <ele>397.2</ele>
        <time>2024-06-29T08:21:30Z</time>
      </trkpt>
      <trkpt lat="47.16386" lon="4.92174">
        <ele>396.8</ele>
        <time>2024-06-29T08:21:31Z</time>
      </trkpt>
      <trkpt lat="47.16386" lon="4.92175">
        <ele>396.6</ele>
        <time>2024-06-29T08:21:32Z</time>
      </trkpt>
      <trkpt lat="47.16385" lon="4.92176">
        <ele>396.2</ele>
        <time>2024-06-29T08:21:33Z</time>
      </trkpt>
      <trkpt lat="47.16385" lon="4.92178">
        <ele>396.4</ele>
        <time>2024-06-29T08:21:34Z</time>
      </trkpt>
      <trkpt lat="47.16384" lon="4.92179">
        <ele>396.3</ele>
        <time>2024-06-29T08:21:35Z</time>
      </trkpt>
      <trkpt lat="47.16384" lon="4.92181">
        <ele>396.6</ele>
        <time>2024-06-29T08:21:36Z</time>
      </trkpt>
      <trkpt lat="47.16383" lon="4.92182">
        <ele>396.3</ele>
        <time>2024-06-29T08:21:37Z</time>
      </trkpt>
      <trkpt lat="47.16383" lon="4.92183">
        <ele>396.3</ele>
        <time>2024-06-29T08:21:38Z</time>
      </trkpt>
      <trkpt lat="47.16383" lon="4.92185">
        <ele>396.1</ele>
        <time>2024-06-29T08:21:39Z</time>
      </trkpt>
      <trkpt lat="47.16382" lon="4.92186">
        <ele>396.3</ele>
        <time>2024-06-29T08:21:40Z</time>
      </trkpt>
      <trkpt lat="47.16382" lon="4.92188">
        <ele>396.3</ele>
        <time>2024-06-29T08:21:41Z</time>
      </trkpt>
      <trkpt lat="47.16381" lon="4.92189">
        <ele>396.2</ele>
        <time>2024-06-29T08:21:42Z</time>
      </trkpt>
      <trkpt lat="47.16381" lon="4.92191">
        <ele>396.1</ele>
        <time>2024-06-29T08:21:43Z</time>
      </trkpt>
      <trkpt lat="47.1638" lon="4.92193">
        <ele>396.2</ele>
        <time>2024-06-29T08:21:44Z</time>
      </trkpt>
      <trkpt lat="47.1638" lon="4.92194">
        <ele>396.1</ele>
        <time>2024-06-29T08:21:45Z</time>
      </trkpt>
      <trkpt lat="47.16379" lon="4.92196">
        <ele>395.9</ele>
        <time>2024-06-29T08:21:46Z</time>
      </trkpt>
      <trkpt lat="47.16379" lon="4.92197">
        <ele>395.6</ele>
        <time>2024-06-29T08:21:47Z</time>
      </trkpt>
      <trkpt lat="47.16378" lon="4.92199">
        <ele>395.4</ele>
        <time>2024-06-29T08:21:48Z</time>
      </trkpt>
      <trkpt lat="47.16378" lon="4.922">
        <ele>395.4</ele>
        <time>2024-06-29T08:21:49Z</time>
      </trkpt>
      <trkpt lat="47.16378" lon="4.92202">
        <ele>395.5</ele>
        <time>2024-06-29T08:21:50Z</time>
      </trkpt>
      <trkpt lat="47.16377" lon="4.92203">
        <ele>395.5</ele>
        <time>2024-06-29T08:21:51Z</time>
      </trkpt>
      <trkpt lat="47.16377" lon="4.92205">
        <ele>395.4</ele>
        <time>2024-06-29T08:21:52Z</time>
      </trkpt>
      <trkpt lat="47.16376" lon="4.92206">
        <ele>395.2</ele>
        <time>2024-06-29T08:21:53Z</time>
      </trkpt>
      <trkpt lat="47.16376" lon="4.92208">
        <ele>395.4</ele>
        <time>2024-06-29T08:21:54Z</time>
      </trkpt>
      <trkpt lat="47.16376" lon="4.92209">
        <ele>395.5</ele>
        <time>2024-06-29T08:21:55Z</time>
      </trkpt>
      <trkpt lat="47.16375" lon="4.92211">
        <ele>395.7</ele>
        <time>2024-06-29T08:21:56Z</time>
      </trkpt>
      <trkpt lat="47.16375" lon="4.92212">
        <ele>395.8</ele>
        <time>2024-06-29T08:21:57Z</time>
      </trkpt>
      <trkpt lat="47.16375" lon="4.92214">
        <ele>395.7</ele>
        <time>2024-06-29T08:21:58Z</time>
      </trkpt>
      <trkpt lat="47.16374" lon="4.92216">
        <ele>395.6</ele>
        <time>2024-06-29T08:21:59Z</time>
      </trkpt>
      <trkpt lat="47.16374" lon="4.92217">
        <ele>396</ele>
        <time>2024-06-29T08:22:00Z</time>
      </trkpt>
      <trkpt lat="47.16374" lon="4.92219">
        <ele>396.3</ele>
        <time>2024-06-29T08:22:01Z</time>
      </trkpt>
      <trkpt lat="47.16373" lon="4.9222">
        <ele>396</ele>
        <time>2024-06-29T08:22:02Z</time>
      </trkpt>
      <trkpt lat="47.16373" lon="4.92222">
        <ele>395.9</ele>
        <time>2024-06-29T08:22:03Z</time>
      </trkpt>
      <trkpt lat="47.16372" lon="4.92223">
        <ele>396</ele>
        <time>2024-06-29T08:22:04Z</time>
      </trkpt>
      <trkpt lat="47.16372" lon="4.92225">
        <ele>396.1</ele>
        <time>2024-06-29T08:22:05Z</time>
      </trkpt>
      <trkpt lat="47.16371" lon="4.92226">
        <ele>396.3</ele>
        <time>2024-06-29T08:22:06Z</time>
      </trkpt>
      <trkpt lat="47.16371" lon="4.92228">
        <ele>396.1</ele>
        <time>2024-06-29T08:22:07Z</time>
      </trkpt>
      <trkpt lat="47.1637" lon="4.92229">
        <ele>395.8</ele>
        <time>2024-06-29T08:22:08Z</time>
      </trkpt>
      <trkpt lat="47.1637" lon="4.92231">
        <ele>395.8</ele>
        <time>2024-06-29T08:22:09Z</time>
      </trkpt>
      <trkpt lat="47.1637" lon="4.92232">
        <ele>395.8</ele>
        <time>2024-06-29T08:22:10Z</time>
      </trkpt>
      <trkpt lat="47.16369" lon="4.92234">
        <ele>395.7</ele>
        <time>2024-06-29T08:22:11Z</time>
      </trkpt>
      <trkpt lat="47.16369" lon="4.92236">
        <ele>395.7</ele>
        <time>2024-06-29T08:22:12Z</time>
      </trkpt>
      <trkpt lat="47.16369" lon="4.92237">
        <ele>395.6</ele>
        <time>2024-06-29T08:22:13Z</time>
      </trkpt>
      <trkpt lat="47.16368" lon="4.92238">
        <ele>395.5</ele>
        <time>2024-06-29T08:22:14Z</time>
      </trkpt>
      <trkpt lat="47.16368" lon="4.9224">
        <ele>395.7</ele>
        <time>2024-06-29T08:22:15Z</time>
      </trkpt>
      <trkpt lat="47.16367" lon="4.92241">
        <ele>395.8</ele>
        <time>2024-06-29T08:22:16Z</time>
      </trkpt>
      <trkpt lat="47.16367" lon="4.92243">
        <ele>395.9</ele>
        <time>2024-06-29T08:22:17Z</time>
      </trkpt>
      <trkpt lat="47.16367" lon="4.92244">
        <ele>396</ele>
        <time>2024-06-29T08:22:18Z</time>
      </trkpt>
      <trkpt lat="47.16366" lon="4.92246">
        <ele>396.1</ele>
        <time>2024-06-29T08:22:19Z</time>
      </trkpt>
      <trkpt lat="47.16366" lon="4.92247">
        <ele>395.9</ele>
        <time>2024-06-29T08:22:20Z</time>
      </trkpt>
      <trkpt lat="47.16365" lon="4.92249">
        <ele>395.8</ele>
        <time>2024-06-29T08:22:21Z</time>
      </trkpt>
      <trkpt lat="47.16365" lon="4.9225">
        <ele>395.8</ele>
        <time>2024-06-29T08:22:22Z</time>
      </trkpt>
      <trkpt lat="47.16364" lon="4.92251">
        <ele>395.8</ele>
        <time>2024-06-29T08:22:23Z</time>
      </trkpt>
      <trkpt lat="47.16364" lon="4.92253">
        <ele>395.9</ele>
        <time>2024-06-29T08:22:24Z</time>
      </trkpt>
      <trkpt lat="47.16364" lon="4.92254">
        <ele>396.1</ele>
        <time>2024-06-29T08:22:25Z</time>
      </trkpt>
      <trkpt lat="47.16363" lon="4.92256">
        <ele>395.4</ele>
        <time>2024-06-29T08:22:26Z</time>
      </trkpt>
      <trkpt lat="47.16363" lon="4.92257">
        <ele>395.2</ele>
        <time>2024-06-29T08:22:27Z</time>
      </trkpt>
      <trkpt lat="47.16363" lon="4.92258">
        <ele>394.7</ele>
        <time>2024-06-29T08:22:28Z</time>
      </trkpt>
      <trkpt lat="47.16362" lon="4.9226">
        <ele>394.7</ele>
        <time>2024-06-29T08:22:29Z</time>
      </trkpt>
      <trkpt lat="47.16362" lon="4.92261">
        <ele>394.9</ele>
        <time>2024-06-29T08:22:30Z</time>
      </trkpt>
      <trkpt lat="47.16362" lon="4.92263">
        <ele>396</ele>
        <time>2024-06-29T08:22:31Z</time>
      </trkpt>
      <trkpt lat="47.16361" lon="4.92265">
        <ele>396.6</ele>
        <time>2024-06-29T08:22:32Z</time>
      </trkpt>
      <trkpt lat="47.16361" lon="4.92267">
        <ele>397.7</ele>
        <time>2024-06-29T08:22:33Z</time>
      </trkpt>
      <trkpt lat="47.16361" lon="4.92269">
        <ele>397</ele>
        <time>2024-06-29T08:22:34Z</time>
      </trkpt>
      <trkpt lat="47.16361" lon="4.92271">
        <ele>398.5</ele>
        <time>2024-06-29T08:22:35Z</time>
      </trkpt>
      <trkpt lat="47.1636" lon="4.92272">
        <ele>397.6</ele>
        <time>2024-06-29T08:22:36Z</time>
      </trkpt>
      <trkpt lat="47.16359" lon="4.92274">
        <ele>396.7</ele>
        <time>2024-06-29T08:22:38Z</time>
      </trkpt>
      <trkpt lat="47.16359" lon="4.92276">
        <ele>397.4</ele>
        <time>2024-06-29T08:22:40Z</time>
      </trkpt>
      <trkpt lat="47.16359" lon="4.92278">
        <ele>397.7</ele>
        <time>2024-06-29T08:22:42Z</time>
      </trkpt>
      <trkpt lat="47.16358" lon="4.9228">
        <ele>395.8</ele>
        <time>2024-06-29T08:22:43Z</time>
      </trkpt>
      <trkpt lat="47.16357" lon="4.92281">
        <ele>395.6</ele>
        <time>2024-06-29T08:22:44Z</time>
      </trkpt>
      <trkpt lat="47.16357" lon="4.92282">
        <ele>395.7</ele>
        <time>2024-06-29T08:22:45Z</time>
      </trkpt>
      <trkpt lat="47.16356" lon="4.92284">
        <ele>395.5</ele>
        <time>2024-06-29T08:22:46Z</time>
      </trkpt>
      <trkpt lat="47.16356" lon="4.92285">
        <ele>395.9</ele>
        <time>2024-06-29T08:22:47Z</time>
      </trkpt>
      <trkpt lat="47.16355" lon="4.92287">
        <ele>396.2</ele>
        <time>2024-06-29T08:22:48Z</time>
      </trkpt>
      <trkpt lat="47.16355" lon="4.92288">
        <ele>396.4</ele>
        <time>2024-06-29T08:22:49Z</time>
      </trkpt>
      <trkpt lat="47.16355" lon="4.9229">
        <ele>396.3</ele>
        <time>2024-06-29T08:22:50Z</time>
      </trkpt>
      <trkpt lat="47.16354" lon="4.92291">
        <ele>396.5</ele>
        <time>2024-06-29T08:22:51Z</time>
      </trkpt>
      <trkpt lat="47.16354" lon="4.92293">
        <ele>396.4</ele>
        <time>2024-06-29T08:22:52Z</time>
      </trkpt>
      <trkpt lat="47.16353" lon="4.92294">
        <ele>396.1</ele>
        <time>2024-06-29T08:22:53Z</time>
      </trkpt>
      <trkpt lat="47.16353" lon="4.92296">
        <ele>396</ele>
        <time>2024-06-29T08:22:54Z</time>
      </trkpt>
      <trkpt lat="47.16352" lon="4.92297">
        <ele>396.1</ele>
        <time>2024-06-29T08:22:55Z</time>
      </trkpt>
      <trkpt lat="47.16352" lon="4.92299">
        <ele>396.2</ele>
        <time>2024-06-29T08:22:56Z</time>
      </trkpt>
      <trkpt lat="47.16351" lon="4.923">
        <ele>396</ele>
        <time>2024-06-29T08:22:57Z</time>
      </trkpt>
      <trkpt lat="47.16351" lon="4.92302">
        <ele>396</ele>
        <time>2024-06-29T08:22:58Z</time>
      </trkpt>
      <trkpt lat="47.1635" lon="4.92304">
        <ele>396</ele>
        <time>2024-06-29T08:22:59Z</time>
      </trkpt>
      <trkpt lat="47.1635" lon="4.92305">
        <ele>396.2</ele>
        <time>2024-06-29T08:23:00Z</time>
      </trkpt>
      <trkpt lat="47.16349" lon="4.92307">
        <ele>396.5</ele>
        <time>2024-06-29T08:23:01Z</time>
      </trkpt>
      <trkpt lat="47.16349" lon="4.92308">
        <ele>396.4</ele>
        <time>2024-06-29T08:23:02Z</time>
      </trkpt>
      <trkpt lat="47.16348" lon="4.92309">
        <ele>396.3</ele>
        <time>2024-06-29T08:23:03Z</time>
      </trkpt>
      <trkpt lat="47.16348" lon="4.92311">
        <ele>396</ele>
        <time>2024-06-29T08:23:04Z</time>
      </trkpt>
      <trkpt lat="47.16348" lon="4.92312">
        <ele>396.1</ele>
        <time>2024-06-29T08:23:05Z</time>
      </trkpt>
      <trkpt lat="47.16347" lon="4.92313">
        <ele>396</ele>
        <time>2024-06-29T08:23:06Z</time>
      </trkpt>
      <trkpt lat="47.16347" lon="4.92315">
        <ele>395.7</ele>
        <time>2024-06-29T08:23:07Z</time>
      </trkpt>
      <trkpt lat="47.16346" lon="4.92316">
        <ele>395.7</ele>
        <time>2024-06-29T08:23:08Z</time>
      </trkpt>
      <trkpt lat="47.16346" lon="4.92317">
        <ele>395.6</ele>
        <time>2024-06-29T08:23:09Z</time>
      </trkpt>
      <trkpt lat="47.16345" lon="4.92319">
        <ele>395.8</ele>
        <time>2024-06-29T08:23:10Z</time>
      </trkpt>
      <trkpt lat="47.16345" lon="4.9232">
        <ele>395.9</ele>
        <time>2024-06-29T08:23:11Z</time>
      </trkpt>
      <trkpt lat="47.16344" lon="4.92322">
        <ele>396.2</ele>
        <time>2024-06-29T08:23:12Z</time>
      </trkpt>
      <trkpt lat="47.16344" lon="4.92323">
        <ele>395.9</ele>
        <time>2024-06-29T08:23:13Z</time>
      </trkpt>
      <trkpt lat="47.16343" lon="4.92325">
        <ele>396.3</ele>
        <time>2024-06-29T08:23:14Z</time>
      </trkpt>
      <trkpt lat="47.16343" lon="4.92327">
        <ele>396.4</ele>
        <time>2024-06-29T08:23:15Z</time>
      </trkpt>
      <trkpt lat="47.16342" lon="4.92329">
        <ele>396.6</ele>
        <time>2024-06-29T08:23:16Z</time>
      </trkpt>
      <trkpt lat="47.16342" lon="4.92332">
        <ele>397.7</ele>
        <time>2024-06-29T08:23:18Z</time>
      </trkpt>
      <trkpt lat="47.16341" lon="4.92334">
        <ele>396.7</ele>
        <time>2024-06-29T08:23:20Z</time>
      </trkpt>
      <trkpt lat="47.16341" lon="4.92335">
        <ele>395.1</ele>
        <time>2024-06-29T08:23:21Z</time>
      </trkpt>
      <trkpt lat="47.1634" lon="4.92336">
        <ele>393.6</ele>
        <time>2024-06-29T08:23:22Z</time>
      </trkpt>
      <trkpt lat="47.1634" lon="4.92338">
        <ele>392.8</ele>
        <time>2024-06-29T08:23:23Z</time>
      </trkpt>
      <trkpt lat="47.1634" lon="4.9234">
        <ele>391.3</ele>
        <time>2024-06-29T08:23:24Z</time>
      </trkpt>
      <trkpt lat="47.1634" lon="4.92341">
        <ele>390.6</ele>
        <time>2024-06-29T08:23:25Z</time>
      </trkpt>
      <trkpt lat="47.1634" lon="4.92343">
        <ele>392.5</ele>
        <time>2024-06-29T08:23:28Z</time>
      </trkpt>
      <trkpt lat="47.1634" lon="4.92345">
        <ele>393</ele>
        <time>2024-06-29T08:23:30Z</time>
      </trkpt>
      <trkpt lat="47.1634" lon="4.92346">
        <ele>395.4</ele>
        <time>2024-06-29T08:23:32Z</time>
      </trkpt>
      <trkpt lat="47.1634" lon="4.92349">
        <ele>394.2</ele>
        <time>2024-06-29T08:23:34Z</time>
      </trkpt>
      <trkpt lat="47.16339" lon="4.92352">
        <ele>393.4</ele>
        <time>2024-06-29T08:23:36Z</time>
      </trkpt>
      <trkpt lat="47.16339" lon="4.92353">
        <ele>393.4</ele>
        <time>2024-06-29T08:23:37Z</time>
      </trkpt>
      <trkpt lat="47.16338" lon="4.92356">
        <ele>392.4</ele>
        <time>2024-06-29T08:23:39Z</time>
      </trkpt>
      <trkpt lat="47.16337" lon="4.92357">
        <ele>391.7</ele>
        <time>2024-06-29T08:23:40Z</time>
      </trkpt>
      <trkpt lat="47.16336" lon="4.92358">
        <ele>391.6</ele>
        <time>2024-06-29T08:23:41Z</time>
      </trkpt>
      <trkpt lat="47.16336" lon="4.92359">
        <ele>391.3</ele>
        <time>2024-06-29T08:23:42Z</time>
      </trkpt>
      <trkpt lat="47.16335" lon="4.9236">
        <ele>389.4</ele>
        <time>2024-06-29T08:23:43Z</time>
      </trkpt>
      <trkpt lat="47.16335" lon="4.92361">
        <ele>388.8</ele>
        <time>2024-06-29T08:23:44Z</time>
      </trkpt>
      <trkpt lat="47.16335" lon="4.92363">
        <ele>388.7</ele>
        <time>2024-06-29T08:23:45Z</time>
      </trkpt>
      <trkpt lat="47.16335" lon="4.92365">
        <ele>389.9</ele>
        <time>2024-06-29T08:23:46Z</time>
      </trkpt>
      <trkpt lat="47.16335" lon="4.92366">
        <ele>391.1</ele>
        <time>2024-06-29T08:23:48Z</time>
      </trkpt>
      <trkpt lat="47.16334" lon="4.92365">
        <ele>387.2</ele>
        <time>2024-06-29T08:23:58Z</time>
      </trkpt>
      <trkpt lat="47.16334" lon="4.92367">
        <ele>387.5</ele>
        <time>2024-06-29T08:24:08Z</time>
      </trkpt>
      <trkpt lat="47.16333" lon="4.92368">
        <ele>388.4</ele>
        <time>2024-06-29T08:24:10Z</time>
      </trkpt>
      <trkpt lat="47.16332" lon="4.92371">
        <ele>387.8</ele>
        <time>2024-06-29T08:24:12Z</time>
      </trkpt>
      <trkpt lat="47.16332" lon="4.92372">
        <ele>388.2</ele>
        <time>2024-06-29T08:24:13Z</time>
      </trkpt>
      <trkpt lat="47.16331" lon="4.92373">
        <ele>389.9</ele>
        <time>2024-06-29T08:24:14Z</time>
      </trkpt>
      <trkpt lat="47.1633" lon="4.92374">
        <ele>391.2</ele>
        <time>2024-06-29T08:24:15Z</time>
      </trkpt>
      <trkpt lat="47.1633" lon="4.92375">
        <ele>390.6</ele>
        <time>2024-06-29T08:24:16Z</time>
      </trkpt>
      <trkpt lat="47.16331" lon="4.92375">
        <ele>394</ele>
        <time>2024-06-29T08:24:20Z</time>
      </trkpt>
      <trkpt lat="47.16331" lon="4.92374">
        <ele>394</ele>
        <time>2024-06-29T08:24:24Z</time>
      </trkpt>
      <trkpt lat="47.16331" lon="4.92376">
        <ele>394.3</ele>
        <time>2024-06-29T08:24:33Z</time>
      </trkpt>
      <trkpt lat="47.16331" lon="4.92378">
        <ele>395.4</ele>
        <time>2024-06-29T08:24:34Z</time>
      </trkpt>
      <trkpt lat="47.1633" lon="4.92379">
        <ele>395</ele>
        <time>2024-06-29T08:24:35Z</time>
      </trkpt>
      <trkpt lat="47.16329" lon="4.9238">
        <ele>394.7</ele>
        <time>2024-06-29T08:24:36Z</time>
      </trkpt>
      <trkpt lat="47.16329" lon="4.92381">
        <ele>393.9</ele>
        <time>2024-06-29T08:24:37Z</time>
      </trkpt>
      <trkpt lat="47.16327" lon="4.92383">
        <ele>393.3</ele>
        <time>2024-06-29T08:24:39Z</time>
      </trkpt>
      <trkpt lat="47.16326" lon="4.92385">
        <ele>393.8</ele>
        <time>2024-06-29T08:24:40Z</time>
      </trkpt>
      <trkpt lat="47.16325" lon="4.92387">
        <ele>394.1</ele>
        <time>2024-06-29T08:24:41Z</time>
      </trkpt>
      <trkpt lat="47.16324" lon="4.92389">
        <ele>395.8</ele>
        <time>2024-06-29T08:24:42Z</time>
      </trkpt>
      <trkpt lat="47.16324" lon="4.92391">
        <ele>394.7</ele>
        <time>2024-06-29T08:24:43Z</time>
      </trkpt>
      <trkpt lat="47.16323" lon="4.92392">
        <ele>395.2</ele>
        <time>2024-06-29T08:24:44Z</time>
      </trkpt>
      <trkpt lat="47.16322" lon="4.92394">
        <ele>395.1</ele>
        <time>2024-06-29T08:24:45Z</time>
      </trkpt>
      <trkpt lat="47.16322" lon="4.92396">
        <ele>394.8</ele>
        <time>2024-06-29T08:24:47Z</time>
      </trkpt>
      <trkpt lat="47.16321" lon="4.92398">
        <ele>394.1</ele>
        <time>2024-06-29T08:24:49Z</time>
      </trkpt>
      <trkpt lat="47.1632" lon="4.92399">
        <ele>393</ele>
        <time>2024-06-29T08:24:51Z</time>
      </trkpt>
      <trkpt lat="47.16321" lon="4.924">
        <ele>393</ele>
        <time>2024-06-29T08:24:55Z</time>
      </trkpt>
      <trkpt lat="47.16322" lon="4.92399">
        <ele>393</ele>
        <time>2024-06-29T08:24:56Z</time>
      </trkpt>
      <trkpt lat="47.16323" lon="4.92398">
        <ele>395.3</ele>
        <time>2024-06-29T08:25:00Z</time>
      </trkpt>
      <trkpt lat="47.16322" lon="4.92399">
        <ele>396.4</ele>
        <time>2024-06-29T08:25:12Z</time>
      </trkpt>
      <trkpt lat="47.16322" lon="4.92401">
        <ele>396.3</ele>
        <time>2024-06-29T08:25:14Z</time>
      </trkpt>
      <trkpt lat="47.16322" lon="4.92403">
        <ele>397.3</ele>
        <time>2024-06-29T08:25:15Z</time>
      </trkpt>
      <trkpt lat="47.16322" lon="4.92405">
        <ele>397.8</ele>
        <time>2024-06-29T08:25:16Z</time>
      </trkpt>
      <trkpt lat="47.16321" lon="4.92407">
        <ele>397.8</ele>
        <time>2024-06-29T08:25:17Z</time>
      </trkpt>
      <trkpt lat="47.16321" lon="4.92408">
        <ele>399</ele>
        <time>2024-06-29T08:25:18Z</time>
      </trkpt>
      <trkpt lat="47.16321" lon="4.9241">
        <ele>398.8</ele>
        <time>2024-06-29T08:25:19Z</time>
      </trkpt>
      <trkpt lat="47.1632" lon="4.92411">
        <ele>398.3</ele>
        <time>2024-06-29T08:25:20Z</time>
      </trkpt>
      <trkpt lat="47.1632" lon="4.92413">
        <ele>398</ele>
        <time>2024-06-29T08:25:21Z</time>
      </trkpt>
      <trkpt lat="47.16319" lon="4.92414">
        <ele>398.3</ele>
        <time>2024-06-29T08:25:22Z</time>
      </trkpt>
      <trkpt lat="47.16319" lon="4.92415">
        <ele>398.4</ele>
        <time>2024-06-29T08:25:23Z</time>
      </trkpt>
      <trkpt lat="47.16318" lon="4.92417">
        <ele>397.8</ele>
        <time>2024-06-29T08:25:24Z</time>
      </trkpt>
      <trkpt lat="47.16318" lon="4.92418">
        <ele>397.6</ele>
        <time>2024-06-29T08:25:25Z</time>
      </trkpt>
      <trkpt lat="47.16317" lon="4.92419">
        <ele>397.8</ele>
        <time>2024-06-29T08:25:26Z</time>
      </trkpt>
      <trkpt lat="47.16316" lon="4.9242">
        <ele>397.7</ele>
        <time>2024-06-29T08:25:27Z</time>
      </trkpt>
      <trkpt lat="47.16315" lon="4.92422">
        <ele>397.4</ele>
        <time>2024-06-29T08:25:28Z</time>
      </trkpt>
      <trkpt lat="47.16315" lon="4.92423">
        <ele>397.4</ele>
        <time>2024-06-29T08:25:29Z</time>
      </trkpt>
      <trkpt lat="47.16314" lon="4.92425">
        <ele>397.2</ele>
        <time>2024-06-29T08:25:30Z</time>
      </trkpt>
      <trkpt lat="47.16313" lon="4.92426">
        <ele>397.1</ele>
        <time>2024-06-29T08:25:31Z</time>
      </trkpt>
      <trkpt lat="47.16312" lon="4.92428">
        <ele>396.8</ele>
        <time>2024-06-29T08:25:32Z</time>
      </trkpt>
      <trkpt lat="47.16312" lon="4.92429">
        <ele>396.8</ele>
        <time>2024-06-29T08:25:33Z</time>
      </trkpt>
      <trkpt lat="47.16311" lon="4.92431">
        <ele>396.8</ele>
        <time>2024-06-29T08:25:34Z</time>
      </trkpt>
      <trkpt lat="47.1631" lon="4.92432">
        <ele>396.8</ele>
        <time>2024-06-29T08:25:35Z</time>
      </trkpt>
      <trkpt lat="47.16309" lon="4.92433">
        <ele>397</ele>
        <time>2024-06-29T08:25:36Z</time>
      </trkpt>
      <trkpt lat="47.16308" lon="4.92435">
        <ele>396.8</ele>
        <time>2024-06-29T08:25:37Z</time>
      </trkpt>
      <trkpt lat="47.16308" lon="4.92436">
        <ele>396.8</ele>
        <time>2024-06-29T08:25:38Z</time>
      </trkpt>
      <trkpt lat="47.16307" lon="4.92437">
        <ele>396.8</ele>
        <time>2024-06-29T08:25:39Z</time>
      </trkpt>
      <trkpt lat="47.16306" lon="4.92439">
        <ele>397</ele>
        <time>2024-06-29T08:25:40Z</time>
      </trkpt>
      <trkpt lat="47.16305" lon="4.9244">
        <ele>396.6</ele>
        <time>2024-06-29T08:25:41Z</time>
      </trkpt>
      <trkpt lat="47.16305" lon="4.92442">
        <ele>396.4</ele>
        <time>2024-06-29T08:25:42Z</time>
      </trkpt>
      <trkpt lat="47.16304" lon="4.92443">
        <ele>396</ele>
        <time>2024-06-29T08:25:43Z</time>
      </trkpt>
      <trkpt lat="47.16303" lon="4.92444">
        <ele>395.8</ele>
        <time>2024-06-29T08:25:44Z</time>
      </trkpt>
      <trkpt lat="47.16302" lon="4.92446">
        <ele>395.7</ele>
        <time>2024-06-29T08:25:45Z</time>
      </trkpt>
      <trkpt lat="47.16302" lon="4.92447">
        <ele>395.7</ele>
        <time>2024-06-29T08:25:46Z</time>
      </trkpt>
      <trkpt lat="47.16301" lon="4.92448">
        <ele>396.3</ele>
        <time>2024-06-29T08:25:47Z</time>
      </trkpt>
      <trkpt lat="47.16301" lon="4.9245">
        <ele>395.7</ele>
        <time>2024-06-29T08:25:48Z</time>
      </trkpt>
      <trkpt lat="47.163" lon="4.92452">
        <ele>395.3</ele>
        <time>2024-06-29T08:25:49Z</time>
      </trkpt>
      <trkpt lat="47.163" lon="4.92454">
        <ele>395.1</ele>
        <time>2024-06-29T08:25:50Z</time>
      </trkpt>
      <trkpt lat="47.16299" lon="4.92455">
        <ele>395.3</ele>
        <time>2024-06-29T08:25:51Z</time>
      </trkpt>
      <trkpt lat="47.16299" lon="4.92457">
        <ele>395.4</ele>
        <time>2024-06-29T08:25:52Z</time>
      </trkpt>
      <trkpt lat="47.16298" lon="4.92458">
        <ele>397.9</ele>
        <time>2024-06-29T08:25:53Z</time>
      </trkpt>
      <trkpt lat="47.16298" lon="4.92459">
        <ele>397.5</ele>
        <time>2024-06-29T08:25:54Z</time>
      </trkpt>
      <trkpt lat="47.16297" lon="4.9246">
        <ele>398.5</ele>
        <time>2024-06-29T08:25:55Z</time>
      </trkpt>
      <trkpt lat="47.16296" lon="4.92462">
        <ele>399.4</ele>
        <time>2024-06-29T08:25:56Z</time>
      </trkpt>
      <trkpt lat="47.16296" lon="4.92463">
        <ele>398.1</ele>
        <time>2024-06-29T08:25:57Z</time>
      </trkpt>
      <trkpt lat="47.16295" lon="4.92464">
        <ele>397.7</ele>
        <time>2024-06-29T08:25:58Z</time>
      </trkpt>
      <trkpt lat="47.16294" lon="4.92466">
        <ele>397.3</ele>
        <time>2024-06-29T08:25:59Z</time>
      </trkpt>
      <trkpt lat="47.16294" lon="4.92467">
        <ele>397.6</ele>
        <time>2024-06-29T08:26:00Z</time>
      </trkpt>
      <trkpt lat="47.16293" lon="4.92468">
        <ele>397.4</ele>
        <time>2024-06-29T08:26:01Z</time>
      </trkpt>
      <trkpt lat="47.16292" lon="4.92469">
        <ele>397.8</ele>
        <time>2024-06-29T08:26:02Z</time>
      </trkpt>
      <trkpt lat="47.16292" lon="4.92471">
        <ele>397.5</ele>
        <time>2024-06-29T08:26:03Z</time>
      </trkpt>
      <trkpt lat="47.16291" lon="4.92472">
        <ele>397.7</ele>
        <time>2024-06-29T08:26:04Z</time>
      </trkpt>
      <trkpt lat="47.16291" lon="4.92474">
        <ele>398.8</ele>
        <time>2024-06-29T08:26:05Z</time>
      </trkpt>
      <trkpt lat="47.1629" lon="4.92475">
        <ele>398.4</ele>
        <time>2024-06-29T08:26:06Z</time>
      </trkpt>
      <trkpt lat="47.16289" lon="4.92476">
        <ele>398.2</ele>
        <time>2024-06-29T08:26:07Z</time>
      </trkpt>
      <trkpt lat="47.16289" lon="4.92477">
        <ele>398.9</ele>
        <time>2024-06-29T08:26:08Z</time>
      </trkpt>
      <trkpt lat="47.16288" lon="4.92478">
        <ele>399.5</ele>
        <time>2024-06-29T08:26:09Z</time>
      </trkpt>
      <trkpt lat="47.16288" lon="4.9248">
        <ele>400.2</ele>
        <time>2024-06-29T08:26:10Z</time>
      </trkpt>
      <trkpt lat="47.16288" lon="4.92481">
        <ele>400.9</ele>
        <time>2024-06-29T08:26:11Z</time>
      </trkpt>
      <trkpt lat="47.16288" lon="4.92483">
        <ele>400.1</ele>
        <time>2024-06-29T08:26:12Z</time>
      </trkpt>
      <trkpt lat="47.16287" lon="4.92484">
        <ele>401.1</ele>
        <time>2024-06-29T08:26:13Z</time>
      </trkpt>
      <trkpt lat="47.16287" lon="4.92486">
        <ele>401.3</ele>
        <time>2024-06-29T08:26:14Z</time>
      </trkpt>
      <trkpt lat="47.16287" lon="4.92487">
        <ele>401.4</ele>
        <time>2024-06-29T08:26:15Z</time>
      </trkpt>
      <trkpt lat="47.16286" lon="4.9249">
        <ele>400.4</ele>
        <time>2024-06-29T08:26:17Z</time>
      </trkpt>
      <trkpt lat="47.16285" lon="4.92491">
        <ele>399.7</ele>
        <time>2024-06-29T08:26:18Z</time>
      </trkpt>
      <trkpt lat="47.16284" lon="4.92493">
        <ele>400.5</ele>
        <time>2024-06-29T08:26:20Z</time>
      </trkpt>
      <trkpt lat="47.16284" lon="4.92494">
        <ele>398.5</ele>
        <time>2024-06-29T08:26:21Z</time>
      </trkpt>
      <trkpt lat="47.16283" lon="4.92495">
        <ele>398.8</ele>
        <time>2024-06-29T08:26:22Z</time>
      </trkpt>
      <trkpt lat="47.16282" lon="4.92496">
        <ele>398.1</ele>
        <time>2024-06-29T08:26:23Z</time>
      </trkpt>
      <trkpt lat="47.16282" lon="4.92498">
        <ele>398</ele>
        <time>2024-06-29T08:26:24Z</time>
      </trkpt>
      <trkpt lat="47.16281" lon="4.92499">
        <ele>399.1</ele>
        <time>2024-06-29T08:26:25Z</time>
      </trkpt>
      <trkpt lat="47.16281" lon="4.925">
        <ele>398.3</ele>
        <time>2024-06-29T08:26:26Z</time>
      </trkpt>
      <trkpt lat="47.1628" lon="4.92501">
        <ele>397.7</ele>
        <time>2024-06-29T08:26:27Z</time>
      </trkpt>
      <trkpt lat="47.16279" lon="4.92503">
        <ele>396.9</ele>
        <time>2024-06-29T08:26:28Z</time>
      </trkpt>
      <trkpt lat="47.16279" lon="4.92504">
        <ele>396.9</ele>
        <time>2024-06-29T08:26:29Z</time>
      </trkpt>
      <trkpt lat="47.16278" lon="4.92505">
        <ele>396.6</ele>
        <time>2024-06-29T08:26:30Z</time>
      </trkpt>
      <trkpt lat="47.16278" lon="4.92507">
        <ele>396.4</ele>
        <time>2024-06-29T08:26:31Z</time>
      </trkpt>
      <trkpt lat="47.16278" lon="4.92508">
        <ele>396.6</ele>
        <time>2024-06-29T08:26:32Z</time>
      </trkpt>
      <trkpt lat="47.16277" lon="4.9251">
        <ele>396.8</ele>
        <time>2024-06-29T08:26:33Z</time>
      </trkpt>
      <trkpt lat="47.16277" lon="4.92511">
        <ele>396.6</ele>
        <time>2024-06-29T08:26:34Z</time>
      </trkpt>
      <trkpt lat="47.16276" lon="4.92513">
        <ele>396.5</ele>
        <time>2024-06-29T08:26:35Z</time>
      </trkpt>
      <trkpt lat="47.16276" lon="4.92514">
        <ele>396.4</ele>
        <time>2024-06-29T08:26:36Z</time>
      </trkpt>
      <trkpt lat="47.16275" lon="4.92516">
        <ele>396.1</ele>
        <time>2024-06-29T08:26:37Z</time>
      </trkpt>
      <trkpt lat="47.16275" lon="4.92517">
        <ele>396.2</ele>
        <time>2024-06-29T08:26:38Z</time>
      </trkpt>
      <trkpt lat="47.16274" lon="4.92518">
        <ele>396.1</ele>
        <time>2024-06-29T08:26:39Z</time>
      </trkpt>
      <trkpt lat="47.16274" lon="4.9252">
        <ele>396.2</ele>
        <time>2024-06-29T08:26:40Z</time>
      </trkpt>
      <trkpt lat="47.16273" lon="4.92521">
        <ele>395.8</ele>
        <time>2024-06-29T08:26:41Z</time>
      </trkpt>
      <trkpt lat="47.16273" lon="4.92522">
        <ele>395.6</ele>
        <time>2024-06-29T08:26:42Z</time>
      </trkpt>
      <trkpt lat="47.16272" lon="4.92523">
        <ele>395.9</ele>
        <time>2024-06-29T08:26:43Z</time>
      </trkpt>
      <trkpt lat="47.16272" lon="4.92525">
        <ele>395.9</ele>
        <time>2024-06-29T08:26:44Z</time>
      </trkpt>
      <trkpt lat="47.16271" lon="4.92526">
        <ele>395.8</ele>
        <time>2024-06-29T08:26:45Z</time>
      </trkpt>
      <trkpt lat="47.16271" lon="4.92527">
        <ele>395.7</ele>
        <time>2024-06-29T08:26:46Z</time>
      </trkpt>
      <trkpt lat="47.1627" lon="4.92528">
        <ele>395.9</ele>
        <time>2024-06-29T08:26:47Z</time>
      </trkpt>
      <trkpt lat="47.1627" lon="4.9253">
        <ele>395.7</ele>
        <time>2024-06-29T08:26:48Z</time>
      </trkpt>
      <trkpt lat="47.16269" lon="4.92531">
        <ele>395.8</ele>
        <time>2024-06-29T08:26:49Z</time>
      </trkpt>
      <trkpt lat="47.16268" lon="4.92532">
        <ele>396.1</ele>
        <time>2024-06-29T08:26:50Z</time>
      </trkpt>
      <trkpt lat="47.16268" lon="4.92533">
        <ele>396.1</ele>
        <time>2024-06-29T08:26:51Z</time>
      </trkpt>
      <trkpt lat="47.16267" lon="4.92534">
        <ele>396.2</ele>
        <time>2024-06-29T08:26:52Z</time>
      </trkpt>
      <trkpt lat="47.16266" lon="4.92535">
        <ele>396.1</ele>
        <time>2024-06-29T08:26:53Z</time>
      </trkpt>
      <trkpt lat="47.16266" lon="4.92536">
        <ele>396</ele>
        <time>2024-06-29T08:26:54Z</time>
      </trkpt>
      <trkpt lat="47.16265" lon="4.92538">
        <ele>395.8</ele>
        <time>2024-06-29T08:26:55Z</time>
      </trkpt>
      <trkpt lat="47.16265" lon="4.92539">
        <ele>395.9</ele>
        <time>2024-06-29T08:26:56Z</time>
      </trkpt>
      <trkpt lat="47.16264" lon="4.9254">
        <ele>395.9</ele>
        <time>2024-06-29T08:26:57Z</time>
      </trkpt>
      <trkpt lat="47.16263" lon="4.92542">
        <ele>395.8</ele>
        <time>2024-06-29T08:26:58Z</time>
      </trkpt>
      <trkpt lat="47.16263" lon="4.92543">
        <ele>395.6</ele>
        <time>2024-06-29T08:26:59Z</time>
      </trkpt>
      <trkpt lat="47.16262" lon="4.92544">
        <ele>396</ele>
        <time>2024-06-29T08:27:00Z</time>
      </trkpt>
      <trkpt lat="47.16261" lon="4.92545">
        <ele>396</ele>
        <time>2024-06-29T08:27:01Z</time>
      </trkpt>
      <trkpt lat="47.1626" lon="4.92546">
        <ele>396.2</ele>
        <time>2024-06-29T08:27:02Z</time>
      </trkpt>
      <trkpt lat="47.1626" lon="4.92547">
        <ele>396.1</ele>
        <time>2024-06-29T08:27:03Z</time>
      </trkpt>
      <trkpt lat="47.16259" lon="4.92548">
        <ele>396.2</ele>
        <time>2024-06-29T08:27:04Z</time>
      </trkpt>
      <trkpt lat="47.16258" lon="4.9255">
        <ele>396.3</ele>
        <time>2024-06-29T08:27:05Z</time>
      </trkpt>
      <trkpt lat="47.16257" lon="4.92551">
        <ele>396.4</ele>
        <time>2024-06-29T08:27:06Z</time>
      </trkpt>
      <trkpt lat="47.16256" lon="4.92552">
        <ele>396.2</ele>
        <time>2024-06-29T08:27:07Z</time>
      </trkpt>
      <trkpt lat="47.16255" lon="4.92553">
        <ele>396.3</ele>
        <time>2024-06-29T08:27:08Z</time>
      </trkpt>
      <trkpt lat="47.16255" lon="4.92554">
        <ele>396.3</ele>
        <time>2024-06-29T08:27:09Z</time>
      </trkpt>
      <trkpt lat="47.16254" lon="4.92555">
        <ele>396.6</ele>
        <time>2024-06-29T08:27:10Z</time>
      </trkpt>
      <trkpt lat="47.16253" lon="4.92556">
        <ele>396.6</ele>
        <time>2024-06-29T08:27:11Z</time>
      </trkpt>
      <trkpt lat="47.16252" lon="4.92557">
        <ele>396.6</ele>
        <time>2024-06-29T08:27:12Z</time>
      </trkpt>
      <trkpt lat="47.16251" lon="4.92558">
        <ele>396.6</ele>
        <time>2024-06-29T08:27:13Z</time>
      </trkpt>
      <trkpt lat="47.1625" lon="4.92559">
        <ele>397</ele>
        <time>2024-06-29T08:27:14Z</time>
      </trkpt>
      <trkpt lat="47.16249" lon="4.9256">
        <ele>396.6</ele>
        <time>2024-06-29T08:27:15Z</time>
      </trkpt>
      <trkpt lat="47.16248" lon="4.92561">
        <ele>396.4</ele>
        <time>2024-06-29T08:27:16Z</time>
      </trkpt>
      <trkpt lat="47.16247" lon="4.92562">
        <ele>395.7</ele>
        <time>2024-06-29T08:27:17Z</time>
      </trkpt>
      <trkpt lat="47.16246" lon="4.92563">
        <ele>394.8</ele>
        <time>2024-06-29T08:27:18Z</time>
      </trkpt>
      <trkpt lat="47.16245" lon="4.92564">
        <ele>393.9</ele>
        <time>2024-06-29T08:27:19Z</time>
      </trkpt>
      <trkpt lat="47.16244" lon="4.92564">
        <ele>394.1</ele>
        <time>2024-06-29T08:27:20Z</time>
      </trkpt>
      <trkpt lat="47.16243" lon="4.92565">
        <ele>393.6</ele>
        <time>2024-06-29T08:27:21Z</time>
      </trkpt>
      <trkpt lat="47.16242" lon="4.92565">
        <ele>392.7</ele>
        <time>2024-06-29T08:27:22Z</time>
      </trkpt>
      <trkpt lat="47.16241" lon="4.92566">
        <ele>393.3</ele>
        <time>2024-06-29T08:27:23Z</time>
      </trkpt>
      <trkpt lat="47.1624" lon="4.92567">
        <ele>393.2</ele>
        <time>2024-06-29T08:27:25Z</time>
      </trkpt>
      <trkpt lat="47.16239" lon="4.92568">
        <ele>391.8</ele>
        <time>2024-06-29T08:27:26Z</time>
      </trkpt>
      <trkpt lat="47.16238" lon="4.92569">
        <ele>390.7</ele>
        <time>2024-06-29T08:27:27Z</time>
      </trkpt>
      <trkpt lat="47.16237" lon="4.92569">
        <ele>392.3</ele>
        <time>2024-06-29T08:27:28Z</time>
      </trkpt>
      <trkpt lat="47.16236" lon="4.9257">
        <ele>393.4</ele>
        <time>2024-06-29T08:27:29Z</time>
      </trkpt>
      <trkpt lat="47.16234" lon="4.92571">
        <ele>393.4</ele>
        <time>2024-06-29T08:27:30Z</time>
      </trkpt>
      <trkpt lat="47.16233" lon="4.92572">
        <ele>394.4</ele>
        <time>2024-06-29T08:27:31Z</time>
      </trkpt>
      <trkpt lat="47.16232" lon="4.92574">
        <ele>395.4</ele>
        <time>2024-06-29T08:27:32Z</time>
      </trkpt>
      <trkpt lat="47.1623" lon="4.92575">
        <ele>393.5</ele>
        <time>2024-06-29T08:27:34Z</time>
      </trkpt>
      <trkpt lat="47.16229" lon="4.92576">
        <ele>392.9</ele>
        <time>2024-06-29T08:27:35Z</time>
      </trkpt>
      <trkpt lat="47.16228" lon="4.92577">
        <ele>393.4</ele>
        <time>2024-06-29T08:27:36Z</time>
      </trkpt>
      <trkpt lat="47.16227" lon="4.92578">
        <ele>394.7</ele>
        <time>2024-06-29T08:27:37Z</time>
      </trkpt>
      <trkpt lat="47.16225" lon="4.92579">
        <ele>394.7</ele>
        <time>2024-06-29T08:27:38Z</time>
      </trkpt>
      <trkpt lat="47.16225" lon="4.9258">
        <ele>394.5</ele>
        <time>2024-06-29T08:27:39Z</time>
      </trkpt>
      <trkpt lat="47.16224" lon="4.92582">
        <ele>395.1</ele>
        <time>2024-06-29T08:27:41Z</time>
      </trkpt>
      <trkpt lat="47.16223" lon="4.92584">
        <ele>395.8</ele>
        <time>2024-06-29T08:27:43Z</time>
      </trkpt>
      <trkpt lat="47.16222" lon="4.92585">
        <ele>395.9</ele>
        <time>2024-06-29T08:27:45Z</time>
      </trkpt>
      <trkpt lat="47.16221" lon="4.92586">
        <ele>395.5</ele>
        <time>2024-06-29T08:27:46Z</time>
      </trkpt>
      <trkpt lat="47.16221" lon="4.92587">
        <ele>395.6</ele>
        <time>2024-06-29T08:27:47Z</time>
      </trkpt>
      <trkpt lat="47.16219" lon="4.92589">
        <ele>395.6</ele>
        <time>2024-06-29T08:27:49Z</time>
      </trkpt>
      <trkpt lat="47.16218" lon="4.92591">
        <ele>395</ele>
        <time>2024-06-29T08:27:51Z</time>
      </trkpt>
      <trkpt lat="47.16217" lon="4.92591">
        <ele>394.8</ele>
        <time>2024-06-29T08:27:52Z</time>
      </trkpt>
      <trkpt lat="47.16217" lon="4.92592">
        <ele>395.1</ele>
        <time>2024-06-29T08:27:53Z</time>
      </trkpt>
      <trkpt lat="47.16216" lon="4.92593">
        <ele>395.1</ele>
        <time>2024-06-29T08:27:54Z</time>
      </trkpt>
      <trkpt lat="47.16215" lon="4.92594">
        <ele>395</ele>
        <time>2024-06-29T08:27:55Z</time>
      </trkpt>
      <trkpt lat="47.16214" lon="4.92594">
        <ele>395</ele>
        <time>2024-06-29T08:27:56Z</time>
      </trkpt>
      <trkpt lat="47.16213" lon="4.92595">
        <ele>395.1</ele>
        <time>2024-06-29T08:27:57Z</time>
      </trkpt>
      <trkpt lat="47.16213" lon="4.92596">
        <ele>395.2</ele>
        <time>2024-06-29T08:27:58Z</time>
      </trkpt>
      <trkpt lat="47.16212" lon="4.92597">
        <ele>395.2</ele>
        <time>2024-06-29T08:27:59Z</time>
      </trkpt>
      <trkpt lat="47.16211" lon="4.92598">
        <ele>396</ele>
        <time>2024-06-29T08:28:00Z</time>
      </trkpt>
      <trkpt lat="47.1621" lon="4.92599">
        <ele>396.3</ele>
        <time>2024-06-29T08:28:01Z</time>
      </trkpt>
      <trkpt lat="47.16209" lon="4.926">
        <ele>397</ele>
        <time>2024-06-29T08:28:02Z</time>
      </trkpt>
      <trkpt lat="47.16208" lon="4.926">
        <ele>397.4</ele>
        <time>2024-06-29T08:28:03Z</time>
      </trkpt>
      <trkpt lat="47.16207" lon="4.92601">
        <ele>398.4</ele>
        <time>2024-06-29T08:28:05Z</time>
      </trkpt>
      <trkpt lat="47.16206" lon="4.92602">
        <ele>398.2</ele>
        <time>2024-06-29T08:28:06Z</time>
      </trkpt>
      <trkpt lat="47.16205" lon="4.92603">
        <ele>399.7</ele>
        <time>2024-06-29T08:28:08Z</time>
      </trkpt>
      <trkpt lat="47.16204" lon="4.92605">
        <ele>397.8</ele>
        <time>2024-06-29T08:28:10Z</time>
      </trkpt>
      <trkpt lat="47.16204" lon="4.92607">
        <ele>396.6</ele>
        <time>2024-06-29T08:28:11Z</time>
      </trkpt>
      <trkpt lat="47.16203" lon="4.92608">
        <ele>396.7</ele>
        <time>2024-06-29T08:28:12Z</time>
      </trkpt>
      <trkpt lat="47.16203" lon="4.9261">
        <ele>397.7</ele>
        <time>2024-06-29T08:28:14Z</time>
      </trkpt>
      <trkpt lat="47.16203" lon="4.92613">
        <ele>396.9</ele>
        <time>2024-06-29T08:28:16Z</time>
      </trkpt>
      <trkpt lat="47.16203" lon="4.92614">
        <ele>396.9</ele>
        <time>2024-06-29T08:28:17Z</time>
      </trkpt>
      <trkpt lat="47.16202" lon="4.92615">
        <ele>397.1</ele>
        <time>2024-06-29T08:28:18Z</time>
      </trkpt>
      <trkpt lat="47.16202" lon="4.92616">
        <ele>397</ele>
        <time>2024-06-29T08:28:19Z</time>
      </trkpt>
      <trkpt lat="47.16201" lon="4.92618">
        <ele>397</ele>
        <time>2024-06-29T08:28:20Z</time>
      </trkpt>
      <trkpt lat="47.162" lon="4.92619">
        <ele>397.1</ele>
        <time>2024-06-29T08:28:21Z</time>
      </trkpt>
      <trkpt lat="47.162" lon="4.9262">
        <ele>396.8</ele>
        <time>2024-06-29T08:28:22Z</time>
      </trkpt>
      <trkpt lat="47.16199" lon="4.92621">
        <ele>397.5</ele>
        <time>2024-06-29T08:28:23Z</time>
      </trkpt>
      <trkpt lat="47.16199" lon="4.92623">
        <ele>398.6</ele>
        <time>2024-06-29T08:28:25Z</time>
      </trkpt>
      <trkpt lat="47.16199" lon="4.92624">
        <ele>398.9</ele>
        <time>2024-06-29T08:28:26Z</time>
      </trkpt>
      <trkpt lat="47.16198" lon="4.92626">
        <ele>398.3</ele>
        <time>2024-06-29T08:28:27Z</time>
      </trkpt>
      <trkpt lat="47.16197" lon="4.92627">
        <ele>398.4</ele>
        <time>2024-06-29T08:28:28Z</time>
      </trkpt>
      <trkpt lat="47.16197" lon="4.92629">
        <ele>398.3</ele>
        <time>2024-06-29T08:28:29Z</time>
      </trkpt>
      <trkpt lat="47.16196" lon="4.9263">
        <ele>398</ele>
        <time>2024-06-29T08:28:30Z</time>
      </trkpt>
      <trkpt lat="47.16196" lon="4.92631">
        <ele>398</ele>
        <time>2024-06-29T08:28:31Z</time>
      </trkpt>
      <trkpt lat="47.16195" lon="4.92633">
        <ele>397.9</ele>
        <time>2024-06-29T08:28:32Z</time>
      </trkpt>
      <trkpt lat="47.16195" lon="4.92634">
        <ele>397.1</ele>
        <time>2024-06-29T08:28:33Z</time>
      </trkpt>
      <trkpt lat="47.16195" lon="4.92636">
        <ele>396.9</ele>
        <time>2024-06-29T08:28:34Z</time>
      </trkpt>
      <trkpt lat="47.16195" lon="4.92637">
        <ele>397.3</ele>
        <time>2024-06-29T08:28:35Z</time>
      </trkpt>
      <trkpt lat="47.16194" lon="4.92638">
        <ele>397.5</ele>
        <time>2024-06-29T08:28:36Z</time>
      </trkpt>
      <trkpt lat="47.16194" lon="4.9264">
        <ele>397.6</ele>
        <time>2024-06-29T08:28:37Z</time>
      </trkpt>
      <trkpt lat="47.16193" lon="4.92641">
        <ele>397.9</ele>
        <time>2024-06-29T08:28:38Z</time>
      </trkpt>
      <trkpt lat="47.16193" lon="4.92643">
        <ele>397.7</ele>
        <time>2024-06-29T08:28:39Z</time>
      </trkpt>
      <trkpt lat="47.16192" lon="4.92645">
        <ele>397.4</ele>
        <time>2024-06-29T08:28:40Z</time>
      </trkpt>
      <trkpt lat="47.16192" lon="4.92647">
        <ele>396.5</ele>
        <time>2024-06-29T08:28:41Z</time>
      </trkpt>
      <trkpt lat="47.16192" lon="4.92648">
        <ele>397.1</ele>
        <time>2024-06-29T08:28:42Z</time>
      </trkpt>
      <trkpt lat="47.16191" lon="4.9265">
        <ele>397.3</ele>
        <time>2024-06-29T08:28:43Z</time>
      </trkpt>
      <trkpt lat="47.16191" lon="4.92651">
        <ele>397.6</ele>
        <time>2024-06-29T08:28:44Z</time>
      </trkpt>
      <trkpt lat="47.1619" lon="4.92653">
        <ele>397.7</ele>
        <time>2024-06-29T08:28:45Z</time>
      </trkpt>
      <trkpt lat="47.1619" lon="4.92654">
        <ele>397.7</ele>
        <time>2024-06-29T08:28:46Z</time>
      </trkpt>
      <trkpt lat="47.1619" lon="4.92655">
        <ele>398</ele>
        <time>2024-06-29T08:28:47Z</time>
      </trkpt>
      <trkpt lat="47.16189" lon="4.92657">
        <ele>398</ele>
        <time>2024-06-29T08:28:49Z</time>
      </trkpt>
      <trkpt lat="47.16187" lon="4.92659">
        <ele>398.1</ele>
        <time>2024-06-29T08:28:51Z</time>
      </trkpt>
      <trkpt lat="47.16187" lon="4.9266">
        <ele>398.2</ele>
        <time>2024-06-29T08:28:52Z</time>
      </trkpt>
      <trkpt lat="47.16186" lon="4.92661">
        <ele>398.6</ele>
        <time>2024-06-29T08:28:53Z</time>
      </trkpt>
      <trkpt lat="47.16185" lon="4.92662">
        <ele>398.8</ele>
        <time>2024-06-29T08:28:54Z</time>
      </trkpt>
      <trkpt lat="47.16185" lon="4.92664">
        <ele>398.8</ele>
        <time>2024-06-29T08:28:55Z</time>
      </trkpt>
      <trkpt lat="47.16185" lon="4.92665">
        <ele>398.9</ele>
        <time>2024-06-29T08:28:56Z</time>
      </trkpt>
      <trkpt lat="47.16184" lon="4.92666">
        <ele>399</ele>
        <time>2024-06-29T08:28:57Z</time>
      </trkpt>
      <trkpt lat="47.16184" lon="4.92668">
        <ele>399.2</ele>
        <time>2024-06-29T08:28:58Z</time>
      </trkpt>
      <trkpt lat="47.16184" lon="4.92669">
        <ele>399.4</ele>
        <time>2024-06-29T08:28:59Z</time>
      </trkpt>
      <trkpt lat="47.16184" lon="4.9267">
        <ele>399.4</ele>
        <time>2024-06-29T08:29:00Z</time>
      </trkpt>
      <trkpt lat="47.16184" lon="4.92672">
        <ele>399.4</ele>
        <time>2024-06-29T08:29:01Z</time>
      </trkpt>
      <trkpt lat="47.16183" lon="4.92673">
        <ele>399.6</ele>
        <time>2024-06-29T08:29:02Z</time>
      </trkpt>
      <trkpt lat="47.16183" lon="4.92675">
        <ele>399.4</ele>
        <time>2024-06-29T08:29:03Z</time>
      </trkpt>
      <trkpt lat="47.16183" lon="4.92676">
        <ele>399.6</ele>
        <time>2024-06-29T08:29:04Z</time>
      </trkpt>
      <trkpt lat="47.16183" lon="4.92678">
        <ele>399.8</ele>
        <time>2024-06-29T08:29:05Z</time>
      </trkpt>
      <trkpt lat="47.16183" lon="4.92679">
        <ele>400.2</ele>
        <time>2024-06-29T08:29:06Z</time>
      </trkpt>
      <trkpt lat="47.16182" lon="4.9268">
        <ele>400.2</ele>
        <time>2024-06-29T08:29:07Z</time>
      </trkpt>
      <trkpt lat="47.16182" lon="4.92682">
        <ele>399.9</ele>
        <time>2024-06-29T08:29:08Z</time>
      </trkpt>
      <trkpt lat="47.16182" lon="4.92683">
        <ele>400.1</ele>
        <time>2024-06-29T08:29:09Z</time>
      </trkpt>
      <trkpt lat="47.16182" lon="4.92685">
        <ele>399.9</ele>
        <time>2024-06-29T08:29:10Z</time>
      </trkpt>
      <trkpt lat="47.16182" lon="4.92687">
        <ele>399.7</ele>
        <time>2024-06-29T08:29:11Z</time>
      </trkpt>
      <trkpt lat="47.16182" lon="4.92688">
        <ele>399.7</ele>
        <time>2024-06-29T08:29:12Z</time>
      </trkpt>
      <trkpt lat="47.16182" lon="4.9269">
        <ele>399.7</ele>
        <time>2024-06-29T08:29:13Z</time>
      </trkpt>
      <trkpt lat="47.16182" lon="4.92691">
        <ele>399.9</ele>
        <time>2024-06-29T08:29:14Z</time>
      </trkpt>
      <trkpt lat="47.16182" lon="4.92692">
        <ele>399.9</ele>
        <time>2024-06-29T08:29:15Z</time>
      </trkpt>
      <trkpt lat="47.16182" lon="4.92694">
        <ele>400</ele>
        <time>2024-06-29T08:29:16Z</time>
      </trkpt>
      <trkpt lat="47.16182" lon="4.92695">
        <ele>400</ele>
        <time>2024-06-29T08:29:17Z</time>
      </trkpt>
      <trkpt lat="47.16182" lon="4.92697">
        <ele>400</ele>
        <time>2024-06-29T08:29:18Z</time>
      </trkpt>
      <trkpt lat="47.16182" lon="4.92698">
        <ele>400.3</ele>
        <time>2024-06-29T08:29:19Z</time>
      </trkpt>
      <trkpt lat="47.16182" lon="4.927">
        <ele>400.1</ele>
        <time>2024-06-29T08:29:20Z</time>
      </trkpt>
      <trkpt lat="47.16182" lon="4.92701">
        <ele>399.5</ele>
        <time>2024-06-29T08:29:21Z</time>
      </trkpt>
      <trkpt lat="47.16182" lon="4.92703">
        <ele>399.4</ele>
        <time>2024-06-29T08:29:22Z</time>
      </trkpt>
      <trkpt lat="47.16182" lon="4.92705">
        <ele>399.3</ele>
        <time>2024-06-29T08:29:23Z</time>
      </trkpt>
      <trkpt lat="47.16182" lon="4.92706">
        <ele>399.4</ele>
        <time>2024-06-29T08:29:24Z</time>
      </trkpt>
      <trkpt lat="47.16183" lon="4.92708">
        <ele>399.6</ele>
        <time>2024-06-29T08:29:25Z</time>
      </trkpt>
      <trkpt lat="47.16183" lon="4.92709">
        <ele>399.8</ele>
        <time>2024-06-29T08:29:26Z</time>
      </trkpt>
      <trkpt lat="47.16183" lon="4.9271">
        <ele>400.3</ele>
        <time>2024-06-29T08:29:27Z</time>
      </trkpt>
      <trkpt lat="47.16182" lon="4.92712">
        <ele>400.6</ele>
        <time>2024-06-29T08:29:28Z</time>
      </trkpt>
      <trkpt lat="47.16182" lon="4.92714">
        <ele>402</ele>
        <time>2024-06-29T08:29:30Z</time>
      </trkpt>
      <trkpt lat="47.16182" lon="4.92716">
        <ele>402.1</ele>
        <time>2024-06-29T08:29:31Z</time>
      </trkpt>
      <trkpt lat="47.16181" lon="4.92717">
        <ele>402.4</ele>
        <time>2024-06-29T08:29:32Z</time>
      </trkpt>
      <trkpt lat="47.16181" lon="4.92718">
        <ele>402.2</ele>
        <time>2024-06-29T08:29:33Z</time>
      </trkpt>
      <trkpt lat="47.16181" lon="4.9272">
        <ele>402.4</ele>
        <time>2024-06-29T08:29:34Z</time>
      </trkpt>
      <trkpt lat="47.16181" lon="4.92721">
        <ele>402.5</ele>
        <time>2024-06-29T08:29:35Z</time>
      </trkpt>
      <trkpt lat="47.16181" lon="4.92723">
        <ele>402.7</ele>
        <time>2024-06-29T08:29:36Z</time>
      </trkpt>
      <trkpt lat="47.16181" lon="4.92724">
        <ele>402.6</ele>
        <time>2024-06-29T08:29:37Z</time>
      </trkpt>
      <trkpt lat="47.16181" lon="4.92726">
        <ele>402.6</ele>
        <time>2024-06-29T08:29:38Z</time>
      </trkpt>
      <trkpt lat="47.16181" lon="4.92727">
        <ele>403.1</ele>
        <time>2024-06-29T08:29:39Z</time>
      </trkpt>
      <trkpt lat="47.1618" lon="4.92729">
        <ele>402.9</ele>
        <time>2024-06-29T08:29:40Z</time>
      </trkpt>
      <trkpt lat="47.1618" lon="4.9273">
        <ele>402.8</ele>
        <time>2024-06-29T08:29:41Z</time>
      </trkpt>
      <trkpt lat="47.1618" lon="4.92732">
        <ele>402.7</ele>
        <time>2024-06-29T08:29:42Z</time>
      </trkpt>
      <trkpt lat="47.16179" lon="4.92733">
        <ele>403.7</ele>
        <time>2024-06-29T08:29:43Z</time>
      </trkpt>
      <trkpt lat="47.16179" lon="4.92734">
        <ele>403.5</ele>
        <time>2024-06-29T08:29:44Z</time>
      </trkpt>
      <trkpt lat="47.16179" lon="4.92736">
        <ele>403.6</ele>
        <time>2024-06-29T08:29:45Z</time>
      </trkpt>
      <trkpt lat="47.16179" lon="4.92737">
        <ele>403.2</ele>
        <time>2024-06-29T08:29:46Z</time>
      </trkpt>
      <trkpt lat="47.16179" lon="4.92738">
        <ele>403.4</ele>
        <time>2024-06-29T08:29:47Z</time>
      </trkpt>
      <trkpt lat="47.16178" lon="4.9274">
        <ele>403.4</ele>
        <time>2024-06-29T08:29:48Z</time>
      </trkpt>
      <trkpt lat="47.16178" lon="4.92741">
        <ele>403.6</ele>
        <time>2024-06-29T08:29:49Z</time>
      </trkpt>
      <trkpt lat="47.16178" lon="4.92743">
        <ele>403.6</ele>
        <time>2024-06-29T08:29:50Z</time>
      </trkpt>
      <trkpt lat="47.16178" lon="4.92744">
        <ele>403.7</ele>
        <time>2024-06-29T08:29:51Z</time>
      </trkpt>
      <trkpt lat="47.16178" lon="4.92746">
        <ele>403.6</ele>
        <time>2024-06-29T08:29:52Z</time>
      </trkpt>
      <trkpt lat="47.16178" lon="4.92747">
        <ele>403.7</ele>
        <time>2024-06-29T08:29:53Z</time>
      </trkpt>
      <trkpt lat="47.16177" lon="4.92749">
        <ele>403.5</ele>
        <time>2024-06-29T08:29:54Z</time>
      </trkpt>
      <trkpt lat="47.16177" lon="4.9275">
        <ele>403.8</ele>
        <time>2024-06-29T08:29:55Z</time>
      </trkpt>
      <trkpt lat="47.16177" lon="4.92752">
        <ele>404.1</ele>
        <time>2024-06-29T08:29:56Z</time>
      </trkpt>
      <trkpt lat="47.16177" lon="4.92753">
        <ele>404.4</ele>
        <time>2024-06-29T08:29:57Z</time>
      </trkpt>
      <trkpt lat="47.16176" lon="4.92754">
        <ele>404.3</ele>
        <time>2024-06-29T08:29:58Z</time>
      </trkpt>
      <trkpt lat="47.16176" lon="4.92756">
        <ele>404.3</ele>
        <time>2024-06-29T08:29:59Z</time>
      </trkpt>
      <trkpt lat="47.16176" lon="4.92757">
        <ele>404.5</ele>
        <time>2024-06-29T08:30:00Z</time>
      </trkpt>
      <trkpt lat="47.16176" lon="4.92759">
        <ele>404.7</ele>
        <time>2024-06-29T08:30:01Z</time>
      </trkpt>
      <trkpt lat="47.16175" lon="4.9276">
        <ele>404.9</ele>
        <time>2024-06-29T08:30:02Z</time>
      </trkpt>
      <trkpt lat="47.16174" lon="4.92762">
        <ele>405.5</ele>
        <time>2024-06-29T08:30:04Z</time>
      </trkpt>
      <trkpt lat="47.16174" lon="4.92763">
        <ele>406.1</ele>
        <time>2024-06-29T08:30:05Z</time>
      </trkpt>
      <trkpt lat="47.16174" lon="4.92765">
        <ele>405.7</ele>
        <time>2024-06-29T08:30:06Z</time>
      </trkpt>
      <trkpt lat="47.16173" lon="4.92766">
        <ele>405.8</ele>
        <time>2024-06-29T08:30:07Z</time>
      </trkpt>
      <trkpt lat="47.16173" lon="4.92767">
        <ele>405.7</ele>
        <time>2024-06-29T08:30:08Z</time>
      </trkpt>
      <trkpt lat="47.16173" lon="4.92769">
        <ele>405.5</ele>
        <time>2024-06-29T08:30:09Z</time>
      </trkpt>
      <trkpt lat="47.16172" lon="4.9277">
        <ele>405.1</ele>
        <time>2024-06-29T08:30:10Z</time>
      </trkpt>
      <trkpt lat="47.16172" lon="4.92772">
        <ele>404.8</ele>
        <time>2024-06-29T08:30:11Z</time>
      </trkpt>
      <trkpt lat="47.16172" lon="4.92773">
        <ele>404.5</ele>
        <time>2024-06-29T08:30:12Z</time>
      </trkpt>
      <trkpt lat="47.16171" lon="4.92775">
        <ele>404.6</ele>
        <time>2024-06-29T08:30:13Z</time>
      </trkpt>
      <trkpt lat="47.16171" lon="4.92776">
        <ele>404.2</ele>
        <time>2024-06-29T08:30:14Z</time>
      </trkpt>
      <trkpt lat="47.16171" lon="4.92778">
        <ele>404.7</ele>
        <time>2024-06-29T08:30:15Z</time>
      </trkpt>
      <trkpt lat="47.1617" lon="4.92779">
        <ele>405</ele>
        <time>2024-06-29T08:30:16Z</time>
      </trkpt>
      <trkpt lat="47.1617" lon="4.92781">
        <ele>405</ele>
        <time>2024-06-29T08:30:17Z</time>
      </trkpt>
      <trkpt lat="47.1617" lon="4.92782">
        <ele>404.8</ele>
        <time>2024-06-29T08:30:18Z</time>
      </trkpt>
      <trkpt lat="47.16169" lon="4.92783">
        <ele>404.8</ele>
        <time>2024-06-29T08:30:19Z</time>
      </trkpt>
      <trkpt lat="47.16169" lon="4.92785">
        <ele>404.7</ele>
        <time>2024-06-29T08:30:20Z</time>
      </trkpt>
      <trkpt lat="47.16169" lon="4.92786">
        <ele>404.7</ele>
        <time>2024-06-29T08:30:21Z</time>
      </trkpt>
      <trkpt lat="47.16168" lon="4.92788">
        <ele>404.7</ele>
        <time>2024-06-29T08:30:22Z</time>
      </trkpt>
      <trkpt lat="47.16168" lon="4.92789">
        <ele>404.3</ele>
        <time>2024-06-29T08:30:23Z</time>
      </trkpt>
      <trkpt lat="47.16168" lon="4.92791">
        <ele>403.9</ele>
        <time>2024-06-29T08:30:24Z</time>
      </trkpt>
      <trkpt lat="47.16167" lon="4.92792">
        <ele>403.8</ele>
        <time>2024-06-29T08:30:25Z</time>
      </trkpt>
      <trkpt lat="47.16167" lon="4.92794">
        <ele>403.9</ele>
        <time>2024-06-29T08:30:26Z</time>
      </trkpt>
      <trkpt lat="47.16166" lon="4.92796">
        <ele>404.1</ele>
        <time>2024-06-29T08:30:27Z</time>
      </trkpt>
      <trkpt lat="47.16166" lon="4.92797">
        <ele>404.4</ele>
        <time>2024-06-29T08:30:28Z</time>
      </trkpt>
      <trkpt lat="47.16165" lon="4.92798">
        <ele>404.2</ele>
        <time>2024-06-29T08:30:29Z</time>
      </trkpt>
      <trkpt lat="47.16165" lon="4.92801">
        <ele>404.4</ele>
        <time>2024-06-29T08:30:31Z</time>
      </trkpt>
      <trkpt lat="47.16164" lon="4.92802">
        <ele>404.3</ele>
        <time>2024-06-29T08:30:33Z</time>
      </trkpt>
      <trkpt lat="47.16163" lon="4.92804">
        <ele>404.4</ele>
        <time>2024-06-29T08:30:35Z</time>
      </trkpt>
      <trkpt lat="47.16163" lon="4.92806">
        <ele>403.9</ele>
        <time>2024-06-29T08:30:45Z</time>
      </trkpt>
      <trkpt lat="47.16163" lon="4.92807">
        <ele>404.1</ele>
        <time>2024-06-29T08:30:47Z</time>
      </trkpt>
      <trkpt lat="47.16162" lon="4.92808">
        <ele>404.1</ele>
        <time>2024-06-29T08:30:49Z</time>
      </trkpt>
      <trkpt lat="47.16162" lon="4.9281">
        <ele>403.8</ele>
        <time>2024-06-29T08:30:51Z</time>
      </trkpt>
      <trkpt lat="47.16161" lon="4.92812">
        <ele>403.8</ele>
        <time>2024-06-29T08:30:53Z</time>
      </trkpt>
      <trkpt lat="47.1616" lon="4.92814">
        <ele>404</ele>
        <time>2024-06-29T08:30:55Z</time>
      </trkpt>
      <trkpt lat="47.16159" lon="4.92815">
        <ele>404</ele>
        <time>2024-06-29T08:30:56Z</time>
      </trkpt>
      <trkpt lat="47.16159" lon="4.92817">
        <ele>404</ele>
        <time>2024-06-29T08:30:57Z</time>
      </trkpt>
      <trkpt lat="47.16158" lon="4.92819">
        <ele>403.9</ele>
        <time>2024-06-29T08:30:59Z</time>
      </trkpt>
      <trkpt lat="47.16158" lon="4.92821">
        <ele>403.6</ele>
        <time>2024-06-29T08:31:01Z</time>
      </trkpt>
      <trkpt lat="47.16157" lon="4.92824">
        <ele>403.8</ele>
        <time>2024-06-29T08:31:03Z</time>
      </trkpt>
      <trkpt lat="47.16157" lon="4.92826">
        <ele>403.8</ele>
        <time>2024-06-29T08:31:05Z</time>
      </trkpt>
      <trkpt lat="47.16157" lon="4.92828">
        <ele>403.8</ele>
        <time>2024-06-29T08:31:06Z</time>
      </trkpt>
      <trkpt lat="47.16156" lon="4.92829">
        <ele>403.9</ele>
        <time>2024-06-29T08:31:07Z</time>
      </trkpt>
      <trkpt lat="47.16156" lon="4.92831">
        <ele>403.7</ele>
        <time>2024-06-29T08:31:09Z</time>
      </trkpt>
      <trkpt lat="47.16155" lon="4.92833">
        <ele>403.8</ele>
        <time>2024-06-29T08:31:10Z</time>
      </trkpt>
      <trkpt lat="47.16155" lon="4.92834">
        <ele>403.7</ele>
        <time>2024-06-29T08:31:11Z</time>
      </trkpt>
      <trkpt lat="47.16154" lon="4.92835">
        <ele>403.9</ele>
        <time>2024-06-29T08:31:12Z</time>
      </trkpt>
      <trkpt lat="47.16154" lon="4.92836">
        <ele>404.3</ele>
        <time>2024-06-29T08:31:13Z</time>
      </trkpt>
      <trkpt lat="47.16154" lon="4.92837">
        <ele>404.3</ele>
        <time>2024-06-29T08:31:14Z</time>
      </trkpt>
      <trkpt lat="47.16153" lon="4.92839">
        <ele>404.1</ele>
        <time>2024-06-29T08:31:15Z</time>
      </trkpt>
      <trkpt lat="47.16153" lon="4.9284">
        <ele>404.1</ele>
        <time>2024-06-29T08:31:16Z</time>
      </trkpt>
      <trkpt lat="47.16152" lon="4.92841">
        <ele>404.1</ele>
        <time>2024-06-29T08:31:17Z</time>
      </trkpt>
      <trkpt lat="47.16152" lon="4.92842">
        <ele>404.2</ele>
        <time>2024-06-29T08:31:18Z</time>
      </trkpt>
      <trkpt lat="47.16151" lon="4.92844">
        <ele>404.4</ele>
        <time>2024-06-29T08:31:19Z</time>
      </trkpt>
      <trkpt lat="47.16151" lon="4.92845">
        <ele>404.6</ele>
        <time>2024-06-29T08:31:20Z</time>
      </trkpt>
      <trkpt lat="47.1615" lon="4.92846">
        <ele>404.5</ele>
        <time>2024-06-29T08:31:21Z</time>
      </trkpt>
      <trkpt lat="47.1615" lon="4.92847">
        <ele>404.4</ele>
        <time>2024-06-29T08:31:22Z</time>
      </trkpt>
      <trkpt lat="47.16149" lon="4.92849">
        <ele>404.5</ele>
        <time>2024-06-29T08:31:23Z</time>
      </trkpt>
      <trkpt lat="47.16149" lon="4.9285">
        <ele>404.4</ele>
        <time>2024-06-29T08:31:24Z</time>
      </trkpt>
      <trkpt lat="47.16149" lon="4.92851">
        <ele>404.5</ele>
        <time>2024-06-29T08:31:25Z</time>
      </trkpt>
      <trkpt lat="47.16148" lon="4.92852">
        <ele>404.5</ele>
        <time>2024-06-29T08:31:26Z</time>
      </trkpt>
      <trkpt lat="47.16148" lon="4.92854">
        <ele>404.4</ele>
        <time>2024-06-29T08:31:27Z</time>
      </trkpt>
      <trkpt lat="47.16147" lon="4.92855">
        <ele>404.4</ele>
        <time>2024-06-29T08:31:28Z</time>
      </trkpt>
      <trkpt lat="47.16147" lon="4.92856">
        <ele>404</ele>
        <time>2024-06-29T08:31:29Z</time>
      </trkpt>
      <trkpt lat="47.16146" lon="4.92858">
        <ele>403.5</ele>
        <time>2024-06-29T08:31:30Z</time>
      </trkpt>
      <trkpt lat="47.16146" lon="4.92859">
        <ele>403.4</ele>
        <time>2024-06-29T08:31:31Z</time>
      </trkpt>
      <trkpt lat="47.16145" lon="4.9286">
        <ele>403.6</ele>
        <time>2024-06-29T08:31:32Z</time>
      </trkpt>
      <trkpt lat="47.16145" lon="4.92861">
        <ele>403.5</ele>
        <time>2024-06-29T08:31:33Z</time>
      </trkpt>
      <trkpt lat="47.16145" lon="4.92863">
        <ele>403.5</ele>
        <time>2024-06-29T08:31:34Z</time>
      </trkpt>
      <trkpt lat="47.16144" lon="4.92864">
        <ele>403.4</ele>
        <time>2024-06-29T08:31:35Z</time>
      </trkpt>
      <trkpt lat="47.16144" lon="4.92865">
        <ele>403.1</ele>
        <time>2024-06-29T08:31:36Z</time>
      </trkpt>
      <trkpt lat="47.16144" lon="4.92867">
        <ele>403</ele>
        <time>2024-06-29T08:31:37Z</time>
      </trkpt>
      <trkpt lat="47.16143" lon="4.92868">
        <ele>403.1</ele>
        <time>2024-06-29T08:31:38Z</time>
      </trkpt>
      <trkpt lat="47.16143" lon="4.92869">
        <ele>403.1</ele>
        <time>2024-06-29T08:31:39Z</time>
      </trkpt>
      <trkpt lat="47.16143" lon="4.92871">
        <ele>403.1</ele>
        <time>2024-06-29T08:31:40Z</time>
      </trkpt>
      <trkpt lat="47.16142" lon="4.92872">
        <ele>403.2</ele>
        <time>2024-06-29T08:31:41Z</time>
      </trkpt>
      <trkpt lat="47.16142" lon="4.92874">
        <ele>403.1</ele>
        <time>2024-06-29T08:31:42Z</time>
      </trkpt>
      <trkpt lat="47.16141" lon="4.92875">
        <ele>403.2</ele>
        <time>2024-06-29T08:31:43Z</time>
      </trkpt>
      <trkpt lat="47.16141" lon="4.92877">
        <ele>403</ele>
        <time>2024-06-29T08:31:44Z</time>
      </trkpt>
      <trkpt lat="47.16141" lon="4.92878">
        <ele>402.8</ele>
        <time>2024-06-29T08:31:45Z</time>
      </trkpt>
      <trkpt lat="47.1614" lon="4.92879">
        <ele>402.8</ele>
        <time>2024-06-29T08:31:46Z</time>
      </trkpt>
      <trkpt lat="47.1614" lon="4.92881">
        <ele>402.6</ele>
        <time>2024-06-29T08:31:47Z</time>
      </trkpt>
      <trkpt lat="47.1614" lon="4.92882">
        <ele>402.5</ele>
        <time>2024-06-29T08:31:48Z</time>
      </trkpt>
      <trkpt lat="47.16139" lon="4.92884">
        <ele>402.4</ele>
        <time>2024-06-29T08:31:49Z</time>
      </trkpt>
      <trkpt lat="47.16139" lon="4.92885">
        <ele>402.4</ele>
        <time>2024-06-29T08:31:50Z</time>
      </trkpt>
      <trkpt lat="47.16139" lon="4.92887">
        <ele>402.5</ele>
        <time>2024-06-29T08:31:51Z</time>
      </trkpt>
      <trkpt lat="47.16138" lon="4.92888">
        <ele>402.2</ele>
        <time>2024-06-29T08:31:52Z</time>
      </trkpt>
      <trkpt lat="47.16138" lon="4.92889">
        <ele>402.2</ele>
        <time>2024-06-29T08:31:53Z</time>
      </trkpt>
      <trkpt lat="47.16137" lon="4.92891">
        <ele>402.1</ele>
        <time>2024-06-29T08:31:54Z</time>
      </trkpt>
      <trkpt lat="47.16137" lon="4.92892">
        <ele>402.2</ele>
        <time>2024-06-29T08:31:55Z</time>
      </trkpt>
      <trkpt lat="47.16136" lon="4.92894">
        <ele>401.8</ele>
        <time>2024-06-29T08:31:56Z</time>
      </trkpt>
      <trkpt lat="47.16136" lon="4.92895">
        <ele>402</ele>
        <time>2024-06-29T08:31:57Z</time>
      </trkpt>
      <trkpt lat="47.16135" lon="4.92897">
        <ele>402.1</ele>
        <time>2024-06-29T08:31:58Z</time>
      </trkpt>
      <trkpt lat="47.16134" lon="4.92898">
        <ele>402.4</ele>
        <time>2024-06-29T08:31:59Z</time>
      </trkpt>
      <trkpt lat="47.16134" lon="4.929">
        <ele>402.5</ele>
        <time>2024-06-29T08:32:00Z</time>
      </trkpt>
      <trkpt lat="47.16134" lon="4.92901">
        <ele>402.5</ele>
        <time>2024-06-29T08:32:01Z</time>
      </trkpt>
      <trkpt lat="47.16133" lon="4.92902">
        <ele>402.6</ele>
        <time>2024-06-29T08:32:02Z</time>
      </trkpt>
      <trkpt lat="47.16133" lon="4.92904">
        <ele>402.8</ele>
        <time>2024-06-29T08:32:03Z</time>
      </trkpt>
      <trkpt lat="47.16132" lon="4.92905">
        <ele>402.6</ele>
        <time>2024-06-29T08:32:04Z</time>
      </trkpt>
      <trkpt lat="47.16132" lon="4.92906">
        <ele>402.7</ele>
        <time>2024-06-29T08:32:05Z</time>
      </trkpt>
      <trkpt lat="47.16131" lon="4.92908">
        <ele>402.7</ele>
        <time>2024-06-29T08:32:06Z</time>
      </trkpt>
      <trkpt lat="47.16131" lon="4.92909">
        <ele>402.7</ele>
        <time>2024-06-29T08:32:07Z</time>
      </trkpt>
      <trkpt lat="47.1613" lon="4.92911">
        <ele>402.7</ele>
        <time>2024-06-29T08:32:08Z</time>
      </trkpt>
      <trkpt lat="47.1613" lon="4.92912">
        <ele>402.8</ele>
        <time>2024-06-29T08:32:09Z</time>
      </trkpt>
      <trkpt lat="47.16129" lon="4.92913">
        <ele>403.1</ele>
        <time>2024-06-29T08:32:10Z</time>
      </trkpt>
      <trkpt lat="47.16128" lon="4.92914">
        <ele>403</ele>
        <time>2024-06-29T08:32:11Z</time>
      </trkpt>
      <trkpt lat="47.16128" lon="4.92916">
        <ele>402.8</ele>
        <time>2024-06-29T08:32:12Z</time>
      </trkpt>
      <trkpt lat="47.16127" lon="4.92917">
        <ele>402.7</ele>
        <time>2024-06-29T08:32:13Z</time>
      </trkpt>
      <trkpt lat="47.16127" lon="4.92918">
        <ele>402.5</ele>
        <time>2024-06-29T08:32:14Z</time>
      </trkpt>
      <trkpt lat="47.16127" lon="4.9292">
        <ele>402.5</ele>
        <time>2024-06-29T08:32:15Z</time>
      </trkpt>
      <trkpt lat="47.16126" lon="4.92921">
        <ele>402.4</ele>
        <time>2024-06-29T08:32:16Z</time>
      </trkpt>
      <trkpt lat="47.16126" lon="4.92922">
        <ele>402.1</ele>
        <time>2024-06-29T08:32:17Z</time>
      </trkpt>
      <trkpt lat="47.16125" lon="4.92923">
        <ele>402</ele>
        <time>2024-06-29T08:32:18Z</time>
      </trkpt>
      <trkpt lat="47.16124" lon="4.92925">
        <ele>402.2</ele>
        <time>2024-06-29T08:32:19Z</time>
      </trkpt>
      <trkpt lat="47.16124" lon="4.92926">
        <ele>402.1</ele>
        <time>2024-06-29T08:32:20Z</time>
      </trkpt>
      <trkpt lat="47.16124" lon="4.92927">
        <ele>402.1</ele>
        <time>2024-06-29T08:32:21Z</time>
      </trkpt>
      <trkpt lat="47.16123" lon="4.92928">
        <ele>402.4</ele>
        <time>2024-06-29T08:32:22Z</time>
      </trkpt>
      <trkpt lat="47.16122" lon="4.92929">
        <ele>402.7</ele>
        <time>2024-06-29T08:32:23Z</time>
      </trkpt>
      <trkpt lat="47.16122" lon="4.92931">
        <ele>402.7</ele>
        <time>2024-06-29T08:32:24Z</time>
      </trkpt>
      <trkpt lat="47.16121" lon="4.92932">
        <ele>402.9</ele>
        <time>2024-06-29T08:32:25Z</time>
      </trkpt>
      <trkpt lat="47.16121" lon="4.92933">
        <ele>402.4</ele>
        <time>2024-06-29T08:32:26Z</time>
      </trkpt>
      <trkpt lat="47.16121" lon="4.92934">
        <ele>402.4</ele>
        <time>2024-06-29T08:32:27Z</time>
      </trkpt>
      <trkpt lat="47.1612" lon="4.92936">
        <ele>402.4</ele>
        <time>2024-06-29T08:32:28Z</time>
      </trkpt>
      <trkpt lat="47.1612" lon="4.92937">
        <ele>402.4</ele>
        <time>2024-06-29T08:32:29Z</time>
      </trkpt>
      <trkpt lat="47.1612" lon="4.92938">
        <ele>402.5</ele>
        <time>2024-06-29T08:32:30Z</time>
      </trkpt>
      <trkpt lat="47.16119" lon="4.9294">
        <ele>402.4</ele>
        <time>2024-06-29T08:32:31Z</time>
      </trkpt>
      <trkpt lat="47.16119" lon="4.92941">
        <ele>402.2</ele>
        <time>2024-06-29T08:32:33Z</time>
      </trkpt>
      <trkpt lat="47.16118" lon="4.92943">
        <ele>402.6</ele>
        <time>2024-06-29T08:32:35Z</time>
      </trkpt>
      <trkpt lat="47.16118" lon="4.92945">
        <ele>402.4</ele>
        <time>2024-06-29T08:32:36Z</time>
      </trkpt>
      <trkpt lat="47.16117" lon="4.92946">
        <ele>402.2</ele>
        <time>2024-06-29T08:32:37Z</time>
      </trkpt>
      <trkpt lat="47.16117" lon="4.92947">
        <ele>402.3</ele>
        <time>2024-06-29T08:32:38Z</time>
      </trkpt>
      <trkpt lat="47.16116" lon="4.92949">
        <ele>402.1</ele>
        <time>2024-06-29T08:32:39Z</time>
      </trkpt>
      <trkpt lat="47.16116" lon="4.9295">
        <ele>401.8</ele>
        <time>2024-06-29T08:32:40Z</time>
      </trkpt>
      <trkpt lat="47.16116" lon="4.92952">
        <ele>401.8</ele>
        <time>2024-06-29T08:32:41Z</time>
      </trkpt>
      <trkpt lat="47.16115" lon="4.92953">
        <ele>401.8</ele>
        <time>2024-06-29T08:32:42Z</time>
      </trkpt>
      <trkpt lat="47.16115" lon="4.92955">
        <ele>401.5</ele>
        <time>2024-06-29T08:32:43Z</time>
      </trkpt>
      <trkpt lat="47.16114" lon="4.92956">
        <ele>401.6</ele>
        <time>2024-06-29T08:32:44Z</time>
      </trkpt>
      <trkpt lat="47.16114" lon="4.92958">
        <ele>401.7</ele>
        <time>2024-06-29T08:32:45Z</time>
      </trkpt>
      <trkpt lat="47.16114" lon="4.92959">
        <ele>401.7</ele>
        <time>2024-06-29T08:32:46Z</time>
      </trkpt>
      <trkpt lat="47.16113" lon="4.92961">
        <ele>401.8</ele>
        <time>2024-06-29T08:32:47Z</time>
      </trkpt>
      <trkpt lat="47.16113" lon="4.92962">
        <ele>401.7</ele>
        <time>2024-06-29T08:32:48Z</time>
      </trkpt>
      <trkpt lat="47.16112" lon="4.92964">
        <ele>401.7</ele>
        <time>2024-06-29T08:32:49Z</time>
      </trkpt>
      <trkpt lat="47.16112" lon="4.92965">
        <ele>401.8</ele>
        <time>2024-06-29T08:32:50Z</time>
      </trkpt>
      <trkpt lat="47.16111" lon="4.92966">
        <ele>402.1</ele>
        <time>2024-06-29T08:32:51Z</time>
      </trkpt>
      <trkpt lat="47.16111" lon="4.92968">
        <ele>402.1</ele>
        <time>2024-06-29T08:32:52Z</time>
      </trkpt>
      <trkpt lat="47.1611" lon="4.92969">
        <ele>402.2</ele>
        <time>2024-06-29T08:32:53Z</time>
      </trkpt>
      <trkpt lat="47.1611" lon="4.92971">
        <ele>402.1</ele>
        <time>2024-06-29T08:32:54Z</time>
      </trkpt>
      <trkpt lat="47.16109" lon="4.92972">
        <ele>402.1</ele>
        <time>2024-06-29T08:32:55Z</time>
      </trkpt>
      <trkpt lat="47.16109" lon="4.92973">
        <ele>402.1</ele>
        <time>2024-06-29T08:32:56Z</time>
      </trkpt>
      <trkpt lat="47.16108" lon="4.92974">
        <ele>402.1</ele>
        <time>2024-06-29T08:32:57Z</time>
      </trkpt>
      <trkpt lat="47.16108" lon="4.92976">
        <ele>402.1</ele>
        <time>2024-06-29T08:32:58Z</time>
      </trkpt>
      <trkpt lat="47.16107" lon="4.92977">
        <ele>402.2</ele>
        <time>2024-06-29T08:32:59Z</time>
      </trkpt>
      <trkpt lat="47.16107" lon="4.92978">
        <ele>402.1</ele>
        <time>2024-06-29T08:33:00Z</time>
      </trkpt>
      <trkpt lat="47.16106" lon="4.92979">
        <ele>402.2</ele>
        <time>2024-06-29T08:33:01Z</time>
      </trkpt>
      <trkpt lat="47.16105" lon="4.92981">
        <ele>401.7</ele>
        <time>2024-06-29T08:33:02Z</time>
      </trkpt>
      <trkpt lat="47.16105" lon="4.92982">
        <ele>401.8</ele>
        <time>2024-06-29T08:33:03Z</time>
      </trkpt>
      <trkpt lat="47.16104" lon="4.92983">
        <ele>402</ele>
        <time>2024-06-29T08:33:04Z</time>
      </trkpt>
      <trkpt lat="47.16103" lon="4.92984">
        <ele>402.1</ele>
        <time>2024-06-29T08:33:05Z</time>
      </trkpt>
      <trkpt lat="47.16103" lon="4.92985">
        <ele>401.9</ele>
        <time>2024-06-29T08:33:06Z</time>
      </trkpt>
      <trkpt lat="47.16102" lon="4.92987">
        <ele>401.8</ele>
        <time>2024-06-29T08:33:07Z</time>
      </trkpt>
      <trkpt lat="47.16102" lon="4.92988">
        <ele>401.7</ele>
        <time>2024-06-29T08:33:08Z</time>
      </trkpt>
      <trkpt lat="47.16101" lon="4.9299">
        <ele>401.6</ele>
        <time>2024-06-29T08:33:09Z</time>
      </trkpt>
      <trkpt lat="47.16101" lon="4.92991">
        <ele>401.5</ele>
        <time>2024-06-29T08:33:10Z</time>
      </trkpt>
      <trkpt lat="47.161" lon="4.92992">
        <ele>401.7</ele>
        <time>2024-06-29T08:33:11Z</time>
      </trkpt>
      <trkpt lat="47.161" lon="4.92994">
        <ele>401.5</ele>
        <time>2024-06-29T08:33:12Z</time>
      </trkpt>
      <trkpt lat="47.16099" lon="4.92995">
        <ele>401.7</ele>
        <time>2024-06-29T08:33:13Z</time>
      </trkpt>
      <trkpt lat="47.16099" lon="4.92997">
        <ele>401.7</ele>
        <time>2024-06-29T08:33:14Z</time>
      </trkpt>
      <trkpt lat="47.16098" lon="4.92998">
        <ele>401.6</ele>
        <time>2024-06-29T08:33:15Z</time>
      </trkpt>
      <trkpt lat="47.16097" lon="4.92999">
        <ele>401.8</ele>
        <time>2024-06-29T08:33:16Z</time>
      </trkpt>
      <trkpt lat="47.16096" lon="4.93001">
        <ele>402.1</ele>
        <time>2024-06-29T08:33:17Z</time>
      </trkpt>
      <trkpt lat="47.16096" lon="4.93002">
        <ele>402</ele>
        <time>2024-06-29T08:33:18Z</time>
      </trkpt>
      <trkpt lat="47.16095" lon="4.93003">
        <ele>401.7</ele>
        <time>2024-06-29T08:33:19Z</time>
      </trkpt>
      <trkpt lat="47.16094" lon="4.93005">
        <ele>401.3</ele>
        <time>2024-06-29T08:33:20Z</time>
      </trkpt>
      <trkpt lat="47.16094" lon="4.93006">
        <ele>400.9</ele>
        <time>2024-06-29T08:33:21Z</time>
      </trkpt>
      <trkpt lat="47.16093" lon="4.93007">
        <ele>401</ele>
        <time>2024-06-29T08:33:22Z</time>
      </trkpt>
      <trkpt lat="47.16092" lon="4.93008">
        <ele>401.2</ele>
        <time>2024-06-29T08:33:23Z</time>
      </trkpt>
      <trkpt lat="47.16091" lon="4.93009">
        <ele>401.5</ele>
        <time>2024-06-29T08:33:24Z</time>
      </trkpt>
      <trkpt lat="47.16091" lon="4.93011">
        <ele>401.4</ele>
        <time>2024-06-29T08:33:25Z</time>
      </trkpt>
      <trkpt lat="47.1609" lon="4.93012">
        <ele>401.4</ele>
        <time>2024-06-29T08:33:26Z</time>
      </trkpt>
      <trkpt lat="47.16089" lon="4.93013">
        <ele>401.4</ele>
        <time>2024-06-29T08:33:27Z</time>
      </trkpt>
      <trkpt lat="47.16088" lon="4.93014">
        <ele>401.4</ele>
        <time>2024-06-29T08:33:28Z</time>
      </trkpt>
      <trkpt lat="47.16088" lon="4.93015">
        <ele>401.2</ele>
        <time>2024-06-29T08:33:29Z</time>
      </trkpt>
      <trkpt lat="47.16087" lon="4.93016">
        <ele>401.2</ele>
        <time>2024-06-29T08:33:30Z</time>
      </trkpt>
      <trkpt lat="47.16086" lon="4.93017">
        <ele>401.4</ele>
        <time>2024-06-29T08:33:31Z</time>
      </trkpt>
      <trkpt lat="47.16085" lon="4.93018">
        <ele>401.4</ele>
        <time>2024-06-29T08:33:32Z</time>
      </trkpt>
      <trkpt lat="47.16084" lon="4.93019">
        <ele>401.3</ele>
        <time>2024-06-29T08:33:33Z</time>
      </trkpt>
      <trkpt lat="47.16083" lon="4.9302">
        <ele>401.3</ele>
        <time>2024-06-29T08:33:34Z</time>
      </trkpt>
      <trkpt lat="47.16082" lon="4.93021">
        <ele>401.2</ele>
        <time>2024-06-29T08:33:35Z</time>
      </trkpt>
      <trkpt lat="47.16081" lon="4.93022">
        <ele>401.3</ele>
        <time>2024-06-29T08:33:36Z</time>
      </trkpt>
      <trkpt lat="47.16081" lon="4.93023">
        <ele>401.1</ele>
        <time>2024-06-29T08:33:37Z</time>
      </trkpt>
      <trkpt lat="47.1608" lon="4.93025">
        <ele>401.3</ele>
        <time>2024-06-29T08:33:38Z</time>
      </trkpt>
      <trkpt lat="47.16079" lon="4.93026">
        <ele>401.5</ele>
        <time>2024-06-29T08:33:39Z</time>
      </trkpt>
      <trkpt lat="47.16078" lon="4.93027">
        <ele>401.4</ele>
        <time>2024-06-29T08:33:40Z</time>
      </trkpt>
      <trkpt lat="47.16077" lon="4.93028">
        <ele>401.2</ele>
        <time>2024-06-29T08:33:41Z</time>
      </trkpt>
      <trkpt lat="47.16076" lon="4.93029">
        <ele>401.1</ele>
        <time>2024-06-29T08:33:42Z</time>
      </trkpt>
      <trkpt lat="47.16075" lon="4.9303">
        <ele>400.8</ele>
        <time>2024-06-29T08:33:43Z</time>
      </trkpt>
      <trkpt lat="47.16074" lon="4.93031">
        <ele>400.9</ele>
        <time>2024-06-29T08:33:44Z</time>
      </trkpt>
      <trkpt lat="47.16073" lon="4.93032">
        <ele>400.8</ele>
        <time>2024-06-29T08:33:45Z</time>
      </trkpt>
      <trkpt lat="47.16073" lon="4.93033">
        <ele>400.7</ele>
        <time>2024-06-29T08:33:46Z</time>
      </trkpt>
      <trkpt lat="47.16072" lon="4.93034">
        <ele>400.5</ele>
        <time>2024-06-29T08:33:47Z</time>
      </trkpt>
      <trkpt lat="47.16071" lon="4.93035">
        <ele>400.4</ele>
        <time>2024-06-29T08:33:48Z</time>
      </trkpt>
      <trkpt lat="47.1607" lon="4.93036">
        <ele>400.7</ele>
        <time>2024-06-29T08:33:49Z</time>
      </trkpt>
      <trkpt lat="47.16069" lon="4.93037">
        <ele>401</ele>
        <time>2024-06-29T08:33:50Z</time>
      </trkpt>
      <trkpt lat="47.16068" lon="4.93038">
        <ele>400.9</ele>
        <time>2024-06-29T08:33:51Z</time>
      </trkpt>
      <trkpt lat="47.16067" lon="4.93039">
        <ele>400.4</ele>
        <time>2024-06-29T08:33:52Z</time>
      </trkpt>
      <trkpt lat="47.16066" lon="4.9304">
        <ele>400.7</ele>
        <time>2024-06-29T08:33:53Z</time>
      </trkpt>
      <trkpt lat="47.16066" lon="4.93042">
        <ele>401.5</ele>
        <time>2024-06-29T08:33:54Z</time>
      </trkpt>
      <trkpt lat="47.16065" lon="4.93043">
        <ele>401.4</ele>
        <time>2024-06-29T08:33:55Z</time>
      </trkpt>
      <trkpt lat="47.16064" lon="4.93044">
        <ele>401</ele>
        <time>2024-06-29T08:33:56Z</time>
      </trkpt>
      <trkpt lat="47.16063" lon="4.93045">
        <ele>401.1</ele>
        <time>2024-06-29T08:33:57Z</time>
      </trkpt>
      <trkpt lat="47.16062" lon="4.93046">
        <ele>401.3</ele>
        <time>2024-06-29T08:33:58Z</time>
      </trkpt>
      <trkpt lat="47.16061" lon="4.93047">
        <ele>401.4</ele>
        <time>2024-06-29T08:33:59Z</time>
      </trkpt>
      <trkpt lat="47.1606" lon="4.93048">
        <ele>401.2</ele>
        <time>2024-06-29T08:34:00Z</time>
      </trkpt>
      <trkpt lat="47.16059" lon="4.93049">
        <ele>401.4</ele>
        <time>2024-06-29T08:34:01Z</time>
      </trkpt>
      <trkpt lat="47.16058" lon="4.9305">
        <ele>401.5</ele>
        <time>2024-06-29T08:34:02Z</time>
      </trkpt>
      <trkpt lat="47.16058" lon="4.93051">
        <ele>401.9</ele>
        <time>2024-06-29T08:34:03Z</time>
      </trkpt>
      <trkpt lat="47.16057" lon="4.93052">
        <ele>402</ele>
        <time>2024-06-29T08:34:04Z</time>
      </trkpt>
      <trkpt lat="47.16056" lon="4.93053">
        <ele>402.2</ele>
        <time>2024-06-29T08:34:05Z</time>
      </trkpt>
      <trkpt lat="47.16055" lon="4.93054">
        <ele>402.2</ele>
        <time>2024-06-29T08:34:06Z</time>
      </trkpt>
      <trkpt lat="47.16054" lon="4.93056">
        <ele>401.9</ele>
        <time>2024-06-29T08:34:07Z</time>
      </trkpt>
      <trkpt lat="47.16053" lon="4.93057">
        <ele>402.3</ele>
        <time>2024-06-29T08:34:08Z</time>
      </trkpt>
      <trkpt lat="47.16052" lon="4.93058">
        <ele>402.7</ele>
        <time>2024-06-29T08:34:09Z</time>
      </trkpt>
      <trkpt lat="47.16051" lon="4.93059">
        <ele>402.5</ele>
        <time>2024-06-29T08:34:10Z</time>
      </trkpt>
      <trkpt lat="47.16051" lon="4.9306">
        <ele>402.1</ele>
        <time>2024-06-29T08:34:11Z</time>
      </trkpt>
      <trkpt lat="47.1605" lon="4.93061">
        <ele>401.9</ele>
        <time>2024-06-29T08:34:12Z</time>
      </trkpt>
      <trkpt lat="47.16049" lon="4.93062">
        <ele>402</ele>
        <time>2024-06-29T08:34:13Z</time>
      </trkpt>
      <trkpt lat="47.16048" lon="4.93063">
        <ele>402</ele>
        <time>2024-06-29T08:34:14Z</time>
      </trkpt>
      <trkpt lat="47.16047" lon="4.93064">
        <ele>401.5</ele>
        <time>2024-06-29T08:34:15Z</time>
      </trkpt>
      <trkpt lat="47.16046" lon="4.93065">
        <ele>401.6</ele>
        <time>2024-06-29T08:34:16Z</time>
      </trkpt>
      <trkpt lat="47.16046" lon="4.93066">
        <ele>401.6</ele>
        <time>2024-06-29T08:34:17Z</time>
      </trkpt>
      <trkpt lat="47.16045" lon="4.93067">
        <ele>401.9</ele>
        <time>2024-06-29T08:34:18Z</time>
      </trkpt>
      <trkpt lat="47.16044" lon="4.93068">
        <ele>401.9</ele>
        <time>2024-06-29T08:34:19Z</time>
      </trkpt>
      <trkpt lat="47.16043" lon="4.93069">
        <ele>401.7</ele>
        <time>2024-06-29T08:34:20Z</time>
      </trkpt>
      <trkpt lat="47.16042" lon="4.93071">
        <ele>401.3</ele>
        <time>2024-06-29T08:34:21Z</time>
      </trkpt>
      <trkpt lat="47.16042" lon="4.93072">
        <ele>401</ele>
        <time>2024-06-29T08:34:23Z</time>
      </trkpt>
      <trkpt lat="47.16041" lon="4.93074">
        <ele>401.1</ele>
        <time>2024-06-29T08:34:25Z</time>
      </trkpt>
      <trkpt lat="47.1604" lon="4.93075">
        <ele>401.2</ele>
        <time>2024-06-29T08:34:26Z</time>
      </trkpt>
      <trkpt lat="47.1604" lon="4.93076">
        <ele>401.1</ele>
        <time>2024-06-29T08:34:27Z</time>
      </trkpt>
      <trkpt lat="47.16039" lon="4.93077">
        <ele>401.4</ele>
        <time>2024-06-29T08:34:28Z</time>
      </trkpt>
      <trkpt lat="47.16038" lon="4.93078">
        <ele>401.1</ele>
        <time>2024-06-29T08:34:29Z</time>
      </trkpt>
      <trkpt lat="47.16038" lon="4.9308">
        <ele>401.5</ele>
        <time>2024-06-29T08:34:30Z</time>
      </trkpt>
      <trkpt lat="47.16037" lon="4.93081">
        <ele>401.7</ele>
        <time>2024-06-29T08:34:31Z</time>
      </trkpt>
      <trkpt lat="47.16037" lon="4.93082">
        <ele>401.8</ele>
        <time>2024-06-29T08:34:32Z</time>
      </trkpt>
      <trkpt lat="47.16036" lon="4.93083">
        <ele>401.9</ele>
        <time>2024-06-29T08:34:33Z</time>
      </trkpt>
      <trkpt lat="47.16036" lon="4.93085">
        <ele>401.9</ele>
        <time>2024-06-29T08:34:34Z</time>
      </trkpt>
      <trkpt lat="47.16035" lon="4.93086">
        <ele>402</ele>
        <time>2024-06-29T08:34:35Z</time>
      </trkpt>
      <trkpt lat="47.16035" lon="4.93087">
        <ele>402.1</ele>
        <time>2024-06-29T08:34:36Z</time>
      </trkpt>
      <trkpt lat="47.16034" lon="4.93088">
        <ele>402.3</ele>
        <time>2024-06-29T08:34:37Z</time>
      </trkpt>
      <trkpt lat="47.16034" lon="4.93089">
        <ele>402.3</ele>
        <time>2024-06-29T08:34:38Z</time>
      </trkpt>
      <trkpt lat="47.16034" lon="4.93091">
        <ele>402.5</ele>
        <time>2024-06-29T08:34:39Z</time>
      </trkpt>
      <trkpt lat="47.16033" lon="4.93092">
        <ele>402.6</ele>
        <time>2024-06-29T08:34:40Z</time>
      </trkpt>
      <trkpt lat="47.16032" lon="4.93094">
        <ele>402.6</ele>
        <time>2024-06-29T08:34:41Z</time>
      </trkpt>
      <trkpt lat="47.16032" lon="4.93095">
        <ele>402.3</ele>
        <time>2024-06-29T08:34:42Z</time>
      </trkpt>
      <trkpt lat="47.16032" lon="4.93096">
        <ele>403.3</ele>
        <time>2024-06-29T08:34:43Z</time>
      </trkpt>
      <trkpt lat="47.16031" lon="4.93099">
        <ele>403.7</ele>
        <time>2024-06-29T08:34:45Z</time>
      </trkpt>
      <trkpt lat="47.16031" lon="4.931">
        <ele>403.7</ele>
        <time>2024-06-29T08:34:46Z</time>
      </trkpt>
      <trkpt lat="47.1603" lon="4.93102">
        <ele>403.8</ele>
        <time>2024-06-29T08:34:48Z</time>
      </trkpt>
      <trkpt lat="47.16029" lon="4.93104">
        <ele>403.7</ele>
        <time>2024-06-29T08:34:49Z</time>
      </trkpt>
      <trkpt lat="47.16029" lon="4.93105">
        <ele>403.8</ele>
        <time>2024-06-29T08:34:50Z</time>
      </trkpt>
      <trkpt lat="47.16028" lon="4.93106">
        <ele>403.7</ele>
        <time>2024-06-29T08:34:51Z</time>
      </trkpt>
      <trkpt lat="47.16028" lon="4.93107">
        <ele>403.8</ele>
        <time>2024-06-29T08:34:52Z</time>
      </trkpt>
      <trkpt lat="47.16028" lon="4.93109">
        <ele>403.8</ele>
        <time>2024-06-29T08:34:53Z</time>
      </trkpt>
      <trkpt lat="47.16027" lon="4.9311">
        <ele>404</ele>
        <time>2024-06-29T08:34:54Z</time>
      </trkpt>
      <trkpt lat="47.16027" lon="4.93111">
        <ele>404.1</ele>
        <time>2024-06-29T08:34:55Z</time>
      </trkpt>
      <trkpt lat="47.16027" lon="4.93113">
        <ele>404.3</ele>
        <time>2024-06-29T08:34:56Z</time>
      </trkpt>
      <trkpt lat="47.16026" lon="4.93114">
        <ele>404.4</ele>
        <time>2024-06-29T08:34:57Z</time>
      </trkpt>
      <trkpt lat="47.16026" lon="4.93115">
        <ele>404.5</ele>
        <time>2024-06-29T08:34:58Z</time>
      </trkpt>
      <trkpt lat="47.16025" lon="4.93117">
        <ele>404.5</ele>
        <time>2024-06-29T08:34:59Z</time>
      </trkpt>
      <trkpt lat="47.16025" lon="4.93118">
        <ele>404.5</ele>
        <time>2024-06-29T08:35:00Z</time>
      </trkpt>
      <trkpt lat="47.16025" lon="4.93119">
        <ele>404.7</ele>
        <time>2024-06-29T08:35:01Z</time>
      </trkpt>
      <trkpt lat="47.16024" lon="4.93121">
        <ele>405.1</ele>
        <time>2024-06-29T08:35:02Z</time>
      </trkpt>
      <trkpt lat="47.16024" lon="4.93122">
        <ele>405</ele>
        <time>2024-06-29T08:35:03Z</time>
      </trkpt>
      <trkpt lat="47.16024" lon="4.93124">
        <ele>404.9</ele>
        <time>2024-06-29T08:35:04Z</time>
      </trkpt>
      <trkpt lat="47.16023" lon="4.93125">
        <ele>404.9</ele>
        <time>2024-06-29T08:35:05Z</time>
      </trkpt>
      <trkpt lat="47.16023" lon="4.93126">
        <ele>405.1</ele>
        <time>2024-06-29T08:35:06Z</time>
      </trkpt>
      <trkpt lat="47.16022" lon="4.93128">
        <ele>405.4</ele>
        <time>2024-06-29T08:35:07Z</time>
      </trkpt>
      <trkpt lat="47.16022" lon="4.93129">
        <ele>405.5</ele>
        <time>2024-06-29T08:35:08Z</time>
      </trkpt>
      <trkpt lat="47.16021" lon="4.9313">
        <ele>405.7</ele>
        <time>2024-06-29T08:35:09Z</time>
      </trkpt>
      <trkpt lat="47.16021" lon="4.93131">
        <ele>405.8</ele>
        <time>2024-06-29T08:35:10Z</time>
      </trkpt>
      <trkpt lat="47.1602" lon="4.93133">
        <ele>405.9</ele>
        <time>2024-06-29T08:35:11Z</time>
      </trkpt>
      <trkpt lat="47.1602" lon="4.93134">
        <ele>405.8</ele>
        <time>2024-06-29T08:35:12Z</time>
      </trkpt>
      <trkpt lat="47.1602" lon="4.93136">
        <ele>405.7</ele>
        <time>2024-06-29T08:35:13Z</time>
      </trkpt>
      <trkpt lat="47.16019" lon="4.93137">
        <ele>406.1</ele>
        <time>2024-06-29T08:35:14Z</time>
      </trkpt>
      <trkpt lat="47.16019" lon="4.93139">
        <ele>405.8</ele>
        <time>2024-06-29T08:35:15Z</time>
      </trkpt>
      <trkpt lat="47.16018" lon="4.9314">
        <ele>405.8</ele>
        <time>2024-06-29T08:35:16Z</time>
      </trkpt>
      <trkpt lat="47.16018" lon="4.93141">
        <ele>405.7</ele>
        <time>2024-06-29T08:35:17Z</time>
      </trkpt>
      <trkpt lat="47.16017" lon="4.93143">
        <ele>405.6</ele>
        <time>2024-06-29T08:35:18Z</time>
      </trkpt>
      <trkpt lat="47.16017" lon="4.93144">
        <ele>405.7</ele>
        <time>2024-06-29T08:35:19Z</time>
      </trkpt>
      <trkpt lat="47.16016" lon="4.93146">
        <ele>406</ele>
        <time>2024-06-29T08:35:20Z</time>
      </trkpt>
      <trkpt lat="47.16016" lon="4.93147">
        <ele>405.9</ele>
        <time>2024-06-29T08:35:21Z</time>
      </trkpt>
      <trkpt lat="47.16015" lon="4.93148">
        <ele>406</ele>
        <time>2024-06-29T08:35:22Z</time>
      </trkpt>
      <trkpt lat="47.16014" lon="4.93149">
        <ele>406</ele>
        <time>2024-06-29T08:35:23Z</time>
      </trkpt>
      <trkpt lat="47.16014" lon="4.93151">
        <ele>406</ele>
        <time>2024-06-29T08:35:24Z</time>
      </trkpt>
      <trkpt lat="47.16013" lon="4.93152">
        <ele>405.9</ele>
        <time>2024-06-29T08:35:25Z</time>
      </trkpt>
      <trkpt lat="47.16013" lon="4.93153">
        <ele>405.8</ele>
        <time>2024-06-29T08:35:26Z</time>
      </trkpt>
      <trkpt lat="47.16012" lon="4.93154">
        <ele>405.8</ele>
        <time>2024-06-29T08:35:27Z</time>
      </trkpt>
      <trkpt lat="47.16011" lon="4.93155">
        <ele>406</ele>
        <time>2024-06-29T08:35:28Z</time>
      </trkpt>
      <trkpt lat="47.16011" lon="4.93157">
        <ele>405.8</ele>
        <time>2024-06-29T08:35:29Z</time>
      </trkpt>
      <trkpt lat="47.1601" lon="4.93158">
        <ele>405.6</ele>
        <time>2024-06-29T08:35:30Z</time>
      </trkpt>
      <trkpt lat="47.16009" lon="4.93159">
        <ele>405.4</ele>
        <time>2024-06-29T08:35:31Z</time>
      </trkpt>
      <trkpt lat="47.16009" lon="4.9316">
        <ele>405.2</ele>
        <time>2024-06-29T08:35:32Z</time>
      </trkpt>
      <trkpt lat="47.16008" lon="4.93161">
        <ele>405.1</ele>
        <time>2024-06-29T08:35:33Z</time>
      </trkpt>
      <trkpt lat="47.16008" lon="4.93162">
        <ele>405</ele>
        <time>2024-06-29T08:35:34Z</time>
      </trkpt>
      <trkpt lat="47.16007" lon="4.93164">
        <ele>405.1</ele>
        <time>2024-06-29T08:35:35Z</time>
      </trkpt>
      <trkpt lat="47.16007" lon="4.93165">
        <ele>405.2</ele>
        <time>2024-06-29T08:35:36Z</time>
      </trkpt>
      <trkpt lat="47.16006" lon="4.93166">
        <ele>405.5</ele>
        <time>2024-06-29T08:35:37Z</time>
      </trkpt>
      <trkpt lat="47.16005" lon="4.93167">
        <ele>405.9</ele>
        <time>2024-06-29T08:35:38Z</time>
      </trkpt>
      <trkpt lat="47.16005" lon="4.93168">
        <ele>405.9</ele>
        <time>2024-06-29T08:35:39Z</time>
      </trkpt>
      <trkpt lat="47.16004" lon="4.93169">
        <ele>405.9</ele>
        <time>2024-06-29T08:35:40Z</time>
      </trkpt>
      <trkpt lat="47.16003" lon="4.9317">
        <ele>406.3</ele>
        <time>2024-06-29T08:35:46Z</time>
      </trkpt>
      <trkpt lat="47.16002" lon="4.93171">
        <ele>406.4</ele>
        <time>2024-06-29T08:35:47Z</time>
      </trkpt>
      <trkpt lat="47.16001" lon="4.93172">
        <ele>406.5</ele>
        <time>2024-06-29T08:35:48Z</time>
      </trkpt>
      <trkpt lat="47.16" lon="4.93173">
        <ele>406.5</ele>
        <time>2024-06-29T08:35:49Z</time>
      </trkpt>
      <trkpt lat="47.16" lon="4.93174">
        <ele>406.5</ele>
        <time>2024-06-29T08:35:50Z</time>
      </trkpt>
      <trkpt lat="47.15999" lon="4.93175">
        <ele>406.4</ele>
        <time>2024-06-29T08:35:51Z</time>
      </trkpt>
      <trkpt lat="47.15998" lon="4.93176">
        <ele>406.9</ele>
        <time>2024-06-29T08:35:52Z</time>
      </trkpt>
      <trkpt lat="47.15996" lon="4.93177">
        <ele>407</ele>
        <time>2024-06-29T08:35:54Z</time>
      </trkpt>
      <trkpt lat="47.15995" lon="4.93178">
        <ele>406.6</ele>
        <time>2024-06-29T08:35:55Z</time>
      </trkpt>
      <trkpt lat="47.15994" lon="4.93179">
        <ele>406.7</ele>
        <time>2024-06-29T08:35:56Z</time>
      </trkpt>
      <trkpt lat="47.15994" lon="4.9318">
        <ele>406.5</ele>
        <time>2024-06-29T08:35:57Z</time>
      </trkpt>
      <trkpt lat="47.15993" lon="4.93181">
        <ele>406.6</ele>
        <time>2024-06-29T08:35:58Z</time>
      </trkpt>
      <trkpt lat="47.15992" lon="4.93182">
        <ele>406.2</ele>
        <time>2024-06-29T08:35:59Z</time>
      </trkpt>
      <trkpt lat="47.15991" lon="4.93184">
        <ele>406</ele>
        <time>2024-06-29T08:36:00Z</time>
      </trkpt>
      <trkpt lat="47.1599" lon="4.93185">
        <ele>406</ele>
        <time>2024-06-29T08:36:01Z</time>
      </trkpt>
      <trkpt lat="47.1599" lon="4.93186">
        <ele>406.5</ele>
        <time>2024-06-29T08:36:02Z</time>
      </trkpt>
      <trkpt lat="47.15989" lon="4.93187">
        <ele>406.2</ele>
        <time>2024-06-29T08:36:03Z</time>
      </trkpt>
      <trkpt lat="47.15988" lon="4.93189">
        <ele>406.1</ele>
        <time>2024-06-29T08:36:04Z</time>
      </trkpt>
      <trkpt lat="47.15987" lon="4.9319">
        <ele>406.2</ele>
        <time>2024-06-29T08:36:05Z</time>
      </trkpt>
      <trkpt lat="47.15987" lon="4.93191">
        <ele>406.4</ele>
        <time>2024-06-29T08:36:06Z</time>
      </trkpt>
      <trkpt lat="47.15986" lon="4.93192">
        <ele>406.3</ele>
        <time>2024-06-29T08:36:07Z</time>
      </trkpt>
      <trkpt lat="47.15985" lon="4.93194">
        <ele>405.9</ele>
        <time>2024-06-29T08:36:08Z</time>
      </trkpt>
      <trkpt lat="47.15985" lon="4.93195">
        <ele>405.8</ele>
        <time>2024-06-29T08:36:09Z</time>
      </trkpt>
      <trkpt lat="47.15984" lon="4.93196">
        <ele>406</ele>
        <time>2024-06-29T08:36:10Z</time>
      </trkpt>
      <trkpt lat="47.15983" lon="4.93197">
        <ele>406.3</ele>
        <time>2024-06-29T08:36:11Z</time>
      </trkpt>
      <trkpt lat="47.15982" lon="4.93198">
        <ele>406.3</ele>
        <time>2024-06-29T08:36:12Z</time>
      </trkpt>
      <trkpt lat="47.15981" lon="4.93199">
        <ele>406.1</ele>
        <time>2024-06-29T08:36:13Z</time>
      </trkpt>
      <trkpt lat="47.15981" lon="4.932">
        <ele>406.4</ele>
        <time>2024-06-29T08:36:14Z</time>
      </trkpt>
      <trkpt lat="47.1598" lon="4.93202">
        <ele>406</ele>
        <time>2024-06-29T08:36:15Z</time>
      </trkpt>
      <trkpt lat="47.15979" lon="4.93203">
        <ele>405.9</ele>
        <time>2024-06-29T08:36:16Z</time>
      </trkpt>
      <trkpt lat="47.15978" lon="4.93204">
        <ele>405.9</ele>
        <time>2024-06-29T08:36:17Z</time>
      </trkpt>
      <trkpt lat="47.15978" lon="4.93205">
        <ele>406.2</ele>
        <time>2024-06-29T08:36:18Z</time>
      </trkpt>
      <trkpt lat="47.15977" lon="4.93207">
        <ele>406.1</ele>
        <time>2024-06-29T08:36:19Z</time>
      </trkpt>
      <trkpt lat="47.15976" lon="4.93208">
        <ele>405.9</ele>
        <time>2024-06-29T08:36:20Z</time>
      </trkpt>
      <trkpt lat="47.15976" lon="4.93209">
        <ele>406</ele>
        <time>2024-06-29T08:36:21Z</time>
      </trkpt>
      <trkpt lat="47.15975" lon="4.9321">
        <ele>406</ele>
        <time>2024-06-29T08:36:22Z</time>
      </trkpt>
      <trkpt lat="47.15974" lon="4.93211">
        <ele>406.1</ele>
        <time>2024-06-29T08:36:23Z</time>
      </trkpt>
      <trkpt lat="47.15973" lon="4.93211">
        <ele>406.6</ele>
        <time>2024-06-29T08:36:34Z</time>
      </trkpt>
      <trkpt lat="47.15973" lon="4.93212">
        <ele>407</ele>
        <time>2024-06-29T08:36:45Z</time>
      </trkpt>
      <trkpt lat="47.15971" lon="4.93214">
        <ele>407</ele>
        <time>2024-06-29T08:36:47Z</time>
      </trkpt>
      <trkpt lat="47.15971" lon="4.93215">
        <ele>407.2</ele>
        <time>2024-06-29T08:36:48Z</time>
      </trkpt>
      <trkpt lat="47.1597" lon="4.93216">
        <ele>407.1</ele>
        <time>2024-06-29T08:36:49Z</time>
      </trkpt>
      <trkpt lat="47.1597" lon="4.93217">
        <ele>406.8</ele>
        <time>2024-06-29T08:36:50Z</time>
      </trkpt>
      <trkpt lat="47.15969" lon="4.93219">
        <ele>406.7</ele>
        <time>2024-06-29T08:36:51Z</time>
      </trkpt>
      <trkpt lat="47.15969" lon="4.9322">
        <ele>406.9</ele>
        <time>2024-06-29T08:36:52Z</time>
      </trkpt>
      <trkpt lat="47.15968" lon="4.93221">
        <ele>406.9</ele>
        <time>2024-06-29T08:36:53Z</time>
      </trkpt>
      <trkpt lat="47.15967" lon="4.93222">
        <ele>406.8</ele>
        <time>2024-06-29T08:36:54Z</time>
      </trkpt>
      <trkpt lat="47.15967" lon="4.93224">
        <ele>406.8</ele>
        <time>2024-06-29T08:36:55Z</time>
      </trkpt>
      <trkpt lat="47.15966" lon="4.93225">
        <ele>407</ele>
        <time>2024-06-29T08:36:56Z</time>
      </trkpt>
      <trkpt lat="47.15966" lon="4.93227">
        <ele>406.8</ele>
        <time>2024-06-29T08:36:57Z</time>
      </trkpt>
      <trkpt lat="47.15965" lon="4.93228">
        <ele>407</ele>
        <time>2024-06-29T08:36:58Z</time>
      </trkpt>
      <trkpt lat="47.15964" lon="4.93229">
        <ele>406.8</ele>
        <time>2024-06-29T08:36:59Z</time>
      </trkpt>
      <trkpt lat="47.15964" lon="4.93231">
        <ele>406.7</ele>
        <time>2024-06-29T08:37:00Z</time>
      </trkpt>
      <trkpt lat="47.15963" lon="4.93232">
        <ele>406.9</ele>
        <time>2024-06-29T08:37:01Z</time>
      </trkpt>
      <trkpt lat="47.15963" lon="4.93233">
        <ele>407.1</ele>
        <time>2024-06-29T08:37:02Z</time>
      </trkpt>
      <trkpt lat="47.15962" lon="4.93235">
        <ele>407</ele>
        <time>2024-06-29T08:37:03Z</time>
      </trkpt>
      <trkpt lat="47.15962" lon="4.93236">
        <ele>407.3</ele>
        <time>2024-06-29T08:37:04Z</time>
      </trkpt>
      <trkpt lat="47.15962" lon="4.93238">
        <ele>407.2</ele>
        <time>2024-06-29T08:37:05Z</time>
      </trkpt>
      <trkpt lat="47.15961" lon="4.93239">
        <ele>407.1</ele>
        <time>2024-06-29T08:37:06Z</time>
      </trkpt>
      <trkpt lat="47.15961" lon="4.93241">
        <ele>407.4</ele>
        <time>2024-06-29T08:37:07Z</time>
      </trkpt>
      <trkpt lat="47.15961" lon="4.93242">
        <ele>408.2</ele>
        <time>2024-06-29T08:37:08Z</time>
      </trkpt>
      <trkpt lat="47.15961" lon="4.93244">
        <ele>410.2</ele>
        <time>2024-06-29T08:37:09Z</time>
      </trkpt>
      <trkpt lat="47.15961" lon="4.93245">
        <ele>411.3</ele>
        <time>2024-06-29T08:37:10Z</time>
      </trkpt>
      <trkpt lat="47.15961" lon="4.93247">
        <ele>411.2</ele>
        <time>2024-06-29T08:37:11Z</time>
      </trkpt>
      <trkpt lat="47.15961" lon="4.93248">
        <ele>410.4</ele>
        <time>2024-06-29T08:37:12Z</time>
      </trkpt>
      <trkpt lat="47.15961" lon="4.9325">
        <ele>412.8</ele>
        <time>2024-06-29T08:37:13Z</time>
      </trkpt>
      <trkpt lat="47.15961" lon="4.93252">
        <ele>412.5</ele>
        <time>2024-06-29T08:37:14Z</time>
      </trkpt>
      <trkpt lat="47.15961" lon="4.93253">
        <ele>412.3</ele>
        <time>2024-06-29T08:37:15Z</time>
      </trkpt>
      <trkpt lat="47.15961" lon="4.93254">
        <ele>412.1</ele>
        <time>2024-06-29T08:37:16Z</time>
      </trkpt>
      <trkpt lat="47.1596" lon="4.93256">
        <ele>411.9</ele>
        <time>2024-06-29T08:37:17Z</time>
      </trkpt>
      <trkpt lat="47.1596" lon="4.93257">
        <ele>411.2</ele>
        <time>2024-06-29T08:37:18Z</time>
      </trkpt>
      <trkpt lat="47.1596" lon="4.93258">
        <ele>411.1</ele>
        <time>2024-06-29T08:37:19Z</time>
      </trkpt>
      <trkpt lat="47.1596" lon="4.9326">
        <ele>411.1</ele>
        <time>2024-06-29T08:37:20Z</time>
      </trkpt>
      <trkpt lat="47.15959" lon="4.93261">
        <ele>411.1</ele>
        <time>2024-06-29T08:37:21Z</time>
      </trkpt>
      <trkpt lat="47.15959" lon="4.93262">
        <ele>411.8</ele>
        <time>2024-06-29T08:37:22Z</time>
      </trkpt>
      <trkpt lat="47.15959" lon="4.93264">
        <ele>411.8</ele>
        <time>2024-06-29T08:37:23Z</time>
      </trkpt>
      <trkpt lat="47.15958" lon="4.93265">
        <ele>411.5</ele>
        <time>2024-06-29T08:37:24Z</time>
      </trkpt>
      <trkpt lat="47.15958" lon="4.93267">
        <ele>411.5</ele>
        <time>2024-06-29T08:37:25Z</time>
      </trkpt>
      <trkpt lat="47.15958" lon="4.93268">
        <ele>411.5</ele>
        <time>2024-06-29T08:37:26Z</time>
      </trkpt>
      <trkpt lat="47.15957" lon="4.9327">
        <ele>411.1</ele>
        <time>2024-06-29T08:37:27Z</time>
      </trkpt>
      <trkpt lat="47.15957" lon="4.93272">
        <ele>411</ele>
        <time>2024-06-29T08:37:28Z</time>
      </trkpt>
      <trkpt lat="47.15957" lon="4.93273">
        <ele>410.7</ele>
        <time>2024-06-29T08:37:29Z</time>
      </trkpt>
      <trkpt lat="47.15957" lon="4.93275">
        <ele>410.7</ele>
        <time>2024-06-29T08:37:30Z</time>
      </trkpt>
      <trkpt lat="47.15957" lon="4.93277">
        <ele>410.6</ele>
        <time>2024-06-29T08:37:31Z</time>
      </trkpt>
      <trkpt lat="47.15957" lon="4.93279">
        <ele>410.5</ele>
        <time>2024-06-29T08:37:32Z</time>
      </trkpt>
      <trkpt lat="47.15957" lon="4.9328">
        <ele>410.3</ele>
        <time>2024-06-29T08:37:33Z</time>
      </trkpt>
      <trkpt lat="47.15956" lon="4.93282">
        <ele>410.3</ele>
        <time>2024-06-29T08:37:34Z</time>
      </trkpt>
      <trkpt lat="47.15956" lon="4.93284">
        <ele>410.6</ele>
        <time>2024-06-29T08:37:35Z</time>
      </trkpt>
      <trkpt lat="47.15956" lon="4.93286">
        <ele>410.3</ele>
        <time>2024-06-29T08:37:36Z</time>
      </trkpt>
      <trkpt lat="47.15956" lon="4.93287">
        <ele>410.3</ele>
        <time>2024-06-29T08:37:37Z</time>
      </trkpt>
      <trkpt lat="47.15956" lon="4.93289">
        <ele>410.1</ele>
        <time>2024-06-29T08:37:38Z</time>
      </trkpt>
      <trkpt lat="47.15956" lon="4.9329">
        <ele>410.1</ele>
        <time>2024-06-29T08:37:39Z</time>
      </trkpt>
      <trkpt lat="47.15955" lon="4.93292">
        <ele>410.3</ele>
        <time>2024-06-29T08:37:40Z</time>
      </trkpt>
      <trkpt lat="47.15955" lon="4.93293">
        <ele>410.4</ele>
        <time>2024-06-29T08:37:41Z</time>
      </trkpt>
      <trkpt lat="47.15955" lon="4.93295">
        <ele>410.5</ele>
        <time>2024-06-29T08:37:42Z</time>
      </trkpt>
      <trkpt lat="47.15955" lon="4.93297">
        <ele>410.8</ele>
        <time>2024-06-29T08:37:43Z</time>
      </trkpt>
      <trkpt lat="47.15955" lon="4.93298">
        <ele>411.1</ele>
        <time>2024-06-29T08:37:44Z</time>
      </trkpt>
      <trkpt lat="47.15955" lon="4.933">
        <ele>412.5</ele>
        <time>2024-06-29T08:37:45Z</time>
      </trkpt>
      <trkpt lat="47.15955" lon="4.93301">
        <ele>412.2</ele>
        <time>2024-06-29T08:37:46Z</time>
      </trkpt>
      <trkpt lat="47.15955" lon="4.93303">
        <ele>412.7</ele>
        <time>2024-06-29T08:37:47Z</time>
      </trkpt>
      <trkpt lat="47.15955" lon="4.93304">
        <ele>413.3</ele>
        <time>2024-06-29T08:37:48Z</time>
      </trkpt>
      <trkpt lat="47.15955" lon="4.93306">
        <ele>413</ele>
        <time>2024-06-29T08:37:49Z</time>
      </trkpt>
      <trkpt lat="47.15955" lon="4.93308">
        <ele>411.7</ele>
        <time>2024-06-29T08:37:51Z</time>
      </trkpt>
      <trkpt lat="47.15955" lon="4.93309">
        <ele>411.4</ele>
        <time>2024-06-29T08:37:52Z</time>
      </trkpt>
      <trkpt lat="47.15955" lon="4.93311">
        <ele>413</ele>
        <time>2024-06-29T08:37:53Z</time>
      </trkpt>
      <trkpt lat="47.15954" lon="4.93312">
        <ele>414.5</ele>
        <time>2024-06-29T08:37:54Z</time>
      </trkpt>
      <trkpt lat="47.15954" lon="4.93314">
        <ele>410.3</ele>
        <time>2024-06-29T08:37:55Z</time>
      </trkpt>
      <trkpt lat="47.15954" lon="4.93316">
        <ele>408.8</ele>
        <time>2024-06-29T08:37:56Z</time>
      </trkpt>
      <trkpt lat="47.15954" lon="4.93317">
        <ele>409.1</ele>
        <time>2024-06-29T08:37:57Z</time>
      </trkpt>
      <trkpt lat="47.15954" lon="4.93319">
        <ele>408.3</ele>
        <time>2024-06-29T08:37:58Z</time>
      </trkpt>
      <trkpt lat="47.15954" lon="4.93321">
        <ele>407.4</ele>
        <time>2024-06-29T08:37:59Z</time>
      </trkpt>
      <trkpt lat="47.15954" lon="4.93323">
        <ele>407.1</ele>
        <time>2024-06-29T08:38:00Z</time>
      </trkpt>
      <trkpt lat="47.15954" lon="4.93325">
        <ele>406.1</ele>
        <time>2024-06-29T08:38:01Z</time>
      </trkpt>
      <trkpt lat="47.15953" lon="4.93327">
        <ele>406.4</ele>
        <time>2024-06-29T08:38:02Z</time>
      </trkpt>
      <trkpt lat="47.15953" lon="4.93329">
        <ele>409.5</ele>
        <time>2024-06-29T08:38:04Z</time>
      </trkpt>
      <trkpt lat="47.15952" lon="4.93331">
        <ele>405</ele>
        <time>2024-06-29T08:38:06Z</time>
      </trkpt>
      <trkpt lat="47.15951" lon="4.93333">
        <ele>403.7</ele>
        <time>2024-06-29T08:38:08Z</time>
      </trkpt>
      <trkpt lat="47.15951" lon="4.93334">
        <ele>403.8</ele>
        <time>2024-06-29T08:38:09Z</time>
      </trkpt>
      <trkpt lat="47.15951" lon="4.93335">
        <ele>404.2</ele>
        <time>2024-06-29T08:38:10Z</time>
      </trkpt>
      <trkpt lat="47.1595" lon="4.93337">
        <ele>404.1</ele>
        <time>2024-06-29T08:38:11Z</time>
      </trkpt>
      <trkpt lat="47.1595" lon="4.93338">
        <ele>403.6</ele>
        <time>2024-06-29T08:38:12Z</time>
      </trkpt>
      <trkpt lat="47.1595" lon="4.9334">
        <ele>404.3</ele>
        <time>2024-06-29T08:38:13Z</time>
      </trkpt>
      <trkpt lat="47.1595" lon="4.93342">
        <ele>405.2</ele>
        <time>2024-06-29T08:38:14Z</time>
      </trkpt>
      <trkpt lat="47.15951" lon="4.93344">
        <ele>403.7</ele>
        <time>2024-06-29T08:38:15Z</time>
      </trkpt>
      <trkpt lat="47.15951" lon="4.93345">
        <ele>404.8</ele>
        <time>2024-06-29T08:38:16Z</time>
      </trkpt>
      <trkpt lat="47.15951" lon="4.93347">
        <ele>405</ele>
        <time>2024-06-29T08:38:17Z</time>
      </trkpt>
      <trkpt lat="47.15951" lon="4.93349">
        <ele>404</ele>
        <time>2024-06-29T08:38:18Z</time>
      </trkpt>
      <trkpt lat="47.15951" lon="4.9335">
        <ele>403.2</ele>
        <time>2024-06-29T08:38:19Z</time>
      </trkpt>
      <trkpt lat="47.15951" lon="4.93352">
        <ele>401.3</ele>
        <time>2024-06-29T08:38:20Z</time>
      </trkpt>
      <trkpt lat="47.15951" lon="4.93353">
        <ele>400.8</ele>
        <time>2024-06-29T08:38:21Z</time>
      </trkpt>
      <trkpt lat="47.15951" lon="4.93355">
        <ele>401.2</ele>
        <time>2024-06-29T08:38:22Z</time>
      </trkpt>
      <trkpt lat="47.15951" lon="4.93356">
        <ele>399.7</ele>
        <time>2024-06-29T08:38:23Z</time>
      </trkpt>
      <trkpt lat="47.15951" lon="4.93358">
        <ele>400.4</ele>
        <time>2024-06-29T08:38:24Z</time>
      </trkpt>
      <trkpt lat="47.15952" lon="4.9336">
        <ele>401.5</ele>
        <time>2024-06-29T08:38:25Z</time>
      </trkpt>
      <trkpt lat="47.15952" lon="4.93362">
        <ele>401.7</ele>
        <time>2024-06-29T08:38:26Z</time>
      </trkpt>
      <trkpt lat="47.15952" lon="4.93363">
        <ele>401.9</ele>
        <time>2024-06-29T08:38:27Z</time>
      </trkpt>
      <trkpt lat="47.15952" lon="4.93365">
        <ele>402.7</ele>
        <time>2024-06-29T08:38:28Z</time>
      </trkpt>
      <trkpt lat="47.15952" lon="4.93367">
        <ele>403.4</ele>
        <time>2024-06-29T08:38:29Z</time>
      </trkpt>
      <trkpt lat="47.15951" lon="4.93369">
        <ele>403.8</ele>
        <time>2024-06-29T08:38:30Z</time>
      </trkpt>
      <trkpt lat="47.15951" lon="4.93371">
        <ele>404.4</ele>
        <time>2024-06-29T08:38:31Z</time>
      </trkpt>
      <trkpt lat="47.15951" lon="4.93372">
        <ele>404.5</ele>
        <time>2024-06-29T08:38:32Z</time>
      </trkpt>
      <trkpt lat="47.15951" lon="4.93374">
        <ele>404.4</ele>
        <time>2024-06-29T08:38:33Z</time>
      </trkpt>
      <trkpt lat="47.1595" lon="4.93376">
        <ele>404.7</ele>
        <time>2024-06-29T08:38:34Z</time>
      </trkpt>
      <trkpt lat="47.1595" lon="4.93378">
        <ele>405.2</ele>
        <time>2024-06-29T08:38:35Z</time>
      </trkpt>
      <trkpt lat="47.1595" lon="4.93379">
        <ele>405.3</ele>
        <time>2024-06-29T08:38:36Z</time>
      </trkpt>
      <trkpt lat="47.1595" lon="4.93381">
        <ele>405.7</ele>
        <time>2024-06-29T08:38:37Z</time>
      </trkpt>
      <trkpt lat="47.1595" lon="4.93382">
        <ele>406.1</ele>
        <time>2024-06-29T08:38:38Z</time>
      </trkpt>
      <trkpt lat="47.15949" lon="4.93384">
        <ele>406.5</ele>
        <time>2024-06-29T08:38:40Z</time>
      </trkpt>
      <trkpt lat="47.15948" lon="4.93385">
        <ele>406.8</ele>
        <time>2024-06-29T08:38:41Z</time>
      </trkpt>
      <trkpt lat="47.15948" lon="4.93388">
        <ele>408.4</ele>
        <time>2024-06-29T08:38:43Z</time>
      </trkpt>
      <trkpt lat="47.15948" lon="4.93389">
        <ele>408.6</ele>
        <time>2024-06-29T08:38:44Z</time>
      </trkpt>
      <trkpt lat="47.15947" lon="4.93391">
        <ele>408.6</ele>
        <time>2024-06-29T08:38:45Z</time>
      </trkpt>
      <trkpt lat="47.15947" lon="4.93393">
        <ele>408.7</ele>
        <time>2024-06-29T08:38:46Z</time>
      </trkpt>
      <trkpt lat="47.15947" lon="4.93394">
        <ele>408.9</ele>
        <time>2024-06-29T08:38:47Z</time>
      </trkpt>
      <trkpt lat="47.15947" lon="4.93396">
        <ele>408.9</ele>
        <time>2024-06-29T08:38:48Z</time>
      </trkpt>
      <trkpt lat="47.15947" lon="4.93397">
        <ele>409.1</ele>
        <time>2024-06-29T08:38:49Z</time>
      </trkpt>
      <trkpt lat="47.15947" lon="4.934">
        <ele>409.9</ele>
        <time>2024-06-29T08:38:51Z</time>
      </trkpt>
      <trkpt lat="47.15947" lon="4.93401">
        <ele>410</ele>
        <time>2024-06-29T08:38:52Z</time>
      </trkpt>
      <trkpt lat="47.15947" lon="4.93402">
        <ele>409.8</ele>
        <time>2024-06-29T08:38:53Z</time>
      </trkpt>
      <trkpt lat="47.15947" lon="4.93404">
        <ele>409.9</ele>
        <time>2024-06-29T08:38:54Z</time>
      </trkpt>
      <trkpt lat="47.15948" lon="4.93405">
        <ele>410.4</ele>
        <time>2024-06-29T08:38:55Z</time>
      </trkpt>
      <trkpt lat="47.15948" lon="4.93407">
        <ele>410.1</ele>
        <time>2024-06-29T08:38:56Z</time>
      </trkpt>
      <trkpt lat="47.15948" lon="4.93408">
        <ele>410.3</ele>
        <time>2024-06-29T08:38:57Z</time>
      </trkpt>
      <trkpt lat="47.15948" lon="4.9341">
        <ele>410.2</ele>
        <time>2024-06-29T08:38:58Z</time>
      </trkpt>
      <trkpt lat="47.15948" lon="4.93411">
        <ele>410.5</ele>
        <time>2024-06-29T08:38:59Z</time>
      </trkpt>
      <trkpt lat="47.15948" lon="4.93413">
        <ele>410.6</ele>
        <time>2024-06-29T08:39:00Z</time>
      </trkpt>
      <trkpt lat="47.15947" lon="4.93415">
        <ele>410.5</ele>
        <time>2024-06-29T08:39:02Z</time>
      </trkpt>
      <trkpt lat="47.15947" lon="4.93416">
        <ele>410</ele>
        <time>2024-06-29T08:39:03Z</time>
      </trkpt>
      <trkpt lat="47.15947" lon="4.93418">
        <ele>409.8</ele>
        <time>2024-06-29T08:39:04Z</time>
      </trkpt>
      <trkpt lat="47.15947" lon="4.93419">
        <ele>410.5</ele>
        <time>2024-06-29T08:39:05Z</time>
      </trkpt>
      <trkpt lat="47.15947" lon="4.93422">
        <ele>411.4</ele>
        <time>2024-06-29T08:39:07Z</time>
      </trkpt>
      <trkpt lat="47.15947" lon="4.93423">
        <ele>411.7</ele>
        <time>2024-06-29T08:39:08Z</time>
      </trkpt>
      <trkpt lat="47.15947" lon="4.93425">
        <ele>410.1</ele>
        <time>2024-06-29T08:39:10Z</time>
      </trkpt>
      <trkpt lat="47.15946" lon="4.93427">
        <ele>408.9</ele>
        <time>2024-06-29T08:39:12Z</time>
      </trkpt>
      <trkpt lat="47.15946" lon="4.93429">
        <ele>407</ele>
        <time>2024-06-29T08:39:13Z</time>
      </trkpt>
      <trkpt lat="47.15946" lon="4.9343">
        <ele>407.1</ele>
        <time>2024-06-29T08:39:14Z</time>
      </trkpt>
      <trkpt lat="47.15947" lon="4.93432">
        <ele>406.3</ele>
        <time>2024-06-29T08:39:15Z</time>
      </trkpt>
      <trkpt lat="47.15947" lon="4.93434">
        <ele>406.6</ele>
        <time>2024-06-29T08:39:16Z</time>
      </trkpt>
      <trkpt lat="47.15947" lon="4.93436">
        <ele>406.5</ele>
        <time>2024-06-29T08:39:17Z</time>
      </trkpt>
      <trkpt lat="47.15947" lon="4.93437">
        <ele>406.7</ele>
        <time>2024-06-29T08:39:18Z</time>
      </trkpt>
      <trkpt lat="47.15947" lon="4.93439">
        <ele>408.7</ele>
        <time>2024-06-29T08:39:19Z</time>
      </trkpt>
      <trkpt lat="47.15947" lon="4.93442">
        <ele>406.9</ele>
        <time>2024-06-29T08:39:20Z</time>
      </trkpt>
      <trkpt lat="47.15947" lon="4.93444">
        <ele>407.9</ele>
        <time>2024-06-29T08:39:21Z</time>
      </trkpt>
      <trkpt lat="47.15947" lon="4.93446">
        <ele>408.6</ele>
        <time>2024-06-29T08:39:22Z</time>
      </trkpt>
      <trkpt lat="47.15947" lon="4.93447">
        <ele>409.3</ele>
        <time>2024-06-29T08:39:23Z</time>
      </trkpt>
      <trkpt lat="47.15947" lon="4.93449">
        <ele>409.2</ele>
        <time>2024-06-29T08:39:24Z</time>
      </trkpt>
      <trkpt lat="47.15948" lon="4.9345">
        <ele>409.3</ele>
        <time>2024-06-29T08:39:25Z</time>
      </trkpt>
      <trkpt lat="47.15948" lon="4.93451">
        <ele>411.4</ele>
        <time>2024-06-29T08:39:26Z</time>
      </trkpt>
      <trkpt lat="47.15948" lon="4.93453">
        <ele>410</ele>
        <time>2024-06-29T08:39:27Z</time>
      </trkpt>
      <trkpt lat="47.15949" lon="4.93455">
        <ele>409.9</ele>
        <time>2024-06-29T08:39:28Z</time>
      </trkpt>
      <trkpt lat="47.15949" lon="4.93456">
        <ele>409.9</ele>
        <time>2024-06-29T08:39:29Z</time>
      </trkpt>
      <trkpt lat="47.15949" lon="4.93459">
        <ele>408.8</ele>
        <time>2024-06-29T08:39:30Z</time>
      </trkpt>
      <trkpt lat="47.1595" lon="4.93461">
        <ele>409.1</ele>
        <time>2024-06-29T08:39:31Z</time>
      </trkpt>
      <trkpt lat="47.15949" lon="4.93462">
        <ele>410.4</ele>
        <time>2024-06-29T08:39:32Z</time>
      </trkpt>
      <trkpt lat="47.15949" lon="4.93464">
        <ele>410.3</ele>
        <time>2024-06-29T08:39:33Z</time>
      </trkpt>
      <trkpt lat="47.15949" lon="4.93465">
        <ele>411.1</ele>
        <time>2024-06-29T08:39:34Z</time>
      </trkpt>
      <trkpt lat="47.15948" lon="4.93466">
        <ele>411.7</ele>
        <time>2024-06-29T08:39:35Z</time>
      </trkpt>
      <trkpt lat="47.15948" lon="4.93468">
        <ele>412.3</ele>
        <time>2024-06-29T08:39:36Z</time>
      </trkpt>
      <trkpt lat="47.15947" lon="4.93469">
        <ele>412.4</ele>
        <time>2024-06-29T08:39:37Z</time>
      </trkpt>
      <trkpt lat="47.15947" lon="4.93471">
        <ele>412.3</ele>
        <time>2024-06-29T08:39:38Z</time>
      </trkpt>
      <trkpt lat="47.15946" lon="4.93472">
        <ele>412.2</ele>
        <time>2024-06-29T08:39:39Z</time>
      </trkpt>
      <trkpt lat="47.15946" lon="4.93474">
        <ele>412.7</ele>
        <time>2024-06-29T08:39:40Z</time>
      </trkpt>
      <trkpt lat="47.15946" lon="4.93475">
        <ele>413.2</ele>
        <time>2024-06-29T08:39:41Z</time>
      </trkpt>
      <trkpt lat="47.15945" lon="4.93477">
        <ele>414</ele>
        <time>2024-06-29T08:39:42Z</time>
      </trkpt>
      <trkpt lat="47.15945" lon="4.93479">
        <ele>412.9</ele>
        <time>2024-06-29T08:39:43Z</time>
      </trkpt>
      <trkpt lat="47.15945" lon="4.9348">
        <ele>413.4</ele>
        <time>2024-06-29T08:39:44Z</time>
      </trkpt>
      <trkpt lat="47.15945" lon="4.93482">
        <ele>413.7</ele>
        <time>2024-06-29T08:39:45Z</time>
      </trkpt>
      <trkpt lat="47.15944" lon="4.93483">
        <ele>414.1</ele>
        <time>2024-06-29T08:39:46Z</time>
      </trkpt>
      <trkpt lat="47.15943" lon="4.93484">
        <ele>413.1</ele>
        <time>2024-06-29T08:39:47Z</time>
      </trkpt>
      <trkpt lat="47.15943" lon="4.93485">
        <ele>413.7</ele>
        <time>2024-06-29T08:39:48Z</time>
      </trkpt>
      <trkpt lat="47.15942" lon="4.93487">
        <ele>412.5</ele>
        <time>2024-06-29T08:39:49Z</time>
      </trkpt>
      <trkpt lat="47.15942" lon="4.93489">
        <ele>413.3</ele>
        <time>2024-06-29T08:39:50Z</time>
      </trkpt>
      <trkpt lat="47.15942" lon="4.93491">
        <ele>411.8</ele>
        <time>2024-06-29T08:39:51Z</time>
      </trkpt>
      <trkpt lat="47.15942" lon="4.93493">
        <ele>411.5</ele>
        <time>2024-06-29T08:39:52Z</time>
      </trkpt>
      <trkpt lat="47.15942" lon="4.93496">
        <ele>413.3</ele>
        <time>2024-06-29T08:39:53Z</time>
      </trkpt>
      <trkpt lat="47.15942" lon="4.93498">
        <ele>412.8</ele>
        <time>2024-06-29T08:39:54Z</time>
      </trkpt>
      <trkpt lat="47.15943" lon="4.935">
        <ele>413.9</ele>
        <time>2024-06-29T08:39:55Z</time>
      </trkpt>
      <trkpt lat="47.15943" lon="4.93502">
        <ele>414.3</ele>
        <time>2024-06-29T08:39:56Z</time>
      </trkpt>
      <trkpt lat="47.15944" lon="4.93503">
        <ele>415.4</ele>
        <time>2024-06-29T08:39:57Z</time>
      </trkpt>
      <trkpt lat="47.15944" lon="4.93505">
        <ele>416.7</ele>
        <time>2024-06-29T08:39:58Z</time>
      </trkpt>
      <trkpt lat="47.15945" lon="4.93506">
        <ele>419.8</ele>
        <time>2024-06-29T08:39:59Z</time>
      </trkpt>
      <trkpt lat="47.15945" lon="4.93508">
        <ele>419.8</ele>
        <time>2024-06-29T08:40:00Z</time>
      </trkpt>
      <trkpt lat="47.15945" lon="4.93509">
        <ele>419.3</ele>
        <time>2024-06-29T08:40:01Z</time>
      </trkpt>
      <trkpt lat="47.15945" lon="4.93511">
        <ele>417.8</ele>
        <time>2024-06-29T08:40:02Z</time>
      </trkpt>
      <trkpt lat="47.15945" lon="4.93513">
        <ele>416.9</ele>
        <time>2024-06-29T08:40:03Z</time>
      </trkpt>
      <trkpt lat="47.15945" lon="4.93515">
        <ele>417.1</ele>
        <time>2024-06-29T08:40:04Z</time>
      </trkpt>
      <trkpt lat="47.15945" lon="4.93516">
        <ele>416.7</ele>
        <time>2024-06-29T08:40:05Z</time>
      </trkpt>
      <trkpt lat="47.15944" lon="4.93518">
        <ele>415.9</ele>
        <time>2024-06-29T08:40:06Z</time>
      </trkpt>
      <trkpt lat="47.15944" lon="4.9352">
        <ele>415.5</ele>
        <time>2024-06-29T08:40:07Z</time>
      </trkpt>
      <trkpt lat="47.15944" lon="4.93521">
        <ele>415.2</ele>
        <time>2024-06-29T08:40:08Z</time>
      </trkpt>
      <trkpt lat="47.15943" lon="4.93523">
        <ele>415</ele>
        <time>2024-06-29T08:40:09Z</time>
      </trkpt>
      <trkpt lat="47.15943" lon="4.93524">
        <ele>414.6</ele>
        <time>2024-06-29T08:40:10Z</time>
      </trkpt>
      <trkpt lat="47.15943" lon="4.93526">
        <ele>414.4</ele>
        <time>2024-06-29T08:40:11Z</time>
      </trkpt>
      <trkpt lat="47.15942" lon="4.93528">
        <ele>414</ele>
        <time>2024-06-29T08:40:12Z</time>
      </trkpt>
      <trkpt lat="47.15942" lon="4.93529">
        <ele>413.7</ele>
        <time>2024-06-29T08:40:13Z</time>
      </trkpt>
      <trkpt lat="47.15941" lon="4.93531">
        <ele>413.9</ele>
        <time>2024-06-29T08:40:14Z</time>
      </trkpt>
      <trkpt lat="47.15941" lon="4.93532">
        <ele>413.9</ele>
        <time>2024-06-29T08:40:15Z</time>
      </trkpt>
      <trkpt lat="47.15941" lon="4.93534">
        <ele>413.7</ele>
        <time>2024-06-29T08:40:16Z</time>
      </trkpt>
      <trkpt lat="47.1594" lon="4.93536">
        <ele>413.9</ele>
        <time>2024-06-29T08:40:17Z</time>
      </trkpt>
      <trkpt lat="47.1594" lon="4.93537">
        <ele>413.9</ele>
        <time>2024-06-29T08:40:18Z</time>
      </trkpt>
      <trkpt lat="47.1594" lon="4.93539">
        <ele>413.8</ele>
        <time>2024-06-29T08:40:19Z</time>
      </trkpt>
      <trkpt lat="47.15939" lon="4.9354">
        <ele>413.8</ele>
        <time>2024-06-29T08:40:20Z</time>
      </trkpt>
      <trkpt lat="47.15939" lon="4.93542">
        <ele>413.9</ele>
        <time>2024-06-29T08:40:21Z</time>
      </trkpt>
      <trkpt lat="47.15939" lon="4.93544">
        <ele>414.1</ele>
        <time>2024-06-29T08:40:22Z</time>
      </trkpt>
      <trkpt lat="47.15938" lon="4.93545">
        <ele>413.8</ele>
        <time>2024-06-29T08:40:23Z</time>
      </trkpt>
      <trkpt lat="47.15938" lon="4.93547">
        <ele>413.5</ele>
        <time>2024-06-29T08:40:24Z</time>
      </trkpt>
      <trkpt lat="47.15938" lon="4.93548">
        <ele>413.4</ele>
        <time>2024-06-29T08:40:25Z</time>
      </trkpt>
      <trkpt lat="47.15938" lon="4.9355">
        <ele>413.5</ele>
        <time>2024-06-29T08:40:26Z</time>
      </trkpt>
      <trkpt lat="47.15937" lon="4.93552">
        <ele>413.5</ele>
        <time>2024-06-29T08:40:27Z</time>
      </trkpt>
      <trkpt lat="47.15937" lon="4.93553">
        <ele>413.6</ele>
        <time>2024-06-29T08:40:28Z</time>
      </trkpt>
      <trkpt lat="47.15937" lon="4.93555">
        <ele>414</ele>
        <time>2024-06-29T08:40:29Z</time>
      </trkpt>
      <trkpt lat="47.15936" lon="4.93556">
        <ele>414</ele>
        <time>2024-06-29T08:40:30Z</time>
      </trkpt>
      <trkpt lat="47.15936" lon="4.93558">
        <ele>413.8</ele>
        <time>2024-06-29T08:40:31Z</time>
      </trkpt>
      <trkpt lat="47.15936" lon="4.93559">
        <ele>414.8</ele>
        <time>2024-06-29T08:40:32Z</time>
      </trkpt>
      <trkpt lat="47.15935" lon="4.93561">
        <ele>414.6</ele>
        <time>2024-06-29T08:40:33Z</time>
      </trkpt>
      <trkpt lat="47.15935" lon="4.93563">
        <ele>415.5</ele>
        <time>2024-06-29T08:40:34Z</time>
      </trkpt>
      <trkpt lat="47.15935" lon="4.93565">
        <ele>415.5</ele>
        <time>2024-06-29T08:40:35Z</time>
      </trkpt>
      <trkpt lat="47.15935" lon="4.93566">
        <ele>416.2</ele>
        <time>2024-06-29T08:40:36Z</time>
      </trkpt>
      <trkpt lat="47.15935" lon="4.93568">
        <ele>415.7</ele>
        <time>2024-06-29T08:40:37Z</time>
      </trkpt>
      <trkpt lat="47.15935" lon="4.9357">
        <ele>415.3</ele>
        <time>2024-06-29T08:40:38Z</time>
      </trkpt>
      <trkpt lat="47.15935" lon="4.93571">
        <ele>415.2</ele>
        <time>2024-06-29T08:40:39Z</time>
      </trkpt>
      <trkpt lat="47.15935" lon="4.93573">
        <ele>415.4</ele>
        <time>2024-06-29T08:40:40Z</time>
      </trkpt>
      <trkpt lat="47.15935" lon="4.93575">
        <ele>414.7</ele>
        <time>2024-06-29T08:40:41Z</time>
      </trkpt>
      <trkpt lat="47.15934" lon="4.93577">
        <ele>414.3</ele>
        <time>2024-06-29T08:40:42Z</time>
      </trkpt>
      <trkpt lat="47.15935" lon="4.93578">
        <ele>413.2</ele>
        <time>2024-06-29T08:40:43Z</time>
      </trkpt>
      <trkpt lat="47.15935" lon="4.9358">
        <ele>412.1</ele>
        <time>2024-06-29T08:40:44Z</time>
      </trkpt>
      <trkpt lat="47.15935" lon="4.93582">
        <ele>412</ele>
        <time>2024-06-29T08:40:45Z</time>
      </trkpt>
      <trkpt lat="47.15935" lon="4.93584">
        <ele>412.2</ele>
        <time>2024-06-29T08:40:46Z</time>
      </trkpt>
      <trkpt lat="47.15935" lon="4.93585">
        <ele>412.1</ele>
        <time>2024-06-29T08:40:47Z</time>
      </trkpt>
      <trkpt lat="47.15935" lon="4.93587">
        <ele>412</ele>
        <time>2024-06-29T08:40:48Z</time>
      </trkpt>
      <trkpt lat="47.15934" lon="4.93588">
        <ele>412.2</ele>
        <time>2024-06-29T08:40:49Z</time>
      </trkpt>
      <trkpt lat="47.15934" lon="4.9359">
        <ele>412.3</ele>
        <time>2024-06-29T08:40:50Z</time>
      </trkpt>
      <trkpt lat="47.15933" lon="4.93591">
        <ele>412.3</ele>
        <time>2024-06-29T08:40:51Z</time>
      </trkpt>
      <trkpt lat="47.15933" lon="4.93592">
        <ele>412</ele>
        <time>2024-06-29T08:40:52Z</time>
      </trkpt>
      <trkpt lat="47.15933" lon="4.93594">
        <ele>411.7</ele>
        <time>2024-06-29T08:40:53Z</time>
      </trkpt>
      <trkpt lat="47.15933" lon="4.93595">
        <ele>411.7</ele>
        <time>2024-06-29T08:40:54Z</time>
      </trkpt>
      <trkpt lat="47.15932" lon="4.93597">
        <ele>411.5</ele>
        <time>2024-06-29T08:40:55Z</time>
      </trkpt>
      <trkpt lat="47.15932" lon="4.93598">
        <ele>411.7</ele>
        <time>2024-06-29T08:40:56Z</time>
      </trkpt>
      <trkpt lat="47.15932" lon="4.936">
        <ele>411.7</ele>
        <time>2024-06-29T08:40:57Z</time>
      </trkpt>
      <trkpt lat="47.15932" lon="4.93601">
        <ele>411.9</ele>
        <time>2024-06-29T08:40:58Z</time>
      </trkpt>
      <trkpt lat="47.15931" lon="4.93602">
        <ele>411.9</ele>
        <time>2024-06-29T08:40:59Z</time>
      </trkpt>
      <trkpt lat="47.15931" lon="4.93604">
        <ele>412</ele>
        <time>2024-06-29T08:41:00Z</time>
      </trkpt>
      <trkpt lat="47.15931" lon="4.93605">
        <ele>411.7</ele>
        <time>2024-06-29T08:41:01Z</time>
      </trkpt>
      <trkpt lat="47.15931" lon="4.93607">
        <ele>411.6</ele>
        <time>2024-06-29T08:41:02Z</time>
      </trkpt>
      <trkpt lat="47.1593" lon="4.93608">
        <ele>411.3</ele>
        <time>2024-06-29T08:41:03Z</time>
      </trkpt>
      <trkpt lat="47.1593" lon="4.9361">
        <ele>411.5</ele>
        <time>2024-06-29T08:41:04Z</time>
      </trkpt>
      <trkpt lat="47.1593" lon="4.93611">
        <ele>411.5</ele>
        <time>2024-06-29T08:41:05Z</time>
      </trkpt>
      <trkpt lat="47.1593" lon="4.93613">
        <ele>411.1</ele>
        <time>2024-06-29T08:41:06Z</time>
      </trkpt>
      <trkpt lat="47.15929" lon="4.93615">
        <ele>411.2</ele>
        <time>2024-06-29T08:41:07Z</time>
      </trkpt>
      <trkpt lat="47.15929" lon="4.93616">
        <ele>411.1</ele>
        <time>2024-06-29T08:41:08Z</time>
      </trkpt>
      <trkpt lat="47.15929" lon="4.93618">
        <ele>411</ele>
        <time>2024-06-29T08:41:09Z</time>
      </trkpt>
      <trkpt lat="47.15929" lon="4.93619">
        <ele>411.1</ele>
        <time>2024-06-29T08:41:10Z</time>
      </trkpt>
      <trkpt lat="47.15928" lon="4.93621">
        <ele>411</ele>
        <time>2024-06-29T08:41:11Z</time>
      </trkpt>
      <trkpt lat="47.15928" lon="4.93622">
        <ele>410.9</ele>
        <time>2024-06-29T08:41:12Z</time>
      </trkpt>
      <trkpt lat="47.15928" lon="4.93624">
        <ele>411</ele>
        <time>2024-06-29T08:41:13Z</time>
      </trkpt>
      <trkpt lat="47.15927" lon="4.93626">
        <ele>410.9</ele>
        <time>2024-06-29T08:41:14Z</time>
      </trkpt>
      <trkpt lat="47.15927" lon="4.93627">
        <ele>410.9</ele>
        <time>2024-06-29T08:41:15Z</time>
      </trkpt>
      <trkpt lat="47.15927" lon="4.93629">
        <ele>410.8</ele>
        <time>2024-06-29T08:41:16Z</time>
      </trkpt>
      <trkpt lat="47.15926" lon="4.9363">
        <ele>410.6</ele>
        <time>2024-06-29T08:41:17Z</time>
      </trkpt>
      <trkpt lat="47.15926" lon="4.93632">
        <ele>410.5</ele>
        <time>2024-06-29T08:41:18Z</time>
      </trkpt>
      <trkpt lat="47.15926" lon="4.93633">
        <ele>410.4</ele>
        <time>2024-06-29T08:41:19Z</time>
      </trkpt>
      <trkpt lat="47.15926" lon="4.93635">
        <ele>410</ele>
        <time>2024-06-29T08:41:20Z</time>
      </trkpt>
      <trkpt lat="47.15926" lon="4.93637">
        <ele>409.9</ele>
        <time>2024-06-29T08:41:21Z</time>
      </trkpt>
      <trkpt lat="47.15926" lon="4.93638">
        <ele>409.9</ele>
        <time>2024-06-29T08:41:22Z</time>
      </trkpt>
      <trkpt lat="47.15926" lon="4.9364">
        <ele>409.8</ele>
        <time>2024-06-29T08:41:23Z</time>
      </trkpt>
      <trkpt lat="47.15925" lon="4.93641">
        <ele>410</ele>
        <time>2024-06-29T08:41:24Z</time>
      </trkpt>
      <trkpt lat="47.15925" lon="4.93643">
        <ele>409.9</ele>
        <time>2024-06-29T08:41:25Z</time>
      </trkpt>
      <trkpt lat="47.15925" lon="4.93644">
        <ele>409.8</ele>
        <time>2024-06-29T08:41:26Z</time>
      </trkpt>
      <trkpt lat="47.15924" lon="4.93646">
        <ele>409.8</ele>
        <time>2024-06-29T08:41:27Z</time>
      </trkpt>
      <trkpt lat="47.15924" lon="4.93647">
        <ele>409.9</ele>
        <time>2024-06-29T08:41:28Z</time>
      </trkpt>
      <trkpt lat="47.15924" lon="4.93649">
        <ele>409.8</ele>
        <time>2024-06-29T08:41:29Z</time>
      </trkpt>
      <trkpt lat="47.15924" lon="4.93651">
        <ele>409.9</ele>
        <time>2024-06-29T08:41:30Z</time>
      </trkpt>
      <trkpt lat="47.15923" lon="4.93652">
        <ele>409.8</ele>
        <time>2024-06-29T08:41:31Z</time>
      </trkpt>
      <trkpt lat="47.15923" lon="4.93654">
        <ele>409.8</ele>
        <time>2024-06-29T08:41:32Z</time>
      </trkpt>
      <trkpt lat="47.15923" lon="4.93655">
        <ele>410</ele>
        <time>2024-06-29T08:41:33Z</time>
      </trkpt>
      <trkpt lat="47.15923" lon="4.93657">
        <ele>410</ele>
        <time>2024-06-29T08:41:34Z</time>
      </trkpt>
      <trkpt lat="47.15922" lon="4.93659">
        <ele>410</ele>
        <time>2024-06-29T08:41:35Z</time>
      </trkpt>
      <trkpt lat="47.15922" lon="4.9366">
        <ele>409.9</ele>
        <time>2024-06-29T08:41:36Z</time>
      </trkpt>
      <trkpt lat="47.15922" lon="4.93662">
        <ele>409.8</ele>
        <time>2024-06-29T08:41:37Z</time>
      </trkpt>
      <trkpt lat="47.15921" lon="4.93664">
        <ele>409.9</ele>
        <time>2024-06-29T08:41:38Z</time>
      </trkpt>
      <trkpt lat="47.15921" lon="4.93665">
        <ele>409.7</ele>
        <time>2024-06-29T08:41:39Z</time>
      </trkpt>
      <trkpt lat="47.15921" lon="4.93667">
        <ele>409.6</ele>
        <time>2024-06-29T08:41:40Z</time>
      </trkpt>
      <trkpt lat="47.15921" lon="4.93668">
        <ele>409.7</ele>
        <time>2024-06-29T08:41:41Z</time>
      </trkpt>
      <trkpt lat="47.1592" lon="4.9367">
        <ele>409.7</ele>
        <time>2024-06-29T08:41:42Z</time>
      </trkpt>
      <trkpt lat="47.1592" lon="4.93671">
        <ele>409.7</ele>
        <time>2024-06-29T08:41:43Z</time>
      </trkpt>
      <trkpt lat="47.1592" lon="4.93673">
        <ele>409.8</ele>
        <time>2024-06-29T08:41:44Z</time>
      </trkpt>
      <trkpt lat="47.1592" lon="4.93674">
        <ele>409.8</ele>
        <time>2024-06-29T08:41:45Z</time>
      </trkpt>
      <trkpt lat="47.1592" lon="4.93676">
        <ele>409.9</ele>
        <time>2024-06-29T08:41:46Z</time>
      </trkpt>
      <trkpt lat="47.15919" lon="4.93678">
        <ele>410</ele>
        <time>2024-06-29T08:41:47Z</time>
      </trkpt>
      <trkpt lat="47.15919" lon="4.93679">
        <ele>410.1</ele>
        <time>2024-06-29T08:41:48Z</time>
      </trkpt>
      <trkpt lat="47.15919" lon="4.93681">
        <ele>410.2</ele>
        <time>2024-06-29T08:41:49Z</time>
      </trkpt>
      <trkpt lat="47.15919" lon="4.93682">
        <ele>410.2</ele>
        <time>2024-06-29T08:41:50Z</time>
      </trkpt>
      <trkpt lat="47.15918" lon="4.93684">
        <ele>410.1</ele>
        <time>2024-06-29T08:41:51Z</time>
      </trkpt>
      <trkpt lat="47.15918" lon="4.93686">
        <ele>409.9</ele>
        <time>2024-06-29T08:41:52Z</time>
      </trkpt>
      <trkpt lat="47.15918" lon="4.93687">
        <ele>409.8</ele>
        <time>2024-06-29T08:41:53Z</time>
      </trkpt>
      <trkpt lat="47.15918" lon="4.93689">
        <ele>409.6</ele>
        <time>2024-06-29T08:41:54Z</time>
      </trkpt>
      <trkpt lat="47.15918" lon="4.9369">
        <ele>409.5</ele>
        <time>2024-06-29T08:41:55Z</time>
      </trkpt>
      <trkpt lat="47.15918" lon="4.93692">
        <ele>409.4</ele>
        <time>2024-06-29T08:41:56Z</time>
      </trkpt>
      <trkpt lat="47.15918" lon="4.93693">
        <ele>409.5</ele>
        <time>2024-06-29T08:41:57Z</time>
      </trkpt>
      <trkpt lat="47.15917" lon="4.93695">
        <ele>409.5</ele>
        <time>2024-06-29T08:41:58Z</time>
      </trkpt>
      <trkpt lat="47.15917" lon="4.93697">
        <ele>409.4</ele>
        <time>2024-06-29T08:41:59Z</time>
      </trkpt>
      <trkpt lat="47.15917" lon="4.93698">
        <ele>409.6</ele>
        <time>2024-06-29T08:42:00Z</time>
      </trkpt>
      <trkpt lat="47.15916" lon="4.937">
        <ele>409.7</ele>
        <time>2024-06-29T08:42:01Z</time>
      </trkpt>
      <trkpt lat="47.15916" lon="4.93701">
        <ele>409.5</ele>
        <time>2024-06-29T08:42:02Z</time>
      </trkpt>
      <trkpt lat="47.15916" lon="4.93703">
        <ele>409.6</ele>
        <time>2024-06-29T08:42:03Z</time>
      </trkpt>
      <trkpt lat="47.15916" lon="4.93704">
        <ele>409.4</ele>
        <time>2024-06-29T08:42:04Z</time>
      </trkpt>
      <trkpt lat="47.15916" lon="4.93706">
        <ele>409.4</ele>
        <time>2024-06-29T08:42:05Z</time>
      </trkpt>
      <trkpt lat="47.15916" lon="4.93708">
        <ele>409.3</ele>
        <time>2024-06-29T08:42:06Z</time>
      </trkpt>
      <trkpt lat="47.15915" lon="4.93709">
        <ele>409.2</ele>
        <time>2024-06-29T08:42:07Z</time>
      </trkpt>
      <trkpt lat="47.15915" lon="4.93711">
        <ele>409</ele>
        <time>2024-06-29T08:42:08Z</time>
      </trkpt>
      <trkpt lat="47.15915" lon="4.93712">
        <ele>409.1</ele>
        <time>2024-06-29T08:42:09Z</time>
      </trkpt>
      <trkpt lat="47.15915" lon="4.93714">
        <ele>409.2</ele>
        <time>2024-06-29T08:42:10Z</time>
      </trkpt>
      <trkpt lat="47.15915" lon="4.93715">
        <ele>409.2</ele>
        <time>2024-06-29T08:42:11Z</time>
      </trkpt>
      <trkpt lat="47.15914" lon="4.93717">
        <ele>409.3</ele>
        <time>2024-06-29T08:42:12Z</time>
      </trkpt>
      <trkpt lat="47.15914" lon="4.93718">
        <ele>409.7</ele>
        <time>2024-06-29T08:42:13Z</time>
      </trkpt>
      <trkpt lat="47.15914" lon="4.9372">
        <ele>409.2</ele>
        <time>2024-06-29T08:42:14Z</time>
      </trkpt>
      <trkpt lat="47.15914" lon="4.93722">
        <ele>409.2</ele>
        <time>2024-06-29T08:42:15Z</time>
      </trkpt>
      <trkpt lat="47.15914" lon="4.93723">
        <ele>409.2</ele>
        <time>2024-06-29T08:42:16Z</time>
      </trkpt>
      <trkpt lat="47.15914" lon="4.93725">
        <ele>409.5</ele>
        <time>2024-06-29T08:42:17Z</time>
      </trkpt>
      <trkpt lat="47.15914" lon="4.93727">
        <ele>408.6</ele>
        <time>2024-06-29T08:42:19Z</time>
      </trkpt>
      <trkpt lat="47.15913" lon="4.93729">
        <ele>408.9</ele>
        <time>2024-06-29T08:42:20Z</time>
      </trkpt>
      <trkpt lat="47.15913" lon="4.9373">
        <ele>409.2</ele>
        <time>2024-06-29T08:42:21Z</time>
      </trkpt>
      <trkpt lat="47.15912" lon="4.93732">
        <ele>408.3</ele>
        <time>2024-06-29T08:42:22Z</time>
      </trkpt>
      <trkpt lat="47.15912" lon="4.93734">
        <ele>409.1</ele>
        <time>2024-06-29T08:42:23Z</time>
      </trkpt>
      <trkpt lat="47.15912" lon="4.93736">
        <ele>409.6</ele>
        <time>2024-06-29T08:42:24Z</time>
      </trkpt>
      <trkpt lat="47.15912" lon="4.93737">
        <ele>410.4</ele>
        <time>2024-06-29T08:42:25Z</time>
      </trkpt>
      <trkpt lat="47.15912" lon="4.93739">
        <ele>412.4</ele>
        <time>2024-06-29T08:42:26Z</time>
      </trkpt>
      <trkpt lat="47.15912" lon="4.9374">
        <ele>412.4</ele>
        <time>2024-06-29T08:42:27Z</time>
      </trkpt>
      <trkpt lat="47.15912" lon="4.93742">
        <ele>411.4</ele>
        <time>2024-06-29T08:42:28Z</time>
      </trkpt>
      <trkpt lat="47.15912" lon="4.93744">
        <ele>412.8</ele>
        <time>2024-06-29T08:42:29Z</time>
      </trkpt>
      <trkpt lat="47.15912" lon="4.93745">
        <ele>411.8</ele>
        <time>2024-06-29T08:42:30Z</time>
      </trkpt>
      <trkpt lat="47.15912" lon="4.93747">
        <ele>411.3</ele>
        <time>2024-06-29T08:42:31Z</time>
      </trkpt>
      <trkpt lat="47.15912" lon="4.93748">
        <ele>410.3</ele>
        <time>2024-06-29T08:42:32Z</time>
      </trkpt>
      <trkpt lat="47.15912" lon="4.9375">
        <ele>409.9</ele>
        <time>2024-06-29T08:42:33Z</time>
      </trkpt>
      <trkpt lat="47.15912" lon="4.93752">
        <ele>409.7</ele>
        <time>2024-06-29T08:42:34Z</time>
      </trkpt>
      <trkpt lat="47.15912" lon="4.93753">
        <ele>409.2</ele>
        <time>2024-06-29T08:42:35Z</time>
      </trkpt>
      <trkpt lat="47.15912" lon="4.93755">
        <ele>409.4</ele>
        <time>2024-06-29T08:42:36Z</time>
      </trkpt>
      <trkpt lat="47.15912" lon="4.93757">
        <ele>409.4</ele>
        <time>2024-06-29T08:42:37Z</time>
      </trkpt>
      <trkpt lat="47.15912" lon="4.93758">
        <ele>409.5</ele>
        <time>2024-06-29T08:42:38Z</time>
      </trkpt>
      <trkpt lat="47.15912" lon="4.9376">
        <ele>409.9</ele>
        <time>2024-06-29T08:42:39Z</time>
      </trkpt>
      <trkpt lat="47.15911" lon="4.93761">
        <ele>410</ele>
        <time>2024-06-29T08:42:40Z</time>
      </trkpt>
      <trkpt lat="47.15911" lon="4.93763">
        <ele>409.9</ele>
        <time>2024-06-29T08:42:41Z</time>
      </trkpt>
      <trkpt lat="47.15911" lon="4.93765">
        <ele>409.3</ele>
        <time>2024-06-29T08:42:42Z</time>
      </trkpt>
      <trkpt lat="47.15911" lon="4.93766">
        <ele>409.1</ele>
        <time>2024-06-29T08:42:43Z</time>
      </trkpt>
      <trkpt lat="47.15911" lon="4.93768">
        <ele>408.9</ele>
        <time>2024-06-29T08:42:44Z</time>
      </trkpt>
      <trkpt lat="47.15911" lon="4.93769">
        <ele>408.9</ele>
        <time>2024-06-29T08:42:45Z</time>
      </trkpt>
      <trkpt lat="47.15911" lon="4.93771">
        <ele>408.8</ele>
        <time>2024-06-29T08:42:46Z</time>
      </trkpt>
      <trkpt lat="47.15911" lon="4.93772">
        <ele>408.6</ele>
        <time>2024-06-29T08:42:47Z</time>
      </trkpt>
      <trkpt lat="47.15911" lon="4.93774">
        <ele>408.6</ele>
        <time>2024-06-29T08:42:48Z</time>
      </trkpt>
      <trkpt lat="47.15911" lon="4.93776">
        <ele>408.6</ele>
        <time>2024-06-29T08:42:49Z</time>
      </trkpt>
      <trkpt lat="47.15911" lon="4.93777">
        <ele>408.4</ele>
        <time>2024-06-29T08:42:50Z</time>
      </trkpt>
      <trkpt lat="47.15911" lon="4.93779">
        <ele>408.6</ele>
        <time>2024-06-29T08:42:51Z</time>
      </trkpt>
      <trkpt lat="47.15911" lon="4.9378">
        <ele>407.8</ele>
        <time>2024-06-29T08:42:52Z</time>
      </trkpt>
      <trkpt lat="47.1591" lon="4.93782">
        <ele>407.7</ele>
        <time>2024-06-29T08:42:53Z</time>
      </trkpt>
      <trkpt lat="47.1591" lon="4.93783">
        <ele>407.6</ele>
        <time>2024-06-29T08:42:54Z</time>
      </trkpt>
      <trkpt lat="47.1591" lon="4.93785">
        <ele>407.2</ele>
        <time>2024-06-29T08:42:55Z</time>
      </trkpt>
      <trkpt lat="47.1591" lon="4.93786">
        <ele>406.3</ele>
        <time>2024-06-29T08:42:56Z</time>
      </trkpt>
      <trkpt lat="47.15909" lon="4.93788">
        <ele>406.4</ele>
        <time>2024-06-29T08:42:57Z</time>
      </trkpt>
      <trkpt lat="47.15909" lon="4.93789">
        <ele>406.5</ele>
        <time>2024-06-29T08:42:58Z</time>
      </trkpt>
      <trkpt lat="47.15909" lon="4.93791">
        <ele>406.7</ele>
        <time>2024-06-29T08:42:59Z</time>
      </trkpt>
      <trkpt lat="47.15909" lon="4.93793">
        <ele>404.9</ele>
        <time>2024-06-29T08:43:00Z</time>
      </trkpt>
      <trkpt lat="47.15909" lon="4.93795">
        <ele>405.1</ele>
        <time>2024-06-29T08:43:01Z</time>
      </trkpt>
      <trkpt lat="47.15908" lon="4.93797">
        <ele>404.4</ele>
        <time>2024-06-29T08:43:02Z</time>
      </trkpt>
      <trkpt lat="47.15908" lon="4.93798">
        <ele>403.9</ele>
        <time>2024-06-29T08:43:03Z</time>
      </trkpt>
      <trkpt lat="47.15908" lon="4.938">
        <ele>402.3</ele>
        <time>2024-06-29T08:43:04Z</time>
      </trkpt>
      <trkpt lat="47.15908" lon="4.93802">
        <ele>403.2</ele>
        <time>2024-06-29T08:43:05Z</time>
      </trkpt>
      <trkpt lat="47.15908" lon="4.93804">
        <ele>403.3</ele>
        <time>2024-06-29T08:43:06Z</time>
      </trkpt>
      <trkpt lat="47.15909" lon="4.93805">
        <ele>402.7</ele>
        <time>2024-06-29T08:43:07Z</time>
      </trkpt>
      <trkpt lat="47.15909" lon="4.93807">
        <ele>403.1</ele>
        <time>2024-06-29T08:43:08Z</time>
      </trkpt>
      <trkpt lat="47.15909" lon="4.93808">
        <ele>403.4</ele>
        <time>2024-06-29T08:43:09Z</time>
      </trkpt>
      <trkpt lat="47.15909" lon="4.9381">
        <ele>403.4</ele>
        <time>2024-06-29T08:43:10Z</time>
      </trkpt>
      <trkpt lat="47.15909" lon="4.93812">
        <ele>403.1</ele>
        <time>2024-06-29T08:43:11Z</time>
      </trkpt>
      <trkpt lat="47.15908" lon="4.93813">
        <ele>402.7</ele>
        <time>2024-06-29T08:43:12Z</time>
      </trkpt>
      <trkpt lat="47.15908" lon="4.93815">
        <ele>402.3</ele>
        <time>2024-06-29T08:43:13Z</time>
      </trkpt>
      <trkpt lat="47.15908" lon="4.93816">
        <ele>400.8</ele>
        <time>2024-06-29T08:43:14Z</time>
      </trkpt>
      <trkpt lat="47.15908" lon="4.93818">
        <ele>402</ele>
        <time>2024-06-29T08:43:15Z</time>
      </trkpt>
      <trkpt lat="47.15908" lon="4.93819">
        <ele>401.7</ele>
        <time>2024-06-29T08:43:16Z</time>
      </trkpt>
      <trkpt lat="47.15909" lon="4.93821">
        <ele>401.3</ele>
        <time>2024-06-29T08:43:17Z</time>
      </trkpt>
      <trkpt lat="47.15909" lon="4.93822">
        <ele>402.2</ele>
        <time>2024-06-29T08:43:18Z</time>
      </trkpt>
      <trkpt lat="47.15909" lon="4.93824">
        <ele>401.7</ele>
        <time>2024-06-29T08:43:20Z</time>
      </trkpt>
      <trkpt lat="47.15909" lon="4.93825">
        <ele>402</ele>
        <time>2024-06-29T08:43:21Z</time>
      </trkpt>
      <trkpt lat="47.15908" lon="4.93827">
        <ele>401.4</ele>
        <time>2024-06-29T08:43:22Z</time>
      </trkpt>
      <trkpt lat="47.15907" lon="4.93828">
        <ele>402.9</ele>
        <time>2024-06-29T08:43:23Z</time>
      </trkpt>
      <trkpt lat="47.15906" lon="4.93829">
        <ele>404.8</ele>
        <time>2024-06-29T08:43:24Z</time>
      </trkpt>
      <trkpt lat="47.15905" lon="4.9383">
        <ele>405.3</ele>
        <time>2024-06-29T08:43:25Z</time>
      </trkpt>
      <trkpt lat="47.15905" lon="4.93831">
        <ele>404</ele>
        <time>2024-06-29T08:43:26Z</time>
      </trkpt>
      <trkpt lat="47.15905" lon="4.93833">
        <ele>404.3</ele>
        <time>2024-06-29T08:43:28Z</time>
      </trkpt>
      <trkpt lat="47.15905" lon="4.93835">
        <ele>403</ele>
        <time>2024-06-29T08:43:30Z</time>
      </trkpt>
      <trkpt lat="47.15905" lon="4.93838">
        <ele>402.4</ele>
        <time>2024-06-29T08:43:32Z</time>
      </trkpt>
      <trkpt lat="47.15905" lon="4.93839">
        <ele>402.9</ele>
        <time>2024-06-29T08:43:33Z</time>
      </trkpt>
      <trkpt lat="47.15905" lon="4.93841">
        <ele>403.6</ele>
        <time>2024-06-29T08:43:34Z</time>
      </trkpt>
      <trkpt lat="47.15905" lon="4.93842">
        <ele>403.8</ele>
        <time>2024-06-29T08:43:35Z</time>
      </trkpt>
      <trkpt lat="47.15904" lon="4.93843">
        <ele>404</ele>
        <time>2024-06-29T08:43:36Z</time>
      </trkpt>
      <trkpt lat="47.15904" lon="4.93845">
        <ele>404</ele>
        <time>2024-06-29T08:43:37Z</time>
      </trkpt>
      <trkpt lat="47.15904" lon="4.93846">
        <ele>403.9</ele>
        <time>2024-06-29T08:43:38Z</time>
      </trkpt>
      <trkpt lat="47.15904" lon="4.93848">
        <ele>404.1</ele>
        <time>2024-06-29T08:43:39Z</time>
      </trkpt>
      <trkpt lat="47.15904" lon="4.93849">
        <ele>403.9</ele>
        <time>2024-06-29T08:43:40Z</time>
      </trkpt>
      <trkpt lat="47.15903" lon="4.93851">
        <ele>404.2</ele>
        <time>2024-06-29T08:43:42Z</time>
      </trkpt>
      <trkpt lat="47.15903" lon="4.93854">
        <ele>403.4</ele>
        <time>2024-06-29T08:43:44Z</time>
      </trkpt>
      <trkpt lat="47.15903" lon="4.93855">
        <ele>403.7</ele>
        <time>2024-06-29T08:43:45Z</time>
      </trkpt>
      <trkpt lat="47.15903" lon="4.93858">
        <ele>402.8</ele>
        <time>2024-06-29T08:43:48Z</time>
      </trkpt>
      <trkpt lat="47.15903" lon="4.93859">
        <ele>402.6</ele>
        <time>2024-06-29T08:43:49Z</time>
      </trkpt>
      <trkpt lat="47.15903" lon="4.93861">
        <ele>402.6</ele>
        <time>2024-06-29T08:43:50Z</time>
      </trkpt>
      <trkpt lat="47.15903" lon="4.93863">
        <ele>402.6</ele>
        <time>2024-06-29T08:43:51Z</time>
      </trkpt>
      <trkpt lat="47.15902" lon="4.93864">
        <ele>402.3</ele>
        <time>2024-06-29T08:43:52Z</time>
      </trkpt>
      <trkpt lat="47.15902" lon="4.93866">
        <ele>402.3</ele>
        <time>2024-06-29T08:43:53Z</time>
      </trkpt>
      <trkpt lat="47.15902" lon="4.93867">
        <ele>402.3</ele>
        <time>2024-06-29T08:43:54Z</time>
      </trkpt>
      <trkpt lat="47.15902" lon="4.93869">
        <ele>402.2</ele>
        <time>2024-06-29T08:43:55Z</time>
      </trkpt>
      <trkpt lat="47.15902" lon="4.93871">
        <ele>402.1</ele>
        <time>2024-06-29T08:43:56Z</time>
      </trkpt>
      <trkpt lat="47.15901" lon="4.93872">
        <ele>402.1</ele>
        <time>2024-06-29T08:43:57Z</time>
      </trkpt>
      <trkpt lat="47.15901" lon="4.93874">
        <ele>402.1</ele>
        <time>2024-06-29T08:43:58Z</time>
      </trkpt>
      <trkpt lat="47.15901" lon="4.93875">
        <ele>402.1</ele>
        <time>2024-06-29T08:43:59Z</time>
      </trkpt>
      <trkpt lat="47.15901" lon="4.93877">
        <ele>401.8</ele>
        <time>2024-06-29T08:44:00Z</time>
      </trkpt>
      <trkpt lat="47.159" lon="4.93878">
        <ele>401.9</ele>
        <time>2024-06-29T08:44:01Z</time>
      </trkpt>
      <trkpt lat="47.159" lon="4.9388">
        <ele>401.8</ele>
        <time>2024-06-29T08:44:02Z</time>
      </trkpt>
      <trkpt lat="47.159" lon="4.93881">
        <ele>401.6</ele>
        <time>2024-06-29T08:44:03Z</time>
      </trkpt>
      <trkpt lat="47.159" lon="4.93883">
        <ele>401.4</ele>
        <time>2024-06-29T08:44:04Z</time>
      </trkpt>
      <trkpt lat="47.15899" lon="4.93884">
        <ele>401</ele>
        <time>2024-06-29T08:44:05Z</time>
      </trkpt>
      <trkpt lat="47.15899" lon="4.93886">
        <ele>401</ele>
        <time>2024-06-29T08:44:06Z</time>
      </trkpt>
      <trkpt lat="47.15899" lon="4.93887">
        <ele>401</ele>
        <time>2024-06-29T08:44:07Z</time>
      </trkpt>
      <trkpt lat="47.15899" lon="4.93888">
        <ele>401</ele>
        <time>2024-06-29T08:44:08Z</time>
      </trkpt>
      <trkpt lat="47.15899" lon="4.9389">
        <ele>401.1</ele>
        <time>2024-06-29T08:44:09Z</time>
      </trkpt>
      <trkpt lat="47.15898" lon="4.93891">
        <ele>401.2</ele>
        <time>2024-06-29T08:44:10Z</time>
      </trkpt>
      <trkpt lat="47.15898" lon="4.93893">
        <ele>401.1</ele>
        <time>2024-06-29T08:44:11Z</time>
      </trkpt>
      <trkpt lat="47.15898" lon="4.93894">
        <ele>401.1</ele>
        <time>2024-06-29T08:44:12Z</time>
      </trkpt>
      <trkpt lat="47.15898" lon="4.93895">
        <ele>400.8</ele>
        <time>2024-06-29T08:44:13Z</time>
      </trkpt>
      <trkpt lat="47.15898" lon="4.93897">
        <ele>400.8</ele>
        <time>2024-06-29T08:44:14Z</time>
      </trkpt>
      <trkpt lat="47.15898" lon="4.93898">
        <ele>401.1</ele>
        <time>2024-06-29T08:44:15Z</time>
      </trkpt>
      <trkpt lat="47.15897" lon="4.93901">
        <ele>401</ele>
        <time>2024-06-29T08:44:17Z</time>
      </trkpt>
      <trkpt lat="47.15897" lon="4.93903">
        <ele>401.3</ele>
        <time>2024-06-29T08:44:19Z</time>
      </trkpt>
      <trkpt lat="47.15897" lon="4.93905">
        <ele>400.6</ele>
        <time>2024-06-29T08:44:20Z</time>
      </trkpt>
      <trkpt lat="47.15897" lon="4.93906">
        <ele>400.6</ele>
        <time>2024-06-29T08:44:21Z</time>
      </trkpt>
      <trkpt lat="47.15897" lon="4.93908">
        <ele>400.3</ele>
        <time>2024-06-29T08:44:22Z</time>
      </trkpt>
      <trkpt lat="47.15896" lon="4.93909">
        <ele>400.2</ele>
        <time>2024-06-29T08:44:23Z</time>
      </trkpt>
      <trkpt lat="47.15896" lon="4.93911">
        <ele>399.9</ele>
        <time>2024-06-29T08:44:24Z</time>
      </trkpt>
      <trkpt lat="47.15896" lon="4.93912">
        <ele>399.5</ele>
        <time>2024-06-29T08:44:25Z</time>
      </trkpt>
      <trkpt lat="47.15896" lon="4.93914">
        <ele>399.2</ele>
        <time>2024-06-29T08:44:26Z</time>
      </trkpt>
      <trkpt lat="47.15896" lon="4.93915">
        <ele>399.2</ele>
        <time>2024-06-29T08:44:27Z</time>
      </trkpt>
      <trkpt lat="47.15896" lon="4.93917">
        <ele>399</ele>
        <time>2024-06-29T08:44:28Z</time>
      </trkpt>
      <trkpt lat="47.15896" lon="4.93919">
        <ele>398.3</ele>
        <time>2024-06-29T08:44:30Z</time>
      </trkpt>
      <trkpt lat="47.15896" lon="4.93921">
        <ele>398.3</ele>
        <time>2024-06-29T08:44:31Z</time>
      </trkpt>
      <trkpt lat="47.15896" lon="4.93922">
        <ele>398.1</ele>
        <time>2024-06-29T08:44:32Z</time>
      </trkpt>
      <trkpt lat="47.15895" lon="4.93924">
        <ele>398.2</ele>
        <time>2024-06-29T08:44:33Z</time>
      </trkpt>
      <trkpt lat="47.15895" lon="4.93925">
        <ele>398.1</ele>
        <time>2024-06-29T08:44:34Z</time>
      </trkpt>
      <trkpt lat="47.15895" lon="4.93927">
        <ele>398</ele>
        <time>2024-06-29T08:44:35Z</time>
      </trkpt>
      <trkpt lat="47.15895" lon="4.93928">
        <ele>397.9</ele>
        <time>2024-06-29T08:44:36Z</time>
      </trkpt>
      <trkpt lat="47.15895" lon="4.9393">
        <ele>398</ele>
        <time>2024-06-29T08:44:37Z</time>
      </trkpt>
      <trkpt lat="47.15895" lon="4.93931">
        <ele>397.8</ele>
        <time>2024-06-29T08:44:38Z</time>
      </trkpt>
      <trkpt lat="47.15894" lon="4.93932">
        <ele>397.9</ele>
        <time>2024-06-29T08:44:39Z</time>
      </trkpt>
      <trkpt lat="47.15894" lon="4.93935">
        <ele>397.4</ele>
        <time>2024-06-29T08:44:41Z</time>
      </trkpt>
      <trkpt lat="47.15894" lon="4.93937">
        <ele>397.4</ele>
        <time>2024-06-29T08:44:43Z</time>
      </trkpt>
      <trkpt lat="47.15893" lon="4.93939">
        <ele>397.3</ele>
        <time>2024-06-29T08:44:45Z</time>
      </trkpt>
      <trkpt lat="47.15893" lon="4.93942">
        <ele>397.3</ele>
        <time>2024-06-29T08:44:47Z</time>
      </trkpt>
      <trkpt lat="47.15892" lon="4.93944">
        <ele>397.2</ele>
        <time>2024-06-29T08:44:49Z</time>
      </trkpt>
      <trkpt lat="47.15892" lon="4.93946">
        <ele>396.9</ele>
        <time>2024-06-29T08:44:51Z</time>
      </trkpt>
      <trkpt lat="47.15891" lon="4.93948">
        <ele>396.2</ele>
        <time>2024-06-29T08:44:53Z</time>
      </trkpt>
      <trkpt lat="47.15891" lon="4.93949">
        <ele>396</ele>
        <time>2024-06-29T08:44:54Z</time>
      </trkpt>
      <trkpt lat="47.1589" lon="4.9395">
        <ele>396.1</ele>
        <time>2024-06-29T08:44:55Z</time>
      </trkpt>
      <trkpt lat="47.1589" lon="4.93952">
        <ele>395.8</ele>
        <time>2024-06-29T08:44:56Z</time>
      </trkpt>
      <trkpt lat="47.15889" lon="4.93953">
        <ele>395.7</ele>
        <time>2024-06-29T08:44:57Z</time>
      </trkpt>
      <trkpt lat="47.15889" lon="4.93955">
        <ele>395.6</ele>
        <time>2024-06-29T08:44:58Z</time>
      </trkpt>
      <trkpt lat="47.15889" lon="4.93956">
        <ele>395.3</ele>
        <time>2024-06-29T08:44:59Z</time>
      </trkpt>
      <trkpt lat="47.15889" lon="4.93958">
        <ele>395</ele>
        <time>2024-06-29T08:45:00Z</time>
      </trkpt>
      <trkpt lat="47.15888" lon="4.93959">
        <ele>394.9</ele>
        <time>2024-06-29T08:45:01Z</time>
      </trkpt>
      <trkpt lat="47.15888" lon="4.93961">
        <ele>394.9</ele>
        <time>2024-06-29T08:45:02Z</time>
      </trkpt>
      <trkpt lat="47.15888" lon="4.93962">
        <ele>394.7</ele>
        <time>2024-06-29T08:45:03Z</time>
      </trkpt>
      <trkpt lat="47.15888" lon="4.93963">
        <ele>394.5</ele>
        <time>2024-06-29T08:45:04Z</time>
      </trkpt>
      <trkpt lat="47.15887" lon="4.93966">
        <ele>394.5</ele>
        <time>2024-06-29T08:45:06Z</time>
      </trkpt>
      <trkpt lat="47.15887" lon="4.93969">
        <ele>394.1</ele>
        <time>2024-06-29T08:45:08Z</time>
      </trkpt>
      <trkpt lat="47.15886" lon="4.93971">
        <ele>394</ele>
        <time>2024-06-29T08:45:10Z</time>
      </trkpt>
      <trkpt lat="47.15886" lon="4.93972">
        <ele>393.7</ele>
        <time>2024-06-29T08:45:11Z</time>
      </trkpt>
      <trkpt lat="47.15886" lon="4.93973">
        <ele>393.7</ele>
        <time>2024-06-29T08:45:12Z</time>
      </trkpt>
      <trkpt lat="47.15885" lon="4.93975">
        <ele>393.6</ele>
        <time>2024-06-29T08:45:13Z</time>
      </trkpt>
      <trkpt lat="47.15885" lon="4.93977">
        <ele>393.1</ele>
        <time>2024-06-29T08:45:15Z</time>
      </trkpt>
      <trkpt lat="47.15885" lon="4.93979">
        <ele>392.9</ele>
        <time>2024-06-29T08:45:17Z</time>
      </trkpt>
      <trkpt lat="47.15884" lon="4.93982">
        <ele>392.9</ele>
        <time>2024-06-29T08:45:19Z</time>
      </trkpt>
      <trkpt lat="47.15884" lon="4.93983">
        <ele>392.8</ele>
        <time>2024-06-29T08:45:21Z</time>
      </trkpt>
      <trkpt lat="47.15883" lon="4.93986">
        <ele>392.4</ele>
        <time>2024-06-29T08:45:23Z</time>
      </trkpt>
      <trkpt lat="47.15883" lon="4.93987">
        <ele>392.5</ele>
        <time>2024-06-29T08:45:24Z</time>
      </trkpt>
      <trkpt lat="47.15883" lon="4.93988">
        <ele>392.3</ele>
        <time>2024-06-29T08:45:25Z</time>
      </trkpt>
      <trkpt lat="47.15882" lon="4.9399">
        <ele>392.1</ele>
        <time>2024-06-29T08:45:26Z</time>
      </trkpt>
      <trkpt lat="47.15882" lon="4.93991">
        <ele>392</ele>
        <time>2024-06-29T08:45:27Z</time>
      </trkpt>
      <trkpt lat="47.15882" lon="4.93993">
        <ele>391.9</ele>
        <time>2024-06-29T08:45:28Z</time>
      </trkpt>
      <trkpt lat="47.15881" lon="4.93994">
        <ele>391.6</ele>
        <time>2024-06-29T08:45:29Z</time>
      </trkpt>
      <trkpt lat="47.15881" lon="4.93995">
        <ele>391.6</ele>
        <time>2024-06-29T08:45:30Z</time>
      </trkpt>
      <trkpt lat="47.1588" lon="4.93997">
        <ele>391.5</ele>
        <time>2024-06-29T08:45:31Z</time>
      </trkpt>
      <trkpt lat="47.1588" lon="4.93998">
        <ele>391.4</ele>
        <time>2024-06-29T08:45:32Z</time>
      </trkpt>
      <trkpt lat="47.15879" lon="4.93999">
        <ele>391.3</ele>
        <time>2024-06-29T08:45:33Z</time>
      </trkpt>
      <trkpt lat="47.15879" lon="4.94001">
        <ele>391.3</ele>
        <time>2024-06-29T08:45:34Z</time>
      </trkpt>
      <trkpt lat="47.15878" lon="4.94002">
        <ele>391.2</ele>
        <time>2024-06-29T08:45:35Z</time>
      </trkpt>
      <trkpt lat="47.15878" lon="4.94003">
        <ele>391</ele>
        <time>2024-06-29T08:45:36Z</time>
      </trkpt>
      <trkpt lat="47.15877" lon="4.94004">
        <ele>390.5</ele>
        <time>2024-06-29T08:45:37Z</time>
      </trkpt>
      <trkpt lat="47.15876" lon="4.94005">
        <ele>390.1</ele>
        <time>2024-06-29T08:45:38Z</time>
      </trkpt>
      <trkpt lat="47.15876" lon="4.94006">
        <ele>389.8</ele>
        <time>2024-06-29T08:45:39Z</time>
      </trkpt>
      <trkpt lat="47.15875" lon="4.94007">
        <ele>389.7</ele>
        <time>2024-06-29T08:45:40Z</time>
      </trkpt>
      <trkpt lat="47.15874" lon="4.94009">
        <ele>389.3</ele>
        <time>2024-06-29T08:45:41Z</time>
      </trkpt>
      <trkpt lat="47.15874" lon="4.94009">
        <ele>389.3</ele>
        <time>2024-06-29T08:45:42Z</time>
      </trkpt>
      <trkpt lat="47.15873" lon="4.9401">
        <ele>389.3</ele>
        <time>2024-06-29T08:45:43Z</time>
      </trkpt>
      <trkpt lat="47.15872" lon="4.94011">
        <ele>389.2</ele>
        <time>2024-06-29T08:45:44Z</time>
      </trkpt>
      <trkpt lat="47.15871" lon="4.94012">
        <ele>389.3</ele>
        <time>2024-06-29T08:45:45Z</time>
      </trkpt>
      <trkpt lat="47.1587" lon="4.94013">
        <ele>388.9</ele>
        <time>2024-06-29T08:45:46Z</time>
      </trkpt>
      <trkpt lat="47.15869" lon="4.94014">
        <ele>388.7</ele>
        <time>2024-06-29T08:45:47Z</time>
      </trkpt>
      <trkpt lat="47.15868" lon="4.94015">
        <ele>388.7</ele>
        <time>2024-06-29T08:45:48Z</time>
      </trkpt>
      <trkpt lat="47.15868" lon="4.94015">
        <ele>388.7</ele>
        <time>2024-06-29T08:45:49Z</time>
      </trkpt>
      <trkpt lat="47.15867" lon="4.94016">
        <ele>388.9</ele>
        <time>2024-06-29T08:45:50Z</time>
      </trkpt>
      <trkpt lat="47.15866" lon="4.94017">
        <ele>388.6</ele>
        <time>2024-06-29T08:45:51Z</time>
      </trkpt>
      <trkpt lat="47.15865" lon="4.94017">
        <ele>388.9</ele>
        <time>2024-06-29T08:45:52Z</time>
      </trkpt>
      <trkpt lat="47.15864" lon="4.94018">
        <ele>388.9</ele>
        <time>2024-06-29T08:45:53Z</time>
      </trkpt>
      <trkpt lat="47.15863" lon="4.94018">
        <ele>388.7</ele>
        <time>2024-06-29T08:45:54Z</time>
      </trkpt>
      <trkpt lat="47.15862" lon="4.94019">
        <ele>388.8</ele>
        <time>2024-06-29T08:45:55Z</time>
      </trkpt>
      <trkpt lat="47.15861" lon="4.9402">
        <ele>388.6</ele>
        <time>2024-06-29T08:45:56Z</time>
      </trkpt>
      <trkpt lat="47.1586" lon="4.94021">
        <ele>388</ele>
        <time>2024-06-29T08:45:57Z</time>
      </trkpt>
      <trkpt lat="47.1586" lon="4.94021">
        <ele>388.2</ele>
        <time>2024-06-29T08:45:58Z</time>
      </trkpt>
      <trkpt lat="47.15859" lon="4.94022">
        <ele>388.3</ele>
        <time>2024-06-29T08:45:59Z</time>
      </trkpt>
      <trkpt lat="47.15858" lon="4.94023">
        <ele>388.4</ele>
        <time>2024-06-29T08:46:00Z</time>
      </trkpt>
      <trkpt lat="47.15857" lon="4.94023">
        <ele>388.4</ele>
        <time>2024-06-29T08:46:01Z</time>
      </trkpt>
      <trkpt lat="47.15856" lon="4.94024">
        <ele>388.3</ele>
        <time>2024-06-29T08:46:02Z</time>
      </trkpt>
      <trkpt lat="47.15855" lon="4.94025">
        <ele>389</ele>
        <time>2024-06-29T08:46:04Z</time>
      </trkpt>
      <trkpt lat="47.15853" lon="4.94026">
        <ele>388.9</ele>
        <time>2024-06-29T08:46:06Z</time>
      </trkpt>
      <trkpt lat="47.15852" lon="4.94027">
        <ele>388.6</ele>
        <time>2024-06-29T08:46:08Z</time>
      </trkpt>
      <trkpt lat="47.15851" lon="4.94028">
        <ele>388.3</ele>
        <time>2024-06-29T08:46:09Z</time>
      </trkpt>
      <trkpt lat="47.1585" lon="4.94028">
        <ele>388.4</ele>
        <time>2024-06-29T08:46:10Z</time>
      </trkpt>
      <trkpt lat="47.15849" lon="4.9403">
        <ele>387.9</ele>
        <time>2024-06-29T08:46:12Z</time>
      </trkpt>
      <trkpt lat="47.15847" lon="4.94031">
        <ele>387.4</ele>
        <time>2024-06-29T08:46:14Z</time>
      </trkpt>
      <trkpt lat="47.15846" lon="4.94032">
        <ele>387.3</ele>
        <time>2024-06-29T08:46:16Z</time>
      </trkpt>
      <trkpt lat="47.15844" lon="4.94034">
        <ele>386.6</ele>
        <time>2024-06-29T08:46:18Z</time>
      </trkpt>
      <trkpt lat="47.15844" lon="4.94036">
        <ele>388.2</ele>
        <time>2024-06-29T08:46:20Z</time>
      </trkpt>
      <trkpt lat="47.15843" lon="4.94037">
        <ele>387.6</ele>
        <time>2024-06-29T08:46:22Z</time>
      </trkpt>
      <trkpt lat="47.15842" lon="4.94038">
        <ele>387.7</ele>
        <time>2024-06-29T08:46:24Z</time>
      </trkpt>
      <trkpt lat="47.1584" lon="4.9404">
        <ele>387.8</ele>
        <time>2024-06-29T08:46:26Z</time>
      </trkpt>
      <trkpt lat="47.1584" lon="4.94041">
        <ele>388.4</ele>
        <time>2024-06-29T08:46:27Z</time>
      </trkpt>
      <trkpt lat="47.15839" lon="4.94042">
        <ele>388.5</ele>
        <time>2024-06-29T08:46:28Z</time>
      </trkpt>
      <trkpt lat="47.15839" lon="4.94043">
        <ele>388.6</ele>
        <time>2024-06-29T08:46:29Z</time>
      </trkpt>
      <trkpt lat="47.15837" lon="4.94044">
        <ele>388.3</ele>
        <time>2024-06-29T08:46:31Z</time>
      </trkpt>
      <trkpt lat="47.15836" lon="4.94045">
        <ele>387.8</ele>
        <time>2024-06-29T08:46:32Z</time>
      </trkpt>
      <trkpt lat="47.15835" lon="4.94046">
        <ele>387.8</ele>
        <time>2024-06-29T08:46:33Z</time>
      </trkpt>
      <trkpt lat="47.15834" lon="4.94047">
        <ele>387.9</ele>
        <time>2024-06-29T08:46:34Z</time>
      </trkpt>
      <trkpt lat="47.15834" lon="4.94048">
        <ele>387.4</ele>
        <time>2024-06-29T08:46:35Z</time>
      </trkpt>
      <trkpt lat="47.15833" lon="4.94049">
        <ele>387.5</ele>
        <time>2024-06-29T08:46:36Z</time>
      </trkpt>
      <trkpt lat="47.15832" lon="4.9405">
        <ele>387.3</ele>
        <time>2024-06-29T08:46:37Z</time>
      </trkpt>
      <trkpt lat="47.15832" lon="4.94051">
        <ele>387.3</ele>
        <time>2024-06-29T08:46:38Z</time>
      </trkpt>
      <trkpt lat="47.15831" lon="4.94052">
        <ele>387.2</ele>
        <time>2024-06-29T08:46:39Z</time>
      </trkpt>
      <trkpt lat="47.15831" lon="4.94054">
        <ele>387.7</ele>
        <time>2024-06-29T08:46:40Z</time>
      </trkpt>
      <trkpt lat="47.15831" lon="4.94055">
        <ele>388</ele>
        <time>2024-06-29T08:46:41Z</time>
      </trkpt>
      <trkpt lat="47.15831" lon="4.94057">
        <ele>388</ele>
        <time>2024-06-29T08:46:42Z</time>
      </trkpt>
      <trkpt lat="47.1583" lon="4.94058">
        <ele>388</ele>
        <time>2024-06-29T08:46:43Z</time>
      </trkpt>
      <trkpt lat="47.1583" lon="4.9406">
        <ele>387.6</ele>
        <time>2024-06-29T08:46:44Z</time>
      </trkpt>
      <trkpt lat="47.1583" lon="4.94061">
        <ele>387.7</ele>
        <time>2024-06-29T08:46:45Z</time>
      </trkpt>
      <trkpt lat="47.1583" lon="4.94063">
        <ele>387.8</ele>
        <time>2024-06-29T08:46:46Z</time>
      </trkpt>
      <trkpt lat="47.1583" lon="4.94064">
        <ele>387.9</ele>
        <time>2024-06-29T08:46:47Z</time>
      </trkpt>
      <trkpt lat="47.1583" lon="4.94066">
        <ele>387.4</ele>
        <time>2024-06-29T08:46:48Z</time>
      </trkpt>
      <trkpt lat="47.1583" lon="4.94067">
        <ele>387.2</ele>
        <time>2024-06-29T08:46:49Z</time>
      </trkpt>
      <trkpt lat="47.15831" lon="4.94069">
        <ele>387.1</ele>
        <time>2024-06-29T08:46:50Z</time>
      </trkpt>
      <trkpt lat="47.15831" lon="4.94071">
        <ele>387.2</ele>
        <time>2024-06-29T08:46:51Z</time>
      </trkpt>
      <trkpt lat="47.15831" lon="4.94073">
        <ele>386.8</ele>
        <time>2024-06-29T08:46:52Z</time>
      </trkpt>
      <trkpt lat="47.15832" lon="4.94074">
        <ele>386.9</ele>
        <time>2024-06-29T08:46:53Z</time>
      </trkpt>
      <trkpt lat="47.15832" lon="4.94076">
        <ele>387.6</ele>
        <time>2024-06-29T08:46:54Z</time>
      </trkpt>
      <trkpt lat="47.15832" lon="4.94077">
        <ele>387.2</ele>
        <time>2024-06-29T08:46:55Z</time>
      </trkpt>
      <trkpt lat="47.15833" lon="4.94079">
        <ele>387.5</ele>
        <time>2024-06-29T08:46:56Z</time>
      </trkpt>
      <trkpt lat="47.15833" lon="4.9408">
        <ele>388.4</ele>
        <time>2024-06-29T08:46:57Z</time>
      </trkpt>
      <trkpt lat="47.15833" lon="4.94082">
        <ele>388.1</ele>
        <time>2024-06-29T08:46:58Z</time>
      </trkpt>
      <trkpt lat="47.15834" lon="4.94083">
        <ele>387.6</ele>
        <time>2024-06-29T08:46:59Z</time>
      </trkpt>
      <trkpt lat="47.15835" lon="4.94085">
        <ele>386.8</ele>
        <time>2024-06-29T08:47:01Z</time>
      </trkpt>
      <trkpt lat="47.15835" lon="4.94087">
        <ele>386.5</ele>
        <time>2024-06-29T08:47:02Z</time>
      </trkpt>
      <trkpt lat="47.15836" lon="4.94088">
        <ele>386.2</ele>
        <time>2024-06-29T08:47:03Z</time>
      </trkpt>
      <trkpt lat="47.15836" lon="4.94089">
        <ele>386.9</ele>
        <time>2024-06-29T08:47:04Z</time>
      </trkpt>
      <trkpt lat="47.15837" lon="4.9409">
        <ele>386.9</ele>
        <time>2024-06-29T08:47:05Z</time>
      </trkpt>
      <trkpt lat="47.15838" lon="4.94091">
        <ele>386.9</ele>
        <time>2024-06-29T08:47:06Z</time>
      </trkpt>
      <trkpt lat="47.15838" lon="4.94092">
        <ele>386.6</ele>
        <time>2024-06-29T08:47:07Z</time>
      </trkpt>
      <trkpt lat="47.15839" lon="4.94093">
        <ele>386.7</ele>
        <time>2024-06-29T08:47:08Z</time>
      </trkpt>
      <trkpt lat="47.1584" lon="4.94094">
        <ele>386.2</ele>
        <time>2024-06-29T08:47:09Z</time>
      </trkpt>
      <trkpt lat="47.15841" lon="4.94096">
        <ele>385.5</ele>
        <time>2024-06-29T08:47:11Z</time>
      </trkpt>
      <trkpt lat="47.15842" lon="4.94097">
        <ele>385.4</ele>
        <time>2024-06-29T08:47:12Z</time>
      </trkpt>
      <trkpt lat="47.15843" lon="4.94098">
        <ele>384.9</ele>
        <time>2024-06-29T08:47:13Z</time>
      </trkpt>
      <trkpt lat="47.15843" lon="4.94099">
        <ele>384.1</ele>
        <time>2024-06-29T08:47:14Z</time>
      </trkpt>
      <trkpt lat="47.15844" lon="4.94101">
        <ele>383.8</ele>
        <time>2024-06-29T08:47:15Z</time>
      </trkpt>
      <trkpt lat="47.15845" lon="4.94102">
        <ele>384</ele>
        <time>2024-06-29T08:47:16Z</time>
      </trkpt>
      <trkpt lat="47.15845" lon="4.94103">
        <ele>384</ele>
        <time>2024-06-29T08:47:17Z</time>
      </trkpt>
      <trkpt lat="47.15846" lon="4.94104">
        <ele>383.8</ele>
        <time>2024-06-29T08:47:18Z</time>
      </trkpt>
      <trkpt lat="47.15847" lon="4.94105">
        <ele>382.8</ele>
        <time>2024-06-29T08:47:19Z</time>
      </trkpt>
      <trkpt lat="47.15848" lon="4.94106">
        <ele>383.3</ele>
        <time>2024-06-29T08:47:20Z</time>
      </trkpt>
      <trkpt lat="47.15848" lon="4.94107">
        <ele>383.1</ele>
        <time>2024-06-29T08:47:21Z</time>
      </trkpt>
      <trkpt lat="47.15849" lon="4.94108">
        <ele>383</ele>
        <time>2024-06-29T08:47:22Z</time>
      </trkpt>
      <trkpt lat="47.1585" lon="4.94109">
        <ele>383</ele>
        <time>2024-06-29T08:47:23Z</time>
      </trkpt>
      <trkpt lat="47.15851" lon="4.9411">
        <ele>382.7</ele>
        <time>2024-06-29T08:47:24Z</time>
      </trkpt>
      <trkpt lat="47.15852" lon="4.94111">
        <ele>382.4</ele>
        <time>2024-06-29T08:47:25Z</time>
      </trkpt>
      <trkpt lat="47.15852" lon="4.94113">
        <ele>382.5</ele>
        <time>2024-06-29T08:47:26Z</time>
      </trkpt>
      <trkpt lat="47.15853" lon="4.94114">
        <ele>382.7</ele>
        <time>2024-06-29T08:47:27Z</time>
      </trkpt>
      <trkpt lat="47.15854" lon="4.94115">
        <ele>382.6</ele>
        <time>2024-06-29T08:47:28Z</time>
      </trkpt>
      <trkpt lat="47.15855" lon="4.94116">
        <ele>382.7</ele>
        <time>2024-06-29T08:47:29Z</time>
      </trkpt>
      <trkpt lat="47.15855" lon="4.94117">
        <ele>382.7</ele>
        <time>2024-06-29T08:47:30Z</time>
      </trkpt>
      <trkpt lat="47.15856" lon="4.94118">
        <ele>382.6</ele>
        <time>2024-06-29T08:47:31Z</time>
      </trkpt>
      <trkpt lat="47.15857" lon="4.9412">
        <ele>382.5</ele>
        <time>2024-06-29T08:47:32Z</time>
      </trkpt>
      <trkpt lat="47.15857" lon="4.94121">
        <ele>382.5</ele>
        <time>2024-06-29T08:47:33Z</time>
      </trkpt>
      <trkpt lat="47.15858" lon="4.94121">
        <ele>382.6</ele>
        <time>2024-06-29T08:47:34Z</time>
      </trkpt>
      <trkpt lat="47.15859" lon="4.94122">
        <ele>382.4</ele>
        <time>2024-06-29T08:47:35Z</time>
      </trkpt>
      <trkpt lat="47.1586" lon="4.94123">
        <ele>382.7</ele>
        <time>2024-06-29T08:47:36Z</time>
      </trkpt>
      <trkpt lat="47.1586" lon="4.94124">
        <ele>383</ele>
        <time>2024-06-29T08:47:37Z</time>
      </trkpt>
      <trkpt lat="47.15861" lon="4.94125">
        <ele>382.5</ele>
        <time>2024-06-29T08:47:38Z</time>
      </trkpt>
      <trkpt lat="47.15862" lon="4.94126">
        <ele>382.5</ele>
        <time>2024-06-29T08:47:39Z</time>
      </trkpt>
      <trkpt lat="47.15862" lon="4.94127">
        <ele>382.5</ele>
        <time>2024-06-29T08:47:40Z</time>
      </trkpt>
      <trkpt lat="47.15863" lon="4.94128">
        <ele>382.2</ele>
        <time>2024-06-29T08:47:41Z</time>
      </trkpt>
      <trkpt lat="47.15865" lon="4.9413">
        <ele>381.8</ele>
        <time>2024-06-29T08:47:43Z</time>
      </trkpt>
      <trkpt lat="47.15866" lon="4.94131">
        <ele>381.6</ele>
        <time>2024-06-29T08:47:44Z</time>
      </trkpt>
      <trkpt lat="47.15866" lon="4.94132">
        <ele>381.4</ele>
        <time>2024-06-29T08:47:45Z</time>
      </trkpt>
      <trkpt lat="47.15867" lon="4.94133">
        <ele>381.2</ele>
        <time>2024-06-29T08:47:46Z</time>
      </trkpt>
      <trkpt lat="47.15869" lon="4.94135">
        <ele>381.2</ele>
        <time>2024-06-29T08:47:48Z</time>
      </trkpt>
      <trkpt lat="47.1587" lon="4.94135">
        <ele>381</ele>
        <time>2024-06-29T08:47:49Z</time>
      </trkpt>
      <trkpt lat="47.15871" lon="4.94136">
        <ele>380.8</ele>
        <time>2024-06-29T08:47:50Z</time>
      </trkpt>
      <trkpt lat="47.15872" lon="4.94137">
        <ele>380.9</ele>
        <time>2024-06-29T08:47:51Z</time>
      </trkpt>
      <trkpt lat="47.15873" lon="4.94138">
        <ele>380.6</ele>
        <time>2024-06-29T08:47:52Z</time>
      </trkpt>
      <trkpt lat="47.15874" lon="4.94139">
        <ele>380.7</ele>
        <time>2024-06-29T08:47:53Z</time>
      </trkpt>
      <trkpt lat="47.15875" lon="4.9414">
        <ele>380.5</ele>
        <time>2024-06-29T08:47:54Z</time>
      </trkpt>
      <trkpt lat="47.15877" lon="4.94142">
        <ele>380.3</ele>
        <time>2024-06-29T08:47:56Z</time>
      </trkpt>
      <trkpt lat="47.15878" lon="4.94143">
        <ele>380.6</ele>
        <time>2024-06-29T08:47:58Z</time>
      </trkpt>
      <trkpt lat="47.15879" lon="4.94144">
        <ele>380.6</ele>
        <time>2024-06-29T08:47:59Z</time>
      </trkpt>
      <trkpt lat="47.1588" lon="4.94145">
        <ele>380.7</ele>
        <time>2024-06-29T08:48:00Z</time>
      </trkpt>
      <trkpt lat="47.15881" lon="4.94146">
        <ele>380.6</ele>
        <time>2024-06-29T08:48:01Z</time>
      </trkpt>
      <trkpt lat="47.15883" lon="4.94148">
        <ele>380.5</ele>
        <time>2024-06-29T08:48:03Z</time>
      </trkpt>
      <trkpt lat="47.15884" lon="4.9415">
        <ele>380.4</ele>
        <time>2024-06-29T08:48:05Z</time>
      </trkpt>
      <trkpt lat="47.15885" lon="4.9415">
        <ele>380.2</ele>
        <time>2024-06-29T08:48:06Z</time>
      </trkpt>
      <trkpt lat="47.15886" lon="4.94151">
        <ele>379.9</ele>
        <time>2024-06-29T08:48:07Z</time>
      </trkpt>
      <trkpt lat="47.15888" lon="4.94153">
        <ele>379.3</ele>
        <time>2024-06-29T08:48:09Z</time>
      </trkpt>
      <trkpt lat="47.15889" lon="4.94154">
        <ele>379.3</ele>
        <time>2024-06-29T08:48:10Z</time>
      </trkpt>
      <trkpt lat="47.15891" lon="4.94155">
        <ele>379</ele>
        <time>2024-06-29T08:48:12Z</time>
      </trkpt>
      <trkpt lat="47.15893" lon="4.94157">
        <ele>378.9</ele>
        <time>2024-06-29T08:48:14Z</time>
      </trkpt>
      <trkpt lat="47.15894" lon="4.94158">
        <ele>379.8</ele>
        <time>2024-06-29T08:48:15Z</time>
      </trkpt>
      <trkpt lat="47.15896" lon="4.9416">
        <ele>379.2</ele>
        <time>2024-06-29T08:48:17Z</time>
      </trkpt>
      <trkpt lat="47.15897" lon="4.94161">
        <ele>379.4</ele>
        <time>2024-06-29T08:48:18Z</time>
      </trkpt>
      <trkpt lat="47.15899" lon="4.94162">
        <ele>379.3</ele>
        <time>2024-06-29T08:48:20Z</time>
      </trkpt>
      <trkpt lat="47.159" lon="4.94163">
        <ele>379.2</ele>
        <time>2024-06-29T08:48:21Z</time>
      </trkpt>
      <trkpt lat="47.15902" lon="4.94165">
        <ele>378.7</ele>
        <time>2024-06-29T08:48:23Z</time>
      </trkpt>
      <trkpt lat="47.15902" lon="4.94165">
        <ele>378.7</ele>
        <time>2024-06-29T08:48:24Z</time>
      </trkpt>
      <trkpt lat="47.15904" lon="4.94167">
        <ele>378.3</ele>
        <time>2024-06-29T08:48:26Z</time>
      </trkpt>
      <trkpt lat="47.15905" lon="4.94168">
        <ele>378.1</ele>
        <time>2024-06-29T08:48:27Z</time>
      </trkpt>
      <trkpt lat="47.15906" lon="4.94169">
        <ele>378.3</ele>
        <time>2024-06-29T08:48:28Z</time>
      </trkpt>
      <trkpt lat="47.15907" lon="4.94169">
        <ele>378.4</ele>
        <time>2024-06-29T08:48:29Z</time>
      </trkpt>
      <trkpt lat="47.15908" lon="4.9417">
        <ele>378.7</ele>
        <time>2024-06-29T08:48:30Z</time>
      </trkpt>
      <trkpt lat="47.15909" lon="4.94171">
        <ele>378.5</ele>
        <time>2024-06-29T08:48:31Z</time>
      </trkpt>
      <trkpt lat="47.1591" lon="4.94171">
        <ele>378.2</ele>
        <time>2024-06-29T08:48:32Z</time>
      </trkpt>
      <trkpt lat="47.15911" lon="4.94172">
        <ele>378.7</ele>
        <time>2024-06-29T08:48:33Z</time>
      </trkpt>
      <trkpt lat="47.15912" lon="4.94173">
        <ele>378.5</ele>
        <time>2024-06-29T08:48:34Z</time>
      </trkpt>
      <trkpt lat="47.15913" lon="4.94174">
        <ele>378.8</ele>
        <time>2024-06-29T08:48:35Z</time>
      </trkpt>
      <trkpt lat="47.15914" lon="4.94175">
        <ele>378.5</ele>
        <time>2024-06-29T08:48:36Z</time>
      </trkpt>
      <trkpt lat="47.15915" lon="4.94176">
        <ele>378.5</ele>
        <time>2024-06-29T08:48:37Z</time>
      </trkpt>
      <trkpt lat="47.15916" lon="4.94177">
        <ele>378.6</ele>
        <time>2024-06-29T08:48:38Z</time>
      </trkpt>
      <trkpt lat="47.15916" lon="4.94177">
        <ele>378.8</ele>
        <time>2024-06-29T08:48:39Z</time>
      </trkpt>
      <trkpt lat="47.15917" lon="4.94178">
        <ele>378.9</ele>
        <time>2024-06-29T08:48:40Z</time>
      </trkpt>
      <trkpt lat="47.15918" lon="4.94179">
        <ele>378.5</ele>
        <time>2024-06-29T08:48:41Z</time>
      </trkpt>
      <trkpt lat="47.15919" lon="4.9418">
        <ele>378</ele>
        <time>2024-06-29T08:48:42Z</time>
      </trkpt>
      <trkpt lat="47.1592" lon="4.9418">
        <ele>378</ele>
        <time>2024-06-29T08:48:43Z</time>
      </trkpt>
      <trkpt lat="47.15921" lon="4.94181">
        <ele>378</ele>
        <time>2024-06-29T08:48:44Z</time>
      </trkpt>
      <trkpt lat="47.15921" lon="4.94182">
        <ele>378.1</ele>
        <time>2024-06-29T08:48:45Z</time>
      </trkpt>
      <trkpt lat="47.15922" lon="4.94182">
        <ele>378.1</ele>
        <time>2024-06-29T08:48:46Z</time>
      </trkpt>
      <trkpt lat="47.15923" lon="4.94183">
        <ele>378.1</ele>
        <time>2024-06-29T08:48:47Z</time>
      </trkpt>
      <trkpt lat="47.15924" lon="4.94184">
        <ele>378</ele>
        <time>2024-06-29T08:48:48Z</time>
      </trkpt>
      <trkpt lat="47.15925" lon="4.94184">
        <ele>378.1</ele>
        <time>2024-06-29T08:48:49Z</time>
      </trkpt>
      <trkpt lat="47.15926" lon="4.94185">
        <ele>378</ele>
        <time>2024-06-29T08:48:50Z</time>
      </trkpt>
      <trkpt lat="47.15926" lon="4.94186">
        <ele>377.7</ele>
        <time>2024-06-29T08:48:51Z</time>
      </trkpt>
      <trkpt lat="47.15927" lon="4.94186">
        <ele>377.8</ele>
        <time>2024-06-29T08:48:52Z</time>
      </trkpt>
      <trkpt lat="47.15928" lon="4.94187">
        <ele>377.5</ele>
        <time>2024-06-29T08:48:53Z</time>
      </trkpt>
      <trkpt lat="47.15929" lon="4.94188">
        <ele>377.5</ele>
        <time>2024-06-29T08:48:54Z</time>
      </trkpt>
      <trkpt lat="47.1593" lon="4.94189">
        <ele>377.5</ele>
        <time>2024-06-29T08:48:55Z</time>
      </trkpt>
      <trkpt lat="47.1593" lon="4.94189">
        <ele>377.5</ele>
        <time>2024-06-29T08:48:56Z</time>
      </trkpt>
      <trkpt lat="47.15931" lon="4.9419">
        <ele>377.4</ele>
        <time>2024-06-29T08:48:57Z</time>
      </trkpt>
      <trkpt lat="47.15932" lon="4.94191">
        <ele>377.6</ele>
        <time>2024-06-29T08:48:59Z</time>
      </trkpt>
      <trkpt lat="47.15933" lon="4.94192">
        <ele>377.6</ele>
        <time>2024-06-29T08:49:01Z</time>
      </trkpt>
      <trkpt lat="47.15933" lon="4.94194">
        <ele>377.4</ele>
        <time>2024-06-29T08:49:04Z</time>
      </trkpt>
      <trkpt lat="47.15933" lon="4.94195">
        <ele>376.3</ele>
        <time>2024-06-29T08:49:14Z</time>
      </trkpt>
      <trkpt lat="47.15934" lon="4.94196">
        <ele>376.3</ele>
        <time>2024-06-29T08:49:17Z</time>
      </trkpt>
      <trkpt lat="47.15934" lon="4.94198">
        <ele>376.6</ele>
        <time>2024-06-29T08:49:20Z</time>
      </trkpt>
      <trkpt lat="47.15934" lon="4.942">
        <ele>375.9</ele>
        <time>2024-06-29T08:49:22Z</time>
      </trkpt>
      <trkpt lat="47.15934" lon="4.94202">
        <ele>375.5</ele>
        <time>2024-06-29T08:49:24Z</time>
      </trkpt>
      <trkpt lat="47.15935" lon="4.94204">
        <ele>375.7</ele>
        <time>2024-06-29T08:49:25Z</time>
      </trkpt>
      <trkpt lat="47.15936" lon="4.94206">
        <ele>374.6</ele>
        <time>2024-06-29T08:49:27Z</time>
      </trkpt>
      <trkpt lat="47.15937" lon="4.94208">
        <ele>374.2</ele>
        <time>2024-06-29T08:49:29Z</time>
      </trkpt>
      <trkpt lat="47.15937" lon="4.94209">
        <ele>374</ele>
        <time>2024-06-29T08:49:31Z</time>
      </trkpt>
      <trkpt lat="47.15937" lon="4.94211">
        <ele>374.3</ele>
        <time>2024-06-29T08:49:34Z</time>
      </trkpt>
      <trkpt lat="47.15937" lon="4.94213">
        <ele>373.8</ele>
        <time>2024-06-29T08:49:36Z</time>
      </trkpt>
      <trkpt lat="47.15938" lon="4.94215">
        <ele>373.7</ele>
        <time>2024-06-29T08:49:38Z</time>
      </trkpt>
      <trkpt lat="47.15938" lon="4.94216">
        <ele>373.2</ele>
        <time>2024-06-29T08:49:40Z</time>
      </trkpt>
      <trkpt lat="47.15939" lon="4.94218">
        <ele>372.7</ele>
        <time>2024-06-29T08:49:42Z</time>
      </trkpt>
      <trkpt lat="47.15939" lon="4.94219">
        <ele>372.3</ele>
        <time>2024-06-29T08:49:44Z</time>
      </trkpt>
      <trkpt lat="47.15939" lon="4.94221">
        <ele>372.1</ele>
        <time>2024-06-29T08:49:46Z</time>
      </trkpt>
      <trkpt lat="47.1594" lon="4.94223">
        <ele>372.4</ele>
        <time>2024-06-29T08:49:48Z</time>
      </trkpt>
      <trkpt lat="47.1594" lon="4.94224">
        <ele>372</ele>
        <time>2024-06-29T08:49:50Z</time>
      </trkpt>
      <trkpt lat="47.1594" lon="4.94226">
        <ele>372</ele>
        <time>2024-06-29T08:49:52Z</time>
      </trkpt>
      <trkpt lat="47.1594" lon="4.94228">
        <ele>372.1</ele>
        <time>2024-06-29T08:49:54Z</time>
      </trkpt>
      <trkpt lat="47.15941" lon="4.94229">
        <ele>371.7</ele>
        <time>2024-06-29T08:49:56Z</time>
      </trkpt>
      <trkpt lat="47.15941" lon="4.94231">
        <ele>371.7</ele>
        <time>2024-06-29T08:49:58Z</time>
      </trkpt>
      <trkpt lat="47.15941" lon="4.94233">
        <ele>372.1</ele>
        <time>2024-06-29T08:50:00Z</time>
      </trkpt>
      <trkpt lat="47.15941" lon="4.94235">
        <ele>371.7</ele>
        <time>2024-06-29T08:50:02Z</time>
      </trkpt>
      <trkpt lat="47.15941" lon="4.94237">
        <ele>372.3</ele>
        <time>2024-06-29T08:50:04Z</time>
      </trkpt>
      <trkpt lat="47.15941" lon="4.94239">
        <ele>371.2</ele>
        <time>2024-06-29T08:50:07Z</time>
      </trkpt>
      <trkpt lat="47.15942" lon="4.9424">
        <ele>370.8</ele>
        <time>2024-06-29T08:50:09Z</time>
      </trkpt>
      <trkpt lat="47.15942" lon="4.94242">
        <ele>368.8</ele>
        <time>2024-06-29T08:50:12Z</time>
      </trkpt>
      <trkpt lat="47.15942" lon="4.94243">
        <ele>369</ele>
        <time>2024-06-29T08:50:14Z</time>
      </trkpt>
      <trkpt lat="47.15942" lon="4.94245">
        <ele>368.7</ele>
        <time>2024-06-29T08:50:16Z</time>
      </trkpt>
      <trkpt lat="47.15942" lon="4.94247">
        <ele>366.8</ele>
        <time>2024-06-29T08:50:18Z</time>
      </trkpt>
      <trkpt lat="47.15942" lon="4.94248">
        <ele>366.6</ele>
        <time>2024-06-29T08:50:23Z</time>
      </trkpt>
      <trkpt lat="47.15942" lon="4.9425">
        <ele>366</ele>
        <time>2024-06-29T08:50:25Z</time>
      </trkpt>
      <trkpt lat="47.15943" lon="4.94252">
        <ele>366.6</ele>
        <time>2024-06-29T08:50:27Z</time>
      </trkpt>
      <trkpt lat="47.15942" lon="4.94254">
        <ele>366.7</ele>
        <time>2024-06-29T08:50:29Z</time>
      </trkpt>
      <trkpt lat="47.15941" lon="4.94256">
        <ele>365.7</ele>
        <time>2024-06-29T08:50:31Z</time>
      </trkpt>
      <trkpt lat="47.1594" lon="4.94257">
        <ele>364.8</ele>
        <time>2024-06-29T08:50:33Z</time>
      </trkpt>
      <trkpt lat="47.15939" lon="4.94258">
        <ele>364.6</ele>
        <time>2024-06-29T08:50:34Z</time>
      </trkpt>
      <trkpt lat="47.15938" lon="4.94259">
        <ele>364.2</ele>
        <time>2024-06-29T08:50:35Z</time>
      </trkpt>
      <trkpt lat="47.15937" lon="4.94261">
        <ele>363.8</ele>
        <time>2024-06-29T08:50:37Z</time>
      </trkpt>
      <trkpt lat="47.15936" lon="4.94263">
        <ele>363.7</ele>
        <time>2024-06-29T08:50:39Z</time>
      </trkpt>
      <trkpt lat="47.15935" lon="4.94264">
        <ele>363.5</ele>
        <time>2024-06-29T08:50:41Z</time>
      </trkpt>
      <trkpt lat="47.15934" lon="4.94266">
        <ele>363.9</ele>
        <time>2024-06-29T08:50:43Z</time>
      </trkpt>
      <trkpt lat="47.15934" lon="4.94268">
        <ele>364.2</ele>
        <time>2024-06-29T08:50:45Z</time>
      </trkpt>
      <trkpt lat="47.15933" lon="4.9427">
        <ele>363.5</ele>
        <time>2024-06-29T08:50:47Z</time>
      </trkpt>
      <trkpt lat="47.15932" lon="4.94272">
        <ele>363.5</ele>
        <time>2024-06-29T08:50:49Z</time>
      </trkpt>
      <trkpt lat="47.15931" lon="4.94274">
        <ele>362.6</ele>
        <time>2024-06-29T08:50:51Z</time>
      </trkpt>
      <trkpt lat="47.15931" lon="4.94277">
        <ele>362.3</ele>
        <time>2024-06-29T08:50:53Z</time>
      </trkpt>
      <trkpt lat="47.1593" lon="4.94279">
        <ele>362.1</ele>
        <time>2024-06-29T08:50:55Z</time>
      </trkpt>
      <trkpt lat="47.15929" lon="4.94281">
        <ele>361.5</ele>
        <time>2024-06-29T08:50:57Z</time>
      </trkpt>
      <trkpt lat="47.15929" lon="4.94283">
        <ele>361</ele>
        <time>2024-06-29T08:50:59Z</time>
      </trkpt>
      <trkpt lat="47.15928" lon="4.94285">
        <ele>360.7</ele>
        <time>2024-06-29T08:51:01Z</time>
      </trkpt>
      <trkpt lat="47.15927" lon="4.94287">
        <ele>360.5</ele>
        <time>2024-06-29T08:51:03Z</time>
      </trkpt>
      <trkpt lat="47.15927" lon="4.9429">
        <ele>360.8</ele>
        <time>2024-06-29T08:51:05Z</time>
      </trkpt>
      <trkpt lat="47.15926" lon="4.94292">
        <ele>360.7</ele>
        <time>2024-06-29T08:51:07Z</time>
      </trkpt>
      <trkpt lat="47.15926" lon="4.94294">
        <ele>360.1</ele>
        <time>2024-06-29T08:51:09Z</time>
      </trkpt>
      <trkpt lat="47.15926" lon="4.94295">
        <ele>360</ele>
        <time>2024-06-29T08:51:11Z</time>
      </trkpt>
      <trkpt lat="47.15925" lon="4.94297">
        <ele>359.3</ele>
        <time>2024-06-29T08:51:13Z</time>
      </trkpt>
      <trkpt lat="47.15925" lon="4.94299">
        <ele>359.1</ele>
        <time>2024-06-29T08:51:15Z</time>
      </trkpt>
      <trkpt lat="47.15924" lon="4.94301">
        <ele>358.8</ele>
        <time>2024-06-29T08:51:17Z</time>
      </trkpt>
      <trkpt lat="47.15923" lon="4.94302">
        <ele>358.3</ele>
        <time>2024-06-29T08:51:19Z</time>
      </trkpt>
      <trkpt lat="47.15922" lon="4.94304">
        <ele>358.4</ele>
        <time>2024-06-29T08:51:21Z</time>
      </trkpt>
      <trkpt lat="47.15922" lon="4.94306">
        <ele>358.3</ele>
        <time>2024-06-29T08:51:23Z</time>
      </trkpt>
      <trkpt lat="47.15921" lon="4.94308">
        <ele>357.9</ele>
        <time>2024-06-29T08:51:25Z</time>
      </trkpt>
      <trkpt lat="47.1592" lon="4.94309">
        <ele>357.9</ele>
        <time>2024-06-29T08:51:26Z</time>
      </trkpt>
      <trkpt lat="47.15919" lon="4.9431">
        <ele>357.6</ele>
        <time>2024-06-29T08:51:27Z</time>
      </trkpt>
      <trkpt lat="47.15919" lon="4.94311">
        <ele>357.3</ele>
        <time>2024-06-29T08:51:28Z</time>
      </trkpt>
      <trkpt lat="47.15918" lon="4.94312">
        <ele>357.2</ele>
        <time>2024-06-29T08:51:29Z</time>
      </trkpt>
      <trkpt lat="47.15917" lon="4.94313">
        <ele>357.1</ele>
        <time>2024-06-29T08:51:30Z</time>
      </trkpt>
      <trkpt lat="47.15916" lon="4.94314">
        <ele>356.8</ele>
        <time>2024-06-29T08:51:31Z</time>
      </trkpt>
      <trkpt lat="47.15915" lon="4.94314">
        <ele>356.7</ele>
        <time>2024-06-29T08:51:32Z</time>
      </trkpt>
      <trkpt lat="47.15914" lon="4.94315">
        <ele>356.5</ele>
        <time>2024-06-29T08:51:33Z</time>
      </trkpt>
      <trkpt lat="47.15914" lon="4.94315">
        <ele>356.4</ele>
        <time>2024-06-29T08:51:34Z</time>
      </trkpt>
      <trkpt lat="47.15912" lon="4.94317">
        <ele>356.2</ele>
        <time>2024-06-29T08:51:36Z</time>
      </trkpt>
      <trkpt lat="47.15911" lon="4.94318">
        <ele>356.1</ele>
        <time>2024-06-29T08:51:37Z</time>
      </trkpt>
      <trkpt lat="47.15911" lon="4.94319">
        <ele>355.9</ele>
        <time>2024-06-29T08:51:38Z</time>
      </trkpt>
      <trkpt lat="47.1591" lon="4.94319">
        <ele>355.8</ele>
        <time>2024-06-29T08:51:39Z</time>
      </trkpt>
      <trkpt lat="47.15909" lon="4.9432">
        <ele>355.6</ele>
        <time>2024-06-29T08:51:40Z</time>
      </trkpt>
      <trkpt lat="47.15908" lon="4.94321">
        <ele>355.6</ele>
        <time>2024-06-29T08:51:41Z</time>
      </trkpt>
      <trkpt lat="47.15907" lon="4.94321">
        <ele>355.5</ele>
        <time>2024-06-29T08:51:42Z</time>
      </trkpt>
      <trkpt lat="47.15906" lon="4.94322">
        <ele>355.3</ele>
        <time>2024-06-29T08:51:43Z</time>
      </trkpt>
      <trkpt lat="47.15905" lon="4.94322">
        <ele>355.3</ele>
        <time>2024-06-29T08:51:44Z</time>
      </trkpt>
      <trkpt lat="47.15904" lon="4.94323">
        <ele>355.1</ele>
        <time>2024-06-29T08:51:45Z</time>
      </trkpt>
      <trkpt lat="47.15903" lon="4.94324">
        <ele>354.9</ele>
        <time>2024-06-29T08:51:46Z</time>
      </trkpt>
      <trkpt lat="47.15902" lon="4.94324">
        <ele>354.9</ele>
        <time>2024-06-29T08:51:47Z</time>
      </trkpt>
      <trkpt lat="47.15901" lon="4.94325">
        <ele>354.7</ele>
        <time>2024-06-29T08:51:48Z</time>
      </trkpt>
      <trkpt lat="47.159" lon="4.94325">
        <ele>354.5</ele>
        <time>2024-06-29T08:51:49Z</time>
      </trkpt>
      <trkpt lat="47.15899" lon="4.94326">
        <ele>354.3</ele>
        <time>2024-06-29T08:51:50Z</time>
      </trkpt>
      <trkpt lat="47.15898" lon="4.94326">
        <ele>354.4</ele>
        <time>2024-06-29T08:51:51Z</time>
      </trkpt>
      <trkpt lat="47.15897" lon="4.94326">
        <ele>354.5</ele>
        <time>2024-06-29T08:51:52Z</time>
      </trkpt>
      <trkpt lat="47.15896" lon="4.94327">
        <ele>354.6</ele>
        <time>2024-06-29T08:51:53Z</time>
      </trkpt>
      <trkpt lat="47.15895" lon="4.94327">
        <ele>354.5</ele>
        <time>2024-06-29T08:51:54Z</time>
      </trkpt>
      <trkpt lat="47.15894" lon="4.94328">
        <ele>354.2</ele>
        <time>2024-06-29T08:51:55Z</time>
      </trkpt>
      <trkpt lat="47.15893" lon="4.94328">
        <ele>354.4</ele>
        <time>2024-06-29T08:51:56Z</time>
      </trkpt>
      <trkpt lat="47.15892" lon="4.94328">
        <ele>354.2</ele>
        <time>2024-06-29T08:51:57Z</time>
      </trkpt>
      <trkpt lat="47.15891" lon="4.94329">
        <ele>354.2</ele>
        <time>2024-06-29T08:51:58Z</time>
      </trkpt>
      <trkpt lat="47.1589" lon="4.94329">
        <ele>354</ele>
        <time>2024-06-29T08:51:59Z</time>
      </trkpt>
      <trkpt lat="47.15889" lon="4.9433">
        <ele>353.8</ele>
        <time>2024-06-29T08:52:00Z</time>
      </trkpt>
      <trkpt lat="47.15888" lon="4.9433">
        <ele>353.6</ele>
        <time>2024-06-29T08:52:01Z</time>
      </trkpt>
      <trkpt lat="47.15887" lon="4.94331">
        <ele>353.4</ele>
        <time>2024-06-29T08:52:02Z</time>
      </trkpt>
      <trkpt lat="47.15886" lon="4.94331">
        <ele>353.5</ele>
        <time>2024-06-29T08:52:03Z</time>
      </trkpt>
      <trkpt lat="47.15885" lon="4.94331">
        <ele>353.6</ele>
        <time>2024-06-29T08:52:04Z</time>
      </trkpt>
      <trkpt lat="47.15883" lon="4.94332">
        <ele>353.2</ele>
        <time>2024-06-29T08:52:06Z</time>
      </trkpt>
      <trkpt lat="47.15882" lon="4.94332">
        <ele>352.9</ele>
        <time>2024-06-29T08:52:07Z</time>
      </trkpt>
      <trkpt lat="47.15881" lon="4.94333">
        <ele>353</ele>
        <time>2024-06-29T08:52:08Z</time>
      </trkpt>
      <trkpt lat="47.1588" lon="4.94333">
        <ele>353.1</ele>
        <time>2024-06-29T08:52:09Z</time>
      </trkpt>
      <trkpt lat="47.15879" lon="4.94334">
        <ele>353.1</ele>
        <time>2024-06-29T08:52:11Z</time>
      </trkpt>
      <trkpt lat="47.15877" lon="4.94334">
        <ele>352.9</ele>
        <time>2024-06-29T08:52:13Z</time>
      </trkpt>
      <trkpt lat="47.15876" lon="4.94334">
        <ele>353</ele>
        <time>2024-06-29T08:52:14Z</time>
      </trkpt>
      <trkpt lat="47.15875" lon="4.94334">
        <ele>352.9</ele>
        <time>2024-06-29T08:52:15Z</time>
      </trkpt>
      <trkpt lat="47.15874" lon="4.94335">
        <ele>352.8</ele>
        <time>2024-06-29T08:52:16Z</time>
      </trkpt>
      <trkpt lat="47.15873" lon="4.94335">
        <ele>352.6</ele>
        <time>2024-06-29T08:52:17Z</time>
      </trkpt>
      <trkpt lat="47.15873" lon="4.94335">
        <ele>352.6</ele>
        <time>2024-06-29T08:52:18Z</time>
      </trkpt>
      <trkpt lat="47.15872" lon="4.94336">
        <ele>352.8</ele>
        <time>2024-06-29T08:52:19Z</time>
      </trkpt>
      <trkpt lat="47.15871" lon="4.94336">
        <ele>352.6</ele>
        <time>2024-06-29T08:52:20Z</time>
      </trkpt>
      <trkpt lat="47.1587" lon="4.94337">
        <ele>352.3</ele>
        <time>2024-06-29T08:52:21Z</time>
      </trkpt>
      <trkpt lat="47.15869" lon="4.94337">
        <ele>352.3</ele>
        <time>2024-06-29T08:52:22Z</time>
      </trkpt>
      <trkpt lat="47.15868" lon="4.94338">
        <ele>352</ele>
        <time>2024-06-29T08:52:23Z</time>
      </trkpt>
      <trkpt lat="47.15867" lon="4.94338">
        <ele>352.4</ele>
        <time>2024-06-29T08:52:24Z</time>
      </trkpt>
      <trkpt lat="47.15866" lon="4.94339">
        <ele>352.2</ele>
        <time>2024-06-29T08:52:25Z</time>
      </trkpt>
      <trkpt lat="47.15865" lon="4.9434">
        <ele>352</ele>
        <time>2024-06-29T08:52:26Z</time>
      </trkpt>
      <trkpt lat="47.15864" lon="4.9434">
        <ele>352.1</ele>
        <time>2024-06-29T08:52:27Z</time>
      </trkpt>
      <trkpt lat="47.15863" lon="4.94341">
        <ele>351.8</ele>
        <time>2024-06-29T08:52:28Z</time>
      </trkpt>
      <trkpt lat="47.15862" lon="4.94341">
        <ele>351.5</ele>
        <time>2024-06-29T08:52:29Z</time>
      </trkpt>
      <trkpt lat="47.15861" lon="4.94341">
        <ele>351.5</ele>
        <time>2024-06-29T08:52:30Z</time>
      </trkpt>
      <trkpt lat="47.1586" lon="4.94341">
        <ele>351.3</ele>
        <time>2024-06-29T08:52:31Z</time>
      </trkpt>
      <trkpt lat="47.15859" lon="4.9434">
        <ele>351.1</ele>
        <time>2024-06-29T08:52:33Z</time>
      </trkpt>
      <trkpt lat="47.15857" lon="4.9434">
        <ele>351.2</ele>
        <time>2024-06-29T08:52:35Z</time>
      </trkpt>
      <trkpt lat="47.15855" lon="4.94341">
        <ele>351.1</ele>
        <time>2024-06-29T08:52:37Z</time>
      </trkpt>
      <trkpt lat="47.15854" lon="4.94341">
        <ele>351</ele>
        <time>2024-06-29T08:52:39Z</time>
      </trkpt>
      <trkpt lat="47.15853" lon="4.94341">
        <ele>351</ele>
        <time>2024-06-29T08:52:40Z</time>
      </trkpt>
      <trkpt lat="47.15852" lon="4.94341">
        <ele>350.9</ele>
        <time>2024-06-29T08:52:41Z</time>
      </trkpt>
      <trkpt lat="47.15851" lon="4.94341">
        <ele>350.9</ele>
        <time>2024-06-29T08:52:42Z</time>
      </trkpt>
      <trkpt lat="47.1585" lon="4.94342">
        <ele>350.8</ele>
        <time>2024-06-29T08:52:43Z</time>
      </trkpt>
      <trkpt lat="47.15849" lon="4.94342">
        <ele>351.7</ele>
        <time>2024-06-29T08:52:44Z</time>
      </trkpt>
      <trkpt lat="47.15847" lon="4.94343">
        <ele>351.9</ele>
        <time>2024-06-29T08:52:45Z</time>
      </trkpt>
      <trkpt lat="47.15846" lon="4.94344">
        <ele>351.4</ele>
        <time>2024-06-29T08:52:46Z</time>
      </trkpt>
      <trkpt lat="47.15845" lon="4.94344">
        <ele>351.3</ele>
        <time>2024-06-29T08:52:48Z</time>
      </trkpt>
      <trkpt lat="47.15844" lon="4.94344">
        <ele>351.4</ele>
        <time>2024-06-29T08:52:49Z</time>
      </trkpt>
      <trkpt lat="47.15843" lon="4.94344">
        <ele>351.4</ele>
        <time>2024-06-29T08:52:50Z</time>
      </trkpt>
      <trkpt lat="47.15842" lon="4.94344">
        <ele>351</ele>
        <time>2024-06-29T08:52:51Z</time>
      </trkpt>
      <trkpt lat="47.15841" lon="4.94344">
        <ele>350.9</ele>
        <time>2024-06-29T08:52:52Z</time>
      </trkpt>
      <trkpt lat="47.1584" lon="4.94344">
        <ele>350.9</ele>
        <time>2024-06-29T08:52:53Z</time>
      </trkpt>
      <trkpt lat="47.15839" lon="4.94344">
        <ele>350.8</ele>
        <time>2024-06-29T08:52:54Z</time>
      </trkpt>
      <trkpt lat="47.15838" lon="4.94344">
        <ele>351.1</ele>
        <time>2024-06-29T08:52:55Z</time>
      </trkpt>
      <trkpt lat="47.15837" lon="4.94344">
        <ele>351.1</ele>
        <time>2024-06-29T08:52:56Z</time>
      </trkpt>
      <trkpt lat="47.15836" lon="4.94345">
        <ele>350.8</ele>
        <time>2024-06-29T08:52:57Z</time>
      </trkpt>
      <trkpt lat="47.15835" lon="4.94345">
        <ele>350.7</ele>
        <time>2024-06-29T08:52:58Z</time>
      </trkpt>
      <trkpt lat="47.15834" lon="4.94344">
        <ele>350.7</ele>
        <time>2024-06-29T08:52:59Z</time>
      </trkpt>
      <trkpt lat="47.15833" lon="4.94344">
        <ele>350.1</ele>
        <time>2024-06-29T08:53:00Z</time>
      </trkpt>
      <trkpt lat="47.15832" lon="4.94344">
        <ele>349.7</ele>
        <time>2024-06-29T08:53:02Z</time>
      </trkpt>
      <trkpt lat="47.1583" lon="4.94345">
        <ele>348.7</ele>
        <time>2024-06-29T08:53:04Z</time>
      </trkpt>
      <trkpt lat="47.15829" lon="4.94345">
        <ele>348.7</ele>
        <time>2024-06-29T08:53:06Z</time>
      </trkpt>
      <trkpt lat="47.15828" lon="4.94345">
        <ele>348.3</ele>
        <time>2024-06-29T08:53:08Z</time>
      </trkpt>
      <trkpt lat="47.15826" lon="4.94345">
        <ele>347.8</ele>
        <time>2024-06-29T08:53:10Z</time>
      </trkpt>
      <trkpt lat="47.15824" lon="4.94345">
        <ele>347.5</ele>
        <time>2024-06-29T08:53:12Z</time>
      </trkpt>
      <trkpt lat="47.15823" lon="4.94346">
        <ele>347.5</ele>
        <time>2024-06-29T08:53:14Z</time>
      </trkpt>
      <trkpt lat="47.15821" lon="4.94347">
        <ele>347.8</ele>
        <time>2024-06-29T08:53:16Z</time>
      </trkpt>
      <trkpt lat="47.1582" lon="4.94347">
        <ele>347.6</ele>
        <time>2024-06-29T08:53:17Z</time>
      </trkpt>
      <trkpt lat="47.15819" lon="4.94347">
        <ele>347.5</ele>
        <time>2024-06-29T08:53:18Z</time>
      </trkpt>
      <trkpt lat="47.15818" lon="4.94348">
        <ele>347.8</ele>
        <time>2024-06-29T08:53:19Z</time>
      </trkpt>
      <trkpt lat="47.15817" lon="4.94348">
        <ele>347</ele>
        <time>2024-06-29T08:53:20Z</time>
      </trkpt>
      <trkpt lat="47.15816" lon="4.94348">
        <ele>346.5</ele>
        <time>2024-06-29T08:53:21Z</time>
      </trkpt>
      <trkpt lat="47.15815" lon="4.9435">
        <ele>345.8</ele>
        <time>2024-06-29T08:53:23Z</time>
      </trkpt>
      <trkpt lat="47.15813" lon="4.9435">
        <ele>344.5</ele>
        <time>2024-06-29T08:53:25Z</time>
      </trkpt>
      <trkpt lat="47.15812" lon="4.94351">
        <ele>344.8</ele>
        <time>2024-06-29T08:53:26Z</time>
      </trkpt>
      <trkpt lat="47.15811" lon="4.94351">
        <ele>343.4</ele>
        <time>2024-06-29T08:53:27Z</time>
      </trkpt>
      <trkpt lat="47.1581" lon="4.94352">
        <ele>343.5</ele>
        <time>2024-06-29T08:53:28Z</time>
      </trkpt>
      <trkpt lat="47.1581" lon="4.94353">
        <ele>344.3</ele>
        <time>2024-06-29T08:53:29Z</time>
      </trkpt>
      <trkpt lat="47.15809" lon="4.94353">
        <ele>344.7</ele>
        <time>2024-06-29T08:53:30Z</time>
      </trkpt>
      <trkpt lat="47.15808" lon="4.94354">
        <ele>344.2</ele>
        <time>2024-06-29T08:53:32Z</time>
      </trkpt>
      <trkpt lat="47.15806" lon="4.94355">
        <ele>340.8</ele>
        <time>2024-06-29T08:53:34Z</time>
      </trkpt>
      <trkpt lat="47.15805" lon="4.94356">
        <ele>341.9</ele>
        <time>2024-06-29T08:53:36Z</time>
      </trkpt>
      <trkpt lat="47.15804" lon="4.94358">
        <ele>341.6</ele>
        <time>2024-06-29T08:53:38Z</time>
      </trkpt>
      <trkpt lat="47.15803" lon="4.94359">
        <ele>341.8</ele>
        <time>2024-06-29T08:53:40Z</time>
      </trkpt>
      <trkpt lat="47.15802" lon="4.9436">
        <ele>342.1</ele>
        <time>2024-06-29T08:53:42Z</time>
      </trkpt>
      <trkpt lat="47.158" lon="4.94361">
        <ele>341.5</ele>
        <time>2024-06-29T08:53:44Z</time>
      </trkpt>
      <trkpt lat="47.15799" lon="4.94362">
        <ele>341.6</ele>
        <time>2024-06-29T08:53:46Z</time>
      </trkpt>
      <trkpt lat="47.15798" lon="4.94363">
        <ele>340.7</ele>
        <time>2024-06-29T08:53:48Z</time>
      </trkpt>
      <trkpt lat="47.15796" lon="4.94364">
        <ele>340.4</ele>
        <time>2024-06-29T08:53:50Z</time>
      </trkpt>
      <trkpt lat="47.15795" lon="4.94366">
        <ele>339.9</ele>
        <time>2024-06-29T08:53:52Z</time>
      </trkpt>
      <trkpt lat="47.15794" lon="4.94366">
        <ele>339.7</ele>
        <time>2024-06-29T08:53:53Z</time>
      </trkpt>
      <trkpt lat="47.15793" lon="4.94367">
        <ele>339.6</ele>
        <time>2024-06-29T08:53:54Z</time>
      </trkpt>
      <trkpt lat="47.15793" lon="4.94368">
        <ele>339.4</ele>
        <time>2024-06-29T08:53:55Z</time>
      </trkpt>
      <trkpt lat="47.15791" lon="4.94369">
        <ele>339.5</ele>
        <time>2024-06-29T08:53:57Z</time>
      </trkpt>
      <trkpt lat="47.1579" lon="4.9437">
        <ele>339.9</ele>
        <time>2024-06-29T08:53:58Z</time>
      </trkpt>
      <trkpt lat="47.1579" lon="4.94371">
        <ele>340</ele>
        <time>2024-06-29T08:53:59Z</time>
      </trkpt>
      <trkpt lat="47.15789" lon="4.94373">
        <ele>339.3</ele>
        <time>2024-06-29T08:54:01Z</time>
      </trkpt>
      <trkpt lat="47.15788" lon="4.94373">
        <ele>339.5</ele>
        <time>2024-06-29T08:54:02Z</time>
      </trkpt>
      <trkpt lat="47.15787" lon="4.94374">
        <ele>340.2</ele>
        <time>2024-06-29T08:54:04Z</time>
      </trkpt>
      <trkpt lat="47.15785" lon="4.94375">
        <ele>339.6</ele>
        <time>2024-06-29T08:54:06Z</time>
      </trkpt>
      <trkpt lat="47.15784" lon="4.94376">
        <ele>339.1</ele>
        <time>2024-06-29T08:54:07Z</time>
      </trkpt>
      <trkpt lat="47.15783" lon="4.94377">
        <ele>339.6</ele>
        <time>2024-06-29T08:54:08Z</time>
      </trkpt>
      <trkpt lat="47.15782" lon="4.94378">
        <ele>338.7</ele>
        <time>2024-06-29T08:54:09Z</time>
      </trkpt>
      <trkpt lat="47.15781" lon="4.94379">
        <ele>338.8</ele>
        <time>2024-06-29T08:54:10Z</time>
      </trkpt>
      <trkpt lat="47.1578" lon="4.94379">
        <ele>338.4</ele>
        <time>2024-06-29T08:54:11Z</time>
      </trkpt>
      <trkpt lat="47.15779" lon="4.9438">
        <ele>338.4</ele>
        <time>2024-06-29T08:54:12Z</time>
      </trkpt>
      <trkpt lat="47.15778" lon="4.94381">
        <ele>338.6</ele>
        <time>2024-06-29T08:54:13Z</time>
      </trkpt>
      <trkpt lat="47.15777" lon="4.94381">
        <ele>338.5</ele>
        <time>2024-06-29T08:54:14Z</time>
      </trkpt>
      <trkpt lat="47.15776" lon="4.94382">
        <ele>338.6</ele>
        <time>2024-06-29T08:54:16Z</time>
      </trkpt>
      <trkpt lat="47.15774" lon="4.94383">
        <ele>338.5</ele>
        <time>2024-06-29T08:54:18Z</time>
      </trkpt>
      <trkpt lat="47.15773" lon="4.94384">
        <ele>338.7</ele>
        <time>2024-06-29T08:54:20Z</time>
      </trkpt>
      <trkpt lat="47.15771" lon="4.94385">
        <ele>338.2</ele>
        <time>2024-06-29T08:54:22Z</time>
      </trkpt>
      <trkpt lat="47.1577" lon="4.94386">
        <ele>338.3</ele>
        <time>2024-06-29T08:54:24Z</time>
      </trkpt>
      <trkpt lat="47.15768" lon="4.94387">
        <ele>337.7</ele>
        <time>2024-06-29T08:54:26Z</time>
      </trkpt>
      <trkpt lat="47.15767" lon="4.94388">
        <ele>337.3</ele>
        <time>2024-06-29T08:54:28Z</time>
      </trkpt>
      <trkpt lat="47.15766" lon="4.94388">
        <ele>337.4</ele>
        <time>2024-06-29T08:54:29Z</time>
      </trkpt>
      <trkpt lat="47.15765" lon="4.94389">
        <ele>337.2</ele>
        <time>2024-06-29T08:54:30Z</time>
      </trkpt>
      <trkpt lat="47.15764" lon="4.94389">
        <ele>337.4</ele>
        <time>2024-06-29T08:54:31Z</time>
      </trkpt>
      <trkpt lat="47.15763" lon="4.94391">
        <ele>337.8</ele>
        <time>2024-06-29T08:54:33Z</time>
      </trkpt>
      <trkpt lat="47.15762" lon="4.94391">
        <ele>338.1</ele>
        <time>2024-06-29T08:54:34Z</time>
      </trkpt>
      <trkpt lat="47.15761" lon="4.94392">
        <ele>337.8</ele>
        <time>2024-06-29T08:54:35Z</time>
      </trkpt>
      <trkpt lat="47.1576" lon="4.94392">
        <ele>338.1</ele>
        <time>2024-06-29T08:54:36Z</time>
      </trkpt>
      <trkpt lat="47.1576" lon="4.94393">
        <ele>338.2</ele>
        <time>2024-06-29T08:54:37Z</time>
      </trkpt>
      <trkpt lat="47.15759" lon="4.94393">
        <ele>337.9</ele>
        <time>2024-06-29T08:54:38Z</time>
      </trkpt>
      <trkpt lat="47.15758" lon="4.94393">
        <ele>338.4</ele>
        <time>2024-06-29T08:54:39Z</time>
      </trkpt>
      <trkpt lat="47.15757" lon="4.94394">
        <ele>338</ele>
        <time>2024-06-29T08:54:40Z</time>
      </trkpt>
      <trkpt lat="47.15756" lon="4.94394">
        <ele>337.9</ele>
        <time>2024-06-29T08:54:41Z</time>
      </trkpt>
      <trkpt lat="47.15755" lon="4.94394">
        <ele>337.8</ele>
        <time>2024-06-29T08:54:42Z</time>
      </trkpt>
      <trkpt lat="47.15754" lon="4.94394">
        <ele>338.1</ele>
        <time>2024-06-29T08:54:43Z</time>
      </trkpt>
      <trkpt lat="47.15753" lon="4.94395">
        <ele>337.7</ele>
        <time>2024-06-29T08:54:44Z</time>
      </trkpt>
      <trkpt lat="47.15752" lon="4.94395">
        <ele>337.7</ele>
        <time>2024-06-29T08:54:45Z</time>
      </trkpt>
      <trkpt lat="47.15751" lon="4.94395">
        <ele>337.5</ele>
        <time>2024-06-29T08:54:46Z</time>
      </trkpt>
      <trkpt lat="47.1575" lon="4.94396">
        <ele>337.3</ele>
        <time>2024-06-29T08:54:47Z</time>
      </trkpt>
      <trkpt lat="47.15749" lon="4.94396">
        <ele>337.4</ele>
        <time>2024-06-29T08:54:48Z</time>
      </trkpt>
      <trkpt lat="47.15748" lon="4.94396">
        <ele>337.2</ele>
        <time>2024-06-29T08:54:49Z</time>
      </trkpt>
      <trkpt lat="47.15747" lon="4.94397">
        <ele>337.1</ele>
        <time>2024-06-29T08:54:50Z</time>
      </trkpt>
      <trkpt lat="47.15746" lon="4.94397">
        <ele>336.9</ele>
        <time>2024-06-29T08:54:51Z</time>
      </trkpt>
      <trkpt lat="47.15745" lon="4.94397">
        <ele>336.6</ele>
        <time>2024-06-29T08:54:52Z</time>
      </trkpt>
      <trkpt lat="47.15744" lon="4.94398">
        <ele>336.7</ele>
        <time>2024-06-29T08:54:53Z</time>
      </trkpt>
      <trkpt lat="47.15743" lon="4.94398">
        <ele>336.3</ele>
        <time>2024-06-29T08:54:54Z</time>
      </trkpt>
      <trkpt lat="47.15742" lon="4.94399">
        <ele>336.4</ele>
        <time>2024-06-29T08:54:55Z</time>
      </trkpt>
      <trkpt lat="47.15741" lon="4.94399">
        <ele>336.4</ele>
        <time>2024-06-29T08:54:56Z</time>
      </trkpt>
      <trkpt lat="47.1574" lon="4.94399">
        <ele>336.6</ele>
        <time>2024-06-29T08:54:57Z</time>
      </trkpt>
      <trkpt lat="47.15738" lon="4.944">
        <ele>336.3</ele>
        <time>2024-06-29T08:54:59Z</time>
      </trkpt>
      <trkpt lat="47.15737" lon="4.944">
        <ele>336.3</ele>
        <time>2024-06-29T08:55:00Z</time>
      </trkpt>
      <trkpt lat="47.15736" lon="4.944">
        <ele>336.3</ele>
        <time>2024-06-29T08:55:01Z</time>
      </trkpt>
      <trkpt lat="47.15735" lon="4.94401">
        <ele>336.2</ele>
        <time>2024-06-29T08:55:03Z</time>
      </trkpt>
      <trkpt lat="47.15734" lon="4.94401">
        <ele>336.2</ele>
        <time>2024-06-29T08:55:04Z</time>
      </trkpt>
      <trkpt lat="47.15733" lon="4.94402">
        <ele>335.9</ele>
        <time>2024-06-29T08:55:05Z</time>
      </trkpt>
      <trkpt lat="47.15732" lon="4.94402">
        <ele>336</ele>
        <time>2024-06-29T08:55:06Z</time>
      </trkpt>
      <trkpt lat="47.15731" lon="4.94403">
        <ele>335.8</ele>
        <time>2024-06-29T08:55:07Z</time>
      </trkpt>
      <trkpt lat="47.1573" lon="4.94403">
        <ele>335.7</ele>
        <time>2024-06-29T08:55:08Z</time>
      </trkpt>
      <trkpt lat="47.15729" lon="4.94404">
        <ele>335.6</ele>
        <time>2024-06-29T08:55:09Z</time>
      </trkpt>
      <trkpt lat="47.15728" lon="4.94404">
        <ele>335.5</ele>
        <time>2024-06-29T08:55:10Z</time>
      </trkpt>
      <trkpt lat="47.15727" lon="4.94404">
        <ele>335.4</ele>
        <time>2024-06-29T08:55:11Z</time>
      </trkpt>
      <trkpt lat="47.15726" lon="4.94405">
        <ele>335.3</ele>
        <time>2024-06-29T08:55:12Z</time>
      </trkpt>
      <trkpt lat="47.15726" lon="4.94405">
        <ele>335.4</ele>
        <time>2024-06-29T08:55:13Z</time>
      </trkpt>
      <trkpt lat="47.15725" lon="4.94406">
        <ele>335.6</ele>
        <time>2024-06-29T08:55:14Z</time>
      </trkpt>
      <trkpt lat="47.15724" lon="4.94406">
        <ele>335.7</ele>
        <time>2024-06-29T08:55:15Z</time>
      </trkpt>
      <trkpt lat="47.15723" lon="4.94407">
        <ele>335.7</ele>
        <time>2024-06-29T08:55:16Z</time>
      </trkpt>
      <trkpt lat="47.15722" lon="4.94407">
        <ele>335.4</ele>
        <time>2024-06-29T08:55:17Z</time>
      </trkpt>
      <trkpt lat="47.15721" lon="4.94407">
        <ele>335.4</ele>
        <time>2024-06-29T08:55:18Z</time>
      </trkpt>
      <trkpt lat="47.1572" lon="4.94408">
        <ele>335.2</ele>
        <time>2024-06-29T08:55:19Z</time>
      </trkpt>
      <trkpt lat="47.15719" lon="4.94408">
        <ele>334.9</ele>
        <time>2024-06-29T08:55:20Z</time>
      </trkpt>
      <trkpt lat="47.15718" lon="4.94408">
        <ele>334.8</ele>
        <time>2024-06-29T08:55:21Z</time>
      </trkpt>
      <trkpt lat="47.15717" lon="4.94409">
        <ele>334.9</ele>
        <time>2024-06-29T08:55:22Z</time>
      </trkpt>
      <trkpt lat="47.15716" lon="4.94409">
        <ele>334.7</ele>
        <time>2024-06-29T08:55:23Z</time>
      </trkpt>
      <trkpt lat="47.15715" lon="4.94409">
        <ele>334.5</ele>
        <time>2024-06-29T08:55:24Z</time>
      </trkpt>
      <trkpt lat="47.15714" lon="4.9441">
        <ele>334.3</ele>
        <time>2024-06-29T08:55:25Z</time>
      </trkpt>
      <trkpt lat="47.15713" lon="4.9441">
        <ele>334.6</ele>
        <time>2024-06-29T08:55:26Z</time>
      </trkpt>
      <trkpt lat="47.15712" lon="4.94411">
        <ele>334.6</ele>
        <time>2024-06-29T08:55:27Z</time>
      </trkpt>
      <trkpt lat="47.15711" lon="4.94411">
        <ele>334.4</ele>
        <time>2024-06-29T08:55:28Z</time>
      </trkpt>
      <trkpt lat="47.1571" lon="4.94412">
        <ele>334.2</ele>
        <time>2024-06-29T08:55:29Z</time>
      </trkpt>
      <trkpt lat="47.15709" lon="4.94412">
        <ele>334</ele>
        <time>2024-06-29T08:55:30Z</time>
      </trkpt>
      <trkpt lat="47.15708" lon="4.94413">
        <ele>334</ele>
        <time>2024-06-29T08:55:31Z</time>
      </trkpt>
      <trkpt lat="47.15707" lon="4.94413">
        <ele>334</ele>
        <time>2024-06-29T08:55:32Z</time>
      </trkpt>
      <trkpt lat="47.15706" lon="4.94414">
        <ele>333.6</ele>
        <time>2024-06-29T08:55:33Z</time>
      </trkpt>
      <trkpt lat="47.15705" lon="4.94414">
        <ele>333.4</ele>
        <time>2024-06-29T08:55:34Z</time>
      </trkpt>
      <trkpt lat="47.15704" lon="4.94415">
        <ele>333.5</ele>
        <time>2024-06-29T08:55:35Z</time>
      </trkpt>
      <trkpt lat="47.15703" lon="4.94415">
        <ele>333.5</ele>
        <time>2024-06-29T08:55:36Z</time>
      </trkpt>
      <trkpt lat="47.15702" lon="4.94416">
        <ele>333.2</ele>
        <time>2024-06-29T08:55:37Z</time>
      </trkpt>
      <trkpt lat="47.15701" lon="4.94417">
        <ele>333.2</ele>
        <time>2024-06-29T08:55:38Z</time>
      </trkpt>
      <trkpt lat="47.15699" lon="4.94418">
        <ele>333.3</ele>
        <time>2024-06-29T08:55:40Z</time>
      </trkpt>
      <trkpt lat="47.15699" lon="4.94418">
        <ele>333</ele>
        <time>2024-06-29T08:55:41Z</time>
      </trkpt>
      <trkpt lat="47.15698" lon="4.94419">
        <ele>332.8</ele>
        <time>2024-06-29T08:55:42Z</time>
      </trkpt>
      <trkpt lat="47.15697" lon="4.94419">
        <ele>332.9</ele>
        <time>2024-06-29T08:55:43Z</time>
      </trkpt>
      <trkpt lat="47.15696" lon="4.9442">
        <ele>332.6</ele>
        <time>2024-06-29T08:55:44Z</time>
      </trkpt>
      <trkpt lat="47.15694" lon="4.94421">
        <ele>332.4</ele>
        <time>2024-06-29T08:55:46Z</time>
      </trkpt>
      <trkpt lat="47.15693" lon="4.94422">
        <ele>332.3</ele>
        <time>2024-06-29T08:55:48Z</time>
      </trkpt>
      <trkpt lat="47.15692" lon="4.94423">
        <ele>332.3</ele>
        <time>2024-06-29T08:55:49Z</time>
      </trkpt>
      <trkpt lat="47.15691" lon="4.94423">
        <ele>331.8</ele>
        <time>2024-06-29T08:55:50Z</time>
      </trkpt>
      <trkpt lat="47.1569" lon="4.94424">
        <ele>331.5</ele>
        <time>2024-06-29T08:55:51Z</time>
      </trkpt>
      <trkpt lat="47.15689" lon="4.94425">
        <ele>331.1</ele>
        <time>2024-06-29T08:55:53Z</time>
      </trkpt>
      <trkpt lat="47.15688" lon="4.94426">
        <ele>330.9</ele>
        <time>2024-06-29T08:55:54Z</time>
      </trkpt>
      <trkpt lat="47.15687" lon="4.94427">
        <ele>330.7</ele>
        <time>2024-06-29T08:55:55Z</time>
      </trkpt>
      <trkpt lat="47.15686" lon="4.94428">
        <ele>330.5</ele>
        <time>2024-06-29T08:55:56Z</time>
      </trkpt>
      <trkpt lat="47.15685" lon="4.94429">
        <ele>330.5</ele>
        <time>2024-06-29T08:55:57Z</time>
      </trkpt>
      <trkpt lat="47.15685" lon="4.9443">
        <ele>330.4</ele>
        <time>2024-06-29T08:55:58Z</time>
      </trkpt>
      <trkpt lat="47.15684" lon="4.94431">
        <ele>330.3</ele>
        <time>2024-06-29T08:55:59Z</time>
      </trkpt>
      <trkpt lat="47.15683" lon="4.94432">
        <ele>330.1</ele>
        <time>2024-06-29T08:56:00Z</time>
      </trkpt>
      <trkpt lat="47.15683" lon="4.94433">
        <ele>329.9</ele>
        <time>2024-06-29T08:56:01Z</time>
      </trkpt>
      <trkpt lat="47.15682" lon="4.94434">
        <ele>329.7</ele>
        <time>2024-06-29T08:56:02Z</time>
      </trkpt>
      <trkpt lat="47.15681" lon="4.94434">
        <ele>330.1</ele>
        <time>2024-06-29T08:56:03Z</time>
      </trkpt>
      <trkpt lat="47.1568" lon="4.94435">
        <ele>329.9</ele>
        <time>2024-06-29T08:56:04Z</time>
      </trkpt>
      <trkpt lat="47.15679" lon="4.94436">
        <ele>329.6</ele>
        <time>2024-06-29T08:56:05Z</time>
      </trkpt>
      <trkpt lat="47.15678" lon="4.94436">
        <ele>329.6</ele>
        <time>2024-06-29T08:56:06Z</time>
      </trkpt>
      <trkpt lat="47.15678" lon="4.94437">
        <ele>329.4</ele>
        <time>2024-06-29T08:56:07Z</time>
      </trkpt>
      <trkpt lat="47.15677" lon="4.94438">
        <ele>329.2</ele>
        <time>2024-06-29T08:56:08Z</time>
      </trkpt>
      <trkpt lat="47.15675" lon="4.94439">
        <ele>329.2</ele>
        <time>2024-06-29T08:56:10Z</time>
      </trkpt>
      <trkpt lat="47.15674" lon="4.94441">
        <ele>328.9</ele>
        <time>2024-06-29T08:56:12Z</time>
      </trkpt>
      <trkpt lat="47.15673" lon="4.94441">
        <ele>328.7</ele>
        <time>2024-06-29T08:56:13Z</time>
      </trkpt>
      <trkpt lat="47.15672" lon="4.94442">
        <ele>328.6</ele>
        <time>2024-06-29T08:56:14Z</time>
      </trkpt>
      <trkpt lat="47.15671" lon="4.94443">
        <ele>328.5</ele>
        <time>2024-06-29T08:56:15Z</time>
      </trkpt>
      <trkpt lat="47.1567" lon="4.94443">
        <ele>328.4</ele>
        <time>2024-06-29T08:56:16Z</time>
      </trkpt>
      <trkpt lat="47.15669" lon="4.94444">
        <ele>328.4</ele>
        <time>2024-06-29T08:56:17Z</time>
      </trkpt>
      <trkpt lat="47.15669" lon="4.94445">
        <ele>328.4</ele>
        <time>2024-06-29T08:56:18Z</time>
      </trkpt>
      <trkpt lat="47.15668" lon="4.94446">
        <ele>328.3</ele>
        <time>2024-06-29T08:56:19Z</time>
      </trkpt>
      <trkpt lat="47.15667" lon="4.94446">
        <ele>328.5</ele>
        <time>2024-06-29T08:56:20Z</time>
      </trkpt>
      <trkpt lat="47.15666" lon="4.94447">
        <ele>328.5</ele>
        <time>2024-06-29T08:56:21Z</time>
      </trkpt>
      <trkpt lat="47.15665" lon="4.94448">
        <ele>328.6</ele>
        <time>2024-06-29T08:56:22Z</time>
      </trkpt>
      <trkpt lat="47.15664" lon="4.94448">
        <ele>328.8</ele>
        <time>2024-06-29T08:56:23Z</time>
      </trkpt>
      <trkpt lat="47.15663" lon="4.94449">
        <ele>328.7</ele>
        <time>2024-06-29T08:56:24Z</time>
      </trkpt>
      <trkpt lat="47.15662" lon="4.94449">
        <ele>328.3</ele>
        <time>2024-06-29T08:56:25Z</time>
      </trkpt>
      <trkpt lat="47.15661" lon="4.9445">
        <ele>328.3</ele>
        <time>2024-06-29T08:56:26Z</time>
      </trkpt>
      <trkpt lat="47.1566" lon="4.94451">
        <ele>328.3</ele>
        <time>2024-06-29T08:56:27Z</time>
      </trkpt>
      <trkpt lat="47.15659" lon="4.94451">
        <ele>328.1</ele>
        <time>2024-06-29T08:56:28Z</time>
      </trkpt>
      <trkpt lat="47.15658" lon="4.94451">
        <ele>328</ele>
        <time>2024-06-29T08:56:29Z</time>
      </trkpt>
      <trkpt lat="47.15657" lon="4.94452">
        <ele>327.9</ele>
        <time>2024-06-29T08:56:30Z</time>
      </trkpt>
      <trkpt lat="47.15656" lon="4.94453">
        <ele>328.1</ele>
        <time>2024-06-29T08:56:31Z</time>
      </trkpt>
      <trkpt lat="47.15655" lon="4.94453">
        <ele>328.2</ele>
        <time>2024-06-29T08:56:32Z</time>
      </trkpt>
      <trkpt lat="47.15655" lon="4.94454">
        <ele>328</ele>
        <time>2024-06-29T08:56:33Z</time>
      </trkpt>
      <trkpt lat="47.15654" lon="4.94454">
        <ele>327.9</ele>
        <time>2024-06-29T08:56:34Z</time>
      </trkpt>
      <trkpt lat="47.15653" lon="4.94455">
        <ele>328</ele>
        <time>2024-06-29T08:56:35Z</time>
      </trkpt>
      <trkpt lat="47.15652" lon="4.94455">
        <ele>327.8</ele>
        <time>2024-06-29T08:56:36Z</time>
      </trkpt>
      <trkpt lat="47.15651" lon="4.94456">
        <ele>327.7</ele>
        <time>2024-06-29T08:56:37Z</time>
      </trkpt>
      <trkpt lat="47.1565" lon="4.94456">
        <ele>327.5</ele>
        <time>2024-06-29T08:56:38Z</time>
      </trkpt>
      <trkpt lat="47.15649" lon="4.94456">
        <ele>327.1</ele>
        <time>2024-06-29T08:56:39Z</time>
      </trkpt>
      <trkpt lat="47.15647" lon="4.94457">
        <ele>327.3</ele>
        <time>2024-06-29T08:56:40Z</time>
      </trkpt>
      <trkpt lat="47.15646" lon="4.94457">
        <ele>327.4</ele>
        <time>2024-06-29T08:56:41Z</time>
      </trkpt>
      <trkpt lat="47.15646" lon="4.94457">
        <ele>327.6</ele>
        <time>2024-06-29T08:56:42Z</time>
      </trkpt>
      <trkpt lat="47.15645" lon="4.94458">
        <ele>327.8</ele>
        <time>2024-06-29T08:56:43Z</time>
      </trkpt>
      <trkpt lat="47.15644" lon="4.94458">
        <ele>327.5</ele>
        <time>2024-06-29T08:56:44Z</time>
      </trkpt>
      <trkpt lat="47.15643" lon="4.94459">
        <ele>327.4</ele>
        <time>2024-06-29T08:56:45Z</time>
      </trkpt>
      <trkpt lat="47.15642" lon="4.94459">
        <ele>327.1</ele>
        <time>2024-06-29T08:56:46Z</time>
      </trkpt>
      <trkpt lat="47.15641" lon="4.9446">
        <ele>327.2</ele>
        <time>2024-06-29T08:56:47Z</time>
      </trkpt>
      <trkpt lat="47.1564" lon="4.9446">
        <ele>327</ele>
        <time>2024-06-29T08:56:48Z</time>
      </trkpt>
      <trkpt lat="47.15639" lon="4.9446">
        <ele>326.8</ele>
        <time>2024-06-29T08:56:49Z</time>
      </trkpt>
      <trkpt lat="47.15638" lon="4.94461">
        <ele>326.9</ele>
        <time>2024-06-29T08:56:50Z</time>
      </trkpt>
      <trkpt lat="47.15637" lon="4.94461">
        <ele>327.4</ele>
        <time>2024-06-29T08:56:51Z</time>
      </trkpt>
      <trkpt lat="47.15636" lon="4.94461">
        <ele>327.3</ele>
        <time>2024-06-29T08:56:52Z</time>
      </trkpt>
      <trkpt lat="47.15634" lon="4.94461">
        <ele>327.4</ele>
        <time>2024-06-29T08:56:53Z</time>
      </trkpt>
      <trkpt lat="47.15633" lon="4.94461">
        <ele>327.3</ele>
        <time>2024-06-29T08:56:54Z</time>
      </trkpt>
      <trkpt lat="47.15632" lon="4.94461">
        <ele>327.4</ele>
        <time>2024-06-29T08:56:55Z</time>
      </trkpt>
      <trkpt lat="47.15631" lon="4.94461">
        <ele>327</ele>
        <time>2024-06-29T08:56:56Z</time>
      </trkpt>
      <trkpt lat="47.1563" lon="4.94461">
        <ele>327.2</ele>
        <time>2024-06-29T08:56:57Z</time>
      </trkpt>
      <trkpt lat="47.15629" lon="4.94462">
        <ele>327.2</ele>
        <time>2024-06-29T08:56:58Z</time>
      </trkpt>
      <trkpt lat="47.15629" lon="4.94462">
        <ele>327.3</ele>
        <time>2024-06-29T08:56:59Z</time>
      </trkpt>
      <trkpt lat="47.15628" lon="4.94462">
        <ele>327.4</ele>
        <time>2024-06-29T08:57:00Z</time>
      </trkpt>
      <trkpt lat="47.15627" lon="4.94462">
        <ele>327.9</ele>
        <time>2024-06-29T08:57:01Z</time>
      </trkpt>
      <trkpt lat="47.15626" lon="4.94463">
        <ele>328.1</ele>
        <time>2024-06-29T08:57:02Z</time>
      </trkpt>
      <trkpt lat="47.15625" lon="4.94463">
        <ele>328</ele>
        <time>2024-06-29T08:57:03Z</time>
      </trkpt>
      <trkpt lat="47.15624" lon="4.94463">
        <ele>328.3</ele>
        <time>2024-06-29T08:57:04Z</time>
      </trkpt>
      <trkpt lat="47.15623" lon="4.94463">
        <ele>328.4</ele>
        <time>2024-06-29T08:57:05Z</time>
      </trkpt>
      <trkpt lat="47.15622" lon="4.94463">
        <ele>328.6</ele>
        <time>2024-06-29T08:57:06Z</time>
      </trkpt>
      <trkpt lat="47.15621" lon="4.94464">
        <ele>328.4</ele>
        <time>2024-06-29T08:57:07Z</time>
      </trkpt>
      <trkpt lat="47.1562" lon="4.94464">
        <ele>328</ele>
        <time>2024-06-29T08:57:08Z</time>
      </trkpt>
      <trkpt lat="47.15619" lon="4.94464">
        <ele>328</ele>
        <time>2024-06-29T08:57:09Z</time>
      </trkpt>
      <trkpt lat="47.15618" lon="4.94464">
        <ele>328</ele>
        <time>2024-06-29T08:57:10Z</time>
      </trkpt>
      <trkpt lat="47.15617" lon="4.94464">
        <ele>327.8</ele>
        <time>2024-06-29T08:57:11Z</time>
      </trkpt>
      <trkpt lat="47.15616" lon="4.94464">
        <ele>327.7</ele>
        <time>2024-06-29T08:57:12Z</time>
      </trkpt>
      <trkpt lat="47.15615" lon="4.94464">
        <ele>327.6</ele>
        <time>2024-06-29T08:57:13Z</time>
      </trkpt>
      <trkpt lat="47.15614" lon="4.94465">
        <ele>327.8</ele>
        <time>2024-06-29T08:57:14Z</time>
      </trkpt>
      <trkpt lat="47.15613" lon="4.94465">
        <ele>327.7</ele>
        <time>2024-06-29T08:57:15Z</time>
      </trkpt>
      <trkpt lat="47.15612" lon="4.94465">
        <ele>327.3</ele>
        <time>2024-06-29T08:57:16Z</time>
      </trkpt>
      <trkpt lat="47.15611" lon="4.94465">
        <ele>327.3</ele>
        <time>2024-06-29T08:57:17Z</time>
      </trkpt>
      <trkpt lat="47.1561" lon="4.94465">
        <ele>327.3</ele>
        <time>2024-06-29T08:57:18Z</time>
      </trkpt>
      <trkpt lat="47.15609" lon="4.94465">
        <ele>327.1</ele>
        <time>2024-06-29T08:57:19Z</time>
      </trkpt>
      <trkpt lat="47.15608" lon="4.94465">
        <ele>326.8</ele>
        <time>2024-06-29T08:57:20Z</time>
      </trkpt>
      <trkpt lat="47.15607" lon="4.94465">
        <ele>326.7</ele>
        <time>2024-06-29T08:57:21Z</time>
      </trkpt>
      <trkpt lat="47.15606" lon="4.94465">
        <ele>326.6</ele>
        <time>2024-06-29T08:57:22Z</time>
      </trkpt>
      <trkpt lat="47.15605" lon="4.94465">
        <ele>326.6</ele>
        <time>2024-06-29T08:57:23Z</time>
      </trkpt>
      <trkpt lat="47.15604" lon="4.94466">
        <ele>326</ele>
        <time>2024-06-29T08:57:24Z</time>
      </trkpt>
      <trkpt lat="47.15602" lon="4.94466">
        <ele>326.3</ele>
        <time>2024-06-29T08:57:25Z</time>
      </trkpt>
      <trkpt lat="47.15601" lon="4.94466">
        <ele>326.2</ele>
        <time>2024-06-29T08:57:26Z</time>
      </trkpt>
      <trkpt lat="47.156" lon="4.94466">
        <ele>326.4</ele>
        <time>2024-06-29T08:57:27Z</time>
      </trkpt>
      <trkpt lat="47.15599" lon="4.94467">
        <ele>326.5</ele>
        <time>2024-06-29T08:57:28Z</time>
      </trkpt>
      <trkpt lat="47.15598" lon="4.94467">
        <ele>326.2</ele>
        <time>2024-06-29T08:57:29Z</time>
      </trkpt>
      <trkpt lat="47.15597" lon="4.94467">
        <ele>325.9</ele>
        <time>2024-06-29T08:57:30Z</time>
      </trkpt>
      <trkpt lat="47.15596" lon="4.94468">
        <ele>325.4</ele>
        <time>2024-06-29T08:57:31Z</time>
      </trkpt>
      <trkpt lat="47.15595" lon="4.94468">
        <ele>324.9</ele>
        <time>2024-06-29T08:57:32Z</time>
      </trkpt>
      <trkpt lat="47.15594" lon="4.94468">
        <ele>325.6</ele>
        <time>2024-06-29T08:57:33Z</time>
      </trkpt>
      <trkpt lat="47.15593" lon="4.94468">
        <ele>325.2</ele>
        <time>2024-06-29T08:57:34Z</time>
      </trkpt>
      <trkpt lat="47.15592" lon="4.94469">
        <ele>324.7</ele>
        <time>2024-06-29T08:57:35Z</time>
      </trkpt>
      <trkpt lat="47.15591" lon="4.9447">
        <ele>324.8</ele>
        <time>2024-06-29T08:57:36Z</time>
      </trkpt>
      <trkpt lat="47.1559" lon="4.9447">
        <ele>324.4</ele>
        <time>2024-06-29T08:57:37Z</time>
      </trkpt>
      <trkpt lat="47.15589" lon="4.94471">
        <ele>324</ele>
        <time>2024-06-29T08:57:38Z</time>
      </trkpt>
      <trkpt lat="47.15588" lon="4.94471">
        <ele>323.8</ele>
        <time>2024-06-29T08:57:39Z</time>
      </trkpt>
      <trkpt lat="47.15587" lon="4.94471">
        <ele>323.6</ele>
        <time>2024-06-29T08:57:40Z</time>
      </trkpt>
      <trkpt lat="47.15586" lon="4.94471">
        <ele>323.1</ele>
        <time>2024-06-29T08:57:41Z</time>
      </trkpt>
      <trkpt lat="47.15584" lon="4.94472">
        <ele>323</ele>
        <time>2024-06-29T08:57:42Z</time>
      </trkpt>
      <trkpt lat="47.15583" lon="4.94472">
        <ele>322.3</ele>
        <time>2024-06-29T08:57:43Z</time>
      </trkpt>
      <trkpt lat="47.15582" lon="4.94472">
        <ele>322.7</ele>
        <time>2024-06-29T08:57:44Z</time>
      </trkpt>
      <trkpt lat="47.15581" lon="4.94473">
        <ele>322.3</ele>
        <time>2024-06-29T08:57:45Z</time>
      </trkpt>
      <trkpt lat="47.1558" lon="4.94473">
        <ele>322.2</ele>
        <time>2024-06-29T08:57:46Z</time>
      </trkpt>
      <trkpt lat="47.15579" lon="4.94474">
        <ele>322</ele>
        <time>2024-06-29T08:57:47Z</time>
      </trkpt>
      <trkpt lat="47.15578" lon="4.94474">
        <ele>322.2</ele>
        <time>2024-06-29T08:57:48Z</time>
      </trkpt>
      <trkpt lat="47.15577" lon="4.94474">
        <ele>322</ele>
        <time>2024-06-29T08:57:49Z</time>
      </trkpt>
      <trkpt lat="47.15576" lon="4.94475">
        <ele>321.8</ele>
        <time>2024-06-29T08:57:50Z</time>
      </trkpt>
      <trkpt lat="47.15575" lon="4.94475">
        <ele>321.7</ele>
        <time>2024-06-29T08:57:51Z</time>
      </trkpt>
      <trkpt lat="47.15574" lon="4.94476">
        <ele>321.7</ele>
        <time>2024-06-29T08:57:52Z</time>
      </trkpt>
      <trkpt lat="47.15573" lon="4.94476">
        <ele>321.6</ele>
        <time>2024-06-29T08:57:53Z</time>
      </trkpt>
      <trkpt lat="47.15572" lon="4.94477">
        <ele>321.5</ele>
        <time>2024-06-29T08:57:54Z</time>
      </trkpt>
      <trkpt lat="47.15571" lon="4.94478">
        <ele>321.4</ele>
        <time>2024-06-29T08:57:55Z</time>
      </trkpt>
      <trkpt lat="47.1557" lon="4.94478">
        <ele>321.3</ele>
        <time>2024-06-29T08:57:56Z</time>
      </trkpt>
      <trkpt lat="47.15569" lon="4.94478">
        <ele>321.1</ele>
        <time>2024-06-29T08:57:57Z</time>
      </trkpt>
      <trkpt lat="47.15568" lon="4.94479">
        <ele>321.1</ele>
        <time>2024-06-29T08:57:58Z</time>
      </trkpt>
      <trkpt lat="47.15567" lon="4.94479">
        <ele>320.8</ele>
        <time>2024-06-29T08:57:59Z</time>
      </trkpt>
      <trkpt lat="47.15566" lon="4.94479">
        <ele>321</ele>
        <time>2024-06-29T08:58:00Z</time>
      </trkpt>
      <trkpt lat="47.15565" lon="4.9448">
        <ele>321</ele>
        <time>2024-06-29T08:58:01Z</time>
      </trkpt>
      <trkpt lat="47.15564" lon="4.9448">
        <ele>320.8</ele>
        <time>2024-06-29T08:58:02Z</time>
      </trkpt>
      <trkpt lat="47.15563" lon="4.9448">
        <ele>320.5</ele>
        <time>2024-06-29T08:58:03Z</time>
      </trkpt>
      <trkpt lat="47.15562" lon="4.9448">
        <ele>318.6</ele>
        <time>2024-06-29T08:58:05Z</time>
      </trkpt>
      <trkpt lat="47.1556" lon="4.9448">
        <ele>319.1</ele>
        <time>2024-06-29T08:58:07Z</time>
      </trkpt>
      <trkpt lat="47.15559" lon="4.9448">
        <ele>319.1</ele>
        <time>2024-06-29T08:58:08Z</time>
      </trkpt>
      <trkpt lat="47.15558" lon="4.94481">
        <ele>319.5</ele>
        <time>2024-06-29T08:58:09Z</time>
      </trkpt>
      <trkpt lat="47.15557" lon="4.94481">
        <ele>319.3</ele>
        <time>2024-06-29T08:58:10Z</time>
      </trkpt>
      <trkpt lat="47.15556" lon="4.94481">
        <ele>319.3</ele>
        <time>2024-06-29T08:58:11Z</time>
      </trkpt>
      <trkpt lat="47.15555" lon="4.94481">
        <ele>319.4</ele>
        <time>2024-06-29T08:58:12Z</time>
      </trkpt>
      <trkpt lat="47.15554" lon="4.94481">
        <ele>319.5</ele>
        <time>2024-06-29T08:58:13Z</time>
      </trkpt>
      <trkpt lat="47.15553" lon="4.94482">
        <ele>319.9</ele>
        <time>2024-06-29T08:58:14Z</time>
      </trkpt>
      <trkpt lat="47.15552" lon="4.94482">
        <ele>319.6</ele>
        <time>2024-06-29T08:58:15Z</time>
      </trkpt>
      <trkpt lat="47.15551" lon="4.94482">
        <ele>319.9</ele>
        <time>2024-06-29T08:58:16Z</time>
      </trkpt>
      <trkpt lat="47.1555" lon="4.94483">
        <ele>320.1</ele>
        <time>2024-06-29T08:58:17Z</time>
      </trkpt>
      <trkpt lat="47.15548" lon="4.94483">
        <ele>320.5</ele>
        <time>2024-06-29T08:58:19Z</time>
      </trkpt>
      <trkpt lat="47.15547" lon="4.94483">
        <ele>320.3</ele>
        <time>2024-06-29T08:58:20Z</time>
      </trkpt>
      <trkpt lat="47.15546" lon="4.94483">
        <ele>320.6</ele>
        <time>2024-06-29T08:58:21Z</time>
      </trkpt>
      <trkpt lat="47.15545" lon="4.94483">
        <ele>320.6</ele>
        <time>2024-06-29T08:58:23Z</time>
      </trkpt>
      <trkpt lat="47.15544" lon="4.94483">
        <ele>320.3</ele>
        <time>2024-06-29T08:58:24Z</time>
      </trkpt>
      <trkpt lat="47.15543" lon="4.94483">
        <ele>320.5</ele>
        <time>2024-06-29T08:58:25Z</time>
      </trkpt>
      <trkpt lat="47.15542" lon="4.94484">
        <ele>320.6</ele>
        <time>2024-06-29T08:58:26Z</time>
      </trkpt>
      <trkpt lat="47.15541" lon="4.94484">
        <ele>320.7</ele>
        <time>2024-06-29T08:58:27Z</time>
      </trkpt>
      <trkpt lat="47.1554" lon="4.94484">
        <ele>320.6</ele>
        <time>2024-06-29T08:58:28Z</time>
      </trkpt>
      <trkpt lat="47.15539" lon="4.94484">
        <ele>320.5</ele>
        <time>2024-06-29T08:58:29Z</time>
      </trkpt>
      <trkpt lat="47.15538" lon="4.94484">
        <ele>320.5</ele>
        <time>2024-06-29T08:58:30Z</time>
      </trkpt>
      <trkpt lat="47.15537" lon="4.94484">
        <ele>320</ele>
        <time>2024-06-29T08:58:31Z</time>
      </trkpt>
      <trkpt lat="47.15536" lon="4.94484">
        <ele>320.1</ele>
        <time>2024-06-29T08:58:32Z</time>
      </trkpt>
      <trkpt lat="47.15535" lon="4.94485">
        <ele>320.4</ele>
        <time>2024-06-29T08:58:33Z</time>
      </trkpt>
      <trkpt lat="47.15534" lon="4.94485">
        <ele>320.1</ele>
        <time>2024-06-29T08:58:34Z</time>
      </trkpt>
      <trkpt lat="47.15533" lon="4.94486">
        <ele>319.9</ele>
        <time>2024-06-29T08:58:35Z</time>
      </trkpt>
      <trkpt lat="47.15531" lon="4.94486">
        <ele>320</ele>
        <time>2024-06-29T08:58:36Z</time>
      </trkpt>
      <trkpt lat="47.1553" lon="4.94487">
        <ele>320.2</ele>
        <time>2024-06-29T08:58:37Z</time>
      </trkpt>
      <trkpt lat="47.15529" lon="4.94487">
        <ele>320.3</ele>
        <time>2024-06-29T08:58:38Z</time>
      </trkpt>
      <trkpt lat="47.15528" lon="4.94487">
        <ele>320</ele>
        <time>2024-06-29T08:58:39Z</time>
      </trkpt>
      <trkpt lat="47.15527" lon="4.94487">
        <ele>319.8</ele>
        <time>2024-06-29T08:58:40Z</time>
      </trkpt>
      <trkpt lat="47.15526" lon="4.94487">
        <ele>319.5</ele>
        <time>2024-06-29T08:58:41Z</time>
      </trkpt>
      <trkpt lat="47.15524" lon="4.94487">
        <ele>319.6</ele>
        <time>2024-06-29T08:58:42Z</time>
      </trkpt>
      <trkpt lat="47.15523" lon="4.94487">
        <ele>319.9</ele>
        <time>2024-06-29T08:58:43Z</time>
      </trkpt>
      <trkpt lat="47.15522" lon="4.94487">
        <ele>320</ele>
        <time>2024-06-29T08:58:44Z</time>
      </trkpt>
      <trkpt lat="47.15521" lon="4.94487">
        <ele>319.8</ele>
        <time>2024-06-29T08:58:45Z</time>
      </trkpt>
      <trkpt lat="47.1552" lon="4.94487">
        <ele>319.8</ele>
        <time>2024-06-29T08:58:46Z</time>
      </trkpt>
      <trkpt lat="47.15519" lon="4.94487">
        <ele>319.1</ele>
        <time>2024-06-29T08:58:47Z</time>
      </trkpt>
      <trkpt lat="47.15518" lon="4.94487">
        <ele>319.4</ele>
        <time>2024-06-29T08:58:48Z</time>
      </trkpt>
      <trkpt lat="47.15517" lon="4.94487">
        <ele>319.7</ele>
        <time>2024-06-29T08:58:49Z</time>
      </trkpt>
      <trkpt lat="47.15516" lon="4.94487">
        <ele>319.7</ele>
        <time>2024-06-29T08:58:50Z</time>
      </trkpt>
      <trkpt lat="47.15515" lon="4.94487">
        <ele>319.5</ele>
        <time>2024-06-29T08:58:51Z</time>
      </trkpt>
      <trkpt lat="47.15514" lon="4.94487">
        <ele>319.4</ele>
        <time>2024-06-29T08:58:52Z</time>
      </trkpt>
      <trkpt lat="47.15513" lon="4.94487">
        <ele>319.4</ele>
        <time>2024-06-29T08:58:53Z</time>
      </trkpt>
      <trkpt lat="47.15512" lon="4.94488">
        <ele>319.1</ele>
        <time>2024-06-29T08:58:54Z</time>
      </trkpt>
      <trkpt lat="47.15511" lon="4.94488">
        <ele>319.7</ele>
        <time>2024-06-29T08:58:55Z</time>
      </trkpt>
      <trkpt lat="47.1551" lon="4.94488">
        <ele>319.3</ele>
        <time>2024-06-29T08:58:56Z</time>
      </trkpt>
      <trkpt lat="47.15508" lon="4.94488">
        <ele>319.3</ele>
        <time>2024-06-29T08:58:57Z</time>
      </trkpt>
      <trkpt lat="47.15507" lon="4.94488">
        <ele>319.1</ele>
        <time>2024-06-29T08:58:58Z</time>
      </trkpt>
      <trkpt lat="47.15506" lon="4.94488">
        <ele>319.2</ele>
        <time>2024-06-29T08:58:59Z</time>
      </trkpt>
      <trkpt lat="47.15505" lon="4.94488">
        <ele>319</ele>
        <time>2024-06-29T08:59:00Z</time>
      </trkpt>
      <trkpt lat="47.15504" lon="4.94489">
        <ele>319.3</ele>
        <time>2024-06-29T08:59:01Z</time>
      </trkpt>
      <trkpt lat="47.15503" lon="4.94489">
        <ele>319.4</ele>
        <time>2024-06-29T08:59:02Z</time>
      </trkpt>
      <trkpt lat="47.15501" lon="4.94489">
        <ele>319.3</ele>
        <time>2024-06-29T08:59:03Z</time>
      </trkpt>
      <trkpt lat="47.155" lon="4.94489">
        <ele>319.3</ele>
        <time>2024-06-29T08:59:04Z</time>
      </trkpt>
      <trkpt lat="47.15499" lon="4.9449">
        <ele>319.1</ele>
        <time>2024-06-29T08:59:05Z</time>
      </trkpt>
      <trkpt lat="47.15498" lon="4.9449">
        <ele>319.2</ele>
        <time>2024-06-29T08:59:06Z</time>
      </trkpt>
      <trkpt lat="47.15497" lon="4.9449">
        <ele>319.3</ele>
        <time>2024-06-29T08:59:07Z</time>
      </trkpt>
      <trkpt lat="47.15496" lon="4.9449">
        <ele>319.4</ele>
        <time>2024-06-29T08:59:08Z</time>
      </trkpt>
      <trkpt lat="47.15495" lon="4.9449">
        <ele>319.5</ele>
        <time>2024-06-29T08:59:09Z</time>
      </trkpt>
      <trkpt lat="47.15494" lon="4.94491">
        <ele>319.2</ele>
        <time>2024-06-29T08:59:10Z</time>
      </trkpt>
      <trkpt lat="47.15493" lon="4.94491">
        <ele>318.8</ele>
        <time>2024-06-29T08:59:11Z</time>
      </trkpt>
      <trkpt lat="47.15492" lon="4.94491">
        <ele>318.6</ele>
        <time>2024-06-29T08:59:12Z</time>
      </trkpt>
      <trkpt lat="47.15491" lon="4.94491">
        <ele>318.9</ele>
        <time>2024-06-29T08:59:13Z</time>
      </trkpt>
      <trkpt lat="47.1549" lon="4.94492">
        <ele>319.2</ele>
        <time>2024-06-29T08:59:14Z</time>
      </trkpt>
      <trkpt lat="47.15489" lon="4.94492">
        <ele>319.1</ele>
        <time>2024-06-29T08:59:15Z</time>
      </trkpt>
      <trkpt lat="47.15487" lon="4.94492">
        <ele>318.8</ele>
        <time>2024-06-29T08:59:16Z</time>
      </trkpt>
      <trkpt lat="47.15486" lon="4.94492">
        <ele>318.8</ele>
        <time>2024-06-29T08:59:17Z</time>
      </trkpt>
      <trkpt lat="47.15485" lon="4.94493">
        <ele>318.6</ele>
        <time>2024-06-29T08:59:18Z</time>
      </trkpt>
      <trkpt lat="47.15484" lon="4.94493">
        <ele>318.4</ele>
        <time>2024-06-29T08:59:19Z</time>
      </trkpt>
      <trkpt lat="47.15483" lon="4.94493">
        <ele>318.4</ele>
        <time>2024-06-29T08:59:20Z</time>
      </trkpt>
      <trkpt lat="47.15482" lon="4.94493">
        <ele>318.2</ele>
        <time>2024-06-29T08:59:21Z</time>
      </trkpt>
      <trkpt lat="47.15481" lon="4.94493">
        <ele>318</ele>
        <time>2024-06-29T08:59:22Z</time>
      </trkpt>
      <trkpt lat="47.1548" lon="4.94493">
        <ele>317.6</ele>
        <time>2024-06-29T08:59:23Z</time>
      </trkpt>
      <trkpt lat="47.15479" lon="4.94493">
        <ele>317.6</ele>
        <time>2024-06-29T08:59:24Z</time>
      </trkpt>
      <trkpt lat="47.15477" lon="4.94493">
        <ele>317.6</ele>
        <time>2024-06-29T08:59:25Z</time>
      </trkpt>
      <trkpt lat="47.15476" lon="4.94493">
        <ele>317.5</ele>
        <time>2024-06-29T08:59:26Z</time>
      </trkpt>
      <trkpt lat="47.15475" lon="4.94493">
        <ele>317.1</ele>
        <time>2024-06-29T08:59:27Z</time>
      </trkpt>
      <trkpt lat="47.15474" lon="4.94493">
        <ele>316.8</ele>
        <time>2024-06-29T08:59:28Z</time>
      </trkpt>
      <trkpt lat="47.15473" lon="4.94493">
        <ele>316.7</ele>
        <time>2024-06-29T08:59:29Z</time>
      </trkpt>
      <trkpt lat="47.15472" lon="4.94494">
        <ele>316.4</ele>
        <time>2024-06-29T08:59:30Z</time>
      </trkpt>
      <trkpt lat="47.15471" lon="4.94494">
        <ele>316.4</ele>
        <time>2024-06-29T08:59:31Z</time>
      </trkpt>
      <trkpt lat="47.1547" lon="4.94494">
        <ele>316.4</ele>
        <time>2024-06-29T08:59:32Z</time>
      </trkpt>
      <trkpt lat="47.15469" lon="4.94494">
        <ele>316.3</ele>
        <time>2024-06-29T08:59:33Z</time>
      </trkpt>
      <trkpt lat="47.15468" lon="4.94495">
        <ele>316.2</ele>
        <time>2024-06-29T08:59:34Z</time>
      </trkpt>
      <trkpt lat="47.15467" lon="4.94495">
        <ele>316.3</ele>
        <time>2024-06-29T08:59:35Z</time>
      </trkpt>
      <trkpt lat="47.15466" lon="4.94495">
        <ele>316</ele>
        <time>2024-06-29T08:59:36Z</time>
      </trkpt>
      <trkpt lat="47.15465" lon="4.94495">
        <ele>316</ele>
        <time>2024-06-29T08:59:37Z</time>
      </trkpt>
      <trkpt lat="47.15464" lon="4.94495">
        <ele>315.6</ele>
        <time>2024-06-29T08:59:38Z</time>
      </trkpt>
      <trkpt lat="47.15463" lon="4.94495">
        <ele>315.6</ele>
        <time>2024-06-29T08:59:39Z</time>
      </trkpt>
      <trkpt lat="47.15462" lon="4.94495">
        <ele>315.7</ele>
        <time>2024-06-29T08:59:40Z</time>
      </trkpt>
      <trkpt lat="47.15461" lon="4.94495">
        <ele>315.8</ele>
        <time>2024-06-29T08:59:41Z</time>
      </trkpt>
      <trkpt lat="47.1546" lon="4.94495">
        <ele>315.5</ele>
        <time>2024-06-29T08:59:42Z</time>
      </trkpt>
      <trkpt lat="47.15459" lon="4.94496">
        <ele>315.4</ele>
        <time>2024-06-29T08:59:43Z</time>
      </trkpt>
      <trkpt lat="47.15459" lon="4.94496">
        <ele>315.6</ele>
        <time>2024-06-29T08:59:44Z</time>
      </trkpt>
      <trkpt lat="47.15458" lon="4.94496">
        <ele>315.8</ele>
        <time>2024-06-29T08:59:45Z</time>
      </trkpt>
      <trkpt lat="47.15456" lon="4.94497">
        <ele>315.9</ele>
        <time>2024-06-29T08:59:47Z</time>
      </trkpt>
      <trkpt lat="47.15454" lon="4.94496">
        <ele>315.8</ele>
        <time>2024-06-29T08:59:49Z</time>
      </trkpt>
      <trkpt lat="47.15453" lon="4.94496">
        <ele>316.1</ele>
        <time>2024-06-29T08:59:51Z</time>
      </trkpt>
      <trkpt lat="47.15451" lon="4.94496">
        <ele>315.9</ele>
        <time>2024-06-29T08:59:53Z</time>
      </trkpt>
      <trkpt lat="47.1545" lon="4.94496">
        <ele>315.8</ele>
        <time>2024-06-29T08:59:54Z</time>
      </trkpt>
      <trkpt lat="47.15448" lon="4.94496">
        <ele>315.6</ele>
        <time>2024-06-29T08:59:56Z</time>
      </trkpt>
      <trkpt lat="47.15446" lon="4.94496">
        <ele>315.5</ele>
        <time>2024-06-29T08:59:58Z</time>
      </trkpt>
      <trkpt lat="47.15445" lon="4.94496">
        <ele>315.2</ele>
        <time>2024-06-29T09:00:00Z</time>
      </trkpt>
      <trkpt lat="47.15444" lon="4.94496">
        <ele>315.3</ele>
        <time>2024-06-29T09:00:01Z</time>
      </trkpt>
      <trkpt lat="47.15443" lon="4.94497">
        <ele>315.2</ele>
        <time>2024-06-29T09:00:02Z</time>
      </trkpt>
      <trkpt lat="47.15442" lon="4.94497">
        <ele>314.8</ele>
        <time>2024-06-29T09:00:03Z</time>
      </trkpt>
      <trkpt lat="47.15441" lon="4.94498">
        <ele>315.2</ele>
        <time>2024-06-29T09:00:04Z</time>
      </trkpt>
      <trkpt lat="47.1544" lon="4.94498">
        <ele>315</ele>
        <time>2024-06-29T09:00:05Z</time>
      </trkpt>
      <trkpt lat="47.15438" lon="4.94498">
        <ele>314.7</ele>
        <time>2024-06-29T09:00:07Z</time>
      </trkpt>
      <trkpt lat="47.15437" lon="4.94497">
        <ele>314.7</ele>
        <time>2024-06-29T09:00:08Z</time>
      </trkpt>
      <trkpt lat="47.15437" lon="4.94496">
        <ele>314.6</ele>
        <time>2024-06-29T09:00:09Z</time>
      </trkpt>
      <trkpt lat="47.15436" lon="4.94496">
        <ele>314.5</ele>
        <time>2024-06-29T09:00:10Z</time>
      </trkpt>
      <trkpt lat="47.15435" lon="4.94496">
        <ele>314.5</ele>
        <time>2024-06-29T09:00:11Z</time>
      </trkpt>
      <trkpt lat="47.15434" lon="4.94496">
        <ele>314.3</ele>
        <time>2024-06-29T09:00:12Z</time>
      </trkpt>
      <trkpt lat="47.15433" lon="4.94495">
        <ele>314.2</ele>
        <time>2024-06-29T09:00:13Z</time>
      </trkpt>
      <trkpt lat="47.15432" lon="4.94496">
        <ele>314.1</ele>
        <time>2024-06-29T09:00:14Z</time>
      </trkpt>
      <trkpt lat="47.15431" lon="4.94496">
        <ele>314.1</ele>
        <time>2024-06-29T09:00:15Z</time>
      </trkpt>
      <trkpt lat="47.1543" lon="4.94496">
        <ele>314.1</ele>
        <time>2024-06-29T09:00:16Z</time>
      </trkpt>
      <trkpt lat="47.15429" lon="4.94496">
        <ele>313.9</ele>
        <time>2024-06-29T09:00:17Z</time>
      </trkpt>
      <trkpt lat="47.15428" lon="4.94497">
        <ele>313.9</ele>
        <time>2024-06-29T09:00:18Z</time>
      </trkpt>
      <trkpt lat="47.15427" lon="4.94497">
        <ele>313.7</ele>
        <time>2024-06-29T09:00:19Z</time>
      </trkpt>
      <trkpt lat="47.15426" lon="4.94497">
        <ele>313.7</ele>
        <time>2024-06-29T09:00:20Z</time>
      </trkpt>
      <trkpt lat="47.15425" lon="4.94497">
        <ele>313.4</ele>
        <time>2024-06-29T09:00:21Z</time>
      </trkpt>
      <trkpt lat="47.15424" lon="4.94497">
        <ele>313.1</ele>
        <time>2024-06-29T09:00:22Z</time>
      </trkpt>
      <trkpt lat="47.15423" lon="4.94497">
        <ele>313</ele>
        <time>2024-06-29T09:00:23Z</time>
      </trkpt>
      <trkpt lat="47.15422" lon="4.94497">
        <ele>312.7</ele>
        <time>2024-06-29T09:00:24Z</time>
      </trkpt>
      <trkpt lat="47.15421" lon="4.94497">
        <ele>312.4</ele>
        <time>2024-06-29T09:00:25Z</time>
      </trkpt>
      <trkpt lat="47.1542" lon="4.94497">
        <ele>312.2</ele>
        <time>2024-06-29T09:00:26Z</time>
      </trkpt>
      <trkpt lat="47.15419" lon="4.94497">
        <ele>312.1</ele>
        <time>2024-06-29T09:00:27Z</time>
      </trkpt>
      <trkpt lat="47.15418" lon="4.94497">
        <ele>311.9</ele>
        <time>2024-06-29T09:00:28Z</time>
      </trkpt>
      <trkpt lat="47.15417" lon="4.94497">
        <ele>311.6</ele>
        <time>2024-06-29T09:00:29Z</time>
      </trkpt>
      <trkpt lat="47.15416" lon="4.94497">
        <ele>311.6</ele>
        <time>2024-06-29T09:00:30Z</time>
      </trkpt>
      <trkpt lat="47.15414" lon="4.94497">
        <ele>311.3</ele>
        <time>2024-06-29T09:00:32Z</time>
      </trkpt>
      <trkpt lat="47.15412" lon="4.94497">
        <ele>311.3</ele>
        <time>2024-06-29T09:00:34Z</time>
      </trkpt>
      <trkpt lat="47.15412" lon="4.94497">
        <ele>311.2</ele>
        <time>2024-06-29T09:00:35Z</time>
      </trkpt>
      <trkpt lat="47.15411" lon="4.94497">
        <ele>310.8</ele>
        <time>2024-06-29T09:00:36Z</time>
      </trkpt>
      <trkpt lat="47.1541" lon="4.94497">
        <ele>310.7</ele>
        <time>2024-06-29T09:00:37Z</time>
      </trkpt>
      <trkpt lat="47.15408" lon="4.94498">
        <ele>310.5</ele>
        <time>2024-06-29T09:00:39Z</time>
      </trkpt>
      <trkpt lat="47.15406" lon="4.94497">
        <ele>310.2</ele>
        <time>2024-06-29T09:00:41Z</time>
      </trkpt>
      <trkpt lat="47.15405" lon="4.94497">
        <ele>310</ele>
        <time>2024-06-29T09:00:43Z</time>
      </trkpt>
      <trkpt lat="47.15403" lon="4.94497">
        <ele>310</ele>
        <time>2024-06-29T09:00:45Z</time>
      </trkpt>
      <trkpt lat="47.15402" lon="4.94498">
        <ele>309.5</ele>
        <time>2024-06-29T09:00:47Z</time>
      </trkpt>
      <trkpt lat="47.154" lon="4.94498">
        <ele>309.2</ele>
        <time>2024-06-29T09:00:49Z</time>
      </trkpt>
      <trkpt lat="47.15398" lon="4.94498">
        <ele>308.8</ele>
        <time>2024-06-29T09:00:51Z</time>
      </trkpt>
      <trkpt lat="47.15397" lon="4.94498">
        <ele>308.8</ele>
        <time>2024-06-29T09:00:53Z</time>
      </trkpt>
      <trkpt lat="47.15396" lon="4.94498">
        <ele>308.3</ele>
        <time>2024-06-29T09:00:54Z</time>
      </trkpt>
      <trkpt lat="47.15395" lon="4.94498">
        <ele>308.1</ele>
        <time>2024-06-29T09:00:55Z</time>
      </trkpt>
      <trkpt lat="47.15393" lon="4.94498">
        <ele>307.9</ele>
        <time>2024-06-29T09:00:56Z</time>
      </trkpt>
      <trkpt lat="47.15392" lon="4.94499">
        <ele>307.8</ele>
        <time>2024-06-29T09:00:57Z</time>
      </trkpt>
      <trkpt lat="47.15391" lon="4.94499">
        <ele>307.5</ele>
        <time>2024-06-29T09:00:58Z</time>
      </trkpt>
      <trkpt lat="47.1539" lon="4.94499">
        <ele>307.4</ele>
        <time>2024-06-29T09:00:59Z</time>
      </trkpt>
      <trkpt lat="47.1539" lon="4.945">
        <ele>307.1</ele>
        <time>2024-06-29T09:01:00Z</time>
      </trkpt>
      <trkpt lat="47.15389" lon="4.945">
        <ele>307.1</ele>
        <time>2024-06-29T09:01:01Z</time>
      </trkpt>
      <trkpt lat="47.15388" lon="4.94501">
        <ele>306.9</ele>
        <time>2024-06-29T09:01:02Z</time>
      </trkpt>
      <trkpt lat="47.15387" lon="4.94501">
        <ele>306.9</ele>
        <time>2024-06-29T09:01:03Z</time>
      </trkpt>
      <trkpt lat="47.15386" lon="4.94502">
        <ele>307.5</ele>
        <time>2024-06-29T09:01:04Z</time>
      </trkpt>
      <trkpt lat="47.15385" lon="4.94502">
        <ele>307.4</ele>
        <time>2024-06-29T09:01:05Z</time>
      </trkpt>
      <trkpt lat="47.15384" lon="4.94503">
        <ele>307.5</ele>
        <time>2024-06-29T09:01:06Z</time>
      </trkpt>
      <trkpt lat="47.15383" lon="4.94503">
        <ele>307.4</ele>
        <time>2024-06-29T09:01:07Z</time>
      </trkpt>
      <trkpt lat="47.15382" lon="4.94504">
        <ele>307.4</ele>
        <time>2024-06-29T09:01:09Z</time>
      </trkpt>
      <trkpt lat="47.1538" lon="4.94504">
        <ele>307.5</ele>
        <time>2024-06-29T09:01:11Z</time>
      </trkpt>
      <trkpt lat="47.15378" lon="4.94505">
        <ele>307.4</ele>
        <time>2024-06-29T09:01:13Z</time>
      </trkpt>
      <trkpt lat="47.15377" lon="4.94505">
        <ele>307.6</ele>
        <time>2024-06-29T09:01:15Z</time>
      </trkpt>
      <trkpt lat="47.15375" lon="4.94504">
        <ele>307.6</ele>
        <time>2024-06-29T09:01:17Z</time>
      </trkpt>
      <trkpt lat="47.15374" lon="4.94504">
        <ele>307.4</ele>
        <time>2024-06-29T09:01:19Z</time>
      </trkpt>
      <trkpt lat="47.15372" lon="4.94504">
        <ele>307</ele>
        <time>2024-06-29T09:01:21Z</time>
      </trkpt>
      <trkpt lat="47.1537" lon="4.94504">
        <ele>307</ele>
        <time>2024-06-29T09:01:23Z</time>
      </trkpt>
      <trkpt lat="47.1537" lon="4.94505">
        <ele>307.7</ele>
        <time>2024-06-29T09:01:24Z</time>
      </trkpt>
      <trkpt lat="47.15368" lon="4.94505">
        <ele>308.7</ele>
        <time>2024-06-29T09:01:26Z</time>
      </trkpt>
      <trkpt lat="47.15367" lon="4.94505">
        <ele>308.3</ele>
        <time>2024-06-29T09:01:27Z</time>
      </trkpt>
      <trkpt lat="47.15366" lon="4.94505">
        <ele>307.9</ele>
        <time>2024-06-29T09:01:28Z</time>
      </trkpt>
      <trkpt lat="47.15365" lon="4.94505">
        <ele>307.4</ele>
        <time>2024-06-29T09:01:29Z</time>
      </trkpt>
      <trkpt lat="47.15364" lon="4.94505">
        <ele>306.5</ele>
        <time>2024-06-29T09:01:30Z</time>
      </trkpt>
      <trkpt lat="47.15363" lon="4.94505">
        <ele>306.3</ele>
        <time>2024-06-29T09:01:31Z</time>
      </trkpt>
      <trkpt lat="47.15361" lon="4.94505">
        <ele>306.1</ele>
        <time>2024-06-29T09:01:32Z</time>
      </trkpt>
      <trkpt lat="47.1536" lon="4.94505">
        <ele>304.3</ele>
        <time>2024-06-29T09:01:33Z</time>
      </trkpt>
      <trkpt lat="47.15359" lon="4.94505">
        <ele>304.4</ele>
        <time>2024-06-29T09:01:34Z</time>
      </trkpt>
      <trkpt lat="47.15357" lon="4.94506">
        <ele>304.8</ele>
        <time>2024-06-29T09:01:35Z</time>
      </trkpt>
      <trkpt lat="47.15356" lon="4.94506">
        <ele>305</ele>
        <time>2024-06-29T09:01:36Z</time>
      </trkpt>
      <trkpt lat="47.15355" lon="4.94506">
        <ele>304.4</ele>
        <time>2024-06-29T09:01:37Z</time>
      </trkpt>
      <trkpt lat="47.15354" lon="4.94506">
        <ele>304.8</ele>
        <time>2024-06-29T09:01:38Z</time>
      </trkpt>
      <trkpt lat="47.15353" lon="4.94506">
        <ele>304.7</ele>
        <time>2024-06-29T09:01:39Z</time>
      </trkpt>
      <trkpt lat="47.15352" lon="4.94506">
        <ele>304.5</ele>
        <time>2024-06-29T09:01:40Z</time>
      </trkpt>
      <trkpt lat="47.15351" lon="4.94506">
        <ele>304.3</ele>
        <time>2024-06-29T09:01:42Z</time>
      </trkpt>
      <trkpt lat="47.15349" lon="4.94506">
        <ele>303.9</ele>
        <time>2024-06-29T09:01:44Z</time>
      </trkpt>
      <trkpt lat="47.15348" lon="4.94506">
        <ele>303.7</ele>
        <time>2024-06-29T09:01:45Z</time>
      </trkpt>
      <trkpt lat="47.15346" lon="4.94506">
        <ele>303.5</ele>
        <time>2024-06-29T09:01:47Z</time>
      </trkpt>
      <trkpt lat="47.15345" lon="4.94507">
        <ele>303.2</ele>
        <time>2024-06-29T09:01:48Z</time>
      </trkpt>
      <trkpt lat="47.15344" lon="4.94507">
        <ele>303.1</ele>
        <time>2024-06-29T09:01:49Z</time>
      </trkpt>
      <trkpt lat="47.15343" lon="4.94507">
        <ele>303</ele>
        <time>2024-06-29T09:01:51Z</time>
      </trkpt>
      <trkpt lat="47.15342" lon="4.94507">
        <ele>302.7</ele>
        <time>2024-06-29T09:01:52Z</time>
      </trkpt>
      <trkpt lat="47.15341" lon="4.94507">
        <ele>302.4</ele>
        <time>2024-06-29T09:01:53Z</time>
      </trkpt>
      <trkpt lat="47.1534" lon="4.94507">
        <ele>302.2</ele>
        <time>2024-06-29T09:01:54Z</time>
      </trkpt>
      <trkpt lat="47.15339" lon="4.94508">
        <ele>302.4</ele>
        <time>2024-06-29T09:01:55Z</time>
      </trkpt>
      <trkpt lat="47.15338" lon="4.94508">
        <ele>302.3</ele>
        <time>2024-06-29T09:01:56Z</time>
      </trkpt>
      <trkpt lat="47.15337" lon="4.94508">
        <ele>302.2</ele>
        <time>2024-06-29T09:01:57Z</time>
      </trkpt>
      <trkpt lat="47.15336" lon="4.94509">
        <ele>301.9</ele>
        <time>2024-06-29T09:01:58Z</time>
      </trkpt>
      <trkpt lat="47.15335" lon="4.94509">
        <ele>302</ele>
        <time>2024-06-29T09:01:59Z</time>
      </trkpt>
      <trkpt lat="47.15334" lon="4.94509">
        <ele>301.6</ele>
        <time>2024-06-29T09:02:00Z</time>
      </trkpt>
      <trkpt lat="47.15333" lon="4.94509">
        <ele>301.6</ele>
        <time>2024-06-29T09:02:01Z</time>
      </trkpt>
      <trkpt lat="47.15332" lon="4.94509">
        <ele>301.5</ele>
        <time>2024-06-29T09:02:02Z</time>
      </trkpt>
      <trkpt lat="47.15331" lon="4.94509">
        <ele>301.5</ele>
        <time>2024-06-29T09:02:03Z</time>
      </trkpt>
      <trkpt lat="47.1533" lon="4.94509">
        <ele>301.3</ele>
        <time>2024-06-29T09:02:04Z</time>
      </trkpt>
      <trkpt lat="47.15329" lon="4.94509">
        <ele>301.1</ele>
        <time>2024-06-29T09:02:05Z</time>
      </trkpt>
      <trkpt lat="47.15328" lon="4.9451">
        <ele>301.2</ele>
        <time>2024-06-29T09:02:06Z</time>
      </trkpt>
      <trkpt lat="47.15327" lon="4.9451">
        <ele>301.4</ele>
        <time>2024-06-29T09:02:07Z</time>
      </trkpt>
      <trkpt lat="47.15326" lon="4.9451">
        <ele>301.1</ele>
        <time>2024-06-29T09:02:08Z</time>
      </trkpt>
      <trkpt lat="47.15325" lon="4.94511">
        <ele>300.9</ele>
        <time>2024-06-29T09:02:09Z</time>
      </trkpt>
      <trkpt lat="47.15324" lon="4.94511">
        <ele>300.4</ele>
        <time>2024-06-29T09:02:10Z</time>
      </trkpt>
      <trkpt lat="47.15322" lon="4.94511">
        <ele>300.7</ele>
        <time>2024-06-29T09:02:11Z</time>
      </trkpt>
      <trkpt lat="47.15321" lon="4.94512">
        <ele>300.7</ele>
        <time>2024-06-29T09:02:12Z</time>
      </trkpt>
      <trkpt lat="47.1532" lon="4.94512">
        <ele>300.4</ele>
        <time>2024-06-29T09:02:13Z</time>
      </trkpt>
      <trkpt lat="47.15319" lon="4.94512">
        <ele>300.2</ele>
        <time>2024-06-29T09:02:14Z</time>
      </trkpt>
      <trkpt lat="47.15318" lon="4.94512">
        <ele>299.6</ele>
        <time>2024-06-29T09:02:15Z</time>
      </trkpt>
      <trkpt lat="47.15317" lon="4.94512">
        <ele>299.3</ele>
        <time>2024-06-29T09:02:16Z</time>
      </trkpt>
      <trkpt lat="47.15316" lon="4.94512">
        <ele>299.2</ele>
        <time>2024-06-29T09:02:17Z</time>
      </trkpt>
      <trkpt lat="47.15315" lon="4.94512">
        <ele>299.4</ele>
        <time>2024-06-29T09:02:18Z</time>
      </trkpt>
      <trkpt lat="47.15314" lon="4.94512">
        <ele>299.4</ele>
        <time>2024-06-29T09:02:19Z</time>
      </trkpt>
      <trkpt lat="47.15313" lon="4.94512">
        <ele>299.5</ele>
        <time>2024-06-29T09:02:20Z</time>
      </trkpt>
      <trkpt lat="47.15312" lon="4.94512">
        <ele>299.3</ele>
        <time>2024-06-29T09:02:21Z</time>
      </trkpt>
      <trkpt lat="47.15312" lon="4.94512">
        <ele>299.1</ele>
        <time>2024-06-29T09:02:22Z</time>
      </trkpt>
      <trkpt lat="47.15311" lon="4.94511">
        <ele>298.9</ele>
        <time>2024-06-29T09:02:23Z</time>
      </trkpt>
      <trkpt lat="47.1531" lon="4.94511">
        <ele>299.2</ele>
        <time>2024-06-29T09:02:24Z</time>
      </trkpt>
      <trkpt lat="47.15309" lon="4.94511">
        <ele>299.1</ele>
        <time>2024-06-29T09:02:25Z</time>
      </trkpt>
      <trkpt lat="47.15308" lon="4.94511">
        <ele>298.9</ele>
        <time>2024-06-29T09:02:26Z</time>
      </trkpt>
      <trkpt lat="47.15307" lon="4.9451">
        <ele>298.6</ele>
        <time>2024-06-29T09:02:27Z</time>
      </trkpt>
      <trkpt lat="47.15305" lon="4.94509">
        <ele>298.7</ele>
        <time>2024-06-29T09:02:29Z</time>
      </trkpt>
      <trkpt lat="47.15305" lon="4.94509">
        <ele>298.7</ele>
        <time>2024-06-29T09:02:30Z</time>
      </trkpt>
      <trkpt lat="47.15304" lon="4.94509">
        <ele>299.5</ele>
        <time>2024-06-29T09:02:31Z</time>
      </trkpt>
      <trkpt lat="47.15302" lon="4.94509">
        <ele>298.7</ele>
        <time>2024-06-29T09:02:33Z</time>
      </trkpt>
      <trkpt lat="47.15301" lon="4.94508">
        <ele>298.7</ele>
        <time>2024-06-29T09:02:35Z</time>
      </trkpt>
      <trkpt lat="47.153" lon="4.94507">
        <ele>298.6</ele>
        <time>2024-06-29T09:02:36Z</time>
      </trkpt>
      <trkpt lat="47.15298" lon="4.94507">
        <ele>298.4</ele>
        <time>2024-06-29T09:02:38Z</time>
      </trkpt>
      <trkpt lat="47.15296" lon="4.94506">
        <ele>298.9</ele>
        <time>2024-06-29T09:02:40Z</time>
      </trkpt>
      <trkpt lat="47.15296" lon="4.94506">
        <ele>299.4</ele>
        <time>2024-06-29T09:02:41Z</time>
      </trkpt>
      <trkpt lat="47.15295" lon="4.94505">
        <ele>299.3</ele>
        <time>2024-06-29T09:02:42Z</time>
      </trkpt>
      <trkpt lat="47.15294" lon="4.94505">
        <ele>299.3</ele>
        <time>2024-06-29T09:02:43Z</time>
      </trkpt>
      <trkpt lat="47.15293" lon="4.94504">
        <ele>298.7</ele>
        <time>2024-06-29T09:02:44Z</time>
      </trkpt>
      <trkpt lat="47.15292" lon="4.94504">
        <ele>298</ele>
        <time>2024-06-29T09:02:45Z</time>
      </trkpt>
      <trkpt lat="47.1529" lon="4.94502">
        <ele>298.1</ele>
        <time>2024-06-29T09:02:47Z</time>
      </trkpt>
      <trkpt lat="47.15289" lon="4.94502">
        <ele>298.6</ele>
        <time>2024-06-29T09:02:48Z</time>
      </trkpt>
      <trkpt lat="47.15288" lon="4.94502">
        <ele>299.2</ele>
        <time>2024-06-29T09:02:49Z</time>
      </trkpt>
      <trkpt lat="47.15287" lon="4.94502">
        <ele>300.3</ele>
        <time>2024-06-29T09:02:50Z</time>
      </trkpt>
      <trkpt lat="47.15286" lon="4.94502">
        <ele>300.4</ele>
        <time>2024-06-29T09:02:51Z</time>
      </trkpt>
      <trkpt lat="47.15284" lon="4.94501">
        <ele>299.6</ele>
        <time>2024-06-29T09:02:53Z</time>
      </trkpt>
      <trkpt lat="47.15283" lon="4.94501">
        <ele>299</ele>
        <time>2024-06-29T09:02:54Z</time>
      </trkpt>
      <trkpt lat="47.15282" lon="4.94501">
        <ele>300.2</ele>
        <time>2024-06-29T09:02:55Z</time>
      </trkpt>
      <trkpt lat="47.15281" lon="4.94501">
        <ele>299.6</ele>
        <time>2024-06-29T09:02:56Z</time>
      </trkpt>
      <trkpt lat="47.1528" lon="4.94501">
        <ele>299.7</ele>
        <time>2024-06-29T09:02:57Z</time>
      </trkpt>
      <trkpt lat="47.15279" lon="4.94501">
        <ele>300.1</ele>
        <time>2024-06-29T09:02:58Z</time>
      </trkpt>
      <trkpt lat="47.15278" lon="4.94501">
        <ele>298.9</ele>
        <time>2024-06-29T09:02:59Z</time>
      </trkpt>
      <trkpt lat="47.15277" lon="4.94501">
        <ele>298.5</ele>
        <time>2024-06-29T09:03:00Z</time>
      </trkpt>
      <trkpt lat="47.15276" lon="4.945">
        <ele>298.5</ele>
        <time>2024-06-29T09:03:01Z</time>
      </trkpt>
      <trkpt lat="47.15274" lon="4.94499">
        <ele>298.3</ele>
        <time>2024-06-29T09:03:03Z</time>
      </trkpt>
      <trkpt lat="47.15274" lon="4.94497">
        <ele>298.4</ele>
        <time>2024-06-29T09:03:04Z</time>
      </trkpt>
      <trkpt lat="47.15273" lon="4.94497">
        <ele>299.3</ele>
        <time>2024-06-29T09:03:06Z</time>
      </trkpt>
      <trkpt lat="47.15272" lon="4.94496">
        <ele>300.5</ele>
        <time>2024-06-29T09:03:07Z</time>
      </trkpt>
      <trkpt lat="47.1527" lon="4.94496">
        <ele>298.5</ele>
        <time>2024-06-29T09:03:08Z</time>
      </trkpt>
      <trkpt lat="47.15269" lon="4.94496">
        <ele>297.5</ele>
        <time>2024-06-29T09:03:09Z</time>
      </trkpt>
      <trkpt lat="47.15268" lon="4.94495">
        <ele>297.2</ele>
        <time>2024-06-29T09:03:10Z</time>
      </trkpt>
      <trkpt lat="47.15267" lon="4.94495">
        <ele>297</ele>
        <time>2024-06-29T09:03:11Z</time>
      </trkpt>
      <trkpt lat="47.15266" lon="4.94494">
        <ele>297.9</ele>
        <time>2024-06-29T09:03:12Z</time>
      </trkpt>
      <trkpt lat="47.15265" lon="4.94494">
        <ele>298.1</ele>
        <time>2024-06-29T09:03:13Z</time>
      </trkpt>
      <trkpt lat="47.15263" lon="4.94494">
        <ele>299.3</ele>
        <time>2024-06-29T09:03:15Z</time>
      </trkpt>
      <trkpt lat="47.15262" lon="4.94493">
        <ele>299.7</ele>
        <time>2024-06-29T09:03:17Z</time>
      </trkpt>
      <trkpt lat="47.15262" lon="4.94492">
        <ele>299.8</ele>
        <time>2024-06-29T09:03:18Z</time>
      </trkpt>
      <trkpt lat="47.15261" lon="4.94491">
        <ele>299.4</ele>
        <time>2024-06-29T09:03:19Z</time>
      </trkpt>
      <trkpt lat="47.1526" lon="4.94491">
        <ele>299.2</ele>
        <time>2024-06-29T09:03:20Z</time>
      </trkpt>
      <trkpt lat="47.15259" lon="4.9449">
        <ele>297.7</ele>
        <time>2024-06-29T09:03:21Z</time>
      </trkpt>
      <trkpt lat="47.15258" lon="4.9449">
        <ele>297.9</ele>
        <time>2024-06-29T09:03:22Z</time>
      </trkpt>
      <trkpt lat="47.15256" lon="4.94489">
        <ele>297.5</ele>
        <time>2024-06-29T09:03:24Z</time>
      </trkpt>
      <trkpt lat="47.15255" lon="4.94488">
        <ele>296.7</ele>
        <time>2024-06-29T09:03:25Z</time>
      </trkpt>
      <trkpt lat="47.15254" lon="4.94487">
        <ele>296.3</ele>
        <time>2024-06-29T09:03:26Z</time>
      </trkpt>
      <trkpt lat="47.15254" lon="4.94486">
        <ele>296.3</ele>
        <time>2024-06-29T09:03:27Z</time>
      </trkpt>
      <trkpt lat="47.15253" lon="4.94485">
        <ele>295.3</ele>
        <time>2024-06-29T09:03:28Z</time>
      </trkpt>
      <trkpt lat="47.15252" lon="4.94484">
        <ele>295.9</ele>
        <time>2024-06-29T09:03:29Z</time>
      </trkpt>
      <trkpt lat="47.15251" lon="4.94484">
        <ele>292.9</ele>
        <time>2024-06-29T09:03:30Z</time>
      </trkpt>
      <trkpt lat="47.1525" lon="4.94483">
        <ele>293.4</ele>
        <time>2024-06-29T09:03:31Z</time>
      </trkpt>
      <trkpt lat="47.15249" lon="4.94483">
        <ele>295.4</ele>
        <time>2024-06-29T09:03:32Z</time>
      </trkpt>
      <trkpt lat="47.15248" lon="4.94482">
        <ele>294.2</ele>
        <time>2024-06-29T09:03:33Z</time>
      </trkpt>
      <trkpt lat="47.15246" lon="4.94482">
        <ele>292.4</ele>
        <time>2024-06-29T09:03:34Z</time>
      </trkpt>
      <trkpt lat="47.15245" lon="4.94482">
        <ele>292.5</ele>
        <time>2024-06-29T09:03:35Z</time>
      </trkpt>
      <trkpt lat="47.15244" lon="4.94482">
        <ele>292.8</ele>
        <time>2024-06-29T09:03:36Z</time>
      </trkpt>
      <trkpt lat="47.15243" lon="4.94481">
        <ele>292.9</ele>
        <time>2024-06-29T09:03:37Z</time>
      </trkpt>
      <trkpt lat="47.15242" lon="4.94481">
        <ele>292.1</ele>
        <time>2024-06-29T09:03:38Z</time>
      </trkpt>
      <trkpt lat="47.15241" lon="4.9448">
        <ele>291.6</ele>
        <time>2024-06-29T09:03:39Z</time>
      </trkpt>
      <trkpt lat="47.15239" lon="4.94479">
        <ele>290.7</ele>
        <time>2024-06-29T09:03:40Z</time>
      </trkpt>
      <trkpt lat="47.15238" lon="4.94478">
        <ele>291.6</ele>
        <time>2024-06-29T09:03:41Z</time>
      </trkpt>
      <trkpt lat="47.15236" lon="4.94478">
        <ele>291.5</ele>
        <time>2024-06-29T09:03:42Z</time>
      </trkpt>
      <trkpt lat="47.15235" lon="4.94478">
        <ele>291.5</ele>
        <time>2024-06-29T09:03:43Z</time>
      </trkpt>
      <trkpt lat="47.15234" lon="4.94477">
        <ele>293.5</ele>
        <time>2024-06-29T09:03:44Z</time>
      </trkpt>
      <trkpt lat="47.15232" lon="4.94477">
        <ele>293.4</ele>
        <time>2024-06-29T09:03:45Z</time>
      </trkpt>
      <trkpt lat="47.15231" lon="4.94477">
        <ele>293.9</ele>
        <time>2024-06-29T09:03:46Z</time>
      </trkpt>
      <trkpt lat="47.1523" lon="4.94477">
        <ele>293.6</ele>
        <time>2024-06-29T09:03:47Z</time>
      </trkpt>
      <trkpt lat="47.15229" lon="4.94476">
        <ele>293.6</ele>
        <time>2024-06-29T09:03:48Z</time>
      </trkpt>
      <trkpt lat="47.15228" lon="4.94475">
        <ele>292.9</ele>
        <time>2024-06-29T09:03:49Z</time>
      </trkpt>
      <trkpt lat="47.15227" lon="4.94474">
        <ele>293.2</ele>
        <time>2024-06-29T09:03:50Z</time>
      </trkpt>
      <trkpt lat="47.15226" lon="4.94473">
        <ele>293.1</ele>
        <time>2024-06-29T09:03:51Z</time>
      </trkpt>
      <trkpt lat="47.15226" lon="4.94472">
        <ele>292.6</ele>
        <time>2024-06-29T09:03:52Z</time>
      </trkpt>
      <trkpt lat="47.15224" lon="4.94471">
        <ele>292.4</ele>
        <time>2024-06-29T09:03:54Z</time>
      </trkpt>
      <trkpt lat="47.15223" lon="4.9447">
        <ele>292.2</ele>
        <time>2024-06-29T09:03:55Z</time>
      </trkpt>
      <trkpt lat="47.15222" lon="4.94469">
        <ele>292.4</ele>
        <time>2024-06-29T09:03:56Z</time>
      </trkpt>
      <trkpt lat="47.15221" lon="4.94469">
        <ele>292.2</ele>
        <time>2024-06-29T09:03:57Z</time>
      </trkpt>
      <trkpt lat="47.1522" lon="4.94468">
        <ele>292.3</ele>
        <time>2024-06-29T09:03:58Z</time>
      </trkpt>
      <trkpt lat="47.15219" lon="4.94467">
        <ele>292.5</ele>
        <time>2024-06-29T09:03:59Z</time>
      </trkpt>
      <trkpt lat="47.15218" lon="4.94467">
        <ele>292.8</ele>
        <time>2024-06-29T09:04:00Z</time>
      </trkpt>
      <trkpt lat="47.15217" lon="4.94466">
        <ele>292.8</ele>
        <time>2024-06-29T09:04:01Z</time>
      </trkpt>
      <trkpt lat="47.15216" lon="4.94466">
        <ele>293.4</ele>
        <time>2024-06-29T09:04:02Z</time>
      </trkpt>
      <trkpt lat="47.15215" lon="4.94464">
        <ele>293.9</ele>
        <time>2024-06-29T09:04:04Z</time>
      </trkpt>
      <trkpt lat="47.15214" lon="4.94464">
        <ele>294</ele>
        <time>2024-06-29T09:04:05Z</time>
      </trkpt>
      <trkpt lat="47.15213" lon="4.94463">
        <ele>294.1</ele>
        <time>2024-06-29T09:04:06Z</time>
      </trkpt>
      <trkpt lat="47.15212" lon="4.94463">
        <ele>294</ele>
        <time>2024-06-29T09:04:07Z</time>
      </trkpt>
      <trkpt lat="47.15211" lon="4.94462">
        <ele>293.6</ele>
        <time>2024-06-29T09:04:08Z</time>
      </trkpt>
      <trkpt lat="47.1521" lon="4.94461">
        <ele>293.4</ele>
        <time>2024-06-29T09:04:09Z</time>
      </trkpt>
      <trkpt lat="47.15209" lon="4.94461">
        <ele>293.1</ele>
        <time>2024-06-29T09:04:10Z</time>
      </trkpt>
      <trkpt lat="47.15208" lon="4.9446">
        <ele>293.2</ele>
        <time>2024-06-29T09:04:11Z</time>
      </trkpt>
      <trkpt lat="47.15207" lon="4.9446">
        <ele>293.3</ele>
        <time>2024-06-29T09:04:12Z</time>
      </trkpt>
      <trkpt lat="47.15206" lon="4.94459">
        <ele>293.3</ele>
        <time>2024-06-29T09:04:13Z</time>
      </trkpt>
      <trkpt lat="47.15205" lon="4.94458">
        <ele>293</ele>
        <time>2024-06-29T09:04:14Z</time>
      </trkpt>
      <trkpt lat="47.15204" lon="4.94458">
        <ele>293</ele>
        <time>2024-06-29T09:04:15Z</time>
      </trkpt>
      <trkpt lat="47.15204" lon="4.94457">
        <ele>293.3</ele>
        <time>2024-06-29T09:04:16Z</time>
      </trkpt>
      <trkpt lat="47.15202" lon="4.94456">
        <ele>293</ele>
        <time>2024-06-29T09:04:18Z</time>
      </trkpt>
      <trkpt lat="47.15201" lon="4.94455">
        <ele>293</ele>
        <time>2024-06-29T09:04:19Z</time>
      </trkpt>
      <trkpt lat="47.15201" lon="4.94454">
        <ele>292.8</ele>
        <time>2024-06-29T09:04:20Z</time>
      </trkpt>
      <trkpt lat="47.152" lon="4.94453">
        <ele>292.8</ele>
        <time>2024-06-29T09:04:21Z</time>
      </trkpt>
      <trkpt lat="47.15199" lon="4.94452">
        <ele>292.7</ele>
        <time>2024-06-29T09:04:23Z</time>
      </trkpt>
      <trkpt lat="47.15199" lon="4.94451">
        <ele>292.9</ele>
        <time>2024-06-29T09:04:31Z</time>
      </trkpt>
      <trkpt lat="47.15198" lon="4.94451">
        <ele>292.7</ele>
        <time>2024-06-29T09:04:51Z</time>
      </trkpt>
      <trkpt lat="47.15197" lon="4.94452">
        <ele>291</ele>
        <time>2024-06-29T09:04:53Z</time>
      </trkpt>
      <trkpt lat="47.15195" lon="4.94452">
        <ele>291.2</ele>
        <time>2024-06-29T09:04:55Z</time>
      </trkpt>
      <trkpt lat="47.15194" lon="4.94452">
        <ele>290.7</ele>
        <time>2024-06-29T09:04:57Z</time>
      </trkpt>
      <trkpt lat="47.15193" lon="4.94451">
        <ele>291.2</ele>
        <time>2024-06-29T09:04:59Z</time>
      </trkpt>
      <trkpt lat="47.15193" lon="4.94449">
        <ele>293</ele>
        <time>2024-06-29T09:05:13Z</time>
      </trkpt>
      <trkpt lat="47.15193" lon="4.94448">
        <ele>292.5</ele>
        <time>2024-06-29T09:05:15Z</time>
      </trkpt>
      <trkpt lat="47.15191" lon="4.94447">
        <ele>292.8</ele>
        <time>2024-06-29T09:05:17Z</time>
      </trkpt>
      <trkpt lat="47.1519" lon="4.94447">
        <ele>292.9</ele>
        <time>2024-06-29T09:05:19Z</time>
      </trkpt>
      <trkpt lat="47.15189" lon="4.94445">
        <ele>292.7</ele>
        <time>2024-06-29T09:05:21Z</time>
      </trkpt>
      <trkpt lat="47.15187" lon="4.94444">
        <ele>292.3</ele>
        <time>2024-06-29T09:05:23Z</time>
      </trkpt>
      <trkpt lat="47.15186" lon="4.94443">
        <ele>292.6</ele>
        <time>2024-06-29T09:05:25Z</time>
      </trkpt>
      <trkpt lat="47.15185" lon="4.94442">
        <ele>292.7</ele>
        <time>2024-06-29T09:05:27Z</time>
      </trkpt>
      <trkpt lat="47.15183" lon="4.94441">
        <ele>292.8</ele>
        <time>2024-06-29T09:05:29Z</time>
      </trkpt>
      <trkpt lat="47.15182" lon="4.9444">
        <ele>292.9</ele>
        <time>2024-06-29T09:05:30Z</time>
      </trkpt>
      <trkpt lat="47.15181" lon="4.94439">
        <ele>293</ele>
        <time>2024-06-29T09:05:31Z</time>
      </trkpt>
      <trkpt lat="47.1518" lon="4.94438">
        <ele>292.9</ele>
        <time>2024-06-29T09:05:32Z</time>
      </trkpt>
      <trkpt lat="47.1518" lon="4.94438">
        <ele>292.9</ele>
        <time>2024-06-29T09:05:33Z</time>
      </trkpt>
      <trkpt lat="47.15178" lon="4.94437">
        <ele>292.6</ele>
        <time>2024-06-29T09:05:35Z</time>
      </trkpt>
      <trkpt lat="47.15177" lon="4.94436">
        <ele>292.4</ele>
        <time>2024-06-29T09:05:37Z</time>
      </trkpt>
      <trkpt lat="47.15175" lon="4.94435">
        <ele>292.3</ele>
        <time>2024-06-29T09:05:39Z</time>
      </trkpt>
      <trkpt lat="47.15175" lon="4.94435">
        <ele>292.2</ele>
        <time>2024-06-29T09:05:41Z</time>
      </trkpt>
      <trkpt lat="47.15173" lon="4.94434">
        <ele>292</ele>
        <time>2024-06-29T09:05:43Z</time>
      </trkpt>
      <trkpt lat="47.15173" lon="4.94433">
        <ele>292.1</ele>
        <time>2024-06-29T09:05:45Z</time>
      </trkpt>
      <trkpt lat="47.15171" lon="4.94432">
        <ele>292</ele>
        <time>2024-06-29T09:05:47Z</time>
      </trkpt>
      <trkpt lat="47.1517" lon="4.94432">
        <ele>291.8</ele>
        <time>2024-06-29T09:05:49Z</time>
      </trkpt>
      <trkpt lat="47.15169" lon="4.94431">
        <ele>291.6</ele>
        <time>2024-06-29T09:05:51Z</time>
      </trkpt>
      <trkpt lat="47.15167" lon="4.9443">
        <ele>291.3</ele>
        <time>2024-06-29T09:05:53Z</time>
      </trkpt>
      <trkpt lat="47.15166" lon="4.94429">
        <ele>291.6</ele>
        <time>2024-06-29T09:05:55Z</time>
      </trkpt>
      <trkpt lat="47.15165" lon="4.94428">
        <ele>291.5</ele>
        <time>2024-06-29T09:05:57Z</time>
      </trkpt>
      <trkpt lat="47.15163" lon="4.94427">
        <ele>291.6</ele>
        <time>2024-06-29T09:05:59Z</time>
      </trkpt>
      <trkpt lat="47.15162" lon="4.94426">
        <ele>291.8</ele>
        <time>2024-06-29T09:06:00Z</time>
      </trkpt>
      <trkpt lat="47.15161" lon="4.94426">
        <ele>291.6</ele>
        <time>2024-06-29T09:06:02Z</time>
      </trkpt>
      <trkpt lat="47.15159" lon="4.94425">
        <ele>291.7</ele>
        <time>2024-06-29T09:06:04Z</time>
      </trkpt>
      <trkpt lat="47.15158" lon="4.94424">
        <ele>291.8</ele>
        <time>2024-06-29T09:06:06Z</time>
      </trkpt>
      <trkpt lat="47.15157" lon="4.94424">
        <ele>291.6</ele>
        <time>2024-06-29T09:06:07Z</time>
      </trkpt>
      <trkpt lat="47.15156" lon="4.94423">
        <ele>291.6</ele>
        <time>2024-06-29T09:06:08Z</time>
      </trkpt>
      <trkpt lat="47.15155" lon="4.94423">
        <ele>291.7</ele>
        <time>2024-06-29T09:06:09Z</time>
      </trkpt>
      <trkpt lat="47.15154" lon="4.94422">
        <ele>291.7</ele>
        <time>2024-06-29T09:06:10Z</time>
      </trkpt>
      <trkpt lat="47.15153" lon="4.94422">
        <ele>291.4</ele>
        <time>2024-06-29T09:06:11Z</time>
      </trkpt>
      <trkpt lat="47.15152" lon="4.94422">
        <ele>291.3</ele>
        <time>2024-06-29T09:06:12Z</time>
      </trkpt>
      <trkpt lat="47.15151" lon="4.94421">
        <ele>291.2</ele>
        <time>2024-06-29T09:06:13Z</time>
      </trkpt>
      <trkpt lat="47.1515" lon="4.94421">
        <ele>291</ele>
        <time>2024-06-29T09:06:14Z</time>
      </trkpt>
      <trkpt lat="47.15149" lon="4.9442">
        <ele>290.5</ele>
        <time>2024-06-29T09:06:15Z</time>
      </trkpt>
      <trkpt lat="47.15148" lon="4.9442">
        <ele>290.7</ele>
        <time>2024-06-29T09:06:16Z</time>
      </trkpt>
      <trkpt lat="47.15147" lon="4.94419">
        <ele>290.6</ele>
        <time>2024-06-29T09:06:17Z</time>
      </trkpt>
      <trkpt lat="47.15146" lon="4.94419">
        <ele>290.4</ele>
        <time>2024-06-29T09:06:18Z</time>
      </trkpt>
      <trkpt lat="47.15144" lon="4.94418">
        <ele>289.9</ele>
        <time>2024-06-29T09:06:19Z</time>
      </trkpt>
      <trkpt lat="47.15143" lon="4.94418">
        <ele>289.6</ele>
        <time>2024-06-29T09:06:20Z</time>
      </trkpt>
      <trkpt lat="47.15142" lon="4.94417">
        <ele>290</ele>
        <time>2024-06-29T09:06:21Z</time>
      </trkpt>
      <trkpt lat="47.15141" lon="4.94417">
        <ele>289.5</ele>
        <time>2024-06-29T09:06:22Z</time>
      </trkpt>
      <trkpt lat="47.1514" lon="4.94416">
        <ele>289.5</ele>
        <time>2024-06-29T09:06:23Z</time>
      </trkpt>
      <trkpt lat="47.15139" lon="4.94415">
        <ele>289.6</ele>
        <time>2024-06-29T09:06:24Z</time>
      </trkpt>
      <trkpt lat="47.15138" lon="4.94415">
        <ele>289.7</ele>
        <time>2024-06-29T09:06:25Z</time>
      </trkpt>
      <trkpt lat="47.15137" lon="4.94414">
        <ele>289.8</ele>
        <time>2024-06-29T09:06:26Z</time>
      </trkpt>
      <trkpt lat="47.15136" lon="4.94414">
        <ele>289.9</ele>
        <time>2024-06-29T09:06:27Z</time>
      </trkpt>
      <trkpt lat="47.15135" lon="4.94414">
        <ele>289.6</ele>
        <time>2024-06-29T09:06:28Z</time>
      </trkpt>
      <trkpt lat="47.15134" lon="4.94413">
        <ele>289.2</ele>
        <time>2024-06-29T09:06:29Z</time>
      </trkpt>
      <trkpt lat="47.15133" lon="4.94413">
        <ele>289.1</ele>
        <time>2024-06-29T09:06:30Z</time>
      </trkpt>
      <trkpt lat="47.15132" lon="4.94412">
        <ele>289.1</ele>
        <time>2024-06-29T09:06:31Z</time>
      </trkpt>
      <trkpt lat="47.15131" lon="4.94412">
        <ele>288.7</ele>
        <time>2024-06-29T09:06:32Z</time>
      </trkpt>
      <trkpt lat="47.1513" lon="4.94412">
        <ele>288.5</ele>
        <time>2024-06-29T09:06:33Z</time>
      </trkpt>
      <trkpt lat="47.15129" lon="4.94412">
        <ele>288.5</ele>
        <time>2024-06-29T09:06:34Z</time>
      </trkpt>
      <trkpt lat="47.15128" lon="4.94411">
        <ele>288.2</ele>
        <time>2024-06-29T09:06:35Z</time>
      </trkpt>
      <trkpt lat="47.15127" lon="4.94411">
        <ele>287.9</ele>
        <time>2024-06-29T09:06:36Z</time>
      </trkpt>
      <trkpt lat="47.15126" lon="4.94411">
        <ele>288.1</ele>
        <time>2024-06-29T09:06:37Z</time>
      </trkpt>
      <trkpt lat="47.15125" lon="4.9441">
        <ele>288</ele>
        <time>2024-06-29T09:06:38Z</time>
      </trkpt>
      <trkpt lat="47.15124" lon="4.9441">
        <ele>288.3</ele>
        <time>2024-06-29T09:06:39Z</time>
      </trkpt>
      <trkpt lat="47.15123" lon="4.9441">
        <ele>288.1</ele>
        <time>2024-06-29T09:06:40Z</time>
      </trkpt>
      <trkpt lat="47.15122" lon="4.94409">
        <ele>287.8</ele>
        <time>2024-06-29T09:06:41Z</time>
      </trkpt>
      <trkpt lat="47.15121" lon="4.94409">
        <ele>287.7</ele>
        <time>2024-06-29T09:06:42Z</time>
      </trkpt>
      <trkpt lat="47.1512" lon="4.94408">
        <ele>287.7</ele>
        <time>2024-06-29T09:06:43Z</time>
      </trkpt>
      <trkpt lat="47.15119" lon="4.94408">
        <ele>287.7</ele>
        <time>2024-06-29T09:06:44Z</time>
      </trkpt>
      <trkpt lat="47.15118" lon="4.94407">
        <ele>287.7</ele>
        <time>2024-06-29T09:06:45Z</time>
      </trkpt>
      <trkpt lat="47.15117" lon="4.94407">
        <ele>287.7</ele>
        <time>2024-06-29T09:06:46Z</time>
      </trkpt>
      <trkpt lat="47.15116" lon="4.94407">
        <ele>287.4</ele>
        <time>2024-06-29T09:06:47Z</time>
      </trkpt>
      <trkpt lat="47.15115" lon="4.94406">
        <ele>287.4</ele>
        <time>2024-06-29T09:06:48Z</time>
      </trkpt>
      <trkpt lat="47.15113" lon="4.94406">
        <ele>287.4</ele>
        <time>2024-06-29T09:06:49Z</time>
      </trkpt>
      <trkpt lat="47.15112" lon="4.94406">
        <ele>287.2</ele>
        <time>2024-06-29T09:06:50Z</time>
      </trkpt>
      <trkpt lat="47.15111" lon="4.94405">
        <ele>287.2</ele>
        <time>2024-06-29T09:06:51Z</time>
      </trkpt>
      <trkpt lat="47.1511" lon="4.94405">
        <ele>287.2</ele>
        <time>2024-06-29T09:06:52Z</time>
      </trkpt>
      <trkpt lat="47.15109" lon="4.94405">
        <ele>287.2</ele>
        <time>2024-06-29T09:06:53Z</time>
      </trkpt>
      <trkpt lat="47.15108" lon="4.94405">
        <ele>287.3</ele>
        <time>2024-06-29T09:06:54Z</time>
      </trkpt>
      <trkpt lat="47.15106" lon="4.94404">
        <ele>287</ele>
        <time>2024-06-29T09:06:55Z</time>
      </trkpt>
      <trkpt lat="47.15105" lon="4.94404">
        <ele>286.7</ele>
        <time>2024-06-29T09:06:56Z</time>
      </trkpt>
      <trkpt lat="47.15104" lon="4.94404">
        <ele>286.2</ele>
        <time>2024-06-29T09:06:57Z</time>
      </trkpt>
      <trkpt lat="47.15103" lon="4.94404">
        <ele>286.3</ele>
        <time>2024-06-29T09:06:58Z</time>
      </trkpt>
      <trkpt lat="47.15101" lon="4.94404">
        <ele>286.3</ele>
        <time>2024-06-29T09:06:59Z</time>
      </trkpt>
      <trkpt lat="47.151" lon="4.94404">
        <ele>286</ele>
        <time>2024-06-29T09:07:00Z</time>
      </trkpt>
      <trkpt lat="47.15099" lon="4.94404">
        <ele>285.8</ele>
        <time>2024-06-29T09:07:01Z</time>
      </trkpt>
      <trkpt lat="47.15098" lon="4.94404">
        <ele>285.6</ele>
        <time>2024-06-29T09:07:02Z</time>
      </trkpt>
      <trkpt lat="47.15097" lon="4.94404">
        <ele>285.6</ele>
        <time>2024-06-29T09:07:03Z</time>
      </trkpt>
      <trkpt lat="47.15096" lon="4.94403">
        <ele>284.4</ele>
        <time>2024-06-29T09:07:04Z</time>
      </trkpt>
      <trkpt lat="47.15095" lon="4.94403">
        <ele>283.9</ele>
        <time>2024-06-29T09:07:05Z</time>
      </trkpt>
      <trkpt lat="47.15094" lon="4.94403">
        <ele>283.5</ele>
        <time>2024-06-29T09:07:06Z</time>
      </trkpt>
      <trkpt lat="47.15093" lon="4.94402">
        <ele>283.3</ele>
        <time>2024-06-29T09:07:07Z</time>
      </trkpt>
      <trkpt lat="47.15092" lon="4.94402">
        <ele>283.7</ele>
        <time>2024-06-29T09:07:08Z</time>
      </trkpt>
      <trkpt lat="47.1509" lon="4.94402">
        <ele>283.5</ele>
        <time>2024-06-29T09:07:09Z</time>
      </trkpt>
      <trkpt lat="47.15089" lon="4.94402">
        <ele>283.6</ele>
        <time>2024-06-29T09:07:10Z</time>
      </trkpt>
      <trkpt lat="47.15088" lon="4.94401">
        <ele>283</ele>
        <time>2024-06-29T09:07:11Z</time>
      </trkpt>
      <trkpt lat="47.15087" lon="4.944">
        <ele>283.2</ele>
        <time>2024-06-29T09:07:12Z</time>
      </trkpt>
      <trkpt lat="47.15086" lon="4.944">
        <ele>282.9</ele>
        <time>2024-06-29T09:07:13Z</time>
      </trkpt>
      <trkpt lat="47.15085" lon="4.944">
        <ele>283.6</ele>
        <time>2024-06-29T09:07:14Z</time>
      </trkpt>
      <trkpt lat="47.15083" lon="4.944">
        <ele>283.8</ele>
        <time>2024-06-29T09:07:15Z</time>
      </trkpt>
      <trkpt lat="47.15082" lon="4.944">
        <ele>283.7</ele>
        <time>2024-06-29T09:07:16Z</time>
      </trkpt>
      <trkpt lat="47.15081" lon="4.94399">
        <ele>283.8</ele>
        <time>2024-06-29T09:07:17Z</time>
      </trkpt>
      <trkpt lat="47.1508" lon="4.94399">
        <ele>283.8</ele>
        <time>2024-06-29T09:07:18Z</time>
      </trkpt>
      <trkpt lat="47.15079" lon="4.94399">
        <ele>283.6</ele>
        <time>2024-06-29T09:07:19Z</time>
      </trkpt>
      <trkpt lat="47.15078" lon="4.94399">
        <ele>283.5</ele>
        <time>2024-06-29T09:07:20Z</time>
      </trkpt>
      <trkpt lat="47.15077" lon="4.94398">
        <ele>283.3</ele>
        <time>2024-06-29T09:07:21Z</time>
      </trkpt>
      <trkpt lat="47.15076" lon="4.94398">
        <ele>283.6</ele>
        <time>2024-06-29T09:07:22Z</time>
      </trkpt>
      <trkpt lat="47.15075" lon="4.94398">
        <ele>283.2</ele>
        <time>2024-06-29T09:07:23Z</time>
      </trkpt>
      <trkpt lat="47.15074" lon="4.94397">
        <ele>283.3</ele>
        <time>2024-06-29T09:07:24Z</time>
      </trkpt>
      <trkpt lat="47.15073" lon="4.94397">
        <ele>283</ele>
        <time>2024-06-29T09:07:25Z</time>
      </trkpt>
      <trkpt lat="47.15072" lon="4.94397">
        <ele>283.2</ele>
        <time>2024-06-29T09:07:26Z</time>
      </trkpt>
      <trkpt lat="47.15071" lon="4.94396">
        <ele>282.9</ele>
        <time>2024-06-29T09:07:27Z</time>
      </trkpt>
      <trkpt lat="47.1507" lon="4.94396">
        <ele>282.8</ele>
        <time>2024-06-29T09:07:28Z</time>
      </trkpt>
      <trkpt lat="47.15069" lon="4.94395">
        <ele>282.5</ele>
        <time>2024-06-29T09:07:29Z</time>
      </trkpt>
      <trkpt lat="47.15068" lon="4.94395">
        <ele>283.1</ele>
        <time>2024-06-29T09:07:30Z</time>
      </trkpt>
      <trkpt lat="47.15067" lon="4.94395">
        <ele>282.6</ele>
        <time>2024-06-29T09:07:31Z</time>
      </trkpt>
      <trkpt lat="47.15066" lon="4.94394">
        <ele>282.4</ele>
        <time>2024-06-29T09:07:32Z</time>
      </trkpt>
      <trkpt lat="47.15064" lon="4.94394">
        <ele>282.2</ele>
        <time>2024-06-29T09:07:33Z</time>
      </trkpt>
      <trkpt lat="47.15063" lon="4.94394">
        <ele>282.2</ele>
        <time>2024-06-29T09:07:34Z</time>
      </trkpt>
      <trkpt lat="47.15062" lon="4.94393">
        <ele>282.5</ele>
        <time>2024-06-29T09:07:35Z</time>
      </trkpt>
      <trkpt lat="47.15061" lon="4.94393">
        <ele>282.1</ele>
        <time>2024-06-29T09:07:36Z</time>
      </trkpt>
      <trkpt lat="47.1506" lon="4.94392">
        <ele>281.8</ele>
        <time>2024-06-29T09:07:37Z</time>
      </trkpt>
      <trkpt lat="47.15059" lon="4.94392">
        <ele>281.7</ele>
        <time>2024-06-29T09:07:38Z</time>
      </trkpt>
      <trkpt lat="47.15058" lon="4.94392">
        <ele>281.7</ele>
        <time>2024-06-29T09:07:39Z</time>
      </trkpt>
      <trkpt lat="47.15057" lon="4.94391">
        <ele>281.6</ele>
        <time>2024-06-29T09:07:40Z</time>
      </trkpt>
      <trkpt lat="47.15056" lon="4.94391">
        <ele>281.2</ele>
        <time>2024-06-29T09:07:41Z</time>
      </trkpt>
      <trkpt lat="47.15055" lon="4.9439">
        <ele>280.8</ele>
        <time>2024-06-29T09:07:42Z</time>
      </trkpt>
      <trkpt lat="47.15054" lon="4.9439">
        <ele>281.1</ele>
        <time>2024-06-29T09:07:43Z</time>
      </trkpt>
      <trkpt lat="47.15053" lon="4.94389">
        <ele>281</ele>
        <time>2024-06-29T09:07:44Z</time>
      </trkpt>
      <trkpt lat="47.15051" lon="4.94389">
        <ele>280.8</ele>
        <time>2024-06-29T09:07:45Z</time>
      </trkpt>
      <trkpt lat="47.1505" lon="4.94389">
        <ele>280.9</ele>
        <time>2024-06-29T09:07:46Z</time>
      </trkpt>
      <trkpt lat="47.15049" lon="4.94388">
        <ele>281.1</ele>
        <time>2024-06-29T09:07:47Z</time>
      </trkpt>
      <trkpt lat="47.15048" lon="4.94388">
        <ele>281</ele>
        <time>2024-06-29T09:07:48Z</time>
      </trkpt>
      <trkpt lat="47.15047" lon="4.94388">
        <ele>281</ele>
        <time>2024-06-29T09:07:49Z</time>
      </trkpt>
      <trkpt lat="47.15046" lon="4.94387">
        <ele>280.8</ele>
        <time>2024-06-29T09:07:50Z</time>
      </trkpt>
      <trkpt lat="47.15045" lon="4.94387">
        <ele>280.8</ele>
        <time>2024-06-29T09:07:51Z</time>
      </trkpt>
      <trkpt lat="47.15044" lon="4.94386">
        <ele>280.5</ele>
        <time>2024-06-29T09:07:52Z</time>
      </trkpt>
      <trkpt lat="47.15043" lon="4.94386">
        <ele>280.2</ele>
        <time>2024-06-29T09:07:53Z</time>
      </trkpt>
      <trkpt lat="47.15042" lon="4.94385">
        <ele>280.2</ele>
        <time>2024-06-29T09:07:54Z</time>
      </trkpt>
      <trkpt lat="47.15041" lon="4.94385">
        <ele>280.1</ele>
        <time>2024-06-29T09:07:55Z</time>
      </trkpt>
      <trkpt lat="47.1504" lon="4.94384">
        <ele>279.9</ele>
        <time>2024-06-29T09:07:56Z</time>
      </trkpt>
      <trkpt lat="47.15039" lon="4.94384">
        <ele>279.5</ele>
        <time>2024-06-29T09:07:57Z</time>
      </trkpt>
      <trkpt lat="47.15038" lon="4.94384">
        <ele>279.2</ele>
        <time>2024-06-29T09:07:58Z</time>
      </trkpt>
      <trkpt lat="47.15037" lon="4.94383">
        <ele>279.1</ele>
        <time>2024-06-29T09:07:59Z</time>
      </trkpt>
      <trkpt lat="47.15036" lon="4.94382">
        <ele>279</ele>
        <time>2024-06-29T09:08:00Z</time>
      </trkpt>
      <trkpt lat="47.15035" lon="4.94382">
        <ele>278.9</ele>
        <time>2024-06-29T09:08:01Z</time>
      </trkpt>
      <trkpt lat="47.15034" lon="4.94381">
        <ele>279</ele>
        <time>2024-06-29T09:08:02Z</time>
      </trkpt>
      <trkpt lat="47.15033" lon="4.9438">
        <ele>279.1</ele>
        <time>2024-06-29T09:08:03Z</time>
      </trkpt>
      <trkpt lat="47.15032" lon="4.94379">
        <ele>279.7</ele>
        <time>2024-06-29T09:08:04Z</time>
      </trkpt>
      <trkpt lat="47.15032" lon="4.94378">
        <ele>279.6</ele>
        <time>2024-06-29T09:08:05Z</time>
      </trkpt>
      <trkpt lat="47.15031" lon="4.94378">
        <ele>279.6</ele>
        <time>2024-06-29T09:08:06Z</time>
      </trkpt>
      <trkpt lat="47.1503" lon="4.94377">
        <ele>279.3</ele>
        <time>2024-06-29T09:08:07Z</time>
      </trkpt>
      <trkpt lat="47.15029" lon="4.94376">
        <ele>279.3</ele>
        <time>2024-06-29T09:08:08Z</time>
      </trkpt>
      <trkpt lat="47.15028" lon="4.94375">
        <ele>279.3</ele>
        <time>2024-06-29T09:08:09Z</time>
      </trkpt>
      <trkpt lat="47.15027" lon="4.94374">
        <ele>279.3</ele>
        <time>2024-06-29T09:08:10Z</time>
      </trkpt>
      <trkpt lat="47.15026" lon="4.94374">
        <ele>279.2</ele>
        <time>2024-06-29T09:08:11Z</time>
      </trkpt>
      <trkpt lat="47.15025" lon="4.94373">
        <ele>279.4</ele>
        <time>2024-06-29T09:08:12Z</time>
      </trkpt>
      <trkpt lat="47.15024" lon="4.94372">
        <ele>279.2</ele>
        <time>2024-06-29T09:08:13Z</time>
      </trkpt>
      <trkpt lat="47.15023" lon="4.94372">
        <ele>279.2</ele>
        <time>2024-06-29T09:08:14Z</time>
      </trkpt>
      <trkpt lat="47.15022" lon="4.94371">
        <ele>279.2</ele>
        <time>2024-06-29T09:08:15Z</time>
      </trkpt>
      <trkpt lat="47.15021" lon="4.9437">
        <ele>279.2</ele>
        <time>2024-06-29T09:08:16Z</time>
      </trkpt>
      <trkpt lat="47.1502" lon="4.94369">
        <ele>279.1</ele>
        <time>2024-06-29T09:08:17Z</time>
      </trkpt>
      <trkpt lat="47.15019" lon="4.94368">
        <ele>279.1</ele>
        <time>2024-06-29T09:08:18Z</time>
      </trkpt>
      <trkpt lat="47.15018" lon="4.94368">
        <ele>279.1</ele>
        <time>2024-06-29T09:08:19Z</time>
      </trkpt>
      <trkpt lat="47.15016" lon="4.94367">
        <ele>279</ele>
        <time>2024-06-29T09:08:20Z</time>
      </trkpt>
      <trkpt lat="47.15015" lon="4.94366">
        <ele>278.7</ele>
        <time>2024-06-29T09:08:21Z</time>
      </trkpt>
      <trkpt lat="47.15014" lon="4.94366">
        <ele>278.3</ele>
        <time>2024-06-29T09:08:22Z</time>
      </trkpt>
      <trkpt lat="47.15013" lon="4.94365">
        <ele>278.4</ele>
        <time>2024-06-29T09:08:23Z</time>
      </trkpt>
      <trkpt lat="47.15012" lon="4.94365">
        <ele>278.8</ele>
        <time>2024-06-29T09:08:24Z</time>
      </trkpt>
      <trkpt lat="47.15011" lon="4.94364">
        <ele>278.7</ele>
        <time>2024-06-29T09:08:25Z</time>
      </trkpt>
      <trkpt lat="47.15009" lon="4.94364">
        <ele>278.4</ele>
        <time>2024-06-29T09:08:26Z</time>
      </trkpt>
      <trkpt lat="47.15008" lon="4.94363">
        <ele>278.4</ele>
        <time>2024-06-29T09:08:27Z</time>
      </trkpt>
      <trkpt lat="47.15007" lon="4.94363">
        <ele>277.9</ele>
        <time>2024-06-29T09:08:28Z</time>
      </trkpt>
      <trkpt lat="47.15006" lon="4.94362">
        <ele>278.1</ele>
        <time>2024-06-29T09:08:29Z</time>
      </trkpt>
      <trkpt lat="47.15004" lon="4.94361">
        <ele>277.9</ele>
        <time>2024-06-29T09:08:30Z</time>
      </trkpt>
      <trkpt lat="47.15003" lon="4.94361">
        <ele>277.9</ele>
        <time>2024-06-29T09:08:31Z</time>
      </trkpt>
      <trkpt lat="47.15002" lon="4.9436">
        <ele>277.9</ele>
        <time>2024-06-29T09:08:32Z</time>
      </trkpt>
      <trkpt lat="47.15001" lon="4.9436">
        <ele>277.4</ele>
        <time>2024-06-29T09:08:33Z</time>
      </trkpt>
      <trkpt lat="47.15" lon="4.9436">
        <ele>277</ele>
        <time>2024-06-29T09:08:34Z</time>
      </trkpt>
      <trkpt lat="47.14999" lon="4.94359">
        <ele>276.9</ele>
        <time>2024-06-29T09:08:35Z</time>
      </trkpt>
      <trkpt lat="47.14998" lon="4.94359">
        <ele>276.9</ele>
        <time>2024-06-29T09:08:36Z</time>
      </trkpt>
      <trkpt lat="47.14997" lon="4.94359">
        <ele>276.5</ele>
        <time>2024-06-29T09:08:37Z</time>
      </trkpt>
      <trkpt lat="47.14996" lon="4.94358">
        <ele>276.4</ele>
        <time>2024-06-29T09:08:38Z</time>
      </trkpt>
      <trkpt lat="47.14995" lon="4.94358">
        <ele>276.1</ele>
        <time>2024-06-29T09:08:39Z</time>
      </trkpt>
      <trkpt lat="47.14994" lon="4.94357">
        <ele>276</ele>
        <time>2024-06-29T09:08:40Z</time>
      </trkpt>
      <trkpt lat="47.14992" lon="4.94357">
        <ele>275.9</ele>
        <time>2024-06-29T09:08:41Z</time>
      </trkpt>
      <trkpt lat="47.14991" lon="4.94356">
        <ele>275.6</ele>
        <time>2024-06-29T09:08:42Z</time>
      </trkpt>
      <trkpt lat="47.1499" lon="4.94356">
        <ele>275.4</ele>
        <time>2024-06-29T09:08:43Z</time>
      </trkpt>
      <trkpt lat="47.14989" lon="4.94356">
        <ele>274.9</ele>
        <time>2024-06-29T09:08:44Z</time>
      </trkpt>
      <trkpt lat="47.14988" lon="4.94355">
        <ele>274.8</ele>
        <time>2024-06-29T09:08:45Z</time>
      </trkpt>
      <trkpt lat="47.14987" lon="4.94355">
        <ele>274.8</ele>
        <time>2024-06-29T09:08:46Z</time>
      </trkpt>
      <trkpt lat="47.14986" lon="4.94355">
        <ele>274.6</ele>
        <time>2024-06-29T09:08:47Z</time>
      </trkpt>
      <trkpt lat="47.14985" lon="4.94355">
        <ele>274.5</ele>
        <time>2024-06-29T09:08:48Z</time>
      </trkpt>
      <trkpt lat="47.14983" lon="4.94355">
        <ele>274.4</ele>
        <time>2024-06-29T09:08:49Z</time>
      </trkpt>
      <trkpt lat="47.14982" lon="4.94354">
        <ele>274.5</ele>
        <time>2024-06-29T09:08:50Z</time>
      </trkpt>
      <trkpt lat="47.14981" lon="4.94354">
        <ele>274.4</ele>
        <time>2024-06-29T09:08:51Z</time>
      </trkpt>
      <trkpt lat="47.1498" lon="4.94354">
        <ele>274.2</ele>
        <time>2024-06-29T09:08:52Z</time>
      </trkpt>
      <trkpt lat="47.14979" lon="4.94354">
        <ele>274.2</ele>
        <time>2024-06-29T09:08:53Z</time>
      </trkpt>
      <trkpt lat="47.14978" lon="4.94354">
        <ele>274.2</ele>
        <time>2024-06-29T09:08:54Z</time>
      </trkpt>
      <trkpt lat="47.14977" lon="4.94353">
        <ele>273.9</ele>
        <time>2024-06-29T09:08:55Z</time>
      </trkpt>
      <trkpt lat="47.14976" lon="4.94353">
        <ele>274</ele>
        <time>2024-06-29T09:08:56Z</time>
      </trkpt>
      <trkpt lat="47.14974" lon="4.94353">
        <ele>273.9</ele>
        <time>2024-06-29T09:08:57Z</time>
      </trkpt>
      <trkpt lat="47.14973" lon="4.94353">
        <ele>274.1</ele>
        <time>2024-06-29T09:08:58Z</time>
      </trkpt>
      <trkpt lat="47.14972" lon="4.94354">
        <ele>273.8</ele>
        <time>2024-06-29T09:08:59Z</time>
      </trkpt>
      <trkpt lat="47.14971" lon="4.94354">
        <ele>273.8</ele>
        <time>2024-06-29T09:09:00Z</time>
      </trkpt>
      <trkpt lat="47.1497" lon="4.94354">
        <ele>273.9</ele>
        <time>2024-06-29T09:09:01Z</time>
      </trkpt>
      <trkpt lat="47.14969" lon="4.94354">
        <ele>273.7</ele>
        <time>2024-06-29T09:09:02Z</time>
      </trkpt>
      <trkpt lat="47.14968" lon="4.94354">
        <ele>273.7</ele>
        <time>2024-06-29T09:09:03Z</time>
      </trkpt>
      <trkpt lat="47.14967" lon="4.94354">
        <ele>273.7</ele>
        <time>2024-06-29T09:09:04Z</time>
      </trkpt>
      <trkpt lat="47.14966" lon="4.94354">
        <ele>273.7</ele>
        <time>2024-06-29T09:09:05Z</time>
      </trkpt>
      <trkpt lat="47.14965" lon="4.94354">
        <ele>273.5</ele>
        <time>2024-06-29T09:09:06Z</time>
      </trkpt>
      <trkpt lat="47.14964" lon="4.94354">
        <ele>273.5</ele>
        <time>2024-06-29T09:09:07Z</time>
      </trkpt>
      <trkpt lat="47.14962" lon="4.94354">
        <ele>273.4</ele>
        <time>2024-06-29T09:09:08Z</time>
      </trkpt>
      <trkpt lat="47.14961" lon="4.94354">
        <ele>273.5</ele>
        <time>2024-06-29T09:09:09Z</time>
      </trkpt>
      <trkpt lat="47.1496" lon="4.94354">
        <ele>273.5</ele>
        <time>2024-06-29T09:09:10Z</time>
      </trkpt>
      <trkpt lat="47.14959" lon="4.94354">
        <ele>273.2</ele>
        <time>2024-06-29T09:09:11Z</time>
      </trkpt>
      <trkpt lat="47.14958" lon="4.94354">
        <ele>273.1</ele>
        <time>2024-06-29T09:09:12Z</time>
      </trkpt>
      <trkpt lat="47.14957" lon="4.94353">
        <ele>273</ele>
        <time>2024-06-29T09:09:13Z</time>
      </trkpt>
      <trkpt lat="47.14956" lon="4.94353">
        <ele>273.1</ele>
        <time>2024-06-29T09:09:14Z</time>
      </trkpt>
      <trkpt lat="47.14955" lon="4.94352">
        <ele>273.2</ele>
        <time>2024-06-29T09:09:15Z</time>
      </trkpt>
      <trkpt lat="47.14954" lon="4.94352">
        <ele>272.8</ele>
        <time>2024-06-29T09:09:16Z</time>
      </trkpt>
      <trkpt lat="47.14953" lon="4.94351">
        <ele>272.7</ele>
        <time>2024-06-29T09:09:17Z</time>
      </trkpt>
      <trkpt lat="47.14952" lon="4.9435">
        <ele>272.4</ele>
        <time>2024-06-29T09:09:18Z</time>
      </trkpt>
      <trkpt lat="47.14951" lon="4.94349">
        <ele>272.2</ele>
        <time>2024-06-29T09:09:19Z</time>
      </trkpt>
      <trkpt lat="47.1495" lon="4.94349">
        <ele>272</ele>
        <time>2024-06-29T09:09:20Z</time>
      </trkpt>
      <trkpt lat="47.14949" lon="4.94348">
        <ele>271.8</ele>
        <time>2024-06-29T09:09:21Z</time>
      </trkpt>
      <trkpt lat="47.14948" lon="4.94347">
        <ele>271.8</ele>
        <time>2024-06-29T09:09:22Z</time>
      </trkpt>
      <trkpt lat="47.14946" lon="4.94347">
        <ele>271.9</ele>
        <time>2024-06-29T09:09:23Z</time>
      </trkpt>
      <trkpt lat="47.14945" lon="4.94346">
        <ele>271.8</ele>
        <time>2024-06-29T09:09:24Z</time>
      </trkpt>
      <trkpt lat="47.14944" lon="4.94345">
        <ele>271.8</ele>
        <time>2024-06-29T09:09:25Z</time>
      </trkpt>
      <trkpt lat="47.14943" lon="4.94344">
        <ele>271.7</ele>
        <time>2024-06-29T09:09:26Z</time>
      </trkpt>
      <trkpt lat="47.14942" lon="4.94343">
        <ele>271.4</ele>
        <time>2024-06-29T09:09:27Z</time>
      </trkpt>
      <trkpt lat="47.14942" lon="4.94342">
        <ele>271.4</ele>
        <time>2024-06-29T09:09:28Z</time>
      </trkpt>
      <trkpt lat="47.14941" lon="4.94341">
        <ele>271.3</ele>
        <time>2024-06-29T09:09:29Z</time>
      </trkpt>
      <trkpt lat="47.1494" lon="4.9434">
        <ele>271.2</ele>
        <time>2024-06-29T09:09:30Z</time>
      </trkpt>
      <trkpt lat="47.14939" lon="4.94339">
        <ele>271</ele>
        <time>2024-06-29T09:09:31Z</time>
      </trkpt>
      <trkpt lat="47.14938" lon="4.94338">
        <ele>270.9</ele>
        <time>2024-06-29T09:09:32Z</time>
      </trkpt>
      <trkpt lat="47.14937" lon="4.94337">
        <ele>270.8</ele>
        <time>2024-06-29T09:09:33Z</time>
      </trkpt>
      <trkpt lat="47.14936" lon="4.94336">
        <ele>270.7</ele>
        <time>2024-06-29T09:09:34Z</time>
      </trkpt>
      <trkpt lat="47.14935" lon="4.94335">
        <ele>270.6</ele>
        <time>2024-06-29T09:09:35Z</time>
      </trkpt>
      <trkpt lat="47.14934" lon="4.94334">
        <ele>270.7</ele>
        <time>2024-06-29T09:09:36Z</time>
      </trkpt>
      <trkpt lat="47.14933" lon="4.94333">
        <ele>270.5</ele>
        <time>2024-06-29T09:09:37Z</time>
      </trkpt>
      <trkpt lat="47.14932" lon="4.94332">
        <ele>270.6</ele>
        <time>2024-06-29T09:09:38Z</time>
      </trkpt>
      <trkpt lat="47.14931" lon="4.94331">
        <ele>270.4</ele>
        <time>2024-06-29T09:09:39Z</time>
      </trkpt>
      <trkpt lat="47.1493" lon="4.9433">
        <ele>270.4</ele>
        <time>2024-06-29T09:09:40Z</time>
      </trkpt>
      <trkpt lat="47.14929" lon="4.94329">
        <ele>270.4</ele>
        <time>2024-06-29T09:09:41Z</time>
      </trkpt>
      <trkpt lat="47.14928" lon="4.94329">
        <ele>270.5</ele>
        <time>2024-06-29T09:09:42Z</time>
      </trkpt>
      <trkpt lat="47.14927" lon="4.94328">
        <ele>270.4</ele>
        <time>2024-06-29T09:09:43Z</time>
      </trkpt>
      <trkpt lat="47.14926" lon="4.94327">
        <ele>270.5</ele>
        <time>2024-06-29T09:09:44Z</time>
      </trkpt>
      <trkpt lat="47.14925" lon="4.94326">
        <ele>270.5</ele>
        <time>2024-06-29T09:09:45Z</time>
      </trkpt>
      <trkpt lat="47.14924" lon="4.94325">
        <ele>270.4</ele>
        <time>2024-06-29T09:09:46Z</time>
      </trkpt>
      <trkpt lat="47.14923" lon="4.94324">
        <ele>270.4</ele>
        <time>2024-06-29T09:09:47Z</time>
      </trkpt>
      <trkpt lat="47.14922" lon="4.94323">
        <ele>270.4</ele>
        <time>2024-06-29T09:09:48Z</time>
      </trkpt>
      <trkpt lat="47.14921" lon="4.94322">
        <ele>270.2</ele>
        <time>2024-06-29T09:09:49Z</time>
      </trkpt>
      <trkpt lat="47.1492" lon="4.94322">
        <ele>270.3</ele>
        <time>2024-06-29T09:09:50Z</time>
      </trkpt>
      <trkpt lat="47.14919" lon="4.94321">
        <ele>270.2</ele>
        <time>2024-06-29T09:09:51Z</time>
      </trkpt>
      <trkpt lat="47.14918" lon="4.9432">
        <ele>270.3</ele>
        <time>2024-06-29T09:09:52Z</time>
      </trkpt>
      <trkpt lat="47.14917" lon="4.94319">
        <ele>269.8</ele>
        <time>2024-06-29T09:09:53Z</time>
      </trkpt>
      <trkpt lat="47.14916" lon="4.94319">
        <ele>270.1</ele>
        <time>2024-06-29T09:09:54Z</time>
      </trkpt>
      <trkpt lat="47.14916" lon="4.94318">
        <ele>270.1</ele>
        <time>2024-06-29T09:09:55Z</time>
      </trkpt>
      <trkpt lat="47.14915" lon="4.94317">
        <ele>270.1</ele>
        <time>2024-06-29T09:09:56Z</time>
      </trkpt>
      <trkpt lat="47.14914" lon="4.94316">
        <ele>270</ele>
        <time>2024-06-29T09:09:57Z</time>
      </trkpt>
      <trkpt lat="47.14913" lon="4.94316">
        <ele>269.7</ele>
        <time>2024-06-29T09:09:58Z</time>
      </trkpt>
      <trkpt lat="47.14912" lon="4.94315">
        <ele>269.5</ele>
        <time>2024-06-29T09:09:59Z</time>
      </trkpt>
      <trkpt lat="47.14911" lon="4.94314">
        <ele>269.4</ele>
        <time>2024-06-29T09:10:00Z</time>
      </trkpt>
      <trkpt lat="47.1491" lon="4.94313">
        <ele>269.2</ele>
        <time>2024-06-29T09:10:01Z</time>
      </trkpt>
      <trkpt lat="47.14908" lon="4.94313">
        <ele>269.2</ele>
        <time>2024-06-29T09:10:02Z</time>
      </trkpt>
      <trkpt lat="47.14907" lon="4.94312">
        <ele>269</ele>
        <time>2024-06-29T09:10:03Z</time>
      </trkpt>
      <trkpt lat="47.14906" lon="4.94311">
        <ele>268.8</ele>
        <time>2024-06-29T09:10:04Z</time>
      </trkpt>
      <trkpt lat="47.14905" lon="4.94311">
        <ele>268.8</ele>
        <time>2024-06-29T09:10:05Z</time>
      </trkpt>
      <trkpt lat="47.14904" lon="4.9431">
        <ele>268.8</ele>
        <time>2024-06-29T09:10:06Z</time>
      </trkpt>
      <trkpt lat="47.14903" lon="4.94309">
        <ele>268.5</ele>
        <time>2024-06-29T09:10:07Z</time>
      </trkpt>
      <trkpt lat="47.14902" lon="4.94309">
        <ele>268.4</ele>
        <time>2024-06-29T09:10:08Z</time>
      </trkpt>
      <trkpt lat="47.14901" lon="4.94308">
        <ele>268.6</ele>
        <time>2024-06-29T09:10:09Z</time>
      </trkpt>
      <trkpt lat="47.149" lon="4.94307">
        <ele>268.6</ele>
        <time>2024-06-29T09:10:10Z</time>
      </trkpt>
      <trkpt lat="47.14899" lon="4.94307">
        <ele>268.3</ele>
        <time>2024-06-29T09:10:11Z</time>
      </trkpt>
      <trkpt lat="47.14897" lon="4.94306">
        <ele>268</ele>
        <time>2024-06-29T09:10:12Z</time>
      </trkpt>
      <trkpt lat="47.14896" lon="4.94306">
        <ele>267.7</ele>
        <time>2024-06-29T09:10:13Z</time>
      </trkpt>
      <trkpt lat="47.14895" lon="4.94306">
        <ele>267.7</ele>
        <time>2024-06-29T09:10:14Z</time>
      </trkpt>
      <trkpt lat="47.14894" lon="4.94306">
        <ele>268</ele>
        <time>2024-06-29T09:10:15Z</time>
      </trkpt>
      <trkpt lat="47.14893" lon="4.94306">
        <ele>267.9</ele>
        <time>2024-06-29T09:10:16Z</time>
      </trkpt>
      <trkpt lat="47.14892" lon="4.94307">
        <ele>267.9</ele>
        <time>2024-06-29T09:10:17Z</time>
      </trkpt>
      <trkpt lat="47.14891" lon="4.94307">
        <ele>267.6</ele>
        <time>2024-06-29T09:10:18Z</time>
      </trkpt>
      <trkpt lat="47.1489" lon="4.94308">
        <ele>267.9</ele>
        <time>2024-06-29T09:10:19Z</time>
      </trkpt>
      <trkpt lat="47.14889" lon="4.94309">
        <ele>268.1</ele>
        <time>2024-06-29T09:10:20Z</time>
      </trkpt>
      <trkpt lat="47.14888" lon="4.94309">
        <ele>268.1</ele>
        <time>2024-06-29T09:10:21Z</time>
      </trkpt>
      <trkpt lat="47.14887" lon="4.9431">
        <ele>267.6</ele>
        <time>2024-06-29T09:10:22Z</time>
      </trkpt>
      <trkpt lat="47.14886" lon="4.9431">
        <ele>266.9</ele>
        <time>2024-06-29T09:10:23Z</time>
      </trkpt>
      <trkpt lat="47.14885" lon="4.94311">
        <ele>266.5</ele>
        <time>2024-06-29T09:10:24Z</time>
      </trkpt>
      <trkpt lat="47.14884" lon="4.94313">
        <ele>267.1</ele>
        <time>2024-06-29T09:10:26Z</time>
      </trkpt>
      <trkpt lat="47.14883" lon="4.94314">
        <ele>266.9</ele>
        <time>2024-06-29T09:10:27Z</time>
      </trkpt>
      <trkpt lat="47.14883" lon="4.94315">
        <ele>266.7</ele>
        <time>2024-06-29T09:10:28Z</time>
      </trkpt>
      <trkpt lat="47.14882" lon="4.94316">
        <ele>266.7</ele>
        <time>2024-06-29T09:10:29Z</time>
      </trkpt>
      <trkpt lat="47.14881" lon="4.94317">
        <ele>266.3</ele>
        <time>2024-06-29T09:10:30Z</time>
      </trkpt>
      <trkpt lat="47.1488" lon="4.94317">
        <ele>266.3</ele>
        <time>2024-06-29T09:10:31Z</time>
      </trkpt>
      <trkpt lat="47.14879" lon="4.94318">
        <ele>265.9</ele>
        <time>2024-06-29T09:10:32Z</time>
      </trkpt>
      <trkpt lat="47.14878" lon="4.94319">
        <ele>266</ele>
        <time>2024-06-29T09:10:33Z</time>
      </trkpt>
      <trkpt lat="47.14878" lon="4.9432">
        <ele>265.7</ele>
        <time>2024-06-29T09:10:34Z</time>
      </trkpt>
      <trkpt lat="47.14877" lon="4.94321">
        <ele>265.8</ele>
        <time>2024-06-29T09:10:35Z</time>
      </trkpt>
      <trkpt lat="47.14876" lon="4.94322">
        <ele>265.8</ele>
        <time>2024-06-29T09:10:36Z</time>
      </trkpt>
      <trkpt lat="47.14875" lon="4.94323">
        <ele>265.6</ele>
        <time>2024-06-29T09:10:37Z</time>
      </trkpt>
      <trkpt lat="47.14874" lon="4.94324">
        <ele>265.3</ele>
        <time>2024-06-29T09:10:38Z</time>
      </trkpt>
      <trkpt lat="47.14873" lon="4.94325">
        <ele>265.1</ele>
        <time>2024-06-29T09:10:39Z</time>
      </trkpt>
      <trkpt lat="47.14872" lon="4.94326">
        <ele>265</ele>
        <time>2024-06-29T09:10:40Z</time>
      </trkpt>
      <trkpt lat="47.14871" lon="4.94328">
        <ele>264.7</ele>
        <time>2024-06-29T09:10:41Z</time>
      </trkpt>
      <trkpt lat="47.1487" lon="4.94329">
        <ele>264.5</ele>
        <time>2024-06-29T09:10:42Z</time>
      </trkpt>
      <trkpt lat="47.14869" lon="4.9433">
        <ele>264.5</ele>
        <time>2024-06-29T09:10:43Z</time>
      </trkpt>
      <trkpt lat="47.14868" lon="4.94331">
        <ele>263.7</ele>
        <time>2024-06-29T09:10:44Z</time>
      </trkpt>
      <trkpt lat="47.14867" lon="4.94331">
        <ele>263.5</ele>
        <time>2024-06-29T09:10:45Z</time>
      </trkpt>
      <trkpt lat="47.14866" lon="4.94332">
        <ele>263.3</ele>
        <time>2024-06-29T09:10:46Z</time>
      </trkpt>
      <trkpt lat="47.14865" lon="4.94333">
        <ele>262.9</ele>
        <time>2024-06-29T09:10:47Z</time>
      </trkpt>
      <trkpt lat="47.14864" lon="4.94334">
        <ele>263.1</ele>
        <time>2024-06-29T09:10:48Z</time>
      </trkpt>
      <trkpt lat="47.14863" lon="4.94335">
        <ele>262.8</ele>
        <time>2024-06-29T09:10:49Z</time>
      </trkpt>
      <trkpt lat="47.14862" lon="4.94336">
        <ele>262.9</ele>
        <time>2024-06-29T09:10:50Z</time>
      </trkpt>
      <trkpt lat="47.14862" lon="4.94338">
        <ele>263.1</ele>
        <time>2024-06-29T09:10:51Z</time>
      </trkpt>
      <trkpt lat="47.14861" lon="4.94339">
        <ele>262.9</ele>
        <time>2024-06-29T09:10:52Z</time>
      </trkpt>
      <trkpt lat="47.1486" lon="4.9434">
        <ele>262.9</ele>
        <time>2024-06-29T09:10:53Z</time>
      </trkpt>
      <trkpt lat="47.14859" lon="4.94341">
        <ele>262.8</ele>
        <time>2024-06-29T09:10:54Z</time>
      </trkpt>
      <trkpt lat="47.14859" lon="4.94342">
        <ele>263.1</ele>
        <time>2024-06-29T09:10:55Z</time>
      </trkpt>
      <trkpt lat="47.14858" lon="4.94343">
        <ele>263.2</ele>
        <time>2024-06-29T09:10:56Z</time>
      </trkpt>
      <trkpt lat="47.14857" lon="4.94344">
        <ele>263.1</ele>
        <time>2024-06-29T09:10:57Z</time>
      </trkpt>
      <trkpt lat="47.14856" lon="4.94345">
        <ele>263.2</ele>
        <time>2024-06-29T09:10:58Z</time>
      </trkpt>
      <trkpt lat="47.14855" lon="4.94345">
        <ele>263.1</ele>
        <time>2024-06-29T09:10:59Z</time>
      </trkpt>
      <trkpt lat="47.14854" lon="4.94346">
        <ele>263.1</ele>
        <time>2024-06-29T09:11:00Z</time>
      </trkpt>
      <trkpt lat="47.14853" lon="4.94346">
        <ele>262.9</ele>
        <time>2024-06-29T09:11:01Z</time>
      </trkpt>
      <trkpt lat="47.14852" lon="4.94346">
        <ele>263.1</ele>
        <time>2024-06-29T09:11:02Z</time>
      </trkpt>
      <trkpt lat="47.1485" lon="4.94347">
        <ele>262.9</ele>
        <time>2024-06-29T09:11:03Z</time>
      </trkpt>
      <trkpt lat="47.14849" lon="4.94347">
        <ele>262.8</ele>
        <time>2024-06-29T09:11:04Z</time>
      </trkpt>
      <trkpt lat="47.14848" lon="4.94347">
        <ele>263.1</ele>
        <time>2024-06-29T09:11:05Z</time>
      </trkpt>
      <trkpt lat="47.14847" lon="4.94347">
        <ele>263.3</ele>
        <time>2024-06-29T09:11:06Z</time>
      </trkpt>
      <trkpt lat="47.14846" lon="4.94347">
        <ele>263.4</ele>
        <time>2024-06-29T09:11:07Z</time>
      </trkpt>
      <trkpt lat="47.14845" lon="4.94347">
        <ele>263.3</ele>
        <time>2024-06-29T09:11:08Z</time>
      </trkpt>
      <trkpt lat="47.14844" lon="4.94347">
        <ele>263.1</ele>
        <time>2024-06-29T09:11:09Z</time>
      </trkpt>
      <trkpt lat="47.14843" lon="4.94347">
        <ele>263.2</ele>
        <time>2024-06-29T09:11:10Z</time>
      </trkpt>
      <trkpt lat="47.14842" lon="4.94347">
        <ele>263.3</ele>
        <time>2024-06-29T09:11:11Z</time>
      </trkpt>
      <trkpt lat="47.14841" lon="4.94347">
        <ele>263.5</ele>
        <time>2024-06-29T09:11:12Z</time>
      </trkpt>
      <trkpt lat="47.14839" lon="4.94346">
        <ele>263.6</ele>
        <time>2024-06-29T09:11:13Z</time>
      </trkpt>
      <trkpt lat="47.14838" lon="4.94346">
        <ele>263.9</ele>
        <time>2024-06-29T09:11:14Z</time>
      </trkpt>
      <trkpt lat="47.14837" lon="4.94346">
        <ele>263.9</ele>
        <time>2024-06-29T09:11:15Z</time>
      </trkpt>
      <trkpt lat="47.14836" lon="4.94346">
        <ele>264</ele>
        <time>2024-06-29T09:11:16Z</time>
      </trkpt>
      <trkpt lat="47.14835" lon="4.94347">
        <ele>264.3</ele>
        <time>2024-06-29T09:11:17Z</time>
      </trkpt>
      <trkpt lat="47.14834" lon="4.94347">
        <ele>264.4</ele>
        <time>2024-06-29T09:11:18Z</time>
      </trkpt>
      <trkpt lat="47.14833" lon="4.94347">
        <ele>264.1</ele>
        <time>2024-06-29T09:11:19Z</time>
      </trkpt>
      <trkpt lat="47.14832" lon="4.94347">
        <ele>263.9</ele>
        <time>2024-06-29T09:11:20Z</time>
      </trkpt>
      <trkpt lat="47.14831" lon="4.94347">
        <ele>264.1</ele>
        <time>2024-06-29T09:11:21Z</time>
      </trkpt>
      <trkpt lat="47.1483" lon="4.94347">
        <ele>264.2</ele>
        <time>2024-06-29T09:11:22Z</time>
      </trkpt>
      <trkpt lat="47.14829" lon="4.94347">
        <ele>264.3</ele>
        <time>2024-06-29T09:11:23Z</time>
      </trkpt>
      <trkpt lat="47.14828" lon="4.94347">
        <ele>265</ele>
        <time>2024-06-29T09:11:24Z</time>
      </trkpt>
      <trkpt lat="47.14827" lon="4.94348">
        <ele>264.9</ele>
        <time>2024-06-29T09:11:25Z</time>
      </trkpt>
      <trkpt lat="47.14826" lon="4.94348">
        <ele>264.8</ele>
        <time>2024-06-29T09:11:26Z</time>
      </trkpt>
      <trkpt lat="47.14825" lon="4.94348">
        <ele>264.4</ele>
        <time>2024-06-29T09:11:27Z</time>
      </trkpt>
      <trkpt lat="47.14823" lon="4.94348">
        <ele>264.4</ele>
        <time>2024-06-29T09:11:28Z</time>
      </trkpt>
      <trkpt lat="47.14822" lon="4.94348">
        <ele>264.2</ele>
        <time>2024-06-29T09:11:29Z</time>
      </trkpt>
      <trkpt lat="47.14821" lon="4.94348">
        <ele>264.1</ele>
        <time>2024-06-29T09:11:30Z</time>
      </trkpt>
      <trkpt lat="47.1482" lon="4.94349">
        <ele>263.9</ele>
        <time>2024-06-29T09:11:31Z</time>
      </trkpt>
      <trkpt lat="47.14819" lon="4.94349">
        <ele>264.1</ele>
        <time>2024-06-29T09:11:32Z</time>
      </trkpt>
      <trkpt lat="47.14818" lon="4.94349">
        <ele>264.1</ele>
        <time>2024-06-29T09:11:33Z</time>
      </trkpt>
      <trkpt lat="47.14817" lon="4.94348">
        <ele>264</ele>
        <time>2024-06-29T09:11:34Z</time>
      </trkpt>
      <trkpt lat="47.14816" lon="4.94348">
        <ele>263.9</ele>
        <time>2024-06-29T09:11:35Z</time>
      </trkpt>
      <trkpt lat="47.14815" lon="4.94348">
        <ele>263.6</ele>
        <time>2024-06-29T09:11:36Z</time>
      </trkpt>
      <trkpt lat="47.14813" lon="4.94348">
        <ele>263.6</ele>
        <time>2024-06-29T09:11:37Z</time>
      </trkpt>
      <trkpt lat="47.14812" lon="4.94348">
        <ele>263.8</ele>
        <time>2024-06-29T09:11:38Z</time>
      </trkpt>
      <trkpt lat="47.14811" lon="4.94348">
        <ele>263.6</ele>
        <time>2024-06-29T09:11:39Z</time>
      </trkpt>
      <trkpt lat="47.1481" lon="4.94348">
        <ele>263.2</ele>
        <time>2024-06-29T09:11:40Z</time>
      </trkpt>
      <trkpt lat="47.14809" lon="4.94348">
        <ele>263.2</ele>
        <time>2024-06-29T09:11:41Z</time>
      </trkpt>
      <trkpt lat="47.14808" lon="4.94348">
        <ele>263.2</ele>
        <time>2024-06-29T09:11:42Z</time>
      </trkpt>
      <trkpt lat="47.14807" lon="4.94347">
        <ele>263.4</ele>
        <time>2024-06-29T09:11:43Z</time>
      </trkpt>
      <trkpt lat="47.14806" lon="4.94347">
        <ele>263.1</ele>
        <time>2024-06-29T09:11:44Z</time>
      </trkpt>
      <trkpt lat="47.14805" lon="4.94347">
        <ele>262.9</ele>
        <time>2024-06-29T09:11:45Z</time>
      </trkpt>
      <trkpt lat="47.14803" lon="4.94347">
        <ele>262.7</ele>
        <time>2024-06-29T09:11:46Z</time>
      </trkpt>
      <trkpt lat="47.14802" lon="4.94347">
        <ele>262.7</ele>
        <time>2024-06-29T09:11:47Z</time>
      </trkpt>
      <trkpt lat="47.14801" lon="4.94347">
        <ele>262.8</ele>
        <time>2024-06-29T09:11:48Z</time>
      </trkpt>
      <trkpt lat="47.148" lon="4.94346">
        <ele>262.7</ele>
        <time>2024-06-29T09:11:49Z</time>
      </trkpt>
      <trkpt lat="47.14799" lon="4.94346">
        <ele>262.6</ele>
        <time>2024-06-29T09:11:50Z</time>
      </trkpt>
      <trkpt lat="47.14798" lon="4.94346">
        <ele>262.3</ele>
        <time>2024-06-29T09:11:51Z</time>
      </trkpt>
      <trkpt lat="47.14796" lon="4.94345">
        <ele>262.1</ele>
        <time>2024-06-29T09:11:52Z</time>
      </trkpt>
      <trkpt lat="47.14795" lon="4.94345">
        <ele>262.2</ele>
        <time>2024-06-29T09:11:53Z</time>
      </trkpt>
      <trkpt lat="47.14794" lon="4.94344">
        <ele>262</ele>
        <time>2024-06-29T09:11:54Z</time>
      </trkpt>
      <trkpt lat="47.14793" lon="4.94344">
        <ele>261.9</ele>
        <time>2024-06-29T09:11:55Z</time>
      </trkpt>
      <trkpt lat="47.14792" lon="4.94344">
        <ele>261.8</ele>
        <time>2024-06-29T09:11:56Z</time>
      </trkpt>
      <trkpt lat="47.14791" lon="4.94343">
        <ele>261.7</ele>
        <time>2024-06-29T09:11:57Z</time>
      </trkpt>
      <trkpt lat="47.1479" lon="4.94343">
        <ele>261.7</ele>
        <time>2024-06-29T09:11:58Z</time>
      </trkpt>
      <trkpt lat="47.14789" lon="4.94342">
        <ele>261.3</ele>
        <time>2024-06-29T09:11:59Z</time>
      </trkpt>
      <trkpt lat="47.14788" lon="4.94342">
        <ele>261.3</ele>
        <time>2024-06-29T09:12:00Z</time>
      </trkpt>
      <trkpt lat="47.14787" lon="4.94341">
        <ele>261.3</ele>
        <time>2024-06-29T09:12:01Z</time>
      </trkpt>
      <trkpt lat="47.14785" lon="4.9434">
        <ele>261</ele>
        <time>2024-06-29T09:12:02Z</time>
      </trkpt>
      <trkpt lat="47.14784" lon="4.9434">
        <ele>261.1</ele>
        <time>2024-06-29T09:12:03Z</time>
      </trkpt>
      <trkpt lat="47.14783" lon="4.94339">
        <ele>260.8</ele>
        <time>2024-06-29T09:12:04Z</time>
      </trkpt>
      <trkpt lat="47.14782" lon="4.94338">
        <ele>260.9</ele>
        <time>2024-06-29T09:12:05Z</time>
      </trkpt>
      <trkpt lat="47.14781" lon="4.94338">
        <ele>260.8</ele>
        <time>2024-06-29T09:12:06Z</time>
      </trkpt>
      <trkpt lat="47.1478" lon="4.94337">
        <ele>260.7</ele>
        <time>2024-06-29T09:12:07Z</time>
      </trkpt>
      <trkpt lat="47.14778" lon="4.94336">
        <ele>260.9</ele>
        <time>2024-06-29T09:12:08Z</time>
      </trkpt>
      <trkpt lat="47.14777" lon="4.94335">
        <ele>260.7</ele>
        <time>2024-06-29T09:12:09Z</time>
      </trkpt>
      <trkpt lat="47.14776" lon="4.94335">
        <ele>260.8</ele>
        <time>2024-06-29T09:12:10Z</time>
      </trkpt>
      <trkpt lat="47.14775" lon="4.94334">
        <ele>260.7</ele>
        <time>2024-06-29T09:12:11Z</time>
      </trkpt>
      <trkpt lat="47.14774" lon="4.94333">
        <ele>260.9</ele>
        <time>2024-06-29T09:12:12Z</time>
      </trkpt>
      <trkpt lat="47.14773" lon="4.94333">
        <ele>260.8</ele>
        <time>2024-06-29T09:12:13Z</time>
      </trkpt>
      <trkpt lat="47.14772" lon="4.94332">
        <ele>260.9</ele>
        <time>2024-06-29T09:12:14Z</time>
      </trkpt>
      <trkpt lat="47.14771" lon="4.94331">
        <ele>260.7</ele>
        <time>2024-06-29T09:12:15Z</time>
      </trkpt>
      <trkpt lat="47.1477" lon="4.9433">
        <ele>260.5</ele>
        <time>2024-06-29T09:12:16Z</time>
      </trkpt>
      <trkpt lat="47.14768" lon="4.94328">
        <ele>260.4</ele>
        <time>2024-06-29T09:12:18Z</time>
      </trkpt>
      <trkpt lat="47.14767" lon="4.94327">
        <ele>260.3</ele>
        <time>2024-06-29T09:12:19Z</time>
      </trkpt>
      <trkpt lat="47.14765" lon="4.94326">
        <ele>260.4</ele>
        <time>2024-06-29T09:12:21Z</time>
      </trkpt>
      <trkpt lat="47.14764" lon="4.94325">
        <ele>260.8</ele>
        <time>2024-06-29T09:12:22Z</time>
      </trkpt>
      <trkpt lat="47.14763" lon="4.94323">
        <ele>261</ele>
        <time>2024-06-29T09:12:24Z</time>
      </trkpt>
      <trkpt lat="47.14762" lon="4.94322">
        <ele>261.6</ele>
        <time>2024-06-29T09:12:25Z</time>
      </trkpt>
      <trkpt lat="47.1476" lon="4.9432">
        <ele>261.8</ele>
        <time>2024-06-29T09:12:27Z</time>
      </trkpt>
      <trkpt lat="47.14759" lon="4.94319">
        <ele>261.5</ele>
        <time>2024-06-29T09:12:28Z</time>
      </trkpt>
      <trkpt lat="47.14759" lon="4.94319">
        <ele>261.5</ele>
        <time>2024-06-29T09:12:29Z</time>
      </trkpt>
      <trkpt lat="47.14758" lon="4.94318">
        <ele>261.3</ele>
        <time>2024-06-29T09:12:30Z</time>
      </trkpt>
      <trkpt lat="47.14757" lon="4.94317">
        <ele>261.7</ele>
        <time>2024-06-29T09:12:31Z</time>
      </trkpt>
      <trkpt lat="47.14756" lon="4.94316">
        <ele>261.6</ele>
        <time>2024-06-29T09:12:32Z</time>
      </trkpt>
      <trkpt lat="47.14755" lon="4.94316">
        <ele>261.5</ele>
        <time>2024-06-29T09:12:33Z</time>
      </trkpt>
      <trkpt lat="47.14754" lon="4.94315">
        <ele>261.5</ele>
        <time>2024-06-29T09:12:34Z</time>
      </trkpt>
      <trkpt lat="47.14753" lon="4.94314">
        <ele>261.4</ele>
        <time>2024-06-29T09:12:35Z</time>
      </trkpt>
      <trkpt lat="47.14752" lon="4.94313">
        <ele>261.4</ele>
        <time>2024-06-29T09:12:36Z</time>
      </trkpt>
      <trkpt lat="47.14751" lon="4.94312">
        <ele>261.2</ele>
        <time>2024-06-29T09:12:37Z</time>
      </trkpt>
      <trkpt lat="47.1475" lon="4.94311">
        <ele>261</ele>
        <time>2024-06-29T09:12:38Z</time>
      </trkpt>
      <trkpt lat="47.14749" lon="4.9431">
        <ele>261</ele>
        <time>2024-06-29T09:12:39Z</time>
      </trkpt>
      <trkpt lat="47.14748" lon="4.94309">
        <ele>260.9</ele>
        <time>2024-06-29T09:12:40Z</time>
      </trkpt>
      <trkpt lat="47.14747" lon="4.94308">
        <ele>261</ele>
        <time>2024-06-29T09:12:41Z</time>
      </trkpt>
      <trkpt lat="47.14746" lon="4.94307">
        <ele>260.7</ele>
        <time>2024-06-29T09:12:42Z</time>
      </trkpt>
      <trkpt lat="47.14745" lon="4.94307">
        <ele>260.8</ele>
        <time>2024-06-29T09:12:43Z</time>
      </trkpt>
      <trkpt lat="47.14744" lon="4.94306">
        <ele>260.6</ele>
        <time>2024-06-29T09:12:44Z</time>
      </trkpt>
      <trkpt lat="47.14743" lon="4.94304">
        <ele>260.3</ele>
        <time>2024-06-29T09:12:45Z</time>
      </trkpt>
      <trkpt lat="47.14742" lon="4.94303">
        <ele>260.1</ele>
        <time>2024-06-29T09:12:46Z</time>
      </trkpt>
      <trkpt lat="47.14741" lon="4.94302">
        <ele>260.1</ele>
        <time>2024-06-29T09:12:47Z</time>
      </trkpt>
      <trkpt lat="47.1474" lon="4.94301">
        <ele>260.2</ele>
        <time>2024-06-29T09:12:48Z</time>
      </trkpt>
      <trkpt lat="47.14739" lon="4.943">
        <ele>260.2</ele>
        <time>2024-06-29T09:12:49Z</time>
      </trkpt>
      <trkpt lat="47.14738" lon="4.943">
        <ele>259.9</ele>
        <time>2024-06-29T09:12:50Z</time>
      </trkpt>
      <trkpt lat="47.14737" lon="4.94299">
        <ele>259.9</ele>
        <time>2024-06-29T09:12:51Z</time>
      </trkpt>
      <trkpt lat="47.14737" lon="4.94298">
        <ele>260.2</ele>
        <time>2024-06-29T09:12:52Z</time>
      </trkpt>
      <trkpt lat="47.14736" lon="4.94297">
        <ele>260.2</ele>
        <time>2024-06-29T09:12:53Z</time>
      </trkpt>
      <trkpt lat="47.14735" lon="4.94296">
        <ele>260.2</ele>
        <time>2024-06-29T09:12:54Z</time>
      </trkpt>
      <trkpt lat="47.14734" lon="4.94295">
        <ele>260.2</ele>
        <time>2024-06-29T09:12:55Z</time>
      </trkpt>
      <trkpt lat="47.14733" lon="4.94294">
        <ele>260.1</ele>
        <time>2024-06-29T09:12:56Z</time>
      </trkpt>
      <trkpt lat="47.14732" lon="4.94294">
        <ele>260.3</ele>
        <time>2024-06-29T09:12:57Z</time>
      </trkpt>
      <trkpt lat="47.14731" lon="4.94293">
        <ele>260.2</ele>
        <time>2024-06-29T09:12:58Z</time>
      </trkpt>
      <trkpt lat="47.1473" lon="4.94292">
        <ele>260.2</ele>
        <time>2024-06-29T09:12:59Z</time>
      </trkpt>
      <trkpt lat="47.14729" lon="4.94292">
        <ele>260</ele>
        <time>2024-06-29T09:13:00Z</time>
      </trkpt>
      <trkpt lat="47.14728" lon="4.94291">
        <ele>259.6</ele>
        <time>2024-06-29T09:13:01Z</time>
      </trkpt>
      <trkpt lat="47.14727" lon="4.9429">
        <ele>259.4</ele>
        <time>2024-06-29T09:13:02Z</time>
      </trkpt>
      <trkpt lat="47.14726" lon="4.9429">
        <ele>259.2</ele>
        <time>2024-06-29T09:13:03Z</time>
      </trkpt>
      <trkpt lat="47.14724" lon="4.9429">
        <ele>259.2</ele>
        <time>2024-06-29T09:13:04Z</time>
      </trkpt>
      <trkpt lat="47.14723" lon="4.9429">
        <ele>259.1</ele>
        <time>2024-06-29T09:13:05Z</time>
      </trkpt>
      <trkpt lat="47.14722" lon="4.94289">
        <ele>259.1</ele>
        <time>2024-06-29T09:13:06Z</time>
      </trkpt>
      <trkpt lat="47.14721" lon="4.94289">
        <ele>258.9</ele>
        <time>2024-06-29T09:13:07Z</time>
      </trkpt>
      <trkpt lat="47.1472" lon="4.94289">
        <ele>259</ele>
        <time>2024-06-29T09:13:08Z</time>
      </trkpt>
      <trkpt lat="47.14719" lon="4.94288">
        <ele>258.8</ele>
        <time>2024-06-29T09:13:09Z</time>
      </trkpt>
      <trkpt lat="47.14718" lon="4.94288">
        <ele>258.6</ele>
        <time>2024-06-29T09:13:10Z</time>
      </trkpt>
      <trkpt lat="47.14717" lon="4.94288">
        <ele>259</ele>
        <time>2024-06-29T09:13:11Z</time>
      </trkpt>
      <trkpt lat="47.14715" lon="4.94288">
        <ele>258.9</ele>
        <time>2024-06-29T09:13:12Z</time>
      </trkpt>
      <trkpt lat="47.14714" lon="4.94289">
        <ele>259.1</ele>
        <time>2024-06-29T09:13:13Z</time>
      </trkpt>
      <trkpt lat="47.14713" lon="4.94289">
        <ele>259.1</ele>
        <time>2024-06-29T09:13:14Z</time>
      </trkpt>
      <trkpt lat="47.14712" lon="4.94289">
        <ele>259.1</ele>
        <time>2024-06-29T09:13:15Z</time>
      </trkpt>
      <trkpt lat="47.14711" lon="4.9429">
        <ele>258.9</ele>
        <time>2024-06-29T09:13:16Z</time>
      </trkpt>
      <trkpt lat="47.1471" lon="4.9429">
        <ele>258.6</ele>
        <time>2024-06-29T09:13:17Z</time>
      </trkpt>
      <trkpt lat="47.14709" lon="4.9429">
        <ele>258.6</ele>
        <time>2024-06-29T09:13:18Z</time>
      </trkpt>
      <trkpt lat="47.14707" lon="4.9429">
        <ele>258.4</ele>
        <time>2024-06-29T09:13:19Z</time>
      </trkpt>
      <trkpt lat="47.14706" lon="4.9429">
        <ele>258.7</ele>
        <time>2024-06-29T09:13:20Z</time>
      </trkpt>
      <trkpt lat="47.14705" lon="4.94291">
        <ele>258.6</ele>
        <time>2024-06-29T09:13:21Z</time>
      </trkpt>
      <trkpt lat="47.14704" lon="4.94291">
        <ele>258.4</ele>
        <time>2024-06-29T09:13:22Z</time>
      </trkpt>
      <trkpt lat="47.14703" lon="4.94292">
        <ele>258.3</ele>
        <time>2024-06-29T09:13:23Z</time>
      </trkpt>
      <trkpt lat="47.14702" lon="4.94292">
        <ele>258.1</ele>
        <time>2024-06-29T09:13:24Z</time>
      </trkpt>
      <trkpt lat="47.147" lon="4.94292">
        <ele>258.3</ele>
        <time>2024-06-29T09:13:25Z</time>
      </trkpt>
      <trkpt lat="47.14699" lon="4.94293">
        <ele>258.1</ele>
        <time>2024-06-29T09:13:26Z</time>
      </trkpt>
      <trkpt lat="47.14698" lon="4.94293">
        <ele>258</ele>
        <time>2024-06-29T09:13:27Z</time>
      </trkpt>
      <trkpt lat="47.14697" lon="4.94293">
        <ele>257.8</ele>
        <time>2024-06-29T09:13:28Z</time>
      </trkpt>
      <trkpt lat="47.14696" lon="4.94294">
        <ele>257.4</ele>
        <time>2024-06-29T09:13:29Z</time>
      </trkpt>
      <trkpt lat="47.14695" lon="4.94294">
        <ele>257.2</ele>
        <time>2024-06-29T09:13:30Z</time>
      </trkpt>
      <trkpt lat="47.14693" lon="4.94295">
        <ele>257</ele>
        <time>2024-06-29T09:13:31Z</time>
      </trkpt>
      <trkpt lat="47.14692" lon="4.94295">
        <ele>256.7</ele>
        <time>2024-06-29T09:13:32Z</time>
      </trkpt>
      <trkpt lat="47.14691" lon="4.94296">
        <ele>256.6</ele>
        <time>2024-06-29T09:13:33Z</time>
      </trkpt>
      <trkpt lat="47.14689" lon="4.94296">
        <ele>256.3</ele>
        <time>2024-06-29T09:13:34Z</time>
      </trkpt>
      <trkpt lat="47.14688" lon="4.94297">
        <ele>256.2</ele>
        <time>2024-06-29T09:13:35Z</time>
      </trkpt>
      <trkpt lat="47.14687" lon="4.94297">
        <ele>256.1</ele>
        <time>2024-06-29T09:13:36Z</time>
      </trkpt>
      <trkpt lat="47.14686" lon="4.94297">
        <ele>256.1</ele>
        <time>2024-06-29T09:13:37Z</time>
      </trkpt>
      <trkpt lat="47.14685" lon="4.94298">
        <ele>256.2</ele>
        <time>2024-06-29T09:13:38Z</time>
      </trkpt>
      <trkpt lat="47.14683" lon="4.94298">
        <ele>256.2</ele>
        <time>2024-06-29T09:13:39Z</time>
      </trkpt>
      <trkpt lat="47.14682" lon="4.94298">
        <ele>256.2</ele>
        <time>2024-06-29T09:13:40Z</time>
      </trkpt>
      <trkpt lat="47.14681" lon="4.94298">
        <ele>255.9</ele>
        <time>2024-06-29T09:13:41Z</time>
      </trkpt>
      <trkpt lat="47.1468" lon="4.94299">
        <ele>255.9</ele>
        <time>2024-06-29T09:13:42Z</time>
      </trkpt>
      <trkpt lat="47.14679" lon="4.94299">
        <ele>255.8</ele>
        <time>2024-06-29T09:13:43Z</time>
      </trkpt>
      <trkpt lat="47.14678" lon="4.94299">
        <ele>255.9</ele>
        <time>2024-06-29T09:13:44Z</time>
      </trkpt>
      <trkpt lat="47.14677" lon="4.94299">
        <ele>256</ele>
        <time>2024-06-29T09:13:45Z</time>
      </trkpt>
      <trkpt lat="47.14675" lon="4.94299">
        <ele>256</ele>
        <time>2024-06-29T09:13:46Z</time>
      </trkpt>
      <trkpt lat="47.14674" lon="4.94298">
        <ele>256</ele>
        <time>2024-06-29T09:13:47Z</time>
      </trkpt>
      <trkpt lat="47.14673" lon="4.94298">
        <ele>255.9</ele>
        <time>2024-06-29T09:13:48Z</time>
      </trkpt>
      <trkpt lat="47.14672" lon="4.94298">
        <ele>255.6</ele>
        <time>2024-06-29T09:13:49Z</time>
      </trkpt>
      <trkpt lat="47.14671" lon="4.94298">
        <ele>255.5</ele>
        <time>2024-06-29T09:13:50Z</time>
      </trkpt>
      <trkpt lat="47.1467" lon="4.94297">
        <ele>255.5</ele>
        <time>2024-06-29T09:13:51Z</time>
      </trkpt>
      <trkpt lat="47.14669" lon="4.94297">
        <ele>255.6</ele>
        <time>2024-06-29T09:13:52Z</time>
      </trkpt>
      <trkpt lat="47.14668" lon="4.94296">
        <ele>255.8</ele>
        <time>2024-06-29T09:13:53Z</time>
      </trkpt>
      <trkpt lat="47.14667" lon="4.94296">
        <ele>255.8</ele>
        <time>2024-06-29T09:13:54Z</time>
      </trkpt>
      <trkpt lat="47.14666" lon="4.94295">
        <ele>255.8</ele>
        <time>2024-06-29T09:13:55Z</time>
      </trkpt>
      <trkpt lat="47.14665" lon="4.94295">
        <ele>255.5</ele>
        <time>2024-06-29T09:13:56Z</time>
      </trkpt>
      <trkpt lat="47.14664" lon="4.94294">
        <ele>255.5</ele>
        <time>2024-06-29T09:13:57Z</time>
      </trkpt>
      <trkpt lat="47.14662" lon="4.94294">
        <ele>255.6</ele>
        <time>2024-06-29T09:13:58Z</time>
      </trkpt>
      <trkpt lat="47.14661" lon="4.94293">
        <ele>255.4</ele>
        <time>2024-06-29T09:13:59Z</time>
      </trkpt>
      <trkpt lat="47.1466" lon="4.94293">
        <ele>255.2</ele>
        <time>2024-06-29T09:14:00Z</time>
      </trkpt>
      <trkpt lat="47.14659" lon="4.94292">
        <ele>255.2</ele>
        <time>2024-06-29T09:14:01Z</time>
      </trkpt>
      <trkpt lat="47.14658" lon="4.94291">
        <ele>255.3</ele>
        <time>2024-06-29T09:14:02Z</time>
      </trkpt>
      <trkpt lat="47.14657" lon="4.94291">
        <ele>255.4</ele>
        <time>2024-06-29T09:14:03Z</time>
      </trkpt>
      <trkpt lat="47.14656" lon="4.9429">
        <ele>255.2</ele>
        <time>2024-06-29T09:14:04Z</time>
      </trkpt>
      <trkpt lat="47.14655" lon="4.9429">
        <ele>255</ele>
        <time>2024-06-29T09:14:05Z</time>
      </trkpt>
      <trkpt lat="47.14654" lon="4.94289">
        <ele>255</ele>
        <time>2024-06-29T09:14:06Z</time>
      </trkpt>
      <trkpt lat="47.14653" lon="4.94288">
        <ele>255</ele>
        <time>2024-06-29T09:14:07Z</time>
      </trkpt>
      <trkpt lat="47.14652" lon="4.94288">
        <ele>255</ele>
        <time>2024-06-29T09:14:08Z</time>
      </trkpt>
      <trkpt lat="47.14651" lon="4.94287">
        <ele>255</ele>
        <time>2024-06-29T09:14:09Z</time>
      </trkpt>
      <trkpt lat="47.1465" lon="4.94287">
        <ele>254.9</ele>
        <time>2024-06-29T09:14:10Z</time>
      </trkpt>
      <trkpt lat="47.14648" lon="4.94286">
        <ele>254.9</ele>
        <time>2024-06-29T09:14:11Z</time>
      </trkpt>
      <trkpt lat="47.14647" lon="4.94285">
        <ele>254.6</ele>
        <time>2024-06-29T09:14:12Z</time>
      </trkpt>
      <trkpt lat="47.14647" lon="4.94285">
        <ele>254.6</ele>
        <time>2024-06-29T09:14:13Z</time>
      </trkpt>
      <trkpt lat="47.14646" lon="4.94284">
        <ele>254.6</ele>
        <time>2024-06-29T09:14:14Z</time>
      </trkpt>
      <trkpt lat="47.14645" lon="4.94284">
        <ele>254.3</ele>
        <time>2024-06-29T09:14:15Z</time>
      </trkpt>
      <trkpt lat="47.14644" lon="4.94283">
        <ele>254.3</ele>
        <time>2024-06-29T09:14:16Z</time>
      </trkpt>
      <trkpt lat="47.14643" lon="4.94282">
        <ele>254.2</ele>
        <time>2024-06-29T09:14:17Z</time>
      </trkpt>
      <trkpt lat="47.14642" lon="4.94282">
        <ele>254.2</ele>
        <time>2024-06-29T09:14:18Z</time>
      </trkpt>
      <trkpt lat="47.14641" lon="4.94281">
        <ele>254.1</ele>
        <time>2024-06-29T09:14:19Z</time>
      </trkpt>
      <trkpt lat="47.1464" lon="4.9428">
        <ele>254</ele>
        <time>2024-06-29T09:14:20Z</time>
      </trkpt>
      <trkpt lat="47.14639" lon="4.94279">
        <ele>253.9</ele>
        <time>2024-06-29T09:14:22Z</time>
      </trkpt>
      <trkpt lat="47.14638" lon="4.94278">
        <ele>253.7</ele>
        <time>2024-06-29T09:14:24Z</time>
      </trkpt>
      <trkpt lat="47.14637" lon="4.94277">
        <ele>253.7</ele>
        <time>2024-06-29T09:14:26Z</time>
      </trkpt>
      <trkpt lat="47.14637" lon="4.94275">
        <ele>254.3</ele>
        <time>2024-06-29T09:14:30Z</time>
      </trkpt>
      <trkpt lat="47.14636" lon="4.94274">
        <ele>254.6</ele>
        <time>2024-06-29T09:14:33Z</time>
      </trkpt>
      <trkpt lat="47.14635" lon="4.94272">
        <ele>254.5</ele>
        <time>2024-06-29T09:14:35Z</time>
      </trkpt>
      <trkpt lat="47.14634" lon="4.94271">
        <ele>254.5</ele>
        <time>2024-06-29T09:14:36Z</time>
      </trkpt>
      <trkpt lat="47.14633" lon="4.94271">
        <ele>254.4</ele>
        <time>2024-06-29T09:14:37Z</time>
      </trkpt>
      <trkpt lat="47.14632" lon="4.94271">
        <ele>254.2</ele>
        <time>2024-06-29T09:14:38Z</time>
      </trkpt>
      <trkpt lat="47.14631" lon="4.94269">
        <ele>254.2</ele>
        <time>2024-06-29T09:14:40Z</time>
      </trkpt>
      <trkpt lat="47.1463" lon="4.94268">
        <ele>254.2</ele>
        <time>2024-06-29T09:14:41Z</time>
      </trkpt>
      <trkpt lat="47.14629" lon="4.94267">
        <ele>254.1</ele>
        <time>2024-06-29T09:14:42Z</time>
      </trkpt>
      <trkpt lat="47.14628" lon="4.94266">
        <ele>253.9</ele>
        <time>2024-06-29T09:14:43Z</time>
      </trkpt>
      <trkpt lat="47.14627" lon="4.94265">
        <ele>253.8</ele>
        <time>2024-06-29T09:14:44Z</time>
      </trkpt>
      <trkpt lat="47.14626" lon="4.94264">
        <ele>254</ele>
        <time>2024-06-29T09:14:45Z</time>
      </trkpt>
      <trkpt lat="47.14626" lon="4.94263">
        <ele>254</ele>
        <time>2024-06-29T09:14:46Z</time>
      </trkpt>
      <trkpt lat="47.14625" lon="4.94262">
        <ele>253.6</ele>
        <time>2024-06-29T09:14:47Z</time>
      </trkpt>
      <trkpt lat="47.14624" lon="4.94261">
        <ele>253.3</ele>
        <time>2024-06-29T09:14:48Z</time>
      </trkpt>
      <trkpt lat="47.14623" lon="4.9426">
        <ele>253.3</ele>
        <time>2024-06-29T09:14:49Z</time>
      </trkpt>
      <trkpt lat="47.14622" lon="4.94259">
        <ele>253.5</ele>
        <time>2024-06-29T09:14:50Z</time>
      </trkpt>
      <trkpt lat="47.14622" lon="4.94258">
        <ele>253.3</ele>
        <time>2024-06-29T09:14:51Z</time>
      </trkpt>
      <trkpt lat="47.14621" lon="4.94258">
        <ele>253.4</ele>
        <time>2024-06-29T09:14:52Z</time>
      </trkpt>
      <trkpt lat="47.1462" lon="4.94257">
        <ele>253.7</ele>
        <time>2024-06-29T09:14:53Z</time>
      </trkpt>
      <trkpt lat="47.14619" lon="4.94256">
        <ele>253.9</ele>
        <time>2024-06-29T09:14:54Z</time>
      </trkpt>
      <trkpt lat="47.14618" lon="4.94255">
        <ele>253.6</ele>
        <time>2024-06-29T09:14:55Z</time>
      </trkpt>
      <trkpt lat="47.14618" lon="4.94253">
        <ele>253.3</ele>
        <time>2024-06-29T09:14:56Z</time>
      </trkpt>
      <trkpt lat="47.14617" lon="4.94252">
        <ele>253.1</ele>
        <time>2024-06-29T09:14:57Z</time>
      </trkpt>
      <trkpt lat="47.14616" lon="4.94252">
        <ele>253</ele>
        <time>2024-06-29T09:14:58Z</time>
      </trkpt>
      <trkpt lat="47.14615" lon="4.94251">
        <ele>253</ele>
        <time>2024-06-29T09:14:59Z</time>
      </trkpt>
      <trkpt lat="47.14614" lon="4.9425">
        <ele>253</ele>
        <time>2024-06-29T09:15:00Z</time>
      </trkpt>
      <trkpt lat="47.14613" lon="4.94249">
        <ele>252.9</ele>
        <time>2024-06-29T09:15:01Z</time>
      </trkpt>
      <trkpt lat="47.14612" lon="4.94248">
        <ele>252.6</ele>
        <time>2024-06-29T09:15:02Z</time>
      </trkpt>
      <trkpt lat="47.14612" lon="4.94246">
        <ele>252.6</ele>
        <time>2024-06-29T09:15:03Z</time>
      </trkpt>
      <trkpt lat="47.14611" lon="4.94245">
        <ele>252.5</ele>
        <time>2024-06-29T09:15:04Z</time>
      </trkpt>
      <trkpt lat="47.1461" lon="4.94244">
        <ele>251.8</ele>
        <time>2024-06-29T09:15:05Z</time>
      </trkpt>
      <trkpt lat="47.14609" lon="4.94243">
        <ele>251.5</ele>
        <time>2024-06-29T09:15:06Z</time>
      </trkpt>
      <trkpt lat="47.14608" lon="4.94243">
        <ele>251.6</ele>
        <time>2024-06-29T09:15:07Z</time>
      </trkpt>
      <trkpt lat="47.14607" lon="4.94242">
        <ele>251.6</ele>
        <time>2024-06-29T09:15:08Z</time>
      </trkpt>
      <trkpt lat="47.14606" lon="4.9424">
        <ele>251.6</ele>
        <time>2024-06-29T09:15:09Z</time>
      </trkpt>
      <trkpt lat="47.14605" lon="4.94239">
        <ele>251.5</ele>
        <time>2024-06-29T09:15:10Z</time>
      </trkpt>
      <trkpt lat="47.14604" lon="4.94238">
        <ele>251</ele>
        <time>2024-06-29T09:15:11Z</time>
      </trkpt>
      <trkpt lat="47.14603" lon="4.94237">
        <ele>251</ele>
        <time>2024-06-29T09:15:12Z</time>
      </trkpt>
      <trkpt lat="47.14603" lon="4.94236">
        <ele>251</ele>
        <time>2024-06-29T09:15:13Z</time>
      </trkpt>
      <trkpt lat="47.14602" lon="4.94235">
        <ele>251</ele>
        <time>2024-06-29T09:15:14Z</time>
      </trkpt>
      <trkpt lat="47.14601" lon="4.94234">
        <ele>251</ele>
        <time>2024-06-29T09:15:15Z</time>
      </trkpt>
      <trkpt lat="47.146" lon="4.94233">
        <ele>251.4</ele>
        <time>2024-06-29T09:15:16Z</time>
      </trkpt>
      <trkpt lat="47.14599" lon="4.94232">
        <ele>251.4</ele>
        <time>2024-06-29T09:15:17Z</time>
      </trkpt>
      <trkpt lat="47.14599" lon="4.94231">
        <ele>251.4</ele>
        <time>2024-06-29T09:15:18Z</time>
      </trkpt>
      <trkpt lat="47.14598" lon="4.9423">
        <ele>251.4</ele>
        <time>2024-06-29T09:15:19Z</time>
      </trkpt>
      <trkpt lat="47.14597" lon="4.94229">
        <ele>251.4</ele>
        <time>2024-06-29T09:15:20Z</time>
      </trkpt>
      <trkpt lat="47.14596" lon="4.94228">
        <ele>251.3</ele>
        <time>2024-06-29T09:15:21Z</time>
      </trkpt>
      <trkpt lat="47.14596" lon="4.94227">
        <ele>251.3</ele>
        <time>2024-06-29T09:15:22Z</time>
      </trkpt>
      <trkpt lat="47.14595" lon="4.94226">
        <ele>251.4</ele>
        <time>2024-06-29T09:15:23Z</time>
      </trkpt>
      <trkpt lat="47.14593" lon="4.94225">
        <ele>251.7</ele>
        <time>2024-06-29T09:15:25Z</time>
      </trkpt>
      <trkpt lat="47.14593" lon="4.94223">
        <ele>251.7</ele>
        <time>2024-06-29T09:15:26Z</time>
      </trkpt>
      <trkpt lat="47.14592" lon="4.94222">
        <ele>251.6</ele>
        <time>2024-06-29T09:15:27Z</time>
      </trkpt>
      <trkpt lat="47.14591" lon="4.94221">
        <ele>251.8</ele>
        <time>2024-06-29T09:15:28Z</time>
      </trkpt>
      <trkpt lat="47.1459" lon="4.94221">
        <ele>251.8</ele>
        <time>2024-06-29T09:15:29Z</time>
      </trkpt>
      <trkpt lat="47.14589" lon="4.9422">
        <ele>251.8</ele>
        <time>2024-06-29T09:15:30Z</time>
      </trkpt>
      <trkpt lat="47.14589" lon="4.94219">
        <ele>251.8</ele>
        <time>2024-06-29T09:15:31Z</time>
      </trkpt>
      <trkpt lat="47.14588" lon="4.94218">
        <ele>251.9</ele>
        <time>2024-06-29T09:15:32Z</time>
      </trkpt>
      <trkpt lat="47.14587" lon="4.94217">
        <ele>251.9</ele>
        <time>2024-06-29T09:15:33Z</time>
      </trkpt>
      <trkpt lat="47.14586" lon="4.94216">
        <ele>252</ele>
        <time>2024-06-29T09:15:34Z</time>
      </trkpt>
      <trkpt lat="47.14585" lon="4.94215">
        <ele>252</ele>
        <time>2024-06-29T09:15:35Z</time>
      </trkpt>
      <trkpt lat="47.14585" lon="4.94214">
        <ele>251.7</ele>
        <time>2024-06-29T09:15:36Z</time>
      </trkpt>
      <trkpt lat="47.14584" lon="4.94213">
        <ele>251.8</ele>
        <time>2024-06-29T09:15:37Z</time>
      </trkpt>
      <trkpt lat="47.14583" lon="4.94212">
        <ele>251.8</ele>
        <time>2024-06-29T09:15:38Z</time>
      </trkpt>
      <trkpt lat="47.14582" lon="4.94211">
        <ele>251.7</ele>
        <time>2024-06-29T09:15:39Z</time>
      </trkpt>
      <trkpt lat="47.14581" lon="4.94209">
        <ele>251.6</ele>
        <time>2024-06-29T09:15:41Z</time>
      </trkpt>
      <trkpt lat="47.14581" lon="4.94207">
        <ele>251.9</ele>
        <time>2024-06-29T09:15:43Z</time>
      </trkpt>
      <trkpt lat="47.1458" lon="4.94206">
        <ele>252.1</ele>
        <time>2024-06-29T09:15:44Z</time>
      </trkpt>
      <trkpt lat="47.1458" lon="4.94204">
        <ele>251.9</ele>
        <time>2024-06-29T09:15:45Z</time>
      </trkpt>
      <trkpt lat="47.1458" lon="4.94203">
        <ele>251.5</ele>
        <time>2024-06-29T09:15:46Z</time>
      </trkpt>
      <trkpt lat="47.14581" lon="4.94201">
        <ele>251.3</ele>
        <time>2024-06-29T09:15:47Z</time>
      </trkpt>
      <trkpt lat="47.14581" lon="4.942">
        <ele>251.1</ele>
        <time>2024-06-29T09:15:48Z</time>
      </trkpt>
      <trkpt lat="47.14582" lon="4.94198">
        <ele>251.4</ele>
        <time>2024-06-29T09:15:49Z</time>
      </trkpt>
      <trkpt lat="47.14583" lon="4.94197">
        <ele>251.8</ele>
        <time>2024-06-29T09:15:50Z</time>
      </trkpt>
      <trkpt lat="47.14583" lon="4.94195">
        <ele>252</ele>
        <time>2024-06-29T09:15:51Z</time>
      </trkpt>
      <trkpt lat="47.14584" lon="4.94194">
        <ele>252.1</ele>
        <time>2024-06-29T09:15:52Z</time>
      </trkpt>
      <trkpt lat="47.14584" lon="4.94192">
        <ele>252.2</ele>
        <time>2024-06-29T09:15:53Z</time>
      </trkpt>
      <trkpt lat="47.14585" lon="4.94191">
        <ele>252</ele>
        <time>2024-06-29T09:15:54Z</time>
      </trkpt>
      <trkpt lat="47.14586" lon="4.94189">
        <ele>252.1</ele>
        <time>2024-06-29T09:15:55Z</time>
      </trkpt>
      <trkpt lat="47.14586" lon="4.94188">
        <ele>252.1</ele>
        <time>2024-06-29T09:15:56Z</time>
      </trkpt>
      <trkpt lat="47.14587" lon="4.94186">
        <ele>252.1</ele>
        <time>2024-06-29T09:15:57Z</time>
      </trkpt>
      <trkpt lat="47.14588" lon="4.94185">
        <ele>251.8</ele>
        <time>2024-06-29T09:15:58Z</time>
      </trkpt>
      <trkpt lat="47.14588" lon="4.94183">
        <ele>252</ele>
        <time>2024-06-29T09:15:59Z</time>
      </trkpt>
      <trkpt lat="47.14589" lon="4.94182">
        <ele>251.9</ele>
        <time>2024-06-29T09:16:00Z</time>
      </trkpt>
      <trkpt lat="47.14589" lon="4.9418">
        <ele>251.8</ele>
        <time>2024-06-29T09:16:01Z</time>
      </trkpt>
      <trkpt lat="47.1459" lon="4.94179">
        <ele>251.8</ele>
        <time>2024-06-29T09:16:02Z</time>
      </trkpt>
      <trkpt lat="47.1459" lon="4.94178">
        <ele>251.9</ele>
        <time>2024-06-29T09:16:03Z</time>
      </trkpt>
      <trkpt lat="47.14591" lon="4.94177">
        <ele>252</ele>
        <time>2024-06-29T09:16:04Z</time>
      </trkpt>
      <trkpt lat="47.14592" lon="4.94175">
        <ele>251.9</ele>
        <time>2024-06-29T09:16:05Z</time>
      </trkpt>
      <trkpt lat="47.14592" lon="4.94174">
        <ele>252</ele>
        <time>2024-06-29T09:16:06Z</time>
      </trkpt>
      <trkpt lat="47.14592" lon="4.94173">
        <ele>252</ele>
        <time>2024-06-29T09:16:07Z</time>
      </trkpt>
      <trkpt lat="47.14593" lon="4.94171">
        <ele>252.1</ele>
        <time>2024-06-29T09:16:08Z</time>
      </trkpt>
      <trkpt lat="47.14593" lon="4.9417">
        <ele>252</ele>
        <time>2024-06-29T09:16:09Z</time>
      </trkpt>
      <trkpt lat="47.14594" lon="4.94169">
        <ele>252.4</ele>
        <time>2024-06-29T09:16:10Z</time>
      </trkpt>
      <trkpt lat="47.14594" lon="4.94167">
        <ele>252.2</ele>
        <time>2024-06-29T09:16:11Z</time>
      </trkpt>
      <trkpt lat="47.14595" lon="4.94166">
        <ele>252.7</ele>
        <time>2024-06-29T09:16:12Z</time>
      </trkpt>
      <trkpt lat="47.14595" lon="4.94165">
        <ele>252.8</ele>
        <time>2024-06-29T09:16:13Z</time>
      </trkpt>
      <trkpt lat="47.14596" lon="4.94163">
        <ele>252.7</ele>
        <time>2024-06-29T09:16:14Z</time>
      </trkpt>
      <trkpt lat="47.14596" lon="4.94162">
        <ele>253.7</ele>
        <time>2024-06-29T09:16:15Z</time>
      </trkpt>
      <trkpt lat="47.14597" lon="4.9416">
        <ele>253.8</ele>
        <time>2024-06-29T09:16:16Z</time>
      </trkpt>
      <trkpt lat="47.14598" lon="4.94159">
        <ele>253.8</ele>
        <time>2024-06-29T09:16:17Z</time>
      </trkpt>
      <trkpt lat="47.14598" lon="4.94157">
        <ele>253.7</ele>
        <time>2024-06-29T09:16:18Z</time>
      </trkpt>
      <trkpt lat="47.14599" lon="4.94156">
        <ele>253.9</ele>
        <time>2024-06-29T09:16:19Z</time>
      </trkpt>
      <trkpt lat="47.146" lon="4.94155">
        <ele>253.7</ele>
        <time>2024-06-29T09:16:20Z</time>
      </trkpt>
      <trkpt lat="47.146" lon="4.94154">
        <ele>253.6</ele>
        <time>2024-06-29T09:16:21Z</time>
      </trkpt>
      <trkpt lat="47.14601" lon="4.94152">
        <ele>253.3</ele>
        <time>2024-06-29T09:16:22Z</time>
      </trkpt>
      <trkpt lat="47.14602" lon="4.94151">
        <ele>253.2</ele>
        <time>2024-06-29T09:16:23Z</time>
      </trkpt>
      <trkpt lat="47.14603" lon="4.9415">
        <ele>254.7</ele>
        <time>2024-06-29T09:16:24Z</time>
      </trkpt>
      <trkpt lat="47.14603" lon="4.94149">
        <ele>254.4</ele>
        <time>2024-06-29T09:16:25Z</time>
      </trkpt>
      <trkpt lat="47.14604" lon="4.94147">
        <ele>254.6</ele>
        <time>2024-06-29T09:16:26Z</time>
      </trkpt>
      <trkpt lat="47.14604" lon="4.94146">
        <ele>254.2</ele>
        <time>2024-06-29T09:16:27Z</time>
      </trkpt>
      <trkpt lat="47.14605" lon="4.94145">
        <ele>254.3</ele>
        <time>2024-06-29T09:16:28Z</time>
      </trkpt>
      <trkpt lat="47.14606" lon="4.94144">
        <ele>254.1</ele>
        <time>2024-06-29T09:16:29Z</time>
      </trkpt>
      <trkpt lat="47.14606" lon="4.94142">
        <ele>253.8</ele>
        <time>2024-06-29T09:16:30Z</time>
      </trkpt>
      <trkpt lat="47.14607" lon="4.94141">
        <ele>253.5</ele>
        <time>2024-06-29T09:16:31Z</time>
      </trkpt>
      <trkpt lat="47.14608" lon="4.94139">
        <ele>253.1</ele>
        <time>2024-06-29T09:16:33Z</time>
      </trkpt>
      <trkpt lat="47.14608" lon="4.94138">
        <ele>253.1</ele>
        <time>2024-06-29T09:16:34Z</time>
      </trkpt>
      <trkpt lat="47.14609" lon="4.94136">
        <ele>252.7</ele>
        <time>2024-06-29T09:16:35Z</time>
      </trkpt>
      <trkpt lat="47.14609" lon="4.94135">
        <ele>252.4</ele>
        <time>2024-06-29T09:16:36Z</time>
      </trkpt>
      <trkpt lat="47.14609" lon="4.94133">
        <ele>252.7</ele>
        <time>2024-06-29T09:16:37Z</time>
      </trkpt>
      <trkpt lat="47.1461" lon="4.94131">
        <ele>252.8</ele>
        <time>2024-06-29T09:16:38Z</time>
      </trkpt>
      <trkpt lat="47.1461" lon="4.9413">
        <ele>253</ele>
        <time>2024-06-29T09:16:39Z</time>
      </trkpt>
      <trkpt lat="47.14611" lon="4.94129">
        <ele>253.2</ele>
        <time>2024-06-29T09:16:40Z</time>
      </trkpt>
      <trkpt lat="47.14611" lon="4.94127">
        <ele>253</ele>
        <time>2024-06-29T09:16:41Z</time>
      </trkpt>
      <trkpt lat="47.14612" lon="4.94126">
        <ele>253</ele>
        <time>2024-06-29T09:16:42Z</time>
      </trkpt>
      <trkpt lat="47.14612" lon="4.94124">
        <ele>253.1</ele>
        <time>2024-06-29T09:16:43Z</time>
      </trkpt>
      <trkpt lat="47.14613" lon="4.94123">
        <ele>253.2</ele>
        <time>2024-06-29T09:16:44Z</time>
      </trkpt>
      <trkpt lat="47.14613" lon="4.94121">
        <ele>253.1</ele>
        <time>2024-06-29T09:16:45Z</time>
      </trkpt>
      <trkpt lat="47.14614" lon="4.9412">
        <ele>253.1</ele>
        <time>2024-06-29T09:16:46Z</time>
      </trkpt>
      <trkpt lat="47.14614" lon="4.94118">
        <ele>253.2</ele>
        <time>2024-06-29T09:16:47Z</time>
      </trkpt>
      <trkpt lat="47.14615" lon="4.94117">
        <ele>253.1</ele>
        <time>2024-06-29T09:16:48Z</time>
      </trkpt>
      <trkpt lat="47.14615" lon="4.94115">
        <ele>253.2</ele>
        <time>2024-06-29T09:16:49Z</time>
      </trkpt>
      <trkpt lat="47.14616" lon="4.94114">
        <ele>253.3</ele>
        <time>2024-06-29T09:16:50Z</time>
      </trkpt>
      <trkpt lat="47.14616" lon="4.94112">
        <ele>253</ele>
        <time>2024-06-29T09:16:51Z</time>
      </trkpt>
      <trkpt lat="47.14617" lon="4.94111">
        <ele>252.9</ele>
        <time>2024-06-29T09:16:52Z</time>
      </trkpt>
      <trkpt lat="47.14617" lon="4.94109">
        <ele>252.8</ele>
        <time>2024-06-29T09:16:53Z</time>
      </trkpt>
      <trkpt lat="47.14618" lon="4.94108">
        <ele>252.8</ele>
        <time>2024-06-29T09:16:54Z</time>
      </trkpt>
      <trkpt lat="47.14618" lon="4.94106">
        <ele>252.7</ele>
        <time>2024-06-29T09:16:55Z</time>
      </trkpt>
      <trkpt lat="47.14619" lon="4.94105">
        <ele>252.4</ele>
        <time>2024-06-29T09:16:56Z</time>
      </trkpt>
      <trkpt lat="47.14619" lon="4.94103">
        <ele>252.5</ele>
        <time>2024-06-29T09:16:57Z</time>
      </trkpt>
      <trkpt lat="47.1462" lon="4.94102">
        <ele>252.6</ele>
        <time>2024-06-29T09:16:58Z</time>
      </trkpt>
      <trkpt lat="47.14621" lon="4.941">
        <ele>252.7</ele>
        <time>2024-06-29T09:16:59Z</time>
      </trkpt>
      <trkpt lat="47.14621" lon="4.94099">
        <ele>253</ele>
        <time>2024-06-29T09:17:00Z</time>
      </trkpt>
      <trkpt lat="47.14622" lon="4.94098">
        <ele>252.8</ele>
        <time>2024-06-29T09:17:01Z</time>
      </trkpt>
      <trkpt lat="47.14623" lon="4.94096">
        <ele>253</ele>
        <time>2024-06-29T09:17:02Z</time>
      </trkpt>
      <trkpt lat="47.14623" lon="4.94095">
        <ele>252.9</ele>
        <time>2024-06-29T09:17:03Z</time>
      </trkpt>
      <trkpt lat="47.14624" lon="4.94094">
        <ele>252.6</ele>
        <time>2024-06-29T09:17:04Z</time>
      </trkpt>
      <trkpt lat="47.14624" lon="4.94092">
        <ele>252.6</ele>
        <time>2024-06-29T09:17:05Z</time>
      </trkpt>
      <trkpt lat="47.14624" lon="4.94091">
        <ele>252.3</ele>
        <time>2024-06-29T09:17:06Z</time>
      </trkpt>
      <trkpt lat="47.14625" lon="4.9409">
        <ele>252.1</ele>
        <time>2024-06-29T09:17:07Z</time>
      </trkpt>
      <trkpt lat="47.14626" lon="4.94088">
        <ele>251.9</ele>
        <time>2024-06-29T09:17:08Z</time>
      </trkpt>
      <trkpt lat="47.14626" lon="4.94087">
        <ele>251.9</ele>
        <time>2024-06-29T09:17:09Z</time>
      </trkpt>
      <trkpt lat="47.14627" lon="4.94085">
        <ele>251.8</ele>
        <time>2024-06-29T09:17:10Z</time>
      </trkpt>
      <trkpt lat="47.14627" lon="4.94084">
        <ele>252.1</ele>
        <time>2024-06-29T09:17:11Z</time>
      </trkpt>
      <trkpt lat="47.14628" lon="4.94082">
        <ele>252.3</ele>
        <time>2024-06-29T09:17:12Z</time>
      </trkpt>
      <trkpt lat="47.14628" lon="4.94081">
        <ele>252.3</ele>
        <time>2024-06-29T09:17:13Z</time>
      </trkpt>
      <trkpt lat="47.14629" lon="4.94079">
        <ele>252.2</ele>
        <time>2024-06-29T09:17:14Z</time>
      </trkpt>
      <trkpt lat="47.14629" lon="4.94078">
        <ele>252.5</ele>
        <time>2024-06-29T09:17:15Z</time>
      </trkpt>
      <trkpt lat="47.1463" lon="4.94076">
        <ele>252.5</ele>
        <time>2024-06-29T09:17:16Z</time>
      </trkpt>
      <trkpt lat="47.14631" lon="4.94075">
        <ele>252.4</ele>
        <time>2024-06-29T09:17:17Z</time>
      </trkpt>
      <trkpt lat="47.14631" lon="4.94073">
        <ele>252.4</ele>
        <time>2024-06-29T09:17:18Z</time>
      </trkpt>
      <trkpt lat="47.14632" lon="4.94072">
        <ele>252.7</ele>
        <time>2024-06-29T09:17:19Z</time>
      </trkpt>
      <trkpt lat="47.14632" lon="4.94071">
        <ele>252.7</ele>
        <time>2024-06-29T09:17:20Z</time>
      </trkpt>
      <trkpt lat="47.14633" lon="4.9407">
        <ele>252.7</ele>
        <time>2024-06-29T09:17:21Z</time>
      </trkpt>
      <trkpt lat="47.14634" lon="4.94068">
        <ele>252.8</ele>
        <time>2024-06-29T09:17:22Z</time>
      </trkpt>
      <trkpt lat="47.14634" lon="4.94067">
        <ele>252.9</ele>
        <time>2024-06-29T09:17:23Z</time>
      </trkpt>
      <trkpt lat="47.14635" lon="4.94066">
        <ele>252.8</ele>
        <time>2024-06-29T09:17:24Z</time>
      </trkpt>
      <trkpt lat="47.14635" lon="4.94064">
        <ele>253.2</ele>
        <time>2024-06-29T09:17:25Z</time>
      </trkpt>
      <trkpt lat="47.14636" lon="4.94063">
        <ele>253.3</ele>
        <time>2024-06-29T09:17:26Z</time>
      </trkpt>
      <trkpt lat="47.14636" lon="4.94061">
        <ele>253.2</ele>
        <time>2024-06-29T09:17:27Z</time>
      </trkpt>
      <trkpt lat="47.14637" lon="4.9406">
        <ele>253.5</ele>
        <time>2024-06-29T09:17:28Z</time>
      </trkpt>
      <trkpt lat="47.14638" lon="4.94058">
        <ele>253.8</ele>
        <time>2024-06-29T09:17:29Z</time>
      </trkpt>
      <trkpt lat="47.14638" lon="4.94057">
        <ele>253.8</ele>
        <time>2024-06-29T09:17:30Z</time>
      </trkpt>
      <trkpt lat="47.14639" lon="4.94055">
        <ele>253.8</ele>
        <time>2024-06-29T09:17:31Z</time>
      </trkpt>
      <trkpt lat="47.14639" lon="4.94054">
        <ele>253.4</ele>
        <time>2024-06-29T09:17:32Z</time>
      </trkpt>
      <trkpt lat="47.1464" lon="4.94053">
        <ele>253.4</ele>
        <time>2024-06-29T09:17:33Z</time>
      </trkpt>
      <trkpt lat="47.1464" lon="4.94051">
        <ele>253.6</ele>
        <time>2024-06-29T09:17:34Z</time>
      </trkpt>
      <trkpt lat="47.14641" lon="4.9405">
        <ele>253.5</ele>
        <time>2024-06-29T09:17:35Z</time>
      </trkpt>
      <trkpt lat="47.14641" lon="4.94049">
        <ele>253.5</ele>
        <time>2024-06-29T09:17:36Z</time>
      </trkpt>
      <trkpt lat="47.14642" lon="4.94047">
        <ele>253.7</ele>
        <time>2024-06-29T09:17:37Z</time>
      </trkpt>
      <trkpt lat="47.14642" lon="4.94046">
        <ele>253.8</ele>
        <time>2024-06-29T09:17:38Z</time>
      </trkpt>
      <trkpt lat="47.14642" lon="4.94044">
        <ele>253.7</ele>
        <time>2024-06-29T09:17:39Z</time>
      </trkpt>
      <trkpt lat="47.14643" lon="4.94043">
        <ele>253.8</ele>
        <time>2024-06-29T09:17:40Z</time>
      </trkpt>
      <trkpt lat="47.14643" lon="4.94041">
        <ele>253.8</ele>
        <time>2024-06-29T09:17:41Z</time>
      </trkpt>
      <trkpt lat="47.14644" lon="4.9404">
        <ele>253.8</ele>
        <time>2024-06-29T09:17:42Z</time>
      </trkpt>
      <trkpt lat="47.14644" lon="4.94039">
        <ele>254.7</ele>
        <time>2024-06-29T09:17:43Z</time>
      </trkpt>
      <trkpt lat="47.14644" lon="4.94037">
        <ele>254.7</ele>
        <time>2024-06-29T09:17:44Z</time>
      </trkpt>
      <trkpt lat="47.14645" lon="4.94036">
        <ele>254.5</ele>
        <time>2024-06-29T09:17:45Z</time>
      </trkpt>
      <trkpt lat="47.14645" lon="4.94035">
        <ele>254.4</ele>
        <time>2024-06-29T09:17:46Z</time>
      </trkpt>
      <trkpt lat="47.14645" lon="4.94033">
        <ele>254.3</ele>
        <time>2024-06-29T09:17:47Z</time>
      </trkpt>
      <trkpt lat="47.14646" lon="4.94032">
        <ele>254.4</ele>
        <time>2024-06-29T09:17:48Z</time>
      </trkpt>
      <trkpt lat="47.14646" lon="4.9403">
        <ele>254.3</ele>
        <time>2024-06-29T09:17:49Z</time>
      </trkpt>
      <trkpt lat="47.14647" lon="4.94029">
        <ele>254.4</ele>
        <time>2024-06-29T09:17:50Z</time>
      </trkpt>
      <trkpt lat="47.14647" lon="4.94027">
        <ele>254.2</ele>
        <time>2024-06-29T09:17:51Z</time>
      </trkpt>
      <trkpt lat="47.14648" lon="4.94025">
        <ele>254.3</ele>
        <time>2024-06-29T09:17:52Z</time>
      </trkpt>
      <trkpt lat="47.14648" lon="4.94024">
        <ele>253.8</ele>
        <time>2024-06-29T09:17:53Z</time>
      </trkpt>
      <trkpt lat="47.14648" lon="4.94022">
        <ele>253.7</ele>
        <time>2024-06-29T09:17:54Z</time>
      </trkpt>
      <trkpt lat="47.14649" lon="4.94021">
        <ele>254.1</ele>
        <time>2024-06-29T09:17:55Z</time>
      </trkpt>
      <trkpt lat="47.1465" lon="4.94019">
        <ele>254.4</ele>
        <time>2024-06-29T09:17:56Z</time>
      </trkpt>
      <trkpt lat="47.1465" lon="4.94018">
        <ele>254.6</ele>
        <time>2024-06-29T09:17:57Z</time>
      </trkpt>
      <trkpt lat="47.14651" lon="4.94016">
        <ele>254.3</ele>
        <time>2024-06-29T09:17:58Z</time>
      </trkpt>
      <trkpt lat="47.14651" lon="4.94014">
        <ele>254</ele>
        <time>2024-06-29T09:17:59Z</time>
      </trkpt>
      <trkpt lat="47.14651" lon="4.94013">
        <ele>254.1</ele>
        <time>2024-06-29T09:18:00Z</time>
      </trkpt>
      <trkpt lat="47.14652" lon="4.94011">
        <ele>254.1</ele>
        <time>2024-06-29T09:18:01Z</time>
      </trkpt>
      <trkpt lat="47.14652" lon="4.94009">
        <ele>254</ele>
        <time>2024-06-29T09:18:02Z</time>
      </trkpt>
      <trkpt lat="47.14653" lon="4.94008">
        <ele>254</ele>
        <time>2024-06-29T09:18:03Z</time>
      </trkpt>
      <trkpt lat="47.14653" lon="4.94006">
        <ele>254</ele>
        <time>2024-06-29T09:18:04Z</time>
      </trkpt>
      <trkpt lat="47.14654" lon="4.94005">
        <ele>253.9</ele>
        <time>2024-06-29T09:18:05Z</time>
      </trkpt>
      <trkpt lat="47.14654" lon="4.94003">
        <ele>253.8</ele>
        <time>2024-06-29T09:18:06Z</time>
      </trkpt>
      <trkpt lat="47.14654" lon="4.94002">
        <ele>253.7</ele>
        <time>2024-06-29T09:18:07Z</time>
      </trkpt>
      <trkpt lat="47.14655" lon="4.94">
        <ele>253.7</ele>
        <time>2024-06-29T09:18:08Z</time>
      </trkpt>
      <trkpt lat="47.14655" lon="4.93999">
        <ele>253.6</ele>
        <time>2024-06-29T09:18:09Z</time>
      </trkpt>
      <trkpt lat="47.14655" lon="4.93997">
        <ele>253.7</ele>
        <time>2024-06-29T09:18:10Z</time>
      </trkpt>
      <trkpt lat="47.14656" lon="4.93996">
        <ele>253.7</ele>
        <time>2024-06-29T09:18:11Z</time>
      </trkpt>
      <trkpt lat="47.14656" lon="4.93994">
        <ele>253.8</ele>
        <time>2024-06-29T09:18:12Z</time>
      </trkpt>
      <trkpt lat="47.14656" lon="4.93993">
        <ele>253.7</ele>
        <time>2024-06-29T09:18:13Z</time>
      </trkpt>
      <trkpt lat="47.14656" lon="4.93992">
        <ele>253.6</ele>
        <time>2024-06-29T09:18:14Z</time>
      </trkpt>
      <trkpt lat="47.14657" lon="4.9399">
        <ele>252.9</ele>
        <time>2024-06-29T09:18:15Z</time>
      </trkpt>
      <trkpt lat="47.14657" lon="4.93989">
        <ele>252.8</ele>
        <time>2024-06-29T09:18:16Z</time>
      </trkpt>
      <trkpt lat="47.14657" lon="4.93987">
        <ele>252.6</ele>
        <time>2024-06-29T09:18:17Z</time>
      </trkpt>
      <trkpt lat="47.14657" lon="4.93986">
        <ele>252.6</ele>
        <time>2024-06-29T09:18:18Z</time>
      </trkpt>
      <trkpt lat="47.14658" lon="4.93984">
        <ele>252.8</ele>
        <time>2024-06-29T09:18:19Z</time>
      </trkpt>
      <trkpt lat="47.14658" lon="4.93982">
        <ele>252.5</ele>
        <time>2024-06-29T09:18:20Z</time>
      </trkpt>
      <trkpt lat="47.14659" lon="4.93981">
        <ele>252.5</ele>
        <time>2024-06-29T09:18:21Z</time>
      </trkpt>
      <trkpt lat="47.14659" lon="4.93979">
        <ele>252.4</ele>
        <time>2024-06-29T09:18:22Z</time>
      </trkpt>
      <trkpt lat="47.14659" lon="4.93978">
        <ele>252.5</ele>
        <time>2024-06-29T09:18:23Z</time>
      </trkpt>
      <trkpt lat="47.14659" lon="4.93976">
        <ele>253.2</ele>
        <time>2024-06-29T09:18:24Z</time>
      </trkpt>
      <trkpt lat="47.1466" lon="4.93974">
        <ele>253.1</ele>
        <time>2024-06-29T09:18:25Z</time>
      </trkpt>
      <trkpt lat="47.1466" lon="4.93973">
        <ele>252.8</ele>
        <time>2024-06-29T09:18:26Z</time>
      </trkpt>
      <trkpt lat="47.1466" lon="4.93971">
        <ele>252.9</ele>
        <time>2024-06-29T09:18:27Z</time>
      </trkpt>
      <trkpt lat="47.14661" lon="4.9397">
        <ele>253.1</ele>
        <time>2024-06-29T09:18:28Z</time>
      </trkpt>
      <trkpt lat="47.14661" lon="4.93968">
        <ele>253</ele>
        <time>2024-06-29T09:18:29Z</time>
      </trkpt>
      <trkpt lat="47.14661" lon="4.93966">
        <ele>253.1</ele>
        <time>2024-06-29T09:18:30Z</time>
      </trkpt>
      <trkpt lat="47.14662" lon="4.93965">
        <ele>253.1</ele>
        <time>2024-06-29T09:18:31Z</time>
      </trkpt>
      <trkpt lat="47.14662" lon="4.93963">
        <ele>253.1</ele>
        <time>2024-06-29T09:18:32Z</time>
      </trkpt>
      <trkpt lat="47.14663" lon="4.93962">
        <ele>253.2</ele>
        <time>2024-06-29T09:18:33Z</time>
      </trkpt>
      <trkpt lat="47.14663" lon="4.9396">
        <ele>252.9</ele>
        <time>2024-06-29T09:18:34Z</time>
      </trkpt>
      <trkpt lat="47.14663" lon="4.93958">
        <ele>252.7</ele>
        <time>2024-06-29T09:18:35Z</time>
      </trkpt>
      <trkpt lat="47.14664" lon="4.93957">
        <ele>252.9</ele>
        <time>2024-06-29T09:18:36Z</time>
      </trkpt>
      <trkpt lat="47.14664" lon="4.93955">
        <ele>253.3</ele>
        <time>2024-06-29T09:18:37Z</time>
      </trkpt>
      <trkpt lat="47.14665" lon="4.93954">
        <ele>253.2</ele>
        <time>2024-06-29T09:18:38Z</time>
      </trkpt>
      <trkpt lat="47.14665" lon="4.93952">
        <ele>253.1</ele>
        <time>2024-06-29T09:18:39Z</time>
      </trkpt>
      <trkpt lat="47.14665" lon="4.93951">
        <ele>252.8</ele>
        <time>2024-06-29T09:18:40Z</time>
      </trkpt>
      <trkpt lat="47.14666" lon="4.9395">
        <ele>253</ele>
        <time>2024-06-29T09:18:41Z</time>
      </trkpt>
      <trkpt lat="47.14666" lon="4.93948">
        <ele>253</ele>
        <time>2024-06-29T09:18:42Z</time>
      </trkpt>
      <trkpt lat="47.14666" lon="4.93947">
        <ele>252.8</ele>
        <time>2024-06-29T09:18:43Z</time>
      </trkpt>
      <trkpt lat="47.14667" lon="4.93946">
        <ele>253.7</ele>
        <time>2024-06-29T09:18:44Z</time>
      </trkpt>
      <trkpt lat="47.14667" lon="4.93944">
        <ele>253.8</ele>
        <time>2024-06-29T09:18:45Z</time>
      </trkpt>
      <trkpt lat="47.14668" lon="4.93943">
        <ele>254</ele>
        <time>2024-06-29T09:18:46Z</time>
      </trkpt>
      <trkpt lat="47.14668" lon="4.93941">
        <ele>254.6</ele>
        <time>2024-06-29T09:18:47Z</time>
      </trkpt>
      <trkpt lat="47.14668" lon="4.9394">
        <ele>254.6</ele>
        <time>2024-06-29T09:18:48Z</time>
      </trkpt>
      <trkpt lat="47.14668" lon="4.93939">
        <ele>254.5</ele>
        <time>2024-06-29T09:18:49Z</time>
      </trkpt>
      <trkpt lat="47.14669" lon="4.93937">
        <ele>254.3</ele>
        <time>2024-06-29T09:18:50Z</time>
      </trkpt>
      <trkpt lat="47.14669" lon="4.93936">
        <ele>254.6</ele>
        <time>2024-06-29T09:18:51Z</time>
      </trkpt>
      <trkpt lat="47.14669" lon="4.93935">
        <ele>254.3</ele>
        <time>2024-06-29T09:18:52Z</time>
      </trkpt>
      <trkpt lat="47.1467" lon="4.93933">
        <ele>254.6</ele>
        <time>2024-06-29T09:18:53Z</time>
      </trkpt>
      <trkpt lat="47.1467" lon="4.93932">
        <ele>254.7</ele>
        <time>2024-06-29T09:18:54Z</time>
      </trkpt>
      <trkpt lat="47.1467" lon="4.93931">
        <ele>255.2</ele>
        <time>2024-06-29T09:18:55Z</time>
      </trkpt>
      <trkpt lat="47.14671" lon="4.9393">
        <ele>255.4</ele>
        <time>2024-06-29T09:18:56Z</time>
      </trkpt>
      <trkpt lat="47.14672" lon="4.93928">
        <ele>255.5</ele>
        <time>2024-06-29T09:18:57Z</time>
      </trkpt>
      <trkpt lat="47.14672" lon="4.93927">
        <ele>255.8</ele>
        <time>2024-06-29T09:18:58Z</time>
      </trkpt>
      <trkpt lat="47.14673" lon="4.93925">
        <ele>255.4</ele>
        <time>2024-06-29T09:18:59Z</time>
      </trkpt>
      <trkpt lat="47.14673" lon="4.93924">
        <ele>255.5</ele>
        <time>2024-06-29T09:19:00Z</time>
      </trkpt>
      <trkpt lat="47.14673" lon="4.93922">
        <ele>255.4</ele>
        <time>2024-06-29T09:19:01Z</time>
      </trkpt>
      <trkpt lat="47.14673" lon="4.93921">
        <ele>254.9</ele>
        <time>2024-06-29T09:19:02Z</time>
      </trkpt>
      <trkpt lat="47.14673" lon="4.93919">
        <ele>255</ele>
        <time>2024-06-29T09:19:03Z</time>
      </trkpt>
      <trkpt lat="47.14674" lon="4.93918">
        <ele>254.6</ele>
        <time>2024-06-29T09:19:04Z</time>
      </trkpt>
      <trkpt lat="47.14674" lon="4.93916">
        <ele>254.4</ele>
        <time>2024-06-29T09:19:05Z</time>
      </trkpt>
      <trkpt lat="47.14673" lon="4.93915">
        <ele>254.3</ele>
        <time>2024-06-29T09:19:06Z</time>
      </trkpt>
      <trkpt lat="47.14673" lon="4.93913">
        <ele>253.9</ele>
        <time>2024-06-29T09:19:07Z</time>
      </trkpt>
      <trkpt lat="47.14673" lon="4.93911">
        <ele>254</ele>
        <time>2024-06-29T09:19:08Z</time>
      </trkpt>
      <trkpt lat="47.14674" lon="4.9391">
        <ele>254.2</ele>
        <time>2024-06-29T09:19:09Z</time>
      </trkpt>
      <trkpt lat="47.14674" lon="4.93908">
        <ele>254.4</ele>
        <time>2024-06-29T09:19:10Z</time>
      </trkpt>
      <trkpt lat="47.14674" lon="4.93907">
        <ele>253.9</ele>
        <time>2024-06-29T09:19:11Z</time>
      </trkpt>
      <trkpt lat="47.14674" lon="4.93905">
        <ele>253.7</ele>
        <time>2024-06-29T09:19:12Z</time>
      </trkpt>
      <trkpt lat="47.14674" lon="4.93904">
        <ele>253.9</ele>
        <time>2024-06-29T09:19:13Z</time>
      </trkpt>
      <trkpt lat="47.14674" lon="4.93902">
        <ele>254.4</ele>
        <time>2024-06-29T09:19:14Z</time>
      </trkpt>
      <trkpt lat="47.14675" lon="4.939">
        <ele>254.4</ele>
        <time>2024-06-29T09:19:15Z</time>
      </trkpt>
      <trkpt lat="47.14675" lon="4.93899">
        <ele>254.5</ele>
        <time>2024-06-29T09:19:16Z</time>
      </trkpt>
      <trkpt lat="47.14675" lon="4.93898">
        <ele>254.4</ele>
        <time>2024-06-29T09:19:17Z</time>
      </trkpt>
      <trkpt lat="47.14675" lon="4.93896">
        <ele>254.3</ele>
        <time>2024-06-29T09:19:18Z</time>
      </trkpt>
      <trkpt lat="47.14676" lon="4.93895">
        <ele>254.7</ele>
        <time>2024-06-29T09:19:19Z</time>
      </trkpt>
      <trkpt lat="47.14676" lon="4.93893">
        <ele>254.7</ele>
        <time>2024-06-29T09:19:20Z</time>
      </trkpt>
      <trkpt lat="47.14676" lon="4.93892">
        <ele>254.6</ele>
        <time>2024-06-29T09:19:21Z</time>
      </trkpt>
      <trkpt lat="47.14676" lon="4.9389">
        <ele>254.9</ele>
        <time>2024-06-29T09:19:22Z</time>
      </trkpt>
      <trkpt lat="47.14676" lon="4.93889">
        <ele>255.1</ele>
        <time>2024-06-29T09:19:23Z</time>
      </trkpt>
      <trkpt lat="47.14677" lon="4.93888">
        <ele>256</ele>
        <time>2024-06-29T09:19:24Z</time>
      </trkpt>
      <trkpt lat="47.14677" lon="4.93886">
        <ele>256</ele>
        <time>2024-06-29T09:19:25Z</time>
      </trkpt>
      <trkpt lat="47.14677" lon="4.93885">
        <ele>256.1</ele>
        <time>2024-06-29T09:19:26Z</time>
      </trkpt>
      <trkpt lat="47.14678" lon="4.93883">
        <ele>257</ele>
        <time>2024-06-29T09:19:27Z</time>
      </trkpt>
      <trkpt lat="47.14678" lon="4.93881">
        <ele>257.4</ele>
        <time>2024-06-29T09:19:28Z</time>
      </trkpt>
      <trkpt lat="47.14678" lon="4.9388">
        <ele>256.8</ele>
        <time>2024-06-29T09:19:29Z</time>
      </trkpt>
      <trkpt lat="47.14678" lon="4.93878">
        <ele>256.3</ele>
        <time>2024-06-29T09:19:30Z</time>
      </trkpt>
      <trkpt lat="47.14678" lon="4.93876">
        <ele>256.4</ele>
        <time>2024-06-29T09:19:31Z</time>
      </trkpt>
      <trkpt lat="47.14678" lon="4.93875">
        <ele>256.3</ele>
        <time>2024-06-29T09:19:32Z</time>
      </trkpt>
      <trkpt lat="47.14679" lon="4.93873">
        <ele>255.7</ele>
        <time>2024-06-29T09:19:33Z</time>
      </trkpt>
      <trkpt lat="47.14679" lon="4.93871">
        <ele>255.5</ele>
        <time>2024-06-29T09:19:34Z</time>
      </trkpt>
      <trkpt lat="47.14679" lon="4.9387">
        <ele>255.9</ele>
        <time>2024-06-29T09:19:35Z</time>
      </trkpt>
      <trkpt lat="47.1468" lon="4.93869">
        <ele>255.5</ele>
        <time>2024-06-29T09:19:36Z</time>
      </trkpt>
      <trkpt lat="47.1468" lon="4.93867">
        <ele>255.7</ele>
        <time>2024-06-29T09:19:37Z</time>
      </trkpt>
      <trkpt lat="47.1468" lon="4.93866">
        <ele>255.2</ele>
        <time>2024-06-29T09:19:38Z</time>
      </trkpt>
      <trkpt lat="47.14681" lon="4.93864">
        <ele>254.9</ele>
        <time>2024-06-29T09:19:39Z</time>
      </trkpt>
      <trkpt lat="47.14681" lon="4.93862">
        <ele>254.6</ele>
        <time>2024-06-29T09:19:40Z</time>
      </trkpt>
      <trkpt lat="47.14681" lon="4.93861">
        <ele>254.3</ele>
        <time>2024-06-29T09:19:41Z</time>
      </trkpt>
      <trkpt lat="47.14681" lon="4.93859">
        <ele>254.6</ele>
        <time>2024-06-29T09:19:42Z</time>
      </trkpt>
      <trkpt lat="47.14681" lon="4.93857">
        <ele>254.5</ele>
        <time>2024-06-29T09:19:43Z</time>
      </trkpt>
      <trkpt lat="47.14682" lon="4.93856">
        <ele>254.4</ele>
        <time>2024-06-29T09:19:44Z</time>
      </trkpt>
      <trkpt lat="47.14682" lon="4.93854">
        <ele>254.5</ele>
        <time>2024-06-29T09:19:45Z</time>
      </trkpt>
      <trkpt lat="47.14682" lon="4.93853">
        <ele>254.5</ele>
        <time>2024-06-29T09:19:46Z</time>
      </trkpt>
      <trkpt lat="47.14682" lon="4.93851">
        <ele>254.5</ele>
        <time>2024-06-29T09:19:47Z</time>
      </trkpt>
      <trkpt lat="47.14683" lon="4.9385">
        <ele>254.6</ele>
        <time>2024-06-29T09:19:48Z</time>
      </trkpt>
      <trkpt lat="47.14683" lon="4.93848">
        <ele>254.4</ele>
        <time>2024-06-29T09:19:49Z</time>
      </trkpt>
      <trkpt lat="47.14683" lon="4.93847">
        <ele>254.9</ele>
        <time>2024-06-29T09:19:50Z</time>
      </trkpt>
      <trkpt lat="47.14683" lon="4.93845">
        <ele>255.3</ele>
        <time>2024-06-29T09:19:51Z</time>
      </trkpt>
      <trkpt lat="47.14684" lon="4.93844">
        <ele>255.2</ele>
        <time>2024-06-29T09:19:52Z</time>
      </trkpt>
      <trkpt lat="47.14684" lon="4.93842">
        <ele>255.4</ele>
        <time>2024-06-29T09:19:53Z</time>
      </trkpt>
      <trkpt lat="47.14684" lon="4.93841">
        <ele>255.7</ele>
        <time>2024-06-29T09:19:54Z</time>
      </trkpt>
      <trkpt lat="47.14684" lon="4.9384">
        <ele>255.7</ele>
        <time>2024-06-29T09:19:55Z</time>
      </trkpt>
      <trkpt lat="47.14684" lon="4.93838">
        <ele>255.9</ele>
        <time>2024-06-29T09:19:56Z</time>
      </trkpt>
      <trkpt lat="47.14685" lon="4.93837">
        <ele>256</ele>
        <time>2024-06-29T09:19:57Z</time>
      </trkpt>
      <trkpt lat="47.14685" lon="4.93835">
        <ele>256.2</ele>
        <time>2024-06-29T09:19:58Z</time>
      </trkpt>
      <trkpt lat="47.14685" lon="4.93833">
        <ele>255.5</ele>
        <time>2024-06-29T09:19:59Z</time>
      </trkpt>
      <trkpt lat="47.14685" lon="4.93832">
        <ele>255.6</ele>
        <time>2024-06-29T09:20:00Z</time>
      </trkpt>
      <trkpt lat="47.14685" lon="4.9383">
        <ele>256</ele>
        <time>2024-06-29T09:20:01Z</time>
      </trkpt>
      <trkpt lat="47.14684" lon="4.93828">
        <ele>256.2</ele>
        <time>2024-06-29T09:20:02Z</time>
      </trkpt>
      <trkpt lat="47.14684" lon="4.93827">
        <ele>256.2</ele>
        <time>2024-06-29T09:20:03Z</time>
      </trkpt>
      <trkpt lat="47.14685" lon="4.93825">
        <ele>256.2</ele>
        <time>2024-06-29T09:20:04Z</time>
      </trkpt>
      <trkpt lat="47.14685" lon="4.93824">
        <ele>256.1</ele>
        <time>2024-06-29T09:20:05Z</time>
      </trkpt>
      <trkpt lat="47.14685" lon="4.93822">
        <ele>256.2</ele>
        <time>2024-06-29T09:20:06Z</time>
      </trkpt>
      <trkpt lat="47.14685" lon="4.93821">
        <ele>255.8</ele>
        <time>2024-06-29T09:20:07Z</time>
      </trkpt>
      <trkpt lat="47.14685" lon="4.93819">
        <ele>255.6</ele>
        <time>2024-06-29T09:20:08Z</time>
      </trkpt>
      <trkpt lat="47.14685" lon="4.93818">
        <ele>255.9</ele>
        <time>2024-06-29T09:20:09Z</time>
      </trkpt>
      <trkpt lat="47.14685" lon="4.93817">
        <ele>255.8</ele>
        <time>2024-06-29T09:20:10Z</time>
      </trkpt>
      <trkpt lat="47.14685" lon="4.93815">
        <ele>255.5</ele>
        <time>2024-06-29T09:20:11Z</time>
      </trkpt>
      <trkpt lat="47.14685" lon="4.93814">
        <ele>255.6</ele>
        <time>2024-06-29T09:20:12Z</time>
      </trkpt>
      <trkpt lat="47.14685" lon="4.93812">
        <ele>255.5</ele>
        <time>2024-06-29T09:20:13Z</time>
      </trkpt>
      <trkpt lat="47.14685" lon="4.93811">
        <ele>255.5</ele>
        <time>2024-06-29T09:20:14Z</time>
      </trkpt>
      <trkpt lat="47.14685" lon="4.93809">
        <ele>255.3</ele>
        <time>2024-06-29T09:20:15Z</time>
      </trkpt>
      <trkpt lat="47.14685" lon="4.93808">
        <ele>255.3</ele>
        <time>2024-06-29T09:20:16Z</time>
      </trkpt>
      <trkpt lat="47.14685" lon="4.93807">
        <ele>255.5</ele>
        <time>2024-06-29T09:20:17Z</time>
      </trkpt>
      <trkpt lat="47.14685" lon="4.93805">
        <ele>255.8</ele>
        <time>2024-06-29T09:20:18Z</time>
      </trkpt>
      <trkpt lat="47.14685" lon="4.93804">
        <ele>255.9</ele>
        <time>2024-06-29T09:20:19Z</time>
      </trkpt>
      <trkpt lat="47.14685" lon="4.93802">
        <ele>255.8</ele>
        <time>2024-06-29T09:20:20Z</time>
      </trkpt>
      <trkpt lat="47.14685" lon="4.93801">
        <ele>255.8</ele>
        <time>2024-06-29T09:20:21Z</time>
      </trkpt>
      <trkpt lat="47.14685" lon="4.938">
        <ele>256.1</ele>
        <time>2024-06-29T09:20:22Z</time>
      </trkpt>
      <trkpt lat="47.14686" lon="4.93798">
        <ele>255.8</ele>
        <time>2024-06-29T09:20:23Z</time>
      </trkpt>
      <trkpt lat="47.14686" lon="4.93797">
        <ele>255.6</ele>
        <time>2024-06-29T09:20:24Z</time>
      </trkpt>
      <trkpt lat="47.14686" lon="4.93795">
        <ele>255.7</ele>
        <time>2024-06-29T09:20:25Z</time>
      </trkpt>
      <trkpt lat="47.14686" lon="4.93793">
        <ele>255.3</ele>
        <time>2024-06-29T09:20:26Z</time>
      </trkpt>
      <trkpt lat="47.14686" lon="4.93792">
        <ele>255.6</ele>
        <time>2024-06-29T09:20:27Z</time>
      </trkpt>
      <trkpt lat="47.14686" lon="4.9379">
        <ele>255.3</ele>
        <time>2024-06-29T09:20:28Z</time>
      </trkpt>
      <trkpt lat="47.14686" lon="4.93789">
        <ele>255.1</ele>
        <time>2024-06-29T09:20:29Z</time>
      </trkpt>
      <trkpt lat="47.14685" lon="4.93787">
        <ele>254.8</ele>
        <time>2024-06-29T09:20:30Z</time>
      </trkpt>
      <trkpt lat="47.14685" lon="4.93786">
        <ele>254.9</ele>
        <time>2024-06-29T09:20:31Z</time>
      </trkpt>
      <trkpt lat="47.14685" lon="4.93784">
        <ele>255.2</ele>
        <time>2024-06-29T09:20:32Z</time>
      </trkpt>
      <trkpt lat="47.14685" lon="4.93782">
        <ele>254.7</ele>
        <time>2024-06-29T09:20:33Z</time>
      </trkpt>
      <trkpt lat="47.14685" lon="4.93781">
        <ele>254.8</ele>
        <time>2024-06-29T09:20:34Z</time>
      </trkpt>
      <trkpt lat="47.14685" lon="4.93779">
        <ele>254.9</ele>
        <time>2024-06-29T09:20:35Z</time>
      </trkpt>
      <trkpt lat="47.14685" lon="4.93778">
        <ele>254.6</ele>
        <time>2024-06-29T09:20:36Z</time>
      </trkpt>
      <trkpt lat="47.14685" lon="4.93776">
        <ele>254.8</ele>
        <time>2024-06-29T09:20:37Z</time>
      </trkpt>
      <trkpt lat="47.14685" lon="4.93775">
        <ele>255.1</ele>
        <time>2024-06-29T09:20:38Z</time>
      </trkpt>
      <trkpt lat="47.14685" lon="4.93773">
        <ele>255.1</ele>
        <time>2024-06-29T09:20:39Z</time>
      </trkpt>
      <trkpt lat="47.14685" lon="4.93772">
        <ele>255.2</ele>
        <time>2024-06-29T09:20:40Z</time>
      </trkpt>
      <trkpt lat="47.14685" lon="4.9377">
        <ele>255.7</ele>
        <time>2024-06-29T09:20:41Z</time>
      </trkpt>
      <trkpt lat="47.14684" lon="4.93769">
        <ele>255.9</ele>
        <time>2024-06-29T09:20:42Z</time>
      </trkpt>
      <trkpt lat="47.14684" lon="4.93768">
        <ele>256.5</ele>
        <time>2024-06-29T09:20:43Z</time>
      </trkpt>
      <trkpt lat="47.14684" lon="4.93766">
        <ele>256.8</ele>
        <time>2024-06-29T09:20:44Z</time>
      </trkpt>
      <trkpt lat="47.14684" lon="4.93765">
        <ele>256.8</ele>
        <time>2024-06-29T09:20:45Z</time>
      </trkpt>
      <trkpt lat="47.14684" lon="4.93763">
        <ele>256.7</ele>
        <time>2024-06-29T09:20:46Z</time>
      </trkpt>
      <trkpt lat="47.14684" lon="4.93762">
        <ele>256.7</ele>
        <time>2024-06-29T09:20:47Z</time>
      </trkpt>
      <trkpt lat="47.14684" lon="4.9376">
        <ele>256.7</ele>
        <time>2024-06-29T09:20:48Z</time>
      </trkpt>
      <trkpt lat="47.14684" lon="4.93758">
        <ele>256.6</ele>
        <time>2024-06-29T09:20:49Z</time>
      </trkpt>
      <trkpt lat="47.14684" lon="4.93757">
        <ele>256.7</ele>
        <time>2024-06-29T09:20:50Z</time>
      </trkpt>
      <trkpt lat="47.14684" lon="4.93755">
        <ele>256.3</ele>
        <time>2024-06-29T09:20:51Z</time>
      </trkpt>
      <trkpt lat="47.14684" lon="4.93754">
        <ele>256.2</ele>
        <time>2024-06-29T09:20:52Z</time>
      </trkpt>
      <trkpt lat="47.14684" lon="4.93752">
        <ele>256.3</ele>
        <time>2024-06-29T09:20:53Z</time>
      </trkpt>
      <trkpt lat="47.14685" lon="4.93751">
        <ele>256.2</ele>
        <time>2024-06-29T09:20:54Z</time>
      </trkpt>
      <trkpt lat="47.14685" lon="4.93749">
        <ele>256.4</ele>
        <time>2024-06-29T09:20:55Z</time>
      </trkpt>
      <trkpt lat="47.14685" lon="4.93748">
        <ele>256.6</ele>
        <time>2024-06-29T09:20:56Z</time>
      </trkpt>
      <trkpt lat="47.14685" lon="4.93746">
        <ele>256.8</ele>
        <time>2024-06-29T09:20:57Z</time>
      </trkpt>
      <trkpt lat="47.14685" lon="4.93745">
        <ele>256.8</ele>
        <time>2024-06-29T09:20:58Z</time>
      </trkpt>
      <trkpt lat="47.14684" lon="4.93743">
        <ele>256.9</ele>
        <time>2024-06-29T09:20:59Z</time>
      </trkpt>
      <trkpt lat="47.14684" lon="4.93742">
        <ele>256.8</ele>
        <time>2024-06-29T09:21:00Z</time>
      </trkpt>
      <trkpt lat="47.14684" lon="4.93741">
        <ele>256.7</ele>
        <time>2024-06-29T09:21:01Z</time>
      </trkpt>
      <trkpt lat="47.14684" lon="4.93739">
        <ele>256.7</ele>
        <time>2024-06-29T09:21:02Z</time>
      </trkpt>
      <trkpt lat="47.14684" lon="4.93738">
        <ele>256.8</ele>
        <time>2024-06-29T09:21:03Z</time>
      </trkpt>
      <trkpt lat="47.14684" lon="4.93736">
        <ele>256.8</ele>
        <time>2024-06-29T09:21:04Z</time>
      </trkpt>
      <trkpt lat="47.14684" lon="4.93735">
        <ele>256.6</ele>
        <time>2024-06-29T09:21:05Z</time>
      </trkpt>
      <trkpt lat="47.14684" lon="4.93733">
        <ele>256.7</ele>
        <time>2024-06-29T09:21:06Z</time>
      </trkpt>
      <trkpt lat="47.14684" lon="4.93732">
        <ele>256.9</ele>
        <time>2024-06-29T09:21:07Z</time>
      </trkpt>
      <trkpt lat="47.14684" lon="4.9373">
        <ele>257.1</ele>
        <time>2024-06-29T09:21:08Z</time>
      </trkpt>
      <trkpt lat="47.14684" lon="4.93729">
        <ele>257.1</ele>
        <time>2024-06-29T09:21:09Z</time>
      </trkpt>
      <trkpt lat="47.14684" lon="4.93727">
        <ele>257.3</ele>
        <time>2024-06-29T09:21:10Z</time>
      </trkpt>
      <trkpt lat="47.14684" lon="4.93725">
        <ele>257.9</ele>
        <time>2024-06-29T09:21:12Z</time>
      </trkpt>
      <trkpt lat="47.14684" lon="4.93723">
        <ele>258</ele>
        <time>2024-06-29T09:21:13Z</time>
      </trkpt>
      <trkpt lat="47.14684" lon="4.93722">
        <ele>258.3</ele>
        <time>2024-06-29T09:21:14Z</time>
      </trkpt>
      <trkpt lat="47.14685" lon="4.9372">
        <ele>258.5</ele>
        <time>2024-06-29T09:21:15Z</time>
      </trkpt>
      <trkpt lat="47.14685" lon="4.93719">
        <ele>258.3</ele>
        <time>2024-06-29T09:21:16Z</time>
      </trkpt>
      <trkpt lat="47.14685" lon="4.93717">
        <ele>258.4</ele>
        <time>2024-06-29T09:21:17Z</time>
      </trkpt>
      <trkpt lat="47.14685" lon="4.93716">
        <ele>258.1</ele>
        <time>2024-06-29T09:21:18Z</time>
      </trkpt>
      <trkpt lat="47.14685" lon="4.93714">
        <ele>257.7</ele>
        <time>2024-06-29T09:21:19Z</time>
      </trkpt>
      <trkpt lat="47.14685" lon="4.93712">
        <ele>257.9</ele>
        <time>2024-06-29T09:21:20Z</time>
      </trkpt>
      <trkpt lat="47.14685" lon="4.93711">
        <ele>257.8</ele>
        <time>2024-06-29T09:21:21Z</time>
      </trkpt>
      <trkpt lat="47.14685" lon="4.93709">
        <ele>257.5</ele>
        <time>2024-06-29T09:21:22Z</time>
      </trkpt>
      <trkpt lat="47.14685" lon="4.93708">
        <ele>257.6</ele>
        <time>2024-06-29T09:21:23Z</time>
      </trkpt>
      <trkpt lat="47.14685" lon="4.93707">
        <ele>257.6</ele>
        <time>2024-06-29T09:21:24Z</time>
      </trkpt>
      <trkpt lat="47.14685" lon="4.93705">
        <ele>257.5</ele>
        <time>2024-06-29T09:21:25Z</time>
      </trkpt>
      <trkpt lat="47.14685" lon="4.93704">
        <ele>257.5</ele>
        <time>2024-06-29T09:21:26Z</time>
      </trkpt>
      <trkpt lat="47.14685" lon="4.93702">
        <ele>257.9</ele>
        <time>2024-06-29T09:21:27Z</time>
      </trkpt>
      <trkpt lat="47.14685" lon="4.93701">
        <ele>258.1</ele>
        <time>2024-06-29T09:21:28Z</time>
      </trkpt>
      <trkpt lat="47.14685" lon="4.93699">
        <ele>258.4</ele>
        <time>2024-06-29T09:21:29Z</time>
      </trkpt>
      <trkpt lat="47.14685" lon="4.93698">
        <ele>258.2</ele>
        <time>2024-06-29T09:21:30Z</time>
      </trkpt>
      <trkpt lat="47.14685" lon="4.93697">
        <ele>258.2</ele>
        <time>2024-06-29T09:21:31Z</time>
      </trkpt>
      <trkpt lat="47.14685" lon="4.93695">
        <ele>258.3</ele>
        <time>2024-06-29T09:21:32Z</time>
      </trkpt>
      <trkpt lat="47.14685" lon="4.93694">
        <ele>258.2</ele>
        <time>2024-06-29T09:21:33Z</time>
      </trkpt>
      <trkpt lat="47.14685" lon="4.93692">
        <ele>258.3</ele>
        <time>2024-06-29T09:21:34Z</time>
      </trkpt>
      <trkpt lat="47.14684" lon="4.93691">
        <ele>258.7</ele>
        <time>2024-06-29T09:21:35Z</time>
      </trkpt>
      <trkpt lat="47.14684" lon="4.93689">
        <ele>258.6</ele>
        <time>2024-06-29T09:21:36Z</time>
      </trkpt>
      <trkpt lat="47.14684" lon="4.93688">
        <ele>257.8</ele>
        <time>2024-06-29T09:21:37Z</time>
      </trkpt>
      <trkpt lat="47.14684" lon="4.93686">
        <ele>257.8</ele>
        <time>2024-06-29T09:21:38Z</time>
      </trkpt>
      <trkpt lat="47.14684" lon="4.93685">
        <ele>257.9</ele>
        <time>2024-06-29T09:21:39Z</time>
      </trkpt>
      <trkpt lat="47.14684" lon="4.93683">
        <ele>257.9</ele>
        <time>2024-06-29T09:21:40Z</time>
      </trkpt>
      <trkpt lat="47.14684" lon="4.93682">
        <ele>258</ele>
        <time>2024-06-29T09:21:41Z</time>
      </trkpt>
      <trkpt lat="47.14684" lon="4.9368">
        <ele>257.7</ele>
        <time>2024-06-29T09:21:42Z</time>
      </trkpt>
      <trkpt lat="47.14684" lon="4.93679">
        <ele>257.1</ele>
        <time>2024-06-29T09:21:43Z</time>
      </trkpt>
      <trkpt lat="47.14683" lon="4.93677">
        <ele>257.3</ele>
        <time>2024-06-29T09:21:44Z</time>
      </trkpt>
      <trkpt lat="47.14683" lon="4.93676">
        <ele>256.7</ele>
        <time>2024-06-29T09:21:45Z</time>
      </trkpt>
      <trkpt lat="47.14682" lon="4.93674">
        <ele>256.8</ele>
        <time>2024-06-29T09:21:46Z</time>
      </trkpt>
      <trkpt lat="47.14682" lon="4.93673">
        <ele>257.3</ele>
        <time>2024-06-29T09:21:47Z</time>
      </trkpt>
      <trkpt lat="47.14682" lon="4.93671">
        <ele>257.5</ele>
        <time>2024-06-29T09:21:48Z</time>
      </trkpt>
      <trkpt lat="47.14682" lon="4.9367">
        <ele>257.8</ele>
        <time>2024-06-29T09:21:49Z</time>
      </trkpt>
      <trkpt lat="47.14681" lon="4.93669">
        <ele>257.9</ele>
        <time>2024-06-29T09:21:50Z</time>
      </trkpt>
      <trkpt lat="47.14681" lon="4.93667">
        <ele>258</ele>
        <time>2024-06-29T09:21:51Z</time>
      </trkpt>
      <trkpt lat="47.14681" lon="4.93666">
        <ele>258</ele>
        <time>2024-06-29T09:21:52Z</time>
      </trkpt>
      <trkpt lat="47.14681" lon="4.93665">
        <ele>257.9</ele>
        <time>2024-06-29T09:21:53Z</time>
      </trkpt>
      <trkpt lat="47.1468" lon="4.93663">
        <ele>258</ele>
        <time>2024-06-29T09:21:54Z</time>
      </trkpt>
      <trkpt lat="47.1468" lon="4.93662">
        <ele>257.9</ele>
        <time>2024-06-29T09:21:55Z</time>
      </trkpt>
      <trkpt lat="47.1468" lon="4.93661">
        <ele>257.6</ele>
        <time>2024-06-29T09:21:56Z</time>
      </trkpt>
      <trkpt lat="47.1468" lon="4.93659">
        <ele>257.7</ele>
        <time>2024-06-29T09:21:57Z</time>
      </trkpt>
      <trkpt lat="47.1468" lon="4.93658">
        <ele>257.6</ele>
        <time>2024-06-29T09:21:58Z</time>
      </trkpt>
      <trkpt lat="47.14679" lon="4.93656">
        <ele>257.8</ele>
        <time>2024-06-29T09:21:59Z</time>
      </trkpt>
      <trkpt lat="47.14679" lon="4.93654">
        <ele>257.5</ele>
        <time>2024-06-29T09:22:00Z</time>
      </trkpt>
      <trkpt lat="47.14679" lon="4.93653">
        <ele>257.8</ele>
        <time>2024-06-29T09:22:01Z</time>
      </trkpt>
      <trkpt lat="47.14679" lon="4.93651">
        <ele>257.9</ele>
        <time>2024-06-29T09:22:02Z</time>
      </trkpt>
      <trkpt lat="47.14679" lon="4.9365">
        <ele>257.9</ele>
        <time>2024-06-29T09:22:03Z</time>
      </trkpt>
      <trkpt lat="47.14678" lon="4.93648">
        <ele>258.1</ele>
        <time>2024-06-29T09:22:04Z</time>
      </trkpt>
      <trkpt lat="47.14678" lon="4.93647">
        <ele>258.3</ele>
        <time>2024-06-29T09:22:05Z</time>
      </trkpt>
      <trkpt lat="47.14678" lon="4.93645">
        <ele>258</ele>
        <time>2024-06-29T09:22:06Z</time>
      </trkpt>
      <trkpt lat="47.14677" lon="4.93644">
        <ele>257.7</ele>
        <time>2024-06-29T09:22:07Z</time>
      </trkpt>
      <trkpt lat="47.14677" lon="4.93642">
        <ele>257.3</ele>
        <time>2024-06-29T09:22:09Z</time>
      </trkpt>
      <trkpt lat="47.14677" lon="4.9364">
        <ele>257.4</ele>
        <time>2024-06-29T09:22:11Z</time>
      </trkpt>
      <trkpt lat="47.14676" lon="4.93638">
        <ele>257.1</ele>
        <time>2024-06-29T09:22:13Z</time>
      </trkpt>
      <trkpt lat="47.14676" lon="4.93636">
        <ele>256.8</ele>
        <time>2024-06-29T09:22:14Z</time>
      </trkpt>
      <trkpt lat="47.14676" lon="4.93635">
        <ele>256.9</ele>
        <time>2024-06-29T09:22:15Z</time>
      </trkpt>
      <trkpt lat="47.14675" lon="4.93633">
        <ele>256.9</ele>
        <time>2024-06-29T09:22:16Z</time>
      </trkpt>
      <trkpt lat="47.14675" lon="4.93631">
        <ele>256.8</ele>
        <time>2024-06-29T09:22:17Z</time>
      </trkpt>
      <trkpt lat="47.14675" lon="4.9363">
        <ele>257.1</ele>
        <time>2024-06-29T09:22:18Z</time>
      </trkpt>
      <trkpt lat="47.14674" lon="4.93628">
        <ele>256.8</ele>
        <time>2024-06-29T09:22:19Z</time>
      </trkpt>
      <trkpt lat="47.14674" lon="4.93627">
        <ele>256.7</ele>
        <time>2024-06-29T09:22:20Z</time>
      </trkpt>
      <trkpt lat="47.14673" lon="4.93625">
        <ele>256.4</ele>
        <time>2024-06-29T09:22:21Z</time>
      </trkpt>
      <trkpt lat="47.14673" lon="4.93624">
        <ele>256.6</ele>
        <time>2024-06-29T09:22:22Z</time>
      </trkpt>
      <trkpt lat="47.14672" lon="4.93622">
        <ele>256.5</ele>
        <time>2024-06-29T09:22:23Z</time>
      </trkpt>
      <trkpt lat="47.14672" lon="4.93621">
        <ele>256.1</ele>
        <time>2024-06-29T09:22:24Z</time>
      </trkpt>
      <trkpt lat="47.14672" lon="4.93619">
        <ele>256.2</ele>
        <time>2024-06-29T09:22:25Z</time>
      </trkpt>
      <trkpt lat="47.14671" lon="4.93618">
        <ele>256</ele>
        <time>2024-06-29T09:22:26Z</time>
      </trkpt>
      <trkpt lat="47.14671" lon="4.93616">
        <ele>256.3</ele>
        <time>2024-06-29T09:22:27Z</time>
      </trkpt>
      <trkpt lat="47.14671" lon="4.93615">
        <ele>256.7</ele>
        <time>2024-06-29T09:22:28Z</time>
      </trkpt>
      <trkpt lat="47.14671" lon="4.93613">
        <ele>256.7</ele>
        <time>2024-06-29T09:22:29Z</time>
      </trkpt>
      <trkpt lat="47.1467" lon="4.93612">
        <ele>256.4</ele>
        <time>2024-06-29T09:22:30Z</time>
      </trkpt>
      <trkpt lat="47.1467" lon="4.9361">
        <ele>256.4</ele>
        <time>2024-06-29T09:22:31Z</time>
      </trkpt>
      <trkpt lat="47.1467" lon="4.93609">
        <ele>256.7</ele>
        <time>2024-06-29T09:22:32Z</time>
      </trkpt>
      <trkpt lat="47.1467" lon="4.93608">
        <ele>256.4</ele>
        <time>2024-06-29T09:22:33Z</time>
      </trkpt>
      <trkpt lat="47.14669" lon="4.93606">
        <ele>256.3</ele>
        <time>2024-06-29T09:22:34Z</time>
      </trkpt>
      <trkpt lat="47.14669" lon="4.93605">
        <ele>256.1</ele>
        <time>2024-06-29T09:22:35Z</time>
      </trkpt>
      <trkpt lat="47.14669" lon="4.93603">
        <ele>255.8</ele>
        <time>2024-06-29T09:22:36Z</time>
      </trkpt>
      <trkpt lat="47.14668" lon="4.93602">
        <ele>255.8</ele>
        <time>2024-06-29T09:22:37Z</time>
      </trkpt>
      <trkpt lat="47.14668" lon="4.936">
        <ele>256.1</ele>
        <time>2024-06-29T09:22:38Z</time>
      </trkpt>
      <trkpt lat="47.14668" lon="4.93599">
        <ele>255.9</ele>
        <time>2024-06-29T09:22:39Z</time>
      </trkpt>
      <trkpt lat="47.14667" lon="4.93597">
        <ele>255.7</ele>
        <time>2024-06-29T09:22:40Z</time>
      </trkpt>
      <trkpt lat="47.14667" lon="4.93596">
        <ele>255.5</ele>
        <time>2024-06-29T09:22:41Z</time>
      </trkpt>
      <trkpt lat="47.14666" lon="4.93594">
        <ele>256.3</ele>
        <time>2024-06-29T09:22:42Z</time>
      </trkpt>
      <trkpt lat="47.14666" lon="4.93593">
        <ele>256.1</ele>
        <time>2024-06-29T09:22:43Z</time>
      </trkpt>
      <trkpt lat="47.14666" lon="4.93591">
        <ele>256.1</ele>
        <time>2024-06-29T09:22:44Z</time>
      </trkpt>
      <trkpt lat="47.14665" lon="4.9359">
        <ele>256.3</ele>
        <time>2024-06-29T09:22:45Z</time>
      </trkpt>
      <trkpt lat="47.14665" lon="4.93588">
        <ele>256.4</ele>
        <time>2024-06-29T09:22:46Z</time>
      </trkpt>
      <trkpt lat="47.14665" lon="4.93587">
        <ele>256.4</ele>
        <time>2024-06-29T09:22:48Z</time>
      </trkpt>
      <trkpt lat="47.14664" lon="4.93584">
        <ele>256.4</ele>
        <time>2024-06-29T09:22:50Z</time>
      </trkpt>
      <trkpt lat="47.14664" lon="4.93582">
        <ele>256.8</ele>
        <time>2024-06-29T09:22:51Z</time>
      </trkpt>
      <trkpt lat="47.14664" lon="4.93581">
        <ele>256.8</ele>
        <time>2024-06-29T09:22:52Z</time>
      </trkpt>
      <trkpt lat="47.14663" lon="4.93579">
        <ele>256.6</ele>
        <time>2024-06-29T09:22:53Z</time>
      </trkpt>
      <trkpt lat="47.14663" lon="4.93578">
        <ele>256.9</ele>
        <time>2024-06-29T09:22:54Z</time>
      </trkpt>
      <trkpt lat="47.14663" lon="4.93576">
        <ele>256.6</ele>
        <time>2024-06-29T09:22:55Z</time>
      </trkpt>
      <trkpt lat="47.14663" lon="4.93574">
        <ele>256.6</ele>
        <time>2024-06-29T09:22:56Z</time>
      </trkpt>
      <trkpt lat="47.14663" lon="4.93572">
        <ele>256.5</ele>
        <time>2024-06-29T09:22:57Z</time>
      </trkpt>
      <trkpt lat="47.14663" lon="4.93571">
        <ele>256.3</ele>
        <time>2024-06-29T09:22:58Z</time>
      </trkpt>
      <trkpt lat="47.14663" lon="4.93569">
        <ele>256.3</ele>
        <time>2024-06-29T09:22:59Z</time>
      </trkpt>
      <trkpt lat="47.14663" lon="4.93567">
        <ele>256.2</ele>
        <time>2024-06-29T09:23:00Z</time>
      </trkpt>
      <trkpt lat="47.14663" lon="4.93566">
        <ele>256.4</ele>
        <time>2024-06-29T09:23:01Z</time>
      </trkpt>
      <trkpt lat="47.14663" lon="4.93564">
        <ele>256.2</ele>
        <time>2024-06-29T09:23:02Z</time>
      </trkpt>
      <trkpt lat="47.14662" lon="4.93562">
        <ele>255.5</ele>
        <time>2024-06-29T09:23:03Z</time>
      </trkpt>
      <trkpt lat="47.14662" lon="4.9356">
        <ele>255.6</ele>
        <time>2024-06-29T09:23:04Z</time>
      </trkpt>
      <trkpt lat="47.14662" lon="4.93559">
        <ele>255.7</ele>
        <time>2024-06-29T09:23:05Z</time>
      </trkpt>
      <trkpt lat="47.14662" lon="4.93557">
        <ele>255.5</ele>
        <time>2024-06-29T09:23:06Z</time>
      </trkpt>
      <trkpt lat="47.14662" lon="4.93555">
        <ele>255.4</ele>
        <time>2024-06-29T09:23:07Z</time>
      </trkpt>
      <trkpt lat="47.14662" lon="4.93553">
        <ele>255.6</ele>
        <time>2024-06-29T09:23:08Z</time>
      </trkpt>
      <trkpt lat="47.14663" lon="4.93552">
        <ele>255.6</ele>
        <time>2024-06-29T09:23:09Z</time>
      </trkpt>
      <trkpt lat="47.14663" lon="4.9355">
        <ele>255.7</ele>
        <time>2024-06-29T09:23:10Z</time>
      </trkpt>
      <trkpt lat="47.14663" lon="4.93549">
        <ele>255.9</ele>
        <time>2024-06-29T09:23:11Z</time>
      </trkpt>
      <trkpt lat="47.14663" lon="4.93547">
        <ele>256.8</ele>
        <time>2024-06-29T09:23:12Z</time>
      </trkpt>
      <trkpt lat="47.14663" lon="4.93546">
        <ele>256</ele>
        <time>2024-06-29T09:23:16Z</time>
      </trkpt>
      <trkpt lat="47.14662" lon="4.93544">
        <ele>255.6</ele>
        <time>2024-06-29T09:23:18Z</time>
      </trkpt>
      <trkpt lat="47.14661" lon="4.93543">
        <ele>256.6</ele>
        <time>2024-06-29T09:23:20Z</time>
      </trkpt>
      <trkpt lat="47.1466" lon="4.93542">
        <ele>256</ele>
        <time>2024-06-29T09:23:21Z</time>
      </trkpt>
      <trkpt lat="47.14659" lon="4.93541">
        <ele>255.5</ele>
        <time>2024-06-29T09:23:22Z</time>
      </trkpt>
      <trkpt lat="47.14658" lon="4.93541">
        <ele>255.4</ele>
        <time>2024-06-29T09:23:23Z</time>
      </trkpt>
      <trkpt lat="47.14658" lon="4.9354">
        <ele>255.5</ele>
        <time>2024-06-29T09:23:24Z</time>
      </trkpt>
      <trkpt lat="47.14657" lon="4.93539">
        <ele>255.6</ele>
        <time>2024-06-29T09:23:25Z</time>
      </trkpt>
      <trkpt lat="47.14656" lon="4.93538">
        <ele>255.4</ele>
        <time>2024-06-29T09:23:26Z</time>
      </trkpt>
      <trkpt lat="47.14655" lon="4.93537">
        <ele>255.2</ele>
        <time>2024-06-29T09:23:27Z</time>
      </trkpt>
      <trkpt lat="47.14654" lon="4.93536">
        <ele>255.2</ele>
        <time>2024-06-29T09:23:28Z</time>
      </trkpt>
      <trkpt lat="47.14654" lon="4.93535">
        <ele>255.4</ele>
        <time>2024-06-29T09:23:29Z</time>
      </trkpt>
      <trkpt lat="47.14653" lon="4.93534">
        <ele>255.6</ele>
        <time>2024-06-29T09:23:30Z</time>
      </trkpt>
      <trkpt lat="47.14652" lon="4.93532">
        <ele>255.5</ele>
        <time>2024-06-29T09:23:31Z</time>
      </trkpt>
      <trkpt lat="47.14651" lon="4.93531">
        <ele>255.4</ele>
        <time>2024-06-29T09:23:32Z</time>
      </trkpt>
      <trkpt lat="47.1465" lon="4.9353">
        <ele>255.4</ele>
        <time>2024-06-29T09:23:33Z</time>
      </trkpt>
      <trkpt lat="47.14649" lon="4.93529">
        <ele>255.5</ele>
        <time>2024-06-29T09:23:34Z</time>
      </trkpt>
      <trkpt lat="47.14649" lon="4.93529">
        <ele>255</ele>
        <time>2024-06-29T09:23:35Z</time>
      </trkpt>
      <trkpt lat="47.14648" lon="4.93527">
        <ele>254.6</ele>
        <time>2024-06-29T09:23:36Z</time>
      </trkpt>
      <trkpt lat="47.14647" lon="4.93526">
        <ele>254.4</ele>
        <time>2024-06-29T09:23:37Z</time>
      </trkpt>
      <trkpt lat="47.14646" lon="4.93525">
        <ele>254.5</ele>
        <time>2024-06-29T09:23:38Z</time>
      </trkpt>
      <trkpt lat="47.14645" lon="4.93524">
        <ele>254.9</ele>
        <time>2024-06-29T09:23:39Z</time>
      </trkpt>
      <trkpt lat="47.14644" lon="4.93523">
        <ele>254.8</ele>
        <time>2024-06-29T09:23:40Z</time>
      </trkpt>
      <trkpt lat="47.14643" lon="4.93522">
        <ele>254.9</ele>
        <time>2024-06-29T09:23:41Z</time>
      </trkpt>
      <trkpt lat="47.14642" lon="4.93522">
        <ele>254.8</ele>
        <time>2024-06-29T09:23:42Z</time>
      </trkpt>
      <trkpt lat="47.14641" lon="4.93521">
        <ele>255</ele>
        <time>2024-06-29T09:23:43Z</time>
      </trkpt>
      <trkpt lat="47.1464" lon="4.9352">
        <ele>254.9</ele>
        <time>2024-06-29T09:23:44Z</time>
      </trkpt>
      <trkpt lat="47.14639" lon="4.93519">
        <ele>254.8</ele>
        <time>2024-06-29T09:23:45Z</time>
      </trkpt>
      <trkpt lat="47.14638" lon="4.93519">
        <ele>254.8</ele>
        <time>2024-06-29T09:23:46Z</time>
      </trkpt>
      <trkpt lat="47.14637" lon="4.93518">
        <ele>254.8</ele>
        <time>2024-06-29T09:23:47Z</time>
      </trkpt>
      <trkpt lat="47.14637" lon="4.93517">
        <ele>255.2</ele>
        <time>2024-06-29T09:23:48Z</time>
      </trkpt>
      <trkpt lat="47.14636" lon="4.93516">
        <ele>255.3</ele>
        <time>2024-06-29T09:23:49Z</time>
      </trkpt>
      <trkpt lat="47.14635" lon="4.93516">
        <ele>255.4</ele>
        <time>2024-06-29T09:23:50Z</time>
      </trkpt>
      <trkpt lat="47.14634" lon="4.93515">
        <ele>255.2</ele>
        <time>2024-06-29T09:23:51Z</time>
      </trkpt>
      <trkpt lat="47.14633" lon="4.93514">
        <ele>255.4</ele>
        <time>2024-06-29T09:23:52Z</time>
      </trkpt>
      <trkpt lat="47.14632" lon="4.93513">
        <ele>255.5</ele>
        <time>2024-06-29T09:23:53Z</time>
      </trkpt>
      <trkpt lat="47.14631" lon="4.93513">
        <ele>255.3</ele>
        <time>2024-06-29T09:23:54Z</time>
      </trkpt>
      <trkpt lat="47.14631" lon="4.93512">
        <ele>255.3</ele>
        <time>2024-06-29T09:23:55Z</time>
      </trkpt>
      <trkpt lat="47.1463" lon="4.93511">
        <ele>255.4</ele>
        <time>2024-06-29T09:23:56Z</time>
      </trkpt>
      <trkpt lat="47.14629" lon="4.9351">
        <ele>255.4</ele>
        <time>2024-06-29T09:23:57Z</time>
      </trkpt>
      <trkpt lat="47.14628" lon="4.93509">
        <ele>255.6</ele>
        <time>2024-06-29T09:23:58Z</time>
      </trkpt>
      <trkpt lat="47.14627" lon="4.93508">
        <ele>255.7</ele>
        <time>2024-06-29T09:23:59Z</time>
      </trkpt>
      <trkpt lat="47.14627" lon="4.93507">
        <ele>255.6</ele>
        <time>2024-06-29T09:24:00Z</time>
      </trkpt>
      <trkpt lat="47.14626" lon="4.93506">
        <ele>255.7</ele>
        <time>2024-06-29T09:24:01Z</time>
      </trkpt>
      <trkpt lat="47.14625" lon="4.93505">
        <ele>255.4</ele>
        <time>2024-06-29T09:24:02Z</time>
      </trkpt>
      <trkpt lat="47.14624" lon="4.93504">
        <ele>255.3</ele>
        <time>2024-06-29T09:24:03Z</time>
      </trkpt>
      <trkpt lat="47.14623" lon="4.93503">
        <ele>255.2</ele>
        <time>2024-06-29T09:24:04Z</time>
      </trkpt>
      <trkpt lat="47.14623" lon="4.93502">
        <ele>255</ele>
        <time>2024-06-29T09:24:05Z</time>
      </trkpt>
      <trkpt lat="47.14622" lon="4.93501">
        <ele>255.1</ele>
        <time>2024-06-29T09:24:06Z</time>
      </trkpt>
      <trkpt lat="47.14621" lon="4.935">
        <ele>255.1</ele>
        <time>2024-06-29T09:24:07Z</time>
      </trkpt>
      <trkpt lat="47.1462" lon="4.93499">
        <ele>255</ele>
        <time>2024-06-29T09:24:08Z</time>
      </trkpt>
      <trkpt lat="47.14619" lon="4.93498">
        <ele>254.8</ele>
        <time>2024-06-29T09:24:09Z</time>
      </trkpt>
      <trkpt lat="47.14618" lon="4.93498">
        <ele>254.8</ele>
        <time>2024-06-29T09:24:10Z</time>
      </trkpt>
      <trkpt lat="47.14617" lon="4.93497">
        <ele>254.4</ele>
        <time>2024-06-29T09:24:11Z</time>
      </trkpt>
      <trkpt lat="47.14616" lon="4.93496">
        <ele>254.5</ele>
        <time>2024-06-29T09:24:12Z</time>
      </trkpt>
      <trkpt lat="47.14616" lon="4.93495">
        <ele>254.3</ele>
        <time>2024-06-29T09:24:13Z</time>
      </trkpt>
      <trkpt lat="47.14615" lon="4.93493">
        <ele>254.3</ele>
        <time>2024-06-29T09:24:14Z</time>
      </trkpt>
      <trkpt lat="47.14615" lon="4.93492">
        <ele>254.3</ele>
        <time>2024-06-29T09:24:15Z</time>
      </trkpt>
      <trkpt lat="47.14615" lon="4.9349">
        <ele>254</ele>
        <time>2024-06-29T09:24:16Z</time>
      </trkpt>
      <trkpt lat="47.14615" lon="4.93489">
        <ele>254.2</ele>
        <time>2024-06-29T09:24:17Z</time>
      </trkpt>
      <trkpt lat="47.14616" lon="4.93487">
        <ele>254.5</ele>
        <time>2024-06-29T09:24:18Z</time>
      </trkpt>
      <trkpt lat="47.14616" lon="4.93486">
        <ele>254.6</ele>
        <time>2024-06-29T09:24:19Z</time>
      </trkpt>
      <trkpt lat="47.14617" lon="4.93485">
        <ele>254.8</ele>
        <time>2024-06-29T09:24:20Z</time>
      </trkpt>
      <trkpt lat="47.14618" lon="4.93484">
        <ele>255.3</ele>
        <time>2024-06-29T09:24:22Z</time>
      </trkpt>
      <trkpt lat="47.14619" lon="4.93484">
        <ele>255.9</ele>
        <time>2024-06-29T09:24:24Z</time>
      </trkpt>
      <trkpt lat="47.1462" lon="4.93483">
        <ele>256.6</ele>
        <time>2024-06-29T09:24:27Z</time>
      </trkpt>
      <trkpt lat="47.14621" lon="4.93481">
        <ele>256.5</ele>
        <time>2024-06-29T09:24:29Z</time>
      </trkpt>
      <trkpt lat="47.14622" lon="4.9348">
        <ele>256.1</ele>
        <time>2024-06-29T09:24:31Z</time>
      </trkpt>
      <trkpt lat="47.14622" lon="4.93478">
        <ele>255.6</ele>
        <time>2024-06-29T09:24:32Z</time>
      </trkpt>
      <trkpt lat="47.14622" lon="4.93477">
        <ele>255.5</ele>
        <time>2024-06-29T09:24:33Z</time>
      </trkpt>
      <trkpt lat="47.14623" lon="4.93475">
        <ele>255.5</ele>
        <time>2024-06-29T09:24:35Z</time>
      </trkpt>
      <trkpt lat="47.14624" lon="4.93473">
        <ele>255.4</ele>
        <time>2024-06-29T09:24:37Z</time>
      </trkpt>
      <trkpt lat="47.14625" lon="4.93471">
        <ele>255.7</ele>
        <time>2024-06-29T09:24:39Z</time>
      </trkpt>
      <trkpt lat="47.14626" lon="4.9347">
        <ele>255.6</ele>
        <time>2024-06-29T09:24:40Z</time>
      </trkpt>
      <trkpt lat="47.14626" lon="4.93468">
        <ele>255.3</ele>
        <time>2024-06-29T09:24:41Z</time>
      </trkpt>
      <trkpt lat="47.14627" lon="4.93467">
        <ele>255.3</ele>
        <time>2024-06-29T09:24:42Z</time>
      </trkpt>
      <trkpt lat="47.14627" lon="4.93466">
        <ele>255.4</ele>
        <time>2024-06-29T09:24:43Z</time>
      </trkpt>
      <trkpt lat="47.14628" lon="4.93464">
        <ele>255.5</ele>
        <time>2024-06-29T09:24:44Z</time>
      </trkpt>
      <trkpt lat="47.14628" lon="4.93463">
        <ele>255.3</ele>
        <time>2024-06-29T09:24:45Z</time>
      </trkpt>
      <trkpt lat="47.14629" lon="4.93462">
        <ele>255.2</ele>
        <time>2024-06-29T09:24:46Z</time>
      </trkpt>
      <trkpt lat="47.14629" lon="4.9346">
        <ele>252.9</ele>
        <time>2024-06-29T09:24:47Z</time>
      </trkpt>
      <trkpt lat="47.1463" lon="4.93458">
        <ele>253.1</ele>
        <time>2024-06-29T09:24:48Z</time>
      </trkpt>
      <trkpt lat="47.1463" lon="4.93457">
        <ele>253.4</ele>
        <time>2024-06-29T09:24:49Z</time>
      </trkpt>
      <trkpt lat="47.14631" lon="4.93455">
        <ele>253.9</ele>
        <time>2024-06-29T09:24:50Z</time>
      </trkpt>
      <trkpt lat="47.14631" lon="4.93454">
        <ele>253.7</ele>
        <time>2024-06-29T09:24:51Z</time>
      </trkpt>
      <trkpt lat="47.14632" lon="4.93452">
        <ele>253.4</ele>
        <time>2024-06-29T09:24:52Z</time>
      </trkpt>
      <trkpt lat="47.14632" lon="4.93451">
        <ele>253.8</ele>
        <time>2024-06-29T09:24:53Z</time>
      </trkpt>
      <trkpt lat="47.14633" lon="4.93449">
        <ele>254</ele>
        <time>2024-06-29T09:24:54Z</time>
      </trkpt>
      <trkpt lat="47.14633" lon="4.93448">
        <ele>253.9</ele>
        <time>2024-06-29T09:24:55Z</time>
      </trkpt>
      <trkpt lat="47.14634" lon="4.93446">
        <ele>254.2</ele>
        <time>2024-06-29T09:24:56Z</time>
      </trkpt>
      <trkpt lat="47.14635" lon="4.93445">
        <ele>254.4</ele>
        <time>2024-06-29T09:24:57Z</time>
      </trkpt>
      <trkpt lat="47.14635" lon="4.93443">
        <ele>254.9</ele>
        <time>2024-06-29T09:24:58Z</time>
      </trkpt>
      <trkpt lat="47.14635" lon="4.93442">
        <ele>254.7</ele>
        <time>2024-06-29T09:24:59Z</time>
      </trkpt>
      <trkpt lat="47.14636" lon="4.93441">
        <ele>254.5</ele>
        <time>2024-06-29T09:25:00Z</time>
      </trkpt>
      <trkpt lat="47.14637" lon="4.9344">
        <ele>253.9</ele>
        <time>2024-06-29T09:25:01Z</time>
      </trkpt>
      <trkpt lat="47.14637" lon="4.93438">
        <ele>253.9</ele>
        <time>2024-06-29T09:25:02Z</time>
      </trkpt>
      <trkpt lat="47.14638" lon="4.93437">
        <ele>253.8</ele>
        <time>2024-06-29T09:25:03Z</time>
      </trkpt>
      <trkpt lat="47.14638" lon="4.93436">
        <ele>253.6</ele>
        <time>2024-06-29T09:25:04Z</time>
      </trkpt>
      <trkpt lat="47.14639" lon="4.93434">
        <ele>253.4</ele>
        <time>2024-06-29T09:25:05Z</time>
      </trkpt>
      <trkpt lat="47.14639" lon="4.93433">
        <ele>253.5</ele>
        <time>2024-06-29T09:25:06Z</time>
      </trkpt>
      <trkpt lat="47.1464" lon="4.93432">
        <ele>254</ele>
        <time>2024-06-29T09:25:07Z</time>
      </trkpt>
      <trkpt lat="47.14641" lon="4.93431">
        <ele>253.6</ele>
        <time>2024-06-29T09:25:09Z</time>
      </trkpt>
      <trkpt lat="47.14643" lon="4.9343">
        <ele>253.7</ele>
        <time>2024-06-29T09:25:11Z</time>
      </trkpt>
      <trkpt lat="47.14644" lon="4.93429">
        <ele>254.7</ele>
        <time>2024-06-29T09:25:13Z</time>
      </trkpt>
      <trkpt lat="47.14645" lon="4.93427">
        <ele>255</ele>
        <time>2024-06-29T09:25:14Z</time>
      </trkpt>
      <trkpt lat="47.14646" lon="4.93426">
        <ele>255.7</ele>
        <time>2024-06-29T09:25:15Z</time>
      </trkpt>
      <trkpt lat="47.14646" lon="4.93425">
        <ele>255.3</ele>
        <time>2024-06-29T09:25:16Z</time>
      </trkpt>
      <trkpt lat="47.14646" lon="4.93423">
        <ele>255.4</ele>
        <time>2024-06-29T09:25:17Z</time>
      </trkpt>
      <trkpt lat="47.14646" lon="4.93421">
        <ele>255.4</ele>
        <time>2024-06-29T09:25:18Z</time>
      </trkpt>
      <trkpt lat="47.14647" lon="4.93419">
        <ele>256.1</ele>
        <time>2024-06-29T09:25:19Z</time>
      </trkpt>
      <trkpt lat="47.14647" lon="4.93417">
        <ele>255.7</ele>
        <time>2024-06-29T09:25:20Z</time>
      </trkpt>
      <trkpt lat="47.14648" lon="4.93415">
        <ele>255.9</ele>
        <time>2024-06-29T09:25:21Z</time>
      </trkpt>
      <trkpt lat="47.14648" lon="4.93414">
        <ele>255.9</ele>
        <time>2024-06-29T09:25:22Z</time>
      </trkpt>
      <trkpt lat="47.14648" lon="4.93412">
        <ele>255.9</ele>
        <time>2024-06-29T09:25:23Z</time>
      </trkpt>
      <trkpt lat="47.14649" lon="4.9341">
        <ele>255.7</ele>
        <time>2024-06-29T09:25:24Z</time>
      </trkpt>
      <trkpt lat="47.14649" lon="4.93409">
        <ele>255.5</ele>
        <time>2024-06-29T09:25:25Z</time>
      </trkpt>
      <trkpt lat="47.1465" lon="4.93407">
        <ele>255.7</ele>
        <time>2024-06-29T09:25:26Z</time>
      </trkpt>
      <trkpt lat="47.1465" lon="4.93406">
        <ele>255.8</ele>
        <time>2024-06-29T09:25:27Z</time>
      </trkpt>
      <trkpt lat="47.1465" lon="4.93405">
        <ele>255.9</ele>
        <time>2024-06-29T09:25:28Z</time>
      </trkpt>
      <trkpt lat="47.14651" lon="4.93403">
        <ele>256.2</ele>
        <time>2024-06-29T09:25:29Z</time>
      </trkpt>
      <trkpt lat="47.14651" lon="4.93402">
        <ele>256.1</ele>
        <time>2024-06-29T09:25:30Z</time>
      </trkpt>
      <trkpt lat="47.14651" lon="4.934">
        <ele>256.2</ele>
        <time>2024-06-29T09:25:31Z</time>
      </trkpt>
      <trkpt lat="47.14652" lon="4.93399">
        <ele>256.4</ele>
        <time>2024-06-29T09:25:32Z</time>
      </trkpt>
      <trkpt lat="47.14652" lon="4.93398">
        <ele>256</ele>
        <time>2024-06-29T09:25:33Z</time>
      </trkpt>
      <trkpt lat="47.14653" lon="4.93396">
        <ele>256.4</ele>
        <time>2024-06-29T09:25:34Z</time>
      </trkpt>
      <trkpt lat="47.14653" lon="4.93395">
        <ele>256.3</ele>
        <time>2024-06-29T09:25:35Z</time>
      </trkpt>
      <trkpt lat="47.14653" lon="4.93393">
        <ele>256.4</ele>
        <time>2024-06-29T09:25:36Z</time>
      </trkpt>
      <trkpt lat="47.14654" lon="4.93392">
        <ele>256.4</ele>
        <time>2024-06-29T09:25:37Z</time>
      </trkpt>
      <trkpt lat="47.14654" lon="4.93391">
        <ele>256.1</ele>
        <time>2024-06-29T09:25:38Z</time>
      </trkpt>
      <trkpt lat="47.14654" lon="4.93389">
        <ele>256.2</ele>
        <time>2024-06-29T09:25:39Z</time>
      </trkpt>
      <trkpt lat="47.14655" lon="4.93388">
        <ele>256.2</ele>
        <time>2024-06-29T09:25:40Z</time>
      </trkpt>
      <trkpt lat="47.14655" lon="4.93386">
        <ele>256</ele>
        <time>2024-06-29T09:25:41Z</time>
      </trkpt>
      <trkpt lat="47.14655" lon="4.93384">
        <ele>256</ele>
        <time>2024-06-29T09:25:42Z</time>
      </trkpt>
      <trkpt lat="47.14655" lon="4.93383">
        <ele>256.1</ele>
        <time>2024-06-29T09:25:43Z</time>
      </trkpt>
      <trkpt lat="47.14655" lon="4.93382">
        <ele>256.6</ele>
        <time>2024-06-29T09:25:44Z</time>
      </trkpt>
      <trkpt lat="47.14655" lon="4.9338">
        <ele>256.8</ele>
        <time>2024-06-29T09:25:45Z</time>
      </trkpt>
      <trkpt lat="47.14655" lon="4.93379">
        <ele>256.9</ele>
        <time>2024-06-29T09:25:46Z</time>
      </trkpt>
      <trkpt lat="47.14656" lon="4.93377">
        <ele>257.3</ele>
        <time>2024-06-29T09:25:47Z</time>
      </trkpt>
      <trkpt lat="47.14656" lon="4.93376">
        <ele>257.2</ele>
        <time>2024-06-29T09:25:48Z</time>
      </trkpt>
      <trkpt lat="47.14656" lon="4.93374">
        <ele>256.9</ele>
        <time>2024-06-29T09:25:49Z</time>
      </trkpt>
      <trkpt lat="47.14657" lon="4.93373">
        <ele>257.2</ele>
        <time>2024-06-29T09:25:50Z</time>
      </trkpt>
      <trkpt lat="47.14657" lon="4.93372">
        <ele>257</ele>
        <time>2024-06-29T09:25:51Z</time>
      </trkpt>
      <trkpt lat="47.14658" lon="4.9337">
        <ele>257.1</ele>
        <time>2024-06-29T09:25:52Z</time>
      </trkpt>
      <trkpt lat="47.14658" lon="4.93369">
        <ele>257.1</ele>
        <time>2024-06-29T09:25:53Z</time>
      </trkpt>
      <trkpt lat="47.14658" lon="4.93367">
        <ele>256.8</ele>
        <time>2024-06-29T09:25:54Z</time>
      </trkpt>
      <trkpt lat="47.14659" lon="4.93366">
        <ele>256.7</ele>
        <time>2024-06-29T09:25:55Z</time>
      </trkpt>
      <trkpt lat="47.14659" lon="4.93364">
        <ele>256.7</ele>
        <time>2024-06-29T09:25:56Z</time>
      </trkpt>
      <trkpt lat="47.1466" lon="4.93362">
        <ele>256.8</ele>
        <time>2024-06-29T09:25:57Z</time>
      </trkpt>
      <trkpt lat="47.1466" lon="4.93361">
        <ele>256.2</ele>
        <time>2024-06-29T09:25:58Z</time>
      </trkpt>
      <trkpt lat="47.1466" lon="4.93359">
        <ele>255.3</ele>
        <time>2024-06-29T09:25:59Z</time>
      </trkpt>
      <trkpt lat="47.1466" lon="4.93358">
        <ele>255.3</ele>
        <time>2024-06-29T09:26:00Z</time>
      </trkpt>
      <trkpt lat="47.14661" lon="4.93356">
        <ele>255</ele>
        <time>2024-06-29T09:26:01Z</time>
      </trkpt>
      <trkpt lat="47.14661" lon="4.93355">
        <ele>254.9</ele>
        <time>2024-06-29T09:26:02Z</time>
      </trkpt>
      <trkpt lat="47.14661" lon="4.93354">
        <ele>255</ele>
        <time>2024-06-29T09:26:03Z</time>
      </trkpt>
      <trkpt lat="47.14662" lon="4.93352">
        <ele>254.9</ele>
        <time>2024-06-29T09:26:04Z</time>
      </trkpt>
      <trkpt lat="47.14662" lon="4.93351">
        <ele>254.5</ele>
        <time>2024-06-29T09:26:05Z</time>
      </trkpt>
      <trkpt lat="47.14662" lon="4.93349">
        <ele>255.1</ele>
        <time>2024-06-29T09:26:06Z</time>
      </trkpt>
      <trkpt lat="47.14663" lon="4.93348">
        <ele>253.5</ele>
        <time>2024-06-29T09:26:07Z</time>
      </trkpt>
      <trkpt lat="47.14663" lon="4.93347">
        <ele>253.4</ele>
        <time>2024-06-29T09:26:08Z</time>
      </trkpt>
      <trkpt lat="47.14663" lon="4.93345">
        <ele>254.9</ele>
        <time>2024-06-29T09:26:09Z</time>
      </trkpt>
      <trkpt lat="47.14664" lon="4.93344">
        <ele>254.7</ele>
        <time>2024-06-29T09:26:10Z</time>
      </trkpt>
      <trkpt lat="47.14664" lon="4.93343">
        <ele>254.2</ele>
        <time>2024-06-29T09:26:11Z</time>
      </trkpt>
      <trkpt lat="47.14665" lon="4.93341">
        <ele>254.4</ele>
        <time>2024-06-29T09:26:12Z</time>
      </trkpt>
      <trkpt lat="47.14665" lon="4.9334">
        <ele>254.9</ele>
        <time>2024-06-29T09:26:13Z</time>
      </trkpt>
      <trkpt lat="47.14666" lon="4.93339">
        <ele>255.3</ele>
        <time>2024-06-29T09:26:14Z</time>
      </trkpt>
      <trkpt lat="47.14667" lon="4.93338">
        <ele>254.9</ele>
        <time>2024-06-29T09:26:15Z</time>
      </trkpt>
      <trkpt lat="47.14667" lon="4.93337">
        <ele>255.1</ele>
        <time>2024-06-29T09:26:16Z</time>
      </trkpt>
      <trkpt lat="47.14668" lon="4.93335">
        <ele>255</ele>
        <time>2024-06-29T09:26:17Z</time>
      </trkpt>
      <trkpt lat="47.14669" lon="4.93334">
        <ele>255.2</ele>
        <time>2024-06-29T09:26:18Z</time>
      </trkpt>
      <trkpt lat="47.14669" lon="4.93333">
        <ele>255.5</ele>
        <time>2024-06-29T09:26:19Z</time>
      </trkpt>
      <trkpt lat="47.1467" lon="4.93332">
        <ele>255.5</ele>
        <time>2024-06-29T09:26:20Z</time>
      </trkpt>
      <trkpt lat="47.14671" lon="4.93331">
        <ele>255.3</ele>
        <time>2024-06-29T09:26:21Z</time>
      </trkpt>
      <trkpt lat="47.14671" lon="4.9333">
        <ele>255.5</ele>
        <time>2024-06-29T09:26:22Z</time>
      </trkpt>
      <trkpt lat="47.14672" lon="4.9333">
        <ele>256</ele>
        <time>2024-06-29T09:26:23Z</time>
      </trkpt>
      <trkpt lat="47.14673" lon="4.93329">
        <ele>256.2</ele>
        <time>2024-06-29T09:26:24Z</time>
      </trkpt>
      <trkpt lat="47.14674" lon="4.93328">
        <ele>256.5</ele>
        <time>2024-06-29T09:26:25Z</time>
      </trkpt>
      <trkpt lat="47.14674" lon="4.93327">
        <ele>257.1</ele>
        <time>2024-06-29T09:26:26Z</time>
      </trkpt>
      <trkpt lat="47.14675" lon="4.93326">
        <ele>257</ele>
        <time>2024-06-29T09:26:27Z</time>
      </trkpt>
      <trkpt lat="47.14676" lon="4.93324">
        <ele>257.1</ele>
        <time>2024-06-29T09:26:28Z</time>
      </trkpt>
      <trkpt lat="47.14676" lon="4.93323">
        <ele>256.8</ele>
        <time>2024-06-29T09:26:29Z</time>
      </trkpt>
      <trkpt lat="47.14677" lon="4.93322">
        <ele>256.9</ele>
        <time>2024-06-29T09:26:30Z</time>
      </trkpt>
      <trkpt lat="47.14677" lon="4.93321">
        <ele>256.3</ele>
        <time>2024-06-29T09:26:31Z</time>
      </trkpt>
      <trkpt lat="47.14678" lon="4.93319">
        <ele>258.1</ele>
        <time>2024-06-29T09:26:33Z</time>
      </trkpt>
      <trkpt lat="47.14679" lon="4.93318">
        <ele>258.5</ele>
        <time>2024-06-29T09:26:34Z</time>
      </trkpt>
      <trkpt lat="47.1468" lon="4.93317">
        <ele>258.9</ele>
        <time>2024-06-29T09:26:35Z</time>
      </trkpt>
      <trkpt lat="47.1468" lon="4.93315">
        <ele>259</ele>
        <time>2024-06-29T09:26:36Z</time>
      </trkpt>
      <trkpt lat="47.14681" lon="4.93314">
        <ele>259</ele>
        <time>2024-06-29T09:26:37Z</time>
      </trkpt>
      <trkpt lat="47.14682" lon="4.93313">
        <ele>259.4</ele>
        <time>2024-06-29T09:26:38Z</time>
      </trkpt>
      <trkpt lat="47.14682" lon="4.93312">
        <ele>259.2</ele>
        <time>2024-06-29T09:26:39Z</time>
      </trkpt>
      <trkpt lat="47.14683" lon="4.93311">
        <ele>259.3</ele>
        <time>2024-06-29T09:26:40Z</time>
      </trkpt>
      <trkpt lat="47.14684" lon="4.9331">
        <ele>258.9</ele>
        <time>2024-06-29T09:26:41Z</time>
      </trkpt>
      <trkpt lat="47.14685" lon="4.93309">
        <ele>258.9</ele>
        <time>2024-06-29T09:26:42Z</time>
      </trkpt>
      <trkpt lat="47.14686" lon="4.93308">
        <ele>260.2</ele>
        <time>2024-06-29T09:26:43Z</time>
      </trkpt>
      <trkpt lat="47.14686" lon="4.93307">
        <ele>260.4</ele>
        <time>2024-06-29T09:26:44Z</time>
      </trkpt>
      <trkpt lat="47.14688" lon="4.93307">
        <ele>260.2</ele>
        <time>2024-06-29T09:26:45Z</time>
      </trkpt>
      <trkpt lat="47.14689" lon="4.93307">
        <ele>260.4</ele>
        <time>2024-06-29T09:26:46Z</time>
      </trkpt>
      <trkpt lat="47.1469" lon="4.93307">
        <ele>260.8</ele>
        <time>2024-06-29T09:26:47Z</time>
      </trkpt>
      <trkpt lat="47.14691" lon="4.93306">
        <ele>260.6</ele>
        <time>2024-06-29T09:26:48Z</time>
      </trkpt>
      <trkpt lat="47.14692" lon="4.93305">
        <ele>260.6</ele>
        <time>2024-06-29T09:26:49Z</time>
      </trkpt>
      <trkpt lat="47.14692" lon="4.93303">
        <ele>260.6</ele>
        <time>2024-06-29T09:26:50Z</time>
      </trkpt>
      <trkpt lat="47.14693" lon="4.93301">
        <ele>258.8</ele>
        <time>2024-06-29T09:26:52Z</time>
      </trkpt>
      <trkpt lat="47.14694" lon="4.933">
        <ele>259.4</ele>
        <time>2024-06-29T09:26:53Z</time>
      </trkpt>
      <trkpt lat="47.14695" lon="4.93298">
        <ele>259.7</ele>
        <time>2024-06-29T09:26:54Z</time>
      </trkpt>
      <trkpt lat="47.14696" lon="4.93298">
        <ele>260.7</ele>
        <time>2024-06-29T09:26:55Z</time>
      </trkpt>
      <trkpt lat="47.14697" lon="4.93298">
        <ele>261.8</ele>
        <time>2024-06-29T09:26:56Z</time>
      </trkpt>
      <trkpt lat="47.14698" lon="4.93297">
        <ele>261.7</ele>
        <time>2024-06-29T09:26:57Z</time>
      </trkpt>
      <trkpt lat="47.14699" lon="4.93297">
        <ele>261.7</ele>
        <time>2024-06-29T09:26:58Z</time>
      </trkpt>
      <trkpt lat="47.14701" lon="4.93296">
        <ele>261.7</ele>
        <time>2024-06-29T09:26:59Z</time>
      </trkpt>
      <trkpt lat="47.14702" lon="4.93296">
        <ele>262.5</ele>
        <time>2024-06-29T09:27:00Z</time>
      </trkpt>
      <trkpt lat="47.14702" lon="4.93295">
        <ele>262.4</ele>
        <time>2024-06-29T09:27:01Z</time>
      </trkpt>
      <trkpt lat="47.14703" lon="4.93293">
        <ele>260.9</ele>
        <time>2024-06-29T09:27:02Z</time>
      </trkpt>
      <trkpt lat="47.14704" lon="4.93292">
        <ele>258.6</ele>
        <time>2024-06-29T09:27:04Z</time>
      </trkpt>
      <trkpt lat="47.14704" lon="4.93291">
        <ele>258.1</ele>
        <time>2024-06-29T09:27:05Z</time>
      </trkpt>
      <trkpt lat="47.14705" lon="4.9329">
        <ele>258.8</ele>
        <time>2024-06-29T09:27:07Z</time>
      </trkpt>
      <trkpt lat="47.14706" lon="4.9329">
        <ele>258.2</ele>
        <time>2024-06-29T09:27:08Z</time>
      </trkpt>
      <trkpt lat="47.14708" lon="4.93289">
        <ele>259.1</ele>
        <time>2024-06-29T09:27:09Z</time>
      </trkpt>
      <trkpt lat="47.14709" lon="4.93288">
        <ele>258.6</ele>
        <time>2024-06-29T09:27:10Z</time>
      </trkpt>
      <trkpt lat="47.14709" lon="4.93287">
        <ele>258.1</ele>
        <time>2024-06-29T09:27:11Z</time>
      </trkpt>
      <trkpt lat="47.1471" lon="4.93286">
        <ele>259.8</ele>
        <time>2024-06-29T09:27:12Z</time>
      </trkpt>
      <trkpt lat="47.14712" lon="4.93286">
        <ele>261.6</ele>
        <time>2024-06-29T09:27:14Z</time>
      </trkpt>
      <trkpt lat="47.14713" lon="4.93285">
        <ele>262.1</ele>
        <time>2024-06-29T09:27:15Z</time>
      </trkpt>
      <trkpt lat="47.14714" lon="4.93285">
        <ele>262.4</ele>
        <time>2024-06-29T09:27:16Z</time>
      </trkpt>
      <trkpt lat="47.14715" lon="4.93285">
        <ele>263.3</ele>
        <time>2024-06-29T09:27:17Z</time>
      </trkpt>
      <trkpt lat="47.14717" lon="4.93285">
        <ele>264.7</ele>
        <time>2024-06-29T09:27:19Z</time>
      </trkpt>
      <trkpt lat="47.14718" lon="4.93285">
        <ele>265.6</ele>
        <time>2024-06-29T09:27:21Z</time>
      </trkpt>
      <trkpt lat="47.1472" lon="4.93285">
        <ele>265.7</ele>
        <time>2024-06-29T09:27:23Z</time>
      </trkpt>
      <trkpt lat="47.14721" lon="4.93285">
        <ele>266.1</ele>
        <time>2024-06-29T09:27:25Z</time>
      </trkpt>
      <trkpt lat="47.14722" lon="4.93284">
        <ele>265.8</ele>
        <time>2024-06-29T09:27:27Z</time>
      </trkpt>
      <trkpt lat="47.14723" lon="4.93284">
        <ele>266.9</ele>
        <time>2024-06-29T09:27:29Z</time>
      </trkpt>
      <trkpt lat="47.14725" lon="4.93284">
        <ele>267.5</ele>
        <time>2024-06-29T09:27:31Z</time>
      </trkpt>
      <trkpt lat="47.14726" lon="4.93284">
        <ele>267.7</ele>
        <time>2024-06-29T09:27:33Z</time>
      </trkpt>
      <trkpt lat="47.14727" lon="4.93284">
        <ele>267.7</ele>
        <time>2024-06-29T09:27:35Z</time>
      </trkpt>
      <trkpt lat="47.14729" lon="4.93284">
        <ele>267.7</ele>
        <time>2024-06-29T09:27:37Z</time>
      </trkpt>
      <trkpt lat="47.1473" lon="4.93284">
        <ele>268.1</ele>
        <time>2024-06-29T09:27:39Z</time>
      </trkpt>
      <trkpt lat="47.14732" lon="4.93284">
        <ele>267.9</ele>
        <time>2024-06-29T09:27:41Z</time>
      </trkpt>
      <trkpt lat="47.14733" lon="4.93284">
        <ele>268.2</ele>
        <time>2024-06-29T09:27:43Z</time>
      </trkpt>
      <trkpt lat="47.14735" lon="4.93284">
        <ele>268.5</ele>
        <time>2024-06-29T09:27:45Z</time>
      </trkpt>
      <trkpt lat="47.14736" lon="4.93284">
        <ele>268.8</ele>
        <time>2024-06-29T09:27:47Z</time>
      </trkpt>
      <trkpt lat="47.14738" lon="4.93284">
        <ele>269.1</ele>
        <time>2024-06-29T09:27:49Z</time>
      </trkpt>
      <trkpt lat="47.14739" lon="4.93284">
        <ele>269.2</ele>
        <time>2024-06-29T09:27:51Z</time>
      </trkpt>
      <trkpt lat="47.14741" lon="4.93285">
        <ele>269.7</ele>
        <time>2024-06-29T09:27:53Z</time>
      </trkpt>
      <trkpt lat="47.14743" lon="4.93285">
        <ele>269.4</ele>
        <time>2024-06-29T09:27:55Z</time>
      </trkpt>
      <trkpt lat="47.14744" lon="4.93285">
        <ele>269.6</ele>
        <time>2024-06-29T09:27:57Z</time>
      </trkpt>
      <trkpt lat="47.14746" lon="4.93286">
        <ele>270.3</ele>
        <time>2024-06-29T09:27:59Z</time>
      </trkpt>
      <trkpt lat="47.14747" lon="4.93286">
        <ele>270.8</ele>
        <time>2024-06-29T09:28:01Z</time>
      </trkpt>
      <trkpt lat="47.14749" lon="4.93287">
        <ele>271.5</ele>
        <time>2024-06-29T09:28:03Z</time>
      </trkpt>
      <trkpt lat="47.1475" lon="4.93287">
        <ele>271.5</ele>
        <time>2024-06-29T09:28:05Z</time>
      </trkpt>
      <trkpt lat="47.14752" lon="4.93287">
        <ele>272.5</ele>
        <time>2024-06-29T09:28:07Z</time>
      </trkpt>
      <trkpt lat="47.14753" lon="4.93288">
        <ele>272.3</ele>
        <time>2024-06-29T09:28:09Z</time>
      </trkpt>
      <trkpt lat="47.14755" lon="4.93289">
        <ele>273.2</ele>
        <time>2024-06-29T09:28:11Z</time>
      </trkpt>
      <trkpt lat="47.14756" lon="4.9329">
        <ele>273</ele>
        <time>2024-06-29T09:28:13Z</time>
      </trkpt>
      <trkpt lat="47.14758" lon="4.9329">
        <ele>273.5</ele>
        <time>2024-06-29T09:28:15Z</time>
      </trkpt>
      <trkpt lat="47.14759" lon="4.9329">
        <ele>274</ele>
        <time>2024-06-29T09:28:17Z</time>
      </trkpt>
      <trkpt lat="47.1476" lon="4.93291">
        <ele>274.8</ele>
        <time>2024-06-29T09:28:18Z</time>
      </trkpt>
      <trkpt lat="47.14761" lon="4.93291">
        <ele>274.3</ele>
        <time>2024-06-29T09:28:19Z</time>
      </trkpt>
      <trkpt lat="47.14762" lon="4.93291">
        <ele>275.9</ele>
        <time>2024-06-29T09:28:21Z</time>
      </trkpt>
      <trkpt lat="47.14764" lon="4.9329">
        <ele>275.6</ele>
        <time>2024-06-29T09:28:23Z</time>
      </trkpt>
      <trkpt lat="47.14765" lon="4.9329">
        <ele>274.7</ele>
        <time>2024-06-29T09:28:25Z</time>
      </trkpt>
      <trkpt lat="47.14766" lon="4.9329">
        <ele>275.2</ele>
        <time>2024-06-29T09:28:26Z</time>
      </trkpt>
      <trkpt lat="47.14767" lon="4.9329">
        <ele>276.5</ele>
        <time>2024-06-29T09:28:27Z</time>
      </trkpt>
      <trkpt lat="47.14769" lon="4.9329">
        <ele>275.3</ele>
        <time>2024-06-29T09:28:29Z</time>
      </trkpt>
      <trkpt lat="47.1477" lon="4.9329">
        <ele>275.4</ele>
        <time>2024-06-29T09:28:31Z</time>
      </trkpt>
      <trkpt lat="47.14771" lon="4.93288">
        <ele>276.6</ele>
        <time>2024-06-29T09:28:33Z</time>
      </trkpt>
      <trkpt lat="47.14772" lon="4.93287">
        <ele>276.6</ele>
        <time>2024-06-29T09:28:35Z</time>
      </trkpt>
      <trkpt lat="47.14774" lon="4.93287">
        <ele>276.7</ele>
        <time>2024-06-29T09:28:37Z</time>
      </trkpt>
      <trkpt lat="47.14775" lon="4.93286">
        <ele>274.7</ele>
        <time>2024-06-29T09:28:39Z</time>
      </trkpt>
      <trkpt lat="47.14776" lon="4.93284">
        <ele>275.8</ele>
        <time>2024-06-29T09:28:41Z</time>
      </trkpt>
      <trkpt lat="47.14777" lon="4.93283">
        <ele>276.2</ele>
        <time>2024-06-29T09:28:43Z</time>
      </trkpt>
      <trkpt lat="47.14779" lon="4.93283">
        <ele>277.3</ele>
        <time>2024-06-29T09:28:45Z</time>
      </trkpt>
      <trkpt lat="47.1478" lon="4.93283">
        <ele>274.8</ele>
        <time>2024-06-29T09:28:47Z</time>
      </trkpt>
      <trkpt lat="47.14781" lon="4.93283">
        <ele>273.8</ele>
        <time>2024-06-29T09:28:49Z</time>
      </trkpt>
      <trkpt lat="47.14783" lon="4.93282">
        <ele>274.3</ele>
        <time>2024-06-29T09:28:51Z</time>
      </trkpt>
      <trkpt lat="47.14784" lon="4.93282">
        <ele>275.7</ele>
        <time>2024-06-29T09:28:53Z</time>
      </trkpt>
      <trkpt lat="47.14785" lon="4.93283">
        <ele>271.8</ele>
        <time>2024-06-29T09:28:55Z</time>
      </trkpt>
      <trkpt lat="47.14785" lon="4.93284">
        <ele>269.4</ele>
        <time>2024-06-29T09:28:57Z</time>
      </trkpt>
      <trkpt lat="47.14786" lon="4.93285">
        <ele>268.9</ele>
        <time>2024-06-29T09:28:59Z</time>
      </trkpt>
      <trkpt lat="47.14787" lon="4.93286">
        <ele>268.8</ele>
        <time>2024-06-29T09:29:01Z</time>
      </trkpt>
      <trkpt lat="47.14789" lon="4.93285">
        <ele>268.6</ele>
        <time>2024-06-29T09:29:03Z</time>
      </trkpt>
      <trkpt lat="47.1479" lon="4.93284">
        <ele>268.2</ele>
        <time>2024-06-29T09:29:05Z</time>
      </trkpt>
      <trkpt lat="47.14792" lon="4.93285">
        <ele>268.6</ele>
        <time>2024-06-29T09:29:07Z</time>
      </trkpt>
      <trkpt lat="47.14793" lon="4.93285">
        <ele>269</ele>
        <time>2024-06-29T09:29:09Z</time>
      </trkpt>
      <trkpt lat="47.14792" lon="4.93287">
        <ele>269.7</ele>
        <time>2024-06-29T09:29:11Z</time>
      </trkpt>
      <trkpt lat="47.14791" lon="4.93289">
        <ele>269.4</ele>
        <time>2024-06-29T09:29:14Z</time>
      </trkpt>
      <trkpt lat="47.1479" lon="4.9329">
        <ele>267.7</ele>
        <time>2024-06-29T09:29:18Z</time>
      </trkpt>
      <trkpt lat="47.14789" lon="4.9329">
        <ele>267.7</ele>
        <time>2024-06-29T09:29:21Z</time>
      </trkpt>
      <trkpt lat="47.1479" lon="4.93289">
        <ele>268.1</ele>
        <time>2024-06-29T09:29:29Z</time>
      </trkpt>
      <trkpt lat="47.14791" lon="4.9329">
        <ele>267</ele>
        <time>2024-06-29T09:29:32Z</time>
      </trkpt>
      <trkpt lat="47.14793" lon="4.9329">
        <ele>266.5</ele>
        <time>2024-06-29T09:29:34Z</time>
      </trkpt>
      <trkpt lat="47.14794" lon="4.9329">
        <ele>266.1</ele>
        <time>2024-06-29T09:29:37Z</time>
      </trkpt>
      <trkpt lat="47.14794" lon="4.93289">
        <ele>267.9</ele>
        <time>2024-06-29T09:29:41Z</time>
      </trkpt>
      <trkpt lat="47.14793" lon="4.93288">
        <ele>268.2</ele>
        <time>2024-06-29T09:29:43Z</time>
      </trkpt>
      <trkpt lat="47.14792" lon="4.93287">
        <ele>268.7</ele>
        <time>2024-06-29T09:29:49Z</time>
      </trkpt>
      <trkpt lat="47.14793" lon="4.93288">
        <ele>266.9</ele>
        <time>2024-06-29T09:30:03Z</time>
      </trkpt>
      <trkpt lat="47.14791" lon="4.93287">
        <ele>262.5</ele>
        <time>2024-06-29T09:30:09Z</time>
      </trkpt>
      <trkpt lat="47.14791" lon="4.93287">
        <ele>262.7</ele>
        <time>2024-06-29T09:30:11Z</time>
      </trkpt>
      <trkpt lat="47.14791" lon="4.93285">
        <ele>263.4</ele>
        <time>2024-06-29T09:30:13Z</time>
      </trkpt>
      <trkpt lat="47.14793" lon="4.93285">
        <ele>262</ele>
        <time>2024-06-29T09:30:15Z</time>
      </trkpt>
    </trkseg>
  </trk>
</gpx>